<?xml version='1.0' encoding='UTF-8'?><gpx version="1.1" creator="JPX - https://github.com/jenetics/jpx" xmlns="http://www.topografix.com/GPX/1/1"><trk><trkseg><trkpt lat="45.35665674458051" lon="11.590436754593252"><ele>15.0</ele><time>2026-04-18T08:15:49.001Z</time></trkpt><trkpt lat="45.35673243638257" lon="11.590462068599606"><ele>15.0</ele><time>2026-04-18T08:15:53.001Z</time></trkpt><trkpt lat="45.35668945655694" lon="11.59053992399747"><ele>15.0</ele><time>2026-04-18T08:15:56.001Z</time></trkpt><trkpt lat="45.356649669213645" lon="11.59046840227811"><ele>15.0</ele><time>2026-04-18T08:15:59.001Z</time></trkpt><trkpt lat="45.35655001527004" lon="11.590392531256084"><ele>15.0</ele><time>2026-04-18T08:16:20.001Z</time></trkpt><trkpt lat="45.35647891629806" lon="11.590318512120763"><ele>15.0</ele><time>2026-04-18T08:16:21.001Z</time></trkpt><trkpt lat="45.35637454351513" lon="11.590235569101015"><ele>15.166666666666666</ele><time>2026-04-18T08:16:22.001Z</time></trkpt><trkpt lat="45.356278287159824" lon="11.590162264204535"><ele>15.333333333333332</ele><time>2026-04-18T08:16:23.001Z</time></trkpt><trkpt lat="45.356207400726085" lon="11.590081711060163"><ele>15.5</ele><time>2026-04-18T08:16:24.001Z</time></trkpt><trkpt lat="45.356142224864456" lon="11.590023649716475"><ele>15.666666666666666</ele><time>2026-04-18T08:16:25.001Z</time></trkpt><trkpt lat="45.35604171740326" lon="11.589967262286427"><ele>15.833333333333332</ele><time>2026-04-18T08:16:27.001Z</time></trkpt><trkpt lat="45.35599728903519" lon="11.589902828355047"><ele>16.0</ele><time>2026-04-18T08:16:31.001Z</time></trkpt><trkpt lat="45.35607031175141" lon="11.589792184072204"><ele>16.0</ele><time>2026-04-18T08:16:33.001Z</time></trkpt><trkpt lat="45.35613624464232" lon="11.589660349641639"><ele>16.0</ele><time>2026-04-18T08:16:34.001Z</time></trkpt><trkpt lat="45.35621303620776" lon="11.58947731967159"><ele>16.0</ele><time>2026-04-18T08:16:35.001Z</time></trkpt><trkpt lat="45.35629419509351" lon="11.589315118115062"><ele>16.0</ele><time>2026-04-18T08:16:36.001Z</time></trkpt><trkpt lat="45.356376416635534" lon="11.589151691982002"><ele>16.75</ele><time>2026-04-18T08:16:37.001Z</time></trkpt><trkpt lat="45.35646559429656" lon="11.588985668115562"><ele>17.5</ele><time>2026-04-18T08:16:38.001Z</time></trkpt><trkpt lat="45.35655021189442" lon="11.588810941249317"><ele>18.25</ele><time>2026-04-18T08:16:39.001Z</time></trkpt><trkpt lat="45.3566384702639" lon="11.588639566091139"><ele>19.0</ele><time>2026-04-18T08:16:40.001Z</time></trkpt><trkpt lat="45.35671651362425" lon="11.588506313428088"><ele>19.0</ele><time>2026-04-18T08:16:41.001Z</time></trkpt><trkpt lat="45.35682134809546" lon="11.588385973273896"><ele>19.0</ele><time>2026-04-18T08:16:42.001Z</time></trkpt><trkpt lat="45.356949742946085" lon="11.588263768347721"><ele>19.0</ele><time>2026-04-18T08:16:43.001Z</time></trkpt><trkpt lat="45.35707510506615" lon="11.588140451337212"><ele>19.0</ele><time>2026-04-18T08:16:44.001Z</time></trkpt><trkpt lat="45.357196810710455" lon="11.587999049006447"><ele>19.666666666666664</ele><time>2026-04-18T08:16:45.001Z</time></trkpt><trkpt lat="45.357315754851335" lon="11.587852152888518"><ele>20.333333333333332</ele><time>2026-04-18T08:16:46.001Z</time></trkpt><trkpt lat="45.357430562529714" lon="11.587702904134824"><ele>21.0</ele><time>2026-04-18T08:16:47.001Z</time></trkpt><trkpt lat="45.35753729004924" lon="11.587549958822871"><ele>21.0</ele><time>2026-04-18T08:16:48.002Z</time></trkpt><trkpt lat="45.357646574497636" lon="11.587409982568216"><ele>21.0</ele><time>2026-04-18T08:16:49.002Z</time></trkpt><trkpt lat="45.357750336676915" lon="11.587281837218981"><ele>21.0</ele><time>2026-04-18T08:16:50.002Z</time></trkpt><trkpt lat="45.35784223565691" lon="11.587171128486986"><ele>21.0</ele><time>2026-04-18T08:16:51.002Z</time></trkpt><trkpt lat="45.35792793714274" lon="11.587059837200878"><ele>20.833333333333332</ele><time>2026-04-18T08:16:52.002Z</time></trkpt><trkpt lat="45.35800628004769" lon="11.58696037652983"><ele>20.666666666666668</ele><time>2026-04-18T08:16:53.002Z</time></trkpt><trkpt lat="45.35807480769627" lon="11.586872447950345"><ele>20.5</ele><time>2026-04-18T08:16:54.002Z</time></trkpt><trkpt lat="45.358129008824335" lon="11.58679917688189"><ele>20.333333333333336</ele><time>2026-04-18T08:16:55.002Z</time></trkpt><trkpt lat="45.358180195313736" lon="11.586743067480231"><ele>20.166666666666668</ele><time>2026-04-18T08:16:56.002Z</time></trkpt><trkpt lat="45.35826446827257" lon="11.586700277978528"><ele>20.0</ele><time>2026-04-18T08:16:58.002Z</time></trkpt><trkpt lat="45.35832900670508" lon="11.586617489073348"><ele>20.0</ele><time>2026-04-18T08:17:01.002Z</time></trkpt><trkpt lat="45.35834099987315" lon="11.586486127808138"><ele>20.0</ele><time>2026-04-18T08:17:02.002Z</time></trkpt><trkpt lat="45.35834271761686" lon="11.586313495894661"><ele>20.0</ele><time>2026-04-18T08:17:03.002Z</time></trkpt><trkpt lat="45.358344583787314" lon="11.586131666629138"><ele>20.0</ele><time>2026-04-18T08:17:04.002Z</time></trkpt><trkpt lat="45.35835267666888" lon="11.585921977846127"><ele>20.333333333333336</ele><time>2026-04-18T08:17:05.002Z</time></trkpt><trkpt lat="45.358357608999654" lon="11.58566055756203"><ele>20.666666666666668</ele><time>2026-04-18T08:17:06.002Z</time></trkpt><trkpt lat="45.35835178901906" lon="11.585387432366327"><ele>21.0</ele><time>2026-04-18T08:17:07.002Z</time></trkpt><trkpt lat="45.358326477065845" lon="11.585152596254371"><ele>20.333333333333332</ele><time>2026-04-18T08:17:08.002Z</time></trkpt><trkpt lat="45.35828360887954" lon="11.584945839861362"><ele>19.666666666666664</ele><time>2026-04-18T08:17:09.002Z</time></trkpt><trkpt lat="45.358220742560384" lon="11.584752544456464"><ele>19.0</ele><time>2026-04-18T08:17:10.001Z</time></trkpt><trkpt lat="45.35815712739672" lon="11.584549184861032"><ele>19.0</ele><time>2026-04-18T08:17:11.001Z</time></trkpt><trkpt lat="45.35810456948952" lon="11.5843570803798"><ele>19.0</ele><time>2026-04-18T08:17:12.001Z</time></trkpt><trkpt lat="45.35806054808006" lon="11.584178405398552"><ele>19.0</ele><time>2026-04-18T08:17:13.001Z</time></trkpt><trkpt lat="45.358016420349955" lon="11.584014712792948"><ele>19.0</ele><time>2026-04-18T08:17:14.001Z</time></trkpt><trkpt lat="45.35797761611838" lon="11.583860203462379"><ele>19.0</ele><time>2026-04-18T08:17:15.001Z</time></trkpt><trkpt lat="45.357946775350754" lon="11.583698143739607"><ele>19.0</ele><time>2026-04-18T08:17:16.001Z</time></trkpt><trkpt lat="45.357938664871696" lon="11.583528998928328"><ele>19.0</ele><time>2026-04-18T08:17:17.001Z</time></trkpt><trkpt lat="45.357956641136354" lon="11.583350896460674"><ele>19.0</ele><time>2026-04-18T08:17:18.001Z</time></trkpt><trkpt lat="45.35799713692137" lon="11.58318466171552"><ele>18.75</ele><time>2026-04-18T08:17:19.001Z</time></trkpt><trkpt lat="45.358046349348975" lon="11.583033383108038"><ele>18.5</ele><time>2026-04-18T08:17:20.001Z</time></trkpt><trkpt lat="45.35808710063105" lon="11.58287725233204"><ele>18.25</ele><time>2026-04-18T08:17:21.001Z</time></trkpt><trkpt lat="45.35811510838942" lon="11.582719526003169"><ele>18.0</ele><time>2026-04-18T08:17:22.001Z</time></trkpt><trkpt lat="45.35813830921237" lon="11.58255101623057"><ele>18.0</ele><time>2026-04-18T08:17:23.001Z</time></trkpt><trkpt lat="45.358149679102254" lon="11.582375442181498"><ele>18.0</ele><time>2026-04-18T08:17:24.001Z</time></trkpt><trkpt lat="45.358148702981445" lon="11.582185778684325"><ele>18.0</ele><time>2026-04-18T08:17:25Z</time></trkpt><trkpt lat="45.35813857562435" lon="11.581983559974118"><ele>18.0</ele><time>2026-04-18T08:17:26Z</time></trkpt><trkpt lat="45.358130878131405" lon="11.581795737853586"><ele>17.5</ele><time>2026-04-18T08:17:27Z</time></trkpt><trkpt lat="45.358133672209725" lon="11.58161013665734"><ele>17.0</ele><time>2026-04-18T08:17:28Z</time></trkpt><trkpt lat="45.35814368369373" lon="11.58142301502039"><ele>16.5</ele><time>2026-04-18T08:17:29Z</time></trkpt><trkpt lat="45.358155557007585" lon="11.581230821788894"><ele>16.0</ele><time>2026-04-18T08:17:30Z</time></trkpt><trkpt lat="45.35816547453582" lon="11.581026242792676"><ele>15.75</ele><time>2026-04-18T08:17:31Z</time></trkpt><trkpt lat="45.35817621242076" lon="11.580812556814566"><ele>15.5</ele><time>2026-04-18T08:17:32Z</time></trkpt><trkpt lat="45.358187761586585" lon="11.580617204247098"><ele>15.25</ele><time>2026-04-18T08:17:33Z</time></trkpt><trkpt lat="45.35820142623611" lon="11.58042687098938"><ele>15.0</ele><time>2026-04-18T08:17:34Z</time></trkpt><trkpt lat="45.35821477949194" lon="11.580228488739703"><ele>15.0</ele><time>2026-04-18T08:17:35Z</time></trkpt><trkpt lat="45.35824552784902" lon="11.580005728238739"><ele>15.0</ele><time>2026-04-18T08:17:36Z</time></trkpt><trkpt lat="45.35827749021063" lon="11.57974121138098"><ele>15.0</ele><time>2026-04-18T08:17:37Z</time></trkpt><trkpt lat="45.35830796975407" lon="11.579475540834478"><ele>14.666666666666668</ele><time>2026-04-18T08:17:38Z</time></trkpt><trkpt lat="45.35832281134887" lon="11.579204793882834"><ele>14.333333333333334</ele><time>2026-04-18T08:17:39Z</time></trkpt><trkpt lat="45.358301471770076" lon="11.578933996133214"><ele>14.0</ele><time>2026-04-18T08:17:40Z</time></trkpt><trkpt lat="45.35825581434128" lon="11.578659660081616"><ele>13.666666666666668</ele><time>2026-04-18T08:17:41Z</time></trkpt><trkpt lat="45.35822705073994" lon="11.578392902628222"><ele>13.333333333333332</ele><time>2026-04-18T08:17:42Z</time></trkpt><trkpt lat="45.35820132867905" lon="11.57813591151478"><ele>13.0</ele><time>2026-04-18T08:17:43Z</time></trkpt><trkpt lat="45.358177511120154" lon="11.577928060855426"><ele>13.0</ele><time>2026-04-18T08:17:44Z</time></trkpt><trkpt lat="45.35815473962563" lon="11.57771253830941"><ele>13.0</ele><time>2026-04-18T08:17:45Z</time></trkpt><trkpt lat="45.35813234032426" lon="11.57752861725241"><ele>13.0</ele><time>2026-04-18T08:17:46Z</time></trkpt><trkpt lat="45.35811873357083" lon="11.577349303117929"><ele>13.0</ele><time>2026-04-18T08:17:47Z</time></trkpt><trkpt lat="45.358093310270284" lon="11.577190321487983"><ele>13.0</ele><time>2026-04-18T08:17:48Z</time></trkpt><trkpt lat="45.3580831545147" lon="11.57703785040014"><ele>13.0</ele><time>2026-04-18T08:17:49Z</time></trkpt><trkpt lat="45.358063004923046" lon="11.576884861860492"><ele>13.0</ele><time>2026-04-18T08:17:50Z</time></trkpt><trkpt lat="45.35804403918266" lon="11.576723972603194"><ele>13.0</ele><time>2026-04-18T08:17:51Z</time></trkpt><trkpt lat="45.35802515236903" lon="11.576568510875086"><ele>13.0</ele><time>2026-04-18T08:17:52Z</time></trkpt><trkpt lat="45.35800910714008" lon="11.576412172189102"><ele>13.0</ele><time>2026-04-18T08:17:53Z</time></trkpt><trkpt lat="45.357993710073586" lon="11.57626946638808"><ele>13.0</ele><time>2026-04-18T08:17:54Z</time></trkpt><trkpt lat="45.35798066100342" lon="11.576146984184753"><ele>13.0</ele><time>2026-04-18T08:17:55Z</time></trkpt><trkpt lat="45.357964319440086" lon="11.57602348102996"><ele>13.0</ele><time>2026-04-18T08:17:56Z</time></trkpt><trkpt lat="45.357954947255266" lon="11.575881116872827"><ele>13.0</ele><time>2026-04-18T08:17:57Z</time></trkpt><trkpt lat="45.35793855179836" lon="11.575720694670775"><ele>13.5</ele><time>2026-04-18T08:17:58.001Z</time></trkpt><trkpt lat="45.35791712986997" lon="11.575536215750516"><ele>14.0</ele><time>2026-04-18T08:17:59.001Z</time></trkpt><trkpt lat="45.35788416359558" lon="11.575323842544982"><ele>14.5</ele><time>2026-04-18T08:18:00.001Z</time></trkpt><trkpt lat="45.35785130226272" lon="11.57510692851165"><ele>15.0</ele><time>2026-04-18T08:18:01.001Z</time></trkpt><trkpt lat="45.357816415156705" lon="11.574880718524122"><ele>15.0</ele><time>2026-04-18T08:18:02.001Z</time></trkpt><trkpt lat="45.357776193448686" lon="11.574656990151851"><ele>15.0</ele><time>2026-04-18T08:18:03.001Z</time></trkpt><trkpt lat="45.35772751995604" lon="11.57442989207518"><ele>15.0</ele><time>2026-04-18T08:18:04.001Z</time></trkpt><trkpt lat="45.3576770389322" lon="11.574187619089773"><ele>15.0</ele><time>2026-04-18T08:18:05.001Z</time></trkpt><trkpt lat="45.35762518120062" lon="11.573935043805939"><ele>15.0</ele><time>2026-04-18T08:18:06.001Z</time></trkpt><trkpt lat="45.35756888976107" lon="11.57367648262248"><ele>15.0</ele><time>2026-04-18T08:18:07.001Z</time></trkpt><trkpt lat="45.35750161890652" lon="11.573409508382891"><ele>14.666666666666668</ele><time>2026-04-18T08:18:08.001Z</time></trkpt><trkpt lat="45.357431299111376" lon="11.57313402956325"><ele>14.333333333333334</ele><time>2026-04-18T08:18:09.001Z</time></trkpt><trkpt lat="45.35736170979047" lon="11.57285499192885"><ele>14.0</ele><time>2026-04-18T08:18:10.001Z</time></trkpt><trkpt lat="45.3572941794335" lon="11.572572857809547"><ele>14.0</ele><time>2026-04-18T08:18:11.001Z</time></trkpt><trkpt lat="45.35722524604006" lon="11.572290154955478"><ele>14.0</ele><time>2026-04-18T08:18:12.001Z</time></trkpt><trkpt lat="45.35715743520593" lon="11.572022210227829"><ele>14.0</ele><time>2026-04-18T08:18:13.001Z</time></trkpt><trkpt lat="45.3570880910312" lon="11.571752266658596"><ele>13.666666666666668</ele><time>2026-04-18T08:18:14.001Z</time></trkpt><trkpt lat="45.35701616825114" lon="11.5714732992983"><ele>13.333333333333332</ele><time>2026-04-18T08:18:15.001Z</time></trkpt><trkpt lat="45.35695145956488" lon="11.57119481834791"><ele>13.0</ele><time>2026-04-18T08:18:16.001Z</time></trkpt><trkpt lat="45.356896368170524" lon="11.570916032467299"><ele>13.0</ele><time>2026-04-18T08:18:17.001Z</time></trkpt><trkpt lat="45.35684201142157" lon="11.570639426790255"><ele>13.0</ele><time>2026-04-18T08:18:18.001Z</time></trkpt><trkpt lat="45.35678801531973" lon="11.570361603573595"><ele>13.0</ele><time>2026-04-18T08:18:19.001Z</time></trkpt><trkpt lat="45.356734110196996" lon="11.570087648798836"><ele>13.0</ele><time>2026-04-18T08:18:20.001Z</time></trkpt><trkpt lat="45.35668184973966" lon="11.569813567302004"><ele>13.0</ele><time>2026-04-18T08:18:21.001Z</time></trkpt><trkpt lat="45.35662959703319" lon="11.56954534200927"><ele>13.0</ele><time>2026-04-18T08:18:22.001Z</time></trkpt><trkpt lat="45.35657876640281" lon="11.569284815915537"><ele>13.0</ele><time>2026-04-18T08:18:23.001Z</time></trkpt><trkpt lat="45.356534195663855" lon="11.569041201706765"><ele>13.0</ele><time>2026-04-18T08:18:24.001Z</time></trkpt><trkpt lat="45.35649337183693" lon="11.568805040763813"><ele>13.0</ele><time>2026-04-18T08:18:25.001Z</time></trkpt><trkpt lat="45.356451838402826" lon="11.568563093511337"><ele>13.0</ele><time>2026-04-18T08:18:26.001Z</time></trkpt><trkpt lat="45.35642924160415" lon="11.56831316648751"><ele>13.0</ele><time>2026-04-18T08:18:27.001Z</time></trkpt><trkpt lat="45.35640840991063" lon="11.56806247926402"><ele>13.0</ele><time>2026-04-18T08:18:28.001Z</time></trkpt><trkpt lat="45.35639271884859" lon="11.567809707615375"><ele>13.333333333333332</ele><time>2026-04-18T08:18:29.001Z</time></trkpt><trkpt lat="45.356371179394415" lon="11.567555921324958"><ele>13.666666666666668</ele><time>2026-04-18T08:18:30.001Z</time></trkpt><trkpt lat="45.35634553720846" lon="11.567308528723975"><ele>14.0</ele><time>2026-04-18T08:18:31.001Z</time></trkpt><trkpt lat="45.35631459413455" lon="11.567077856497434"><ele>14.0</ele><time>2026-04-18T08:18:32.001Z</time></trkpt><trkpt lat="45.35628342239686" lon="11.566857957628148"><ele>14.0</ele><time>2026-04-18T08:18:33.001Z</time></trkpt><trkpt lat="45.3562418957296" lon="11.566647729648377"><ele>14.0</ele><time>2026-04-18T08:18:34.001Z</time></trkpt><trkpt lat="45.35618994693436" lon="11.56645844783166"><ele>14.0</ele><time>2026-04-18T08:18:35.001Z</time></trkpt><trkpt lat="45.35613304449801" lon="11.56627983029304"><ele>14.0</ele><time>2026-04-18T08:18:36.001Z</time></trkpt><trkpt lat="45.35607112820254" lon="11.566122049200498"><ele>14.0</ele><time>2026-04-18T08:18:37.001Z</time></trkpt><trkpt lat="45.356016522492574" lon="11.565997823207677"><ele>14.0</ele><time>2026-04-18T08:18:38.001Z</time></trkpt><trkpt lat="45.355970577273155" lon="11.565888607737083"><ele>14.0</ele><time>2026-04-18T08:18:39.001Z</time></trkpt><trkpt lat="45.35593611904847" lon="11.565776612207868"><ele>14.0</ele><time>2026-04-18T08:18:40.001Z</time></trkpt><trkpt lat="45.355878716922035" lon="11.565660396582079"><ele>14.0</ele><time>2026-04-18T08:18:41.001Z</time></trkpt><trkpt lat="45.35580070231329" lon="11.565519234642421"><ele>14.0</ele><time>2026-04-18T08:18:42.001Z</time></trkpt><trkpt lat="45.35569470343523" lon="11.565351396892591"><ele>14.0</ele><time>2026-04-18T08:18:43.001Z</time></trkpt><trkpt lat="45.35557440771664" lon="11.56516559702978"><ele>14.0</ele><time>2026-04-18T08:18:44.001Z</time></trkpt><trkpt lat="45.355480559904706" lon="11.564971064171127"><ele>14.0</ele><time>2026-04-18T08:18:45.001Z</time></trkpt><trkpt lat="45.355386147176546" lon="11.564814910837917"><ele>14.0</ele><time>2026-04-18T08:18:46.001Z</time></trkpt><trkpt lat="45.35533233380142" lon="11.564649368170114"><ele>14.0</ele><time>2026-04-18T08:18:47.001Z</time></trkpt><trkpt lat="45.35529758887235" lon="11.564488546669912"><ele>14.0</ele><time>2026-04-18T08:18:48.001Z</time></trkpt><trkpt lat="45.35529569707248" lon="11.56433064315402"><ele>14.0</ele><time>2026-04-18T08:18:49.001Z</time></trkpt><trkpt lat="45.35531014724688" lon="11.564193007641867"><ele>14.000000000000002</ele><time>2026-04-18T08:18:50.001Z</time></trkpt><trkpt lat="45.355352244679246" lon="11.564094938062093"><ele>14.0</ele><time>2026-04-18T08:18:51.001Z</time></trkpt><trkpt lat="45.35538456979478" lon="11.564000016863675"><ele>14.0</ele><time>2026-04-18T08:18:52.001Z</time></trkpt><trkpt lat="45.35539702678159" lon="11.563906022155422"><ele>14.0</ele><time>2026-04-18T08:18:53.001Z</time></trkpt><trkpt lat="45.35538562203397" lon="11.56381316929993"><ele>14.000000000000002</ele><time>2026-04-18T08:18:54.001Z</time></trkpt><trkpt lat="45.3552884414665" lon="11.563680631432154"><ele>14.0</ele><time>2026-04-18T08:18:56.001Z</time></trkpt><trkpt lat="45.35518281356197" lon="11.56371279525141"><ele>14.25</ele><time>2026-04-18T08:18:57.001Z</time></trkpt><trkpt lat="45.3550717206681" lon="11.56373948875349"><ele>14.5</ele><time>2026-04-18T08:18:58.001Z</time></trkpt><trkpt lat="45.354950954077864" lon="11.56373451972305"><ele>14.75</ele><time>2026-04-18T08:18:59.001Z</time></trkpt><trkpt lat="45.35482836937961" lon="11.563718857677461"><ele>15.0</ele><time>2026-04-18T08:19:00.001Z</time></trkpt><trkpt lat="45.35470302304252" lon="11.563698145391104"><ele>15.0</ele><time>2026-04-18T08:19:01.001Z</time></trkpt><trkpt lat="45.35456562396538" lon="11.563680406983469"><ele>15.0</ele><time>2026-04-18T08:19:02.001Z</time></trkpt><trkpt lat="45.3544144449455" lon="11.563668100596473"><ele>15.0</ele><time>2026-04-18T08:19:03.001Z</time></trkpt><trkpt lat="45.35425456866418" lon="11.563654966881368"><ele>15.0</ele><time>2026-04-18T08:19:04.001Z</time></trkpt><trkpt lat="45.35409301948688" lon="11.563646629881791"><ele>15.0</ele><time>2026-04-18T08:19:05.001Z</time></trkpt><trkpt lat="45.35394282593126" lon="11.563641725725422"><ele>15.0</ele><time>2026-04-18T08:19:06.001Z</time></trkpt><trkpt lat="45.35379201457813" lon="11.563641960443723"><ele>14.75</ele><time>2026-04-18T08:19:07.001Z</time></trkpt><trkpt lat="45.353639954403626" lon="11.563650783491067"><ele>14.5</ele><time>2026-04-18T08:19:08.001Z</time></trkpt><trkpt lat="45.35348783021949" lon="11.56366667232405"><ele>14.25</ele><time>2026-04-18T08:19:09.001Z</time></trkpt><trkpt lat="45.35335446474647" lon="11.56368234896571"><ele>14.0</ele><time>2026-04-18T08:19:10.001Z</time></trkpt><trkpt lat="45.35322874676688" lon="11.563698996111885"><ele>14.0</ele><time>2026-04-18T08:19:11.001Z</time></trkpt><trkpt lat="45.35312536033817" lon="11.56371167441057"><ele>13.999999999999998</ele><time>2026-04-18T08:19:12.001Z</time></trkpt><trkpt lat="45.35303884293122" lon="11.563732035342115"><ele>13.999999999999998</ele><time>2026-04-18T08:19:13.001Z</time></trkpt><trkpt lat="45.35296722540015" lon="11.563741539125832"><ele>14.0</ele><time>2026-04-18T08:19:14.001Z</time></trkpt><trkpt lat="45.35286896688604" lon="11.563682074276338"><ele>14.0</ele><time>2026-04-18T08:19:16Z</time></trkpt><trkpt lat="45.35288817514001" lon="11.563468840815126"><ele>13.666666666666668</ele><time>2026-04-18T08:19:18Z</time></trkpt><trkpt lat="45.352923017779446" lon="11.563282495408021"><ele>13.333333333333332</ele><time>2026-04-18T08:19:19Z</time></trkpt><trkpt lat="45.352967040082454" lon="11.563018661459354"><ele>13.0</ele><time>2026-04-18T08:19:20Z</time></trkpt><trkpt lat="45.353022737506315" lon="11.562684417791374"><ele>13.0</ele><time>2026-04-18T08:19:21Z</time></trkpt><trkpt lat="45.35309028677431" lon="11.562288584192943"><ele>13.0</ele><time>2026-04-18T08:19:22Z</time></trkpt><trkpt lat="45.35316194102422" lon="11.561861369852307"><ele>13.0</ele><time>2026-04-18T08:19:23Z</time></trkpt><trkpt lat="45.35324122137445" lon="11.561385509151187"><ele>13.0</ele><time>2026-04-18T08:19:24Z</time></trkpt><trkpt lat="45.35332637817656" lon="11.560870804420233"><ele>13.0</ele><time>2026-04-18T08:19:25Z</time></trkpt><trkpt lat="45.3534110615038" lon="11.560334590877234"><ele>13.0</ele><time>2026-04-18T08:19:26Z</time></trkpt><trkpt lat="45.353500388786955" lon="11.559775669863361"><ele>13.5</ele><time>2026-04-18T08:19:27Z</time></trkpt><trkpt lat="45.353597594833026" lon="11.559273511618528"><ele>14.0</ele><time>2026-04-18T08:19:28Z</time></trkpt><trkpt lat="45.353659606724996" lon="11.558804993777658"><ele>14.0</ele><time>2026-04-18T08:19:29Z</time></trkpt><trkpt lat="45.353731438172346" lon="11.558381153760278"><ele>14.0</ele><time>2026-04-18T08:19:30Z</time></trkpt><trkpt lat="45.353800154610134" lon="11.55797282679881"><ele>14.0</ele><time>2026-04-18T08:19:31Z</time></trkpt><trkpt lat="45.35386500211486" lon="11.557572572995628"><ele>14.0</ele><time>2026-04-18T08:19:32Z</time></trkpt><trkpt lat="45.35392983058882" lon="11.557176908410579"><ele>14.5</ele><time>2026-04-18T08:19:33Z</time></trkpt><trkpt lat="45.35399137733668" lon="11.556787864955629"><ele>15.0</ele><time>2026-04-18T08:19:34Z</time></trkpt><trkpt lat="45.35405448727605" lon="11.556406747009076"><ele>14.0</ele><time>2026-04-18T08:19:35Z</time></trkpt><trkpt lat="45.354113426644005" lon="11.556050256318587"><ele>13.0</ele><time>2026-04-18T08:19:36Z</time></trkpt><trkpt lat="45.35417028686789" lon="11.55569645670612"><ele>12.5</ele><time>2026-04-18T08:19:37Z</time></trkpt><trkpt lat="45.354232009862145" lon="11.55532850731302"><ele>12.0</ele><time>2026-04-18T08:19:38Z</time></trkpt><trkpt lat="45.35429636577491" lon="11.554935791186164"><ele>12.0</ele><time>2026-04-18T08:19:39Z</time></trkpt><trkpt lat="45.35435409535553" lon="11.554572284906461"><ele>12.0</ele><time>2026-04-18T08:19:40Z</time></trkpt><trkpt lat="45.35440971953648" lon="11.55423236991893"><ele>12.0</ele><time>2026-04-18T08:19:41Z</time></trkpt><trkpt lat="45.35446789820817" lon="11.553887786199928"><ele>12.0</ele><time>2026-04-18T08:19:42Z</time></trkpt><trkpt lat="45.35452704625156" lon="11.553542641902565"><ele>12.0</ele><time>2026-04-18T08:19:43Z</time></trkpt><trkpt lat="45.354584221762636" lon="11.553200346939278"><ele>12.0</ele><time>2026-04-18T08:19:44Z</time></trkpt><trkpt lat="45.35464106687988" lon="11.55285113393035"><ele>12.5</ele><time>2026-04-18T08:19:45Z</time></trkpt><trkpt lat="45.35469797048346" lon="11.552513582049459"><ele>13.0</ele><time>2026-04-18T08:19:46Z</time></trkpt><trkpt lat="45.35475692803736" lon="11.55216300931883"><ele>13.0</ele><time>2026-04-18T08:19:47Z</time></trkpt><trkpt lat="45.35481916382935" lon="11.551814110827788"><ele>13.0</ele><time>2026-04-18T08:19:48Z</time></trkpt><trkpt lat="45.35487926608882" lon="11.55146742572554"><ele>12.5</ele><time>2026-04-18T08:19:49Z</time></trkpt><trkpt lat="45.35493112819642" lon="11.551120563574603"><ele>12.0</ele><time>2026-04-18T08:19:50Z</time></trkpt><trkpt lat="45.35498864773431" lon="11.550774430663967"><ele>12.0</ele><time>2026-04-18T08:19:51Z</time></trkpt><trkpt lat="45.35503729649309" lon="11.550434126871215"><ele>12.0</ele><time>2026-04-18T08:19:52Z</time></trkpt><trkpt lat="45.35509032323165" lon="11.550085741128413"><ele>12.0</ele><time>2026-04-18T08:19:53Z</time></trkpt><trkpt lat="45.35514353208308" lon="11.549742147653742"><ele>12.0</ele><time>2026-04-18T08:19:54Z</time></trkpt><trkpt lat="45.35519682887695" lon="11.549406099966205"><ele>12.0</ele><time>2026-04-18T08:19:55Z</time></trkpt><trkpt lat="45.355249963339006" lon="11.549072240683603"><ele>12.0</ele><time>2026-04-18T08:19:56Z</time></trkpt><trkpt lat="45.35530380412501" lon="11.548731808963101"><ele>13.0</ele><time>2026-04-18T08:19:57Z</time></trkpt><trkpt lat="45.355359328420946" lon="11.54838632472877"><ele>14.0</ele><time>2026-04-18T08:19:58Z</time></trkpt><trkpt lat="45.35541051384269" lon="11.54804109668322"><ele>14.0</ele><time>2026-04-18T08:19:59Z</time></trkpt><trkpt lat="45.355465203996964" lon="11.547695119502263"><ele>14.0</ele><time>2026-04-18T08:20:00Z</time></trkpt><trkpt lat="45.355523810151226" lon="11.547354178054665"><ele>13.5</ele><time>2026-04-18T08:20:01Z</time></trkpt><trkpt lat="45.35558270698188" lon="11.547013882706201"><ele>13.0</ele><time>2026-04-18T08:20:02Z</time></trkpt><trkpt lat="45.3556384180811" lon="11.546677237122369"><ele>13.0</ele><time>2026-04-18T08:20:03Z</time></trkpt><trkpt lat="45.355689397710826" lon="11.54633775232645"><ele>13.0</ele><time>2026-04-18T08:20:04Z</time></trkpt><trkpt lat="45.355741165065105" lon="11.546002813384524"><ele>13.0</ele><time>2026-04-18T08:20:05Z</time></trkpt><trkpt lat="45.35581123213851" lon="11.545675920677139"><ele>13.0</ele><time>2026-04-18T08:20:06Z</time></trkpt><trkpt lat="45.35584724279702" lon="11.545338281117168"><ele>13.0</ele><time>2026-04-18T08:20:07Z</time></trkpt><trkpt lat="45.35589858075043" lon="11.54500870266246"><ele>13.0</ele><time>2026-04-18T08:20:08Z</time></trkpt><trkpt lat="45.355953630940114" lon="11.54468005826053"><ele>13.0</ele><time>2026-04-18T08:20:09Z</time></trkpt><trkpt lat="45.35600858702388" lon="11.544352549266097"><ele>13.0</ele><time>2026-04-18T08:20:10Z</time></trkpt><trkpt lat="45.35606350512482" lon="11.5440239256748"><ele>13.5</ele><time>2026-04-18T08:20:11Z</time></trkpt><trkpt lat="45.3561162324397" lon="11.543691967459461"><ele>14.0</ele><time>2026-04-18T08:20:12Z</time></trkpt><trkpt lat="45.35616926414054" lon="11.543356551114947"><ele>14.0</ele><time>2026-04-18T08:20:13Z</time></trkpt><trkpt lat="45.35622333982492" lon="11.543018078622751"><ele>14.0</ele><time>2026-04-18T08:20:14Z</time></trkpt><trkpt lat="45.356274418058845" lon="11.542681283398018"><ele>14.0</ele><time>2026-04-18T08:20:15Z</time></trkpt><trkpt lat="45.35633055077234" lon="11.542343304341983"><ele>14.0</ele><time>2026-04-18T08:20:16Z</time></trkpt><trkpt lat="45.35638573982391" lon="11.542003944856743"><ele>14.0</ele><time>2026-04-18T08:20:17Z</time></trkpt><trkpt lat="45.3564442842392" lon="11.541662953202449"><ele>14.0</ele><time>2026-04-18T08:20:18Z</time></trkpt><trkpt lat="45.356505244948764" lon="11.541322329888175"><ele>14.5</ele><time>2026-04-18T08:20:19Z</time></trkpt><trkpt lat="45.356560791720746" lon="11.540983750533377"><ele>15.0</ele><time>2026-04-18T08:20:20Z</time></trkpt><trkpt lat="45.35661625811521" lon="11.540654998449664"><ele>14.5</ele><time>2026-04-18T08:20:21Z</time></trkpt><trkpt lat="45.35666678940012" lon="11.540325925983664"><ele>14.0</ele><time>2026-04-18T08:20:22Z</time></trkpt><trkpt lat="45.356723524529954" lon="11.539998625407383"><ele>14.0</ele><time>2026-04-18T08:20:23Z</time></trkpt><trkpt lat="45.356775378522464" lon="11.539678113794865"><ele>14.0</ele><time>2026-04-18T08:20:24Z</time></trkpt><trkpt lat="45.356826594255786" lon="11.539360276271356"><ele>14.0</ele><time>2026-04-18T08:20:25Z</time></trkpt><trkpt lat="45.356877552632916" lon="11.539038267422997"><ele>14.0</ele><time>2026-04-18T08:20:26Z</time></trkpt><trkpt lat="45.356927067009664" lon="11.5387084980473"><ele>13.5</ele><time>2026-04-18T08:20:27.001Z</time></trkpt><trkpt lat="45.35697725097493" lon="11.53837405742037"><ele>13.0</ele><time>2026-04-18T08:20:28.001Z</time></trkpt><trkpt lat="45.357029323273125" lon="11.53803534245641"><ele>12.5</ele><time>2026-04-18T08:20:29.001Z</time></trkpt><trkpt lat="45.35708138526411" lon="11.537694493164649"><ele>12.0</ele><time>2026-04-18T08:20:30.001Z</time></trkpt><trkpt lat="45.35713797041022" lon="11.537359501664099"><ele>13.5</ele><time>2026-04-18T08:20:31.001Z</time></trkpt><trkpt lat="45.35718992236338" lon="11.537022588579378"><ele>15.0</ele><time>2026-04-18T08:20:32.001Z</time></trkpt><trkpt lat="45.35724365740654" lon="11.536680854873653"><ele>15.0</ele><time>2026-04-18T08:20:33.001Z</time></trkpt><trkpt lat="45.357296852031354" lon="11.536342527686308"><ele>15.0</ele><time>2026-04-18T08:20:34.001Z</time></trkpt><trkpt lat="45.35735160070944" lon="11.536006565717447"><ele>15.0</ele><time>2026-04-18T08:20:35.001Z</time></trkpt><trkpt lat="45.35740696211186" lon="11.535674112528165"><ele>15.0</ele><time>2026-04-18T08:20:36.001Z</time></trkpt><trkpt lat="45.35746137405648" lon="11.535339874471534"><ele>15.0</ele><time>2026-04-18T08:20:37.001Z</time></trkpt><trkpt lat="45.357515116168976" lon="11.535009281883658"><ele>15.0</ele><time>2026-04-18T08:20:38.001Z</time></trkpt><trkpt lat="45.35756728365759" lon="11.534681635168209"><ele>14.5</ele><time>2026-04-18T08:20:39.001Z</time></trkpt><trkpt lat="45.35762119642214" lon="11.53435063643051"><ele>14.0</ele><time>2026-04-18T08:20:40.001Z</time></trkpt><trkpt lat="45.35766938555525" lon="11.53403360774943"><ele>14.0</ele><time>2026-04-18T08:20:41.001Z</time></trkpt><trkpt lat="45.357717362196865" lon="11.53373276330406"><ele>14.0</ele><time>2026-04-18T08:20:42.001Z</time></trkpt><trkpt lat="45.357765909133526" lon="11.533430489292861"><ele>14.0</ele><time>2026-04-18T08:20:43.001Z</time></trkpt><trkpt lat="45.35781515170104" lon="11.533116803724587"><ele>13.5</ele><time>2026-04-18T08:20:44.001Z</time></trkpt><trkpt lat="45.357864602627416" lon="11.53279408500201"><ele>13.0</ele><time>2026-04-18T08:20:45.001Z</time></trkpt><trkpt lat="45.357932427878566" lon="11.532444326119423"><ele>13.0</ele><time>2026-04-18T08:20:46.001Z</time></trkpt><trkpt lat="45.35800154839176" lon="11.532088298690487"><ele>13.0</ele><time>2026-04-18T08:20:47.001Z</time></trkpt><trkpt lat="45.358089492830715" lon="11.53173231650463"><ele>13.0</ele><time>2026-04-18T08:20:48.001Z</time></trkpt><trkpt lat="45.35818401679241" lon="11.531384253046884"><ele>13.0</ele><time>2026-04-18T08:20:49.001Z</time></trkpt><trkpt lat="45.35828588308668" lon="11.531042427592249"><ele>13.0</ele><time>2026-04-18T08:20:50.001Z</time></trkpt><trkpt lat="45.35838847337449" lon="11.530705827221288"><ele>13.0</ele><time>2026-04-18T08:20:51.001Z</time></trkpt><trkpt lat="45.35848725268623" lon="11.530376698218586"><ele>13.0</ele><time>2026-04-18T08:20:52.001Z</time></trkpt><trkpt lat="45.35858422433076" lon="11.530058467700663"><ele>13.0</ele><time>2026-04-18T08:20:53.001Z</time></trkpt><trkpt lat="45.35867873898223" lon="11.529751664363042"><ele>12.5</ele><time>2026-04-18T08:20:54.001Z</time></trkpt><trkpt lat="45.35876995417356" lon="11.529445490254753"><ele>12.0</ele><time>2026-04-18T08:20:55.001Z</time></trkpt><trkpt lat="45.358860889972426" lon="11.52913909195314"><ele>12.5</ele><time>2026-04-18T08:20:56.001Z</time></trkpt><trkpt lat="45.358951244144905" lon="11.528840023320209"><ele>13.0</ele><time>2026-04-18T08:20:57.001Z</time></trkpt><trkpt lat="45.35904270390005" lon="11.52854319634531"><ele>14.0</ele><time>2026-04-18T08:20:58.001Z</time></trkpt><trkpt lat="45.35913532211987" lon="11.52824860501587"><ele>15.0</ele><time>2026-04-18T08:20:59.001Z</time></trkpt><trkpt lat="45.359226435026265" lon="11.527955176383735"><ele>14.5</ele><time>2026-04-18T08:21:00.001Z</time></trkpt><trkpt lat="45.359321092579144" lon="11.527654004187553"><ele>14.0</ele><time>2026-04-18T08:21:01.001Z</time></trkpt><trkpt lat="45.35941741233998" lon="11.527335050482979"><ele>14.5</ele><time>2026-04-18T08:21:02.001Z</time></trkpt><trkpt lat="45.359515171509166" lon="11.527014266695993"><ele>15.0</ele><time>2026-04-18T08:21:03.001Z</time></trkpt><trkpt lat="45.35961002670224" lon="11.526697314282156"><ele>15.0</ele><time>2026-04-18T08:21:04.001Z</time></trkpt><trkpt lat="45.35970459041442" lon="11.526392239917085"><ele>15.0</ele><time>2026-04-18T08:21:05.001Z</time></trkpt><trkpt lat="45.35979205047144" lon="11.526113119179314"><ele>15.0</ele><time>2026-04-18T08:21:06.001Z</time></trkpt><trkpt lat="45.359870654547855" lon="11.525840623994549"><ele>15.0</ele><time>2026-04-18T08:21:07.001Z</time></trkpt><trkpt lat="45.35994741482143" lon="11.525562633993012"><ele>15.0</ele><time>2026-04-18T08:21:08.001Z</time></trkpt><trkpt lat="45.36002041837987" lon="11.525292688368102"><ele>15.0</ele><time>2026-04-18T08:21:09.001Z</time></trkpt><trkpt lat="45.360103982856145" lon="11.525027057135896"><ele>15.0</ele><time>2026-04-18T08:21:10.001Z</time></trkpt><trkpt lat="45.36018412091652" lon="11.524765542439875"><ele>15.0</ele><time>2026-04-18T08:21:11.001Z</time></trkpt><trkpt lat="45.36026492565086" lon="11.524507061332066"><ele>15.0</ele><time>2026-04-18T08:21:12.001Z</time></trkpt><trkpt lat="45.36034458231166" lon="11.524272637094027"><ele>14.666666666666668</ele><time>2026-04-18T08:21:13.001Z</time></trkpt><trkpt lat="45.36042362051287" lon="11.524051317346359"><ele>14.333333333333334</ele><time>2026-04-18T08:21:14.001Z</time></trkpt><trkpt lat="45.36049987384952" lon="11.523840106971598"><ele>14.0</ele><time>2026-04-18T08:21:15.001Z</time></trkpt><trkpt lat="45.3605605742567" lon="11.523641285115556"><ele>14.0</ele><time>2026-04-18T08:21:16.001Z</time></trkpt><trkpt lat="45.36061111316398" lon="11.523454180139467"><ele>14.0</ele><time>2026-04-18T08:21:17.001Z</time></trkpt><trkpt lat="45.360660501923356" lon="11.523281892821707"><ele>14.0</ele><time>2026-04-18T08:21:18.001Z</time></trkpt><trkpt lat="45.36070025161007" lon="11.523120391323609"><ele>14.0</ele><time>2026-04-18T08:21:19.001Z</time></trkpt><trkpt lat="45.36074026298243" lon="11.522968811184901"><ele>14.2</ele><time>2026-04-18T08:21:20.001Z</time></trkpt><trkpt lat="45.36075951539042" lon="11.522825706809867"><ele>14.399999999999999</ele><time>2026-04-18T08:21:21.001Z</time></trkpt><trkpt lat="45.360758091621875" lon="11.52271901484511"><ele>14.6</ele><time>2026-04-18T08:21:22Z</time></trkpt><trkpt lat="45.360897859503616" lon="11.522666175553297"><ele>14.8</ele><time>2026-04-18T08:21:23Z</time></trkpt><trkpt lat="45.360983346101435" lon="11.522696173178213"><ele>15.0</ele><time>2026-04-18T08:21:24Z</time></trkpt><trkpt lat="45.3610999873912" lon="11.522740392793573"><ele>15.0</ele><time>2026-04-18T08:21:25Z</time></trkpt><trkpt lat="45.36124881684087" lon="11.522780522765428"><ele>15.0</ele><time>2026-04-18T08:21:26Z</time></trkpt><trkpt lat="45.361427755269034" lon="11.522852203024682"><ele>15.0</ele><time>2026-04-18T08:21:27Z</time></trkpt><trkpt lat="45.361600469623966" lon="11.52291852184543"><ele>15.0</ele><time>2026-04-18T08:21:28Z</time></trkpt><trkpt lat="45.361732779085365" lon="11.522977321479992"><ele>15.0</ele><time>2026-04-18T08:21:29Z</time></trkpt><trkpt lat="45.3618423822931" lon="11.523015217979554"><ele>15.0</ele><time>2026-04-18T08:21:30Z</time></trkpt><trkpt lat="45.361922059700724" lon="11.523042863991265"><ele>15.0</ele><time>2026-04-18T08:21:31Z</time></trkpt><trkpt lat="45.36199215332576" lon="11.523058201407594"><ele>15.0</ele><time>2026-04-18T08:21:32Z</time></trkpt><trkpt lat="45.362086225899134" lon="11.52307330133642"><ele>15.0</ele><time>2026-04-18T08:21:34Z</time></trkpt><trkpt lat="45.362155536406675" lon="11.52311422088704"><ele>15.0</ele><time>2026-04-18T08:21:37Z</time></trkpt><trkpt lat="45.362210755861945" lon="11.522858642658353"><ele>15.0</ele><time>2026-04-18T08:21:39Z</time></trkpt><trkpt lat="45.36221787477504" lon="11.52269177276563"><ele>15.0</ele><time>2026-04-18T08:21:40Z</time></trkpt><trkpt lat="45.36225305439553" lon="11.522511919343863"><ele>15.333333333333332</ele><time>2026-04-18T08:21:41Z</time></trkpt><trkpt lat="45.36226401055408" lon="11.522286405120973"><ele>15.666666666666666</ele><time>2026-04-18T08:21:42Z</time></trkpt><trkpt lat="45.36229426469196" lon="11.522073335561055"><ele>16.0</ele><time>2026-04-18T08:21:43Z</time></trkpt><trkpt lat="45.36232178098794" lon="11.521864283089796"><ele>16.0</ele><time>2026-04-18T08:21:44Z</time></trkpt><trkpt lat="45.36235263378179" lon="11.521653480504733"><ele>16.0</ele><time>2026-04-18T08:21:45Z</time></trkpt><trkpt lat="45.36237857465674" lon="11.521439590567795"><ele>16.0</ele><time>2026-04-18T08:21:46Z</time></trkpt><trkpt lat="45.36239574883038" lon="11.521256126473098"><ele>16.0</ele><time>2026-04-18T08:21:47Z</time></trkpt><trkpt lat="45.362413584017425" lon="11.52111064784046"><ele>16.2</ele><time>2026-04-18T08:21:48Z</time></trkpt><trkpt lat="45.36243109740426" lon="11.520985082008911"><ele>16.400000000000002</ele><time>2026-04-18T08:21:49Z</time></trkpt><trkpt lat="45.36246520230235" lon="11.520870058637081"><ele>16.6</ele><time>2026-04-18T08:21:50Z</time></trkpt><trkpt lat="45.36251592159644" lon="11.520757042084597"><ele>16.8</ele><time>2026-04-18T08:21:51Z</time></trkpt><trkpt lat="45.36257081432224" lon="11.52064716204959"><ele>17.0</ele><time>2026-04-18T08:21:52Z</time></trkpt><trkpt lat="45.362634423934864" lon="11.520543127986565"><ele>17.0</ele><time>2026-04-18T08:21:53Z</time></trkpt><trkpt lat="45.36268589094857" lon="11.520407842629071"><ele>17.0</ele><time>2026-04-18T08:21:54Z</time></trkpt><trkpt lat="45.3627253461685" lon="11.520243173285227"><ele>17.0</ele><time>2026-04-18T08:21:55Z</time></trkpt><trkpt lat="45.36272548833931" lon="11.520046865013983"><ele>17.0</ele><time>2026-04-18T08:21:56Z</time></trkpt><trkpt lat="45.362741574578166" lon="11.519828099675944"><ele>16.666666666666668</ele><time>2026-04-18T08:21:57Z</time></trkpt><trkpt lat="45.3627977668758" lon="11.519606956199194"><ele>16.333333333333332</ele><time>2026-04-18T08:21:58Z</time></trkpt><trkpt lat="45.36285403751934" lon="11.51938671900882"><ele>16.0</ele><time>2026-04-18T08:21:59Z</time></trkpt><trkpt lat="45.36291274026861" lon="11.519193735379103"><ele>16.0</ele><time>2026-04-18T08:22:00Z</time></trkpt><trkpt lat="45.36297313414483" lon="11.519054569852223"><ele>16.0</ele><time>2026-04-18T08:22:01Z</time></trkpt><trkpt lat="45.3630375613471" lon="11.518938747475286"><ele>16.0</ele><time>2026-04-18T08:22:02Z</time></trkpt><trkpt lat="45.363103231090996" lon="11.518850235614323"><ele>16.0</ele><time>2026-04-18T08:22:03Z</time></trkpt><trkpt lat="45.36323105020212" lon="11.518808073591842"><ele>16.0</ele><time>2026-04-18T08:22:04Z</time></trkpt><trkpt lat="45.36332507931471" lon="11.518767130627285"><ele>16.0</ele><time>2026-04-18T08:22:05Z</time></trkpt><trkpt lat="45.36340981983113" lon="11.518730232245094"><ele>16.0</ele><time>2026-04-18T08:22:06Z</time></trkpt><trkpt lat="45.36352582712868" lon="11.518667770318382"><ele>16.0</ele><time>2026-04-18T08:22:07Z</time></trkpt><trkpt lat="45.36359776783328" lon="11.518572517448156"><ele>16.0</ele><time>2026-04-18T08:22:08Z</time></trkpt><trkpt lat="45.36370372051058" lon="11.518432226381428"><ele>16.0</ele><time>2026-04-18T08:22:10Z</time></trkpt><trkpt lat="45.36377386170541" lon="11.518278872885164"><ele>16.0</ele><time>2026-04-18T08:22:11Z</time></trkpt><trkpt lat="45.36383382397875" lon="11.518109768339167"><ele>16.0</ele><time>2026-04-18T08:22:12Z</time></trkpt><trkpt lat="45.36388353746275" lon="11.517938191705637"><ele>16.0</ele><time>2026-04-18T08:22:13Z</time></trkpt><trkpt lat="45.363924638573906" lon="11.517773621681616"><ele>16.0</ele><time>2026-04-18T08:22:14Z</time></trkpt><trkpt lat="45.36395428284537" lon="11.51764317610717"><ele>16.0</ele><time>2026-04-18T08:22:15Z</time></trkpt><trkpt lat="45.36397974542929" lon="11.517510752399422"><ele>16.0</ele><time>2026-04-18T08:22:17Z</time></trkpt><trkpt lat="45.36401975148023" lon="11.517430211380649"><ele>16.0</ele><time>2026-04-18T08:22:19Z</time></trkpt><trkpt lat="45.364053821261564" lon="11.517326066373117"><ele>16.0</ele><time>2026-04-18T08:22:21Z</time></trkpt><trkpt lat="45.36422780008828" lon="11.517387757464538"><ele>16.0</ele><time>2026-04-18T08:22:22Z</time></trkpt><trkpt lat="45.36432405029141" lon="11.517390624649492"><ele>16.0</ele><time>2026-04-18T08:22:23Z</time></trkpt><trkpt lat="45.364423537220944" lon="11.517395606682808"><ele>16.0</ele><time>2026-04-18T08:22:24Z</time></trkpt><trkpt lat="45.36454645796688" lon="11.517416797181193"><ele>16.0</ele><time>2026-04-18T08:22:25Z</time></trkpt><trkpt lat="45.364672245368226" lon="11.517448277869017"><ele>16.0</ele><time>2026-04-18T08:22:26Z</time></trkpt><trkpt lat="45.36479365404842" lon="11.517488443982078"><ele>15.75</ele><time>2026-04-18T08:22:27.001Z</time></trkpt><trkpt lat="45.36492496384564" lon="11.517545088630266"><ele>15.5</ele><time>2026-04-18T08:22:28.001Z</time></trkpt><trkpt lat="45.36505647513673" lon="11.517615544979984"><ele>15.25</ele><time>2026-04-18T08:22:29.001Z</time></trkpt><trkpt lat="45.36518922254977" lon="11.517690484696939"><ele>15.0</ele><time>2026-04-18T08:22:30.001Z</time></trkpt><trkpt lat="45.3653203756933" lon="11.51778439563194"><ele>15.0</ele><time>2026-04-18T08:22:31.001Z</time></trkpt><trkpt lat="45.36544619977722" lon="11.517897884274024"><ele>15.0</ele><time>2026-04-18T08:22:32.001Z</time></trkpt><trkpt lat="45.365576414291674" lon="11.51803035294174"><ele>15.0</ele><time>2026-04-18T08:22:33.001Z</time></trkpt><trkpt lat="45.36570742582156" lon="11.518168442764233"><ele>15.333333333333332</ele><time>2026-04-18T08:22:34.001Z</time></trkpt><trkpt lat="45.36584304588624" lon="11.518312471698401"><ele>15.666666666666666</ele><time>2026-04-18T08:22:35.001Z</time></trkpt><trkpt lat="45.365979585078776" lon="11.518453065915628"><ele>16.0</ele><time>2026-04-18T08:22:36.001Z</time></trkpt><trkpt lat="45.36611852660812" lon="11.518596041626603"><ele>16.0</ele><time>2026-04-18T08:22:37.001Z</time></trkpt><trkpt lat="45.36625843412399" lon="11.518745460218737"><ele>16.0</ele><time>2026-04-18T08:22:38.001Z</time></trkpt><trkpt lat="45.36639861737623" lon="11.518895447819489"><ele>16.0</ele><time>2026-04-18T08:22:39.001Z</time></trkpt><trkpt lat="45.36653318001666" lon="11.519035646725612"><ele>16.0</ele><time>2026-04-18T08:22:40.001Z</time></trkpt><trkpt lat="45.366660413866555" lon="11.519168977543233"><ele>16.0</ele><time>2026-04-18T08:22:41.001Z</time></trkpt><trkpt lat="45.36678123115541" lon="11.519297502610138"><ele>16.0</ele><time>2026-04-18T08:22:42.001Z</time></trkpt><trkpt lat="45.366902924927764" lon="11.519428548292792"><ele>16.0</ele><time>2026-04-18T08:22:43.001Z</time></trkpt><trkpt lat="45.3670258969668" lon="11.51956288314915"><ele>16.0</ele><time>2026-04-18T08:22:44.001Z</time></trkpt><trkpt lat="45.36714982744159" lon="11.519699354558718"><ele>16.0</ele><time>2026-04-18T08:22:45.001Z</time></trkpt><trkpt lat="45.36727384984579" lon="11.519842498063475"><ele>16.0</ele><time>2026-04-18T08:22:46.001Z</time></trkpt><trkpt lat="45.367394044206996" lon="11.519996722191618"><ele>16.0</ele><time>2026-04-18T08:22:47.001Z</time></trkpt><trkpt lat="45.36750981535827" lon="11.520161381862204"><ele>16.0</ele><time>2026-04-18T08:22:48.001Z</time></trkpt><trkpt lat="45.3676259552239" lon="11.520327488130162"><ele>16.0</ele><time>2026-04-18T08:22:49.001Z</time></trkpt><trkpt lat="45.36774548485904" lon="11.52049199316275"><ele>16.0</ele><time>2026-04-18T08:22:50.001Z</time></trkpt><trkpt lat="45.367864287262734" lon="11.52065598407729"><ele>16.0</ele><time>2026-04-18T08:22:51.001Z</time></trkpt><trkpt lat="45.367985365881566" lon="11.520816757421898"><ele>16.0</ele><time>2026-04-18T08:22:52.001Z</time></trkpt><trkpt lat="45.368114838690246" lon="11.520961302513271"><ele>16.0</ele><time>2026-04-18T08:22:53.001Z</time></trkpt><trkpt lat="45.368254761156024" lon="11.52108254758126"><ele>16.0</ele><time>2026-04-18T08:22:54.001Z</time></trkpt><trkpt lat="45.36840338895122" lon="11.521185986193137"><ele>16.0</ele><time>2026-04-18T08:22:55.001Z</time></trkpt><trkpt lat="45.36855900344627" lon="11.521278369081129"><ele>16.0</ele><time>2026-04-18T08:22:56.001Z</time></trkpt><trkpt lat="45.368716588482236" lon="11.521355253527997"><ele>16.0</ele><time>2026-04-18T08:22:57.001Z</time></trkpt><trkpt lat="45.36886924071214" lon="11.521430401653866"><ele>15.666666666666666</ele><time>2026-04-18T08:22:58.001Z</time></trkpt><trkpt lat="45.369022367956234" lon="11.521512146277361"><ele>15.333333333333332</ele><time>2026-04-18T08:22:59.001Z</time></trkpt><trkpt lat="45.36917466090704" lon="11.52159405848978"><ele>15.0</ele><time>2026-04-18T08:23:00.001Z</time></trkpt><trkpt lat="45.36932748343136" lon="11.521676294152684"><ele>15.0</ele><time>2026-04-18T08:23:01.001Z</time></trkpt><trkpt lat="45.36947983246888" lon="11.521757403251655"><ele>15.0</ele><time>2026-04-18T08:23:02.001Z</time></trkpt><trkpt lat="45.36963155237279" lon="11.521839050139537"><ele>15.0</ele><time>2026-04-18T08:23:03.001Z</time></trkpt><trkpt lat="45.369784024972304" lon="11.521922510808817"><ele>15.333333333333332</ele><time>2026-04-18T08:23:04.001Z</time></trkpt><trkpt lat="45.36993610033842" lon="11.522008067823782"><ele>15.666666666666666</ele><time>2026-04-18T08:23:05.001Z</time></trkpt><trkpt lat="45.37008739648696" lon="11.522093093888463"><ele>16.0</ele><time>2026-04-18T08:23:06.001Z</time></trkpt><trkpt lat="45.370238415010775" lon="11.522178566735873"><ele>16.0</ele><time>2026-04-18T08:23:07.001Z</time></trkpt><trkpt lat="45.37039062554608" lon="11.522262826390872"><ele>16.0</ele><time>2026-04-18T08:23:08.001Z</time></trkpt><trkpt lat="45.370541019734716" lon="11.52234837218215"><ele>16.0</ele><time>2026-04-18T08:23:09.001Z</time></trkpt><trkpt lat="45.37068644706853" lon="11.522448552930886"><ele>16.0</ele><time>2026-04-18T08:23:10.001Z</time></trkpt><trkpt lat="45.37081571948635" lon="11.52257083743413"><ele>16.0</ele><time>2026-04-18T08:23:11.001Z</time></trkpt><trkpt lat="45.37093592065255" lon="11.522698566819926"><ele>16.0</ele><time>2026-04-18T08:23:12.001Z</time></trkpt><trkpt lat="45.3710528088448" lon="11.522841282556977"><ele>17.0</ele><time>2026-04-18T08:23:13.001Z</time></trkpt><trkpt lat="45.37116374362981" lon="11.523000229080216"><ele>18.0</ele><time>2026-04-18T08:23:14.001Z</time></trkpt><trkpt lat="45.37126051915086" lon="11.523171442145022"><ele>19.0</ele><time>2026-04-18T08:23:15.001Z</time></trkpt><trkpt lat="45.37135279111827" lon="11.523340580257429"><ele>18.0</ele><time>2026-04-18T08:23:16.001Z</time></trkpt><trkpt lat="45.37145016102601" lon="11.523500702996104"><ele>17.0</ele><time>2026-04-18T08:23:17.001Z</time></trkpt><trkpt lat="45.37155579393944" lon="11.523653001296653"><ele>16.0</ele><time>2026-04-18T08:23:18.001Z</time></trkpt><trkpt lat="45.37167016149853" lon="11.52379331843454"><ele>16.0</ele><time>2026-04-18T08:23:19.001Z</time></trkpt><trkpt lat="45.37179299691896" lon="11.523924526774582"><ele>16.0</ele><time>2026-04-18T08:23:20.001Z</time></trkpt><trkpt lat="45.37192547967351" lon="11.52404223854923"><ele>16.0</ele><time>2026-04-18T08:23:21.001Z</time></trkpt><trkpt lat="45.37205829925078" lon="11.524149432329864"><ele>16.0</ele><time>2026-04-18T08:23:22.001Z</time></trkpt><trkpt lat="45.37219302472454" lon="11.524251478808583"><ele>16.0</ele><time>2026-04-18T08:23:23.001Z</time></trkpt><trkpt lat="45.372329470087635" lon="11.524350062782247"><ele>16.0</ele><time>2026-04-18T08:23:24.001Z</time></trkpt><trkpt lat="45.37246560940438" lon="11.524448267474845"><ele>16.0</ele><time>2026-04-18T08:23:25.001Z</time></trkpt><trkpt lat="45.37259655440861" lon="11.524541157946272"><ele>16.0</ele><time>2026-04-18T08:23:26.001Z</time></trkpt><trkpt lat="45.37272341404299" lon="11.52462656867451"><ele>16.0</ele><time>2026-04-18T08:23:27.001Z</time></trkpt><trkpt lat="45.3728488026645" lon="11.52471025780398"><ele>16.0</ele><time>2026-04-18T08:23:28Z</time></trkpt><trkpt lat="45.372977100645684" lon="11.524799497776744"><ele>15.75</ele><time>2026-04-18T08:23:29Z</time></trkpt><trkpt lat="45.373112463572205" lon="11.524884897554353"><ele>15.5</ele><time>2026-04-18T08:23:30Z</time></trkpt><trkpt lat="45.37325223011716" lon="11.524960638076125"><ele>15.25</ele><time>2026-04-18T08:23:31Z</time></trkpt><trkpt lat="45.373382511748495" lon="11.525024126815758"><ele>15.0</ele><time>2026-04-18T08:23:32Z</time></trkpt><trkpt lat="45.37350383116191" lon="11.525087689415932"><ele>15.0</ele><time>2026-04-18T08:23:33Z</time></trkpt><trkpt lat="45.373616382831564" lon="11.525158468677569"><ele>15.0</ele><time>2026-04-18T08:23:34Z</time></trkpt><trkpt lat="45.37372692973548" lon="11.525225642284449"><ele>15.0</ele><time>2026-04-18T08:23:35Z</time></trkpt><trkpt lat="45.37383661071002" lon="11.525298587795705"><ele>15.0</ele><time>2026-04-18T08:23:36Z</time></trkpt><trkpt lat="45.373940184904235" lon="11.525381981797404"><ele>14.8</ele><time>2026-04-18T08:23:37Z</time></trkpt><trkpt lat="45.37402831951211" lon="11.525459103318951"><ele>14.6</ele><time>2026-04-18T08:23:38Z</time></trkpt><trkpt lat="45.37410860385205" lon="11.525536819992066"><ele>14.399999999999999</ele><time>2026-04-18T08:23:39Z</time></trkpt><trkpt lat="45.37419036162643" lon="11.52562862753631"><ele>14.2</ele><time>2026-04-18T08:23:40Z</time></trkpt><trkpt lat="45.37427132904741" lon="11.525739612807827"><ele>14.0</ele><time>2026-04-18T08:23:41Z</time></trkpt><trkpt lat="45.37435669879845" lon="11.525867263696588"><ele>14.0</ele><time>2026-04-18T08:23:42Z</time></trkpt><trkpt lat="45.37445247444175" lon="11.52602316842261"><ele>14.0</ele><time>2026-04-18T08:23:43Z</time></trkpt><trkpt lat="45.374565785206585" lon="11.526203978395882"><ele>14.0</ele><time>2026-04-18T08:23:44Z</time></trkpt><trkpt lat="45.37466332435789" lon="11.526399993835403"><ele>14.333333333333334</ele><time>2026-04-18T08:23:45Z</time></trkpt><trkpt lat="45.37474704625403" lon="11.526626839815636"><ele>14.666666666666668</ele><time>2026-04-18T08:23:46Z</time></trkpt><trkpt lat="45.374837502583794" lon="11.526858838145156"><ele>15.0</ele><time>2026-04-18T08:23:47Z</time></trkpt><trkpt lat="45.37491495445417" lon="11.52706628556646"><ele>15.0</ele><time>2026-04-18T08:23:48Z</time></trkpt><trkpt lat="45.37498449177273" lon="11.527253109260212"><ele>15.0</ele><time>2026-04-18T08:23:49Z</time></trkpt><trkpt lat="45.375044091498665" lon="11.527429482958997"><ele>15.0</ele><time>2026-04-18T08:23:50Z</time></trkpt><trkpt lat="45.37508163349361" lon="11.527601858710044"><ele>15.0</ele><time>2026-04-18T08:23:51Z</time></trkpt><trkpt lat="45.375126811445604" lon="11.527741378826708"><ele>15.0</ele><time>2026-04-18T08:23:52Z</time></trkpt><trkpt lat="45.375148450043135" lon="11.527870474207644"><ele>15.0</ele><time>2026-04-18T08:23:53Z</time></trkpt><trkpt lat="45.37516619418175" lon="11.52799263871872"><ele>15.0</ele><time>2026-04-18T08:23:54Z</time></trkpt><trkpt lat="45.37520724610661" lon="11.528089515222183"><ele>15.0</ele><time>2026-04-18T08:23:55Z</time></trkpt><trkpt lat="45.37525371093016" lon="11.528167941074157"><ele>15.0</ele><time>2026-04-18T08:23:56Z</time></trkpt><trkpt lat="45.375242183708636" lon="11.528076628653874"><ele>15.0</ele><time>2026-04-18T08:23:57Z</time></trkpt><trkpt lat="45.375462438198646" lon="11.527946921908343"><ele>15.25</ele><time>2026-04-18T08:23:58Z</time></trkpt><trkpt lat="45.375563268383374" lon="11.527848535362274"><ele>15.5</ele><time>2026-04-18T08:23:59Z</time></trkpt><trkpt lat="45.37568491814459" lon="11.527741091165245"><ele>15.75</ele><time>2026-04-18T08:24:00Z</time></trkpt><trkpt lat="45.375824956419805" lon="11.52762469958555"><ele>16.0</ele><time>2026-04-18T08:24:01Z</time></trkpt><trkpt lat="45.37600411003289" lon="11.527484882377845"><ele>16.0</ele><time>2026-04-18T08:24:02Z</time></trkpt><trkpt lat="45.376218599120214" lon="11.527323863600982"><ele>16.0</ele><time>2026-04-18T08:24:03Z</time></trkpt><trkpt lat="45.37646417183954" lon="11.527145871731818"><ele>16.0</ele><time>2026-04-18T08:24:04Z</time></trkpt><trkpt lat="45.37672812131314" lon="11.526951984994987"><ele>16.0</ele><time>2026-04-18T08:24:05Z</time></trkpt><trkpt lat="45.376995818184305" lon="11.526752435310307"><ele>16.0</ele><time>2026-04-18T08:24:06Z</time></trkpt><trkpt lat="45.377246815276344" lon="11.526571617508376"><ele>16.0</ele><time>2026-04-18T08:24:07Z</time></trkpt><trkpt lat="45.37746894701564" lon="11.526408092428396"><ele>16.0</ele><time>2026-04-18T08:24:08Z</time></trkpt><trkpt lat="45.377673090070274" lon="11.526278026123245"><ele>16.0</ele><time>2026-04-18T08:24:09Z</time></trkpt><trkpt lat="45.377868512162834" lon="11.526137156092796"><ele>16.0</ele><time>2026-04-18T08:24:10Z</time></trkpt><trkpt lat="45.37804032157334" lon="11.526013307120794"><ele>16.0</ele><time>2026-04-18T08:24:11Z</time></trkpt><trkpt lat="45.37817373249955" lon="11.525897425434506"><ele>16.0</ele><time>2026-04-18T08:24:12Z</time></trkpt><trkpt lat="45.37830102193081" lon="11.525809585740786"><ele>16.0</ele><time>2026-04-18T08:24:13Z</time></trkpt><trkpt lat="45.37841201213901" lon="11.525735365758619"><ele>16.0</ele><time>2026-04-18T08:24:14Z</time></trkpt><trkpt lat="45.37852984198014" lon="11.525658727883055"><ele>16.0</ele><time>2026-04-18T08:24:15Z</time></trkpt><trkpt lat="45.378652630261506" lon="11.52556760884469"><ele>16.0</ele><time>2026-04-18T08:24:16Z</time></trkpt><trkpt lat="45.37880078078926" lon="11.525457762522977"><ele>16.0</ele><time>2026-04-18T08:24:17Z</time></trkpt><trkpt lat="45.37896545929638" lon="11.52533608658566"><ele>16.0</ele><time>2026-04-18T08:24:18Z</time></trkpt><trkpt lat="45.379154690532026" lon="11.5251882269022"><ele>16.0</ele><time>2026-04-18T08:24:19Z</time></trkpt><trkpt lat="45.37936237638932" lon="11.525031834558796"><ele>16.0</ele><time>2026-04-18T08:24:20Z</time></trkpt><trkpt lat="45.379559820943186" lon="11.524894037203472"><ele>16.0</ele><time>2026-04-18T08:24:21Z</time></trkpt><trkpt lat="45.37976924645263" lon="11.52474527404824"><ele>16.5</ele><time>2026-04-18T08:24:22Z</time></trkpt><trkpt lat="45.379988809493476" lon="11.524585033487277"><ele>17.0</ele><time>2026-04-18T08:24:23Z</time></trkpt><trkpt lat="45.380217511489356" lon="11.524423271910093"><ele>17.0</ele><time>2026-04-18T08:24:24Z</time></trkpt><trkpt lat="45.38045471778937" lon="11.524253940411517"><ele>17.0</ele><time>2026-04-18T08:24:25.001Z</time></trkpt><trkpt lat="45.38070883662076" lon="11.524073419699343"><ele>17.0</ele><time>2026-04-18T08:24:26.001Z</time></trkpt><trkpt lat="45.380975124541635" lon="11.523875658507613"><ele>17.0</ele><time>2026-04-18T08:24:27.001Z</time></trkpt><trkpt lat="45.381216961744656" lon="11.523709183748762"><ele>16.0</ele><time>2026-04-18T08:24:28.001Z</time></trkpt><trkpt lat="45.38143696228431" lon="11.523557751349953"><ele>15.0</ele><time>2026-04-18T08:24:29.001Z</time></trkpt><trkpt lat="45.38166024861535" lon="11.523392163546557"><ele>15.0</ele><time>2026-04-18T08:24:30.001Z</time></trkpt><trkpt lat="45.38187725451829" lon="11.523234649430126"><ele>15.0</ele><time>2026-04-18T08:24:31.001Z</time></trkpt><trkpt lat="45.382092094434384" lon="11.523079261255186"><ele>14.5</ele><time>2026-04-18T08:24:32.001Z</time></trkpt><trkpt lat="45.38230459325977" lon="11.522923044700663"><ele>14.0</ele><time>2026-04-18T08:24:33.001Z</time></trkpt><trkpt lat="45.382515307971346" lon="11.522763820290656"><ele>14.0</ele><time>2026-04-18T08:24:34.001Z</time></trkpt><trkpt lat="45.38273190414094" lon="11.522595472519821"><ele>14.0</ele><time>2026-04-18T08:24:35.001Z</time></trkpt><trkpt lat="45.38295981155183" lon="11.522431145627223"><ele>14.0</ele><time>2026-04-18T08:24:36.001Z</time></trkpt><trkpt lat="45.38316459183401" lon="11.522289711562626"><ele>14.0</ele><time>2026-04-18T08:24:37.001Z</time></trkpt><trkpt lat="45.38336429814632" lon="11.52217085348999"><ele>14.0</ele><time>2026-04-18T08:24:38.001Z</time></trkpt><trkpt lat="45.38356480920998" lon="11.522018892518682"><ele>14.5</ele><time>2026-04-18T08:24:39.001Z</time></trkpt><trkpt lat="45.383786073051766" lon="11.521847029822318"><ele>15.0</ele><time>2026-04-18T08:24:40.001Z</time></trkpt><trkpt lat="45.383996473456364" lon="11.52170267793653"><ele>15.5</ele><time>2026-04-18T08:24:41.001Z</time></trkpt><trkpt lat="45.38420526519222" lon="11.521553107004099"><ele>16.0</ele><time>2026-04-18T08:24:42.001Z</time></trkpt><trkpt lat="45.38441350984977" lon="11.521401795837859"><ele>16.0</ele><time>2026-04-18T08:24:43.001Z</time></trkpt><trkpt lat="45.38462150150208" lon="11.521244386380976"><ele>16.0</ele><time>2026-04-18T08:24:44.001Z</time></trkpt><trkpt lat="45.38483126925676" lon="11.52108855360347"><ele>15.5</ele><time>2026-04-18T08:24:45.001Z</time></trkpt><trkpt lat="45.38504647699648" lon="11.52093739099995"><ele>15.0</ele><time>2026-04-18T08:24:46.001Z</time></trkpt><trkpt lat="45.38525838894947" lon="11.520780238734773"><ele>15.0</ele><time>2026-04-18T08:24:47.001Z</time></trkpt><trkpt lat="45.38547274157719" lon="11.520620102374926"><ele>15.0</ele><time>2026-04-18T08:24:48.001Z</time></trkpt><trkpt lat="45.38568657802609" lon="11.52046108304879"><ele>16.0</ele><time>2026-04-18T08:24:49.001Z</time></trkpt><trkpt lat="45.385892120706345" lon="11.520307988591846"><ele>17.0</ele><time>2026-04-18T08:24:50.001Z</time></trkpt><trkpt lat="45.38610322074282" lon="11.520159095628937"><ele>17.0</ele><time>2026-04-18T08:24:51.001Z</time></trkpt><trkpt lat="45.38630111833339" lon="11.52001006747449"><ele>17.0</ele><time>2026-04-18T08:24:52.001Z</time></trkpt><trkpt lat="45.38650943974013" lon="11.519863348029343"><ele>16.666666666666668</ele><time>2026-04-18T08:24:53.001Z</time></trkpt><trkpt lat="45.386702501656885" lon="11.519736367066436"><ele>16.333333333333332</ele><time>2026-04-18T08:24:54.001Z</time></trkpt><trkpt lat="45.386885717167594" lon="11.519591150598488"><ele>16.0</ele><time>2026-04-18T08:24:55.001Z</time></trkpt><trkpt lat="45.3870565814335" lon="11.519468403713981"><ele>15.666666666666666</ele><time>2026-04-18T08:24:56.001Z</time></trkpt><trkpt lat="45.38721830077577" lon="11.519354361820684"><ele>15.333333333333332</ele><time>2026-04-18T08:24:57.001Z</time></trkpt><trkpt lat="45.38737320540817" lon="11.519250167609552"><ele>15.0</ele><time>2026-04-18T08:24:58.001Z</time></trkpt><trkpt lat="45.387520384213026" lon="11.519138568173274"><ele>15.0</ele><time>2026-04-18T08:24:59.001Z</time></trkpt><trkpt lat="45.38765972480463" lon="11.519039199161808"><ele>15.0</ele><time>2026-04-18T08:25:00.001Z</time></trkpt><trkpt lat="45.38779425900123" lon="11.518949153585446"><ele>15.0</ele><time>2026-04-18T08:25:01.001Z</time></trkpt><trkpt lat="45.38791012702665" lon="11.518859412148137"><ele>15.0</ele><time>2026-04-18T08:25:02.001Z</time></trkpt><trkpt lat="45.38801892418682" lon="11.518784293210695"><ele>15.6</ele><time>2026-04-18T08:25:03.001Z</time></trkpt><trkpt lat="45.388103047576095" lon="11.518722976906625"><ele>16.2</ele><time>2026-04-18T08:25:04.001Z</time></trkpt><trkpt lat="45.38816829766937" lon="11.51863518412869"><ele>16.8</ele><time>2026-04-18T08:25:05.001Z</time></trkpt><trkpt lat="45.38819123576755" lon="11.518525529473528"><ele>17.4</ele><time>2026-04-18T08:25:06.001Z</time></trkpt><trkpt lat="45.388200664394525" lon="11.51836141142009"><ele>18.0</ele><time>2026-04-18T08:25:07.001Z</time></trkpt><trkpt lat="45.388214574457145" lon="11.518138442681886"><ele>18.0</ele><time>2026-04-18T08:25:08.001Z</time></trkpt><trkpt lat="45.38822908395887" lon="11.517882513517725"><ele>18.0</ele><time>2026-04-18T08:25:09.001Z</time></trkpt><trkpt lat="45.38826016423466" lon="11.517629231684822"><ele>18.0</ele><time>2026-04-18T08:25:10.001Z</time></trkpt><trkpt lat="45.38828572827493" lon="11.517414683832234"><ele>18.0</ele><time>2026-04-18T08:25:11.001Z</time></trkpt><trkpt lat="45.38830262458664" lon="11.517225654615398"><ele>18.0</ele><time>2026-04-18T08:25:12.001Z</time></trkpt><trkpt lat="45.38830535583656" lon="11.517047619519902"><ele>18.0</ele><time>2026-04-18T08:25:13.001Z</time></trkpt><trkpt lat="45.38827831608531" lon="11.516877675547677"><ele>18.0</ele><time>2026-04-18T08:25:14.001Z</time></trkpt><trkpt lat="45.38822193022659" lon="11.516706807227164"><ele>18.0</ele><time>2026-04-18T08:25:15.001Z</time></trkpt><trkpt lat="45.3881293065175" lon="11.516521988117189"><ele>18.0</ele><time>2026-04-18T08:25:16.001Z</time></trkpt><trkpt lat="45.387984558611606" lon="11.516340688886887"><ele>18.0</ele><time>2026-04-18T08:25:17.001Z</time></trkpt><trkpt lat="45.387805469058094" lon="11.516165629577154"><ele>17.666666666666668</ele><time>2026-04-18T08:25:18.001Z</time></trkpt><trkpt lat="45.387624867510944" lon="11.516024427644949"><ele>17.333333333333336</ele><time>2026-04-18T08:25:19.001Z</time></trkpt><trkpt lat="45.38746316541171" lon="11.515897700588415"><ele>17.0</ele><time>2026-04-18T08:25:20.001Z</time></trkpt><trkpt lat="45.387309437719765" lon="11.515765599379147"><ele>16.666666666666668</ele><time>2026-04-18T08:25:21.001Z</time></trkpt><trkpt lat="45.3871509145601" lon="11.515619436268285"><ele>16.333333333333332</ele><time>2026-04-18T08:25:22.001Z</time></trkpt><trkpt lat="45.386989027919014" lon="11.515469967483304"><ele>16.0</ele><time>2026-04-18T08:25:23.001Z</time></trkpt><trkpt lat="45.386834719865696" lon="11.515331035921221"><ele>16.0</ele><time>2026-04-18T08:25:24.001Z</time></trkpt><trkpt lat="45.38669198478389" lon="11.515193543730165"><ele>16.0</ele><time>2026-04-18T08:25:25.001Z</time></trkpt><trkpt lat="45.386569192527695" lon="11.51504952544036"><ele>16.0</ele><time>2026-04-18T08:25:26.001Z</time></trkpt><trkpt lat="45.386464929000354" lon="11.51488610750784"><ele>16.0</ele><time>2026-04-18T08:25:27.001Z</time></trkpt><trkpt lat="45.38635092470609" lon="11.514703264073622"><ele>16.0</ele><time>2026-04-18T08:25:28.001Z</time></trkpt><trkpt lat="45.386233070180694" lon="11.514520721345665"><ele>16.0</ele><time>2026-04-18T08:25:29.001Z</time></trkpt><trkpt lat="45.38612565035155" lon="11.514350967483189"><ele>17.0</ele><time>2026-04-18T08:25:30.001Z</time></trkpt><trkpt lat="45.38601873790119" lon="11.514205339931582"><ele>18.0</ele><time>2026-04-18T08:25:31.001Z</time></trkpt><trkpt lat="45.38590855276738" lon="11.514094231321687"><ele>19.0</ele><time>2026-04-18T08:25:32.001Z</time></trkpt><trkpt lat="45.38577639728711" lon="11.514027783032605"><ele>20.0</ele><time>2026-04-18T08:25:33.001Z</time></trkpt><trkpt lat="45.385635663305465" lon="11.514027281415068"><ele>24.0</ele><time>2026-04-18T08:25:34Z</time></trkpt><trkpt lat="45.38549712640485" lon="11.514080003694843"><ele>28.0</ele><time>2026-04-18T08:25:35Z</time></trkpt><trkpt lat="45.38536731022616" lon="11.514162459014344"><ele>32.0</ele><time>2026-04-18T08:25:36Z</time></trkpt><trkpt lat="45.385262692918324" lon="11.5142389785695"><ele>36.0</ele><time>2026-04-18T08:25:37Z</time></trkpt><trkpt lat="45.38516652511287" lon="11.51428706911421"><ele>36.0</ele><time>2026-04-18T08:25:38Z</time></trkpt><trkpt lat="45.38510021021491" lon="11.514354658608772"><ele>36.0</ele><time>2026-04-18T08:25:39Z</time></trkpt><trkpt lat="45.38502185016139" lon="11.514412878014104"><ele>36.0</ele><time>2026-04-18T08:25:41Z</time></trkpt><trkpt lat="45.384966735495766" lon="11.514344963691254"><ele>36.0</ele><time>2026-04-18T08:25:43Z</time></trkpt><trkpt lat="45.384975291396415" lon="11.514247473750823"><ele>36.0</ele><time>2026-04-18T08:25:44Z</time></trkpt><trkpt lat="45.38507659193128" lon="11.514163631398265"><ele>36.0</ele><time>2026-04-18T08:25:45Z</time></trkpt><trkpt lat="45.38519810209179" lon="11.514073439244275"><ele>36.0</ele><time>2026-04-18T08:25:46Z</time></trkpt><trkpt lat="45.38532786809138" lon="11.513947450652285"><ele>36.0</ele><time>2026-04-18T08:25:47Z</time></trkpt><trkpt lat="45.38541486265671" lon="11.51377939074851"><ele>36.0</ele><time>2026-04-18T08:25:48Z</time></trkpt><trkpt lat="45.38546249805906" lon="11.513633215011339"><ele>36.0</ele><time>2026-04-18T08:25:49Z</time></trkpt><trkpt lat="45.38549831120045" lon="11.513513978447916"><ele>36.0</ele><time>2026-04-18T08:25:50Z</time></trkpt><trkpt lat="45.38554319069768" lon="11.513418381932004"><ele>36.0</ele><time>2026-04-18T08:25:51Z</time></trkpt><trkpt lat="45.385574357044" lon="11.513338370753242"><ele>36.0</ele><time>2026-04-18T08:25:52Z</time></trkpt><trkpt lat="45.38559722630696" lon="11.513209131510171"><ele>36.0</ele><time>2026-04-18T08:25:54Z</time></trkpt><trkpt lat="45.38552242729746" lon="11.513167116342563"><ele>36.0</ele><time>2026-04-18T08:25:55Z</time></trkpt><trkpt lat="45.38543541848918" lon="11.513200525125345"><ele>36.0</ele><time>2026-04-18T08:25:56Z</time></trkpt><trkpt lat="45.385375941836486" lon="11.51331694835096"><ele>36.0</ele><time>2026-04-18T08:25:57Z</time></trkpt><trkpt lat="45.38533286523802" lon="11.513498633025801"><ele>36.0</ele><time>2026-04-18T08:25:58Z</time></trkpt><trkpt lat="45.38528482609197" lon="11.51368070516036"><ele>36.0</ele><time>2026-04-18T08:25:59Z</time></trkpt><trkpt lat="45.38518816658114" lon="11.513796201842263"><ele>36.0</ele><time>2026-04-18T08:26:00Z</time></trkpt><trkpt lat="45.385044112565026" lon="11.513876509695011"><ele>36.0</ele><time>2026-04-18T08:26:01Z</time></trkpt><trkpt lat="45.38489695857338" lon="11.51393960474845"><ele>36.0</ele><time>2026-04-18T08:26:02Z</time></trkpt><trkpt lat="45.384803096702576" lon="11.514018258559496"><ele>36.0</ele><time>2026-04-18T08:26:03Z</time></trkpt><trkpt lat="45.384749361316835" lon="11.514103252706489"><ele>36.0</ele><time>2026-04-18T08:26:04Z</time></trkpt><trkpt lat="45.38465676337101" lon="11.514143840699845"><ele>36.0</ele><time>2026-04-18T08:26:06Z</time></trkpt><trkpt lat="45.38460877964048" lon="11.514081609094418"><ele>36.0</ele><time>2026-04-18T08:26:07Z</time></trkpt><trkpt lat="45.38459830848913" lon="11.513983552006382"><ele>36.0</ele><time>2026-04-18T08:26:08Z</time></trkpt><trkpt lat="45.38464084877699" lon="11.513896392607801"><ele>36.0</ele><time>2026-04-18T08:26:09Z</time></trkpt><trkpt lat="45.38472431843191" lon="11.513845466074494"><ele>36.0</ele><time>2026-04-18T08:26:10Z</time></trkpt><trkpt lat="45.384849475424936" lon="11.513803765688913"><ele>36.0</ele><time>2026-04-18T08:26:11Z</time></trkpt><trkpt lat="45.384982814667275" lon="11.513736918914452"><ele>43.5</ele><time>2026-04-18T08:26:12Z</time></trkpt><trkpt lat="45.38508857453041" lon="11.513643848008616"><ele>51.0</ele><time>2026-04-18T08:26:13Z</time></trkpt><trkpt lat="45.38516352887605" lon="11.513512959291319"><ele>58.5</ele><time>2026-04-18T08:26:14Z</time></trkpt><trkpt lat="45.38522018605029" lon="11.5133222717528"><ele>66.0</ele><time>2026-04-18T08:26:15Z</time></trkpt><trkpt lat="45.385272748680705" lon="11.513104832228887"><ele>65.33333333333333</ele><time>2026-04-18T08:26:16Z</time></trkpt><trkpt lat="45.38536133651612" lon="11.512892959900906"><ele>64.66666666666666</ele><time>2026-04-18T08:26:17Z</time></trkpt><trkpt lat="45.38549841000264" lon="11.512700924387602"><ele>64.0</ele><time>2026-04-18T08:26:18Z</time></trkpt><trkpt lat="45.38565421498999" lon="11.512539691597095"><ele>64.0</ele><time>2026-04-18T08:26:19Z</time></trkpt><trkpt lat="45.38581313971853" lon="11.51237868417483"><ele>64.0</ele><time>2026-04-18T08:26:20Z</time></trkpt><trkpt lat="45.38595995683398" lon="11.512258677375884"><ele>64.0</ele><time>2026-04-18T08:26:21Z</time></trkpt><trkpt lat="45.38612818263331" lon="11.512152914455204"><ele>75.5</ele><time>2026-04-18T08:26:22Z</time></trkpt><trkpt lat="45.386339439639166" lon="11.512062345795332"><ele>87.0</ele><time>2026-04-18T08:26:23Z</time></trkpt><trkpt lat="45.3865694627423" lon="11.511934110631474"><ele>87.0</ele><time>2026-04-18T08:26:24Z</time></trkpt><trkpt lat="45.38677941718693" lon="11.511806310815032"><ele>87.0</ele><time>2026-04-18T08:26:25Z</time></trkpt><trkpt lat="45.38695031259824" lon="11.511690236111653"><ele>87.0</ele><time>2026-04-18T08:26:26Z</time></trkpt><trkpt lat="45.387091869824296" lon="11.511591330522307"><ele>85.25</ele><time>2026-04-18T08:26:27Z</time></trkpt><trkpt lat="45.38721850383143" lon="11.511529068426038"><ele>83.5</ele><time>2026-04-18T08:26:28Z</time></trkpt><trkpt lat="45.38732376574249" lon="11.511503218413399"><ele>81.75</ele><time>2026-04-18T08:26:29Z</time></trkpt><trkpt lat="45.38745047419528" lon="11.511509040491521"><ele>80.0</ele><time>2026-04-18T08:26:30Z</time></trkpt><trkpt lat="45.387601967043345" lon="11.51158161056468"><ele>80.0</ele><time>2026-04-18T08:26:31Z</time></trkpt><trkpt lat="45.38776956660058" lon="11.511648018158283"><ele>80.0</ele><time>2026-04-18T08:26:32.001Z</time></trkpt><trkpt lat="45.387926423338136" lon="11.511648332844176"><ele>80.0</ele><time>2026-04-18T08:26:33.001Z</time></trkpt><trkpt lat="45.38808597751057" lon="11.511571363347368"><ele>80.66666666666667</ele><time>2026-04-18T08:26:34.001Z</time></trkpt><trkpt lat="45.388270809936415" lon="11.51143861336987"><ele>81.33333333333333</ele><time>2026-04-18T08:26:35.001Z</time></trkpt><trkpt lat="45.38846858335358" lon="11.511305435173915"><ele>82.0</ele><time>2026-04-18T08:26:36.001Z</time></trkpt><trkpt lat="45.3886418023064" lon="11.51120462970512"><ele>91.66666666666666</ele><time>2026-04-18T08:26:37.001Z</time></trkpt><trkpt lat="45.38882427947322" lon="11.51110929617476"><ele>101.33333333333333</ele><time>2026-04-18T08:26:38.001Z</time></trkpt><trkpt lat="45.3890042625151" lon="11.510983608171761"><ele>111.0</ele><time>2026-04-18T08:26:39.001Z</time></trkpt><trkpt lat="45.38919720713909" lon="11.510903335993307"><ele>111.0</ele><time>2026-04-18T08:26:40.001Z</time></trkpt><trkpt lat="45.389395082716554" lon="11.510831748563938"><ele>111.0</ele><time>2026-04-18T08:26:41.001Z</time></trkpt><trkpt lat="45.389577412268956" lon="11.510806979019572"><ele>111.0</ele><time>2026-04-18T08:26:42.001Z</time></trkpt><trkpt lat="45.38973250640644" lon="11.510783095499573"><ele>112.25</ele><time>2026-04-18T08:26:43.001Z</time></trkpt><trkpt lat="45.38986546614997" lon="11.510780565656313"><ele>113.5</ele><time>2026-04-18T08:26:44.001Z</time></trkpt><trkpt lat="45.389985231347154" lon="11.51076395083809"><ele>114.75</ele><time>2026-04-18T08:26:45.001Z</time></trkpt><trkpt lat="45.39009592117381" lon="11.510756536428769"><ele>116.0</ele><time>2026-04-18T08:26:46.001Z</time></trkpt><trkpt lat="45.390234840900725" lon="11.510788764680424"><ele>116.0</ele><time>2026-04-18T08:26:47.001Z</time></trkpt><trkpt lat="45.39040301152955" lon="11.510831945335955"><ele>116.0</ele><time>2026-04-18T08:26:48.001Z</time></trkpt><trkpt lat="45.39053894967915" lon="11.510893550324178"><ele>116.0</ele><time>2026-04-18T08:26:49.001Z</time></trkpt><trkpt lat="45.39066203806236" lon="11.510925743460229"><ele>116.0</ele><time>2026-04-18T08:26:50.001Z</time></trkpt><trkpt lat="45.390747957063496" lon="11.510997725813278"><ele>115.8</ele><time>2026-04-18T08:26:51.001Z</time></trkpt><trkpt lat="45.39082021085267" lon="11.511063052088865"><ele>115.6</ele><time>2026-04-18T08:26:52.001Z</time></trkpt><trkpt lat="45.390880453537044" lon="11.511139434976506"><ele>115.4</ele><time>2026-04-18T08:26:53.001Z</time></trkpt><trkpt lat="45.39094424202302" lon="11.511229297428633"><ele>115.2</ele><time>2026-04-18T08:26:54.001Z</time></trkpt><trkpt lat="45.3910159540127" lon="11.511353739405667"><ele>115.0</ele><time>2026-04-18T08:26:55.001Z</time></trkpt><trkpt lat="45.39111510913237" lon="11.511537260237695"><ele>115.0</ele><time>2026-04-18T08:26:56.001Z</time></trkpt><trkpt lat="45.3911761598797" lon="11.511747222763487"><ele>115.0</ele><time>2026-04-18T08:26:57.001Z</time></trkpt><trkpt lat="45.391216106434314" lon="11.511887891529838"><ele>115.0</ele><time>2026-04-18T08:26:58.001Z</time></trkpt><trkpt lat="45.39124347596298" lon="11.512020049024295"><ele>115.0</ele><time>2026-04-18T08:26:59.001Z</time></trkpt><trkpt lat="45.39126195244775" lon="11.512112338912548"><ele>115.0</ele><time>2026-04-18T08:27:00.001Z</time></trkpt><trkpt lat="45.39130940891785" lon="11.512246906125897"><ele>121.5</ele><time>2026-04-18T08:27:02.001Z</time></trkpt><trkpt lat="45.39142246941721" lon="11.512267022302222"><ele>128.0</ele><time>2026-04-18T08:27:04.001Z</time></trkpt><trkpt lat="45.391455207727496" lon="11.512115701720528"><ele>134.5</ele><time>2026-04-18T08:27:05.001Z</time></trkpt><trkpt lat="45.3914297331929" lon="11.51196730074188"><ele>141.0</ele><time>2026-04-18T08:27:06.001Z</time></trkpt><trkpt lat="45.39136754361601" lon="11.511783639123848"><ele>139.0</ele><time>2026-04-18T08:27:07.001Z</time></trkpt><trkpt lat="45.39129840337969" lon="11.511538240420402"><ele>137.0</ele><time>2026-04-18T08:27:08.001Z</time></trkpt><trkpt lat="45.391245165169586" lon="11.511261397537492"><ele>135.0</ele><time>2026-04-18T08:27:09.001Z</time></trkpt><trkpt lat="45.39118553583925" lon="11.511045395064091"><ele>135.0</ele><time>2026-04-18T08:27:10.001Z</time></trkpt><trkpt lat="45.391117035302344" lon="11.510870373468201"><ele>135.0</ele><time>2026-04-18T08:27:11.001Z</time></trkpt><trkpt lat="45.391063974528414" lon="11.510734490231833"><ele>135.0</ele><time>2026-04-18T08:27:12.001Z</time></trkpt><trkpt lat="45.39103420810007" lon="11.510624360205584"><ele>135.0</ele><time>2026-04-18T08:27:13.001Z</time></trkpt><trkpt lat="45.39101941430789" lon="11.510521139909056"><ele>135.0</ele><time>2026-04-18T08:27:14.001Z</time></trkpt><trkpt lat="45.39103142760146" lon="11.510425920111823"><ele>136.2</ele><time>2026-04-18T08:27:15.001Z</time></trkpt><trkpt lat="45.3910667126569" lon="11.510341937970464"><ele>137.4</ele><time>2026-04-18T08:27:16.001Z</time></trkpt><trkpt lat="45.3911248167974" lon="11.510299495780488"><ele>138.6</ele><time>2026-04-18T08:27:17.001Z</time></trkpt><trkpt lat="45.39128018483489" lon="11.510309457544476"><ele>139.8</ele><time>2026-04-18T08:27:19.001Z</time></trkpt><trkpt lat="45.39142222631177" lon="11.510328512243047"><ele>141.0</ele><time>2026-04-18T08:27:20.001Z</time></trkpt><trkpt lat="45.39160239613512" lon="11.510285512617841"><ele>141.0</ele><time>2026-04-18T08:27:21.001Z</time></trkpt><trkpt lat="45.391807466925265" lon="11.510193443389372"><ele>141.0</ele><time>2026-04-18T08:27:22.001Z</time></trkpt><trkpt lat="45.3919840241926" lon="11.51009124709455"><ele>141.0</ele><time>2026-04-18T08:27:23.001Z</time></trkpt><trkpt lat="45.392142105422934" lon="11.509987213756238"><ele>143.0</ele><time>2026-04-18T08:27:24.001Z</time></trkpt><trkpt lat="45.39228750033581" lon="11.509881311460875"><ele>145.0</ele><time>2026-04-18T08:27:25.001Z</time></trkpt><trkpt lat="45.392425187225996" lon="11.50977098667196"><ele>147.0</ele><time>2026-04-18T08:27:26.001Z</time></trkpt><trkpt lat="45.392555681517344" lon="11.509666623864128"><ele>146.25</ele><time>2026-04-18T08:27:27.001Z</time></trkpt><trkpt lat="45.39267664946844" lon="11.50957535524162"><ele>145.5</ele><time>2026-04-18T08:27:28.001Z</time></trkpt><trkpt lat="45.39278996710725" lon="11.50948377980308"><ele>144.75</ele><time>2026-04-18T08:27:29.001Z</time></trkpt><trkpt lat="45.39290273821434" lon="11.509400577900228"><ele>144.0</ele><time>2026-04-18T08:27:30.001Z</time></trkpt><trkpt lat="45.393008063609436" lon="11.5093168902948"><ele>143.75</ele><time>2026-04-18T08:27:31.001Z</time></trkpt><trkpt lat="45.39309173592873" lon="11.50924473052073"><ele>143.5</ele><time>2026-04-18T08:27:32.001Z</time></trkpt><trkpt lat="45.39318673105308" lon="11.509167094317501"><ele>143.25</ele><time>2026-04-18T08:27:33.001Z</time></trkpt><trkpt lat="45.39330107316815" lon="11.50906403402874"><ele>143.0</ele><time>2026-04-18T08:27:34.001Z</time></trkpt><trkpt lat="45.39345230543429" lon="11.508924081313024"><ele>143.0</ele><time>2026-04-18T08:27:35.001Z</time></trkpt><trkpt lat="45.393628286135865" lon="11.508742853904295"><ele>143.0</ele><time>2026-04-18T08:27:36.001Z</time></trkpt><trkpt lat="45.39381175336823" lon="11.50853836954478"><ele>142.33333333333331</ele><time>2026-04-18T08:27:37.001Z</time></trkpt><trkpt lat="45.39398097047974" lon="11.508319994153272"><ele>141.66666666666666</ele><time>2026-04-18T08:27:38.001Z</time></trkpt><trkpt lat="45.39414890289886" lon="11.508124210904473"><ele>141.0</ele><time>2026-04-18T08:27:39.001Z</time></trkpt><trkpt lat="45.39430541454749" lon="11.507930274108102"><ele>141.33333333333334</ele><time>2026-04-18T08:27:40Z</time></trkpt><trkpt lat="45.39446341348311" lon="11.507734924945797"><ele>141.66666666666669</ele><time>2026-04-18T08:27:41Z</time></trkpt><trkpt lat="45.39461471109466" lon="11.50752760554306"><ele>142.0</ele><time>2026-04-18T08:27:42Z</time></trkpt><trkpt lat="45.39477732133496" lon="11.507332305413243"><ele>142.0</ele><time>2026-04-18T08:27:43Z</time></trkpt><trkpt lat="45.394939046033244" lon="11.507133685811635"><ele>142.0</ele><time>2026-04-18T08:27:44Z</time></trkpt><trkpt lat="45.39509946348186" lon="11.506933454724093"><ele>142.0</ele><time>2026-04-18T08:27:45Z</time></trkpt><trkpt lat="45.39526068536147" lon="11.50673170828181"><ele>142.33333333333334</ele><time>2026-04-18T08:27:46Z</time></trkpt><trkpt lat="45.395421328166805" lon="11.506526617995876"><ele>142.66666666666666</ele><time>2026-04-18T08:27:47Z</time></trkpt><trkpt lat="45.395581509082575" lon="11.506330472073703"><ele>143.0</ele><time>2026-04-18T08:27:48Z</time></trkpt><trkpt lat="45.39574100422962" lon="11.506140000168276"><ele>144.0</ele><time>2026-04-18T08:27:49Z</time></trkpt><trkpt lat="45.39589829099154" lon="11.505947536077779"><ele>145.0</ele><time>2026-04-18T08:27:50Z</time></trkpt><trkpt lat="45.396054310253874" lon="11.50575591150226"><ele>146.0</ele><time>2026-04-18T08:27:51Z</time></trkpt><trkpt lat="45.3962101992688" lon="11.50556574099224"><ele>146.66666666666666</ele><time>2026-04-18T08:27:52Z</time></trkpt><trkpt lat="45.39636542804025" lon="11.50537403520713"><ele>147.33333333333334</ele><time>2026-04-18T08:27:53Z</time></trkpt><trkpt lat="45.39651992702816" lon="11.505183584320381"><ele>148.0</ele><time>2026-04-18T08:27:54Z</time></trkpt><trkpt lat="45.39667602294716" lon="11.504994820470156"><ele>148.0</ele><time>2026-04-18T08:27:55Z</time></trkpt><trkpt lat="45.39683055454872" lon="11.504809614783836"><ele>148.0</ele><time>2026-04-18T08:27:56Z</time></trkpt><trkpt lat="45.396993625395865" lon="11.504630925483665"><ele>148.0</ele><time>2026-04-18T08:27:57Z</time></trkpt><trkpt lat="45.39716817623452" lon="11.504483020432648"><ele>149.66666666666669</ele><time>2026-04-18T08:27:58Z</time></trkpt><trkpt lat="45.39734845060314" lon="11.50435167690346"><ele>151.33333333333334</ele><time>2026-04-18T08:27:59Z</time></trkpt><trkpt lat="45.39752792566673" lon="11.504217173889774"><ele>153.0</ele><time>2026-04-18T08:28:00Z</time></trkpt><trkpt lat="45.39768824467982" lon="11.504086655630196"><ele>153.0</ele><time>2026-04-18T08:28:01Z</time></trkpt><trkpt lat="45.397840736776374" lon="11.503968677726633"><ele>153.0</ele><time>2026-04-18T08:28:02Z</time></trkpt><trkpt lat="45.39800072382701" lon="11.503870749540441"><ele>153.0</ele><time>2026-04-18T08:28:03Z</time></trkpt><trkpt lat="45.39819320529378" lon="11.503820719360423"><ele>154.66666666666666</ele><time>2026-04-18T08:28:04Z</time></trkpt><trkpt lat="45.39840423316936" lon="11.503807496924335"><ele>156.33333333333331</ele><time>2026-04-18T08:28:05Z</time></trkpt><trkpt lat="45.39861620339716" lon="11.503831074887728"><ele>158.0</ele><time>2026-04-18T08:28:06Z</time></trkpt><trkpt lat="45.398793029246576" lon="11.50385903946468"><ele>159.0</ele><time>2026-04-18T08:28:07Z</time></trkpt><trkpt lat="45.398971501278645" lon="11.503857600999687"><ele>160.0</ele><time>2026-04-18T08:28:08Z</time></trkpt><trkpt lat="45.399188595224764" lon="11.503819941090624"><ele>161.0</ele><time>2026-04-18T08:28:09Z</time></trkpt><trkpt lat="45.39942577600186" lon="11.503740442039929"><ele>161.0</ele><time>2026-04-18T08:28:10Z</time></trkpt><trkpt lat="45.399629555754906" lon="11.503648412866633"><ele>161.0</ele><time>2026-04-18T08:28:11Z</time></trkpt><trkpt lat="45.399818739063406" lon="11.503535987778262"><ele>161.0</ele><time>2026-04-18T08:28:12Z</time></trkpt><trkpt lat="45.40000118345333" lon="11.503389490542427"><ele>162.33333333333331</ele><time>2026-04-18T08:28:13Z</time></trkpt><trkpt lat="45.40018268445277" lon="11.503240286166562"><ele>163.66666666666666</ele><time>2026-04-18T08:28:14Z</time></trkpt><trkpt lat="45.40034909567348" lon="11.503107886225353"><ele>165.0</ele><time>2026-04-18T08:28:15Z</time></trkpt><trkpt lat="45.400503440994676" lon="11.502986718102681"><ele>165.66666666666666</ele><time>2026-04-18T08:28:16Z</time></trkpt><trkpt lat="45.40065574981506" lon="11.502868390993918"><ele>166.33333333333331</ele><time>2026-04-18T08:28:17Z</time></trkpt><trkpt lat="45.40079277258727" lon="11.502768685375543"><ele>167.0</ele><time>2026-04-18T08:28:18Z</time></trkpt><trkpt lat="45.400914665852625" lon="11.502677193014417"><ele>167.0</ele><time>2026-04-18T08:28:19Z</time></trkpt><trkpt lat="45.401027687339095" lon="11.502580867291258"><ele>167.0</ele><time>2026-04-18T08:28:20Z</time></trkpt><trkpt lat="45.40112578954085" lon="11.502459573238756"><ele>167.0</ele><time>2026-04-18T08:28:21Z</time></trkpt><trkpt lat="45.401214878696635" lon="11.502272198307823"><ele>167.0</ele><time>2026-04-18T08:28:22Z</time></trkpt><trkpt lat="45.401296509654756" lon="11.502042746164411"><ele>167.33333333333331</ele><time>2026-04-18T08:28:23Z</time></trkpt><trkpt lat="45.401387340595" lon="11.50179406051682"><ele>167.66666666666666</ele><time>2026-04-18T08:28:24Z</time></trkpt><trkpt lat="45.40151854536054" lon="11.501565091695227"><ele>168.0</ele><time>2026-04-18T08:28:25Z</time></trkpt><trkpt lat="45.401680007684014" lon="11.501348879267871"><ele>166.0</ele><time>2026-04-18T08:28:26Z</time></trkpt><trkpt lat="45.40187355298583" lon="11.501167059488703"><ele>164.0</ele><time>2026-04-18T08:28:27Z</time></trkpt><trkpt lat="45.40206744557782" lon="11.501015145345932"><ele>164.33333333333331</ele><time>2026-04-18T08:28:28Z</time></trkpt><trkpt lat="45.40224684725303" lon="11.500872050981322"><ele>164.66666666666666</ele><time>2026-04-18T08:28:29Z</time></trkpt><trkpt lat="45.40242717927688" lon="11.500729875599824"><ele>165.0</ele><time>2026-04-18T08:28:30Z</time></trkpt><trkpt lat="45.402615846245915" lon="11.50058876401139"><ele>165.0</ele><time>2026-04-18T08:28:31Z</time></trkpt><trkpt lat="45.40279932464633" lon="11.500445295472726"><ele>165.0</ele><time>2026-04-18T08:28:32Z</time></trkpt><trkpt lat="45.40297045315645" lon="11.500313397964332"><ele>165.0</ele><time>2026-04-18T08:28:33Z</time></trkpt><trkpt lat="45.403140368998805" lon="11.500192707260442"><ele>163.0</ele><time>2026-04-18T08:28:34Z</time></trkpt><trkpt lat="45.403332314332324" lon="11.500101061901734"><ele>161.0</ele><time>2026-04-18T08:28:35Z</time></trkpt><trkpt lat="45.403545285858584" lon="11.500052402617662"><ele>159.0</ele><time>2026-04-18T08:28:36Z</time></trkpt><trkpt lat="45.40374417679405" lon="11.500025715657145"><ele>160.0</ele><time>2026-04-18T08:28:37Z</time></trkpt><trkpt lat="45.40391628721416" lon="11.500000973854235"><ele>161.0</ele><time>2026-04-18T08:28:38Z</time></trkpt><trkpt lat="45.404080315915415" lon="11.499970890415527"><ele>162.0</ele><time>2026-04-18T08:28:39Z</time></trkpt><trkpt lat="45.40423510168658" lon="11.499944207627612"><ele>162.0</ele><time>2026-04-18T08:28:40Z</time></trkpt><trkpt lat="45.404381340474075" lon="11.49991101950989"><ele>162.0</ele><time>2026-04-18T08:28:41Z</time></trkpt><trkpt lat="45.40451667607094" lon="11.499853981226268"><ele>162.0</ele><time>2026-04-18T08:28:42Z</time></trkpt><trkpt lat="45.40464578874561" lon="11.499783673135314"><ele>162.0</ele><time>2026-04-18T08:28:43Z</time></trkpt><trkpt lat="45.40476636231543" lon="11.499706884712543"><ele>162.75</ele><time>2026-04-18T08:28:44Z</time></trkpt><trkpt lat="45.40488675357953" lon="11.499635144110718"><ele>163.5</ele><time>2026-04-18T08:28:45Z</time></trkpt><trkpt lat="45.40500414140422" lon="11.499579825113662"><ele>164.25</ele><time>2026-04-18T08:28:46Z</time></trkpt><trkpt lat="45.405096181215974" lon="11.499484245213228"><ele>165.0</ele><time>2026-04-18T08:28:47Z</time></trkpt><trkpt lat="45.40517605026274" lon="11.499404484346273"><ele>163.5</ele><time>2026-04-18T08:28:48Z</time></trkpt><trkpt lat="45.40525152379863" lon="11.499326678134192"><ele>162.0</ele><time>2026-04-18T08:28:49Z</time></trkpt><trkpt lat="45.40533735429388" lon="11.499237426698683"><ele>160.5</ele><time>2026-04-18T08:28:50Z</time></trkpt><trkpt lat="45.405434825482644" lon="11.49913403997542"><ele>159.0</ele><time>2026-04-18T08:28:51Z</time></trkpt><trkpt lat="45.40554855447597" lon="11.49901565609157"><ele>159.0</ele><time>2026-04-18T08:28:52.001Z</time></trkpt><trkpt lat="45.40567701852649" lon="11.498894346880052"><ele>159.0</ele><time>2026-04-18T08:28:53.001Z</time></trkpt><trkpt lat="45.405800070846816" lon="11.498762037368065"><ele>159.0</ele><time>2026-04-18T08:28:55.001Z</time></trkpt><trkpt lat="45.405917279897565" lon="11.498671043806155"><ele>159.0</ele><time>2026-04-18T08:28:56.001Z</time></trkpt><trkpt lat="45.406030450273796" lon="11.498573601213394"><ele>158.5</ele><time>2026-04-18T08:28:57.001Z</time></trkpt><trkpt lat="45.40614546752626" lon="11.498477271713035"><ele>158.0</ele><time>2026-04-18T08:28:58.001Z</time></trkpt><trkpt lat="45.40627110275113" lon="11.49838976952405"><ele>157.5</ele><time>2026-04-18T08:28:59.001Z</time></trkpt><trkpt lat="45.40640595167871" lon="11.498304166530554"><ele>157.0</ele><time>2026-04-18T08:29:00.001Z</time></trkpt><trkpt lat="45.40654356668051" lon="11.498256545833213"><ele>157.0</ele><time>2026-04-18T08:29:01.001Z</time></trkpt><trkpt lat="45.40666443845824" lon="11.498207717555477"><ele>157.0</ele><time>2026-04-18T08:29:02.001Z</time></trkpt><trkpt lat="45.40678381976576" lon="11.498156242802699"><ele>157.0</ele><time>2026-04-18T08:29:03.001Z</time></trkpt><trkpt lat="45.40691782563972" lon="11.498130901176538"><ele>157.0</ele><time>2026-04-18T08:29:04.001Z</time></trkpt><trkpt lat="45.40705549099362" lon="11.498110963823807"><ele>157.33333333333334</ele><time>2026-04-18T08:29:05.001Z</time></trkpt><trkpt lat="45.407205311862604" lon="11.498090045644128"><ele>157.66666666666666</ele><time>2026-04-18T08:29:06.001Z</time></trkpt><trkpt lat="45.40735395648349" lon="11.498061079232473"><ele>158.0</ele><time>2026-04-18T08:29:07.001Z</time></trkpt><trkpt lat="45.407499327929365" lon="11.498005413130361"><ele>157.33333333333331</ele><time>2026-04-18T08:29:08.001Z</time></trkpt><trkpt lat="45.40764102742526" lon="11.497912874896212"><ele>156.66666666666666</ele><time>2026-04-18T08:29:09.001Z</time></trkpt><trkpt lat="45.407774031148286" lon="11.497782783262057"><ele>156.0</ele><time>2026-04-18T08:29:10.001Z</time></trkpt><trkpt lat="45.407892261788646" lon="11.497632702751984"><ele>156.66666666666666</ele><time>2026-04-18T08:29:11.001Z</time></trkpt><trkpt lat="45.40800118313696" lon="11.497470315108725"><ele>157.33333333333331</ele><time>2026-04-18T08:29:12.001Z</time></trkpt><trkpt lat="45.408108128734206" lon="11.497315115483813"><ele>158.0</ele><time>2026-04-18T08:29:13.001Z</time></trkpt><trkpt lat="45.4082115800089" lon="11.497168268749457"><ele>157.33333333333331</ele><time>2026-04-18T08:29:14.001Z</time></trkpt><trkpt lat="45.408327541980974" lon="11.497028649325625"><ele>156.66666666666666</ele><time>2026-04-18T08:29:15.001Z</time></trkpt><trkpt lat="45.4084579957114" lon="11.496906958294646"><ele>156.0</ele><time>2026-04-18T08:29:16.001Z</time></trkpt><trkpt lat="45.40858763232588" lon="11.49678879820997"><ele>156.0</ele><time>2026-04-18T08:29:17.001Z</time></trkpt><trkpt lat="45.40870829045453" lon="11.496678900874926"><ele>156.0</ele><time>2026-04-18T08:29:18.001Z</time></trkpt><trkpt lat="45.40882243850899" lon="11.49657103522433"><ele>156.0</ele><time>2026-04-18T08:29:19.001Z</time></trkpt><trkpt lat="45.40892939812526" lon="11.49647034075"><ele>156.0</ele><time>2026-04-18T08:29:20.001Z</time></trkpt><trkpt lat="45.409022785717134" lon="11.496381400037313"><ele>156.16666666666666</ele><time>2026-04-18T08:29:21.001Z</time></trkpt><trkpt lat="45.40910110658584" lon="11.49630653954362"><ele>156.33333333333334</ele><time>2026-04-18T08:29:22.001Z</time></trkpt><trkpt lat="45.409171359049004" lon="11.49624270507835"><ele>156.5</ele><time>2026-04-18T08:29:23.001Z</time></trkpt><trkpt lat="45.409236256927805" lon="11.496174607577995"><ele>156.66666666666669</ele><time>2026-04-18T08:29:24.001Z</time></trkpt><trkpt lat="45.40930189166291" lon="11.496122218433056"><ele>156.83333333333334</ele><time>2026-04-18T08:29:25.001Z</time></trkpt><trkpt lat="45.4093554167361" lon="11.496074533049397"><ele>157.0</ele><time>2026-04-18T08:29:26.001Z</time></trkpt><trkpt lat="45.409407500337906" lon="11.496020853142197"><ele>156.6</ele><time>2026-04-18T08:29:27.001Z</time></trkpt><trkpt lat="45.40947629337192" lon="11.495949910215925"><ele>156.2</ele><time>2026-04-18T08:29:28.001Z</time></trkpt><trkpt lat="45.4095608914936" lon="11.495868580415522"><ele>155.8</ele><time>2026-04-18T08:29:29.001Z</time></trkpt><trkpt lat="45.409662645420774" lon="11.495772618618911"><ele>155.4</ele><time>2026-04-18T08:29:30.001Z</time></trkpt><trkpt lat="45.409774339718865" lon="11.495665727406296"><ele>155.0</ele><time>2026-04-18T08:29:31.001Z</time></trkpt><trkpt lat="45.409883673518046" lon="11.495563585240227"><ele>155.2</ele><time>2026-04-18T08:29:32.001Z</time></trkpt><trkpt lat="45.40997357007078" lon="11.495488130717561"><ele>155.4</ele><time>2026-04-18T08:29:33.001Z</time></trkpt><trkpt lat="45.410054058129056" lon="11.495418297424587"><ele>155.6</ele><time>2026-04-18T08:29:34.001Z</time></trkpt><trkpt lat="45.41013024960287" lon="11.495345494879722"><ele>155.8</ele><time>2026-04-18T08:29:35.001Z</time></trkpt><trkpt lat="45.410208670134786" lon="11.495273464740075"><ele>156.0</ele><time>2026-04-18T08:29:36.001Z</time></trkpt><trkpt lat="45.410292805411125" lon="11.495189024340643"><ele>156.0</ele><time>2026-04-18T08:29:37.001Z</time></trkpt><trkpt lat="45.410399281046764" lon="11.495099131477321"><ele>156.0</ele><time>2026-04-18T08:29:38.001Z</time></trkpt><trkpt lat="45.4105450458373" lon="11.495021288142121"><ele>156.0</ele><time>2026-04-18T08:29:39.001Z</time></trkpt><trkpt lat="45.41071161246984" lon="11.494955324856637"><ele>157.66666666666666</ele><time>2026-04-18T08:29:40.001Z</time></trkpt><trkpt lat="45.410867508432396" lon="11.494879798973374"><ele>159.33333333333331</ele><time>2026-04-18T08:29:41.001Z</time></trkpt><trkpt lat="45.41099644837741" lon="11.494786140652222"><ele>161.0</ele><time>2026-04-18T08:29:42.001Z</time></trkpt><trkpt lat="45.4111279947969" lon="11.494703735415442"><ele>161.0</ele><time>2026-04-18T08:29:43.001Z</time></trkpt><trkpt lat="45.411260433512716" lon="11.494619138769627"><ele>161.0</ele><time>2026-04-18T08:29:44.001Z</time></trkpt><trkpt lat="45.411393607994015" lon="11.494534482933224"><ele>161.0</ele><time>2026-04-18T08:29:45.001Z</time></trkpt><trkpt lat="45.4115150478007" lon="11.494439524260036"><ele>161.0</ele><time>2026-04-18T08:29:46Z</time></trkpt><trkpt lat="45.41163738068272" lon="11.494358436228419"><ele>161.25</ele><time>2026-04-18T08:29:47Z</time></trkpt><trkpt lat="45.41175901401896" lon="11.494282060090304"><ele>161.5</ele><time>2026-04-18T08:29:48Z</time></trkpt><trkpt lat="45.41188100861822" lon="11.494183062586401"><ele>161.75</ele><time>2026-04-18T08:29:49Z</time></trkpt><trkpt lat="45.41198731568239" lon="11.49405987498094"><ele>162.0</ele><time>2026-04-18T08:29:50Z</time></trkpt><trkpt lat="45.412087645827675" lon="11.493919645093365"><ele>162.5</ele><time>2026-04-18T08:29:51Z</time></trkpt><trkpt lat="45.41217276661822" lon="11.493775171564156"><ele>163.0</ele><time>2026-04-18T08:29:52Z</time></trkpt><trkpt lat="45.41225712177304" lon="11.493633391642634"><ele>163.5</ele><time>2026-04-18T08:29:53Z</time></trkpt><trkpt lat="45.41233088260025" lon="11.493496920418803"><ele>164.0</ele><time>2026-04-18T08:29:54Z</time></trkpt><trkpt lat="45.41236920712217" lon="11.493319706457843"><ele>163.0</ele><time>2026-04-18T08:29:55Z</time></trkpt><trkpt lat="45.41236319344105" lon="11.493103990129491"><ele>162.0</ele><time>2026-04-18T08:29:56Z</time></trkpt><trkpt lat="45.412352325638594" lon="11.492891836846091"><ele>161.0</ele><time>2026-04-18T08:29:57Z</time></trkpt><trkpt lat="45.41236104109086" lon="11.492698117852871"><ele>160.0</ele><time>2026-04-18T08:29:58Z</time></trkpt><trkpt lat="45.41239567439682" lon="11.492515408975827"><ele>159.8</ele><time>2026-04-18T08:29:59Z</time></trkpt><trkpt lat="45.41242454330168" lon="11.492356026673148"><ele>159.6</ele><time>2026-04-18T08:30:00Z</time></trkpt><trkpt lat="45.412435612077445" lon="11.49220504827404"><ele>159.4</ele><time>2026-04-18T08:30:01Z</time></trkpt><trkpt lat="45.41245977600874" lon="11.492079402460757"><ele>159.2</ele><time>2026-04-18T08:30:02Z</time></trkpt><trkpt lat="45.412512012135245" lon="11.491969899548497"><ele>159.0</ele><time>2026-04-18T08:30:03Z</time></trkpt><trkpt lat="45.41259507301685" lon="11.491874427614247"><ele>160.0</ele><time>2026-04-18T08:30:04Z</time></trkpt><trkpt lat="45.412689859522054" lon="11.491780912992134"><ele>161.0</ele><time>2026-04-18T08:30:05Z</time></trkpt><trkpt lat="45.41278144431701" lon="11.491678553622073"><ele>162.0</ele><time>2026-04-18T08:30:06Z</time></trkpt><trkpt lat="45.412861668364094" lon="11.491567697453855"><ele>163.0</ele><time>2026-04-18T08:30:07Z</time></trkpt><trkpt lat="45.41293480854717" lon="11.491447916642063"><ele>160.8</ele><time>2026-04-18T08:30:08Z</time></trkpt><trkpt lat="45.41300799582212" lon="11.491334575807025"><ele>158.60000000000002</ele><time>2026-04-18T08:30:09Z</time></trkpt><trkpt lat="45.41307971843327" lon="11.491218680663739"><ele>156.39999999999998</ele><time>2026-04-18T08:30:10Z</time></trkpt><trkpt lat="45.413150228224225" lon="11.49110003008925"><ele>154.2</ele><time>2026-04-18T08:30:11Z</time></trkpt><trkpt lat="45.413221637032905" lon="11.490979196782243"><ele>152.0</ele><time>2026-04-18T08:30:12Z</time></trkpt><trkpt lat="45.413299730699066" lon="11.490851359709271"><ele>152.0</ele><time>2026-04-18T08:30:13Z</time></trkpt><trkpt lat="45.413386667106174" lon="11.490722274505359"><ele>152.0</ele><time>2026-04-18T08:30:14Z</time></trkpt><trkpt lat="45.41348440886803" lon="11.490589351485088"><ele>152.0</ele><time>2026-04-18T08:30:15Z</time></trkpt><trkpt lat="45.41359606544372" lon="11.490476755368128"><ele>152.0</ele><time>2026-04-18T08:30:16Z</time></trkpt><trkpt lat="45.4137097983904" lon="11.490381380655226"><ele>155.25</ele><time>2026-04-18T08:30:17Z</time></trkpt><trkpt lat="45.41381626990274" lon="11.490259743217237"><ele>158.5</ele><time>2026-04-18T08:30:18Z</time></trkpt><trkpt lat="45.41391152526712" lon="11.49011110352501"><ele>161.75</ele><time>2026-04-18T08:30:19Z</time></trkpt><trkpt lat="45.4140106684624" lon="11.489955868458509"><ele>165.0</ele><time>2026-04-18T08:30:20Z</time></trkpt><trkpt lat="45.41412379614344" lon="11.489789870538614"><ele>165.75</ele><time>2026-04-18T08:30:21Z</time></trkpt><trkpt lat="45.41422310118363" lon="11.489660472377428"><ele>166.5</ele><time>2026-04-18T08:30:22Z</time></trkpt><trkpt lat="45.41434992983438" lon="11.489603709290176"><ele>167.25</ele><time>2026-04-18T08:30:23Z</time></trkpt><trkpt lat="45.41448040934409" lon="11.489526885290472"><ele>168.0</ele><time>2026-04-18T08:30:24Z</time></trkpt><trkpt lat="45.41460901750702" lon="11.489446086867158"><ele>160.5</ele><time>2026-04-18T08:30:25Z</time></trkpt><trkpt lat="45.41474151883768" lon="11.48940813956269"><ele>153.0</ele><time>2026-04-18T08:30:26Z</time></trkpt><trkpt lat="45.41487097877906" lon="11.489358806612863"><ele>145.5</ele><time>2026-04-18T08:30:27Z</time></trkpt><trkpt lat="45.41498708365181" lon="11.489295379166906"><ele>138.0</ele><time>2026-04-18T08:30:28Z</time></trkpt><trkpt lat="45.4151081977988" lon="11.489274490950027"><ele>138.0</ele><time>2026-04-18T08:30:29Z</time></trkpt><trkpt lat="45.41522417216907" lon="11.489243834590322"><ele>138.0</ele><time>2026-04-18T08:30:30Z</time></trkpt><trkpt lat="45.41533029984544" lon="11.4891833389453"><ele>138.0</ele><time>2026-04-18T08:30:31Z</time></trkpt><trkpt lat="45.41540391940006" lon="11.489064418518756"><ele>138.0</ele><time>2026-04-18T08:30:32Z</time></trkpt><trkpt lat="45.415462653519114" lon="11.488918750692456"><ele>136.0</ele><time>2026-04-18T08:30:33Z</time></trkpt><trkpt lat="45.41553450911352" lon="11.488765252331396"><ele>134.0</ele><time>2026-04-18T08:30:34Z</time></trkpt><trkpt lat="45.41561922384" lon="11.488622808118063"><ele>132.0</ele><time>2026-04-18T08:30:35Z</time></trkpt><trkpt lat="45.41570253361867" lon="11.488483130050046"><ele>130.0</ele><time>2026-04-18T08:30:36Z</time></trkpt><trkpt lat="45.41577953925588" lon="11.488338500096011"><ele>130.0</ele><time>2026-04-18T08:30:37Z</time></trkpt><trkpt lat="45.41587325865014" lon="11.48820681133738"><ele>130.0</ele><time>2026-04-18T08:30:38Z</time></trkpt><trkpt lat="45.41597071065224" lon="11.48807367804921"><ele>130.0</ele><time>2026-04-18T08:30:39Z</time></trkpt><trkpt lat="45.41607036027967" lon="11.487945074791297"><ele>130.0</ele><time>2026-04-18T08:30:40Z</time></trkpt><trkpt lat="45.4161965242486" lon="11.48785340410525"><ele>128.25</ele><time>2026-04-18T08:30:41Z</time></trkpt><trkpt lat="45.41631003404942" lon="11.487763351005643"><ele>126.5</ele><time>2026-04-18T08:30:42Z</time></trkpt><trkpt lat="45.41642828490596" lon="11.487684355579841"><ele>124.75</ele><time>2026-04-18T08:30:43Z</time></trkpt><trkpt lat="45.41655625607955" lon="11.487640404318157"><ele>123.0</ele><time>2026-04-18T08:30:44Z</time></trkpt><trkpt lat="45.41668970852423" lon="11.487618904312017"><ele>123.0</ele><time>2026-04-18T08:30:45Z</time></trkpt><trkpt lat="45.4168173619419" lon="11.487591011134704"><ele>123.0</ele><time>2026-04-18T08:30:46Z</time></trkpt><trkpt lat="45.41694116600688" lon="11.48760521311523"><ele>123.0</ele><time>2026-04-18T08:30:47Z</time></trkpt><trkpt lat="45.41705478667202" lon="11.4876154003495"><ele>123.0</ele><time>2026-04-18T08:30:48Z</time></trkpt><trkpt lat="45.41715748779313" lon="11.487677500239894"><ele>121.2</ele><time>2026-04-18T08:30:49Z</time></trkpt><trkpt lat="45.417225031495825" lon="11.487797099537088"><ele>119.4</ele><time>2026-04-18T08:30:50Z</time></trkpt><trkpt lat="45.41729492503847" lon="11.487921976349208"><ele>117.60000000000001</ele><time>2026-04-18T08:30:51.001Z</time></trkpt><trkpt lat="45.417363720326236" lon="11.488014743317725"><ele>115.80000000000001</ele><time>2026-04-18T08:30:52.001Z</time></trkpt><trkpt lat="45.41743469279427" lon="11.4880965762841"><ele>114.0</ele><time>2026-04-18T08:30:53.001Z</time></trkpt><trkpt lat="45.41752204622895" lon="11.48815668896382"><ele>109.80000000000001</ele><time>2026-04-18T08:30:54.001Z</time></trkpt><trkpt lat="45.41762360098784" lon="11.488191917469269"><ele>105.60000000000001</ele><time>2026-04-18T08:30:55.001Z</time></trkpt><trkpt lat="45.41773542785567" lon="11.488188147332114"><ele>101.4</ele><time>2026-04-18T08:30:56.001Z</time></trkpt><trkpt lat="45.41784665512886" lon="11.4881320084031"><ele>97.2</ele><time>2026-04-18T08:30:57.001Z</time></trkpt><trkpt lat="45.4179573410772" lon="11.488094174509262"><ele>93.0</ele><time>2026-04-18T08:30:58.001Z</time></trkpt><trkpt lat="45.41807213716843" lon="11.488073406860748"><ele>92.60000000000001</ele><time>2026-04-18T08:30:59.001Z</time></trkpt><trkpt lat="45.41818907174567" lon="11.488117623827426"><ele>92.2</ele><time>2026-04-18T08:31:00.001Z</time></trkpt><trkpt lat="45.41830082039221" lon="11.488121445738583"><ele>91.8</ele><time>2026-04-18T08:31:01.001Z</time></trkpt><trkpt lat="45.4183908599016" lon="11.488143892083292"><ele>91.4</ele><time>2026-04-18T08:31:02.001Z</time></trkpt><trkpt lat="45.41847948999901" lon="11.488110386340123"><ele>91.0</ele><time>2026-04-18T08:31:03.001Z</time></trkpt><trkpt lat="45.4185500135665" lon="11.48802664172565"><ele>95.25</ele><time>2026-04-18T08:31:04.001Z</time></trkpt><trkpt lat="45.41860103908531" lon="11.487897050723507"><ele>99.5</ele><time>2026-04-18T08:31:05.001Z</time></trkpt><trkpt lat="45.4186488489141" lon="11.48775684037286"><ele>103.75</ele><time>2026-04-18T08:31:06.001Z</time></trkpt><trkpt lat="45.41871593588946" lon="11.487625565424391"><ele>108.0</ele><time>2026-04-18T08:31:07.001Z</time></trkpt><trkpt lat="45.41881199845559" lon="11.487501568058692"><ele>101.5</ele><time>2026-04-18T08:31:08.001Z</time></trkpt><trkpt lat="45.418934173177725" lon="11.487430515545906"><ele>95.0</ele><time>2026-04-18T08:31:09.001Z</time></trkpt><trkpt lat="45.41903269863491" lon="11.487324692031962"><ele>88.5</ele><time>2026-04-18T08:31:10.001Z</time></trkpt><trkpt lat="45.41913386493732" lon="11.4872283360501"><ele>82.0</ele><time>2026-04-18T08:31:11.001Z</time></trkpt><trkpt lat="45.41921433630837" lon="11.487114199892567"><ele>84.5</ele><time>2026-04-18T08:31:12.001Z</time></trkpt><trkpt lat="45.41927984206973" lon="11.486989329342276"><ele>87.0</ele><time>2026-04-18T08:31:13.001Z</time></trkpt><trkpt lat="45.41932904607196" lon="11.486851892522829"><ele>89.5</ele><time>2026-04-18T08:31:14.001Z</time></trkpt><trkpt lat="45.419371887891636" lon="11.486702813874256"><ele>92.0</ele><time>2026-04-18T08:31:15.001Z</time></trkpt><trkpt lat="45.41939835516892" lon="11.486499085428902"><ele>92.0</ele><time>2026-04-18T08:31:16.001Z</time></trkpt><trkpt lat="45.41948322900864" lon="11.486299830318684"><ele>92.0</ele><time>2026-04-18T08:31:17.001Z</time></trkpt><trkpt lat="45.41959319253969" lon="11.486084581422455"><ele>92.0</ele><time>2026-04-18T08:31:18.001Z</time></trkpt><trkpt lat="45.41968676368286" lon="11.485868720523428"><ele>85.66666666666667</ele><time>2026-04-18T08:31:19.001Z</time></trkpt><trkpt lat="45.419783055679694" lon="11.485687034581378"><ele>79.33333333333333</ele><time>2026-04-18T08:31:20.001Z</time></trkpt><trkpt lat="45.4198668583616" lon="11.485506466038757"><ele>73.0</ele><time>2026-04-18T08:31:21.001Z</time></trkpt><trkpt lat="45.41994824650387" lon="11.485340517691151"><ele>73.0</ele><time>2026-04-18T08:31:22.001Z</time></trkpt><trkpt lat="45.42003425566983" lon="11.485189384101595"><ele>73.0</ele><time>2026-04-18T08:31:23.001Z</time></trkpt><trkpt lat="45.420119598466734" lon="11.485051845784124"><ele>73.0</ele><time>2026-04-18T08:31:24.001Z</time></trkpt><trkpt lat="45.42020034828376" lon="11.484919009116629"><ele>73.0</ele><time>2026-04-18T08:31:25.001Z</time></trkpt><trkpt lat="45.42025779498132" lon="11.484773109078775"><ele>73.0</ele><time>2026-04-18T08:31:26.001Z</time></trkpt><trkpt lat="45.42028890230493" lon="11.484634404931986"><ele>73.0</ele><time>2026-04-18T08:31:27.001Z</time></trkpt><trkpt lat="45.42030265148707" lon="11.484500308066771"><ele>73.0</ele><time>2026-04-18T08:31:28.001Z</time></trkpt><trkpt lat="45.420315025766435" lon="11.484362004567629"><ele>73.0</ele><time>2026-04-18T08:31:29.001Z</time></trkpt><trkpt lat="45.420329323185086" lon="11.484215431911105"><ele>73.0</ele><time>2026-04-18T08:31:30.001Z</time></trkpt><trkpt lat="45.420342735988555" lon="11.484062401095425"><ele>74.0</ele><time>2026-04-18T08:31:31.001Z</time></trkpt><trkpt lat="45.42035915896861" lon="11.483916202399536"><ele>75.0</ele><time>2026-04-18T08:31:32.001Z</time></trkpt><trkpt lat="45.42038967333875" lon="11.483756393578721"><ele>76.0</ele><time>2026-04-18T08:31:33.001Z</time></trkpt><trkpt lat="45.42042229011557" lon="11.483583375234632"><ele>77.0</ele><time>2026-04-18T08:31:34.001Z</time></trkpt><trkpt lat="45.42046062393219" lon="11.483402690430237"><ele>73.0</ele><time>2026-04-18T08:31:35.001Z</time></trkpt><trkpt lat="45.42049807232753" lon="11.483212755854755"><ele>69.0</ele><time>2026-04-18T08:31:36.001Z</time></trkpt><trkpt lat="45.42053502370054" lon="11.483024675138605"><ele>65.0</ele><time>2026-04-18T08:31:37.001Z</time></trkpt><trkpt lat="45.420566420960796" lon="11.482844855780149"><ele>61.0</ele><time>2026-04-18T08:31:38.001Z</time></trkpt><trkpt lat="45.4206015685288" lon="11.48266264643067"><ele>61.0</ele><time>2026-04-18T08:31:39.001Z</time></trkpt><trkpt lat="45.4206474189069" lon="11.482480488366267"><ele>61.0</ele><time>2026-04-18T08:31:40.001Z</time></trkpt><trkpt lat="45.420709882101555" lon="11.482298318276678"><ele>61.0</ele><time>2026-04-18T08:31:41.001Z</time></trkpt><trkpt lat="45.420796765713824" lon="11.482128031213046"><ele>61.0</ele><time>2026-04-18T08:31:42.001Z</time></trkpt><trkpt lat="45.42089870760303" lon="11.481971376046397"><ele>63.0</ele><time>2026-04-18T08:31:43.001Z</time></trkpt><trkpt lat="45.42101568014145" lon="11.481832255946756"><ele>65.0</ele><time>2026-04-18T08:31:44.001Z</time></trkpt><trkpt lat="45.4211386623509" lon="11.481682776652764"><ele>67.0</ele><time>2026-04-18T08:31:45.001Z</time></trkpt><trkpt lat="45.42125852755322" lon="11.481492541932488"><ele>65.0</ele><time>2026-04-18T08:31:46.001Z</time></trkpt><trkpt lat="45.4213739440066" lon="11.481270357754804"><ele>63.0</ele><time>2026-04-18T08:31:47.001Z</time></trkpt><trkpt lat="45.42146398577531" lon="11.481068700712582"><ele>61.0</ele><time>2026-04-18T08:31:48.001Z</time></trkpt><trkpt lat="45.421556768313074" lon="11.480854397020494"><ele>61.0</ele><time>2026-04-18T08:31:49.001Z</time></trkpt><trkpt lat="45.42166303817825" lon="11.48065066086107"><ele>61.0</ele><time>2026-04-18T08:31:50.001Z</time></trkpt><trkpt lat="45.421797936402996" lon="11.480462063510856"><ele>61.0</ele><time>2026-04-18T08:31:51.001Z</time></trkpt><trkpt lat="45.421954951475385" lon="11.480278154986017"><ele>59.0</ele><time>2026-04-18T08:31:52Z</time></trkpt><trkpt lat="45.42210383351678" lon="11.480110247683658"><ele>57.0</ele><time>2026-04-18T08:31:53Z</time></trkpt><trkpt lat="45.42224485920116" lon="11.479957812398094"><ele>55.0</ele><time>2026-04-18T08:31:54Z</time></trkpt><trkpt lat="45.42238283746647" lon="11.479812312317907"><ele>55.0</ele><time>2026-04-18T08:31:55Z</time></trkpt><trkpt lat="45.42252082091002" lon="11.479660045476596"><ele>55.0</ele><time>2026-04-18T08:31:56Z</time></trkpt><trkpt lat="45.42266739411899" lon="11.479496813106088"><ele>55.0</ele><time>2026-04-18T08:31:57Z</time></trkpt><trkpt lat="45.42281024992262" lon="11.479328528204732"><ele>53.0</ele><time>2026-04-18T08:31:58Z</time></trkpt><trkpt lat="45.42293969855569" lon="11.47916258080373"><ele>51.0</ele><time>2026-04-18T08:31:59Z</time></trkpt><trkpt lat="45.42306051402851" lon="11.47900403611451"><ele>49.0</ele><time>2026-04-18T08:32:00Z</time></trkpt><trkpt lat="45.42317716511801" lon="11.47885575007296"><ele>51.0</ele><time>2026-04-18T08:32:01Z</time></trkpt><trkpt lat="45.42328690350559" lon="11.478709566325334"><ele>53.0</ele><time>2026-04-18T08:32:02Z</time></trkpt><trkpt lat="45.42339736842501" lon="11.478555953446362"><ele>55.0</ele><time>2026-04-18T08:32:03Z</time></trkpt><trkpt lat="45.42350894821798" lon="11.478399120705458"><ele>55.0</ele><time>2026-04-18T08:32:04Z</time></trkpt><trkpt lat="45.42361978310751" lon="11.478234746877222"><ele>55.0</ele><time>2026-04-18T08:32:05Z</time></trkpt><trkpt lat="45.42373270876782" lon="11.478079972052429"><ele>55.0</ele><time>2026-04-18T08:32:06Z</time></trkpt><trkpt lat="45.42384325585001" lon="11.477932222995836"><ele>54.0</ele><time>2026-04-18T08:32:07Z</time></trkpt><trkpt lat="45.42394260267223" lon="11.47778878349319"><ele>53.0</ele><time>2026-04-18T08:32:08Z</time></trkpt><trkpt lat="45.4240343068743" lon="11.477649833974299"><ele>52.0</ele><time>2026-04-18T08:32:09Z</time></trkpt><trkpt lat="45.42411089817603" lon="11.477509719153048"><ele>51.0</ele><time>2026-04-18T08:32:10Z</time></trkpt><trkpt lat="45.42414297727824" lon="11.477332303982747"><ele>51.0</ele><time>2026-04-18T08:32:11Z</time></trkpt><trkpt lat="45.424168157599595" lon="11.477138367394929"><ele>51.0</ele><time>2026-04-18T08:32:12Z</time></trkpt><trkpt lat="45.42417621209623" lon="11.476921129543083"><ele>51.0</ele><time>2026-04-18T08:32:13Z</time></trkpt><trkpt lat="45.42418973233214" lon="11.476689281084502"><ele>51.0</ele><time>2026-04-18T08:32:14Z</time></trkpt><trkpt lat="45.42421453480252" lon="11.476467811272347"><ele>51.0</ele><time>2026-04-18T08:32:15Z</time></trkpt><trkpt lat="45.42424784210813" lon="11.47626959905084"><ele>51.0</ele><time>2026-04-18T08:32:16Z</time></trkpt><trkpt lat="45.424291462863636" lon="11.47608754054682"><ele>51.0</ele><time>2026-04-18T08:32:17Z</time></trkpt><trkpt lat="45.42437382457813" lon="11.475946351835288"><ele>49.4</ele><time>2026-04-18T08:32:18Z</time></trkpt><trkpt lat="45.424425242171395" lon="11.47579110952606"><ele>47.8</ele><time>2026-04-18T08:32:19Z</time></trkpt><trkpt lat="45.42448553187274" lon="11.47567077108127"><ele>46.199999999999996</ele><time>2026-04-18T08:32:20Z</time></trkpt><trkpt lat="45.42453805320664" lon="11.475584732286789"><ele>44.599999999999994</ele><time>2026-04-18T08:32:21Z</time></trkpt><trkpt lat="45.42459260772348" lon="11.47551165898134"><ele>43.0</ele><time>2026-04-18T08:32:23Z</time></trkpt><trkpt lat="45.42468658053648" lon="11.475652333884815"><ele>42.75</ele><time>2026-04-18T08:32:26Z</time></trkpt><trkpt lat="45.42469296459146" lon="11.475773110394089"><ele>42.5</ele><time>2026-04-18T08:32:27Z</time></trkpt><trkpt lat="45.4247115240625" lon="11.475959025314255"><ele>42.25</ele><time>2026-04-18T08:32:28Z</time></trkpt><trkpt lat="45.42475730949957" lon="11.476195481420202"><ele>42.0</ele><time>2026-04-18T08:32:29Z</time></trkpt><trkpt lat="45.42486434895673" lon="11.476432192873515"><ele>42.0</ele><time>2026-04-18T08:32:30Z</time></trkpt><trkpt lat="45.42497790481174" lon="11.476643097774518"><ele>42.0</ele><time>2026-04-18T08:32:31Z</time></trkpt><trkpt lat="45.42510928146638" lon="11.476828373412818"><ele>42.0</ele><time>2026-04-18T08:32:32Z</time></trkpt><trkpt lat="45.42529367920653" lon="11.47701314563309"><ele>44.0</ele><time>2026-04-18T08:32:33Z</time></trkpt><trkpt lat="45.42548776709821" lon="11.477191118720077"><ele>46.0</ele><time>2026-04-18T08:32:34Z</time></trkpt><trkpt lat="45.42564066064201" lon="11.477351049268842"><ele>48.0</ele><time>2026-04-18T08:32:35Z</time></trkpt><trkpt lat="45.425755227955456" lon="11.477484105120675"><ele>48.0</ele><time>2026-04-18T08:32:36Z</time></trkpt><trkpt lat="45.42587198684423" lon="11.477592354748865"><ele>48.0</ele><time>2026-04-18T08:32:37Z</time></trkpt><trkpt lat="45.42600654431042" lon="11.477642514200534"><ele>48.0</ele><time>2026-04-18T08:32:38Z</time></trkpt><trkpt lat="45.4261640057431" lon="11.477647848062256"><ele>48.0</ele><time>2026-04-18T08:32:39Z</time></trkpt><trkpt lat="45.42630129906356" lon="11.477645245103083"><ele>49.333333333333336</ele><time>2026-04-18T08:32:40Z</time></trkpt><trkpt lat="45.426410118668585" lon="11.477644074721209"><ele>50.66666666666667</ele><time>2026-04-18T08:32:41Z</time></trkpt><trkpt lat="45.426491109104624" lon="11.477627083754346"><ele>52.0</ele><time>2026-04-18T08:32:42Z</time></trkpt><trkpt lat="45.426592113377964" lon="11.477637013794144"><ele>53.333333333333336</ele><time>2026-04-18T08:32:44Z</time></trkpt><trkpt lat="45.4266374925791" lon="11.477704321402888"><ele>54.66666666666667</ele><time>2026-04-18T08:32:46Z</time></trkpt><trkpt lat="45.42659573060825" lon="11.47779837099999"><ele>56.0</ele><time>2026-04-18T08:32:47Z</time></trkpt><trkpt lat="45.426497104217525" lon="11.477770404736635"><ele>56.0</ele><time>2026-04-18T08:32:48Z</time></trkpt><trkpt lat="45.42638416838715" lon="11.477807915283694"><ele>56.0</ele><time>2026-04-18T08:32:49Z</time></trkpt><trkpt lat="45.42624989877736" lon="11.477882806996528"><ele>56.0</ele><time>2026-04-18T08:32:50Z</time></trkpt><trkpt lat="45.4261165429939" lon="11.477970716646727"><ele>56.0</ele><time>2026-04-18T08:32:51Z</time></trkpt><trkpt lat="45.42602781373516" lon="11.478078962733468"><ele>57.25</ele><time>2026-04-18T08:32:52Z</time></trkpt><trkpt lat="45.42597292648512" lon="11.478206662345466"><ele>58.5</ele><time>2026-04-18T08:32:53Z</time></trkpt><trkpt lat="45.42595434066223" lon="11.478360245032995"><ele>59.75</ele><time>2026-04-18T08:32:54Z</time></trkpt><trkpt lat="45.42596608367282" lon="11.478543615391418"><ele>61.0</ele><time>2026-04-18T08:32:55Z</time></trkpt><trkpt lat="45.425998078546016" lon="11.478788869770419"><ele>63.666666666666664</ele><time>2026-04-18T08:32:56.001Z</time></trkpt><trkpt lat="45.42604234243826" lon="11.479070694705815"><ele>66.33333333333333</ele><time>2026-04-18T08:32:57.001Z</time></trkpt><trkpt lat="45.42609491133363" lon="11.479348524235627"><ele>69.0</ele><time>2026-04-18T08:32:58.001Z</time></trkpt><trkpt lat="45.426090816890586" lon="11.479570043852469"><ele>72.0</ele><time>2026-04-18T08:32:59.001Z</time></trkpt><trkpt lat="45.426092026351576" lon="11.479764669926697"><ele>75.0</ele><time>2026-04-18T08:33:00.001Z</time></trkpt><trkpt lat="45.426106359454415" lon="11.479944904915863"><ele>78.0</ele><time>2026-04-18T08:33:01.001Z</time></trkpt><trkpt lat="45.42608471691758" lon="11.480103477510967"><ele>81.0</ele><time>2026-04-18T08:33:02.001Z</time></trkpt><trkpt lat="45.426075064413055" lon="11.480231908700507"><ele>81.0</ele><time>2026-04-18T08:33:03.001Z</time></trkpt><trkpt lat="45.426047273007605" lon="11.480360058915569"><ele>81.0</ele><time>2026-04-18T08:33:04.001Z</time></trkpt><trkpt lat="45.425971804259355" lon="11.480455755587133"><ele>81.0</ele><time>2026-04-18T08:33:05.001Z</time></trkpt><trkpt lat="45.42585054269845" lon="11.480515948381555"><ele>81.0</ele><time>2026-04-18T08:33:06.001Z</time></trkpt><trkpt lat="45.42569786730341" lon="11.48061188128878"><ele>84.33333333333333</ele><time>2026-04-18T08:33:07.001Z</time></trkpt><trkpt lat="45.42552148964291" lon="11.480746874476601"><ele>87.66666666666666</ele><time>2026-04-18T08:33:08.001Z</time></trkpt><trkpt lat="45.425325048786384" lon="11.480871550859547"><ele>91.0</ele><time>2026-04-18T08:33:09.001Z</time></trkpt><trkpt lat="45.42514082907483" lon="11.480961272523825"><ele>91.0</ele><time>2026-04-18T08:33:10.001Z</time></trkpt><trkpt lat="45.42499883802525" lon="11.481091247207281"><ele>91.0</ele><time>2026-04-18T08:33:11.001Z</time></trkpt><trkpt lat="45.42485845735438" lon="11.481222543495809"><ele>91.0</ele><time>2026-04-18T08:33:12.001Z</time></trkpt><trkpt lat="45.42472844684546" lon="11.481370652688584"><ele>95.0</ele><time>2026-04-18T08:33:13.001Z</time></trkpt><trkpt lat="45.42462543162755" lon="11.481502109058951"><ele>99.0</ele><time>2026-04-18T08:33:14.001Z</time></trkpt><trkpt lat="45.42452978670734" lon="11.481602955748835"><ele>103.0</ele><time>2026-04-18T08:33:15.001Z</time></trkpt><trkpt lat="45.42443233787588" lon="11.481659459310263"><ele>107.0</ele><time>2026-04-18T08:33:16.001Z</time></trkpt><trkpt lat="45.42430954067965" lon="11.481714846834116"><ele>107.0</ele><time>2026-04-18T08:33:17.001Z</time></trkpt><trkpt lat="45.42415107444158" lon="11.481612306627028"><ele>107.0</ele><time>2026-04-18T08:33:18.001Z</time></trkpt><trkpt lat="45.42400277828486" lon="11.481597510207418"><ele>107.0</ele><time>2026-04-18T08:33:19.001Z</time></trkpt><trkpt lat="45.423904402302476" lon="11.481573158138788"><ele>107.0</ele><time>2026-04-18T08:33:20.001Z</time></trkpt><trkpt lat="45.423827663781324" lon="11.481585305018928"><ele>106.75</ele><time>2026-04-18T08:33:21.001Z</time></trkpt><trkpt lat="45.423761167758784" lon="11.481642987187424"><ele>106.5</ele><time>2026-04-18T08:33:22.001Z</time></trkpt><trkpt lat="45.423656727479816" lon="11.481703975637618"><ele>106.25</ele><time>2026-04-18T08:33:23.001Z</time></trkpt><trkpt lat="45.42369996817161" lon="11.482001687726246"><ele>106.0</ele><time>2026-04-18T08:33:24.001Z</time></trkpt><trkpt lat="45.423681787416925" lon="11.482258380940012"><ele>106.0</ele><time>2026-04-18T08:33:25.001Z</time></trkpt><trkpt lat="45.42364368380902" lon="11.482573265768833"><ele>106.0</ele><time>2026-04-18T08:33:26.001Z</time></trkpt><trkpt lat="45.423578893985024" lon="11.482874869305723"><ele>106.0</ele><time>2026-04-18T08:33:27.001Z</time></trkpt><trkpt lat="45.423519949457024" lon="11.483148881763695"><ele>108.5</ele><time>2026-04-18T08:33:28.001Z</time></trkpt><trkpt lat="45.42348301322003" lon="11.48338804849393"><ele>111.0</ele><time>2026-04-18T08:33:29.001Z</time></trkpt><trkpt lat="45.423453186786176" lon="11.48356339180937"><ele>113.5</ele><time>2026-04-18T08:33:30.001Z</time></trkpt><trkpt lat="45.423428538688924" lon="11.483702514076901"><ele>116.0</ele><time>2026-04-18T08:33:31.001Z</time></trkpt><trkpt lat="45.42342143860968" lon="11.483828204074989"><ele>118.0</ele><time>2026-04-18T08:33:32.001Z</time></trkpt><trkpt lat="45.42345697555782" lon="11.483925131774855"><ele>120.0</ele><time>2026-04-18T08:33:33.001Z</time></trkpt><trkpt lat="45.42352801407846" lon="11.483987581115501"><ele>122.0</ele><time>2026-04-18T08:33:34.001Z</time></trkpt><trkpt lat="45.423637522437595" lon="11.483963625259891"><ele>124.0</ele><time>2026-04-18T08:33:35.001Z</time></trkpt><trkpt lat="45.42375781485435" lon="11.483869422453406"><ele>126.0</ele><time>2026-04-18T08:33:36.001Z</time></trkpt><trkpt lat="45.42390836165568" lon="11.483715270942678"><ele>130.5</ele><time>2026-04-18T08:33:37.001Z</time></trkpt><trkpt lat="45.42409434111184" lon="11.48355766882958"><ele>135.0</ele><time>2026-04-18T08:33:38.001Z</time></trkpt><trkpt lat="45.42431424202129" lon="11.483396150867463"><ele>135.0</ele><time>2026-04-18T08:33:39.001Z</time></trkpt><trkpt lat="45.4245375538633" lon="11.483233975257047"><ele>135.0</ele><time>2026-04-18T08:33:40.001Z</time></trkpt><trkpt lat="45.42474213390475" lon="11.483067464619632"><ele>136.33333333333334</ele><time>2026-04-18T08:33:41.001Z</time></trkpt><trkpt lat="45.42490206367344" lon="11.482902274670824"><ele>137.66666666666669</ele><time>2026-04-18T08:33:42.001Z</time></trkpt><trkpt lat="45.425058982173944" lon="11.482717968069146"><ele>139.0</ele><time>2026-04-18T08:33:43.001Z</time></trkpt><trkpt lat="45.4252321657338" lon="11.482521100384579"><ele>139.0</ele><time>2026-04-18T08:33:44.001Z</time></trkpt><trkpt lat="45.425401877177414" lon="11.482361783454513"><ele>139.0</ele><time>2026-04-18T08:33:45.001Z</time></trkpt><trkpt lat="45.42557716548812" lon="11.482264651511255"><ele>139.0</ele><time>2026-04-18T08:33:46.001Z</time></trkpt><trkpt lat="45.42572039974612" lon="11.482160152852824"><ele>139.5</ele><time>2026-04-18T08:33:47.001Z</time></trkpt><trkpt lat="45.42585769441171" lon="11.482091682108175"><ele>140.0</ele><time>2026-04-18T08:33:48.001Z</time></trkpt><trkpt lat="45.42599279998256" lon="11.482043101455597"><ele>140.5</ele><time>2026-04-18T08:33:49.001Z</time></trkpt><trkpt lat="45.42615233933981" lon="11.482039303230689"><ele>141.0</ele><time>2026-04-18T08:33:50.001Z</time></trkpt><trkpt lat="45.42633675032115" lon="11.482063750292186"><ele>146.33333333333334</ele><time>2026-04-18T08:33:51.001Z</time></trkpt><trkpt lat="45.426538577465074" lon="11.48205659820558"><ele>151.66666666666669</ele><time>2026-04-18T08:33:52.001Z</time></trkpt><trkpt lat="45.426764832538325" lon="11.481970041760468"><ele>157.0</ele><time>2026-04-18T08:33:53.001Z</time></trkpt><trkpt lat="45.42698330221752" lon="11.481842414929142"><ele>164.0</ele><time>2026-04-18T08:33:54.001Z</time></trkpt><trkpt lat="45.427165553067645" lon="11.481714942813435"><ele>171.0</ele><time>2026-04-18T08:33:55.001Z</time></trkpt><trkpt lat="45.427323374198174" lon="11.481573864179888"><ele>178.0</ele><time>2026-04-18T08:33:56.001Z</time></trkpt><trkpt lat="45.427458587229324" lon="11.481438024950139"><ele>178.0</ele><time>2026-04-18T08:33:57.001Z</time></trkpt><trkpt lat="45.427608843303595" lon="11.481353100478852"><ele>178.0</ele><time>2026-04-18T08:33:58Z</time></trkpt><trkpt lat="45.427759558680016" lon="11.481308724066617"><ele>178.0</ele><time>2026-04-18T08:33:59Z</time></trkpt><trkpt lat="45.42789401067891" lon="11.48132263837018"><ele>179.66666666666669</ele><time>2026-04-18T08:34:00Z</time></trkpt><trkpt lat="45.42803597818587" lon="11.481361105489222"><ele>181.33333333333334</ele><time>2026-04-18T08:34:01Z</time></trkpt><trkpt lat="45.428232713249145" lon="11.481408231679186"><ele>183.0</ele><time>2026-04-18T08:34:02Z</time></trkpt><trkpt lat="45.42841693906284" lon="11.481497597021995"><ele>183.0</ele><time>2026-04-18T08:34:03Z</time></trkpt><trkpt lat="45.42857288276569" lon="11.481561449971004"><ele>183.0</ele><time>2026-04-18T08:34:04Z</time></trkpt><trkpt lat="45.42871429230045" lon="11.481603003484166"><ele>183.0</ele><time>2026-04-18T08:34:05Z</time></trkpt><trkpt lat="45.42884038577582" lon="11.481641355662624"><ele>183.0</ele><time>2026-04-18T08:34:06Z</time></trkpt><trkpt lat="45.42894371982626" lon="11.481676851034692"><ele>183.0</ele><time>2026-04-18T08:34:07Z</time></trkpt><trkpt lat="45.42900251727013" lon="11.481727816257356"><ele>183.0</ele><time>2026-04-18T08:34:08Z</time></trkpt><trkpt lat="45.42904798203446" lon="11.481835399379014"><ele>183.0</ele><time>2026-04-18T08:34:10Z</time></trkpt><trkpt lat="45.42900410588898" lon="11.481926874713292"><ele>183.0</ele><time>2026-04-18T08:34:11Z</time></trkpt><trkpt lat="45.42892763440777" lon="11.481979762219874"><ele>183.0</ele><time>2026-04-18T08:34:12Z</time></trkpt><trkpt lat="45.428807180630564" lon="11.481928636584305"><ele>183.0</ele><time>2026-04-18T08:34:13Z</time></trkpt><trkpt lat="45.428647862088106" lon="11.481958938421185"><ele>183.0</ele><time>2026-04-18T08:34:14Z</time></trkpt><trkpt lat="45.4284614805206" lon="11.482018971367228"><ele>183.0</ele><time>2026-04-18T08:34:15Z</time></trkpt><trkpt lat="45.428298323642395" lon="11.482072852300313"><ele>183.0</ele><time>2026-04-18T08:34:16Z</time></trkpt><trkpt lat="45.42813915177458" lon="11.482155530457586"><ele>186.25</ele><time>2026-04-18T08:34:17Z</time></trkpt><trkpt lat="45.42800160566249" lon="11.482250207359364"><ele>189.5</ele><time>2026-04-18T08:34:18Z</time></trkpt><trkpt lat="45.42788311764176" lon="11.482350291193764"><ele>192.75</ele><time>2026-04-18T08:34:19Z</time></trkpt><trkpt lat="45.42777371109725" lon="11.482474926899634"><ele>196.0</ele><time>2026-04-18T08:34:20Z</time></trkpt><trkpt lat="45.42767179008249" lon="11.482603891254254"><ele>196.0</ele><time>2026-04-18T08:34:21Z</time></trkpt><trkpt lat="45.427567414507614" lon="11.482708290294072"><ele>196.0</ele><time>2026-04-18T08:34:22Z</time></trkpt><trkpt lat="45.42746605163312" lon="11.48281056782464"><ele>196.0</ele><time>2026-04-18T08:34:23Z</time></trkpt><trkpt lat="45.42736670780415" lon="11.48292261102192"><ele>196.0</ele><time>2026-04-18T08:34:24Z</time></trkpt><trkpt lat="45.42727440235453" lon="11.483031779669007"><ele>197.0</ele><time>2026-04-18T08:34:25Z</time></trkpt><trkpt lat="45.42717924468011" lon="11.483130356706813"><ele>198.0</ele><time>2026-04-18T08:34:26Z</time></trkpt><trkpt lat="45.42708275630267" lon="11.483229566832085"><ele>199.0</ele><time>2026-04-18T08:34:27Z</time></trkpt><trkpt lat="45.42699318560256" lon="11.483321534414687"><ele>200.0</ele><time>2026-04-18T08:34:28Z</time></trkpt><trkpt lat="45.426923897639185" lon="11.483391453191413"><ele>201.0</ele><time>2026-04-18T08:34:29Z</time></trkpt><trkpt lat="45.42687383524634" lon="11.483448120974376"><ele>201.0</ele><time>2026-04-18T08:34:30Z</time></trkpt><trkpt lat="45.42679980228571" lon="11.483571100767993"><ele>201.0</ele><time>2026-04-18T08:34:32Z</time></trkpt><trkpt lat="45.426792618650566" lon="11.483686429679572"><ele>201.0</ele><time>2026-04-18T08:34:33Z</time></trkpt><trkpt lat="45.42683260392544" lon="11.483793075697857"><ele>201.0</ele><time>2026-04-18T08:34:34Z</time></trkpt><trkpt lat="45.42691849750434" lon="11.483828185094238"><ele>201.0</ele><time>2026-04-18T08:34:35Z</time></trkpt><trkpt lat="45.42701484481199" lon="11.483831538924997"><ele>204.75</ele><time>2026-04-18T08:34:36Z</time></trkpt><trkpt lat="45.42713319220512" lon="11.483827877071857"><ele>208.5</ele><time>2026-04-18T08:34:37Z</time></trkpt><trkpt lat="45.4272473522078" lon="11.483838362616169"><ele>212.25</ele><time>2026-04-18T08:34:38Z</time></trkpt><trkpt lat="45.4273656717504" lon="11.483851602491942"><ele>216.0</ele><time>2026-04-18T08:34:39Z</time></trkpt><trkpt lat="45.42748093369148" lon="11.483852979880124"><ele>217.5</ele><time>2026-04-18T08:34:40Z</time></trkpt><trkpt lat="45.42760124627718" lon="11.483854411316646"><ele>219.0</ele><time>2026-04-18T08:34:41Z</time></trkpt><trkpt lat="45.427723783414116" lon="11.483860272704668"><ele>220.5</ele><time>2026-04-18T08:34:42Z</time></trkpt><trkpt lat="45.427846725408166" lon="11.483865306826722"><ele>222.0</ele><time>2026-04-18T08:34:43Z</time></trkpt><trkpt lat="45.42796265313367" lon="11.483869826202179"><ele>222.66666666666666</ele><time>2026-04-18T08:34:44Z</time></trkpt><trkpt lat="45.42804776694709" lon="11.483888050166708"><ele>223.33333333333331</ele><time>2026-04-18T08:34:45Z</time></trkpt><trkpt lat="45.42811799057261" lon="11.483936902473442"><ele>224.0</ele><time>2026-04-18T08:34:46Z</time></trkpt><trkpt lat="45.42816652528093" lon="11.484032008102876"><ele>224.66666666666666</ele><time>2026-04-18T08:34:47Z</time></trkpt><trkpt lat="45.42817804179454" lon="11.484164930296378"><ele>225.33333333333331</ele><time>2026-04-18T08:34:48Z</time></trkpt><trkpt lat="45.42813692370263" lon="11.484308335536152"><ele>226.0</ele><time>2026-04-18T08:34:49Z</time></trkpt><trkpt lat="45.42804229058145" lon="11.484445410991926"><ele>224.66666666666666</ele><time>2026-04-18T08:34:50Z</time></trkpt><trkpt lat="45.42791495957795" lon="11.484588813030646"><ele>223.33333333333331</ele><time>2026-04-18T08:34:51Z</time></trkpt><trkpt lat="45.42775512847325" lon="11.48477010785163"><ele>222.0</ele><time>2026-04-18T08:34:52Z</time></trkpt><trkpt lat="45.42756761134022" lon="11.484979373384242"><ele>228.0</ele><time>2026-04-18T08:34:53Z</time></trkpt><trkpt lat="45.42737387213016" lon="11.485203403694104"><ele>234.0</ele><time>2026-04-18T08:34:54Z</time></trkpt><trkpt lat="45.42714592906223" lon="11.485444036207578"><ele>240.5</ele><time>2026-04-18T08:34:55Z</time></trkpt><trkpt lat="45.42692540310793" lon="11.485658067768858"><ele>247.0</ele><time>2026-04-18T08:34:56Z</time></trkpt><trkpt lat="45.42672833868667" lon="11.485830829348291"><ele>247.0</ele><time>2026-04-18T08:34:57Z</time></trkpt><trkpt lat="45.42654583651525" lon="11.485976771043713"><ele>247.0</ele><time>2026-04-18T08:34:58Z</time></trkpt><trkpt lat="45.42636413312735" lon="11.48611337988662"><ele>247.0</ele><time>2026-04-18T08:34:59Z</time></trkpt><trkpt lat="45.426185420148286" lon="11.486238816992993"><ele>250.0</ele><time>2026-04-18T08:35:00Z</time></trkpt><trkpt lat="45.42602899889056" lon="11.486347423742446"><ele>253.0</ele><time>2026-04-18T08:35:01Z</time></trkpt><trkpt lat="45.425897220048164" lon="11.486444473038173"><ele>256.0</ele><time>2026-04-18T08:35:02Z</time></trkpt><trkpt lat="45.42577352012282" lon="11.486548939596286"><ele>256.0</ele><time>2026-04-18T08:35:03Z</time></trkpt><trkpt lat="45.425659245941326" lon="11.486715900379528"><ele>256.0</ele><time>2026-04-18T08:35:04Z</time></trkpt><trkpt lat="45.425543255012066" lon="11.486908879509068"><ele>256.0</ele><time>2026-04-18T08:35:05Z</time></trkpt><trkpt lat="45.425445857930896" lon="11.487110981922797"><ele>254.25</ele><time>2026-04-18T08:35:06Z</time></trkpt><trkpt lat="45.425363471995794" lon="11.487286657904587"><ele>252.5</ele><time>2026-04-18T08:35:07Z</time></trkpt><trkpt lat="45.425286741163035" lon="11.487445231673755"><ele>250.75</ele><time>2026-04-18T08:35:08Z</time></trkpt><trkpt lat="45.42522671035417" lon="11.48758603752909"><ele>249.0</ele><time>2026-04-18T08:35:09Z</time></trkpt><trkpt lat="45.42518749493781" lon="11.487728665344092"><ele>249.0</ele><time>2026-04-18T08:35:10Z</time></trkpt><trkpt lat="45.42518435399726" lon="11.487884592507147"><ele>249.0</ele><time>2026-04-18T08:35:11Z</time></trkpt><trkpt lat="45.42522841799803" lon="11.48807654534338"><ele>249.0</ele><time>2026-04-18T08:35:12.001Z</time></trkpt><trkpt lat="45.42529555642356" lon="11.488310869064051"><ele>249.0</ele><time>2026-04-18T08:35:13.001Z</time></trkpt><trkpt lat="45.4253610246474" lon="11.488541161195428"><ele>251.33333333333331</ele><time>2026-04-18T08:35:14.001Z</time></trkpt><trkpt lat="45.42542261358805" lon="11.488772442038979"><ele>253.66666666666666</ele><time>2026-04-18T08:35:15.001Z</time></trkpt><trkpt lat="45.42548116551761" lon="11.48900398621361"><ele>256.0</ele><time>2026-04-18T08:35:16.001Z</time></trkpt><trkpt lat="45.42553940472502" lon="11.489229979320527"><ele>259.3333333333333</ele><time>2026-04-18T08:35:17.001Z</time></trkpt><trkpt lat="45.42560441055792" lon="11.489454913878761"><ele>262.6666666666667</ele><time>2026-04-18T08:35:18.001Z</time></trkpt><trkpt lat="45.42569111455114" lon="11.489692924672967"><ele>266.0</ele><time>2026-04-18T08:35:19.001Z</time></trkpt><trkpt lat="45.42581619423615" lon="11.489957979743894"><ele>266.0</ele><time>2026-04-18T08:35:20.001Z</time></trkpt><trkpt lat="45.425944564485" lon="11.490239714915727"><ele>266.0</ele><time>2026-04-18T08:35:21.001Z</time></trkpt><trkpt lat="45.42604924005995" lon="11.490483080147266"><ele>266.0</ele><time>2026-04-18T08:35:22.001Z</time></trkpt><trkpt lat="45.426146117529555" lon="11.490693197535077"><ele>267.6666666666667</ele><time>2026-04-18T08:35:23.001Z</time></trkpt><trkpt lat="45.426233657592064" lon="11.490877312692286"><ele>269.3333333333333</ele><time>2026-04-18T08:35:24.001Z</time></trkpt><trkpt lat="45.4263255981339" lon="11.491048001251574"><ele>271.0</ele><time>2026-04-18T08:35:25.001Z</time></trkpt><trkpt lat="45.42644488061855" lon="11.491219485844514"><ele>273.66666666666663</ele><time>2026-04-18T08:35:26.001Z</time></trkpt><trkpt lat="45.426594827684696" lon="11.49140823649322"><ele>276.3333333333333</ele><time>2026-04-18T08:35:27.001Z</time></trkpt><trkpt lat="45.42676992427742" lon="11.491619295855452"><ele>279.0</ele><time>2026-04-18T08:35:28.001Z</time></trkpt><trkpt lat="45.42693921721635" lon="11.491817728904026"><ele>279.0</ele><time>2026-04-18T08:35:29.001Z</time></trkpt><trkpt lat="45.42710590511725" lon="11.492001598303712"><ele>279.0</ele><time>2026-04-18T08:35:30.001Z</time></trkpt><trkpt lat="45.42725935618572" lon="11.4921796277276"><ele>279.0</ele><time>2026-04-18T08:35:31.001Z</time></trkpt><trkpt lat="45.42739528590304" lon="11.492337629958596"><ele>280.6666666666667</ele><time>2026-04-18T08:35:32.001Z</time></trkpt><trkpt lat="45.42752829057256" lon="11.492489545963997"><ele>282.33333333333337</ele><time>2026-04-18T08:35:33.001Z</time></trkpt><trkpt lat="45.42766017417845" lon="11.492640465669115"><ele>284.0</ele><time>2026-04-18T08:35:34.001Z</time></trkpt><trkpt lat="45.42778869788207" lon="11.492788597049504"><ele>284.0</ele><time>2026-04-18T08:35:35.001Z</time></trkpt><trkpt lat="45.427909555126206" lon="11.492921305857953"><ele>284.0</ele><time>2026-04-18T08:35:36.001Z</time></trkpt><trkpt lat="45.4280348953338" lon="11.493049314768939"><ele>284.0</ele><time>2026-04-18T08:35:37.001Z</time></trkpt><trkpt lat="45.428157968340805" lon="11.493215305054045"><ele>285.33333333333337</ele><time>2026-04-18T08:35:38.001Z</time></trkpt><trkpt lat="45.42830425992504" lon="11.493351328997012"><ele>286.6666666666667</ele><time>2026-04-18T08:35:39.001Z</time></trkpt><trkpt lat="45.42841891397585" lon="11.493506751595177"><ele>288.0</ele><time>2026-04-18T08:35:40.001Z</time></trkpt><trkpt lat="45.42854415800967" lon="11.493622922360712"><ele>286.25</ele><time>2026-04-18T08:35:41.001Z</time></trkpt><trkpt lat="45.428639170515275" lon="11.493771970219443"><ele>284.5</ele><time>2026-04-18T08:35:42.001Z</time></trkpt><trkpt lat="45.42871407519962" lon="11.493946015261846"><ele>282.75</ele><time>2026-04-18T08:35:43.001Z</time></trkpt><trkpt lat="45.42875585339009" lon="11.494128931988191"><ele>281.0</ele><time>2026-04-18T08:35:44.001Z</time></trkpt><trkpt lat="45.42876766496256" lon="11.494308606127388"><ele>281.0</ele><time>2026-04-18T08:35:45.001Z</time></trkpt><trkpt lat="45.428755111707616" lon="11.494501740466504"><ele>281.0</ele><time>2026-04-18T08:35:46.001Z</time></trkpt><trkpt lat="45.4287007839432" lon="11.494699590500758"><ele>281.0</ele><time>2026-04-18T08:35:47.001Z</time></trkpt><trkpt lat="45.42863204311945" lon="11.494893472761554"><ele>281.0</ele><time>2026-04-18T08:35:48.001Z</time></trkpt><trkpt lat="45.428569871138954" lon="11.4950590227561"><ele>282.0</ele><time>2026-04-18T08:35:49.001Z</time></trkpt><trkpt lat="45.428497854545014" lon="11.495192013038382"><ele>283.0</ele><time>2026-04-18T08:35:50.001Z</time></trkpt><trkpt lat="45.42843713640017" lon="11.495322417749442"><ele>284.0</ele><time>2026-04-18T08:35:51.001Z</time></trkpt><trkpt lat="45.42839506588758" lon="11.49545291959753"><ele>285.0</ele><time>2026-04-18T08:35:52.001Z</time></trkpt><trkpt lat="45.4283820404541" lon="11.495594997792088"><ele>286.0</ele><time>2026-04-18T08:35:53.001Z</time></trkpt><trkpt lat="45.42840844588414" lon="11.49572257477261"><ele>286.2</ele><time>2026-04-18T08:35:54.001Z</time></trkpt><trkpt lat="45.42847192607924" lon="11.49582416183799"><ele>286.40000000000003</ele><time>2026-04-18T08:35:55.001Z</time></trkpt><trkpt lat="45.42856856181622" lon="11.49588611332115"><ele>286.6</ele><time>2026-04-18T08:35:56.001Z</time></trkpt><trkpt lat="45.42867292601604" lon="11.495908836962426"><ele>286.8</ele><time>2026-04-18T08:35:57.001Z</time></trkpt><trkpt lat="45.42878766421056" lon="11.49587499438335"><ele>287.0</ele><time>2026-04-18T08:35:58.001Z</time></trkpt><trkpt lat="45.42889041178448" lon="11.49582663274113"><ele>286.4</ele><time>2026-04-18T08:35:59.001Z</time></trkpt><trkpt lat="45.428999989936656" lon="11.495788104120633"><ele>285.79999999999995</ele><time>2026-04-18T08:36:00.001Z</time></trkpt><trkpt lat="45.42910834988044" lon="11.49575036296507"><ele>285.2</ele><time>2026-04-18T08:36:01.001Z</time></trkpt><trkpt lat="45.42920911361377" lon="11.495718461756006"><ele>284.59999999999997</ele><time>2026-04-18T08:36:02.001Z</time></trkpt><trkpt lat="45.429292073345316" lon="11.495683963326659"><ele>284.0</ele><time>2026-04-18T08:36:03.001Z</time></trkpt><trkpt lat="45.42938340064436" lon="11.495678837529164"><ele>284.0</ele><time>2026-04-18T08:36:04Z</time></trkpt><trkpt lat="45.42946696094228" lon="11.495660367637267"><ele>284.0</ele><time>2026-04-18T08:36:05Z</time></trkpt><trkpt lat="45.42953069329843" lon="11.495672595417282"><ele>284.0</ele><time>2026-04-18T08:36:06Z</time></trkpt><trkpt lat="45.42958294704592" lon="11.495724800927862"><ele>284.0</ele><time>2026-04-18T08:36:07Z</time></trkpt><trkpt lat="45.42960478310967" lon="11.495835840048207"><ele>284.0</ele><time>2026-04-18T08:36:08Z</time></trkpt><trkpt lat="45.4295617997265" lon="11.495955560536022"><ele>284.0</ele><time>2026-04-18T08:36:09Z</time></trkpt><trkpt lat="45.42949339413346" lon="11.49609334482746"><ele>281.0</ele><time>2026-04-18T08:36:10Z</time></trkpt><trkpt lat="45.429423811606796" lon="11.496287854894778"><ele>278.0</ele><time>2026-04-18T08:36:11Z</time></trkpt><trkpt lat="45.42935146782119" lon="11.496496397521907"><ele>275.0</ele><time>2026-04-18T08:36:12Z</time></trkpt><trkpt lat="45.42928801166829" lon="11.496708019353328"><ele>275.0</ele><time>2026-04-18T08:36:13Z</time></trkpt><trkpt lat="45.429247760992375" lon="11.496907321647296"><ele>275.0</ele><time>2026-04-18T08:36:14Z</time></trkpt><trkpt lat="45.429207805424575" lon="11.497102335006172"><ele>275.0</ele><time>2026-04-18T08:36:15Z</time></trkpt><trkpt lat="45.42915911046779" lon="11.49731786813503"><ele>275.0</ele><time>2026-04-18T08:36:16Z</time></trkpt><trkpt lat="45.42909180688348" lon="11.497560601733513"><ele>274.6666666666667</ele><time>2026-04-18T08:36:17Z</time></trkpt><trkpt lat="45.42900698772546" lon="11.497814423401483"><ele>274.3333333333333</ele><time>2026-04-18T08:36:18Z</time></trkpt><trkpt lat="45.428903645423354" lon="11.49805684381123"><ele>274.0</ele><time>2026-04-18T08:36:19Z</time></trkpt><trkpt lat="45.428791561079414" lon="11.49828978339527"><ele>270.0</ele><time>2026-04-18T08:36:20Z</time></trkpt><trkpt lat="45.42867768494327" lon="11.498534133485132"><ele>266.0</ele><time>2026-04-18T08:36:21Z</time></trkpt><trkpt lat="45.428573657861705" lon="11.498759788572487"><ele>262.0</ele><time>2026-04-18T08:36:22Z</time></trkpt><trkpt lat="45.428492294689036" lon="11.498978860881246"><ele>262.0</ele><time>2026-04-18T08:36:23Z</time></trkpt><trkpt lat="45.42839106089346" lon="11.499155877223014"><ele>262.0</ele><time>2026-04-18T08:36:24Z</time></trkpt><trkpt lat="45.42831017239231" lon="11.499341215287338"><ele>262.0</ele><time>2026-04-18T08:36:25Z</time></trkpt><trkpt lat="45.42824786021184" lon="11.49954270546485"><ele>263.5</ele><time>2026-04-18T08:36:26Z</time></trkpt><trkpt lat="45.42821259817437" lon="11.499753162478036"><ele>265.0</ele><time>2026-04-18T08:36:27Z</time></trkpt><trkpt lat="45.4282086389466" lon="11.499942159060863"><ele>266.5</ele><time>2026-04-18T08:36:28Z</time></trkpt><trkpt lat="45.42822294434212" lon="11.500098712068503"><ele>268.0</ele><time>2026-04-18T08:36:29Z</time></trkpt><trkpt lat="45.42827461363068" lon="11.500265767410808"><ele>267.25</ele><time>2026-04-18T08:36:30Z</time></trkpt><trkpt lat="45.42834694653261" lon="11.500427552548398"><ele>266.5</ele><time>2026-04-18T08:36:31Z</time></trkpt><trkpt lat="45.428421790243995" lon="11.50057439045271"><ele>265.75</ele><time>2026-04-18T08:36:32Z</time></trkpt><trkpt lat="45.42849804700559" lon="11.500703291511895"><ele>265.0</ele><time>2026-04-18T08:36:33Z</time></trkpt><trkpt lat="45.42858142315108" lon="11.500805761178308"><ele>265.0</ele><time>2026-04-18T08:36:34Z</time></trkpt><trkpt lat="45.428640596302685" lon="11.500933381162609"><ele>265.0</ele><time>2026-04-18T08:36:35Z</time></trkpt><trkpt lat="45.42870604142482" lon="11.50106318784662"><ele>265.0</ele><time>2026-04-18T08:36:36Z</time></trkpt><trkpt lat="45.4288047556716" lon="11.50111768689947"><ele>265.0</ele><time>2026-04-18T08:36:37Z</time></trkpt><trkpt lat="45.42889756877729" lon="11.501152318591666"><ele>265.0</ele><time>2026-04-18T08:36:38Z</time></trkpt><trkpt lat="45.428985499688366" lon="11.501188684787094"><ele>266.0</ele><time>2026-04-18T08:36:39Z</time></trkpt><trkpt lat="45.42906775593634" lon="11.501226297334723"><ele>267.0</ele><time>2026-04-18T08:36:40Z</time></trkpt><trkpt lat="45.42913978584497" lon="11.501269942670554"><ele>268.0</ele><time>2026-04-18T08:36:41Z</time></trkpt><trkpt lat="45.42918302594725" lon="11.50134209014591"><ele>269.0</ele><time>2026-04-18T08:36:42Z</time></trkpt><trkpt lat="45.42918907451726" lon="11.501435776796324"><ele>270.0</ele><time>2026-04-18T08:36:43Z</time></trkpt><trkpt lat="45.42905753881797" lon="11.5016269353739"><ele>270.0</ele><time>2026-04-18T08:36:45Z</time></trkpt><trkpt lat="45.42893458366695" lon="11.501704825388737"><ele>270.0</ele><time>2026-04-18T08:36:46Z</time></trkpt><trkpt lat="45.42881599550417" lon="11.501767045171098"><ele>270.0</ele><time>2026-04-18T08:36:47Z</time></trkpt><trkpt lat="45.42869624242182" lon="11.50185120488203"><ele>270.0</ele><time>2026-04-18T08:36:48Z</time></trkpt><trkpt lat="45.428579343921925" lon="11.501947442867484"><ele>270.0</ele><time>2026-04-18T08:36:49Z</time></trkpt><trkpt lat="45.42847170371966" lon="11.502054482225473"><ele>270.0</ele><time>2026-04-18T08:36:50Z</time></trkpt><trkpt lat="45.42837407383212" lon="11.50216939899657"><ele>270.0</ele><time>2026-04-18T08:36:51Z</time></trkpt><trkpt lat="45.42826977454517" lon="11.502267680280944"><ele>270.0</ele><time>2026-04-18T08:36:52Z</time></trkpt><trkpt lat="45.42815986570089" lon="11.502337269715662"><ele>272.2</ele><time>2026-04-18T08:36:53Z</time></trkpt><trkpt lat="45.42805381640447" lon="11.502350710809793"><ele>274.4</ele><time>2026-04-18T08:36:54Z</time></trkpt><trkpt lat="45.4279570321731" lon="11.502283578216765"><ele>276.6</ele><time>2026-04-18T08:36:55Z</time></trkpt><trkpt lat="45.427873728923494" lon="11.50219395442267"><ele>278.8</ele><time>2026-04-18T08:36:56Z</time></trkpt><trkpt lat="45.427813843337276" lon="11.502105566514107"><ele>281.0</ele><time>2026-04-18T08:36:57Z</time></trkpt><trkpt lat="45.42774976637725" lon="11.502030751096004"><ele>281.0</ele><time>2026-04-18T08:36:58Z</time></trkpt><trkpt lat="45.42768228180464" lon="11.502003666403354"><ele>281.0</ele><time>2026-04-18T08:36:59Z</time></trkpt><trkpt lat="45.42760500963072" lon="11.502126001285156"><ele>281.0</ele><time>2026-04-18T08:37:01Z</time></trkpt><trkpt lat="45.42763245194212" lon="11.50223558766202"><ele>281.0</ele><time>2026-04-18T08:37:03Z</time></trkpt><trkpt lat="45.42770981015827" lon="11.502379591571321"><ele>281.0</ele><time>2026-04-18T08:37:04Z</time></trkpt><trkpt lat="45.4277904496471" lon="11.502541992752466"><ele>281.2</ele><time>2026-04-18T08:37:05Z</time></trkpt><trkpt lat="45.427861177004615" lon="11.502660595022133"><ele>281.40000000000003</ele><time>2026-04-18T08:37:06Z</time></trkpt><trkpt lat="45.42794910221014" lon="11.502748277894842"><ele>281.6</ele><time>2026-04-18T08:37:07Z</time></trkpt><trkpt lat="45.428057046420165" lon="11.50281778226424"><ele>281.8</ele><time>2026-04-18T08:37:08Z</time></trkpt><trkpt lat="45.42815891879097" lon="11.502864204040561"><ele>282.0</ele><time>2026-04-18T08:37:09Z</time></trkpt><trkpt lat="45.42824355947375" lon="11.502850394754603"><ele>282.8333333333333</ele><time>2026-04-18T08:37:10Z</time></trkpt><trkpt lat="45.42829994166646" lon="11.502801951182672"><ele>283.6666666666667</ele><time>2026-04-18T08:37:11Z</time></trkpt><trkpt lat="45.42835477075098" lon="11.502911862038399"><ele>284.5</ele><time>2026-04-18T08:37:13.001Z</time></trkpt><trkpt lat="45.42831535484483" lon="11.502992217867032"><ele>285.33333333333337</ele><time>2026-04-18T08:37:14.001Z</time></trkpt><trkpt lat="45.428232132194346" lon="11.503030766261462"><ele>286.1666666666667</ele><time>2026-04-18T08:37:15.001Z</time></trkpt><trkpt lat="45.428118874944445" lon="11.503006142102914"><ele>287.0</ele><time>2026-04-18T08:37:16.001Z</time></trkpt><trkpt lat="45.42801460942027" lon="11.502986330063953"><ele>286.6</ele><time>2026-04-18T08:37:17.001Z</time></trkpt><trkpt lat="45.4279020092711" lon="11.50304597822845"><ele>286.2</ele><time>2026-04-18T08:37:19.001Z</time></trkpt><trkpt lat="45.42784212138539" lon="11.50315189766421"><ele>285.8</ele><time>2026-04-18T08:37:20.001Z</time></trkpt><trkpt lat="45.42777357705567" lon="11.503284139468084"><ele>285.4</ele><time>2026-04-18T08:37:21.001Z</time></trkpt><trkpt lat="45.42773407706678" lon="11.503401482686792"><ele>285.0</ele><time>2026-04-18T08:37:22.001Z</time></trkpt><trkpt lat="45.427691828445155" lon="11.503499516320357"><ele>285.0</ele><time>2026-04-18T08:37:23.001Z</time></trkpt><trkpt lat="45.42765711214803" lon="11.503586091889984"><ele>285.0</ele><time>2026-04-18T08:37:24.001Z</time></trkpt><trkpt lat="45.427643678045" lon="11.503687917506985"><ele>285.0</ele><time>2026-04-18T08:37:25.001Z</time></trkpt><trkpt lat="45.427660483786234" lon="11.503800708077208"><ele>285.0</ele><time>2026-04-18T08:37:26.001Z</time></trkpt><trkpt lat="45.427706801560696" lon="11.503902056909764"><ele>285.0</ele><time>2026-04-18T08:37:27.001Z</time></trkpt><trkpt lat="45.42778068346536" lon="11.503965029002911"><ele>285.0</ele><time>2026-04-18T08:37:28.001Z</time></trkpt><trkpt lat="45.427915184478096" lon="11.503997835235587"><ele>290.0</ele><time>2026-04-18T08:37:29.001Z</time></trkpt><trkpt lat="45.42807036526381" lon="11.503991599797661"><ele>295.0</ele><time>2026-04-18T08:37:30.001Z</time></trkpt><trkpt lat="45.42821054185259" lon="11.503991206949106"><ele>300.0</ele><time>2026-04-18T08:37:31.001Z</time></trkpt><trkpt lat="45.42832824619279" lon="11.504006720452603"><ele>305.0</ele><time>2026-04-18T08:37:32.001Z</time></trkpt><trkpt lat="45.428435726669434" lon="11.504058033972266"><ele>305.0</ele><time>2026-04-18T08:37:33.001Z</time></trkpt><trkpt lat="45.42857149445389" lon="11.50416211636344"><ele>305.0</ele><time>2026-04-18T08:37:34.001Z</time></trkpt><trkpt lat="45.428731986869735" lon="11.50433681259806"><ele>305.0</ele><time>2026-04-18T08:37:35.001Z</time></trkpt><trkpt lat="45.42887148145429" lon="11.504453414292357"><ele>306.0</ele><time>2026-04-18T08:37:36.001Z</time></trkpt><trkpt lat="45.42901537882667" lon="11.504550981376822"><ele>307.0</ele><time>2026-04-18T08:37:37.001Z</time></trkpt><trkpt lat="45.42914496663134" lon="11.504626700849053"><ele>308.0</ele><time>2026-04-18T08:37:38.001Z</time></trkpt><trkpt lat="45.429262104896495" lon="11.504688362317175"><ele>309.0</ele><time>2026-04-18T08:37:39.001Z</time></trkpt><trkpt lat="45.429370093874574" lon="11.504728241572504"><ele>310.4</ele><time>2026-04-18T08:37:40.001Z</time></trkpt><trkpt lat="45.42949289074903" lon="11.50471520739672"><ele>311.79999999999995</ele><time>2026-04-18T08:37:41.001Z</time></trkpt><trkpt lat="45.429595379762645" lon="11.504673862204957"><ele>313.20000000000005</ele><time>2026-04-18T08:37:42.001Z</time></trkpt><trkpt lat="45.42967963644958" lon="11.504668214670154"><ele>314.6</ele><time>2026-04-18T08:37:43.001Z</time></trkpt><trkpt lat="45.42975697445195" lon="11.504737085505814"><ele>316.0</ele><time>2026-04-18T08:37:44.001Z</time></trkpt><trkpt lat="45.42982639255889" lon="11.504867294611664"><ele>317.3333333333333</ele><time>2026-04-18T08:37:45.001Z</time></trkpt><trkpt lat="45.42984292659922" lon="11.505076119487764"><ele>318.6666666666667</ele><time>2026-04-18T08:37:46.001Z</time></trkpt><trkpt lat="45.42991756124252" lon="11.50528787049879"><ele>320.0</ele><time>2026-04-18T08:37:47.001Z</time></trkpt><trkpt lat="45.429953338467755" lon="11.50550828406534"><ele>321.75</ele><time>2026-04-18T08:37:48.001Z</time></trkpt><trkpt lat="45.429990910832956" lon="11.505701420889483"><ele>323.5</ele><time>2026-04-18T08:37:49.001Z</time></trkpt><trkpt lat="45.4300217144065" lon="11.50589427550922"><ele>325.25</ele><time>2026-04-18T08:37:50.001Z</time></trkpt><trkpt lat="45.43005915239603" lon="11.506091183756796"><ele>327.0</ele><time>2026-04-18T08:37:51.001Z</time></trkpt><trkpt lat="45.430058597765246" lon="11.506307035073284"><ele>328.5</ele><time>2026-04-18T08:37:52.001Z</time></trkpt><trkpt lat="45.43006153669625" lon="11.50652071015296"><ele>330.0</ele><time>2026-04-18T08:37:53.001Z</time></trkpt><trkpt lat="45.43006103531936" lon="11.506721209979792"><ele>331.5</ele><time>2026-04-18T08:37:54.001Z</time></trkpt><trkpt lat="45.43005710598352" lon="11.50691224351652"><ele>333.0</ele><time>2026-04-18T08:37:55.001Z</time></trkpt><trkpt lat="45.43009938406538" lon="11.507059706778286"><ele>332.25</ele><time>2026-04-18T08:37:56.001Z</time></trkpt><trkpt lat="45.430191163017405" lon="11.50716670595284"><ele>331.5</ele><time>2026-04-18T08:37:57.001Z</time></trkpt><trkpt lat="45.4303120785324" lon="11.50726654878172"><ele>330.75</ele><time>2026-04-18T08:37:58.001Z</time></trkpt><trkpt lat="45.43044582834271" lon="11.507385085997651"><ele>330.0</ele><time>2026-04-18T08:37:59.001Z</time></trkpt><trkpt lat="45.43057594568818" lon="11.507501500596742"><ele>335.6666666666667</ele><time>2026-04-18T08:38:00.001Z</time></trkpt><trkpt lat="45.43070894884245" lon="11.507613356676062"><ele>341.33333333333337</ele><time>2026-04-18T08:38:01.001Z</time></trkpt><trkpt lat="45.43084704227686" lon="11.50769776420485"><ele>347.0</ele><time>2026-04-18T08:38:02.001Z</time></trkpt><trkpt lat="45.43099590791018" lon="11.507760056598183"><ele>347.0</ele><time>2026-04-18T08:38:03.001Z</time></trkpt><trkpt lat="45.431098545251594" lon="11.507844679123911"><ele>347.0</ele><time>2026-04-18T08:38:04.001Z</time></trkpt><trkpt lat="45.43119318481141" lon="11.507930952048023"><ele>347.0</ele><time>2026-04-18T08:38:05.001Z</time></trkpt><trkpt lat="45.431286463639886" lon="11.508042525400397"><ele>347.0</ele><time>2026-04-18T08:38:06.001Z</time></trkpt><trkpt lat="45.43137556656847" lon="11.508161163479839"><ele>347.6</ele><time>2026-04-18T08:38:07.001Z</time></trkpt><trkpt lat="45.43145098635643" lon="11.508268397562828"><ele>348.20000000000005</ele><time>2026-04-18T08:38:08.001Z</time></trkpt><trkpt lat="45.431512032858386" lon="11.50836937711446"><ele>348.8</ele><time>2026-04-18T08:38:09.001Z</time></trkpt><trkpt lat="45.431552431328335" lon="11.508502041683222"><ele>349.4</ele><time>2026-04-18T08:38:10Z</time></trkpt><trkpt lat="45.43158642622339" lon="11.508666679007325"><ele>350.0</ele><time>2026-04-18T08:38:11Z</time></trkpt><trkpt lat="45.43160315338759" lon="11.50883655110704"><ele>350.4</ele><time>2026-04-18T08:38:12Z</time></trkpt><trkpt lat="45.43161208322565" lon="11.508991981675548"><ele>350.8</ele><time>2026-04-18T08:38:13Z</time></trkpt><trkpt lat="45.43162049039296" lon="11.509139938671659"><ele>351.20000000000005</ele><time>2026-04-18T08:38:14Z</time></trkpt><trkpt lat="45.43164716773171" lon="11.50927603742242"><ele>351.6</ele><time>2026-04-18T08:38:15Z</time></trkpt><trkpt lat="45.43165593630345" lon="11.509406788328608"><ele>352.0</ele><time>2026-04-18T08:38:16Z</time></trkpt><trkpt lat="45.4316873230508" lon="11.50952063542147"><ele>352.75</ele><time>2026-04-18T08:38:17Z</time></trkpt><trkpt lat="45.43171632651345" lon="11.509645418836124"><ele>353.5</ele><time>2026-04-18T08:38:18Z</time></trkpt><trkpt lat="45.431856108038616" lon="11.509735438958435"><ele>354.25</ele><time>2026-04-18T08:38:19Z</time></trkpt><trkpt lat="45.4319316919718" lon="11.509910364707165"><ele>355.0</ele><time>2026-04-18T08:38:20Z</time></trkpt><trkpt lat="45.43199364551204" lon="11.510091768187406"><ele>355.0</ele><time>2026-04-18T08:38:21Z</time></trkpt><trkpt lat="45.432086123304494" lon="11.510252069644837"><ele>355.0</ele><time>2026-04-18T08:38:22Z</time></trkpt><trkpt lat="45.43220175658511" lon="11.510323982353063"><ele>355.0</ele><time>2026-04-18T08:38:23Z</time></trkpt><trkpt lat="45.432286571580185" lon="11.510409242188302"><ele>355.0</ele><time>2026-04-18T08:38:24Z</time></trkpt><trkpt lat="45.43237994272243" lon="11.510485704727481"><ele>356.2</ele><time>2026-04-18T08:38:25Z</time></trkpt><trkpt lat="45.432473984740334" lon="11.510562716599416"><ele>357.4</ele><time>2026-04-18T08:38:26Z</time></trkpt><trkpt lat="45.43258681332599" lon="11.510560615210116"><ele>358.6</ele><time>2026-04-18T08:38:27Z</time></trkpt><trkpt lat="45.43266309502111" lon="11.51061008847319"><ele>359.8</ele><time>2026-04-18T08:38:28Z</time></trkpt><trkpt lat="45.43275624664555" lon="11.510618028343073"><ele>361.0</ele><time>2026-04-18T08:38:29Z</time></trkpt><trkpt lat="45.432863289018464" lon="11.510563251065216"><ele>361.0</ele><time>2026-04-18T08:38:30Z</time></trkpt><trkpt lat="45.43296440259187" lon="11.510465592641763"><ele>361.0</ele><time>2026-04-18T08:38:31Z</time></trkpt><trkpt lat="45.433071987869006" lon="11.510347710275495"><ele>361.0</ele><time>2026-04-18T08:38:32Z</time></trkpt><trkpt lat="45.433185466868416" lon="11.510186129636486"><ele>361.0</ele><time>2026-04-18T08:38:33Z</time></trkpt><trkpt lat="45.43328849283947" lon="11.510002147087627"><ele>360.75</ele><time>2026-04-18T08:38:34Z</time></trkpt><trkpt lat="45.43339093492338" lon="11.509833437100514"><ele>360.5</ele><time>2026-04-18T08:38:35Z</time></trkpt><trkpt lat="45.433491155969975" lon="11.509677699868705"><ele>360.25</ele><time>2026-04-18T08:38:36Z</time></trkpt><trkpt lat="45.43358732527446" lon="11.50954118301933"><ele>360.0</ele><time>2026-04-18T08:38:37Z</time></trkpt><trkpt lat="45.433693641614745" lon="11.509427635631862"><ele>356.0</ele><time>2026-04-18T08:38:38Z</time></trkpt><trkpt lat="45.4338212808611" lon="11.509368274339746"><ele>352.0</ele><time>2026-04-18T08:38:39Z</time></trkpt><trkpt lat="45.43397675996092" lon="11.509316413214794"><ele>348.0</ele><time>2026-04-18T08:38:40Z</time></trkpt><trkpt lat="45.43415007804106" lon="11.509316017286016"><ele>348.0</ele><time>2026-04-18T08:38:41Z</time></trkpt><trkpt lat="45.43430209749362" lon="11.50933274870303"><ele>348.0</ele><time>2026-04-18T08:38:42Z</time></trkpt><trkpt lat="45.434464107679034" lon="11.509335117767543"><ele>348.0</ele><time>2026-04-18T08:38:43Z</time></trkpt><trkpt lat="45.43461044025486" lon="11.509316813962572"><ele>345.0</ele><time>2026-04-18T08:38:44Z</time></trkpt><trkpt lat="45.43477053591345" lon="11.50928278861847"><ele>342.0</ele><time>2026-04-18T08:38:45Z</time></trkpt><trkpt lat="45.43493219190013" lon="11.50930138745728"><ele>339.0</ele><time>2026-04-18T08:38:46Z</time></trkpt><trkpt lat="45.435096459691174" lon="11.509398580222454"><ele>339.0</ele><time>2026-04-18T08:38:47Z</time></trkpt><trkpt lat="45.435236845580114" lon="11.509505272163377"><ele>339.0</ele><time>2026-04-18T08:38:48Z</time></trkpt><trkpt lat="45.4353787715998" lon="11.509591676554749"><ele>339.0</ele><time>2026-04-18T08:38:49Z</time></trkpt><trkpt lat="45.435533777070056" lon="11.509608136711812"><ele>338.5</ele><time>2026-04-18T08:38:50Z</time></trkpt><trkpt lat="45.43569086493191" lon="11.509570028147355"><ele>338.0</ele><time>2026-04-18T08:38:51Z</time></trkpt><trkpt lat="45.4358268865916" lon="11.509540828670621"><ele>337.5</ele><time>2026-04-18T08:38:52Z</time></trkpt><trkpt lat="45.43595417741654" lon="11.50956813022628"><ele>337.0</ele><time>2026-04-18T08:38:53Z</time></trkpt><trkpt lat="45.43606328794936" lon="11.509653873021712"><ele>336.5</ele><time>2026-04-18T08:38:54Z</time></trkpt><trkpt lat="45.43616680576726" lon="11.509782952798743"><ele>336.0</ele><time>2026-04-18T08:38:55Z</time></trkpt><trkpt lat="45.43627268844415" lon="11.509936772315912"><ele>335.5</ele><time>2026-04-18T08:38:56Z</time></trkpt><trkpt lat="45.43638314893522" lon="11.510081364825558"><ele>335.0</ele><time>2026-04-18T08:38:57Z</time></trkpt><trkpt lat="45.43646665868367" lon="11.510229761723853"><ele>335.0</ele><time>2026-04-18T08:38:58Z</time></trkpt><trkpt lat="45.43655837256553" lon="11.510402845303743"><ele>335.0</ele><time>2026-04-18T08:38:59Z</time></trkpt><trkpt lat="45.43662001380143" lon="11.510642406169897"><ele>335.0</ele><time>2026-04-18T08:39:00Z</time></trkpt><trkpt lat="45.43665314056415" lon="11.510914132249255"><ele>333.33333333333337</ele><time>2026-04-18T08:39:01Z</time></trkpt><trkpt lat="45.436680533490524" lon="11.511177805319651"><ele>331.6666666666667</ele><time>2026-04-18T08:39:02Z</time></trkpt><trkpt lat="45.43673966548446" lon="11.511365741553389"><ele>330.0</ele><time>2026-04-18T08:39:03Z</time></trkpt><trkpt lat="45.43683975176603" lon="11.511535063277304"><ele>330.0</ele><time>2026-04-18T08:39:04Z</time></trkpt><trkpt lat="45.436985953666145" lon="11.511694700923195"><ele>330.0</ele><time>2026-04-18T08:39:05Z</time></trkpt><trkpt lat="45.43713838619038" lon="11.511859896660447"><ele>330.0</ele><time>2026-04-18T08:39:06Z</time></trkpt><trkpt lat="45.43725068683594" lon="11.512034858311507"><ele>328.75</ele><time>2026-04-18T08:39:07Z</time></trkpt><trkpt lat="45.437342118922594" lon="11.512176115039066"><ele>327.5</ele><time>2026-04-18T08:39:08Z</time></trkpt><trkpt lat="45.4374488986843" lon="11.512268219941445"><ele>326.25</ele><time>2026-04-18T08:39:09Z</time></trkpt><trkpt lat="45.43759775495543" lon="11.512312029663818"><ele>325.0</ele><time>2026-04-18T08:39:10Z</time></trkpt><trkpt lat="45.437777104218334" lon="11.51232299786875"><ele>326.3333333333333</ele><time>2026-04-18T08:39:11Z</time></trkpt><trkpt lat="45.43797327817797" lon="11.512302167346547"><ele>327.6666666666667</ele><time>2026-04-18T08:39:12Z</time></trkpt><trkpt lat="45.438176585655654" lon="11.512261170387976"><ele>329.0</ele><time>2026-04-18T08:39:13Z</time></trkpt><trkpt lat="45.43834286270406" lon="11.512256154412148"><ele>329.0</ele><time>2026-04-18T08:39:14Z</time></trkpt><trkpt lat="45.43848734885994" lon="11.512268591808162"><ele>329.0</ele><time>2026-04-18T08:39:15Z</time></trkpt><trkpt lat="45.43862675873018" lon="11.512331203555862"><ele>329.0</ele><time>2026-04-18T08:39:16Z</time></trkpt><trkpt lat="45.43877307549546" lon="11.512460800251791"><ele>333.33333333333337</ele><time>2026-04-18T08:39:17Z</time></trkpt><trkpt lat="45.438932124003564" lon="11.512615481204104"><ele>337.6666666666667</ele><time>2026-04-18T08:39:18Z</time></trkpt><trkpt lat="45.43910266291566" lon="11.51272921236318"><ele>342.0</ele><time>2026-04-18T08:39:19Z</time></trkpt><trkpt lat="45.439258454842246" lon="11.512808871822308"><ele>342.0</ele><time>2026-04-18T08:39:20Z</time></trkpt><trkpt lat="45.439387318320556" lon="11.512866746957668"><ele>342.0</ele><time>2026-04-18T08:39:21Z</time></trkpt><trkpt lat="45.43951404980896" lon="11.512938446888885"><ele>342.0</ele><time>2026-04-18T08:39:22Z</time></trkpt><trkpt lat="45.439654990542685" lon="11.512981199699993"><ele>342.0</ele><time>2026-04-18T08:39:23Z</time></trkpt><trkpt lat="45.43981749754535" lon="11.512981711663109"><ele>342.3333333333333</ele><time>2026-04-18T08:39:24Z</time></trkpt><trkpt lat="45.44000509137795" lon="11.512907538256824"><ele>342.66666666666663</ele><time>2026-04-18T08:39:25Z</time></trkpt><trkpt lat="45.44021237195751" lon="11.512783178929627"><ele>343.0</ele><time>2026-04-18T08:39:26.001Z</time></trkpt><trkpt lat="45.440440756820955" lon="11.512603406984534"><ele>348.5</ele><time>2026-04-18T08:39:27.001Z</time></trkpt><trkpt lat="45.440660554137736" lon="11.512468239402885"><ele>354.0</ele><time>2026-04-18T08:39:28.001Z</time></trkpt><trkpt lat="45.440877827622174" lon="11.512348928928244"><ele>354.0</ele><time>2026-04-18T08:39:29.001Z</time></trkpt><trkpt lat="45.441074415487385" lon="11.512234363732524"><ele>354.0</ele><time>2026-04-18T08:39:30.001Z</time></trkpt><trkpt lat="45.4412685563329" lon="11.512099130096981"><ele>354.0</ele><time>2026-04-18T08:39:31.001Z</time></trkpt><trkpt lat="45.441454513576005" lon="11.511918395887704"><ele>355.0</ele><time>2026-04-18T08:39:32.001Z</time></trkpt><trkpt lat="45.44162866451901" lon="11.511755095761956"><ele>356.0</ele><time>2026-04-18T08:39:33.001Z</time></trkpt><trkpt lat="45.44178640442611" lon="11.511628495727889"><ele>357.0</ele><time>2026-04-18T08:39:34.001Z</time></trkpt><trkpt lat="45.4419280131122" lon="11.511520615166694"><ele>357.0</ele><time>2026-04-18T08:39:35.001Z</time></trkpt><trkpt lat="45.442035671507256" lon="11.511411218372114"><ele>357.0</ele><time>2026-04-18T08:39:36.001Z</time></trkpt><trkpt lat="45.442113030197895" lon="11.511319128611417"><ele>357.0</ele><time>2026-04-18T08:39:37.001Z</time></trkpt><trkpt lat="45.44218261163976" lon="11.511259053768716"><ele>357.0</ele><time>2026-04-18T08:39:38.001Z</time></trkpt><trkpt lat="45.44226470755108" lon="11.51124701912235"><ele>357.0</ele><time>2026-04-18T08:39:39.001Z</time></trkpt><trkpt lat="45.442344038907684" lon="11.511332298258242"><ele>360.75</ele><time>2026-04-18T08:39:40.001Z</time></trkpt><trkpt lat="45.44241052905625" lon="11.51150073547971"><ele>364.5</ele><time>2026-04-18T08:39:41.001Z</time></trkpt><trkpt lat="45.442469638904946" lon="11.511723559891964"><ele>368.25</ele><time>2026-04-18T08:39:42.001Z</time></trkpt><trkpt lat="45.44253326866294" lon="11.511904121240569"><ele>372.0</ele><time>2026-04-18T08:39:43.001Z</time></trkpt><trkpt lat="45.442615643282515" lon="11.51202699867958"><ele>372.75</ele><time>2026-04-18T08:39:44.001Z</time></trkpt><trkpt lat="45.44274534329443" lon="11.512095939704274"><ele>373.5</ele><time>2026-04-18T08:39:45.001Z</time></trkpt><trkpt lat="45.442878750085335" lon="11.512182554680015"><ele>374.25</ele><time>2026-04-18T08:39:46.001Z</time></trkpt><trkpt lat="45.44301301026239" lon="11.512265558682959"><ele>375.0</ele><time>2026-04-18T08:39:47.001Z</time></trkpt><trkpt lat="45.44315002086899" lon="11.5123143846257"><ele>376.2</ele><time>2026-04-18T08:39:48.001Z</time></trkpt><trkpt lat="45.44327381919495" lon="11.512325138958724"><ele>377.4</ele><time>2026-04-18T08:39:49.001Z</time></trkpt><trkpt lat="45.443376522567014" lon="11.512333589967707"><ele>378.6</ele><time>2026-04-18T08:39:50.001Z</time></trkpt><trkpt lat="45.44346767780879" lon="11.512330776979853"><ele>379.8</ele><time>2026-04-18T08:39:51.001Z</time></trkpt><trkpt lat="45.443548853779" lon="11.512343816337506"><ele>381.0</ele><time>2026-04-18T08:39:52.001Z</time></trkpt><trkpt lat="45.44363177166411" lon="11.512385475863677"><ele>381.0</ele><time>2026-04-18T08:39:53.001Z</time></trkpt><trkpt lat="45.44373215963047" lon="11.512491239098546"><ele>381.0</ele><time>2026-04-18T08:39:54.001Z</time></trkpt><trkpt lat="45.44380938081383" lon="11.51264188620065"><ele>381.0</ele><time>2026-04-18T08:39:55.001Z</time></trkpt><trkpt lat="45.44391638324198" lon="11.512725074961107"><ele>381.0</ele><time>2026-04-18T08:39:56.001Z</time></trkpt><trkpt lat="45.44405089707628" lon="11.512812514121185"><ele>380.75</ele><time>2026-04-18T08:39:57.001Z</time></trkpt><trkpt lat="45.44419316961012" lon="11.512884075908293"><ele>380.5</ele><time>2026-04-18T08:39:58.001Z</time></trkpt><trkpt lat="45.44433116494012" lon="11.512925158549194"><ele>380.25</ele><time>2026-04-18T08:39:59.001Z</time></trkpt><trkpt lat="45.44445027158891" lon="11.512955274768954"><ele>380.0</ele><time>2026-04-18T08:40:00.001Z</time></trkpt><trkpt lat="45.44455755454234" lon="11.512972027435167"><ele>380.0</ele><time>2026-04-18T08:40:01.001Z</time></trkpt><trkpt lat="45.44466682907484" lon="11.512962857513138"><ele>380.0</ele><time>2026-04-18T08:40:02.001Z</time></trkpt><trkpt lat="45.44476393376072" lon="11.512916599194718"><ele>380.0</ele><time>2026-04-18T08:40:03.001Z</time></trkpt><trkpt lat="45.44485573304607" lon="11.5128381289016"><ele>380.0</ele><time>2026-04-18T08:40:04.001Z</time></trkpt><trkpt lat="45.44495172965714" lon="11.512740235760251"><ele>380.0</ele><time>2026-04-18T08:40:05.001Z</time></trkpt><trkpt lat="45.44504825786308" lon="11.512629776391938"><ele>379.25</ele><time>2026-04-18T08:40:06.001Z</time></trkpt><trkpt lat="45.44513296363687" lon="11.512489607065001"><ele>378.5</ele><time>2026-04-18T08:40:07.001Z</time></trkpt><trkpt lat="45.445211350911734" lon="11.51232892663933"><ele>377.75</ele><time>2026-04-18T08:40:08.001Z</time></trkpt><trkpt lat="45.44527787810514" lon="11.512147726459851"><ele>377.0</ele><time>2026-04-18T08:40:09.001Z</time></trkpt><trkpt lat="45.44535187977552" lon="11.511976565446833"><ele>374.6666666666667</ele><time>2026-04-18T08:40:10.001Z</time></trkpt><trkpt lat="45.445441518540406" lon="11.51181973563851"><ele>372.3333333333333</ele><time>2026-04-18T08:40:11.001Z</time></trkpt><trkpt lat="45.44555553940188" lon="11.51165793975489"><ele>370.0</ele><time>2026-04-18T08:40:12.001Z</time></trkpt><trkpt lat="45.44569876863665" lon="11.511498576914457"><ele>368.66666666666663</ele><time>2026-04-18T08:40:13.001Z</time></trkpt><trkpt lat="45.44584525294734" lon="11.511357954957582"><ele>367.3333333333333</ele><time>2026-04-18T08:40:14.001Z</time></trkpt><trkpt lat="45.44596445146572" lon="11.511234852241115"><ele>366.0</ele><time>2026-04-18T08:40:15.001Z</time></trkpt><trkpt lat="45.446067187738585" lon="11.511109918800354"><ele>365.75</ele><time>2026-04-18T08:40:16Z</time></trkpt><trkpt lat="45.44614379950628" lon="11.510977721342542"><ele>365.5</ele><time>2026-04-18T08:40:17Z</time></trkpt><trkpt lat="45.44617672505601" lon="11.51083116227627"><ele>365.25</ele><time>2026-04-18T08:40:18Z</time></trkpt><trkpt lat="45.446160168435355" lon="11.510661469580572"><ele>365.0</ele><time>2026-04-18T08:40:19Z</time></trkpt><trkpt lat="45.446098306983785" lon="11.510460893737365"><ele>364.0</ele><time>2026-04-18T08:40:20Z</time></trkpt><trkpt lat="45.44600528470022" lon="11.510285829597636"><ele>363.0</ele><time>2026-04-18T08:40:21Z</time></trkpt><trkpt lat="45.44591835798117" lon="11.510149327150687"><ele>362.0</ele><time>2026-04-18T08:40:22Z</time></trkpt><trkpt lat="45.445866526899074" lon="11.5100274107664"><ele>361.0</ele><time>2026-04-18T08:40:23Z</time></trkpt><trkpt lat="45.4458715017676" lon="11.509919610461763"><ele>361.0</ele><time>2026-04-18T08:40:24Z</time></trkpt><trkpt lat="45.446105101645216" lon="11.509702261380665"><ele>361.0</ele><time>2026-04-18T08:40:25Z</time></trkpt><trkpt lat="45.446212453968585" lon="11.509539318176891"><ele>361.0</ele><time>2026-04-18T08:40:26Z</time></trkpt><trkpt lat="45.44634040020252" lon="11.50936797801121"><ele>366.0</ele><time>2026-04-18T08:40:27Z</time></trkpt><trkpt lat="45.44648207358784" lon="11.509206864895486"><ele>371.0</ele><time>2026-04-18T08:40:28Z</time></trkpt><trkpt lat="45.44662457984558" lon="11.509037160125056"><ele>376.0</ele><time>2026-04-18T08:40:29Z</time></trkpt><trkpt lat="45.446769999844406" lon="11.50885248910095"><ele>374.5</ele><time>2026-04-18T08:40:30Z</time></trkpt><trkpt lat="45.4468999911812" lon="11.508692104402838"><ele>373.0</ele><time>2026-04-18T08:40:31Z</time></trkpt><trkpt lat="45.44701257287153" lon="11.508540581097824"><ele>371.5</ele><time>2026-04-18T08:40:32Z</time></trkpt><trkpt lat="45.44710274783261" lon="11.508424735638311"><ele>370.0</ele><time>2026-04-18T08:40:33Z</time></trkpt><trkpt lat="45.44721045091805" lon="11.508342430926234"><ele>370.0</ele><time>2026-04-18T08:40:34Z</time></trkpt><trkpt lat="45.447336198781954" lon="11.508314554576733"><ele>370.0</ele><time>2026-04-18T08:40:35Z</time></trkpt><trkpt lat="45.447480144426066" lon="11.508345184049652"><ele>370.0</ele><time>2026-04-18T08:40:36Z</time></trkpt><trkpt lat="45.44763724889104" lon="11.50838577142858"><ele>370.0</ele><time>2026-04-18T08:40:37Z</time></trkpt><trkpt lat="45.44776957605319" lon="11.508392820881639"><ele>370.0</ele><time>2026-04-18T08:40:38Z</time></trkpt><trkpt lat="45.4478964691115" lon="11.508375110883636"><ele>370.0</ele><time>2026-04-18T08:40:39Z</time></trkpt><trkpt lat="45.44803035005165" lon="11.508304064323719"><ele>370.0</ele><time>2026-04-18T08:40:40Z</time></trkpt><trkpt lat="45.4481491389984" lon="11.508173538573333"><ele>370.0</ele><time>2026-04-18T08:40:41Z</time></trkpt><trkpt lat="45.44823021080567" lon="11.508046233199439"><ele>371.5</ele><time>2026-04-18T08:40:42Z</time></trkpt><trkpt lat="45.44828121476419" lon="11.507908414927364"><ele>373.0</ele><time>2026-04-18T08:40:43Z</time></trkpt><trkpt lat="45.44828376224909" lon="11.507752345376748"><ele>374.5</ele><time>2026-04-18T08:40:44Z</time></trkpt><trkpt lat="45.44824055744683" lon="11.507573573576583"><ele>376.0</ele><time>2026-04-18T08:40:45Z</time></trkpt><trkpt lat="45.44817206636005" lon="11.507359801855886"><ele>376.0</ele><time>2026-04-18T08:40:46Z</time></trkpt><trkpt lat="45.44809191982808" lon="11.507124514166858"><ele>376.0</ele><time>2026-04-18T08:40:47Z</time></trkpt><trkpt lat="45.44802573153626" lon="11.506918334390246"><ele>376.0</ele><time>2026-04-18T08:40:48Z</time></trkpt><trkpt lat="45.447975676978096" lon="11.506756211388732"><ele>374.6</ele><time>2026-04-18T08:40:49Z</time></trkpt><trkpt lat="45.44794827331636" lon="11.506604913176833"><ele>373.20000000000005</ele><time>2026-04-18T08:40:50Z</time></trkpt><trkpt lat="45.44797250801454" lon="11.506472878253087"><ele>371.79999999999995</ele><time>2026-04-18T08:40:51Z</time></trkpt><trkpt lat="45.44804184286325" lon="11.506359142368478"><ele>370.4</ele><time>2026-04-18T08:40:52Z</time></trkpt><trkpt lat="45.448149722699405" lon="11.506265428391966"><ele>369.0</ele><time>2026-04-18T08:40:53Z</time></trkpt><trkpt lat="45.448318260320676" lon="11.506148678461207"><ele>368.3333333333333</ele><time>2026-04-18T08:40:54Z</time></trkpt><trkpt lat="45.44852618259868" lon="11.505987442108792"><ele>367.66666666666663</ele><time>2026-04-18T08:40:55Z</time></trkpt><trkpt lat="45.44869644145064" lon="11.505818424248083"><ele>367.0</ele><time>2026-04-18T08:40:56Z</time></trkpt><trkpt lat="45.44883138221205" lon="11.505637996336336"><ele>367.0</ele><time>2026-04-18T08:40:57Z</time></trkpt><trkpt lat="45.44893685698761" lon="11.505500991104585"><ele>367.0</ele><time>2026-04-18T08:40:58Z</time></trkpt><trkpt lat="45.44904886458984" lon="11.505397168014216"><ele>367.0</ele><time>2026-04-18T08:40:59Z</time></trkpt><trkpt lat="45.449183156083414" lon="11.505344242348047"><ele>367.0</ele><time>2026-04-18T08:41:00Z</time></trkpt><trkpt lat="45.44933618133187" lon="11.505338762712508"><ele>364.66666666666663</ele><time>2026-04-18T08:41:01Z</time></trkpt><trkpt lat="45.44950469940624" lon="11.505325736858152"><ele>362.3333333333333</ele><time>2026-04-18T08:41:02Z</time></trkpt><trkpt lat="45.44966103716384" lon="11.505255134588268"><ele>360.0</ele><time>2026-04-18T08:41:03Z</time></trkpt><trkpt lat="45.449789681685075" lon="11.505057988138018"><ele>360.0</ele><time>2026-04-18T08:41:04Z</time></trkpt><trkpt lat="45.44993172148053" lon="11.504848508231731"><ele>360.0</ele><time>2026-04-18T08:41:05Z</time></trkpt><trkpt lat="45.45008532143616" lon="11.504686645047697"><ele>360.0</ele><time>2026-04-18T08:41:06Z</time></trkpt><trkpt lat="45.45022732171116" lon="11.50454067871751"><ele>359.3333333333333</ele><time>2026-04-18T08:41:07Z</time></trkpt><trkpt lat="45.45034812707398" lon="11.504360528204977"><ele>358.66666666666663</ele><time>2026-04-18T08:41:08Z</time></trkpt><trkpt lat="45.45045853757933" lon="11.504133541678723"><ele>358.0</ele><time>2026-04-18T08:41:09Z</time></trkpt><trkpt lat="45.45056594842979" lon="11.503895198919604"><ele>358.66666666666663</ele><time>2026-04-18T08:41:10Z</time></trkpt><trkpt lat="45.45068210702467" lon="11.503703541110129"><ele>359.3333333333333</ele><time>2026-04-18T08:41:11Z</time></trkpt><trkpt lat="45.45080433842762" lon="11.503593410126117"><ele>360.0</ele><time>2026-04-18T08:41:12Z</time></trkpt><trkpt lat="45.450926159292706" lon="11.503499139825935"><ele>360.0</ele><time>2026-04-18T08:41:13Z</time></trkpt><trkpt lat="45.45105657124237" lon="11.503387266705865"><ele>360.0</ele><time>2026-04-18T08:41:14Z</time></trkpt><trkpt lat="45.45120906323838" lon="11.50325580687799"><ele>360.0</ele><time>2026-04-18T08:41:15Z</time></trkpt><trkpt lat="45.45136635755133" lon="11.503078134784039"><ele>359.0</ele><time>2026-04-18T08:41:16Z</time></trkpt><trkpt lat="45.45153667120404" lon="11.502873144897414"><ele>358.0</ele><time>2026-04-18T08:41:17Z</time></trkpt><trkpt lat="45.451725393536414" lon="11.502658951900338"><ele>358.0</ele><time>2026-04-18T08:41:18Z</time></trkpt><trkpt lat="45.45191647845686" lon="11.502413828766356"><ele>358.0</ele><time>2026-04-18T08:41:19Z</time></trkpt><trkpt lat="45.452095592649144" lon="11.502172909817293"><ele>361.0</ele><time>2026-04-18T08:41:20Z</time></trkpt><trkpt lat="45.45224824409071" lon="11.501955878677556"><ele>364.0</ele><time>2026-04-18T08:41:21Z</time></trkpt><trkpt lat="45.45237880066882" lon="11.501752316558646"><ele>367.0</ele><time>2026-04-18T08:41:22Z</time></trkpt><trkpt lat="45.45248436098806" lon="11.501580562345932"><ele>367.0</ele><time>2026-04-18T08:41:23Z</time></trkpt><trkpt lat="45.45255734860618" lon="11.501404820888627"><ele>367.0</ele><time>2026-04-18T08:41:24Z</time></trkpt><trkpt lat="45.45259998467543" lon="11.501206529274796"><ele>367.0</ele><time>2026-04-18T08:41:25Z</time></trkpt><trkpt lat="45.452613443279006" lon="11.500954681989288"><ele>369.0</ele><time>2026-04-18T08:41:26Z</time></trkpt><trkpt lat="45.45261309565681" lon="11.500681892516667"><ele>371.0</ele><time>2026-04-18T08:41:27Z</time></trkpt><trkpt lat="45.452651597320724" lon="11.500414147809172"><ele>373.0</ele><time>2026-04-18T08:41:28Z</time></trkpt><trkpt lat="45.45272126465314" lon="11.500177446641915"><ele>373.3333333333333</ele><time>2026-04-18T08:41:29Z</time></trkpt><trkpt lat="45.45277820066037" lon="11.4999891885711"><ele>373.6666666666667</ele><time>2026-04-18T08:41:30Z</time></trkpt><trkpt lat="45.45282164772994" lon="11.49977792484796"><ele>374.0</ele><time>2026-04-18T08:41:31Z</time></trkpt><trkpt lat="45.45284688568274" lon="11.499562814278628"><ele>374.0</ele><time>2026-04-18T08:41:32Z</time></trkpt><trkpt lat="45.45286175542655" lon="11.499373683547876"><ele>374.0</ele><time>2026-04-18T08:41:33.001Z</time></trkpt><trkpt lat="45.45287829285003" lon="11.499196362186499"><ele>374.0</ele><time>2026-04-18T08:41:34.001Z</time></trkpt><trkpt lat="45.452874271956674" lon="11.499013301414772"><ele>374.0</ele><time>2026-04-18T08:41:35.001Z</time></trkpt><trkpt lat="45.452819999541944" lon="11.498835865326427"><ele>373.0</ele><time>2026-04-18T08:41:36.001Z</time></trkpt><trkpt lat="45.45273361988422" lon="11.49867548413146"><ele>372.0</ele><time>2026-04-18T08:41:37.001Z</time></trkpt><trkpt lat="45.45265935195567" lon="11.498524667408711"><ele>371.0</ele><time>2026-04-18T08:41:38.001Z</time></trkpt><trkpt lat="45.45262919325383" lon="11.498363012124686"><ele>370.0</ele><time>2026-04-18T08:41:39.001Z</time></trkpt><trkpt lat="45.45265719812839" lon="11.498191068077086"><ele>370.0</ele><time>2026-04-18T08:41:40.001Z</time></trkpt><trkpt lat="45.45270532061705" lon="11.498023424284405"><ele>370.0</ele><time>2026-04-18T08:41:41.001Z</time></trkpt><trkpt lat="45.452776545543315" lon="11.497864278154548"><ele>370.0</ele><time>2026-04-18T08:41:42.001Z</time></trkpt><trkpt lat="45.45286470340243" lon="11.4977349543598"><ele>370.0</ele><time>2026-04-18T08:41:43.001Z</time></trkpt><trkpt lat="45.4529701006289" lon="11.497630953380158"><ele>370.66666666666663</ele><time>2026-04-18T08:41:44.001Z</time></trkpt><trkpt lat="45.453097077542445" lon="11.497545785461186"><ele>371.3333333333333</ele><time>2026-04-18T08:41:45.001Z</time></trkpt><trkpt lat="45.45323761580986" lon="11.497442722871815"><ele>372.0</ele><time>2026-04-18T08:41:46.001Z</time></trkpt><trkpt lat="45.45336787127942" lon="11.497302498987999"><ele>372.0</ele><time>2026-04-18T08:41:47.001Z</time></trkpt><trkpt lat="45.453471731875744" lon="11.497158346665067"><ele>372.0</ele><time>2026-04-18T08:41:48.001Z</time></trkpt><trkpt lat="45.45354473483907" lon="11.497010164584584"><ele>372.0</ele><time>2026-04-18T08:41:49.001Z</time></trkpt><trkpt lat="45.453580693623564" lon="11.496824807247727"><ele>372.0</ele><time>2026-04-18T08:41:50.001Z</time></trkpt><trkpt lat="45.45356817529937" lon="11.496610980727176"><ele>371.75</ele><time>2026-04-18T08:41:51.001Z</time></trkpt><trkpt lat="45.453539788263264" lon="11.49640376172761"><ele>371.5</ele><time>2026-04-18T08:41:52.001Z</time></trkpt><trkpt lat="45.453551121883784" lon="11.496205710264105"><ele>371.25</ele><time>2026-04-18T08:41:53.001Z</time></trkpt><trkpt lat="45.45360239345748" lon="11.495992101938638"><ele>371.0</ele><time>2026-04-18T08:41:54.001Z</time></trkpt><trkpt lat="45.45365879851693" lon="11.495759616665971"><ele>370.25</ele><time>2026-04-18T08:41:55.001Z</time></trkpt><trkpt lat="45.45370605382138" lon="11.495514476991046"><ele>369.5</ele><time>2026-04-18T08:41:56.001Z</time></trkpt><trkpt lat="45.4537393796333" lon="11.495308625981012"><ele>368.75</ele><time>2026-04-18T08:41:57.001Z</time></trkpt><trkpt lat="45.45377881219386" lon="11.495153600633332"><ele>368.0</ele><time>2026-04-18T08:41:58.001Z</time></trkpt><trkpt lat="45.453836022885824" lon="11.495025877719595"><ele>368.5</ele><time>2026-04-18T08:41:59.001Z</time></trkpt><trkpt lat="45.45391811414038" lon="11.494905498574678"><ele>369.0</ele><time>2026-04-18T08:42:00.001Z</time></trkpt><trkpt lat="45.45401201265377" lon="11.494790369026445"><ele>369.5</ele><time>2026-04-18T08:42:01.001Z</time></trkpt><trkpt lat="45.45409719004871" lon="11.494677436788836"><ele>370.0</ele><time>2026-04-18T08:42:02.001Z</time></trkpt><trkpt lat="45.45416998706446" lon="11.494562918293758"><ele>370.0</ele><time>2026-04-18T08:42:03.001Z</time></trkpt><trkpt lat="45.45422999016814" lon="11.49444638563586"><ele>370.0</ele><time>2026-04-18T08:42:04.001Z</time></trkpt><trkpt lat="45.45426788290802" lon="11.494327348624815"><ele>370.0</ele><time>2026-04-18T08:42:05.001Z</time></trkpt><trkpt lat="45.45429736049931" lon="11.494227297292623"><ele>370.0</ele><time>2026-04-18T08:42:06.001Z</time></trkpt><trkpt lat="45.45434803332297" lon="11.494162638924545"><ele>370.0</ele><time>2026-04-18T08:42:07.001Z</time></trkpt><trkpt lat="45.454422255607675" lon="11.494162938523909"><ele>370.0</ele><time>2026-04-18T08:42:08.001Z</time></trkpt><trkpt lat="45.4545149772786" lon="11.49420345303225"><ele>368.5</ele><time>2026-04-18T08:42:09.001Z</time></trkpt><trkpt lat="45.45462605245384" lon="11.494281633720231"><ele>367.0</ele><time>2026-04-18T08:42:10.001Z</time></trkpt><trkpt lat="45.454766933512154" lon="11.494375638158873"><ele>365.5</ele><time>2026-04-18T08:42:11.001Z</time></trkpt><trkpt lat="45.45489642804359" lon="11.494441587756995"><ele>364.0</ele><time>2026-04-18T08:42:12.001Z</time></trkpt><trkpt lat="45.455029851483005" lon="11.494468747540877"><ele>364.0</ele><time>2026-04-18T08:42:13.001Z</time></trkpt><trkpt lat="45.455169145113786" lon="11.49448064420632"><ele>364.0</ele><time>2026-04-18T08:42:14.001Z</time></trkpt><trkpt lat="45.45530302520584" lon="11.49447437694167"><ele>364.0</ele><time>2026-04-18T08:42:15.001Z</time></trkpt><trkpt lat="45.455440702526076" lon="11.494449622190116"><ele>364.0</ele><time>2026-04-18T08:42:16.001Z</time></trkpt><trkpt lat="45.4555831333387" lon="11.494384732004127"><ele>360.5</ele><time>2026-04-18T08:42:17.001Z</time></trkpt><trkpt lat="45.45571131506014" lon="11.494310843868766"><ele>357.0</ele><time>2026-04-18T08:42:18.001Z</time></trkpt><trkpt lat="45.45583568758439" lon="11.494248436734331"><ele>353.5</ele><time>2026-04-18T08:42:19.001Z</time></trkpt><trkpt lat="45.45597570891015" lon="11.494240324968574"><ele>350.0</ele><time>2026-04-18T08:42:20.001Z</time></trkpt><trkpt lat="45.45612559144992" lon="11.494265746870266"><ele>348.0</ele><time>2026-04-18T08:42:21.001Z</time></trkpt><trkpt lat="45.456287527155006" lon="11.494294716137563"><ele>346.0</ele><time>2026-04-18T08:42:22Z</time></trkpt><trkpt lat="45.45645537303347" lon="11.494250782605125"><ele>344.0</ele><time>2026-04-18T08:42:23Z</time></trkpt><trkpt lat="45.456624807796004" lon="11.494151558244182"><ele>344.0</ele><time>2026-04-18T08:42:24Z</time></trkpt><trkpt lat="45.4568006240368" lon="11.494092766344489"><ele>344.0</ele><time>2026-04-18T08:42:25Z</time></trkpt><trkpt lat="45.4569811655679" lon="11.494080803822733"><ele>344.0</ele><time>2026-04-18T08:42:26Z</time></trkpt><trkpt lat="45.45716093030132" lon="11.494075241924007"><ele>343.0</ele><time>2026-04-18T08:42:27Z</time></trkpt><trkpt lat="45.4573240173985" lon="11.494051896605734"><ele>342.0</ele><time>2026-04-18T08:42:28Z</time></trkpt><trkpt lat="45.45746669082868" lon="11.494022559882598"><ele>341.0</ele><time>2026-04-18T08:42:29Z</time></trkpt><trkpt lat="45.4575916339028" lon="11.494012558631997"><ele>340.0</ele><time>2026-04-18T08:42:30Z</time></trkpt><trkpt lat="45.457722257008456" lon="11.49404825100517"><ele>340.0</ele><time>2026-04-18T08:42:31Z</time></trkpt><trkpt lat="45.45787083105261" lon="11.4941084777089"><ele>340.0</ele><time>2026-04-18T08:42:32Z</time></trkpt><trkpt lat="45.45804249500692" lon="11.494132783053269"><ele>340.0</ele><time>2026-04-18T08:42:33Z</time></trkpt><trkpt lat="45.458243533571704" lon="11.494076489215974"><ele>340.25</ele><time>2026-04-18T08:42:34Z</time></trkpt><trkpt lat="45.45840975479702" lon="11.493970399651332"><ele>340.5</ele><time>2026-04-18T08:42:35Z</time></trkpt><trkpt lat="45.45853285074045" lon="11.493907442197413"><ele>340.75</ele><time>2026-04-18T08:42:36Z</time></trkpt><trkpt lat="45.45865428606486" lon="11.49388073612981"><ele>341.0</ele><time>2026-04-18T08:42:37Z</time></trkpt><trkpt lat="45.45878795707586" lon="11.493858266901881"><ele>338.33333333333337</ele><time>2026-04-18T08:42:38Z</time></trkpt><trkpt lat="45.45894622659646" lon="11.493860863665061"><ele>335.6666666666667</ele><time>2026-04-18T08:42:39Z</time></trkpt><trkpt lat="45.45912926252827" lon="11.4938434164129"><ele>333.0</ele><time>2026-04-18T08:42:40Z</time></trkpt><trkpt lat="45.459322254506695" lon="11.493804318535933"><ele>331.6666666666667</ele><time>2026-04-18T08:42:41Z</time></trkpt><trkpt lat="45.459517699274976" lon="11.493729741946998"><ele>330.33333333333337</ele><time>2026-04-18T08:42:42Z</time></trkpt><trkpt lat="45.45971582706696" lon="11.493630435641103"><ele>329.0</ele><time>2026-04-18T08:42:43Z</time></trkpt><trkpt lat="45.45991750301839" lon="11.493548671671833"><ele>329.0</ele><time>2026-04-18T08:42:44Z</time></trkpt><trkpt lat="45.46014361619503" lon="11.493518655906849"><ele>329.0</ele><time>2026-04-18T08:42:45Z</time></trkpt><trkpt lat="45.46037882561794" lon="11.493530017767915"><ele>331.0</ele><time>2026-04-18T08:42:46Z</time></trkpt><trkpt lat="45.46059060246856" lon="11.493551738376622"><ele>333.0</ele><time>2026-04-18T08:42:47Z</time></trkpt><trkpt lat="45.4607792612542" lon="11.493585746655107"><ele>335.0</ele><time>2026-04-18T08:42:48Z</time></trkpt><trkpt lat="45.460953564931614" lon="11.49364103580915"><ele>335.0</ele><time>2026-04-18T08:42:49Z</time></trkpt><trkpt lat="45.461130785924375" lon="11.4937132425349"><ele>335.0</ele><time>2026-04-18T08:42:50Z</time></trkpt><trkpt lat="45.46132853940348" lon="11.493791841885189"><ele>335.0</ele><time>2026-04-18T08:42:51Z</time></trkpt><trkpt lat="45.4615621420782" lon="11.493838552440575"><ele>329.6666666666667</ele><time>2026-04-18T08:42:52Z</time></trkpt><trkpt lat="45.46178393331883" lon="11.493837605583513"><ele>324.3333333333333</ele><time>2026-04-18T08:42:53Z</time></trkpt><trkpt lat="45.461979337515544" lon="11.493829102482826"><ele>319.0</ele><time>2026-04-18T08:42:54Z</time></trkpt><trkpt lat="45.462177062610756" lon="11.493864806746018"><ele>319.0</ele><time>2026-04-18T08:42:55Z</time></trkpt><trkpt lat="45.46238467486434" lon="11.49395861284271"><ele>319.0</ele><time>2026-04-18T08:42:56Z</time></trkpt><trkpt lat="45.46257388746274" lon="11.494090333873485"><ele>319.0</ele><time>2026-04-18T08:42:57Z</time></trkpt><trkpt lat="45.46273654944956" lon="11.494223665983291"><ele>319.0</ele><time>2026-04-18T08:42:58Z</time></trkpt><trkpt lat="45.462882491213925" lon="11.494357222712214"><ele>319.0</ele><time>2026-04-18T08:42:59Z</time></trkpt><trkpt lat="45.463005317574904" lon="11.494485060595968"><ele>319.0</ele><time>2026-04-18T08:43:00Z</time></trkpt><trkpt lat="45.46312689955359" lon="11.494595296707448"><ele>315.75</ele><time>2026-04-18T08:43:01Z</time></trkpt><trkpt lat="45.463252119654705" lon="11.494669005242045"><ele>312.5</ele><time>2026-04-18T08:43:02Z</time></trkpt><trkpt lat="45.46339542896709" lon="11.494700082418126"><ele>309.25</ele><time>2026-04-18T08:43:03Z</time></trkpt><trkpt lat="45.46354693555973" lon="11.494704482590809"><ele>306.0</ele><time>2026-04-18T08:43:04Z</time></trkpt><trkpt lat="45.46365285458062" lon="11.49471313171643"><ele>306.0</ele><time>2026-04-18T08:43:05Z</time></trkpt><trkpt lat="45.463747982715766" lon="11.494731364381758"><ele>306.0</ele><time>2026-04-18T08:43:06Z</time></trkpt><trkpt lat="45.46386512689951" lon="11.494748872506383"><ele>306.0</ele><time>2026-04-18T08:43:07Z</time></trkpt><trkpt lat="45.46399517359142" lon="11.494773716637495"><ele>306.0</ele><time>2026-04-18T08:43:08Z</time></trkpt><trkpt lat="45.464120838362035" lon="11.494819505900013"><ele>306.2</ele><time>2026-04-18T08:43:09Z</time></trkpt><trkpt lat="45.46422796058966" lon="11.494867236609494"><ele>306.40000000000003</ele><time>2026-04-18T08:43:10Z</time></trkpt><trkpt lat="45.464319971017034" lon="11.494906451561548"><ele>306.6</ele><time>2026-04-18T08:43:11Z</time></trkpt><trkpt lat="45.46441125380738" lon="11.494942317295846"><ele>306.8</ele><time>2026-04-18T08:43:12Z</time></trkpt><trkpt lat="45.464495537138674" lon="11.494970740474965"><ele>307.0</ele><time>2026-04-18T08:43:13Z</time></trkpt><trkpt lat="45.46460380236687" lon="11.494999447469654"><ele>308.0</ele><time>2026-04-18T08:43:14Z</time></trkpt><trkpt lat="45.464724462583824" lon="11.49503236360987"><ele>309.0</ele><time>2026-04-18T08:43:15Z</time></trkpt><trkpt lat="45.4648528472701" lon="11.49506548741303"><ele>310.0</ele><time>2026-04-18T08:43:16Z</time></trkpt><trkpt lat="45.4650208919652" lon="11.495102476715154"><ele>311.0</ele><time>2026-04-18T08:43:17Z</time></trkpt><trkpt lat="45.46524119773295" lon="11.495129838221748"><ele>310.0</ele><time>2026-04-18T08:43:18Z</time></trkpt><trkpt lat="45.46547398584647" lon="11.495184192920428"><ele>309.0</ele><time>2026-04-18T08:43:19Z</time></trkpt><trkpt lat="45.46568501887568" lon="11.495248401701446"><ele>309.0</ele><time>2026-04-18T08:43:20Z</time></trkpt><trkpt lat="45.4658704459341" lon="11.495347978869903"><ele>309.0</ele><time>2026-04-18T08:43:21Z</time></trkpt><trkpt lat="45.46603792608248" lon="11.495363349889196"><ele>309.0</ele><time>2026-04-18T08:43:22Z</time></trkpt><trkpt lat="45.466176074950866" lon="11.495380632948903"><ele>306.75</ele><time>2026-04-18T08:43:23Z</time></trkpt><trkpt lat="45.46629847291722" lon="11.495414878196419"><ele>304.5</ele><time>2026-04-18T08:43:24Z</time></trkpt><trkpt lat="45.466405869965655" lon="11.495476870229211"><ele>302.25</ele><time>2026-04-18T08:43:25Z</time></trkpt><trkpt lat="45.466483850020005" lon="11.495599036152914"><ele>300.0</ele><time>2026-04-18T08:43:26Z</time></trkpt><trkpt lat="45.46654546095942" lon="11.495757266729854"><ele>296.25</ele><time>2026-04-18T08:43:27Z</time></trkpt><trkpt lat="45.466604783685646" lon="11.495902631611315"><ele>292.5</ele><time>2026-04-18T08:43:28Z</time></trkpt><trkpt lat="45.4666743828828" lon="11.496019845442476"><ele>288.75</ele><time>2026-04-18T08:43:29Z</time></trkpt><trkpt lat="45.466780064717916" lon="11.496068691221375"><ele>285.0</ele><time>2026-04-18T08:43:30Z</time></trkpt><trkpt lat="45.466898897733955" lon="11.496069906749463"><ele>285.0</ele><time>2026-04-18T08:43:31Z</time></trkpt><trkpt lat="45.46704504477559" lon="11.49606800444474"><ele>285.0</ele><time>2026-04-18T08:43:32Z</time></trkpt><trkpt lat="45.46716277285661" lon="11.496076346934665"><ele>285.0</ele><time>2026-04-18T08:43:33Z</time></trkpt><trkpt lat="45.46729518613642" lon="11.496141728075454"><ele>285.0</ele><time>2026-04-18T08:43:34Z</time></trkpt><trkpt lat="45.46743965930155" lon="11.496251218047064"><ele>283.0</ele><time>2026-04-18T08:43:35Z</time></trkpt><trkpt lat="45.467581851845566" lon="11.496394862314874"><ele>281.0</ele><time>2026-04-18T08:43:36Z</time></trkpt><trkpt lat="45.46772441293404" lon="11.49655953192666"><ele>279.0</ele><time>2026-04-18T08:43:37Z</time></trkpt><trkpt lat="45.46785564244615" lon="11.496715208700884"><ele>278.3333333333333</ele><time>2026-04-18T08:43:38Z</time></trkpt><trkpt lat="45.467984530411954" lon="11.496843216216694"><ele>277.66666666666663</ele><time>2026-04-18T08:43:39Z</time></trkpt><trkpt lat="45.46812306459101" lon="11.496929173880936"><ele>277.0</ele><time>2026-04-18T08:43:40Z</time></trkpt><trkpt lat="45.468279247213445" lon="11.49692374103118"><ele>277.0</ele><time>2026-04-18T08:43:41.001Z</time></trkpt><trkpt lat="45.46843744004381" lon="11.496881339488707"><ele>277.0</ele><time>2026-04-18T08:43:42.001Z</time></trkpt><trkpt lat="45.46858730386095" lon="11.496808898984359"><ele>277.0</ele><time>2026-04-18T08:43:43.001Z</time></trkpt><trkpt lat="45.46873823450512" lon="11.49679736558741"><ele>276.3333333333333</ele><time>2026-04-18T08:43:44.001Z</time></trkpt><trkpt lat="45.468900622183035" lon="11.4968161375587"><ele>275.6666666666667</ele><time>2026-04-18T08:43:45.001Z</time></trkpt><trkpt lat="45.46905814781289" lon="11.496812931414132"><ele>275.0</ele><time>2026-04-18T08:43:46.001Z</time></trkpt><trkpt lat="45.4691950706788" lon="11.49683395779728"><ele>275.0</ele><time>2026-04-18T08:43:47.001Z</time></trkpt><trkpt lat="45.46930964372765" lon="11.496878012640485"><ele>275.0</ele><time>2026-04-18T08:43:48.001Z</time></trkpt><trkpt lat="45.46943549226163" lon="11.496936581578517"><ele>275.0</ele><time>2026-04-18T08:43:49.001Z</time></trkpt><trkpt lat="45.469567689643135" lon="11.497023824425458"><ele>275.0</ele><time>2026-04-18T08:43:50.001Z</time></trkpt><trkpt lat="45.469718205721314" lon="11.497071067469433"><ele>273.6666666666667</ele><time>2026-04-18T08:43:51.001Z</time></trkpt><trkpt lat="45.46989120118691" lon="11.497129722655892"><ele>272.3333333333333</ele><time>2026-04-18T08:43:52.001Z</time></trkpt><trkpt lat="45.47006588904107" lon="11.497129039765882"><ele>271.0</ele><time>2026-04-18T08:43:53.001Z</time></trkpt><trkpt lat="45.47023416112847" lon="11.497079323913262"><ele>270.5</ele><time>2026-04-18T08:43:54.001Z</time></trkpt><trkpt lat="45.470376492969706" lon="11.497075555091595"><ele>270.0</ele><time>2026-04-18T08:43:55.001Z</time></trkpt><trkpt lat="45.4705117026773" lon="11.497063009970976"><ele>269.5</ele><time>2026-04-18T08:43:56.001Z</time></trkpt><trkpt lat="45.4706375412456" lon="11.497059988426422"><ele>269.0</ele><time>2026-04-18T08:43:57.001Z</time></trkpt><trkpt lat="45.4707603974802" lon="11.49706194585015"><ele>268.75</ele><time>2026-04-18T08:43:58.001Z</time></trkpt><trkpt lat="45.47089449454617" lon="11.497064564432884"><ele>268.5</ele><time>2026-04-18T08:43:59.001Z</time></trkpt><trkpt lat="45.47104018836526" lon="11.497067409470898"><ele>268.25</ele><time>2026-04-18T08:44:00.001Z</time></trkpt><trkpt lat="45.471183509469014" lon="11.497072497887872"><ele>268.0</ele><time>2026-04-18T08:44:01.001Z</time></trkpt><trkpt lat="45.47132184173509" lon="11.497077824489642"><ele>266.0</ele><time>2026-04-18T08:44:02.001Z</time></trkpt><trkpt lat="45.47145772191602" lon="11.49708255660551"><ele>264.0</ele><time>2026-04-18T08:44:03.001Z</time></trkpt><trkpt lat="45.471590103486704" lon="11.497079272280239"><ele>262.0</ele><time>2026-04-18T08:44:04.001Z</time></trkpt><trkpt lat="45.47171807205158" lon="11.497059020912838"><ele>260.0</ele><time>2026-04-18T08:44:05.001Z</time></trkpt><trkpt lat="45.47184188636335" lon="11.497028860068621"><ele>260.0</ele><time>2026-04-18T08:44:06.001Z</time></trkpt><trkpt lat="45.471949878073964" lon="11.496993306464017"><ele>260.0</ele><time>2026-04-18T08:44:07.001Z</time></trkpt><trkpt lat="45.47205585388627" lon="11.496956677829482"><ele>260.0</ele><time>2026-04-18T08:44:08.001Z</time></trkpt><trkpt lat="45.47216265501982" lon="11.49691614795996"><ele>260.0</ele><time>2026-04-18T08:44:09.001Z</time></trkpt><trkpt lat="45.47226775064425" lon="11.49687225744262"><ele>260.0</ele><time>2026-04-18T08:44:10.001Z</time></trkpt><trkpt lat="45.47259028783667" lon="11.49673195787527"><ele>259.0</ele><time>2026-04-18T08:44:11.001Z</time></trkpt><trkpt lat="45.47273945312868" lon="11.496669437142918"><ele>258.0</ele><time>2026-04-18T08:44:12.001Z</time></trkpt><trkpt lat="45.472894849556134" lon="11.496605534389818"><ele>257.0</ele><time>2026-04-18T08:44:13.001Z</time></trkpt><trkpt lat="45.473042441812744" lon="11.496547509251322"><ele>256.33333333333337</ele><time>2026-04-18T08:44:14.001Z</time></trkpt><trkpt lat="45.4731880838198" lon="11.496487388371651"><ele>255.66666666666669</ele><time>2026-04-18T08:44:15.001Z</time></trkpt><trkpt lat="45.473341618459635" lon="11.496422161525665"><ele>255.0</ele><time>2026-04-18T08:44:16.001Z</time></trkpt><trkpt lat="45.47348838648746" lon="11.49637200721617"><ele>255.0</ele><time>2026-04-18T08:44:17.001Z</time></trkpt><trkpt lat="45.47362246913598" lon="11.496326171842963"><ele>255.0</ele><time>2026-04-18T08:44:18.001Z</time></trkpt><trkpt lat="45.47373734666338" lon="11.49628786033194"><ele>255.0</ele><time>2026-04-18T08:44:19.001Z</time></trkpt><trkpt lat="45.47384075418844" lon="11.496257509675887"><ele>255.0</ele><time>2026-04-18T08:44:20.001Z</time></trkpt><trkpt lat="45.47394162012786" lon="11.496290696649973"><ele>255.25</ele><time>2026-04-18T08:44:21.001Z</time></trkpt><trkpt lat="45.47406624888958" lon="11.49630269400147"><ele>255.5</ele><time>2026-04-18T08:44:22.001Z</time></trkpt><trkpt lat="45.47419356201566" lon="11.49638462398094"><ele>255.75</ele><time>2026-04-18T08:44:23.001Z</time></trkpt><trkpt lat="45.47431741184204" lon="11.496466556950098"><ele>256.0</ele><time>2026-04-18T08:44:24.001Z</time></trkpt><trkpt lat="45.47441908976193" lon="11.496568489704408"><ele>256.0</ele><time>2026-04-18T08:44:25.001Z</time></trkpt><trkpt lat="45.47450929266812" lon="11.496686922613408"><ele>256.0</ele><time>2026-04-18T08:44:26.001Z</time></trkpt><trkpt lat="45.47459785881176" lon="11.496814728596778"><ele>256.0</ele><time>2026-04-18T08:44:27.001Z</time></trkpt><trkpt lat="45.47468551864421" lon="11.496937543681906"><ele>256.0</ele><time>2026-04-18T08:44:28Z</time></trkpt><trkpt lat="45.4747827315324" lon="11.497051721360448"><ele>253.0</ele><time>2026-04-18T08:44:29Z</time></trkpt><trkpt lat="45.47489847251433" lon="11.497157023880703"><ele>250.0</ele><time>2026-04-18T08:44:30Z</time></trkpt><trkpt lat="45.47501704821782" lon="11.497242457332128"><ele>247.0</ele><time>2026-04-18T08:44:31Z</time></trkpt><trkpt lat="45.475126078956016" lon="11.497289642103512"><ele>244.0</ele><time>2026-04-18T08:44:32Z</time></trkpt><trkpt lat="45.4752194992506" lon="11.49735940638005"><ele>243.99999999999997</ele><time>2026-04-18T08:44:33Z</time></trkpt><trkpt lat="45.47528884914178" lon="11.49740928763685"><ele>244.0</ele><time>2026-04-18T08:44:34Z</time></trkpt><trkpt lat="45.47535121798872" lon="11.497498776783532"><ele>244.0</ele><time>2026-04-18T08:44:35Z</time></trkpt><trkpt lat="45.475417762492825" lon="11.497580670801415"><ele>244.0</ele><time>2026-04-18T08:44:36Z</time></trkpt><trkpt lat="45.475456231286586" lon="11.497694617102702"><ele>243.99999999999997</ele><time>2026-04-18T08:44:37Z</time></trkpt><trkpt lat="45.47547692567459" lon="11.497815311797451"><ele>244.0</ele><time>2026-04-18T08:44:38Z</time></trkpt><trkpt lat="45.47550299459005" lon="11.497940823701816"><ele>243.79999999999998</ele><time>2026-04-18T08:44:39Z</time></trkpt><trkpt lat="45.4755247891041" lon="11.49807204696886"><ele>243.59999999999997</ele><time>2026-04-18T08:44:40Z</time></trkpt><trkpt lat="45.475552975556646" lon="11.498216810745827"><ele>243.4</ele><time>2026-04-18T08:44:41Z</time></trkpt><trkpt lat="45.47558202091837" lon="11.498354804294992"><ele>243.2</ele><time>2026-04-18T08:44:42Z</time></trkpt><trkpt lat="45.4756076103969" lon="11.498479256326137"><ele>243.0</ele><time>2026-04-18T08:44:43Z</time></trkpt><trkpt lat="45.475628770915854" lon="11.498590492030342"><ele>243.0</ele><time>2026-04-18T08:44:44Z</time></trkpt><trkpt lat="45.47564760255214" lon="11.498686242883391"><ele>243.0</ele><time>2026-04-18T08:44:45Z</time></trkpt><trkpt lat="45.47566441246855" lon="11.498777847980719"><ele>243.0</ele><time>2026-04-18T08:44:46Z</time></trkpt><trkpt lat="45.475691202751996" lon="11.498873518438932"><ele>243.0</ele><time>2026-04-18T08:44:47Z</time></trkpt><trkpt lat="45.47571666290545" lon="11.498971522101154"><ele>243.0</ele><time>2026-04-18T08:44:48Z</time></trkpt><trkpt lat="45.47574335416824" lon="11.49907142136502"><ele>243.0</ele><time>2026-04-18T08:44:49Z</time></trkpt><trkpt lat="45.47575895001827" lon="11.499178121938282"><ele>243.0</ele><time>2026-04-18T08:44:50Z</time></trkpt><trkpt lat="45.475782563026925" lon="11.499298160669625"><ele>242.5</ele><time>2026-04-18T08:44:51Z</time></trkpt><trkpt lat="45.47580309368141" lon="11.499413949012895"><ele>242.0</ele><time>2026-04-18T08:44:52Z</time></trkpt><trkpt lat="45.475822666356166" lon="11.499530581025102"><ele>241.5</ele><time>2026-04-18T08:44:53Z</time></trkpt><trkpt lat="45.47583967798976" lon="11.499639714170952"><ele>241.0</ele><time>2026-04-18T08:44:54Z</time></trkpt><trkpt lat="45.47585388780875" lon="11.499752288949006"><ele>240.5</ele><time>2026-04-18T08:44:55Z</time></trkpt><trkpt lat="45.475860995191425" lon="11.499875775899186"><ele>240.0</ele><time>2026-04-18T08:44:56Z</time></trkpt><trkpt lat="45.47587390116202" lon="11.50001620134551"><ele>239.75</ele><time>2026-04-18T08:44:57Z</time></trkpt><trkpt lat="45.47589027065743" lon="11.500174378695993"><ele>239.5</ele><time>2026-04-18T08:44:58Z</time></trkpt><trkpt lat="45.47590626899923" lon="11.50035871624389"><ele>239.25</ele><time>2026-04-18T08:44:59Z</time></trkpt><trkpt lat="45.47592304263787" lon="11.500556168394114"><ele>239.0</ele><time>2026-04-18T08:45:00Z</time></trkpt><trkpt lat="45.475925147232466" lon="11.50074984548334"><ele>237.75</ele><time>2026-04-18T08:45:01Z</time></trkpt><trkpt lat="45.475929609608755" lon="11.500933115683559"><ele>236.5</ele><time>2026-04-18T08:45:02Z</time></trkpt><trkpt lat="45.4759330702913" lon="11.50113233808221"><ele>235.25</ele><time>2026-04-18T08:45:03Z</time></trkpt><trkpt lat="45.47592974306631" lon="11.501360015115328"><ele>234.0</ele><time>2026-04-18T08:45:04Z</time></trkpt><trkpt lat="45.475926675208036" lon="11.501595555126984"><ele>233.75</ele><time>2026-04-18T08:45:05Z</time></trkpt><trkpt lat="45.47591527368413" lon="11.501822919228628"><ele>233.5</ele><time>2026-04-18T08:45:06Z</time></trkpt><trkpt lat="45.47590317566226" lon="11.502028764400253"><ele>233.25</ele><time>2026-04-18T08:45:07Z</time></trkpt><trkpt lat="45.47589846474596" lon="11.502223974610747"><ele>233.0</ele><time>2026-04-18T08:45:08Z</time></trkpt><trkpt lat="45.47590455452124" lon="11.502413675913001"><ele>232.75</ele><time>2026-04-18T08:45:09Z</time></trkpt><trkpt lat="45.47592435617527" lon="11.502602974633286"><ele>232.5</ele><time>2026-04-18T08:45:10Z</time></trkpt><trkpt lat="45.47593490746857" lon="11.502790423907777"><ele>232.25</ele><time>2026-04-18T08:45:11Z</time></trkpt><trkpt lat="45.47595024744222" lon="11.502966010194813"><ele>232.0</ele><time>2026-04-18T08:45:12Z</time></trkpt><trkpt lat="45.47596409292663" lon="11.503136548592884"><ele>231.39999999999998</ele><time>2026-04-18T08:45:13Z</time></trkpt><trkpt lat="45.475977762481925" lon="11.503294987835202"><ele>230.79999999999998</ele><time>2026-04-18T08:45:14Z</time></trkpt><trkpt lat="45.47599632353905" lon="11.503428452824764"><ele>230.2</ele><time>2026-04-18T08:45:15Z</time></trkpt><trkpt lat="45.476003457242676" lon="11.503544475396433"><ele>229.6</ele><time>2026-04-18T08:45:16Z</time></trkpt><trkpt lat="45.476000251516645" lon="11.503657638598094"><ele>229.0</ele><time>2026-04-18T08:45:17Z</time></trkpt><trkpt lat="45.475902182075124" lon="11.503767387533118"><ele>229.0</ele><time>2026-04-18T08:45:19Z</time></trkpt><trkpt lat="45.47582338919336" lon="11.503853298935802"><ele>229.0</ele><time>2026-04-18T08:45:20Z</time></trkpt><trkpt lat="45.47572866493858" lon="11.503954444074605"><ele>229.0</ele><time>2026-04-18T08:45:21Z</time></trkpt><trkpt lat="45.475637035284066" lon="11.504077176573112"><ele>229.0</ele><time>2026-04-18T08:45:22Z</time></trkpt><trkpt lat="45.475558411156854" lon="11.504182175947914"><ele>228.99999999999997</ele><time>2026-04-18T08:45:23Z</time></trkpt><trkpt lat="45.47549926445824" lon="11.504257932440183"><ele>229.0</ele><time>2026-04-18T08:45:24Z</time></trkpt><trkpt lat="45.47539955810356" lon="11.504351863084063"><ele>229.0</ele><time>2026-04-18T08:45:26Z</time></trkpt><trkpt lat="45.47530770133078" lon="11.504395785811482"><ele>229.0</ele><time>2026-04-18T08:45:28Z</time></trkpt><trkpt lat="45.4752463399354" lon="11.504343860270474"><ele>228.99999999999997</ele><time>2026-04-18T08:45:32Z</time></trkpt><trkpt lat="45.47518491843095" lon="11.504298226278454"><ele>229.0</ele><time>2026-04-18T08:45:34Z</time></trkpt><trkpt lat="45.47510033626806" lon="11.504202265285421"><ele>228.49999999999997</ele><time>2026-04-18T08:45:36Z</time></trkpt><trkpt lat="45.47502100198106" lon="11.504145280066808"><ele>228.0</ele><time>2026-04-18T08:45:38Z</time></trkpt><trkpt lat="45.47495845629482" lon="11.504093377039698"><ele>227.5</ele><time>2026-04-18T08:45:39Z</time></trkpt><trkpt lat="45.47488151320284" lon="11.50401830522796"><ele>227.0</ele><time>2026-04-18T08:45:40Z</time></trkpt><trkpt lat="45.474811936218224" lon="11.503948977471975"><ele>226.49999999999997</ele><time>2026-04-18T08:45:41Z</time></trkpt><trkpt lat="45.47473686951572" lon="11.50388467490288"><ele>226.0</ele><time>2026-04-18T08:45:42Z</time></trkpt><trkpt lat="45.474659426493645" lon="11.503815569007472"><ele>228.60000000000002</ele><time>2026-04-18T08:45:43Z</time></trkpt><trkpt lat="45.47457862540755" lon="11.503752130582296"><ele>231.20000000000002</ele><time>2026-04-18T08:45:44Z</time></trkpt><trkpt lat="45.47449730785705" lon="11.503691127353278"><ele>233.79999999999998</ele><time>2026-04-18T08:45:45Z</time></trkpt><trkpt lat="45.474419796321776" lon="11.503632183140004"><ele>236.39999999999998</ele><time>2026-04-18T08:45:46Z</time></trkpt><trkpt lat="45.474339600083155" lon="11.503578376185793"><ele>239.0</ele><time>2026-04-18T08:45:47Z</time></trkpt><trkpt lat="45.47425288963248" lon="11.503535186811353"><ele>239.0</ele><time>2026-04-18T08:45:48.001Z</time></trkpt><trkpt lat="45.47416894703482" lon="11.503472124854703"><ele>238.99999999999997</ele><time>2026-04-18T08:45:49.001Z</time></trkpt><trkpt lat="45.47407627799774" lon="11.503422737625277"><ele>238.99999999999997</ele><time>2026-04-18T08:45:50.001Z</time></trkpt><trkpt lat="45.4739849657465" lon="11.503377681398607"><ele>239.0</ele><time>2026-04-18T08:45:51.001Z</time></trkpt><trkpt lat="45.47389245503631" lon="11.503340048308191"><ele>239.0</ele><time>2026-04-18T08:45:52.001Z</time></trkpt><trkpt lat="45.47379337035022" lon="11.503311724849604"><ele>237.2</ele><time>2026-04-18T08:45:53.001Z</time></trkpt><trkpt lat="45.47369497905188" lon="11.503292085854241"><ele>235.39999999999998</ele><time>2026-04-18T08:45:54.001Z</time></trkpt><trkpt lat="45.47359686963469" lon="11.503287821764129"><ele>233.6</ele><time>2026-04-18T08:45:55.001Z</time></trkpt><trkpt lat="45.473492951177036" lon="11.503293012272996"><ele>231.8</ele><time>2026-04-18T08:45:56.001Z</time></trkpt><trkpt lat="45.47338825319064" lon="11.503315104698215"><ele>230.0</ele><time>2026-04-18T08:45:57.001Z</time></trkpt><trkpt lat="45.47328453572317" lon="11.503335900327036"><ele>230.0</ele><time>2026-04-18T08:45:58.001Z</time></trkpt><trkpt lat="45.473176628332396" lon="11.503369565656689"><ele>230.0</ele><time>2026-04-18T08:45:59.001Z</time></trkpt><trkpt lat="45.47306186825567" lon="11.503410554354407"><ele>230.0</ele><time>2026-04-18T08:46:00.001Z</time></trkpt><trkpt lat="45.4729424347449" lon="11.50345716611646"><ele>230.0</ele><time>2026-04-18T08:46:01.001Z</time></trkpt><trkpt lat="45.47281967228235" lon="11.503505602349586"><ele>231.66666666666669</ele><time>2026-04-18T08:46:02.001Z</time></trkpt><trkpt lat="45.47268445186232" lon="11.503592482898599"><ele>233.33333333333331</ele><time>2026-04-18T08:46:03.001Z</time></trkpt><trkpt lat="45.47254898936915" lon="11.503692423048461"><ele>235.0</ele><time>2026-04-18T08:46:04.001Z</time></trkpt><trkpt lat="45.472412429378664" lon="11.503785253561814"><ele>227.25</ele><time>2026-04-18T08:46:05.001Z</time></trkpt><trkpt lat="45.47227785958406" lon="11.50386335973349"><ele>219.5</ele><time>2026-04-18T08:46:06.001Z</time></trkpt><trkpt lat="45.47213245135087" lon="11.503875831896774"><ele>211.75</ele><time>2026-04-18T08:46:07.001Z</time></trkpt><trkpt lat="45.47198144545441" lon="11.503880277776389"><ele>204.0</ele><time>2026-04-18T08:46:08.001Z</time></trkpt><trkpt lat="45.471821855424565" lon="11.503896293729996"><ele>202.66666666666669</ele><time>2026-04-18T08:46:09.001Z</time></trkpt><trkpt lat="45.47166176161381" lon="11.503884309753385"><ele>201.33333333333334</ele><time>2026-04-18T08:46:10.001Z</time></trkpt><trkpt lat="45.47148762995061" lon="11.503856243676378"><ele>200.0</ele><time>2026-04-18T08:46:11.001Z</time></trkpt><trkpt lat="45.4713163370289" lon="11.503845467425833"><ele>197.0</ele><time>2026-04-18T08:46:12.001Z</time></trkpt><trkpt lat="45.47115060834716" lon="11.503817236695243"><ele>194.0</ele><time>2026-04-18T08:46:13.001Z</time></trkpt><trkpt lat="45.47098389443926" lon="11.503774357442094"><ele>191.0</ele><time>2026-04-18T08:46:14.001Z</time></trkpt><trkpt lat="45.47080437198654" lon="11.503727559568299"><ele>197.0</ele><time>2026-04-18T08:46:15.001Z</time></trkpt><trkpt lat="45.4706258881017" lon="11.50369546867952"><ele>203.0</ele><time>2026-04-18T08:46:16.001Z</time></trkpt><trkpt lat="45.47043637870968" lon="11.503652980389328"><ele>209.0</ele><time>2026-04-18T08:46:17.001Z</time></trkpt><trkpt lat="45.470235682913845" lon="11.503653655606705"><ele>209.0</ele><time>2026-04-18T08:46:18.001Z</time></trkpt><trkpt lat="45.47005477945716" lon="11.503653470380891"><ele>209.0</ele><time>2026-04-18T08:46:19.001Z</time></trkpt><trkpt lat="45.469888064670286" lon="11.503636664801592"><ele>209.0</ele><time>2026-04-18T08:46:20.001Z</time></trkpt><trkpt lat="45.46972163410179" lon="11.503610428770655"><ele>205.66666666666669</ele><time>2026-04-18T08:46:21.001Z</time></trkpt><trkpt lat="45.46956104793993" lon="11.50358437745706"><ele>202.33333333333331</ele><time>2026-04-18T08:46:22.001Z</time></trkpt><trkpt lat="45.46940050019269" lon="11.50356020517534"><ele>199.0</ele><time>2026-04-18T08:46:23.001Z</time></trkpt><trkpt lat="45.46924897050057" lon="11.503537390661737"><ele>199.0</ele><time>2026-04-18T08:46:24.001Z</time></trkpt><trkpt lat="45.469101761756164" lon="11.50351502114484"><ele>199.0</ele><time>2026-04-18T08:46:25.001Z</time></trkpt><trkpt lat="45.46895730287334" lon="11.503492588837121"><ele>199.0</ele><time>2026-04-18T08:46:26.001Z</time></trkpt><trkpt lat="45.46882005804943" lon="11.503471276764612"><ele>199.0</ele><time>2026-04-18T08:46:27.001Z</time></trkpt><trkpt lat="45.4686995962747" lon="11.50344512413009"><ele>197.2</ele><time>2026-04-18T08:46:28.001Z</time></trkpt><trkpt lat="45.46858711438309" lon="11.503416648512001"><ele>195.39999999999998</ele><time>2026-04-18T08:46:29.001Z</time></trkpt><trkpt lat="45.46849393493642" lon="11.50339041061472"><ele>193.6</ele><time>2026-04-18T08:46:30.001Z</time></trkpt><trkpt lat="45.468423616994706" lon="11.5033720959757"><ele>191.8</ele><time>2026-04-18T08:46:31.001Z</time></trkpt><trkpt lat="45.468356569493544" lon="11.503365355598099"><ele>190.0</ele><time>2026-04-18T08:46:32.001Z</time></trkpt><trkpt lat="45.46826555026239" lon="11.503472481571022"><ele>190.0</ele><time>2026-04-18T08:46:34Z</time></trkpt><trkpt lat="45.468274774370606" lon="11.503577113243507"><ele>190.0</ele><time>2026-04-18T08:46:35Z</time></trkpt><trkpt lat="45.468401089558405" lon="11.503648037972905"><ele>190.0</ele><time>2026-04-18T08:46:37Z</time></trkpt><trkpt lat="45.46850006212402" lon="11.503675429318987"><ele>190.0</ele><time>2026-04-18T08:46:38Z</time></trkpt><trkpt lat="45.46861915948201" lon="11.503696168970553"><ele>190.0</ele><time>2026-04-18T08:46:39Z</time></trkpt><trkpt lat="45.4687488799787" lon="11.50376671143389"><ele>183.33333333333334</ele><time>2026-04-18T08:46:40Z</time></trkpt><trkpt lat="45.46888337066927" lon="11.503897121911475"><ele>176.66666666666666</ele><time>2026-04-18T08:46:41Z</time></trkpt><trkpt lat="45.469043876538606" lon="11.504041043430435"><ele>170.0</ele><time>2026-04-18T08:46:42Z</time></trkpt><trkpt lat="45.469193697902575" lon="11.504168618818332"><ele>170.0</ele><time>2026-04-18T08:46:43Z</time></trkpt><trkpt lat="45.46935591485424" lon="11.504313362585352"><ele>170.0</ele><time>2026-04-18T08:46:44Z</time></trkpt><trkpt lat="45.46950869642703" lon="11.504439002542206"><ele>170.0</ele><time>2026-04-18T08:46:45Z</time></trkpt><trkpt lat="45.46965373087243" lon="11.50454786878513"><ele>165.0</ele><time>2026-04-18T08:46:46Z</time></trkpt><trkpt lat="45.469837722639866" lon="11.50468189856669"><ele>160.0</ele><time>2026-04-18T08:46:47Z</time></trkpt><trkpt lat="45.469993163035014" lon="11.504800262347363"><ele>155.0</ele><time>2026-04-18T08:46:48Z</time></trkpt><trkpt lat="45.470143383968576" lon="11.504921476063661"><ele>155.0</ele><time>2026-04-18T08:46:49Z</time></trkpt><trkpt lat="45.47028470393369" lon="11.505032675816834"><ele>155.0</ele><time>2026-04-18T08:46:50Z</time></trkpt><trkpt lat="45.4704213309458" lon="11.505133279441004"><ele>155.0</ele><time>2026-04-18T08:46:51Z</time></trkpt><trkpt lat="45.470553854134586" lon="11.505226333139868"><ele>157.5</ele><time>2026-04-18T08:46:52Z</time></trkpt><trkpt lat="45.47069399742461" lon="11.505291590241466"><ele>160.0</ele><time>2026-04-18T08:46:53Z</time></trkpt><trkpt lat="45.47081537740267" lon="11.505382494838436"><ele>162.5</ele><time>2026-04-18T08:46:54Z</time></trkpt><trkpt lat="45.470939670400156" lon="11.505413995176312"><ele>165.0</ele><time>2026-04-18T08:46:55Z</time></trkpt><trkpt lat="45.47104374089745" lon="11.50545157983531"><ele>159.4</ele><time>2026-04-18T08:46:56Z</time></trkpt><trkpt lat="45.4711202783874" lon="11.505501331724735"><ele>153.8</ele><time>2026-04-18T08:46:57Z</time></trkpt><trkpt lat="45.47121294314483" lon="11.505548749660939"><ele>148.2</ele><time>2026-04-18T08:46:59Z</time></trkpt><trkpt lat="45.471164269558024" lon="11.505616073715581"><ele>142.6</ele><time>2026-04-18T08:47:02Z</time></trkpt><trkpt lat="45.47101749969259" lon="11.505618573715559"><ele>137.0</ele><time>2026-04-18T08:47:04Z</time></trkpt><trkpt lat="45.470896253769006" lon="11.505594305479189"><ele>137.0</ele><time>2026-04-18T08:47:05Z</time></trkpt><trkpt lat="45.47074271439984" lon="11.505565810679196"><ele>137.0</ele><time>2026-04-18T08:47:06Z</time></trkpt><trkpt lat="45.47056034495944" lon="11.505582489600398"><ele>137.0</ele><time>2026-04-18T08:47:07Z</time></trkpt><trkpt lat="45.470374979182836" lon="11.505604456327784"><ele>134.33333333333331</ele><time>2026-04-18T08:47:08Z</time></trkpt><trkpt lat="45.47015921087144" lon="11.505579909399096"><ele>131.66666666666666</ele><time>2026-04-18T08:47:09Z</time></trkpt><trkpt lat="45.469984717662555" lon="11.505559176970731"><ele>129.0</ele><time>2026-04-18T08:47:10Z</time></trkpt><trkpt lat="45.469815192971105" lon="11.505546481317575"><ele>129.0</ele><time>2026-04-18T08:47:11Z</time></trkpt><trkpt lat="45.46965961178019" lon="11.505561386106866"><ele>129.0</ele><time>2026-04-18T08:47:12Z</time></trkpt><trkpt lat="45.46950732299797" lon="11.505581012587244"><ele>129.0</ele><time>2026-04-18T08:47:13Z</time></trkpt><trkpt lat="45.46936687429229" lon="11.505590606492373"><ele>129.0</ele><time>2026-04-18T08:47:14Z</time></trkpt><trkpt lat="45.4692259988839" lon="11.505590575119093"><ele>126.5</ele><time>2026-04-18T08:47:15Z</time></trkpt><trkpt lat="45.46908433254552" lon="11.505594643212817"><ele>124.0</ele><time>2026-04-18T08:47:16Z</time></trkpt><trkpt lat="45.46895332291086" lon="11.505598241068938"><ele>121.5</ele><time>2026-04-18T08:47:17Z</time></trkpt><trkpt lat="45.4688234224226" lon="11.505599179769076"><ele>119.0</ele><time>2026-04-18T08:47:18Z</time></trkpt><trkpt lat="45.46866932481716" lon="11.505636175899124"><ele>117.66666666666666</ele><time>2026-04-18T08:47:19Z</time></trkpt><trkpt lat="45.46850892841133" lon="11.505689278311479"><ele>116.33333333333334</ele><time>2026-04-18T08:47:20Z</time></trkpt><trkpt lat="45.46834556666934" lon="11.505759874025932"><ele>115.0</ele><time>2026-04-18T08:47:21Z</time></trkpt><trkpt lat="45.46819975737195" lon="11.505829404914916"><ele>115.0</ele><time>2026-04-18T08:47:22Z</time></trkpt><trkpt lat="45.468055013784216" lon="11.505889518455797"><ele>115.0</ele><time>2026-04-18T08:47:23Z</time></trkpt><trkpt lat="45.46791388731938" lon="11.505902035112838"><ele>115.0</ele><time>2026-04-18T08:47:24Z</time></trkpt><trkpt lat="45.46779500724911" lon="11.50593098779289"><ele>115.0</ele><time>2026-04-18T08:47:25Z</time></trkpt><trkpt lat="45.467659636527706" lon="11.505905584411364"><ele>113.8</ele><time>2026-04-18T08:47:26Z</time></trkpt><trkpt lat="45.4675552981773" lon="11.505901178227255"><ele>112.6</ele><time>2026-04-18T08:47:27Z</time></trkpt><trkpt lat="45.4674666762951" lon="11.505918007847063"><ele>111.4</ele><time>2026-04-18T08:47:28Z</time></trkpt><trkpt lat="45.467358083621235" lon="11.505944719706111"><ele>110.2</ele><time>2026-04-18T08:47:30Z</time></trkpt><trkpt lat="45.46733187962684" lon="11.506127285040963"><ele>109.0</ele><time>2026-04-18T08:47:32Z</time></trkpt><trkpt lat="45.467426703100536" lon="11.50618752680649"><ele>109.0</ele><time>2026-04-18T08:47:33Z</time></trkpt><trkpt lat="45.46753091886528" lon="11.50622709833635"><ele>109.0</ele><time>2026-04-18T08:47:34Z</time></trkpt><trkpt lat="45.46767527931317" lon="11.506263151353837"><ele>109.0</ele><time>2026-04-18T08:47:35Z</time></trkpt><trkpt lat="45.46783355352405" lon="11.50629603015227"><ele>109.0</ele><time>2026-04-18T08:47:36Z</time></trkpt><trkpt lat="45.46798593317003" lon="11.506377837706218"><ele>104.0</ele><time>2026-04-18T08:47:37Z</time></trkpt><trkpt lat="45.46814217756744" lon="11.506416801065946"><ele>99.0</ele><time>2026-04-18T08:47:38Z</time></trkpt><trkpt lat="45.46829689850289" lon="11.506498977556278"><ele>94.0</ele><time>2026-04-18T08:47:39Z</time></trkpt><trkpt lat="45.468445700407145" lon="11.506556944925611"><ele>94.0</ele><time>2026-04-18T08:47:40Z</time></trkpt><trkpt lat="45.468570349900695" lon="11.506608660539985"><ele>94.0</ele><time>2026-04-18T08:47:41Z</time></trkpt><trkpt lat="45.46869271700152" lon="11.506666441637043"><ele>94.0</ele><time>2026-04-18T08:47:42Z</time></trkpt><trkpt lat="45.4688104646228" lon="11.506752663306985"><ele>94.0</ele><time>2026-04-18T08:47:43Z</time></trkpt><trkpt lat="45.46895092123456" lon="11.506866210476437"><ele>95.33333333333333</ele><time>2026-04-18T08:47:44Z</time></trkpt><trkpt lat="45.46909775153037" lon="11.506989109451872"><ele>96.66666666666666</ele><time>2026-04-18T08:47:45Z</time></trkpt><trkpt lat="45.46923667484631" lon="11.50710707188233"><ele>98.0</ele><time>2026-04-18T08:47:46Z</time></trkpt><trkpt lat="45.469373393869084" lon="11.507220473483732"><ele>94.80000000000001</ele><time>2026-04-18T08:47:47Z</time></trkpt><trkpt lat="45.46949457228824" lon="11.507320417795158"><ele>91.6</ele><time>2026-04-18T08:47:48Z</time></trkpt><trkpt lat="45.46959476526012" lon="11.507403053938837"><ele>88.4</ele><time>2026-04-18T08:47:49Z</time></trkpt><trkpt lat="45.46967740342211" lon="11.507470327071657"><ele>85.19999999999999</ele><time>2026-04-18T08:47:50Z</time></trkpt><trkpt lat="45.46974909892606" lon="11.507525360100374"><ele>82.0</ele><time>2026-04-18T08:47:51Z</time></trkpt><trkpt lat="45.46980827030996" lon="11.507573228043016"><ele>82.0</ele><time>2026-04-18T08:47:52Z</time></trkpt><trkpt lat="45.469866889301166" lon="11.507671060386016"><ele>82.0</ele><time>2026-04-18T08:47:54.001Z</time></trkpt><trkpt lat="45.46983011495404" lon="11.507754290672247"><ele>82.0</ele><time>2026-04-18T08:47:55.001Z</time></trkpt><trkpt lat="45.46976060836028" lon="11.507792507473836"><ele>82.0</ele><time>2026-04-18T08:47:56.001Z</time></trkpt><trkpt lat="45.46966659283717" lon="11.507823218485319"><ele>82.0</ele><time>2026-04-18T08:47:57.001Z</time></trkpt><trkpt lat="45.46956409151146" lon="11.507861649666463"><ele>82.0</ele><time>2026-04-18T08:47:58.001Z</time></trkpt><trkpt lat="45.46946075577612" lon="11.50789470130011"><ele>80.75</ele><time>2026-04-18T08:47:59.001Z</time></trkpt><trkpt lat="45.46935735755107" lon="11.50790442364274"><ele>79.5</ele><time>2026-04-18T08:48:00.001Z</time></trkpt><trkpt lat="45.469234302412666" lon="11.50788754292393"><ele>78.25</ele><time>2026-04-18T08:48:01.001Z</time></trkpt><trkpt lat="45.46909990747817" lon="11.507872660743553"><ele>77.0</ele><time>2026-04-18T08:48:02.001Z</time></trkpt><trkpt lat="45.468958073475356" lon="11.507859142297546"><ele>77.0</ele><time>2026-04-18T08:48:03.001Z</time></trkpt><trkpt lat="45.46882300371989" lon="11.507845252110068"><ele>77.0</ele><time>2026-04-18T08:48:04.001Z</time></trkpt><trkpt lat="45.4686962735673" lon="11.507829912180338"><ele>77.0</ele><time>2026-04-18T08:48:05.001Z</time></trkpt><trkpt lat="45.46857153818476" lon="11.507815394490834"><ele>77.0</ele><time>2026-04-18T08:48:06.001Z</time></trkpt><trkpt lat="45.46845098598801" lon="11.507779714148501"><ele>74.5</ele><time>2026-04-18T08:48:07.001Z</time></trkpt><trkpt lat="45.468330780266776" lon="11.507703325602082"><ele>72.0</ele><time>2026-04-18T08:48:08.001Z</time></trkpt><trkpt lat="45.468208954690375" lon="11.507596922256601"><ele>69.5</ele><time>2026-04-18T08:48:09.001Z</time></trkpt><trkpt lat="45.46808935072372" lon="11.507499149320896"><ele>67.0</ele><time>2026-04-18T08:48:10.001Z</time></trkpt><trkpt lat="45.467969172633666" lon="11.507430681996906"><ele>64.25</ele><time>2026-04-18T08:48:11.001Z</time></trkpt><trkpt lat="45.467838874119586" lon="11.50739860412576"><ele>61.5</ele><time>2026-04-18T08:48:12.001Z</time></trkpt><trkpt lat="45.46771491751499" lon="11.507388754712053"><ele>58.75</ele><time>2026-04-18T08:48:13.001Z</time></trkpt><trkpt lat="45.46759893065905" lon="11.507386401779279"><ele>56.0</ele><time>2026-04-18T08:48:14.001Z</time></trkpt><trkpt lat="45.46751237573045" lon="11.507287906174469"><ele>56.0</ele><time>2026-04-18T08:48:15.001Z</time></trkpt><trkpt lat="45.46740930093143" lon="11.507212022452807"><ele>55.99999999999999</ele><time>2026-04-18T08:48:16.001Z</time></trkpt><trkpt lat="45.467319900589686" lon="11.507115165856973"><ele>55.99999999999999</ele><time>2026-04-18T08:48:17.001Z</time></trkpt><trkpt lat="45.46723068381593" lon="11.50702533646071"><ele>56.0</ele><time>2026-04-18T08:48:18.001Z</time></trkpt><trkpt lat="45.46714302682036" lon="11.506948871062859"><ele>56.0</ele><time>2026-04-18T08:48:19.001Z</time></trkpt><trkpt lat="45.467065991574295" lon="11.506884022081701"><ele>56.0</ele><time>2026-04-18T08:48:20.001Z</time></trkpt><trkpt lat="45.4670081794906" lon="11.506844043682507"><ele>55.99999999999999</ele><time>2026-04-18T08:48:21.001Z</time></trkpt><trkpt lat="45.466929979799836" lon="11.506840302099366"><ele>55.99999999999999</ele><time>2026-04-18T08:48:23.001Z</time></trkpt><trkpt lat="45.466878953539215" lon="11.506908971277696"><ele>56.0</ele><time>2026-04-18T08:48:27.001Z</time></trkpt><trkpt lat="45.467022257860236" lon="11.507177308167591"><ele>56.0</ele><time>2026-04-18T08:48:29.001Z</time></trkpt><trkpt lat="45.467152122850344" lon="11.507313477827594"><ele>56.0</ele><time>2026-04-18T08:48:30.001Z</time></trkpt><trkpt lat="45.467268905048556" lon="11.507474091243024"><ele>56.0</ele><time>2026-04-18T08:48:31.001Z</time></trkpt><trkpt lat="45.46738768871942" lon="11.507624071020015"><ele>56.0</ele><time>2026-04-18T08:48:32.001Z</time></trkpt><trkpt lat="45.46749354033683" lon="11.507771529149856"><ele>56.0</ele><time>2026-04-18T08:48:33.001Z</time></trkpt><trkpt lat="45.46759987111272" lon="11.507895628748852"><ele>56.0</ele><time>2026-04-18T08:48:34.001Z</time></trkpt><trkpt lat="45.46770927887986" lon="11.507994025636593"><ele>56.0</ele><time>2026-04-18T08:48:35.001Z</time></trkpt><trkpt lat="45.46780931664034" lon="11.508113477719945"><ele>56.0</ele><time>2026-04-18T08:48:36.001Z</time></trkpt><trkpt lat="45.467908768045106" lon="11.508224945806388"><ele>53.75</ele><time>2026-04-18T08:48:37.001Z</time></trkpt><trkpt lat="45.468024474048235" lon="11.508338068416961"><ele>51.5</ele><time>2026-04-18T08:48:38.001Z</time></trkpt><trkpt lat="45.46815013643117" lon="11.50845659826125"><ele>49.25</ele><time>2026-04-18T08:48:39.001Z</time></trkpt><trkpt lat="45.468245860965546" lon="11.508594977320401"><ele>47.0</ele><time>2026-04-18T08:48:40Z</time></trkpt><trkpt lat="45.46834470931593" lon="11.508700167736901"><ele>47.0</ele><time>2026-04-18T08:48:41Z</time></trkpt><trkpt lat="45.468410666561134" lon="11.508804552776068"><ele>47.0</ele><time>2026-04-18T08:48:42Z</time></trkpt><trkpt lat="45.46848549323707" lon="11.508893668210787"><ele>47.0</ele><time>2026-04-18T08:48:43Z</time></trkpt><trkpt lat="45.46856586694748" lon="11.508964052813463"><ele>47.0</ele><time>2026-04-18T08:48:44Z</time></trkpt><trkpt lat="45.46865503152665" lon="11.509027683159777"><ele>47.0</ele><time>2026-04-18T08:48:45Z</time></trkpt><trkpt lat="45.4687478120686" lon="11.509101446386868"><ele>46.2</ele><time>2026-04-18T08:48:46Z</time></trkpt><trkpt lat="45.46884286645886" lon="11.50918069718947"><ele>45.400000000000006</ele><time>2026-04-18T08:48:47Z</time></trkpt><trkpt lat="45.46893683403592" lon="11.509261801735388"><ele>44.599999999999994</ele><time>2026-04-18T08:48:48Z</time></trkpt><trkpt lat="45.46902405134703" lon="11.509353128644078"><ele>43.8</ele><time>2026-04-18T08:48:49Z</time></trkpt><trkpt lat="45.469115031053406" lon="11.509454443946561"><ele>43.0</ele><time>2026-04-18T08:48:50Z</time></trkpt><trkpt lat="45.46921417064996" lon="11.509552524128527"><ele>41.5</ele><time>2026-04-18T08:48:51Z</time></trkpt><trkpt lat="45.46932332572987" lon="11.509645991723634"><ele>40.0</ele><time>2026-04-18T08:48:52Z</time></trkpt><trkpt lat="45.469448228899076" lon="11.509720224514837"><ele>38.5</ele><time>2026-04-18T08:48:53Z</time></trkpt><trkpt lat="45.46958582194637" lon="11.509794919869448"><ele>37.0</ele><time>2026-04-18T08:48:54Z</time></trkpt><trkpt lat="45.46971518027801" lon="11.509845399628139"><ele>37.0</ele><time>2026-04-18T08:48:55Z</time></trkpt><trkpt lat="45.46983290484916" lon="11.509891366884542"><ele>37.0</ele><time>2026-04-18T08:48:56Z</time></trkpt><trkpt lat="45.46995234027106" lon="11.509908495023184"><ele>37.0</ele><time>2026-04-18T08:48:57Z</time></trkpt><trkpt lat="45.47007244782306" lon="11.509902602388284"><ele>37.0</ele><time>2026-04-18T08:48:58Z</time></trkpt><trkpt lat="45.47019394788515" lon="11.509877558179946"><ele>37.0</ele><time>2026-04-18T08:48:59Z</time></trkpt><trkpt lat="45.470309519843454" lon="11.509819018186498"><ele>37.0</ele><time>2026-04-18T08:49:00Z</time></trkpt><trkpt lat="45.470398132276266" lon="11.509713738495837"><ele>37.0</ele><time>2026-04-18T08:49:01Z</time></trkpt><trkpt lat="45.47046979557995" lon="11.509580960354606"><ele>37.0</ele><time>2026-04-18T08:49:02Z</time></trkpt><trkpt lat="45.47053529109357" lon="11.509440985740419"><ele>37.0</ele><time>2026-04-18T08:49:03Z</time></trkpt><trkpt lat="45.47062487441474" lon="11.509297845253187"><ele>37.0</ele><time>2026-04-18T08:49:04Z</time></trkpt><trkpt lat="45.470764376972944" lon="11.509161608731205"><ele>37.0</ele><time>2026-04-18T08:49:05Z</time></trkpt><trkpt lat="45.4709292107138" lon="11.509041389252642"><ele>37.0</ele><time>2026-04-18T08:49:06Z</time></trkpt><trkpt lat="45.47109387630086" lon="11.50893371291148"><ele>37.0</ele><time>2026-04-18T08:49:07Z</time></trkpt><trkpt lat="45.47125328170998" lon="11.508839040933756"><ele>37.0</ele><time>2026-04-18T08:49:08Z</time></trkpt><trkpt lat="45.47140741686767" lon="11.508757855704841"><ele>37.5</ele><time>2026-04-18T08:49:09Z</time></trkpt><trkpt lat="45.47155079104388" lon="11.508716804007598"><ele>38.0</ele><time>2026-04-18T08:49:10Z</time></trkpt><trkpt lat="45.47168818199429" lon="11.508657717986239"><ele>38.5</ele><time>2026-04-18T08:49:11Z</time></trkpt><trkpt lat="45.47180018127575" lon="11.508640226633261"><ele>39.0</ele><time>2026-04-18T08:49:12Z</time></trkpt><trkpt lat="45.471911692058185" lon="11.508666908741834"><ele>39.0</ele><time>2026-04-18T08:49:13Z</time></trkpt><trkpt lat="45.472025899653374" lon="11.508742038127677"><ele>39.0</ele><time>2026-04-18T08:49:14Z</time></trkpt><trkpt lat="45.47215421558594" lon="11.508865342281203"><ele>39.0</ele><time>2026-04-18T08:49:15Z</time></trkpt><trkpt lat="45.47229867655209" lon="11.508981893698845"><ele>39.0</ele><time>2026-04-18T08:49:16Z</time></trkpt><trkpt lat="45.47242562771315" lon="11.509082487356213"><ele>36.333333333333336</ele><time>2026-04-18T08:49:17Z</time></trkpt><trkpt lat="45.47255827538613" lon="11.509187770851936"><ele>33.66666666666667</ele><time>2026-04-18T08:49:18Z</time></trkpt><trkpt lat="45.472702252145616" lon="11.509303911125809"><ele>31.0</ele><time>2026-04-18T08:49:19Z</time></trkpt><trkpt lat="45.47284090551539" lon="11.509408556618393"><ele>31.333333333333336</ele><time>2026-04-18T08:49:20Z</time></trkpt><trkpt lat="45.473005661128326" lon="11.50951422549373"><ele>31.666666666666664</ele><time>2026-04-18T08:49:21Z</time></trkpt><trkpt lat="45.473182737391404" lon="11.50959466604837"><ele>32.0</ele><time>2026-04-18T08:49:22Z</time></trkpt><trkpt lat="45.47337548702175" lon="11.509706289834941"><ele>32.0</ele><time>2026-04-18T08:49:23Z</time></trkpt><trkpt lat="45.473574817522156" lon="11.509848058784376"><ele>32.0</ele><time>2026-04-18T08:49:24Z</time></trkpt><trkpt lat="45.47378333199654" lon="11.509944118508793"><ele>32.0</ele><time>2026-04-18T08:49:25Z</time></trkpt><trkpt lat="45.473988308837875" lon="11.510083724822316"><ele>31.0</ele><time>2026-04-18T08:49:26Z</time></trkpt><trkpt lat="45.47419342586329" lon="11.510200696942512"><ele>30.0</ele><time>2026-04-18T08:49:27Z</time></trkpt><trkpt lat="45.47440468640225" lon="11.510322397177351"><ele>29.0</ele><time>2026-04-18T08:49:28Z</time></trkpt><trkpt lat="45.47459964520863" lon="11.510432683919536"><ele>30.0</ele><time>2026-04-18T08:49:29Z</time></trkpt><trkpt lat="45.474785865050336" lon="11.510532541685482"><ele>31.0</ele><time>2026-04-18T08:49:30Z</time></trkpt><trkpt lat="45.47497683636342" lon="11.510633384668497"><ele>32.0</ele><time>2026-04-18T08:49:31Z</time></trkpt><trkpt lat="45.475164553031036" lon="11.510733270165156"><ele>32.0</ele><time>2026-04-18T08:49:32Z</time></trkpt><trkpt lat="45.47535187556828" lon="11.510834526743489"><ele>32.0</ele><time>2026-04-18T08:49:33Z</time></trkpt><trkpt lat="45.47549126326736" lon="11.510909872243447"><ele>32.0</ele><time>2026-04-18T08:49:34Z</time></trkpt><trkpt lat="45.47561190734829" lon="11.51097668940505"><ele>33.0</ele><time>2026-04-18T08:49:35Z</time></trkpt><trkpt lat="45.475742779218635" lon="11.51105159212172"><ele>34.0</ele><time>2026-04-18T08:49:36Z</time></trkpt><trkpt lat="45.47585345117204" lon="11.511115638489876"><ele>35.0</ele><time>2026-04-18T08:49:37Z</time></trkpt><trkpt lat="45.47598983314115" lon="11.511192224571674"><ele>36.0</ele><time>2026-04-18T08:49:38Z</time></trkpt><trkpt lat="45.47613455196945" lon="11.511273491797954"><ele>35.0</ele><time>2026-04-18T08:49:39Z</time></trkpt><trkpt lat="45.47623988005098" lon="11.511332017727764"><ele>34.0</ele><time>2026-04-18T08:49:40Z</time></trkpt><trkpt lat="45.47636800044957" lon="11.511381350329746"><ele>33.0</ele><time>2026-04-18T08:49:41Z</time></trkpt><trkpt lat="45.47649429328303" lon="11.511447837227854"><ele>32.0</ele><time>2026-04-18T08:49:42Z</time></trkpt><trkpt lat="45.476618302008895" lon="11.511504226487691"><ele>32.0</ele><time>2026-04-18T08:49:43Z</time></trkpt><trkpt lat="45.47673722966237" lon="11.511535306456585"><ele>32.0</ele><time>2026-04-18T08:49:44Z</time></trkpt><trkpt lat="45.47685705657746" lon="11.511584242554383"><ele>32.0</ele><time>2026-04-18T08:49:45Z</time></trkpt><trkpt lat="45.47699121550308" lon="11.511612682152808"><ele>32.0</ele><time>2026-04-18T08:49:46Z</time></trkpt><trkpt lat="45.477128466193996" lon="11.511640185717479"><ele>33.5</ele><time>2026-04-18T08:49:47Z</time></trkpt><trkpt lat="45.477263053872406" lon="11.511681485577192"><ele>35.0</ele><time>2026-04-18T08:49:48Z</time></trkpt><trkpt lat="45.47737209987492" lon="11.511746439515933"><ele>36.5</ele><time>2026-04-18T08:49:49Z</time></trkpt><trkpt lat="45.47750311912395" lon="11.511841282122813"><ele>38.0</ele><time>2026-04-18T08:49:50Z</time></trkpt><trkpt lat="45.477613860957305" lon="11.511945328304986"><ele>38.0</ele><time>2026-04-18T08:49:51Z</time></trkpt><trkpt lat="45.47772010726911" lon="11.512043798998116"><ele>38.0</ele><time>2026-04-18T08:49:52Z</time></trkpt><trkpt lat="45.47783633524626" lon="11.512143777233153"><ele>38.0</ele><time>2026-04-18T08:49:53Z</time></trkpt><trkpt lat="45.477949275990575" lon="11.512237182772092"><ele>38.0</ele><time>2026-04-18T08:49:54Z</time></trkpt><trkpt lat="45.478070207065834" lon="11.512336360822657"><ele>36.5</ele><time>2026-04-18T08:49:55Z</time></trkpt><trkpt lat="45.47818472051783" lon="11.512430275687448"><ele>35.0</ele><time>2026-04-18T08:49:56Z</time></trkpt><trkpt lat="45.47830559299293" lon="11.512519250387351"><ele>33.5</ele><time>2026-04-18T08:49:57Z</time></trkpt><trkpt lat="45.4784218780081" lon="11.51256822570123"><ele>32.0</ele><time>2026-04-18T08:49:58Z</time></trkpt><trkpt lat="45.47856112368641" lon="11.512662112856278"><ele>32.0</ele><time>2026-04-18T08:49:59Z</time></trkpt><trkpt lat="45.47868800989723" lon="11.512764334925333"><ele>32.0</ele><time>2026-04-18T08:50:00Z</time></trkpt><trkpt lat="45.47880464720388" lon="11.512870048359929"><ele>32.0</ele><time>2026-04-18T08:50:01Z</time></trkpt><trkpt lat="45.478921162460324" lon="11.513000871003367"><ele>32.0</ele><time>2026-04-18T08:50:02.001Z</time></trkpt><trkpt lat="45.479039440652016" lon="11.513109581603095"><ele>31.75</ele><time>2026-04-18T08:50:03.001Z</time></trkpt><trkpt lat="45.47915025062941" lon="11.513206573662568"><ele>31.5</ele><time>2026-04-18T08:50:04.001Z</time></trkpt><trkpt lat="45.47927073335107" lon="11.513281887552756"><ele>31.25</ele><time>2026-04-18T08:50:05.001Z</time></trkpt><trkpt lat="45.47942333594942" lon="11.513320974131782"><ele>31.0</ele><time>2026-04-18T08:50:06.001Z</time></trkpt><trkpt lat="45.47957035220712" lon="11.513381043887177"><ele>31.75</ele><time>2026-04-18T08:50:07.001Z</time></trkpt><trkpt lat="45.47972245955907" lon="11.51342163988478"><ele>32.5</ele><time>2026-04-18T08:50:08.001Z</time></trkpt><trkpt lat="45.4798632876133" lon="11.513471834397075"><ele>33.25</ele><time>2026-04-18T08:50:09.001Z</time></trkpt><trkpt lat="45.47997867842938" lon="11.513557002294187"><ele>34.0</ele><time>2026-04-18T08:50:10.001Z</time></trkpt><trkpt lat="45.4800957053759" lon="11.513664569326465"><ele>35.333333333333336</ele><time>2026-04-18T08:50:11.001Z</time></trkpt><trkpt lat="45.48022285203647" lon="11.513825161799808"><ele>36.666666666666664</ele><time>2026-04-18T08:50:12.001Z</time></trkpt><trkpt lat="45.48035388837363" lon="11.514016912243036"><ele>38.0</ele><time>2026-04-18T08:50:13.001Z</time></trkpt><trkpt lat="45.480485327746024" lon="11.514203273727484"><ele>38.0</ele><time>2026-04-18T08:50:14.001Z</time></trkpt><trkpt lat="45.48059785758674" lon="11.514361310971752"><ele>38.0</ele><time>2026-04-18T08:50:15.001Z</time></trkpt><trkpt lat="45.48072335462386" lon="11.514521030141776"><ele>38.0</ele><time>2026-04-18T08:50:16.001Z</time></trkpt><trkpt lat="45.48087184182369" lon="11.51465631111352"><ele>39.0</ele><time>2026-04-18T08:50:17.001Z</time></trkpt><trkpt lat="45.48102182481529" lon="11.51481025997445"><ele>40.0</ele><time>2026-04-18T08:50:18.001Z</time></trkpt><trkpt lat="45.481176307789845" lon="11.51495844726924"><ele>41.0</ele><time>2026-04-18T08:50:19.001Z</time></trkpt><trkpt lat="45.48133756518344" lon="11.515094205032886"><ele>41.0</ele><time>2026-04-18T08:50:20.001Z</time></trkpt><trkpt lat="45.48151299793144" lon="11.515192289895506"><ele>41.0</ele><time>2026-04-18T08:50:21.001Z</time></trkpt><trkpt lat="45.481672689147" lon="11.515273576140508"><ele>41.0</ele><time>2026-04-18T08:50:22.001Z</time></trkpt><trkpt lat="45.481817953872124" lon="11.515382656106821"><ele>43.0</ele><time>2026-04-18T08:50:23.001Z</time></trkpt><trkpt lat="45.481967396176685" lon="11.51547363689658"><ele>45.0</ele><time>2026-04-18T08:50:24.001Z</time></trkpt><trkpt lat="45.48211567748092" lon="11.515560418407025"><ele>47.0</ele><time>2026-04-18T08:50:25.001Z</time></trkpt><trkpt lat="45.482221945812135" lon="11.515727564838183"><ele>47.0</ele><time>2026-04-18T08:50:26.001Z</time></trkpt><trkpt lat="45.482311795071034" lon="11.515914502718347"><ele>47.0</ele><time>2026-04-18T08:50:27.001Z</time></trkpt><trkpt lat="45.48238661540809" lon="11.516102180633315"><ele>47.0</ele><time>2026-04-18T08:50:28.001Z</time></trkpt><trkpt lat="45.48247523187521" lon="11.516291173103859"><ele>41.33333333333333</ele><time>2026-04-18T08:50:29.001Z</time></trkpt><trkpt lat="45.482569772071685" lon="11.516446286555913"><ele>35.666666666666664</ele><time>2026-04-18T08:50:30.001Z</time></trkpt><trkpt lat="45.482705439309406" lon="11.516558718461075"><ele>30.0</ele><time>2026-04-18T08:50:31.001Z</time></trkpt><trkpt lat="45.48285907695595" lon="11.516656863053624"><ele>30.25</ele><time>2026-04-18T08:50:32.001Z</time></trkpt><trkpt lat="45.482988437138395" lon="11.516748504241603"><ele>30.5</ele><time>2026-04-18T08:50:33.001Z</time></trkpt><trkpt lat="45.48310116681829" lon="11.516849351194448"><ele>30.75</ele><time>2026-04-18T08:50:34.001Z</time></trkpt><trkpt lat="45.483181914780204" lon="11.516992110103063"><ele>31.0</ele><time>2026-04-18T08:50:35.001Z</time></trkpt><trkpt lat="45.48327413085094" lon="11.517107052890728"><ele>31.0</ele><time>2026-04-18T08:50:36.001Z</time></trkpt><trkpt lat="45.483349350002406" lon="11.517239896673484"><ele>31.0</ele><time>2026-04-18T08:50:37.001Z</time></trkpt><trkpt lat="45.483433941570986" lon="11.517368363685797"><ele>31.0</ele><time>2026-04-18T08:50:38.001Z</time></trkpt><trkpt lat="45.48351738232933" lon="11.517500594626599"><ele>31.0</ele><time>2026-04-18T08:50:39.001Z</time></trkpt><trkpt lat="45.4835974604344" lon="11.517622885718923"><ele>31.0</ele><time>2026-04-18T08:50:40.001Z</time></trkpt><trkpt lat="45.48367830006931" lon="11.51775468779537"><ele>31.0</ele><time>2026-04-18T08:50:41.001Z</time></trkpt><trkpt lat="45.483750374836255" lon="11.517887554590947"><ele>31.0</ele><time>2026-04-18T08:50:42.001Z</time></trkpt><trkpt lat="45.4838319607076" lon="11.517990490688842"><ele>31.0</ele><time>2026-04-18T08:50:43.001Z</time></trkpt><trkpt lat="45.48390687858527" lon="11.518105913810565"><ele>32.75</ele><time>2026-04-18T08:50:44.001Z</time></trkpt><trkpt lat="45.48401843146357" lon="11.518202504878452"><ele>34.5</ele><time>2026-04-18T08:50:45.001Z</time></trkpt><trkpt lat="45.484131935619786" lon="11.518291468811476"><ele>36.25</ele><time>2026-04-18T08:50:46Z</time></trkpt><trkpt lat="45.484244464095184" lon="11.518398946481346"><ele>38.0</ele><time>2026-04-18T08:50:47Z</time></trkpt><trkpt lat="45.484347245257965" lon="11.518511917463158"><ele>38.0</ele><time>2026-04-18T08:50:48Z</time></trkpt><trkpt lat="45.48444667655922" lon="11.518625159151922"><ele>38.0</ele><time>2026-04-18T08:50:49Z</time></trkpt><trkpt lat="45.48453551029409" lon="11.518736906950071"><ele>38.0</ele><time>2026-04-18T08:50:50Z</time></trkpt><trkpt lat="45.48462988220396" lon="11.518864473396427"><ele>38.0</ele><time>2026-04-18T08:50:51Z</time></trkpt><trkpt lat="45.48470985836127" lon="11.518983081724683"><ele>39.0</ele><time>2026-04-18T08:50:52Z</time></trkpt><trkpt lat="45.48477052484349" lon="11.519128717857026"><ele>40.0</ele><time>2026-04-18T08:50:53Z</time></trkpt><trkpt lat="45.48482796702299" lon="11.519280037371084"><ele>41.0</ele><time>2026-04-18T08:50:54Z</time></trkpt><trkpt lat="45.48488243658538" lon="11.519438308412436"><ele>42.0</ele><time>2026-04-18T08:50:55Z</time></trkpt><trkpt lat="45.4849471679554" lon="11.519596884213868"><ele>39.25</ele><time>2026-04-18T08:50:56Z</time></trkpt><trkpt lat="45.4850408515869" lon="11.51973451108946"><ele>36.5</ele><time>2026-04-18T08:50:57Z</time></trkpt><trkpt lat="45.48514693244164" lon="11.519858016774663"><ele>33.75</ele><time>2026-04-18T08:50:58Z</time></trkpt><trkpt lat="45.48524385005348" lon="11.5199680079643"><ele>31.0</ele><time>2026-04-18T08:50:59Z</time></trkpt><trkpt lat="45.485322946251" lon="11.520073826190602"><ele>31.000000000000004</ele><time>2026-04-18T08:51:00Z</time></trkpt><trkpt lat="45.48540759469928" lon="11.520184993778"><ele>31.0</ele><time>2026-04-18T08:51:01Z</time></trkpt><trkpt lat="45.485465874708744" lon="11.52029356093347"><ele>31.0</ele><time>2026-04-18T08:51:02Z</time></trkpt><trkpt lat="45.4855158441014" lon="11.520393513696861"><ele>31.0</ele><time>2026-04-18T08:51:03Z</time></trkpt><trkpt lat="45.485544108082145" lon="11.52050391857548"><ele>31.000000000000004</ele><time>2026-04-18T08:51:04Z</time></trkpt><trkpt lat="45.4855743488445" lon="11.5205869590201"><ele>31.0</ele><time>2026-04-18T08:51:05Z</time></trkpt><trkpt lat="45.48560519342738" lon="11.520665747462651"><ele>32.142857142857146</ele><time>2026-04-18T08:51:06Z</time></trkpt><trkpt lat="45.485600934861154" lon="11.520771704693388"><ele>33.28571428571429</ele><time>2026-04-18T08:51:07Z</time></trkpt><trkpt lat="45.48560325094684" lon="11.52087987032159"><ele>34.42857142857143</ele><time>2026-04-18T08:51:08Z</time></trkpt><trkpt lat="45.48561817842254" lon="11.520968623731038"><ele>35.57142857142857</ele><time>2026-04-18T08:51:09Z</time></trkpt><trkpt lat="45.4856237462471" lon="11.52106503999532"><ele>36.71428571428571</ele><time>2026-04-18T08:51:10Z</time></trkpt><trkpt lat="45.485611690141226" lon="11.521157808610544"><ele>37.85714285714286</ele><time>2026-04-18T08:51:11Z</time></trkpt><trkpt lat="45.485621616799385" lon="11.521248237662473"><ele>39.0</ele><time>2026-04-18T08:51:12Z</time></trkpt><trkpt lat="45.4856425134974" lon="11.521359390638176"><ele>39.0</ele><time>2026-04-18T08:51:13Z</time></trkpt><trkpt lat="45.48569300044058" lon="11.52151424477116"><ele>39.0</ele><time>2026-04-18T08:51:14Z</time></trkpt><trkpt lat="45.48576089112253" lon="11.521684600362711"><ele>39.0</ele><time>2026-04-18T08:51:15Z</time></trkpt><trkpt lat="45.48581404033455" lon="11.521820454509989"><ele>39.0</ele><time>2026-04-18T08:51:16Z</time></trkpt><trkpt lat="45.485854904339654" lon="11.521959164624874"><ele>37.75</ele><time>2026-04-18T08:51:17Z</time></trkpt><trkpt lat="45.48587666389163" lon="11.522114596380796"><ele>36.5</ele><time>2026-04-18T08:51:18Z</time></trkpt><trkpt lat="45.485915837156035" lon="11.522272566382268"><ele>35.25</ele><time>2026-04-18T08:51:19Z</time></trkpt><trkpt lat="45.48593168042243" lon="11.522437871315983"><ele>34.0</ele><time>2026-04-18T08:51:20Z</time></trkpt><trkpt lat="45.485961355202726" lon="11.52260276296626"><ele>34.0</ele><time>2026-04-18T08:51:21Z</time></trkpt><trkpt lat="45.48599663546061" lon="11.522783810449866"><ele>34.0</ele><time>2026-04-18T08:51:22Z</time></trkpt><trkpt lat="45.48602466332665" lon="11.522982293399382"><ele>34.0</ele><time>2026-04-18T08:51:23Z</time></trkpt><trkpt lat="45.486053740622935" lon="11.523144859430975"><ele>34.0</ele><time>2026-04-18T08:51:24Z</time></trkpt><trkpt lat="45.486089007397425" lon="11.523308711285951"><ele>33.0</ele><time>2026-04-18T08:51:25Z</time></trkpt><trkpt lat="45.486124040751854" lon="11.52346825085266"><ele>32.0</ele><time>2026-04-18T08:51:26Z</time></trkpt><trkpt lat="45.486161037555775" lon="11.523629343283286"><ele>31.0</ele><time>2026-04-18T08:51:27Z</time></trkpt><trkpt lat="45.486204861452336" lon="11.523807129097795"><ele>30.0</ele><time>2026-04-18T08:51:28Z</time></trkpt><trkpt lat="45.48625272766434" lon="11.52398766875768"><ele>35.0</ele><time>2026-04-18T08:51:29Z</time></trkpt><trkpt lat="45.48629940549192" lon="11.524167123599902"><ele>40.0</ele><time>2026-04-18T08:51:30Z</time></trkpt><trkpt lat="45.48633992471193" lon="11.524335994961348"><ele>45.0</ele><time>2026-04-18T08:51:31Z</time></trkpt><trkpt lat="45.48638833427186" lon="11.524527176803323"><ele>50.0</ele><time>2026-04-18T08:51:32Z</time></trkpt><trkpt lat="45.48642323776811" lon="11.524701173850637"><ele>50.0</ele><time>2026-04-18T08:51:33Z</time></trkpt><trkpt lat="45.48646923059365" lon="11.524847943957758"><ele>50.0</ele><time>2026-04-18T08:51:34Z</time></trkpt><trkpt lat="45.48650822102663" lon="11.525003997570105"><ele>50.0</ele><time>2026-04-18T08:51:35Z</time></trkpt><trkpt lat="45.486537457548145" lon="11.525174884988099"><ele>50.0</ele><time>2026-04-18T08:51:36Z</time></trkpt><trkpt lat="45.4865700591434" lon="11.525353623972547"><ele>47.75</ele><time>2026-04-18T08:51:37Z</time></trkpt><trkpt lat="45.48659850075555" lon="11.525533680114295"><ele>45.5</ele><time>2026-04-18T08:51:38Z</time></trkpt><trkpt lat="45.48662474147763" lon="11.525707855480027"><ele>43.25</ele><time>2026-04-18T08:51:39Z</time></trkpt><trkpt lat="45.48663964560814" lon="11.52586948816811"><ele>41.0</ele><time>2026-04-18T08:51:40Z</time></trkpt><trkpt lat="45.48664814070748" lon="11.526021786696703"><ele>41.0</ele><time>2026-04-18T08:51:41Z</time></trkpt><trkpt lat="45.486665433396276" lon="11.526168155335132"><ele>41.0</ele><time>2026-04-18T08:51:42Z</time></trkpt><trkpt lat="45.486703326504525" lon="11.526318611993133"><ele>41.0</ele><time>2026-04-18T08:51:43Z</time></trkpt><trkpt lat="45.486740231380146" lon="11.52648025913179"><ele>41.0</ele><time>2026-04-18T08:51:44Z</time></trkpt><trkpt lat="45.48676192168651" lon="11.526661180286423"><ele>40.5</ele><time>2026-04-18T08:51:45Z</time></trkpt><trkpt lat="45.48676404901897" lon="11.526839748017357"><ele>40.0</ele><time>2026-04-18T08:51:46Z</time></trkpt><trkpt lat="45.48675926455049" lon="11.527010787153012"><ele>39.5</ele><time>2026-04-18T08:51:47Z</time></trkpt><trkpt lat="45.48676079055409" lon="11.527175824775464"><ele>39.0</ele><time>2026-04-18T08:51:48Z</time></trkpt><trkpt lat="45.48677437348322" lon="11.527341263898698"><ele>38.0</ele><time>2026-04-18T08:51:49Z</time></trkpt><trkpt lat="45.486785599956434" lon="11.527503437285539"><ele>37.0</ele><time>2026-04-18T08:51:50Z</time></trkpt><trkpt lat="45.486810198095576" lon="11.527658110842907"><ele>36.0</ele><time>2026-04-18T08:51:51Z</time></trkpt><trkpt lat="45.486831099417465" lon="11.52781524006053"><ele>35.0</ele><time>2026-04-18T08:51:52Z</time></trkpt><trkpt lat="45.48684844469246" lon="11.527973648369066"><ele>34.2</ele><time>2026-04-18T08:51:53Z</time></trkpt><trkpt lat="45.48685702133639" lon="11.528127871353346"><ele>33.4</ele><time>2026-04-18T08:51:54Z</time></trkpt><trkpt lat="45.48686249948556" lon="11.528267489774915"><ele>32.6</ele><time>2026-04-18T08:51:55Z</time></trkpt><trkpt lat="45.486877084634834" lon="11.528392191386969"><ele>31.8</ele><time>2026-04-18T08:51:56Z</time></trkpt><trkpt lat="45.48690565553872" lon="11.528506997923579"><ele>31.0</ele><time>2026-04-18T08:51:57Z</time></trkpt><trkpt lat="45.48694005044558" lon="11.528621605483579"><ele>30.6</ele><time>2026-04-18T08:51:58Z</time></trkpt><trkpt lat="45.48698006737082" lon="11.528739560216778"><ele>30.200000000000003</ele><time>2026-04-18T08:51:59Z</time></trkpt><trkpt lat="45.487026024237586" lon="11.528871150708026"><ele>29.799999999999997</ele><time>2026-04-18T08:52:00Z</time></trkpt><trkpt lat="45.48706478002041" lon="11.529014308428874"><ele>29.4</ele><time>2026-04-18T08:52:01Z</time></trkpt><trkpt lat="45.48710247417066" lon="11.529168489864995"><ele>29.0</ele><time>2026-04-18T08:52:02Z</time></trkpt><trkpt lat="45.487136843014106" lon="11.529323104871976"><ele>31.6</ele><time>2026-04-18T08:52:03.001Z</time></trkpt><trkpt lat="45.487167726573475" lon="11.529472818740496"><ele>34.2</ele><time>2026-04-18T08:52:04.001Z</time></trkpt><trkpt lat="45.48719791611908" lon="11.529620069113685"><ele>36.800000000000004</ele><time>2026-04-18T08:52:05.001Z</time></trkpt><trkpt lat="45.487228360444426" lon="11.529766675650365"><ele>39.4</ele><time>2026-04-18T08:52:06.001Z</time></trkpt><trkpt lat="45.48726473686828" lon="11.529920584220553"><ele>42.0</ele><time>2026-04-18T08:52:07.001Z</time></trkpt><trkpt lat="45.48731674651914" lon="11.530076839855376"><ele>42.0</ele><time>2026-04-18T08:52:08.001Z</time></trkpt><trkpt lat="45.48736852197699" lon="11.53023697123396"><ele>42.0</ele><time>2026-04-18T08:52:09.001Z</time></trkpt><trkpt lat="45.48741452416008" lon="11.530375464927069"><ele>42.0</ele><time>2026-04-18T08:52:10.001Z</time></trkpt><trkpt lat="45.48745289567639" lon="11.530509863097482"><ele>42.0</ele><time>2026-04-18T08:52:11.001Z</time></trkpt><trkpt lat="45.48748640719466" lon="11.530639734196116"><ele>42.0</ele><time>2026-04-18T08:52:12.001Z</time></trkpt><trkpt lat="45.48750414654504" lon="11.530767791185395"><ele>40.6</ele><time>2026-04-18T08:52:13.001Z</time></trkpt><trkpt lat="45.48752537103447" lon="11.530901817979284"><ele>39.2</ele><time>2026-04-18T08:52:14.001Z</time></trkpt><trkpt lat="45.48753944845077" lon="11.53103931313805"><ele>37.8</ele><time>2026-04-18T08:52:15.001Z</time></trkpt><trkpt lat="45.487543779221" lon="11.53117879416915"><ele>36.4</ele><time>2026-04-18T08:52:16.001Z</time></trkpt><trkpt lat="45.48754669417399" lon="11.53132644276068"><ele>35.0</ele><time>2026-04-18T08:52:17.001Z</time></trkpt><trkpt lat="45.487552383571575" lon="11.531500722960775"><ele>33.33333333333333</ele><time>2026-04-18T08:52:18.001Z</time></trkpt><trkpt lat="45.487557374753244" lon="11.531691526765501"><ele>31.666666666666664</ele><time>2026-04-18T08:52:19.001Z</time></trkpt><trkpt lat="45.48755240695123" lon="11.53192724862822"><ele>30.0</ele><time>2026-04-18T08:52:20.001Z</time></trkpt><trkpt lat="45.48756556995934" lon="11.532224144674142"><ele>26.0</ele><time>2026-04-18T08:52:21.001Z</time></trkpt><trkpt lat="45.4875904577684" lon="11.532561824763304"><ele>22.0</ele><time>2026-04-18T08:52:22.001Z</time></trkpt><trkpt lat="45.48762227649359" lon="11.532937217864928"><ele>21.0</ele><time>2026-04-18T08:52:23.001Z</time></trkpt><trkpt lat="45.48765423712398" lon="11.533314038247171"><ele>20.0</ele><time>2026-04-18T08:52:24.001Z</time></trkpt><trkpt lat="45.48768992677701" lon="11.533644770384848"><ele>20.0</ele><time>2026-04-18T08:52:25.001Z</time></trkpt><trkpt lat="45.487727114689406" lon="11.53395719131087"><ele>20.0</ele><time>2026-04-18T08:52:26.001Z</time></trkpt><trkpt lat="45.48776953034412" lon="11.53425017405186"><ele>20.0</ele><time>2026-04-18T08:52:27.001Z</time></trkpt><trkpt lat="45.487835997057886" lon="11.534544760402005"><ele>20.5</ele><time>2026-04-18T08:52:28.001Z</time></trkpt><trkpt lat="45.48789638170546" lon="11.53486792399222"><ele>21.0</ele><time>2026-04-18T08:52:29.001Z</time></trkpt><trkpt lat="45.487957678255384" lon="11.535232281760052"><ele>22.5</ele><time>2026-04-18T08:52:30.001Z</time></trkpt><trkpt lat="45.48804008013957" lon="11.535609695933905"><ele>24.0</ele><time>2026-04-18T08:52:31.001Z</time></trkpt><trkpt lat="45.48812426295679" lon="11.535946354401919"><ele>24.666666666666664</ele><time>2026-04-18T08:52:32.001Z</time></trkpt><trkpt lat="45.488205099510445" lon="11.536255983467118"><ele>25.333333333333332</ele><time>2026-04-18T08:52:33.001Z</time></trkpt><trkpt lat="45.488290758652866" lon="11.536522481974126"><ele>26.0</ele><time>2026-04-18T08:52:34.001Z</time></trkpt><trkpt lat="45.48835671845668" lon="11.536809884010225"><ele>26.0</ele><time>2026-04-18T08:52:35.001Z</time></trkpt><trkpt lat="45.48843828679386" lon="11.537131985765603"><ele>26.0</ele><time>2026-04-18T08:52:36.001Z</time></trkpt><trkpt lat="45.48853367652658" lon="11.537482578546244"><ele>26.0</ele><time>2026-04-18T08:52:37.001Z</time></trkpt><trkpt lat="45.488624043037795" lon="11.537818009163006"><ele>26.0</ele><time>2026-04-18T08:52:38.001Z</time></trkpt><trkpt lat="45.48871400320037" lon="11.538121146869212"><ele>31.666666666666664</ele><time>2026-04-18T08:52:39.001Z</time></trkpt><trkpt lat="45.488799193193465" lon="11.538405682609376"><ele>37.333333333333336</ele><time>2026-04-18T08:52:40.001Z</time></trkpt><trkpt lat="45.48887984708943" lon="11.538677754900203"><ele>43.0</ele><time>2026-04-18T08:52:41.001Z</time></trkpt><trkpt lat="45.48895500705551" lon="11.538954240135658"><ele>43.0</ele><time>2026-04-18T08:52:42.001Z</time></trkpt><trkpt lat="45.48902385636275" lon="11.539214131982394"><ele>43.0</ele><time>2026-04-18T08:52:43.001Z</time></trkpt><trkpt lat="45.48908899620769" lon="11.539449091556655"><ele>43.0</ele><time>2026-04-18T08:52:44.001Z</time></trkpt><trkpt lat="45.48915291371484" lon="11.539676562094423"><ele>40.0</ele><time>2026-04-18T08:52:45.001Z</time></trkpt><trkpt lat="45.48922061006489" lon="11.539915663442736"><ele>37.0</ele><time>2026-04-18T08:52:46.001Z</time></trkpt><trkpt lat="45.48928878112331" lon="11.54017024101"><ele>34.0</ele><time>2026-04-18T08:52:47.001Z</time></trkpt><trkpt lat="45.489333520729055" lon="11.540416943420233"><ele>32.0</ele><time>2026-04-18T08:52:48.001Z</time></trkpt><trkpt lat="45.489380631189974" lon="11.540653953928844"><ele>30.0</ele><time>2026-04-18T08:52:49.001Z</time></trkpt><trkpt lat="45.489439744665766" lon="11.540873712639264"><ele>28.0</ele><time>2026-04-18T08:52:50.001Z</time></trkpt><trkpt lat="45.48949021536417" lon="11.541085581714695"><ele>28.0</ele><time>2026-04-18T08:52:51.001Z</time></trkpt><trkpt lat="45.48955343509481" lon="11.5412722944541"><ele>28.0</ele><time>2026-04-18T08:52:52Z</time></trkpt><trkpt lat="45.4896156946935" lon="11.54148465083877"><ele>28.0</ele><time>2026-04-18T08:52:53Z</time></trkpt><trkpt lat="45.48965136512306" lon="11.541667632629359"><ele>28.0</ele><time>2026-04-18T08:52:54Z</time></trkpt><trkpt lat="45.489680931842436" lon="11.541849052678296"><ele>32.75</ele><time>2026-04-18T08:52:55Z</time></trkpt><trkpt lat="45.489710162734546" lon="11.542026031041297"><ele>37.5</ele><time>2026-04-18T08:52:56Z</time></trkpt><trkpt lat="45.48973903448416" lon="11.54220785063873"><ele>42.25</ele><time>2026-04-18T08:52:57Z</time></trkpt><trkpt lat="45.48976656598048" lon="11.54238122994709"><ele>47.0</ele><time>2026-04-18T08:52:58Z</time></trkpt><trkpt lat="45.48979296900703" lon="11.542547503245943"><ele>47.0</ele><time>2026-04-18T08:52:59Z</time></trkpt><trkpt lat="45.48981763896534" lon="11.54270409327057"><ele>47.0</ele><time>2026-04-18T08:53:00Z</time></trkpt><trkpt lat="45.4898559942301" lon="11.54284383085743"><ele>47.0</ele><time>2026-04-18T08:53:01Z</time></trkpt><trkpt lat="45.48987904749434" lon="11.54297950298426"><ele>47.0</ele><time>2026-04-18T08:53:02Z</time></trkpt><trkpt lat="45.489884883417496" lon="11.543114919805678"><ele>47.0</ele><time>2026-04-18T08:53:03Z</time></trkpt><trkpt lat="45.4899041822083" lon="11.543234184427096"><ele>45.666666666666664</ele><time>2026-04-18T08:53:04Z</time></trkpt><trkpt lat="45.4899164035894" lon="11.543329091691895"><ele>44.33333333333333</ele><time>2026-04-18T08:53:05Z</time></trkpt><trkpt lat="45.48991868490732" lon="11.54342059008157"><ele>43.0</ele><time>2026-04-18T08:53:06Z</time></trkpt><trkpt lat="45.48991754832845" lon="11.543514902235556"><ele>41.666666666666664</ele><time>2026-04-18T08:53:07Z</time></trkpt><trkpt lat="45.48978581686863" lon="11.543577663040287"><ele>40.333333333333336</ele><time>2026-04-18T08:53:09Z</time></trkpt><trkpt lat="45.48967614523916" lon="11.543542641737776"><ele>39.0</ele><time>2026-04-18T08:53:10Z</time></trkpt><trkpt lat="45.489530292831105" lon="11.543497467948695"><ele>34.0</ele><time>2026-04-18T08:53:11Z</time></trkpt><trkpt lat="45.48934690796576" lon="11.54343324672778"><ele>29.0</ele><time>2026-04-18T08:53:12Z</time></trkpt><trkpt lat="45.489154225477705" lon="11.543376522481072"><ele>24.0</ele><time>2026-04-18T08:53:13Z</time></trkpt><trkpt lat="45.488960522967155" lon="11.543307926807827"><ele>24.0</ele><time>2026-04-18T08:53:14Z</time></trkpt><trkpt lat="45.488773579644985" lon="11.54324678042431"><ele>24.0</ele><time>2026-04-18T08:53:15Z</time></trkpt><trkpt lat="45.488597448763656" lon="11.54317212345227"><ele>24.0</ele><time>2026-04-18T08:53:16Z</time></trkpt><trkpt lat="45.488433262010304" lon="11.543107623483257"><ele>23.75</ele><time>2026-04-18T08:53:17Z</time></trkpt><trkpt lat="45.48827907301116" lon="11.543058468619172"><ele>23.5</ele><time>2026-04-18T08:53:18Z</time></trkpt><trkpt lat="45.48814021027398" lon="11.543016200950953"><ele>23.25</ele><time>2026-04-18T08:53:19Z</time></trkpt><trkpt lat="45.48801305634065" lon="11.54296670212878"><ele>23.0</ele><time>2026-04-18T08:53:20Z</time></trkpt><trkpt lat="45.48788709409836" lon="11.542918331207884"><ele>22.75</ele><time>2026-04-18T08:53:21Z</time></trkpt><trkpt lat="45.48776855817713" lon="11.542879962718052"><ele>22.5</ele><time>2026-04-18T08:53:22Z</time></trkpt><trkpt lat="45.48765454969895" lon="11.542838547181576"><ele>22.25</ele><time>2026-04-18T08:53:23Z</time></trkpt><trkpt lat="45.4875355747669" lon="11.542797467112917"><ele>22.0</ele><time>2026-04-18T08:53:24Z</time></trkpt><trkpt lat="45.48741303932932" lon="11.54275388387503"><ele>22.0</ele><time>2026-04-18T08:53:25Z</time></trkpt><trkpt lat="45.487286162567756" lon="11.542710883978597"><ele>22.0</ele><time>2026-04-18T08:53:26Z</time></trkpt><trkpt lat="45.48716100671469" lon="11.542666847922455"><ele>22.0</ele><time>2026-04-18T08:53:27Z</time></trkpt><trkpt lat="45.48704113729545" lon="11.542621295260941"><ele>22.0</ele><time>2026-04-18T08:53:28Z</time></trkpt><trkpt lat="45.48692661982778" lon="11.542577207012231"><ele>22.200000000000003</ele><time>2026-04-18T08:53:29Z</time></trkpt><trkpt lat="45.486821042408714" lon="11.542531545736363"><ele>22.4</ele><time>2026-04-18T08:53:30Z</time></trkpt><trkpt lat="45.48671983016389" lon="11.542490654148741"><ele>22.6</ele><time>2026-04-18T08:53:31Z</time></trkpt><trkpt lat="45.48661837277275" lon="11.542456155278709"><ele>22.799999999999997</ele><time>2026-04-18T08:53:32Z</time></trkpt><trkpt lat="45.4865177000307" lon="11.54242207317226"><ele>23.0</ele><time>2026-04-18T08:53:33Z</time></trkpt><trkpt lat="45.48641025808836" lon="11.542383224008981"><ele>23.0</ele><time>2026-04-18T08:53:34Z</time></trkpt><trkpt lat="45.48628963642746" lon="11.542342477858254"><ele>23.0</ele><time>2026-04-18T08:53:35Z</time></trkpt><trkpt lat="45.48616215262288" lon="11.542300728908454"><ele>23.0</ele><time>2026-04-18T08:53:36Z</time></trkpt><trkpt lat="45.48602430985914" lon="11.54225668440496"><ele>23.0</ele><time>2026-04-18T08:53:37Z</time></trkpt><trkpt lat="45.485873558247114" lon="11.54220331060955"><ele>23.0</ele><time>2026-04-18T08:53:38Z</time></trkpt><trkpt lat="45.485719771359356" lon="11.542140910090227"><ele>23.0</ele><time>2026-04-18T08:53:39Z</time></trkpt><trkpt lat="45.485565168567724" lon="11.542074695601992"><ele>23.0</ele><time>2026-04-18T08:53:40Z</time></trkpt><trkpt lat="45.48541018743617" lon="11.54201388222439"><ele>23.5</ele><time>2026-04-18T08:53:41Z</time></trkpt><trkpt lat="45.48526806879868" lon="11.541961580783216"><ele>24.0</ele><time>2026-04-18T08:53:42Z</time></trkpt><trkpt lat="45.48513575976221" lon="11.54190564936111"><ele>24.5</ele><time>2026-04-18T08:53:43Z</time></trkpt><trkpt lat="45.485016630575316" lon="11.541842333543833"><ele>25.0</ele><time>2026-04-18T08:53:44Z</time></trkpt><trkpt lat="45.48490744100485" lon="11.541776201448277"><ele>25.0</ele><time>2026-04-18T08:53:45Z</time></trkpt><trkpt lat="45.48481102556173" lon="11.541693139712155"><ele>25.0</ele><time>2026-04-18T08:53:46Z</time></trkpt><trkpt lat="45.48472091424018" lon="11.54160227255942"><ele>25.0</ele><time>2026-04-18T08:53:47Z</time></trkpt><trkpt lat="45.48462648640376" lon="11.541495728372013"><ele>25.0</ele><time>2026-04-18T08:53:48Z</time></trkpt><trkpt lat="45.484531470614705" lon="11.541376290609282"><ele>24.75</ele><time>2026-04-18T08:53:49Z</time></trkpt><trkpt lat="45.48444202409445" lon="11.541222672155934"><ele>24.5</ele><time>2026-04-18T08:53:50Z</time></trkpt><trkpt lat="45.484351074935766" lon="11.541057500319996"><ele>24.25</ele><time>2026-04-18T08:53:51Z</time></trkpt><trkpt lat="45.48426650507793" lon="11.54087352908927"><ele>24.0</ele><time>2026-04-18T08:53:52Z</time></trkpt><trkpt lat="45.4842091865813" lon="11.540657738939874"><ele>24.0</ele><time>2026-04-18T08:53:53Z</time></trkpt><trkpt lat="45.48413160708316" lon="11.540450053173558"><ele>24.0</ele><time>2026-04-18T08:53:54Z</time></trkpt><trkpt lat="45.48408054117681" lon="11.54025196535764"><ele>24.0</ele><time>2026-04-18T08:53:55Z</time></trkpt><trkpt lat="45.48402646531259" lon="11.54006954040424"><ele>23.5</ele><time>2026-04-18T08:53:56Z</time></trkpt><trkpt lat="45.483968828308114" lon="11.539898939177307"><ele>23.0</ele><time>2026-04-18T08:53:57Z</time></trkpt><trkpt lat="45.483915635829064" lon="11.539731398764417"><ele>22.5</ele><time>2026-04-18T08:53:58Z</time></trkpt><trkpt lat="45.483865727731036" lon="11.539565420757002"><ele>22.0</ele><time>2026-04-18T08:53:59Z</time></trkpt><trkpt lat="45.48381995043649" lon="11.539402045264945"><ele>22.0</ele><time>2026-04-18T08:54:00Z</time></trkpt><trkpt lat="45.48377157654429" lon="11.539241878854364"><ele>22.0</ele><time>2026-04-18T08:54:01Z</time></trkpt><trkpt lat="45.48372685652713" lon="11.539085726100126"><ele>22.0</ele><time>2026-04-18T08:54:02Z</time></trkpt><trkpt lat="45.48367808386628" lon="11.538921020823693"><ele>22.0</ele><time>2026-04-18T08:54:03Z</time></trkpt><trkpt lat="45.48362576515961" lon="11.538745733778418"><ele>22.25</ele><time>2026-04-18T08:54:04Z</time></trkpt><trkpt lat="45.48356608487608" lon="11.538560337407226"><ele>22.5</ele><time>2026-04-18T08:54:05Z</time></trkpt><trkpt lat="45.483510280684285" lon="11.538377751697363"><ele>22.75</ele><time>2026-04-18T08:54:06Z</time></trkpt><trkpt lat="45.48345839193973" lon="11.538203709244595"><ele>23.0</ele><time>2026-04-18T08:54:07Z</time></trkpt><trkpt lat="45.48340178821568" lon="11.53803551966769"><ele>23.25</ele><time>2026-04-18T08:54:08Z</time></trkpt><trkpt lat="45.483350746565385" lon="11.537861911440528"><ele>23.5</ele><time>2026-04-18T08:54:09Z</time></trkpt><trkpt lat="45.48330305968334" lon="11.537692223950435"><ele>23.75</ele><time>2026-04-18T08:54:10Z</time></trkpt><trkpt lat="45.483248652315154" lon="11.537525951893787"><ele>24.0</ele><time>2026-04-18T08:54:11.001Z</time></trkpt><trkpt lat="45.483180901359134" lon="11.537376784007689"><ele>24.0</ele><time>2026-04-18T08:54:12.001Z</time></trkpt><trkpt lat="45.48310203517522" lon="11.537249711277402"><ele>24.0</ele><time>2026-04-18T08:54:13.001Z</time></trkpt><trkpt lat="45.48301447363874" lon="11.537160585118325"><ele>24.0</ele><time>2026-04-18T08:54:14.001Z</time></trkpt><trkpt lat="45.482923955721596" lon="11.537091552867684"><ele>24.0</ele><time>2026-04-18T08:54:15.001Z</time></trkpt><trkpt lat="45.482838665172274" lon="11.537040618774189"><ele>24.0</ele><time>2026-04-18T08:54:16.001Z</time></trkpt><trkpt lat="45.48275956582813" lon="11.53700645087779"><ele>26.799999999999997</ele><time>2026-04-18T08:54:17.001Z</time></trkpt><trkpt lat="45.48265059710202" lon="11.536965507872246"><ele>29.599999999999998</ele><time>2026-04-18T08:54:19.001Z</time></trkpt><trkpt lat="45.482582360122734" lon="11.536931703954393"><ele>32.4</ele><time>2026-04-18T08:54:21.001Z</time></trkpt><trkpt lat="45.48248725671469" lon="11.536905811442175"><ele>35.199999999999996</ele><time>2026-04-18T08:54:23.001Z</time></trkpt><trkpt lat="45.48238317935674" lon="11.536886819316237"><ele>38.0</ele><time>2026-04-18T08:54:24.001Z</time></trkpt><trkpt lat="45.48226810797296" lon="11.536981794403312"><ele>36.0</ele><time>2026-04-18T08:54:25.001Z</time></trkpt><trkpt lat="45.48211032452324" lon="11.537095485601656"><ele>34.0</ele><time>2026-04-18T08:54:26.001Z</time></trkpt><trkpt lat="45.48190479758857" lon="11.537217413451042"><ele>32.0</ele><time>2026-04-18T08:54:27.001Z</time></trkpt><trkpt lat="45.48167264883489" lon="11.53734504513793"><ele>32.0</ele><time>2026-04-18T08:54:28.001Z</time></trkpt><trkpt lat="45.48141774363923" lon="11.537480739415916"><ele>32.0</ele><time>2026-04-18T08:54:29.001Z</time></trkpt><trkpt lat="45.48117510653349" lon="11.537619250640654"><ele>42.0</ele><time>2026-04-18T08:54:30.001Z</time></trkpt><trkpt lat="45.48094748730985" lon="11.537738289830498"><ele>52.0</ele><time>2026-04-18T08:54:31.001Z</time></trkpt><trkpt lat="45.48074855719702" lon="11.537856589907134"><ele>51.666666666666664</ele><time>2026-04-18T08:54:32.001Z</time></trkpt><trkpt lat="45.48056600264003" lon="11.537988068209007"><ele>51.33333333333333</ele><time>2026-04-18T08:54:33.001Z</time></trkpt><trkpt lat="45.48038174962498" lon="11.538137482744634"><ele>51.0</ele><time>2026-04-18T08:54:34.001Z</time></trkpt><trkpt lat="45.48019543809992" lon="11.53830037638281"><ele>51.0</ele><time>2026-04-18T08:54:35.001Z</time></trkpt><trkpt lat="45.480015016743856" lon="11.538491655559657"><ele>51.0</ele><time>2026-04-18T08:54:36.001Z</time></trkpt><trkpt lat="45.47983803631939" lon="11.538677713064127"><ele>51.0</ele><time>2026-04-18T08:54:37.001Z</time></trkpt><trkpt lat="45.47966870502748" lon="11.538853720147811"><ele>50.33333333333333</ele><time>2026-04-18T08:54:38.001Z</time></trkpt><trkpt lat="45.479514477139766" lon="11.539017580232244"><ele>49.666666666666664</ele><time>2026-04-18T08:54:39.001Z</time></trkpt><trkpt lat="45.479376019968555" lon="11.539176932454428"><ele>49.0</ele><time>2026-04-18T08:54:40.001Z</time></trkpt><trkpt lat="45.47924910887917" lon="11.53933380695047"><ele>49.0</ele><time>2026-04-18T08:54:41.001Z</time></trkpt><trkpt lat="45.479121039964845" lon="11.539491232415344"><ele>49.0</ele><time>2026-04-18T08:54:42.001Z</time></trkpt><trkpt lat="45.4789830044533" lon="11.53964650299836"><ele>49.0</ele><time>2026-04-18T08:54:43.001Z</time></trkpt><trkpt lat="45.47882299761039" lon="11.53979055586426"><ele>48.75</ele><time>2026-04-18T08:54:44.001Z</time></trkpt><trkpt lat="45.47869056725976" lon="11.539929413428155"><ele>48.5</ele><time>2026-04-18T08:54:45.001Z</time></trkpt><trkpt lat="45.47857438006458" lon="11.54003516749128"><ele>48.25</ele><time>2026-04-18T08:54:46.001Z</time></trkpt><trkpt lat="45.478471891941524" lon="11.540117372594278"><ele>48.0</ele><time>2026-04-18T08:54:47.001Z</time></trkpt><trkpt lat="45.47837328643401" lon="11.540199758922178"><ele>48.0</ele><time>2026-04-18T08:54:48.001Z</time></trkpt><trkpt lat="45.4782816359987" lon="11.54028366865703"><ele>48.0</ele><time>2026-04-18T08:54:49.001Z</time></trkpt><trkpt lat="45.478200561034456" lon="11.540361953625608"><ele>48.0</ele><time>2026-04-18T08:54:50.001Z</time></trkpt><trkpt lat="45.478126993690566" lon="11.540439637294515"><ele>48.0</ele><time>2026-04-18T08:54:51.001Z</time></trkpt><trkpt lat="45.47805392100337" lon="11.540527391501156"><ele>48.0</ele><time>2026-04-18T08:54:52.001Z</time></trkpt><trkpt lat="45.477981126106684" lon="11.54061772569138"><ele>44.4</ele><time>2026-04-18T08:54:53.001Z</time></trkpt><trkpt lat="45.477898037894924" lon="11.5407107633688"><ele>40.8</ele><time>2026-04-18T08:54:54.001Z</time></trkpt><trkpt lat="45.47781339835935" lon="11.540814854019661"><ele>37.2</ele><time>2026-04-18T08:54:55.001Z</time></trkpt><trkpt lat="45.47772733399248" lon="11.540918836665151"><ele>33.6</ele><time>2026-04-18T08:54:56.001Z</time></trkpt><trkpt lat="45.477639830878374" lon="11.541024451920029"><ele>30.0</ele><time>2026-04-18T08:54:57.001Z</time></trkpt><trkpt lat="45.4775475499022" lon="11.541129848501114"><ele>27.75</ele><time>2026-04-18T08:54:58Z</time></trkpt><trkpt lat="45.4774571446558" lon="11.541231718247165"><ele>25.5</ele><time>2026-04-18T08:54:59Z</time></trkpt><trkpt lat="45.47736451257146" lon="11.541336920234375"><ele>23.25</ele><time>2026-04-18T08:55:00Z</time></trkpt><trkpt lat="45.47726903687763" lon="11.541440683122303"><ele>21.0</ele><time>2026-04-18T08:55:01Z</time></trkpt><trkpt lat="45.477165426113885" lon="11.541525958336251"><ele>21.25</ele><time>2026-04-18T08:55:02Z</time></trkpt><trkpt lat="45.47705629834224" lon="11.54159120854433"><ele>21.5</ele><time>2026-04-18T08:55:03Z</time></trkpt><trkpt lat="45.47694444008932" lon="11.541641296965834"><ele>21.75</ele><time>2026-04-18T08:55:04Z</time></trkpt><trkpt lat="45.47682913870062" lon="11.541685977408996"><ele>22.0</ele><time>2026-04-18T08:55:05Z</time></trkpt><trkpt lat="45.47671214004398" lon="11.54170993053049"><ele>22.0</ele><time>2026-04-18T08:55:06Z</time></trkpt><trkpt lat="45.4765962858392" lon="11.541727624718703"><ele>22.0</ele><time>2026-04-18T08:55:07Z</time></trkpt><trkpt lat="45.47648342731407" lon="11.541732482543281"><ele>22.0</ele><time>2026-04-18T08:55:08Z</time></trkpt><trkpt lat="45.476375892467026" lon="11.541737742973663"><ele>22.0</ele><time>2026-04-18T08:55:09Z</time></trkpt><trkpt lat="45.476261821499286" lon="11.541733900131776"><ele>22.400000000000002</ele><time>2026-04-18T08:55:10Z</time></trkpt><trkpt lat="45.476149776102105" lon="11.541736301114932"><ele>22.8</ele><time>2026-04-18T08:55:11Z</time></trkpt><trkpt lat="45.47603899154687" lon="11.541733053183787"><ele>23.2</ele><time>2026-04-18T08:55:12Z</time></trkpt><trkpt lat="45.47593548244645" lon="11.541727571749082"><ele>23.6</ele><time>2026-04-18T08:55:13Z</time></trkpt><trkpt lat="45.47583316718098" lon="11.541721987751078"><ele>24.0</ele><time>2026-04-18T08:55:14Z</time></trkpt><trkpt lat="45.47573022387127" lon="11.541715583731866"><ele>24.0</ele><time>2026-04-18T08:55:15Z</time></trkpt><trkpt lat="45.47562982264949" lon="11.541713652893405"><ele>24.0</ele><time>2026-04-18T08:55:16Z</time></trkpt><trkpt lat="45.475530085446344" lon="11.541711945647634"><ele>24.0</ele><time>2026-04-18T08:55:17Z</time></trkpt><trkpt lat="45.47543647022984" lon="11.541716380616487"><ele>24.0</ele><time>2026-04-18T08:55:18Z</time></trkpt><trkpt lat="45.47535376835216" lon="11.541713569492781"><ele>24.0</ele><time>2026-04-18T08:55:19Z</time></trkpt><trkpt lat="45.47528017267245" lon="11.541705990406522"><ele>24.333333333333332</ele><time>2026-04-18T08:55:20Z</time></trkpt><trkpt lat="45.475202343163666" lon="11.541697639424843"><ele>24.666666666666664</ele><time>2026-04-18T08:55:21Z</time></trkpt><trkpt lat="45.475122643032755" lon="11.541685596839033"><ele>25.0</ele><time>2026-04-18T08:55:22Z</time></trkpt><trkpt lat="45.47504051318151" lon="11.541694663499564"><ele>25.333333333333332</ele><time>2026-04-18T08:55:23Z</time></trkpt><trkpt lat="45.47495270610682" lon="11.541695171712929"><ele>25.666666666666664</ele><time>2026-04-18T08:55:24Z</time></trkpt><trkpt lat="45.474862559157074" lon="11.541688374669153"><ele>26.0</ele><time>2026-04-18T08:55:25Z</time></trkpt><trkpt lat="45.474772742543536" lon="11.54170075103576"><ele>26.0</ele><time>2026-04-18T08:55:26Z</time></trkpt><trkpt lat="45.47468005972498" lon="11.541707924556883"><ele>26.0</ele><time>2026-04-18T08:55:27Z</time></trkpt><trkpt lat="45.47458523286414" lon="11.541727049442779"><ele>26.0</ele><time>2026-04-18T08:55:28Z</time></trkpt><trkpt lat="45.47449209141778" lon="11.54173230493239"><ele>26.0</ele><time>2026-04-18T08:55:29Z</time></trkpt><trkpt lat="45.47439882204519" lon="11.541735284583893"><ele>26.0</ele><time>2026-04-18T08:55:30Z</time></trkpt><trkpt lat="45.474309002816625" lon="11.54174714592074"><ele>25.6</ele><time>2026-04-18T08:55:31Z</time></trkpt><trkpt lat="45.474221160762" lon="11.541759358583684"><ele>25.200000000000003</ele><time>2026-04-18T08:55:32Z</time></trkpt><trkpt lat="45.47413021874914" lon="11.541763210983397"><ele>24.799999999999997</ele><time>2026-04-18T08:55:33Z</time></trkpt><trkpt lat="45.474036672764676" lon="11.541767359119723"><ele>24.4</ele><time>2026-04-18T08:55:34Z</time></trkpt><trkpt lat="45.47393531759777" lon="11.541774416401426"><ele>24.0</ele><time>2026-04-18T08:55:35Z</time></trkpt><trkpt lat="45.473834080322774" lon="11.541776361292268"><ele>24.6</ele><time>2026-04-18T08:55:36Z</time></trkpt><trkpt lat="45.47372899350585" lon="11.541786986961839"><ele>25.2</ele><time>2026-04-18T08:55:37Z</time></trkpt><trkpt lat="45.473626020095" lon="11.541790477743065"><ele>25.800000000000004</ele><time>2026-04-18T08:55:38Z</time></trkpt><trkpt lat="45.47352198753896" lon="11.54179140763486"><ele>26.400000000000002</ele><time>2026-04-18T08:55:39Z</time></trkpt><trkpt lat="45.47341441581849" lon="11.541789995978926"><ele>27.0</ele><time>2026-04-18T08:55:40Z</time></trkpt><trkpt lat="45.473299012913074" lon="11.541784760955593"><ele>27.0</ele><time>2026-04-18T08:55:41Z</time></trkpt><trkpt lat="45.47317262283846" lon="11.541769652187103"><ele>27.0</ele><time>2026-04-18T08:55:42Z</time></trkpt><trkpt lat="45.473039368645836" lon="11.541747070995356"><ele>27.0</ele><time>2026-04-18T08:55:43Z</time></trkpt><trkpt lat="45.472902320150936" lon="11.541704673085816"><ele>27.0</ele><time>2026-04-18T08:55:44Z</time></trkpt><trkpt lat="45.472762672315355" lon="11.541641566371265"><ele>26.0</ele><time>2026-04-18T08:55:45Z</time></trkpt><trkpt lat="45.472604798100406" lon="11.541548566964346"><ele>25.0</ele><time>2026-04-18T08:55:46Z</time></trkpt><trkpt lat="45.472521072033864" lon="11.541537961233745"><ele>24.0</ele><time>2026-04-18T08:55:47Z</time></trkpt><trkpt lat="45.47239637699384" lon="11.54145911727048"><ele>23.0</ele><time>2026-04-18T08:55:48Z</time></trkpt><trkpt lat="45.472277745365616" lon="11.541383822832636"><ele>23.0</ele><time>2026-04-18T08:55:49Z</time></trkpt><trkpt lat="45.47217159644967" lon="11.54131674420011"><ele>23.0</ele><time>2026-04-18T08:55:50Z</time></trkpt><trkpt lat="45.47206368610759" lon="11.54126158474427"><ele>23.0</ele><time>2026-04-18T08:55:51Z</time></trkpt><trkpt lat="45.471955224765345" lon="11.541202147938739"><ele>23.0</ele><time>2026-04-18T08:55:52Z</time></trkpt><trkpt lat="45.47184757293387" lon="11.541136445583042"><ele>22.75</ele><time>2026-04-18T08:55:53Z</time></trkpt><trkpt lat="45.47174082882166" lon="11.5410701458357"><ele>22.5</ele><time>2026-04-18T08:55:54Z</time></trkpt><trkpt lat="45.47162927824848" lon="11.541003305613962"><ele>22.25</ele><time>2026-04-18T08:55:55Z</time></trkpt><trkpt lat="45.47151660111029" lon="11.540939511306304"><ele>22.0</ele><time>2026-04-18T08:55:56Z</time></trkpt><trkpt lat="45.47140457018255" lon="11.540875610265761"><ele>22.0</ele><time>2026-04-18T08:55:57Z</time></trkpt><trkpt lat="45.47129469204555" lon="11.540805130613519"><ele>22.0</ele><time>2026-04-18T08:55:58Z</time></trkpt><trkpt lat="45.47119247397836" lon="11.5407344975001"><ele>22.0</ele><time>2026-04-18T08:55:59Z</time></trkpt><trkpt lat="45.47110042970159" lon="11.540680707207251"><ele>22.0</ele><time>2026-04-18T08:56:00Z</time></trkpt><trkpt lat="45.471011949817026" lon="11.540631689827801"><ele>22.0</ele><time>2026-04-18T08:56:01Z</time></trkpt><trkpt lat="45.47093448713865" lon="11.540586375814446"><ele>22.0</ele><time>2026-04-18T08:56:02Z</time></trkpt><trkpt lat="45.470860475532575" lon="11.540539132664025"><ele>22.0</ele><time>2026-04-18T08:56:03Z</time></trkpt><trkpt lat="45.47079207790025" lon="11.540501417525949"><ele>22.0</ele><time>2026-04-18T08:56:04Z</time></trkpt><trkpt lat="45.47072943677122" lon="11.540472508056755"><ele>22.0</ele><time>2026-04-18T08:56:05Z</time></trkpt><trkpt lat="45.470616952761375" lon="11.540398137549648"><ele>22.0</ele><time>2026-04-18T08:56:07Z</time></trkpt><trkpt lat="45.4705223104997" lon="11.540332108256038"><ele>25.0</ele><time>2026-04-18T08:56:09Z</time></trkpt><trkpt lat="45.470436358624205" lon="11.54029623167967"><ele>24.0</ele><time>2026-04-18T08:56:11Z</time></trkpt><trkpt lat="45.47035293505102" lon="11.540244674695716"><ele>24.0</ele><time>2026-04-18T08:56:13Z</time></trkpt><trkpt lat="45.47029667340835" lon="11.540163777454499"><ele>24.0</ele><time>2026-04-18T08:56:16Z</time></trkpt><trkpt lat="45.470180528655455" lon="11.540210451609116"><ele>24.0</ele><time>2026-04-18T08:56:19Z</time></trkpt><trkpt lat="45.47024778143676" lon="11.540210503853114"><ele>24.0</ele><time>2026-04-18T08:56:22Z</time></trkpt></trkseg><trkseg><trkpt lat="45.47040886857326" lon="11.540276543064799"><ele>24.25</ele><time>2026-04-18T09:11:43.001Z</time></trkpt><trkpt lat="45.4705148818528" lon="11.540340324461896"><ele>24.5</ele><time>2026-04-18T09:11:44.001Z</time></trkpt><trkpt lat="45.47068319381104" lon="11.540458764977569"><ele>24.75</ele><time>2026-04-18T09:11:45.001Z</time></trkpt><trkpt lat="45.4708104216246" lon="11.540526143544541"><ele>25.0</ele><time>2026-04-18T09:11:46.001Z</time></trkpt><trkpt lat="45.47095922401361" lon="11.540590509662655"><ele>24.25</ele><time>2026-04-18T09:11:47.001Z</time></trkpt><trkpt lat="45.47105735492885" lon="11.540715664045456"><ele>23.5</ele><time>2026-04-18T09:11:48.001Z</time></trkpt><trkpt lat="45.47118217255126" lon="11.540789861012007"><ele>22.75</ele><time>2026-04-18T09:11:49Z</time></trkpt><trkpt lat="45.47131180525024" lon="11.540866919834151"><ele>22.0</ele><time>2026-04-18T09:11:50Z</time></trkpt><trkpt lat="45.47144004691142" lon="11.540943152028214"><ele>22.0</ele><time>2026-04-18T09:11:51Z</time></trkpt><trkpt lat="45.47157222208661" lon="11.541021722432012"><ele>22.0</ele><time>2026-04-18T09:11:52Z</time></trkpt><trkpt lat="45.47167778198717" lon="11.541084471762193"><ele>22.0</ele><time>2026-04-18T09:11:53Z</time></trkpt><trkpt lat="45.471761991276345" lon="11.541134529070213"><ele>22.0</ele><time>2026-04-18T09:11:54Z</time></trkpt><trkpt lat="45.47184744732223" lon="11.541185327565007"><ele>22.0</ele><time>2026-04-18T09:11:55Z</time></trkpt><trkpt lat="45.47199674714756" lon="11.541274077812668"><ele>22.0</ele><time>2026-04-18T09:11:57Z</time></trkpt><trkpt lat="45.47206642929446" lon="11.541315499671752"><ele>22.0</ele><time>2026-04-18T09:11:58Z</time></trkpt><trkpt lat="45.47214787941213" lon="11.54136391712236"><ele>22.0</ele><time>2026-04-18T09:11:59Z</time></trkpt><trkpt lat="45.472228352354975" lon="11.541411204521884"><ele>22.0</ele><time>2026-04-18T09:12:00Z</time></trkpt><trkpt lat="45.47231519982188" lon="11.541439652027238"><ele>22.0</ele><time>2026-04-18T09:12:01Z</time></trkpt><trkpt lat="45.4724008108838" lon="11.541501613792192"><ele>22.0</ele><time>2026-04-18T09:12:02Z</time></trkpt><trkpt lat="45.47248283013809" lon="11.541552702806314"><ele>22.200000000000003</ele><time>2026-04-18T09:12:03Z</time></trkpt><trkpt lat="45.47255707163021" lon="11.541599096642114"><ele>22.4</ele><time>2026-04-18T09:12:04Z</time></trkpt><trkpt lat="45.4726469269913" lon="11.541643024338144"><ele>22.6</ele><time>2026-04-18T09:12:05Z</time></trkpt><trkpt lat="45.47274320329267" lon="11.541690012962194"><ele>22.799999999999997</ele><time>2026-04-18T09:12:06Z</time></trkpt><trkpt lat="45.47285051985969" lon="11.541733119608892"><ele>23.0</ele><time>2026-04-18T09:12:07Z</time></trkpt><trkpt lat="45.47295767156173" lon="11.541773378493072"><ele>23.799999999999997</ele><time>2026-04-18T09:12:08Z</time></trkpt><trkpt lat="45.47305923725467" lon="11.5417999849329"><ele>24.6</ele><time>2026-04-18T09:12:09Z</time></trkpt><trkpt lat="45.473154829338704" lon="11.54180547911146"><ele>25.400000000000002</ele><time>2026-04-18T09:12:10Z</time></trkpt><trkpt lat="45.47326195054691" lon="11.541816925969968"><ele>26.200000000000003</ele><time>2026-04-18T09:12:11Z</time></trkpt><trkpt lat="45.47337627852226" lon="11.541831225202857"><ele>27.0</ele><time>2026-04-18T09:12:12Z</time></trkpt><trkpt lat="45.47349786386898" lon="11.541822820290204"><ele>27.0</ele><time>2026-04-18T09:12:13Z</time></trkpt><trkpt lat="45.473611666008146" lon="11.541829886074868"><ele>27.000000000000004</ele><time>2026-04-18T09:12:14Z</time></trkpt><trkpt lat="45.47372176341124" lon="11.541826542802115"><ele>27.000000000000004</ele><time>2026-04-18T09:12:15Z</time></trkpt><trkpt lat="45.47382812183376" lon="11.541821074075159"><ele>27.0</ele><time>2026-04-18T09:12:16Z</time></trkpt><trkpt lat="45.473920816129045" lon="11.541816867134811"><ele>27.0</ele><time>2026-04-18T09:12:17Z</time></trkpt><trkpt lat="45.47402857109526" lon="11.541803972347404"><ele>26.400000000000002</ele><time>2026-04-18T09:12:18Z</time></trkpt><trkpt lat="45.47413503435484" lon="11.541802378040897"><ele>25.800000000000004</ele><time>2026-04-18T09:12:19Z</time></trkpt><trkpt lat="45.47423713920336" lon="11.54179516988207"><ele>25.2</ele><time>2026-04-18T09:12:20Z</time></trkpt><trkpt lat="45.47434790517507" lon="11.541800617421297"><ele>24.6</ele><time>2026-04-18T09:12:21Z</time></trkpt><trkpt lat="45.47445260597618" lon="11.541786892243394"><ele>24.0</ele><time>2026-04-18T09:12:22Z</time></trkpt><trkpt lat="45.47455244091017" lon="11.54177087757726"><ele>24.4</ele><time>2026-04-18T09:12:23Z</time></trkpt><trkpt lat="45.47465067774758" lon="11.541771656090177"><ele>24.799999999999997</ele><time>2026-04-18T09:12:24Z</time></trkpt><trkpt lat="45.47471507721325" lon="11.541758912824022"><ele>25.200000000000003</ele><time>2026-04-18T09:12:28Z</time></trkpt><trkpt lat="45.47481228140865" lon="11.541738430815435"><ele>25.6</ele><time>2026-04-18T09:12:51Z</time></trkpt><trkpt lat="45.4749532495828" lon="11.541712936506348"><ele>26.0</ele><time>2026-04-18T09:12:53Z</time></trkpt><trkpt lat="45.47504562018611" lon="11.5417149110839"><ele>26.0</ele><time>2026-04-18T09:12:54Z</time></trkpt><trkpt lat="45.47513108288625" lon="11.541714385105317"><ele>26.0</ele><time>2026-04-18T09:12:55Z</time></trkpt><trkpt lat="45.475207662115515" lon="11.541739415439944"><ele>26.0</ele><time>2026-04-18T09:12:56Z</time></trkpt><trkpt lat="45.47529246855465" lon="11.54171902743093"><ele>26.0</ele><time>2026-04-18T09:12:57Z</time></trkpt><trkpt lat="45.47539401645724" lon="11.54174500524629"><ele>26.0</ele><time>2026-04-18T09:12:58Z</time></trkpt><trkpt lat="45.475496900644934" lon="11.541744776499735"><ele>25.6</ele><time>2026-04-18T09:12:59Z</time></trkpt><trkpt lat="45.475587013024516" lon="11.541748529794818"><ele>25.200000000000003</ele><time>2026-04-18T09:13:00Z</time></trkpt><trkpt lat="45.47568754006138" lon="11.541746815473795"><ele>24.799999999999997</ele><time>2026-04-18T09:13:01Z</time></trkpt><trkpt lat="45.47579336070581" lon="11.541752532348976"><ele>24.4</ele><time>2026-04-18T09:13:02Z</time></trkpt><trkpt lat="45.47590440608368" lon="11.541758818005503"><ele>24.0</ele><time>2026-04-18T09:13:03Z</time></trkpt><trkpt lat="45.4760271602648" lon="11.541764451391881"><ele>24.0</ele><time>2026-04-18T09:13:04Z</time></trkpt><trkpt lat="45.47615584954373" lon="11.541767070563015"><ele>24.0</ele><time>2026-04-18T09:13:05Z</time></trkpt><trkpt lat="45.47629178533056" lon="11.541765197561407"><ele>24.0</ele><time>2026-04-18T09:13:06Z</time></trkpt><trkpt lat="45.47642562131504" lon="11.541761750573695"><ele>24.0</ele><time>2026-04-18T09:13:07Z</time></trkpt><trkpt lat="45.47654798821354" lon="11.541761122944232"><ele>23.6</ele><time>2026-04-18T09:13:08Z</time></trkpt><trkpt lat="45.47666069474967" lon="11.541751963996088"><ele>23.2</ele><time>2026-04-18T09:13:09Z</time></trkpt><trkpt lat="45.47676905467723" lon="11.54173893815497"><ele>22.8</ele><time>2026-04-18T09:13:10Z</time></trkpt><trkpt lat="45.47686933740141" lon="11.5417068160524"><ele>22.400000000000002</ele><time>2026-04-18T09:13:11Z</time></trkpt><trkpt lat="45.47698570121849" lon="11.54165900607399"><ele>22.0</ele><time>2026-04-18T09:13:12Z</time></trkpt><trkpt lat="45.47711520436563" lon="11.541587736716085"><ele>21.666666666666664</ele><time>2026-04-18T09:13:13Z</time></trkpt><trkpt lat="45.47724310997206" lon="11.541485229963625"><ele>21.333333333333332</ele><time>2026-04-18T09:13:14Z</time></trkpt><trkpt lat="45.47736894093877" lon="11.541363304148094"><ele>21.0</ele><time>2026-04-18T09:13:15Z</time></trkpt><trkpt lat="45.4774897544211" lon="11.541231103742765"><ele>23.25</ele><time>2026-04-18T09:13:16Z</time></trkpt><trkpt lat="45.47760076878113" lon="11.541093923168752"><ele>25.5</ele><time>2026-04-18T09:13:17Z</time></trkpt><trkpt lat="45.47770244785061" lon="11.540965697328769"><ele>27.75</ele><time>2026-04-18T09:13:18Z</time></trkpt><trkpt lat="45.4778072802425" lon="11.540838863434638"><ele>30.0</ele><time>2026-04-18T09:13:19Z</time></trkpt><trkpt lat="45.47792734049502" lon="11.540715397522987"><ele>28.333333333333336</ele><time>2026-04-18T09:13:20Z</time></trkpt><trkpt lat="45.478048575380264" lon="11.540578222609703"><ele>26.666666666666668</ele><time>2026-04-18T09:13:21Z</time></trkpt><trkpt lat="45.47817104367928" lon="11.540437667300923"><ele>25.0</ele><time>2026-04-18T09:13:22Z</time></trkpt><trkpt lat="45.47829745159207" lon="11.540302838770542"><ele>32.66666666666667</ele><time>2026-04-18T09:13:23Z</time></trkpt><trkpt lat="45.478435290585324" lon="11.540177208894333"><ele>40.333333333333336</ele><time>2026-04-18T09:13:24Z</time></trkpt><trkpt lat="45.478578632399206" lon="11.540062373130983"><ele>48.0</ele><time>2026-04-18T09:13:25Z</time></trkpt><trkpt lat="45.478721094676615" lon="11.539939961250257"><ele>48.33333333333333</ele><time>2026-04-18T09:13:26Z</time></trkpt><trkpt lat="45.4788611725474" lon="11.539812455081918"><ele>48.666666666666664</ele><time>2026-04-18T09:13:27Z</time></trkpt><trkpt lat="45.47899198294158" lon="11.539670349989288"><ele>49.0</ele><time>2026-04-18T09:13:28Z</time></trkpt><trkpt lat="45.47912295712333" lon="11.539514737796885"><ele>49.0</ele><time>2026-04-18T09:13:29Z</time></trkpt><trkpt lat="45.47925442355454" lon="11.539362189289891"><ele>49.0</ele><time>2026-04-18T09:13:30Z</time></trkpt><trkpt lat="45.47938787627729" lon="11.539204698320447"><ele>49.0</ele><time>2026-04-18T09:13:31Z</time></trkpt><trkpt lat="45.47952074862414" lon="11.539043300651747"><ele>49.666666666666664</ele><time>2026-04-18T09:13:32Z</time></trkpt><trkpt lat="45.47966527751127" lon="11.538910021509754"><ele>50.33333333333333</ele><time>2026-04-18T09:13:33Z</time></trkpt><trkpt lat="45.479803406844624" lon="11.538743114654167"><ele>51.0</ele><time>2026-04-18T09:13:34Z</time></trkpt><trkpt lat="45.4799427269186" lon="11.538597185036068"><ele>51.0</ele><time>2026-04-18T09:13:35Z</time></trkpt><trkpt lat="45.48008908026758" lon="11.538447984421023"><ele>51.0</ele><time>2026-04-18T09:13:36Z</time></trkpt><trkpt lat="45.48024002023469" lon="11.538306712059818"><ele>51.0</ele><time>2026-04-18T09:13:37Z</time></trkpt><trkpt lat="45.480388182686504" lon="11.538165437167512"><ele>51.33333333333333</ele><time>2026-04-18T09:13:38Z</time></trkpt><trkpt lat="45.48053197022676" lon="11.538064643926655"><ele>51.666666666666664</ele><time>2026-04-18T09:13:39Z</time></trkpt><trkpt lat="45.48067500904866" lon="11.537960076164007"><ele>52.0</ele><time>2026-04-18T09:13:39.999Z</time></trkpt><trkpt lat="45.48080835838843" lon="11.53785421620194"><ele>52.0</ele><time>2026-04-18T09:13:40.999Z</time></trkpt><trkpt lat="45.48095606770984" lon="11.537789777094774"><ele>52.0</ele><time>2026-04-18T09:13:41.999Z</time></trkpt><trkpt lat="45.48110810022499" lon="11.537706290463925"><ele>52.0</ele><time>2026-04-18T09:13:42.999Z</time></trkpt><trkpt lat="45.4812615376732" lon="11.537601092799408"><ele>45.33333333333333</ele><time>2026-04-18T09:13:43.999Z</time></trkpt><trkpt lat="45.48142115747989" lon="11.537513708004026"><ele>38.666666666666664</ele><time>2026-04-18T09:13:44.999Z</time></trkpt><trkpt lat="45.48157000042452" lon="11.537426410011726"><ele>32.0</ele><time>2026-04-18T09:13:45.999Z</time></trkpt><trkpt lat="45.48171605447161" lon="11.537349560336413"><ele>32.0</ele><time>2026-04-18T09:13:46.999Z</time></trkpt><trkpt lat="45.48184570955756" lon="11.537274725972924"><ele>32.0</ele><time>2026-04-18T09:13:47.999Z</time></trkpt><trkpt lat="45.481964851254894" lon="11.537198555905334"><ele>32.0</ele><time>2026-04-18T09:13:48.999Z</time></trkpt><trkpt lat="45.4820732058157" lon="11.53713362116023"><ele>32.0</ele><time>2026-04-18T09:13:49.999Z</time></trkpt><trkpt lat="45.482165860904615" lon="11.537081107037087"><ele>33.2</ele><time>2026-04-18T09:13:51Z</time></trkpt><trkpt lat="45.482250057168876" lon="11.537032656459921"><ele>34.400000000000006</ele><time>2026-04-18T09:13:52Z</time></trkpt><trkpt lat="45.48233726398672" lon="11.5369878028248"><ele>35.599999999999994</ele><time>2026-04-18T09:13:53Z</time></trkpt><trkpt lat="45.48241317202335" lon="11.536951412166152"><ele>36.8</ele><time>2026-04-18T09:13:54Z</time></trkpt><trkpt lat="45.48244749361145" lon="11.536818216020524"><ele>38.0</ele><time>2026-04-18T09:13:55Z</time></trkpt><trkpt lat="45.482508027776134" lon="11.536722661368174"><ele>38.0</ele><time>2026-04-18T09:13:56Z</time></trkpt><trkpt lat="45.48259083040235" lon="11.536596188005584"><ele>38.0</ele><time>2026-04-18T09:13:57Z</time></trkpt><trkpt lat="45.482678844169925" lon="11.536451225431092"><ele>38.0</ele><time>2026-04-18T09:13:58Z</time></trkpt><trkpt lat="45.4827213215055" lon="11.536294668023771"><ele>38.0</ele><time>2026-04-18T09:13:59Z</time></trkpt><trkpt lat="45.48270749307323" lon="11.536129396277984"><ele>42.0</ele><time>2026-04-18T09:14:00Z</time></trkpt><trkpt lat="45.48263360070592" lon="11.53591426997998"><ele>46.0</ele><time>2026-04-18T09:14:01Z</time></trkpt><trkpt lat="45.48257546411675" lon="11.535648671107058"><ele>50.0</ele><time>2026-04-18T09:14:02Z</time></trkpt><trkpt lat="45.48251115272973" lon="11.53534519399201"><ele>50.333333333333336</ele><time>2026-04-18T09:14:03Z</time></trkpt><trkpt lat="45.482459243044175" lon="11.53507655342616"><ele>50.66666666666667</ele><time>2026-04-18T09:14:04Z</time></trkpt><trkpt lat="45.48241059578019" lon="11.534861190030451"><ele>51.0</ele><time>2026-04-18T09:14:05Z</time></trkpt><trkpt lat="45.48235542404587" lon="11.534678401452831"><ele>48.25</ele><time>2026-04-18T09:14:06Z</time></trkpt><trkpt lat="45.482276613272916" lon="11.534528953958965"><ele>45.5</ele><time>2026-04-18T09:14:07Z</time></trkpt><trkpt lat="45.482179985820444" lon="11.53437457805945"><ele>42.75</ele><time>2026-04-18T09:14:08Z</time></trkpt><trkpt lat="45.48208518871216" lon="11.534227717526568"><ele>40.0</ele><time>2026-04-18T09:14:09Z</time></trkpt><trkpt lat="45.48202414658095" lon="11.534111816838154"><ele>47.25</ele><time>2026-04-18T09:14:10Z</time></trkpt><trkpt lat="45.48198315719386" lon="11.533966577557294"><ele>54.5</ele><time>2026-04-18T09:14:11Z</time></trkpt><trkpt lat="45.481951073370155" lon="11.533765886173265"><ele>61.75</ele><time>2026-04-18T09:14:12Z</time></trkpt><trkpt lat="45.481888451521385" lon="11.53361422796524"><ele>69.0</ele><time>2026-04-18T09:14:13Z</time></trkpt><trkpt lat="45.48186388110753" lon="11.53350192446757"><ele>69.0</ele><time>2026-04-18T09:14:14Z</time></trkpt><trkpt lat="45.48182714797503" lon="11.533417726087444"><ele>69.0</ele><time>2026-04-18T09:14:15Z</time></trkpt><trkpt lat="45.48174711519929" lon="11.533314335739282"><ele>69.0</ele><time>2026-04-18T09:14:17Z</time></trkpt><trkpt lat="45.48165283084895" lon="11.533294382799761"><ele>69.0</ele><time>2026-04-18T09:14:19Z</time></trkpt><trkpt lat="45.48162680493653" lon="11.53339024318788"><ele>69.0</ele><time>2026-04-18T09:14:20Z</time></trkpt><trkpt lat="45.48164855521027" lon="11.533598417136382"><ele>72.0</ele><time>2026-04-18T09:14:22Z</time></trkpt><trkpt lat="45.48167801183358" lon="11.533762868221112"><ele>75.0</ele><time>2026-04-18T09:14:23Z</time></trkpt><trkpt lat="45.48166167281797" lon="11.5340090351702"><ele>78.0</ele><time>2026-04-18T09:14:24Z</time></trkpt><trkpt lat="45.48164961546676" lon="11.53421609313909"><ele>81.0</ele><time>2026-04-18T09:14:25Z</time></trkpt><trkpt lat="45.481644487670586" lon="11.534376188382614"><ele>81.0</ele><time>2026-04-18T09:14:26Z</time></trkpt><trkpt lat="45.48160183862323" lon="11.534500311057842"><ele>81.0</ele><time>2026-04-18T09:14:27Z</time></trkpt><trkpt lat="45.48161333298863" lon="11.53463770386027"><ele>81.0</ele><time>2026-04-18T09:14:28Z</time></trkpt><trkpt lat="45.48170284020414" lon="11.534797823752433"><ele>81.0</ele><time>2026-04-18T09:14:29Z</time></trkpt><trkpt lat="45.48177251624917" lon="11.534940570295312"><ele>81.83333333333333</ele><time>2026-04-18T09:14:30Z</time></trkpt><trkpt lat="45.4818366437912" lon="11.53508348903196"><ele>82.66666666666667</ele><time>2026-04-18T09:14:32Z</time></trkpt><trkpt lat="45.48185389793348" lon="11.535189651719827"><ele>83.5</ele><time>2026-04-18T09:14:33Z</time></trkpt><trkpt lat="45.481812014803246" lon="11.535272813190593"><ele>84.33333333333334</ele><time>2026-04-18T09:14:34Z</time></trkpt><trkpt lat="45.48173338280064" lon="11.535307902890796"><ele>85.16666666666667</ele><time>2026-04-18T09:14:35Z</time></trkpt><trkpt lat="45.481652951952796" lon="11.535286391152493"><ele>86.0</ele><time>2026-04-18T09:14:36Z</time></trkpt><trkpt lat="45.48159278139872" lon="11.535216144872432"><ele>86.0</ele><time>2026-04-18T09:14:37Z</time></trkpt><trkpt lat="45.48154075610828" lon="11.5350701694972"><ele>86.0</ele><time>2026-04-18T09:14:38Z</time></trkpt><trkpt lat="45.4814465619011" lon="11.534866922877526"><ele>86.0</ele><time>2026-04-18T09:14:39Z</time></trkpt><trkpt lat="45.481357905778246" lon="11.534635143231244"><ele>84.33333333333334</ele><time>2026-04-18T09:14:40Z</time></trkpt><trkpt lat="45.48129293687234" lon="11.534382571060485"><ele>82.66666666666667</ele><time>2026-04-18T09:14:41Z</time></trkpt><trkpt lat="45.481254484831766" lon="11.534155828184005"><ele>81.0</ele><time>2026-04-18T09:14:42Z</time></trkpt><trkpt lat="45.481206989016314" lon="11.533941336865757"><ele>81.6</ele><time>2026-04-18T09:14:43Z</time></trkpt><trkpt lat="45.481158927846664" lon="11.533812464999425"><ele>82.19999999999999</ele><time>2026-04-18T09:14:44Z</time></trkpt><trkpt lat="45.481112859301625" lon="11.533729169784817"><ele>82.80000000000001</ele><time>2026-04-18T09:14:45Z</time></trkpt><trkpt lat="45.48102068369704" lon="11.5336805580209"><ele>83.4</ele><time>2026-04-18T09:14:46Z</time></trkpt><trkpt lat="45.48091554476473" lon="11.533678290937585"><ele>84.0</ele><time>2026-04-18T09:14:47Z</time></trkpt><trkpt lat="45.48078429056228" lon="11.533696405174913"><ele>88.66666666666666</ele><time>2026-04-18T09:14:48Z</time></trkpt><trkpt lat="45.480624436737806" lon="11.533760205092971"><ele>93.33333333333333</ele><time>2026-04-18T09:14:49Z</time></trkpt><trkpt lat="45.48046116562017" lon="11.533869747170593"><ele>98.0</ele><time>2026-04-18T09:14:50Z</time></trkpt><trkpt lat="45.4802662000093" lon="11.533945705776826"><ele>100.0</ele><time>2026-04-18T09:14:51Z</time></trkpt><trkpt lat="45.48007723725307" lon="11.534037781954087"><ele>102.0</ele><time>2026-04-18T09:14:52Z</time></trkpt><trkpt lat="45.47991074006084" lon="11.534119821068618"><ele>104.0</ele><time>2026-04-18T09:14:53Z</time></trkpt><trkpt lat="45.47977581804192" lon="11.534212885452378"><ele>104.0</ele><time>2026-04-18T09:14:54Z</time></trkpt><trkpt lat="45.47964088178298" lon="11.534339531265449"><ele>104.0</ele><time>2026-04-18T09:14:55Z</time></trkpt><trkpt lat="45.479509159500196" lon="11.534490920127384"><ele>104.0</ele><time>2026-04-18T09:14:56Z</time></trkpt><trkpt lat="45.479408655400086" lon="11.534671836158273"><ele>105.5</ele><time>2026-04-18T09:14:57Z</time></trkpt><trkpt lat="45.4793181628853" lon="11.534831732946055"><ele>107.0</ele><time>2026-04-18T09:14:58Z</time></trkpt><trkpt lat="45.47923600688061" lon="11.534964904320512"><ele>108.5</ele><time>2026-04-18T09:14:59Z</time></trkpt><trkpt lat="45.47914769334278" lon="11.535049379142057"><ele>110.0</ele><time>2026-04-18T09:15:00Z</time></trkpt><trkpt lat="45.479049001133575" lon="11.535088457049799"><ele>110.0</ele><time>2026-04-18T09:15:01Z</time></trkpt><trkpt lat="45.47895010035983" lon="11.535081637623389"><ele>110.0</ele><time>2026-04-18T09:15:02Z</time></trkpt><trkpt lat="45.478792958146485" lon="11.535029922039058"><ele>110.0</ele><time>2026-04-18T09:15:03Z</time></trkpt><trkpt lat="45.47863158688864" lon="11.534896205461301"><ele>110.0</ele><time>2026-04-18T09:15:04Z</time></trkpt><trkpt lat="45.47846652085483" lon="11.534811391948026"><ele>112.0</ele><time>2026-04-18T09:15:05Z</time></trkpt><trkpt lat="45.47831582074339" lon="11.53473313728646"><ele>114.0</ele><time>2026-04-18T09:15:06Z</time></trkpt><trkpt lat="45.47817443522466" lon="11.534699474385523"><ele>116.0</ele><time>2026-04-18T09:15:07Z</time></trkpt><trkpt lat="45.47806281072341" lon="11.534680968616895"><ele>118.0</ele><time>2026-04-18T09:15:08Z</time></trkpt><trkpt lat="45.47793297816576" lon="11.534650413237634"><ele>121.66666666666667</ele><time>2026-04-18T09:15:09Z</time></trkpt><trkpt lat="45.47777185668652" lon="11.534697491745561"><ele>125.33333333333334</ele><time>2026-04-18T09:15:10Z</time></trkpt><trkpt lat="45.477625395297025" lon="11.534785566073023"><ele>129.0</ele><time>2026-04-18T09:15:11Z</time></trkpt><trkpt lat="45.47745735206394" lon="11.534857282078988"><ele>129.0</ele><time>2026-04-18T09:15:12Z</time></trkpt><trkpt lat="45.477283184303054" lon="11.534952877596695"><ele>129.0</ele><time>2026-04-18T09:15:13Z</time></trkpt><trkpt lat="45.477102626261676" lon="11.53506310860628"><ele>129.0</ele><time>2026-04-18T09:15:14Z</time></trkpt><trkpt lat="45.476936077168965" lon="11.53517160664747"><ele>130.33333333333334</ele><time>2026-04-18T09:15:15Z</time></trkpt><trkpt lat="45.476771585744885" lon="11.535270750583077"><ele>131.66666666666669</ele><time>2026-04-18T09:15:16Z</time></trkpt><trkpt lat="45.476594712623154" lon="11.535375334845103"><ele>133.0</ele><time>2026-04-18T09:15:17Z</time></trkpt><trkpt lat="45.47641077079045" lon="11.535481710685946"><ele>139.0</ele><time>2026-04-18T09:15:18Z</time></trkpt><trkpt lat="45.47623511724883" lon="11.535585165642841"><ele>145.0</ele><time>2026-04-18T09:15:19Z</time></trkpt><trkpt lat="45.476063601027725" lon="11.53566619094721"><ele>151.0</ele><time>2026-04-18T09:15:20Z</time></trkpt><trkpt lat="45.47592432989318" lon="11.535747495361479"><ele>151.0</ele><time>2026-04-18T09:15:21Z</time></trkpt><trkpt lat="45.475817004163495" lon="11.535820687400333"><ele>151.0</ele><time>2026-04-18T09:15:22Z</time></trkpt><trkpt lat="45.47570721564675" lon="11.535888484891768"><ele>151.0</ele><time>2026-04-18T09:15:23Z</time></trkpt><trkpt lat="45.47558255995212" lon="11.53588962561555"><ele>151.0</ele><time>2026-04-18T09:15:24Z</time></trkpt><trkpt lat="45.475452678669434" lon="11.535887739793386"><ele>154.66666666666669</ele><time>2026-04-18T09:15:25Z</time></trkpt><trkpt lat="45.47530461888845" lon="11.53584458536235"><ele>158.33333333333334</ele><time>2026-04-18T09:15:26Z</time></trkpt><trkpt lat="45.47514408038923" lon="11.535825378083015"><ele>162.0</ele><time>2026-04-18T09:15:27Z</time></trkpt><trkpt lat="45.47499946782097" lon="11.535770383429155"><ele>162.0</ele><time>2026-04-18T09:15:28Z</time></trkpt><trkpt lat="45.47486734421783" lon="11.535763641746792"><ele>162.0</ele><time>2026-04-18T09:15:29Z</time></trkpt><trkpt lat="45.47473496358808" lon="11.535711416162362"><ele>162.0</ele><time>2026-04-18T09:15:30Z</time></trkpt><trkpt lat="45.47459630911278" lon="11.535671645983875"><ele>162.0</ele><time>2026-04-18T09:15:31Z</time></trkpt><trkpt lat="45.47446019036588" lon="11.535673206305496"><ele>163.25</ele><time>2026-04-18T09:15:32Z</time></trkpt><trkpt lat="45.47433059843152" lon="11.535724123296935"><ele>164.5</ele><time>2026-04-18T09:15:33Z</time></trkpt><trkpt lat="45.47420975300082" lon="11.535813728846806"><ele>165.75</ele><time>2026-04-18T09:15:34Z</time></trkpt><trkpt lat="45.47410807907367" lon="11.535925398604185"><ele>167.0</ele><time>2026-04-18T09:15:35Z</time></trkpt><trkpt lat="45.47402951603302" lon="11.536015958275367"><ele>167.0</ele><time>2026-04-18T09:15:36Z</time></trkpt><trkpt lat="45.47394672166129" lon="11.536048808247491"><ele>167.0</ele><time>2026-04-18T09:15:37Z</time></trkpt><trkpt lat="45.47385910176628" lon="11.53598154982669"><ele>167.0</ele><time>2026-04-18T09:15:38Z</time></trkpt><trkpt lat="45.47377437934162" lon="11.535901229960263"><ele>167.0</ele><time>2026-04-18T09:15:39Z</time></trkpt><trkpt lat="45.47367210063335" lon="11.535826629027316"><ele>167.0</ele><time>2026-04-18T09:15:40Z</time></trkpt><trkpt lat="45.47357209637444" lon="11.535789007201657"><ele>168.39999999999998</ele><time>2026-04-18T09:15:41Z</time></trkpt><trkpt lat="45.47348034841841" lon="11.535715845374659"><ele>169.79999999999998</ele><time>2026-04-18T09:15:42Z</time></trkpt><trkpt lat="45.473401281871055" lon="11.535656856722246"><ele>171.2</ele><time>2026-04-18T09:15:43Z</time></trkpt><trkpt lat="45.47334427761843" lon="11.535575997492145"><ele>172.6</ele><time>2026-04-18T09:15:44Z</time></trkpt><trkpt lat="45.47332076434925" lon="11.535424838323838"><ele>174.0</ele><time>2026-04-18T09:15:45Z</time></trkpt><trkpt lat="45.47322651417047" lon="11.535253752059823"><ele>174.75</ele><time>2026-04-18T09:15:45.999Z</time></trkpt><trkpt lat="45.47313851201585" lon="11.535055214748601"><ele>175.5</ele><time>2026-04-18T09:15:46.999Z</time></trkpt><trkpt lat="45.473055070215516" lon="11.53489436986824"><ele>176.25</ele><time>2026-04-18T09:15:47.999Z</time></trkpt><trkpt lat="45.47296767700642" lon="11.534781185176792"><ele>177.0</ele><time>2026-04-18T09:15:48.999Z</time></trkpt><trkpt lat="45.47286515003764" lon="11.534701537124825"><ele>177.25</ele><time>2026-04-18T09:15:49.999Z</time></trkpt><trkpt lat="45.47274885168575" lon="11.534622553711744"><ele>177.5</ele><time>2026-04-18T09:15:50.999Z</time></trkpt><trkpt lat="45.472617390668844" lon="11.534554606198094"><ele>177.75</ele><time>2026-04-18T09:15:51.999Z</time></trkpt><trkpt lat="45.4725119786349" lon="11.534466877795367"><ele>178.0</ele><time>2026-04-18T09:15:52.999Z</time></trkpt><trkpt lat="45.472430368124925" lon="11.534375986207282"><ele>177.8</ele><time>2026-04-18T09:15:53.999Z</time></trkpt><trkpt lat="45.47234606221489" lon="11.53426606454588"><ele>177.60000000000002</ele><time>2026-04-18T09:15:54.999Z</time></trkpt><trkpt lat="45.47226392609357" lon="11.534149784713176"><ele>177.39999999999998</ele><time>2026-04-18T09:15:55.999Z</time></trkpt><trkpt lat="45.47217970030655" lon="11.534053853956964"><ele>177.2</ele><time>2026-04-18T09:15:56.999Z</time></trkpt><trkpt lat="45.47208615160934" lon="11.533979508279753"><ele>177.0</ele><time>2026-04-18T09:15:57.999Z</time></trkpt><trkpt lat="45.471968286828506" lon="11.53392925804101"><ele>177.0</ele><time>2026-04-18T09:15:58.999Z</time></trkpt><trkpt lat="45.47184451184959" lon="11.53389960696286"><ele>177.0</ele><time>2026-04-18T09:15:59.999Z</time></trkpt><trkpt lat="45.47172521755996" lon="11.533856646936782"><ele>177.0</ele><time>2026-04-18T09:16:00.999Z</time></trkpt><trkpt lat="45.47159357607046" lon="11.533802520677494"><ele>177.0</ele><time>2026-04-18T09:16:01.999Z</time></trkpt><trkpt lat="45.47145423770602" lon="11.533752051232405"><ele>181.5</ele><time>2026-04-18T09:16:02.999Z</time></trkpt><trkpt lat="45.47131656620351" lon="11.533690063066981"><ele>186.0</ele><time>2026-04-18T09:16:03.999Z</time></trkpt><trkpt lat="45.47117775519031" lon="11.533646469106326"><ele>190.5</ele><time>2026-04-18T09:16:04.999Z</time></trkpt><trkpt lat="45.47105144593549" lon="11.53358720737471"><ele>195.0</ele><time>2026-04-18T09:16:06Z</time></trkpt><trkpt lat="45.47093079389229" lon="11.533567222923795"><ele>196.0</ele><time>2026-04-18T09:16:07Z</time></trkpt><trkpt lat="45.470838448474105" lon="11.53354833179296"><ele>197.0</ele><time>2026-04-18T09:16:08Z</time></trkpt><trkpt lat="45.47076537562544" lon="11.533532120071813"><ele>198.0</ele><time>2026-04-18T09:16:09Z</time></trkpt><trkpt lat="45.47069659306864" lon="11.533522550843596"><ele>199.0</ele><time>2026-04-18T09:16:10Z</time></trkpt><trkpt lat="45.470626244730674" lon="11.533528679346581"><ele>200.0</ele><time>2026-04-18T09:16:11Z</time></trkpt><trkpt lat="45.47054719892359" lon="11.53354121595371"><ele>201.0</ele><time>2026-04-18T09:16:12Z</time></trkpt><trkpt lat="45.470453523725446" lon="11.533571943504837"><ele>202.0</ele><time>2026-04-18T09:16:13Z</time></trkpt><trkpt lat="45.47037004997497" lon="11.533625348830292"><ele>203.0</ele><time>2026-04-18T09:16:14Z</time></trkpt><trkpt lat="45.470287735306414" lon="11.53370722034578"><ele>204.0</ele><time>2026-04-18T09:16:15Z</time></trkpt><trkpt lat="45.4702073529113" lon="11.533790034141884"><ele>205.0</ele><time>2026-04-18T09:16:16Z</time></trkpt><trkpt lat="45.47012231637198" lon="11.53385233428116"><ele>206.0</ele><time>2026-04-18T09:16:17Z</time></trkpt><trkpt lat="45.47003116838739" lon="11.533912760957351"><ele>204.16666666666669</ele><time>2026-04-18T09:16:18Z</time></trkpt><trkpt lat="45.4699619215548" lon="11.533980404789915"><ele>202.33333333333334</ele><time>2026-04-18T09:16:19Z</time></trkpt><trkpt lat="45.46988585585262" lon="11.53400876556207"><ele>200.5</ele><time>2026-04-18T09:16:20Z</time></trkpt><trkpt lat="45.46980016937524" lon="11.53404828408428"><ele>198.66666666666669</ele><time>2026-04-18T09:16:21Z</time></trkpt><trkpt lat="45.46972730028202" lon="11.534065839251962"><ele>196.83333333333334</ele><time>2026-04-18T09:16:22Z</time></trkpt><trkpt lat="45.46964525802856" lon="11.53406081837523"><ele>195.0</ele><time>2026-04-18T09:16:23Z</time></trkpt><trkpt lat="45.46957215142388" lon="11.53402393562615"><ele>195.0</ele><time>2026-04-18T09:16:24Z</time></trkpt><trkpt lat="45.46953091401385" lon="11.533889390852622"><ele>195.0</ele><time>2026-04-18T09:16:25Z</time></trkpt><trkpt lat="45.4694837254419" lon="11.53372285616247"><ele>195.0</ele><time>2026-04-18T09:16:26Z</time></trkpt><trkpt lat="45.46940113974181" lon="11.533518695045851"><ele>195.0</ele><time>2026-04-18T09:16:27Z</time></trkpt><trkpt lat="45.46935881327087" lon="11.533372194004881"><ele>196.4</ele><time>2026-04-18T09:16:28Z</time></trkpt><trkpt lat="45.46932387955359" lon="11.533241163810168"><ele>197.8</ele><time>2026-04-18T09:16:29Z</time></trkpt><trkpt lat="45.469283948547044" lon="11.533133011320839"><ele>199.2</ele><time>2026-04-18T09:16:30Z</time></trkpt><trkpt lat="45.46925518027356" lon="11.533011712322223"><ele>200.6</ele><time>2026-04-18T09:16:31Z</time></trkpt><trkpt lat="45.469191746914014" lon="11.532885405479066"><ele>202.0</ele><time>2026-04-18T09:16:32Z</time></trkpt><trkpt lat="45.46907984088823" lon="11.53276494838875"><ele>206.0</ele><time>2026-04-18T09:16:33Z</time></trkpt><trkpt lat="45.468934179377214" lon="11.532688791811077"><ele>210.0</ele><time>2026-04-18T09:16:34Z</time></trkpt><trkpt lat="45.46876833487618" lon="11.532666887765261"><ele>214.0</ele><time>2026-04-18T09:16:35Z</time></trkpt><trkpt lat="45.46861534192295" lon="11.532694747386318"><ele>214.0</ele><time>2026-04-18T09:16:36Z</time></trkpt><trkpt lat="45.46850229865067" lon="11.532759375724423"><ele>213.99999999999997</ele><time>2026-04-18T09:16:37Z</time></trkpt><trkpt lat="45.468418085360945" lon="11.532804716664508"><ele>213.99999999999997</ele><time>2026-04-18T09:16:38Z</time></trkpt><trkpt lat="45.46834932184608" lon="11.532801689925419"><ele>214.0</ele><time>2026-04-18T09:16:39Z</time></trkpt><trkpt lat="45.46827047676845" lon="11.532732293702189"><ele>214.0</ele><time>2026-04-18T09:16:40Z</time></trkpt><trkpt lat="45.468187027656555" lon="11.532613846110225"><ele>214.0</ele><time>2026-04-18T09:16:41Z</time></trkpt><trkpt lat="45.46806283941383" lon="11.532490990705718"><ele>214.0</ele><time>2026-04-18T09:16:42Z</time></trkpt><trkpt lat="45.46792132805542" lon="11.532303862585094"><ele>214.0</ele><time>2026-04-18T09:16:43Z</time></trkpt><trkpt lat="45.46774351077357" lon="11.53210353610451"><ele>215.66666666666666</ele><time>2026-04-18T09:16:44Z</time></trkpt><trkpt lat="45.46756119391262" lon="11.53189527732251"><ele>217.33333333333331</ele><time>2026-04-18T09:16:45Z</time></trkpt><trkpt lat="45.467398597664456" lon="11.531709745500153"><ele>219.0</ele><time>2026-04-18T09:16:46Z</time></trkpt><trkpt lat="45.4672442471316" lon="11.531545113075468"><ele>217.0</ele><time>2026-04-18T09:16:47Z</time></trkpt><trkpt lat="45.46709683718473" lon="11.531385249178856"><ele>215.0</ele><time>2026-04-18T09:16:48Z</time></trkpt><trkpt lat="45.46694745189497" lon="11.531233997614224"><ele>213.0</ele><time>2026-04-18T09:16:49Z</time></trkpt><trkpt lat="45.4667852862806" lon="11.531110983856754"><ele>218.0</ele><time>2026-04-18T09:16:50Z</time></trkpt><trkpt lat="45.46659128799428" lon="11.53102715298711"><ele>223.0</ele><time>2026-04-18T09:16:51Z</time></trkpt><trkpt lat="45.46641540299874" lon="11.530976856779946"><ele>228.0</ele><time>2026-04-18T09:16:52Z</time></trkpt><trkpt lat="45.46626646852069" lon="11.530912566973408"><ele>228.66666666666669</ele><time>2026-04-18T09:16:53Z</time></trkpt><trkpt lat="45.46612465603868" lon="11.530797725104659"><ele>229.33333333333334</ele><time>2026-04-18T09:16:54Z</time></trkpt><trkpt lat="45.46599240971088" lon="11.530673154810094"><ele>230.0</ele><time>2026-04-18T09:16:55Z</time></trkpt><trkpt lat="45.46585507563791" lon="11.530603484044214"><ele>230.0</ele><time>2026-04-18T09:16:56Z</time></trkpt><trkpt lat="45.46571785577467" lon="11.530549864024598"><ele>230.0</ele><time>2026-04-18T09:16:57Z</time></trkpt><trkpt lat="45.465606163422564" lon="11.53041250932922"><ele>230.0</ele><time>2026-04-18T09:16:58Z</time></trkpt><trkpt lat="45.46546081009112" lon="11.530266504662048"><ele>232.5</ele><time>2026-04-18T09:16:59Z</time></trkpt><trkpt lat="45.46535682654863" lon="11.530132323714431"><ele>235.0</ele><time>2026-04-18T09:17:00Z</time></trkpt><trkpt lat="45.465261288012925" lon="11.530025864520724"><ele>237.5</ele><time>2026-04-18T09:17:01Z</time></trkpt><trkpt lat="45.465147130601494" lon="11.529968695068177"><ele>240.0</ele><time>2026-04-18T09:17:02Z</time></trkpt><trkpt lat="45.46502409904697" lon="11.529964758431909"><ele>240.0</ele><time>2026-04-18T09:17:03Z</time></trkpt><trkpt lat="45.46489791522734" lon="11.529996966393803"><ele>240.0</ele><time>2026-04-18T09:17:04Z</time></trkpt><trkpt lat="45.464781960753484" lon="11.530063086467951"><ele>240.0</ele><time>2026-04-18T09:17:05Z</time></trkpt><trkpt lat="45.464669647730695" lon="11.530172360423819"><ele>240.0</ele><time>2026-04-18T09:17:06Z</time></trkpt><trkpt lat="45.46456872973399" lon="11.53029596868698"><ele>241.75</ele><time>2026-04-18T09:17:07Z</time></trkpt><trkpt lat="45.46449291533011" lon="11.530437299913473"><ele>243.5</ele><time>2026-04-18T09:17:08Z</time></trkpt><trkpt lat="45.46442917853549" lon="11.530617602431628"><ele>245.25</ele><time>2026-04-18T09:17:09Z</time></trkpt><trkpt lat="45.46434298708914" lon="11.530814680369858"><ele>247.0</ele><time>2026-04-18T09:17:10Z</time></trkpt><trkpt lat="45.464244036173" lon="11.531007120330205"><ele>247.0</ele><time>2026-04-18T09:17:11Z</time></trkpt><trkpt lat="45.46414673034292" lon="11.531173625556402"><ele>247.0</ele><time>2026-04-18T09:17:12Z</time></trkpt><trkpt lat="45.464083771126916" lon="11.531296226000592"><ele>247.0</ele><time>2026-04-18T09:17:13Z</time></trkpt><trkpt lat="45.463988823475894" lon="11.53137075064148"><ele>247.0</ele><time>2026-04-18T09:17:14Z</time></trkpt><trkpt lat="45.46389779009692" lon="11.531400895165348"><ele>246.5</ele><time>2026-04-18T09:17:15Z</time></trkpt><trkpt lat="45.46378182844265" lon="11.531413945769854"><ele>246.0</ele><time>2026-04-18T09:17:16Z</time></trkpt><trkpt lat="45.463640738330604" lon="11.531405965599307"><ele>245.5</ele><time>2026-04-18T09:17:17Z</time></trkpt><trkpt lat="45.46347423632263" lon="11.531403181389903"><ele>245.0</ele><time>2026-04-18T09:17:18Z</time></trkpt><trkpt lat="45.4633127386287" lon="11.531422739536438"><ele>246.33333333333334</ele><time>2026-04-18T09:17:19Z</time></trkpt><trkpt lat="45.46314898086472" lon="11.53148547197817"><ele>247.66666666666669</ele><time>2026-04-18T09:17:20Z</time></trkpt><trkpt lat="45.46297710653585" lon="11.53160269590326"><ele>249.0</ele><time>2026-04-18T09:17:21Z</time></trkpt><trkpt lat="45.46280914177156" lon="11.531685862554555"><ele>251.0</ele><time>2026-04-18T09:17:22Z</time></trkpt><trkpt lat="45.46266230033982" lon="11.531757586182605"><ele>253.0</ele><time>2026-04-18T09:17:23Z</time></trkpt><trkpt lat="45.462536795763654" lon="11.531850099046057"><ele>255.0</ele><time>2026-04-18T09:17:24Z</time></trkpt><trkpt lat="45.462414659358345" lon="11.53191750951586"><ele>257.0</ele><time>2026-04-18T09:17:25Z</time></trkpt><trkpt lat="45.46230418549635" lon="11.531966735902767"><ele>257.0</ele><time>2026-04-18T09:17:26Z</time></trkpt><trkpt lat="45.46217346371518" lon="11.53201971480446"><ele>257.0</ele><time>2026-04-18T09:17:27Z</time></trkpt><trkpt lat="45.462059272465936" lon="11.532071041297604"><ele>257.0</ele><time>2026-04-18T09:17:28Z</time></trkpt><trkpt lat="45.461946866410464" lon="11.531945659932202"><ele>257.0</ele><time>2026-04-18T09:17:29Z</time></trkpt><trkpt lat="45.461842398039344" lon="11.531860428912774"><ele>256.75</ele><time>2026-04-18T09:17:30Z</time></trkpt><trkpt lat="45.461744515498985" lon="11.531710096408439"><ele>256.5</ele><time>2026-04-18T09:17:31Z</time></trkpt><trkpt lat="45.4616764191371" lon="11.53154416213841"><ele>256.25</ele><time>2026-04-18T09:17:32Z</time></trkpt><trkpt lat="45.46161155585607" lon="11.531377652567464"><ele>256.0</ele><time>2026-04-18T09:17:33Z</time></trkpt><trkpt lat="45.46151334701165" lon="11.531324584070637"><ele>256.0</ele><time>2026-04-18T09:17:34Z</time></trkpt><trkpt lat="45.46140005362989" lon="11.53128042252065"><ele>256.0</ele><time>2026-04-18T09:17:35Z</time></trkpt><trkpt lat="45.461274435648726" lon="11.53128320193014"><ele>256.0</ele><time>2026-04-18T09:17:36Z</time></trkpt><trkpt lat="45.46113718101107" lon="11.531300263122382"><ele>256.0</ele><time>2026-04-18T09:17:37Z</time></trkpt><trkpt lat="45.46098206139613" lon="11.531370741684471"><ele>255.8</ele><time>2026-04-18T09:17:38Z</time></trkpt><trkpt lat="45.460848864211506" lon="11.531476277291135"><ele>255.60000000000002</ele><time>2026-04-18T09:17:39Z</time></trkpt><trkpt lat="45.46075769224797" lon="11.531555740196493"><ele>255.4</ele><time>2026-04-18T09:17:40Z</time></trkpt><trkpt lat="45.46068045757141" lon="11.531607776090837"><ele>255.2</ele><time>2026-04-18T09:17:41Z</time></trkpt><trkpt lat="45.46060649684303" lon="11.53160464981204"><ele>255.0</ele><time>2026-04-18T09:17:42Z</time></trkpt><trkpt lat="45.460534361339846" lon="11.531556129494435"><ele>255.0</ele><time>2026-04-18T09:17:43Z</time></trkpt><trkpt lat="45.46051967481" lon="11.531403150155818"><ele>255.0</ele><time>2026-04-18T09:17:44Z</time></trkpt><trkpt lat="45.460458628950065" lon="11.531192533102152"><ele>255.0</ele><time>2026-04-18T09:17:45Z</time></trkpt><trkpt lat="45.46038036645575" lon="11.531015526974114"><ele>255.0</ele><time>2026-04-18T09:17:46Z</time></trkpt><trkpt lat="45.46028990676524" lon="11.530900082100896"><ele>259.25</ele><time>2026-04-18T09:17:47Z</time></trkpt><trkpt lat="45.46017834290861" lon="11.530800392357772"><ele>263.5</ele><time>2026-04-18T09:17:48Z</time></trkpt><trkpt lat="45.460046459820475" lon="11.53073296631764"><ele>267.75</ele><time>2026-04-18T09:17:49Z</time></trkpt><trkpt lat="45.459914361257404" lon="11.530669902674179"><ele>272.0</ele><time>2026-04-18T09:17:50Z</time></trkpt><trkpt lat="45.45977652411349" lon="11.530615912862554"><ele>272.0</ele><time>2026-04-18T09:17:51Z</time></trkpt><trkpt lat="45.459682596352835" lon="11.530630190252312"><ele>272.0</ele><time>2026-04-18T09:17:51.999Z</time></trkpt><trkpt lat="45.45957960693831" lon="11.530679623396592"><ele>272.0</ele><time>2026-04-18T09:17:52.999Z</time></trkpt><trkpt lat="45.459515101151034" lon="11.530790842535428"><ele>272.0</ele><time>2026-04-18T09:17:53.999Z</time></trkpt><trkpt lat="45.45947766082035" lon="11.530921365262458"><ele>272.0</ele><time>2026-04-18T09:17:54.999Z</time></trkpt><trkpt lat="45.459421891489285" lon="11.531060973875068"><ele>272.4</ele><time>2026-04-18T09:17:55.999Z</time></trkpt><trkpt lat="45.45937504076657" lon="11.531207166969653"><ele>272.79999999999995</ele><time>2026-04-18T09:17:56.999Z</time></trkpt><trkpt lat="45.45932707498951" lon="11.531297383697787"><ele>273.2</ele><time>2026-04-18T09:17:57.999Z</time></trkpt><trkpt lat="45.45921315769272" lon="11.531339942448762"><ele>273.59999999999997</ele><time>2026-04-18T09:17:58.999Z</time></trkpt><trkpt lat="45.45911119595951" lon="11.53134873215626"><ele>274.0</ele><time>2026-04-18T09:17:59.999Z</time></trkpt><trkpt lat="45.459025038806274" lon="11.53126893281351"><ele>275.3333333333333</ele><time>2026-04-18T09:18:00.999Z</time></trkpt><trkpt lat="45.45890949348884" lon="11.531184941692802"><ele>276.6666666666667</ele><time>2026-04-18T09:18:01.999Z</time></trkpt><trkpt lat="45.45878272745799" lon="11.531077170269786"><ele>278.0</ele><time>2026-04-18T09:18:02.999Z</time></trkpt><trkpt lat="45.45859595367428" lon="11.530936904316011"><ele>278.0</ele><time>2026-04-18T09:18:03.999Z</time></trkpt><trkpt lat="45.45848323924099" lon="11.530763121276179"><ele>278.0</ele><time>2026-04-18T09:18:04.999Z</time></trkpt><trkpt lat="45.458353140855394" lon="11.53058591829231"><ele>278.0</ele><time>2026-04-18T09:18:06Z</time></trkpt><trkpt lat="45.45819005607668" lon="11.530416559158956"><ele>280.0</ele><time>2026-04-18T09:18:07Z</time></trkpt><trkpt lat="45.45801791231612" lon="11.530240315241253"><ele>282.0</ele><time>2026-04-18T09:18:08Z</time></trkpt><trkpt lat="45.45788424172391" lon="11.530107862717584"><ele>284.0</ele><time>2026-04-18T09:18:09Z</time></trkpt><trkpt lat="45.45774817559248" lon="11.5299800334538"><ele>284.0</ele><time>2026-04-18T09:18:10Z</time></trkpt><trkpt lat="45.45762145454572" lon="11.529876788888322"><ele>284.0</ele><time>2026-04-18T09:18:11Z</time></trkpt><trkpt lat="45.45750222357786" lon="11.529802017258818"><ele>284.0</ele><time>2026-04-18T09:18:12Z</time></trkpt><trkpt lat="45.45738758882589" lon="11.529787770632995"><ele>284.0</ele><time>2026-04-18T09:18:13Z</time></trkpt><trkpt lat="45.457270094703176" lon="11.52983945761163"><ele>286.6666666666667</ele><time>2026-04-18T09:18:14Z</time></trkpt><trkpt lat="45.457119057071594" lon="11.529878537973358"><ele>289.3333333333333</ele><time>2026-04-18T09:18:15Z</time></trkpt><trkpt lat="45.456962060409076" lon="11.529943745532133"><ele>292.0</ele><time>2026-04-18T09:18:16Z</time></trkpt><trkpt lat="45.45679123777771" lon="11.529988170642635"><ele>292.0</ele><time>2026-04-18T09:18:17Z</time></trkpt><trkpt lat="45.45661384058657" lon="11.530050859766167"><ele>292.0</ele><time>2026-04-18T09:18:18Z</time></trkpt><trkpt lat="45.45643468837636" lon="11.530080942491267"><ele>292.0</ele><time>2026-04-18T09:18:19Z</time></trkpt><trkpt lat="45.45627463646831" lon="11.530125986598058"><ele>290.66666666666663</ele><time>2026-04-18T09:18:20Z</time></trkpt><trkpt lat="45.45611003616487" lon="11.53018877304155"><ele>289.3333333333333</ele><time>2026-04-18T09:18:21Z</time></trkpt><trkpt lat="45.45596627496454" lon="11.530245472162974"><ele>288.0</ele><time>2026-04-18T09:18:22Z</time></trkpt><trkpt lat="45.455818050115546" lon="11.5302611483535"><ele>288.0</ele><time>2026-04-18T09:18:23Z</time></trkpt><trkpt lat="45.45567315799813" lon="11.530242346958524"><ele>288.0</ele><time>2026-04-18T09:18:24Z</time></trkpt><trkpt lat="45.455504462960924" lon="11.530224213373325"><ele>288.0</ele><time>2026-04-18T09:18:25Z</time></trkpt><trkpt lat="45.45533750506088" lon="11.53016712179752"><ele>288.75</ele><time>2026-04-18T09:18:26Z</time></trkpt><trkpt lat="45.455187160190576" lon="11.530128672075362"><ele>289.5</ele><time>2026-04-18T09:18:27Z</time></trkpt><trkpt lat="45.455037726860546" lon="11.530092692000173"><ele>290.25</ele><time>2026-04-18T09:18:28Z</time></trkpt><trkpt lat="45.454918274670526" lon="11.53009654003055"><ele>291.0</ele><time>2026-04-18T09:18:29Z</time></trkpt><trkpt lat="45.45482696076564" lon="11.530104375527477"><ele>291.0</ele><time>2026-04-18T09:18:30Z</time></trkpt><trkpt lat="45.45472330932775" lon="11.530152904164558"><ele>291.0</ele><time>2026-04-18T09:18:31Z</time></trkpt><trkpt lat="45.454605304847824" lon="11.530265636870357"><ele>291.0</ele><time>2026-04-18T09:18:32Z</time></trkpt><trkpt lat="45.45448061212751" lon="11.53041727910587"><ele>291.0</ele><time>2026-04-18T09:18:33Z</time></trkpt><trkpt lat="45.45434548630877" lon="11.530586026576577"><ele>294.5</ele><time>2026-04-18T09:18:34Z</time></trkpt><trkpt lat="45.454222849597045" lon="11.530732567786549"><ele>298.0</ele><time>2026-04-18T09:18:35Z</time></trkpt><trkpt lat="45.454131076291844" lon="11.530861623843279"><ele>301.5</ele><time>2026-04-18T09:18:36Z</time></trkpt><trkpt lat="45.45406140060325" lon="11.530979544975885"><ele>305.0</ele><time>2026-04-18T09:18:37Z</time></trkpt><trkpt lat="45.45400967582005" lon="11.531088468847008"><ele>305.0</ele><time>2026-04-18T09:18:38Z</time></trkpt><trkpt lat="45.453961841357675" lon="11.531199457602355"><ele>305.0</ele><time>2026-04-18T09:18:39Z</time></trkpt><trkpt lat="45.45390020230034" lon="11.531301097590005"><ele>305.0</ele><time>2026-04-18T09:18:40Z</time></trkpt><trkpt lat="45.45380536300688" lon="11.531373640039197"><ele>305.0</ele><time>2026-04-18T09:18:41Z</time></trkpt><trkpt lat="45.453665506481016" lon="11.53138164189912"><ele>305.0</ele><time>2026-04-18T09:18:42Z</time></trkpt><trkpt lat="45.453505253779305" lon="11.531430214459682"><ele>306.0</ele><time>2026-04-18T09:18:43Z</time></trkpt><trkpt lat="45.453336186945464" lon="11.531498878766715"><ele>307.0</ele><time>2026-04-18T09:18:44Z</time></trkpt><trkpt lat="45.45318197570713" lon="11.53166956082152"><ele>308.0</ele><time>2026-04-18T09:18:45Z</time></trkpt><trkpt lat="45.453010461634896" lon="11.531822132663622"><ele>309.0</ele><time>2026-04-18T09:18:46Z</time></trkpt><trkpt lat="45.45285870149603" lon="11.531913074658599"><ele>310.0</ele><time>2026-04-18T09:18:47Z</time></trkpt><trkpt lat="45.45272593558267" lon="11.531969387282714"><ele>311.0</ele><time>2026-04-18T09:18:48Z</time></trkpt><trkpt lat="45.45260764175574" lon="11.532007512251045"><ele>312.0</ele><time>2026-04-18T09:18:49Z</time></trkpt><trkpt lat="45.45247869279653" lon="11.532064294018648"><ele>312.0</ele><time>2026-04-18T09:18:50Z</time></trkpt><trkpt lat="45.452330661485384" lon="11.532098610066537"><ele>312.0</ele><time>2026-04-18T09:18:51Z</time></trkpt><trkpt lat="45.45218621221974" lon="11.532130327864001"><ele>312.0</ele><time>2026-04-18T09:18:52Z</time></trkpt><trkpt lat="45.45204765668806" lon="11.532161651759878"><ele>312.0</ele><time>2026-04-18T09:18:53Z</time></trkpt><trkpt lat="45.451918264515356" lon="11.532188753737184"><ele>315.5</ele><time>2026-04-18T09:18:54Z</time></trkpt><trkpt lat="45.45180001016145" lon="11.532210608421401"><ele>319.0</ele><time>2026-04-18T09:18:55Z</time></trkpt><trkpt lat="45.45168209390935" lon="11.532238250884888"><ele>322.5</ele><time>2026-04-18T09:18:56Z</time></trkpt><trkpt lat="45.45155356452068" lon="11.5322655768188"><ele>326.0</ele><time>2026-04-18T09:18:57Z</time></trkpt><trkpt lat="45.45142163253166" lon="11.532290482304543"><ele>326.0</ele><time>2026-04-18T09:18:58Z</time></trkpt><trkpt lat="45.45129137012561" lon="11.532323177308427"><ele>326.0</ele><time>2026-04-18T09:18:59Z</time></trkpt><trkpt lat="45.45116813826547" lon="11.532358857792785"><ele>326.0</ele><time>2026-04-18T09:19:00Z</time></trkpt><trkpt lat="45.451040455702724" lon="11.532365512973904"><ele>326.0</ele><time>2026-04-18T09:19:01Z</time></trkpt><trkpt lat="45.45091417694794" lon="11.532387309300836"><ele>329.0</ele><time>2026-04-18T09:19:02Z</time></trkpt><trkpt lat="45.45078200532982" lon="11.532430124164133"><ele>332.0</ele><time>2026-04-18T09:19:03Z</time></trkpt><trkpt lat="45.45064569466387" lon="11.532457299677596"><ele>335.0</ele><time>2026-04-18T09:19:04Z</time></trkpt><trkpt lat="45.45050884155946" lon="11.532498896022496"><ele>338.0</ele><time>2026-04-18T09:19:05Z</time></trkpt><trkpt lat="45.45037500782717" lon="11.532545616977822"><ele>339.4</ele><time>2026-04-18T09:19:06Z</time></trkpt><trkpt lat="45.450250193896636" lon="11.532567964625912"><ele>340.79999999999995</ele><time>2026-04-18T09:19:07Z</time></trkpt><trkpt lat="45.45014335191064" lon="11.532600859588305"><ele>342.2</ele><time>2026-04-18T09:19:08Z</time></trkpt><trkpt lat="45.45003685297766" lon="11.532625663475054"><ele>343.6</ele><time>2026-04-18T09:19:09Z</time></trkpt><trkpt lat="45.44994319314365" lon="11.532644861840451"><ele>345.0</ele><time>2026-04-18T09:19:10Z</time></trkpt><trkpt lat="45.44986166930427" lon="11.532591526656342"><ele>345.0</ele><time>2026-04-18T09:19:11Z</time></trkpt><trkpt lat="45.44980753066341" lon="11.532459624088956"><ele>345.0</ele><time>2026-04-18T09:19:12Z</time></trkpt><trkpt lat="45.449695921163816" lon="11.532347553149679"><ele>345.0</ele><time>2026-04-18T09:19:13Z</time></trkpt><trkpt lat="45.44958185454751" lon="11.53222996631344"><ele>345.0</ele><time>2026-04-18T09:19:14Z</time></trkpt><trkpt lat="45.44943182573406" lon="11.532155174426894"><ele>345.6666666666667</ele><time>2026-04-18T09:19:15Z</time></trkpt><trkpt lat="45.449253695497845" lon="11.532114612756567"><ele>346.33333333333337</ele><time>2026-04-18T09:19:16Z</time></trkpt><trkpt lat="45.449067834287014" lon="11.532083382255143"><ele>347.0</ele><time>2026-04-18T09:19:17Z</time></trkpt><trkpt lat="45.44889479515304" lon="11.532070139683391"><ele>349.5</ele><time>2026-04-18T09:19:18Z</time></trkpt><trkpt lat="45.44873232810128" lon="11.532103590968811"><ele>352.0</ele><time>2026-04-18T09:19:19Z</time></trkpt><trkpt lat="45.448599244747584" lon="11.532138629446408"><ele>354.5</ele><time>2026-04-18T09:19:20Z</time></trkpt><trkpt lat="45.44848403064349" lon="11.532173519701487"><ele>357.0</ele><time>2026-04-18T09:19:21Z</time></trkpt><trkpt lat="45.448391179058504" lon="11.532134822275557"><ele>357.0</ele><time>2026-04-18T09:19:22Z</time></trkpt><trkpt lat="45.44828586205533" lon="11.532111583375103"><ele>357.0</ele><time>2026-04-18T09:19:23Z</time></trkpt><trkpt lat="45.448172412087466" lon="11.532050641208297"><ele>357.0</ele><time>2026-04-18T09:19:24Z</time></trkpt><trkpt lat="45.44803832711958" lon="11.532009530444366"><ele>357.0</ele><time>2026-04-18T09:19:25.001Z</time></trkpt><trkpt lat="45.44785325408484" lon="11.531991698635021"><ele>356.6666666666667</ele><time>2026-04-18T09:19:26.001Z</time></trkpt><trkpt lat="45.447705303546314" lon="11.532014434172531"><ele>356.33333333333337</ele><time>2026-04-18T09:19:27.001Z</time></trkpt><trkpt lat="45.44756073846861" lon="11.532025796591505"><ele>356.0</ele><time>2026-04-18T09:19:28.001Z</time></trkpt><trkpt lat="45.44741020366139" lon="11.532115327007784"><ele>356.0</ele><time>2026-04-18T09:19:29.001Z</time></trkpt><trkpt lat="45.447251882760696" lon="11.532217617897647"><ele>356.0</ele><time>2026-04-18T09:19:30.001Z</time></trkpt><trkpt lat="45.44709893374031" lon="11.53232992609804"><ele>356.0</ele><time>2026-04-18T09:19:31.001Z</time></trkpt><trkpt lat="45.44695542916899" lon="11.53242096653279"><ele>358.25</ele><time>2026-04-18T09:19:32.001Z</time></trkpt><trkpt lat="45.4468211783872" lon="11.532483461085318"><ele>360.5</ele><time>2026-04-18T09:19:33.001Z</time></trkpt><trkpt lat="45.446711064795146" lon="11.532580907705569"><ele>362.75</ele><time>2026-04-18T09:19:34.001Z</time></trkpt><trkpt lat="45.446583437014375" lon="11.5326466886874"><ele>365.0</ele><time>2026-04-18T09:19:35.001Z</time></trkpt><trkpt lat="45.446465598268155" lon="11.532771282604937"><ele>365.0</ele><time>2026-04-18T09:19:36.001Z</time></trkpt><trkpt lat="45.446344425303025" lon="11.532878251597747"><ele>365.0</ele><time>2026-04-18T09:19:37.001Z</time></trkpt><trkpt lat="45.446234368960106" lon="11.533022370339046"><ele>365.0</ele><time>2026-04-18T09:19:38.001Z</time></trkpt><trkpt lat="45.44613397309121" lon="11.533169516378845"><ele>365.0</ele><time>2026-04-18T09:19:39.001Z</time></trkpt><trkpt lat="45.4460162799793" lon="11.533321307108217"><ele>363.0</ele><time>2026-04-18T09:19:40.001Z</time></trkpt><trkpt lat="45.44589368430654" lon="11.533521246542389"><ele>361.0</ele><time>2026-04-18T09:19:41.001Z</time></trkpt><trkpt lat="45.445772004304445" lon="11.533719468662248"><ele>359.0</ele><time>2026-04-18T09:19:42.001Z</time></trkpt><trkpt lat="45.44563636219855" lon="11.533895968475662"><ele>359.0</ele><time>2026-04-18T09:19:43.001Z</time></trkpt><trkpt lat="45.44549875411084" lon="11.534088793286095"><ele>359.0</ele><time>2026-04-18T09:19:44.001Z</time></trkpt><trkpt lat="45.44536744542524" lon="11.534288774885555"><ele>359.0</ele><time>2026-04-18T09:19:45.001Z</time></trkpt><trkpt lat="45.44525782725644" lon="11.534515564077665"><ele>365.6666666666667</ele><time>2026-04-18T09:19:46.001Z</time></trkpt><trkpt lat="45.445158122151916" lon="11.534754941460731"><ele>372.3333333333333</ele><time>2026-04-18T09:19:47.001Z</time></trkpt><trkpt lat="45.44505709670287" lon="11.534989266086416"><ele>379.0</ele><time>2026-04-18T09:19:48.001Z</time></trkpt><trkpt lat="45.44496959323917" lon="11.53523237067802"><ele>376.25</ele><time>2026-04-18T09:19:49.001Z</time></trkpt><trkpt lat="45.44488315261597" lon="11.535447433217024"><ele>373.5</ele><time>2026-04-18T09:19:50.001Z</time></trkpt><trkpt lat="45.444808753729035" lon="11.535622494413024"><ele>370.75</ele><time>2026-04-18T09:19:51.001Z</time></trkpt><trkpt lat="45.44471913880967" lon="11.535750060425793"><ele>368.0</ele><time>2026-04-18T09:19:52.001Z</time></trkpt><trkpt lat="45.44463578511024" lon="11.535842500156326"><ele>368.79999999999995</ele><time>2026-04-18T09:19:53.001Z</time></trkpt><trkpt lat="45.44456575496934" lon="11.535836922990079"><ele>369.6</ele><time>2026-04-18T09:19:54.001Z</time></trkpt><trkpt lat="45.44447819326019" lon="11.535792881243273"><ele>370.4</ele><time>2026-04-18T09:19:55.001Z</time></trkpt><trkpt lat="45.44437877993109" lon="11.535702348989565"><ele>371.20000000000005</ele><time>2026-04-18T09:19:56.001Z</time></trkpt><trkpt lat="45.444266332700906" lon="11.53560595337174"><ele>372.0</ele><time>2026-04-18T09:19:57.001Z</time></trkpt><trkpt lat="45.44416592729085" lon="11.535522726394294"><ele>372.0</ele><time>2026-04-18T09:19:58Z</time></trkpt><trkpt lat="45.44409924362843" lon="11.535416943034127"><ele>372.0</ele><time>2026-04-18T09:19:59Z</time></trkpt><trkpt lat="45.44405318863804" lon="11.535276945140135"><ele>372.0</ele><time>2026-04-18T09:20:00Z</time></trkpt><trkpt lat="45.44402102937785" lon="11.535083421500028"><ele>372.0</ele><time>2026-04-18T09:20:01Z</time></trkpt><trkpt lat="45.443984858551715" lon="11.53485395561565"><ele>374.5</ele><time>2026-04-18T09:20:02Z</time></trkpt><trkpt lat="45.44394118592895" lon="11.534658660390216"><ele>377.0</ele><time>2026-04-18T09:20:03Z</time></trkpt><trkpt lat="45.44392601946714" lon="11.534509764856075"><ele>379.5</ele><time>2026-04-18T09:20:04Z</time></trkpt><trkpt lat="45.44393118314371" lon="11.53435282947848"><ele>382.0</ele><time>2026-04-18T09:20:05Z</time></trkpt><trkpt lat="45.443922616912445" lon="11.534182082210085"><ele>382.75</ele><time>2026-04-18T09:20:06Z</time></trkpt><trkpt lat="45.443913640755724" lon="11.534031042298219"><ele>383.5</ele><time>2026-04-18T09:20:07Z</time></trkpt><trkpt lat="45.44387410993768" lon="11.533903164697"><ele>384.25</ele><time>2026-04-18T09:20:08Z</time></trkpt><trkpt lat="45.44378946518956" lon="11.533775685406756"><ele>385.0</ele><time>2026-04-18T09:20:09Z</time></trkpt><trkpt lat="45.44365066050539" lon="11.53371856884228"><ele>380.33333333333337</ele><time>2026-04-18T09:20:10Z</time></trkpt><trkpt lat="45.44349879325602" lon="11.533646381974263"><ele>375.6666666666667</ele><time>2026-04-18T09:20:11Z</time></trkpt><trkpt lat="45.44332473540917" lon="11.533564474019276"><ele>371.0</ele><time>2026-04-18T09:20:12Z</time></trkpt><trkpt lat="45.443159266252785" lon="11.533469137576684"><ele>371.0</ele><time>2026-04-18T09:20:13Z</time></trkpt><trkpt lat="45.443016265157425" lon="11.533379503068891"><ele>371.0</ele><time>2026-04-18T09:20:14Z</time></trkpt><trkpt lat="45.442890675291615" lon="11.533302597567037"><ele>371.0</ele><time>2026-04-18T09:20:15Z</time></trkpt><trkpt lat="45.442783232764256" lon="11.533244311075334"><ele>371.0</ele><time>2026-04-18T09:20:16Z</time></trkpt><trkpt lat="45.44269152907897" lon="11.533196724596632"><ele>371.75</ele><time>2026-04-18T09:20:17Z</time></trkpt><trkpt lat="45.442595231780935" lon="11.533180666048139"><ele>372.5</ele><time>2026-04-18T09:20:18Z</time></trkpt><trkpt lat="45.4424738551612" lon="11.533202636010834"><ele>373.25</ele><time>2026-04-18T09:20:19Z</time></trkpt><trkpt lat="45.442337622329056" lon="11.533252711421245"><ele>374.0</ele><time>2026-04-18T09:20:20Z</time></trkpt><trkpt lat="45.44221397262465" lon="11.533282846913506"><ele>375.33333333333337</ele><time>2026-04-18T09:20:21Z</time></trkpt><trkpt lat="45.44210369722127" lon="11.533286302252932"><ele>376.6666666666667</ele><time>2026-04-18T09:20:22Z</time></trkpt><trkpt lat="45.44202171801394" lon="11.533318614163058"><ele>378.0</ele><time>2026-04-18T09:20:23Z</time></trkpt><trkpt lat="45.44195048179986" lon="11.533346417056292"><ele>379.3333333333333</ele><time>2026-04-18T09:20:24Z</time></trkpt><trkpt lat="45.44190329747787" lon="11.533421399637055"><ele>380.66666666666663</ele><time>2026-04-18T09:20:25Z</time></trkpt><trkpt lat="45.44186812844249" lon="11.533518797811158"><ele>382.0</ele><time>2026-04-18T09:20:26Z</time></trkpt><trkpt lat="45.44182864274853" lon="11.533662630736782"><ele>382.66666666666663</ele><time>2026-04-18T09:20:27Z</time></trkpt><trkpt lat="45.44177254917545" lon="11.533852201427429"><ele>383.3333333333333</ele><time>2026-04-18T09:20:28Z</time></trkpt><trkpt lat="45.441680247377505" lon="11.534070625179258"><ele>384.0</ele><time>2026-04-18T09:20:29Z</time></trkpt><trkpt lat="45.44159427179762" lon="11.534294893505924"><ele>384.0</ele><time>2026-04-18T09:20:30Z</time></trkpt><trkpt lat="45.441524762821395" lon="11.534480436244001"><ele>384.0</ele><time>2026-04-18T09:20:31Z</time></trkpt><trkpt lat="45.441469801615455" lon="11.53461310837918"><ele>384.0</ele><time>2026-04-18T09:20:32Z</time></trkpt><trkpt lat="45.44142740788307" lon="11.534733350942464"><ele>384.0</ele><time>2026-04-18T09:20:33Z</time></trkpt><trkpt lat="45.441356285282836" lon="11.534801381163101"><ele>384.0</ele><time>2026-04-18T09:20:34Z</time></trkpt><trkpt lat="45.44126962142178" lon="11.534840493513746"><ele>387.75</ele><time>2026-04-18T09:20:35Z</time></trkpt><trkpt lat="45.441155759413746" lon="11.534862539039331"><ele>391.5</ele><time>2026-04-18T09:20:36Z</time></trkpt><trkpt lat="45.44100537954141" lon="11.534908970568395"><ele>395.25</ele><time>2026-04-18T09:20:37Z</time></trkpt><trkpt lat="45.44084447970041" lon="11.534986162411323"><ele>399.0</ele><time>2026-04-18T09:20:38Z</time></trkpt><trkpt lat="45.440698389563316" lon="11.535072636995759"><ele>399.0</ele><time>2026-04-18T09:20:39Z</time></trkpt><trkpt lat="45.44055476192178" lon="11.535156478733697"><ele>399.0</ele><time>2026-04-18T09:20:40Z</time></trkpt><trkpt lat="45.44040294318365" lon="11.535249923207308"><ele>399.0</ele><time>2026-04-18T09:20:41Z</time></trkpt><trkpt lat="45.4402557825423" lon="11.535352229172018"><ele>399.79999999999995</ele><time>2026-04-18T09:20:42Z</time></trkpt><trkpt lat="45.440126344446895" lon="11.535391008334528"><ele>400.59999999999997</ele><time>2026-04-18T09:20:43Z</time></trkpt><trkpt lat="45.44001952633773" lon="11.535430074397981"><ele>401.4</ele><time>2026-04-18T09:20:44Z</time></trkpt><trkpt lat="45.43992409263653" lon="11.535466228494128"><ele>402.2</ele><time>2026-04-18T09:20:45Z</time></trkpt><trkpt lat="45.43985407621671" lon="11.535512334212784"><ele>403.0</ele><time>2026-04-18T09:20:46Z</time></trkpt><trkpt lat="45.43977257837545" lon="11.535530949062583"><ele>403.0</ele><time>2026-04-18T09:20:48Z</time></trkpt><trkpt lat="45.43972817210972" lon="11.535696726801783"><ele>403.0</ele><time>2026-04-18T09:20:51Z</time></trkpt><trkpt lat="45.439748415784244" lon="11.53585745078614"><ele>403.0</ele><time>2026-04-18T09:20:52Z</time></trkpt><trkpt lat="45.439752076829876" lon="11.536015888042769"><ele>403.0</ele><time>2026-04-18T09:20:53Z</time></trkpt><trkpt lat="45.43975012059008" lon="11.536190012522331"><ele>403.0</ele><time>2026-04-18T09:20:54Z</time></trkpt><trkpt lat="45.43973888513886" lon="11.536350600887767"><ele>403.0</ele><time>2026-04-18T09:20:55Z</time></trkpt><trkpt lat="45.4397168052075" lon="11.536490041029603"><ele>403.0</ele><time>2026-04-18T09:20:56Z</time></trkpt><trkpt lat="45.4396707526017" lon="11.5365804682392"><ele>403.0</ele><time>2026-04-18T09:20:57Z</time></trkpt><trkpt lat="45.439596846481486" lon="11.536628984334927"><ele>403.0</ele><time>2026-04-18T09:20:58Z</time></trkpt><trkpt lat="45.43950900273842" lon="11.536672094210859"><ele>401.5</ele><time>2026-04-18T09:20:59Z</time></trkpt><trkpt lat="45.439405880706225" lon="11.53671454329621"><ele>400.0</ele><time>2026-04-18T09:21:00Z</time></trkpt><trkpt lat="45.4392826939154" lon="11.536756838907035"><ele>398.5</ele><time>2026-04-18T09:21:01Z</time></trkpt><trkpt lat="45.439146877473085" lon="11.53681117590745"><ele>397.0</ele><time>2026-04-18T09:21:02Z</time></trkpt><trkpt lat="45.439010462688294" lon="11.53689287725689"><ele>397.0</ele><time>2026-04-18T09:21:03Z</time></trkpt><trkpt lat="45.43885995329626" lon="11.537023880015534"><ele>397.0</ele><time>2026-04-18T09:21:04Z</time></trkpt><trkpt lat="45.43871757465278" lon="11.537162006704337"><ele>397.0</ele><time>2026-04-18T09:21:05Z</time></trkpt><trkpt lat="45.4386037335127" lon="11.53728467825289"><ele>396.0</ele><time>2026-04-18T09:21:06Z</time></trkpt><trkpt lat="45.438500561654095" lon="11.537457067368452"><ele>395.0</ele><time>2026-04-18T09:21:07Z</time></trkpt><trkpt lat="45.43839911330048" lon="11.537648041634469"><ele>394.0</ele><time>2026-04-18T09:21:08Z</time></trkpt><trkpt lat="45.438313220460564" lon="11.537853342167102"><ele>392.75</ele><time>2026-04-18T09:21:09Z</time></trkpt><trkpt lat="45.43824584303414" lon="11.538031150207592"><ele>391.5</ele><time>2026-04-18T09:21:10.001Z</time></trkpt><trkpt lat="45.43820490954374" lon="11.538196494684202"><ele>390.25</ele><time>2026-04-18T09:21:11.001Z</time></trkpt><trkpt lat="45.438170884524276" lon="11.538355560938385"><ele>389.0</ele><time>2026-04-18T09:21:12.001Z</time></trkpt><trkpt lat="45.43814234990516" lon="11.538516545978577"><ele>389.0</ele><time>2026-04-18T09:21:13.001Z</time></trkpt><trkpt lat="45.43810452588261" lon="11.538681290844272"><ele>389.0</ele><time>2026-04-18T09:21:14.001Z</time></trkpt><trkpt lat="45.43816193975765" lon="11.538946219695351"><ele>389.0</ele><time>2026-04-18T09:21:15.001Z</time></trkpt><trkpt lat="45.43820529428708" lon="11.539196932009208"><ele>387.0</ele><time>2026-04-18T09:21:16.001Z</time></trkpt><trkpt lat="45.438235893615335" lon="11.539480750083701"><ele>385.0</ele><time>2026-04-18T09:21:17.001Z</time></trkpt><trkpt lat="45.43824685041318" lon="11.539724576818148"><ele>383.0</ele><time>2026-04-18T09:21:18.001Z</time></trkpt><trkpt lat="45.43823125046262" lon="11.53995701655685"><ele>381.5</ele><time>2026-04-18T09:21:19.001Z</time></trkpt><trkpt lat="45.438196103970746" lon="11.540169279403734"><ele>380.0</ele><time>2026-04-18T09:21:20.001Z</time></trkpt><trkpt lat="45.43815918886693" lon="11.540346383296528"><ele>378.5</ele><time>2026-04-18T09:21:21.001Z</time></trkpt><trkpt lat="45.43814147438371" lon="11.540523572314752"><ele>377.0</ele><time>2026-04-18T09:21:22.001Z</time></trkpt><trkpt lat="45.43817586151575" lon="11.540711461665712"><ele>375.75</ele><time>2026-04-18T09:21:23.001Z</time></trkpt><trkpt lat="45.4382639604569" lon="11.54090933392462"><ele>374.5</ele><time>2026-04-18T09:21:24.001Z</time></trkpt><trkpt lat="45.43834849291073" lon="11.541082157622753"><ele>373.25</ele><time>2026-04-18T09:21:25.001Z</time></trkpt><trkpt lat="45.43842201563069" lon="11.541237492666118"><ele>372.0</ele><time>2026-04-18T09:21:26.001Z</time></trkpt><trkpt lat="45.438526102264184" lon="11.541375740770398"><ele>371.3333333333333</ele><time>2026-04-18T09:21:27.001Z</time></trkpt><trkpt lat="45.43867068168129" lon="11.541485058668187"><ele>370.66666666666663</ele><time>2026-04-18T09:21:28.001Z</time></trkpt><trkpt lat="45.438820173810726" lon="11.541546677268569"><ele>370.0</ele><time>2026-04-18T09:21:29.001Z</time></trkpt><trkpt lat="45.438963134177996" lon="11.541580103345156"><ele>368.5</ele><time>2026-04-18T09:21:30.001Z</time></trkpt><trkpt lat="45.43910957006525" lon="11.541569952490294"><ele>367.0</ele><time>2026-04-18T09:21:31.001Z</time></trkpt><trkpt lat="45.439257014359235" lon="11.541562900160683"><ele>365.5</ele><time>2026-04-18T09:21:32.001Z</time></trkpt><trkpt lat="45.439403179121996" lon="11.54160059418413"><ele>364.0</ele><time>2026-04-18T09:21:33.001Z</time></trkpt><trkpt lat="45.43955607697901" lon="11.541691378999017"><ele>363.0</ele><time>2026-04-18T09:21:34.001Z</time></trkpt><trkpt lat="45.43975173972836" lon="11.541783343648811"><ele>362.0</ele><time>2026-04-18T09:21:35.001Z</time></trkpt><trkpt lat="45.43996308780637" lon="11.541878537264115"><ele>361.0</ele><time>2026-04-18T09:21:36.001Z</time></trkpt><trkpt lat="45.44015997017907" lon="11.541979705825188"><ele>362.3333333333333</ele><time>2026-04-18T09:21:37.001Z</time></trkpt><trkpt lat="45.4403399156646" lon="11.542062319556189"><ele>363.6666666666667</ele><time>2026-04-18T09:21:38.001Z</time></trkpt><trkpt lat="45.44050865681809" lon="11.542135983430413"><ele>365.0</ele><time>2026-04-18T09:21:39.001Z</time></trkpt><trkpt lat="45.44066858397384" lon="11.542204278755301"><ele>363.0</ele><time>2026-04-18T09:21:40.001Z</time></trkpt><trkpt lat="45.440810427090305" lon="11.542284392528869"><ele>361.0</ele><time>2026-04-18T09:21:41.001Z</time></trkpt><trkpt lat="45.44094427842345" lon="11.542357498854907"><ele>359.0</ele><time>2026-04-18T09:21:42.001Z</time></trkpt><trkpt lat="45.44107835407643" lon="11.542427041064945"><ele>357.0</ele><time>2026-04-18T09:21:43.001Z</time></trkpt><trkpt lat="45.441207251348196" lon="11.542510473880634"><ele>356.6666666666667</ele><time>2026-04-18T09:21:44.001Z</time></trkpt><trkpt lat="45.44133533889343" lon="11.542633845959584"><ele>356.33333333333337</ele><time>2026-04-18T09:21:45.001Z</time></trkpt><trkpt lat="45.441443774337124" lon="11.542809905783415"><ele>356.0</ele><time>2026-04-18T09:21:46.001Z</time></trkpt><trkpt lat="45.44152933446155" lon="11.543017947979946"><ele>355.0</ele><time>2026-04-18T09:21:47.001Z</time></trkpt><trkpt lat="45.44158497940631" lon="11.543221919919194"><ele>354.0</ele><time>2026-04-18T09:21:48.001Z</time></trkpt><trkpt lat="45.44161340026939" lon="11.543451446377405"><ele>353.0</ele><time>2026-04-18T09:21:49.001Z</time></trkpt><trkpt lat="45.44161340266297" lon="11.543700895847559"><ele>353.75</ele><time>2026-04-18T09:21:50.001Z</time></trkpt><trkpt lat="45.4416008125806" lon="11.543933593260922"><ele>354.5</ele><time>2026-04-18T09:21:51.001Z</time></trkpt><trkpt lat="45.441595146921095" lon="11.544126512759759"><ele>355.25</ele><time>2026-04-18T09:21:52.001Z</time></trkpt><trkpt lat="45.44159822382729" lon="11.544306204500511"><ele>356.0</ele><time>2026-04-18T09:21:53.001Z</time></trkpt><trkpt lat="45.441558496102225" lon="11.544484926694693"><ele>355.6666666666667</ele><time>2026-04-18T09:21:54.001Z</time></trkpt><trkpt lat="45.44146430645767" lon="11.544667962703537"><ele>355.3333333333333</ele><time>2026-04-18T09:21:55.001Z</time></trkpt><trkpt lat="45.44137387585196" lon="11.544858164877036"><ele>355.0</ele><time>2026-04-18T09:21:56.001Z</time></trkpt><trkpt lat="45.441292237774555" lon="11.545016144352724"><ele>358.0</ele><time>2026-04-18T09:21:57.001Z</time></trkpt><trkpt lat="45.4412058698497" lon="11.54517148679315"><ele>361.0</ele><time>2026-04-18T09:21:58.001Z</time></trkpt><trkpt lat="45.44112318476901" lon="11.545373226824736"><ele>364.0</ele><time>2026-04-18T09:21:59.001Z</time></trkpt><trkpt lat="45.44107953548615" lon="11.545576419525167"><ele>364.0</ele><time>2026-04-18T09:22:00.001Z</time></trkpt><trkpt lat="45.44108194913428" lon="11.545787623601973"><ele>364.0</ele><time>2026-04-18T09:22:01.001Z</time></trkpt><trkpt lat="45.44109048349741" lon="11.545989180476068"><ele>364.0</ele><time>2026-04-18T09:22:02.001Z</time></trkpt><trkpt lat="45.441100762191574" lon="11.546197809755293"><ele>364.0</ele><time>2026-04-18T09:22:03.001Z</time></trkpt><trkpt lat="45.44112636324302" lon="11.546406387880015"><ele>362.66666666666663</ele><time>2026-04-18T09:22:04Z</time></trkpt><trkpt lat="45.44114762144527" lon="11.546624584473918"><ele>361.3333333333333</ele><time>2026-04-18T09:22:05Z</time></trkpt><trkpt lat="45.44114705028556" lon="11.546839265529622"><ele>360.0</ele><time>2026-04-18T09:22:06Z</time></trkpt><trkpt lat="45.4411145528853" lon="11.547059559585161"><ele>360.0</ele><time>2026-04-18T09:22:07Z</time></trkpt><trkpt lat="45.44106742376316" lon="11.547279212344915"><ele>360.0</ele><time>2026-04-18T09:22:08Z</time></trkpt><trkpt lat="45.44100951379576" lon="11.54746890595905"><ele>360.0</ele><time>2026-04-18T09:22:09Z</time></trkpt><trkpt lat="45.440969151034054" lon="11.547640428720241"><ele>360.0</ele><time>2026-04-18T09:22:10Z</time></trkpt><trkpt lat="45.44093143176948" lon="11.547804078563765"><ele>359.8</ele><time>2026-04-18T09:22:11Z</time></trkpt><trkpt lat="45.44092976967288" lon="11.547951417340009"><ele>359.6</ele><time>2026-04-18T09:22:12Z</time></trkpt><trkpt lat="45.44096284241975" lon="11.548081947460942"><ele>359.4</ele><time>2026-04-18T09:22:13Z</time></trkpt><trkpt lat="45.44103240511125" lon="11.548189160197165"><ele>359.2</ele><time>2026-04-18T09:22:14Z</time></trkpt><trkpt lat="45.441107858459695" lon="11.548277370671507"><ele>359.0</ele><time>2026-04-18T09:22:15Z</time></trkpt><trkpt lat="45.44114349980299" lon="11.548400151029039"><ele>359.0</ele><time>2026-04-18T09:22:16Z</time></trkpt><trkpt lat="45.441125330974494" lon="11.548562402540808"><ele>359.0</ele><time>2026-04-18T09:22:17Z</time></trkpt><trkpt lat="45.44107953176791" lon="11.548725187975226"><ele>359.0</ele><time>2026-04-18T09:22:18Z</time></trkpt><trkpt lat="45.44101685691571" lon="11.548857628008108"><ele>359.0</ele><time>2026-04-18T09:22:19Z</time></trkpt><trkpt lat="45.44093505623437" lon="11.548971360952871"><ele>358.6</ele><time>2026-04-18T09:22:20Z</time></trkpt><trkpt lat="45.440858192729266" lon="11.54905122063784"><ele>358.2</ele><time>2026-04-18T09:22:21Z</time></trkpt><trkpt lat="45.44080623252566" lon="11.549151480691657"><ele>357.8</ele><time>2026-04-18T09:22:22Z</time></trkpt><trkpt lat="45.44078701248137" lon="11.549278478996564"><ele>357.40000000000003</ele><time>2026-04-18T09:22:23Z</time></trkpt><trkpt lat="45.440799501330446" lon="11.549473981056495"><ele>357.0</ele><time>2026-04-18T09:22:24Z</time></trkpt><trkpt lat="45.44082272031908" lon="11.549654323933668"><ele>357.0</ele><time>2026-04-18T09:22:25Z</time></trkpt><trkpt lat="45.440806119875596" lon="11.549815986975865"><ele>357.0</ele><time>2026-04-18T09:22:26Z</time></trkpt><trkpt lat="45.44075689280496" lon="11.54997894047054"><ele>357.0</ele><time>2026-04-18T09:22:27Z</time></trkpt><trkpt lat="45.440679178946844" lon="11.550111134975502"><ele>357.0</ele><time>2026-04-18T09:22:28Z</time></trkpt><trkpt lat="45.440584862104465" lon="11.550213367341797"><ele>357.0</ele><time>2026-04-18T09:22:29Z</time></trkpt><trkpt lat="45.44049469482565" lon="11.550293808248972"><ele>357.0</ele><time>2026-04-18T09:22:30Z</time></trkpt><trkpt lat="45.440441122289165" lon="11.550401664732291"><ele>357.0</ele><time>2026-04-18T09:22:31Z</time></trkpt><trkpt lat="45.44042200123971" lon="11.550561627734664"><ele>357.0</ele><time>2026-04-18T09:22:32Z</time></trkpt><trkpt lat="45.44043719170233" lon="11.55077436832423"><ele>357.3333333333333</ele><time>2026-04-18T09:22:33Z</time></trkpt><trkpt lat="45.44047374315712" lon="11.551005698576416"><ele>357.66666666666663</ele><time>2026-04-18T09:22:34Z</time></trkpt><trkpt lat="45.44047257722783" lon="11.551241612672996"><ele>358.0</ele><time>2026-04-18T09:22:35Z</time></trkpt><trkpt lat="45.44043997483377" lon="11.551451468822716"><ele>354.75</ele><time>2026-04-18T09:22:36Z</time></trkpt><trkpt lat="45.44040689089427" lon="11.551619382899798"><ele>351.5</ele><time>2026-04-18T09:22:37Z</time></trkpt><trkpt lat="45.44039739937072" lon="11.551793161549579"><ele>348.25</ele><time>2026-04-18T09:22:38Z</time></trkpt><trkpt lat="45.44039907317936" lon="11.552005223622952"><ele>345.0</ele><time>2026-04-18T09:22:39Z</time></trkpt><trkpt lat="45.44042339830701" lon="11.552278709409388"><ele>342.3333333333333</ele><time>2026-04-18T09:22:40Z</time></trkpt><trkpt lat="45.44045385720241" lon="11.552591320254766"><ele>339.66666666666663</ele><time>2026-04-18T09:22:41Z</time></trkpt><trkpt lat="45.44044085752026" lon="11.552883319736573"><ele>337.0</ele><time>2026-04-18T09:22:42Z</time></trkpt><trkpt lat="45.44042527117023" lon="11.553153695497755"><ele>333.66666666666663</ele><time>2026-04-18T09:22:43Z</time></trkpt><trkpt lat="45.44041681178185" lon="11.55340574341101"><ele>330.3333333333333</ele><time>2026-04-18T09:22:44Z</time></trkpt><trkpt lat="45.44042893049884" lon="11.553649470224196"><ele>327.0</ele><time>2026-04-18T09:22:45Z</time></trkpt><trkpt lat="45.44046275371963" lon="11.553854229202521"><ele>326.5</ele><time>2026-04-18T09:22:46Z</time></trkpt><trkpt lat="45.440500706791525" lon="11.55401940239765"><ele>326.0</ele><time>2026-04-18T09:22:47Z</time></trkpt><trkpt lat="45.44049296354647" lon="11.554186546024845"><ele>325.5</ele><time>2026-04-18T09:22:48Z</time></trkpt><trkpt lat="45.440482989735905" lon="11.55434462131937"><ele>325.0</ele><time>2026-04-18T09:22:49Z</time></trkpt><trkpt lat="45.44040308366767" lon="11.554470865365438"><ele>323.66666666666663</ele><time>2026-04-18T09:22:50Z</time></trkpt><trkpt lat="45.440290650920275" lon="11.5545984832067"><ele>322.3333333333333</ele><time>2026-04-18T09:22:51Z</time></trkpt><trkpt lat="45.44013737960492" lon="11.554759700824132"><ele>321.0</ele><time>2026-04-18T09:22:52Z</time></trkpt><trkpt lat="45.43998288664055" lon="11.554926158679375"><ele>321.0</ele><time>2026-04-18T09:22:53Z</time></trkpt><trkpt lat="45.43984922051669" lon="11.555087659974467"><ele>321.0</ele><time>2026-04-18T09:22:54Z</time></trkpt><trkpt lat="45.439717071701445" lon="11.55522494057335"><ele>321.0</ele><time>2026-04-18T09:22:55Z</time></trkpt><trkpt lat="45.439594171185874" lon="11.555370181170817"><ele>317.3333333333333</ele><time>2026-04-18T09:22:56Z</time></trkpt><trkpt lat="45.4394735473882" lon="11.555568481605055"><ele>313.66666666666663</ele><time>2026-04-18T09:22:57Z</time></trkpt><trkpt lat="45.43936915471022" lon="11.555794660675039"><ele>310.0</ele><time>2026-04-18T09:22:58Z</time></trkpt><trkpt lat="45.43926565206435" lon="11.555993578657795"><ele>310.0</ele><time>2026-04-18T09:22:59Z</time></trkpt><trkpt lat="45.43914845630665" lon="11.55614635893183"><ele>310.0</ele><time>2026-04-18T09:23:00Z</time></trkpt><trkpt lat="45.43904082040156" lon="11.55628062718458"><ele>310.0</ele><time>2026-04-18T09:23:01.001Z</time></trkpt><trkpt lat="45.438958742619064" lon="11.556414933677285"><ele>310.0</ele><time>2026-04-18T09:23:02.001Z</time></trkpt><trkpt lat="45.4388978542535" lon="11.556595807507529"><ele>310.3333333333333</ele><time>2026-04-18T09:23:03.001Z</time></trkpt><trkpt lat="45.43885573565831" lon="11.55682488929943"><ele>310.6666666666667</ele><time>2026-04-18T09:23:04.001Z</time></trkpt><trkpt lat="45.43882039862987" lon="11.55703352560608"><ele>311.0</ele><time>2026-04-18T09:23:05.001Z</time></trkpt><trkpt lat="45.43875596868596" lon="11.557214185664595"><ele>310.0</ele><time>2026-04-18T09:23:06.001Z</time></trkpt><trkpt lat="45.43868400280542" lon="11.557354534519591"><ele>309.0</ele><time>2026-04-18T09:23:07.001Z</time></trkpt><trkpt lat="45.43858781769604" lon="11.557451334563654"><ele>308.0</ele><time>2026-04-18T09:23:08.001Z</time></trkpt><trkpt lat="45.438475056874694" lon="11.557536764526528"><ele>307.0</ele><time>2026-04-18T09:23:09.001Z</time></trkpt><trkpt lat="45.43835509420989" lon="11.55754412250966"><ele>307.0</ele><time>2026-04-18T09:23:10.001Z</time></trkpt><trkpt lat="45.43823494707544" lon="11.557491977020089"><ele>307.0</ele><time>2026-04-18T09:23:11.001Z</time></trkpt><trkpt lat="45.43811038401321" lon="11.557392988377401"><ele>307.0</ele><time>2026-04-18T09:23:12.001Z</time></trkpt><trkpt lat="45.4379608869558" lon="11.557330077399664"><ele>307.0</ele><time>2026-04-18T09:23:13.001Z</time></trkpt><trkpt lat="45.437831617992174" lon="11.557273407240736"><ele>307.0</ele><time>2026-04-18T09:23:14.001Z</time></trkpt><trkpt lat="45.43769731098735" lon="11.557222029832223"><ele>307.0</ele><time>2026-04-18T09:23:15.001Z</time></trkpt><trkpt lat="45.437580854125564" lon="11.557251952535598"><ele>307.0</ele><time>2026-04-18T09:23:16.001Z</time></trkpt><trkpt lat="45.43745294855426" lon="11.557364310646339"><ele>307.0</ele><time>2026-04-18T09:23:17.001Z</time></trkpt><trkpt lat="45.437311033389314" lon="11.557503777708712"><ele>307.0</ele><time>2026-04-18T09:23:18.001Z</time></trkpt><trkpt lat="45.437153108717666" lon="11.557630041775942"><ele>307.0</ele><time>2026-04-18T09:23:19.001Z</time></trkpt><trkpt lat="45.43700366787379" lon="11.557740162926395"><ele>307.0</ele><time>2026-04-18T09:23:20.001Z</time></trkpt><trkpt lat="45.43687547232602" lon="11.557848342893715"><ele>304.25</ele><time>2026-04-18T09:23:21.001Z</time></trkpt><trkpt lat="45.43675389605239" lon="11.557975031785835"><ele>301.5</ele><time>2026-04-18T09:23:22.001Z</time></trkpt><trkpt lat="45.43662930117983" lon="11.55808732282559"><ele>298.75</ele><time>2026-04-18T09:23:23.001Z</time></trkpt><trkpt lat="45.436528380410344" lon="11.558214480509564"><ele>296.0</ele><time>2026-04-18T09:23:24.001Z</time></trkpt><trkpt lat="45.43642919203505" lon="11.558338424177744"><ele>296.0</ele><time>2026-04-18T09:23:25.001Z</time></trkpt><trkpt lat="45.43634339728219" lon="11.55846065571244"><ele>296.0</ele><time>2026-04-18T09:23:26.001Z</time></trkpt><trkpt lat="45.43627916860912" lon="11.558600279448898"><ele>296.0</ele><time>2026-04-18T09:23:27.001Z</time></trkpt><trkpt lat="45.43624139268036" lon="11.558743998411002"><ele>296.0</ele><time>2026-04-18T09:23:28.001Z</time></trkpt><trkpt lat="45.43621601995175" lon="11.558888581012807"><ele>289.0</ele><time>2026-04-18T09:23:29.001Z</time></trkpt><trkpt lat="45.436167873862175" lon="11.559046243157471"><ele>282.0</ele><time>2026-04-18T09:23:30.001Z</time></trkpt><trkpt lat="45.436117782411856" lon="11.559230461822878"><ele>275.0</ele><time>2026-04-18T09:23:31.001Z</time></trkpt><trkpt lat="45.436062373411495" lon="11.559434025153008"><ele>268.0</ele><time>2026-04-18T09:23:32.001Z</time></trkpt><trkpt lat="45.43600920940315" lon="11.559652345111925"><ele>268.0</ele><time>2026-04-18T09:23:33.001Z</time></trkpt><trkpt lat="45.435970065852565" lon="11.559879620428338"><ele>268.0</ele><time>2026-04-18T09:23:34.001Z</time></trkpt><trkpt lat="45.4359362434297" lon="11.560131632035993"><ele>268.0</ele><time>2026-04-18T09:23:35.001Z</time></trkpt><trkpt lat="45.435893506994915" lon="11.56041278371539"><ele>269.66666666666663</ele><time>2026-04-18T09:23:36.001Z</time></trkpt><trkpt lat="45.43584642539137" lon="11.560682486743795"><ele>271.3333333333333</ele><time>2026-04-18T09:23:37.001Z</time></trkpt><trkpt lat="45.43579841704748" lon="11.560923471961642"><ele>273.0</ele><time>2026-04-18T09:23:38.001Z</time></trkpt><trkpt lat="45.43574147253181" lon="11.561149979564473"><ele>275.0</ele><time>2026-04-18T09:23:39.001Z</time></trkpt><trkpt lat="45.435681726884184" lon="11.561363722997083"><ele>277.0</ele><time>2026-04-18T09:23:40.001Z</time></trkpt><trkpt lat="45.43560967206735" lon="11.561559023522955"><ele>279.0</ele><time>2026-04-18T09:23:41.001Z</time></trkpt><trkpt lat="45.43553976438591" lon="11.561729397748083"><ele>273.0</ele><time>2026-04-18T09:23:42.001Z</time></trkpt><trkpt lat="45.43545567377924" lon="11.561889096831607"><ele>267.0</ele><time>2026-04-18T09:23:43.001Z</time></trkpt><trkpt lat="45.435342601112346" lon="11.561993059216038"><ele>261.0</ele><time>2026-04-18T09:23:44.001Z</time></trkpt><trkpt lat="45.43524136465497" lon="11.562124126001237"><ele>255.0</ele><time>2026-04-18T09:23:45.001Z</time></trkpt><trkpt lat="45.435134646406134" lon="11.562259195946776"><ele>255.0</ele><time>2026-04-18T09:23:46.001Z</time></trkpt><trkpt lat="45.435039609970005" lon="11.562452376354477"><ele>255.0</ele><time>2026-04-18T09:23:47.001Z</time></trkpt><trkpt lat="45.434965886175505" lon="11.562681966164538"><ele>255.0</ele><time>2026-04-18T09:23:48.001Z</time></trkpt><trkpt lat="45.43490908256492" lon="11.56293104403787"><ele>256.3333333333333</ele><time>2026-04-18T09:23:49.001Z</time></trkpt><trkpt lat="45.43482199581269" lon="11.56315826137212"><ele>257.66666666666663</ele><time>2026-04-18T09:23:50.001Z</time></trkpt><trkpt lat="45.43472979359748" lon="11.563412225544981"><ele>259.0</ele><time>2026-04-18T09:23:51.001Z</time></trkpt><trkpt lat="45.43462006434671" lon="11.563629207398352"><ele>251.33333333333331</ele><time>2026-04-18T09:23:52.001Z</time></trkpt><trkpt lat="45.43451598739975" lon="11.563842816229295"><ele>243.66666666666669</ele><time>2026-04-18T09:23:53.001Z</time></trkpt><trkpt lat="45.43441235083602" lon="11.564055118787005"><ele>236.0</ele><time>2026-04-18T09:23:54.001Z</time></trkpt><trkpt lat="45.43430703162128" lon="11.564255312344924"><ele>236.0</ele><time>2026-04-18T09:23:55.001Z</time></trkpt><trkpt lat="45.43420891617243" lon="11.564451111218446"><ele>236.0</ele><time>2026-04-18T09:23:56.001Z</time></trkpt><trkpt lat="45.434132895887295" lon="11.564660462543802"><ele>236.0</ele><time>2026-04-18T09:23:57.001Z</time></trkpt><trkpt lat="45.434083707470556" lon="11.56483858418529"><ele>235.75</ele><time>2026-04-18T09:23:58.001Z</time></trkpt><trkpt lat="45.43403840213001" lon="11.56498670957443"><ele>235.5</ele><time>2026-04-18T09:23:59.001Z</time></trkpt><trkpt lat="45.434006654085984" lon="11.565141997269771"><ele>235.25</ele><time>2026-04-18T09:24:00.001Z</time></trkpt><trkpt lat="45.43400843399916" lon="11.565303807270382"><ele>235.0</ele><time>2026-04-18T09:24:01.001Z</time></trkpt><trkpt lat="45.43401898015999" lon="11.565461061412801"><ele>231.8</ele><time>2026-04-18T09:24:02.001Z</time></trkpt><trkpt lat="45.434092709528386" lon="11.565563515756844"><ele>228.6</ele><time>2026-04-18T09:24:03.001Z</time></trkpt><trkpt lat="45.43416136384821" lon="11.565665702950865"><ele>225.39999999999998</ele><time>2026-04-18T09:24:04.001Z</time></trkpt><trkpt lat="45.43423858400754" lon="11.565733447037722"><ele>222.2</ele><time>2026-04-18T09:24:05.001Z</time></trkpt><trkpt lat="45.434317504604714" lon="11.565798675874875"><ele>219.0</ele><time>2026-04-18T09:24:06.001Z</time></trkpt><trkpt lat="45.43439895508906" lon="11.56586415264878"><ele>219.0</ele><time>2026-04-18T09:24:07.001Z</time></trkpt><trkpt lat="45.434489949871974" lon="11.56591112534656"><ele>218.99999999999997</ele><time>2026-04-18T09:24:08.001Z</time></trkpt><trkpt lat="45.43457390795124" lon="11.565984806563664"><ele>218.99999999999997</ele><time>2026-04-18T09:24:09.001Z</time></trkpt><trkpt lat="45.434663024869565" lon="11.566058200835675"><ele>219.0</ele><time>2026-04-18T09:24:10Z</time></trkpt><trkpt lat="45.434755128119114" lon="11.566138286445971"><ele>219.0</ele><time>2026-04-18T09:24:11Z</time></trkpt><trkpt lat="45.43484875869178" lon="11.566214832815398"><ele>216.5</ele><time>2026-04-18T09:24:12Z</time></trkpt><trkpt lat="45.434943623366806" lon="11.56629334458071"><ele>214.0</ele><time>2026-04-18T09:24:13Z</time></trkpt><trkpt lat="45.435033596270415" lon="11.566389984517714"><ele>211.5</ele><time>2026-04-18T09:24:14Z</time></trkpt><trkpt lat="45.43510577489204" lon="11.56652956905409"><ele>209.0</ele><time>2026-04-18T09:24:15Z</time></trkpt><trkpt lat="45.43517369348671" lon="11.566684646678153"><ele>209.0</ele><time>2026-04-18T09:24:16Z</time></trkpt><trkpt lat="45.43525766505741" lon="11.566821289129546"><ele>209.0</ele><time>2026-04-18T09:24:17Z</time></trkpt><trkpt lat="45.435357724979326" lon="11.56691535786367"><ele>209.0</ele><time>2026-04-18T09:24:18Z</time></trkpt><trkpt lat="45.43547010929545" lon="11.566959868110226"><ele>209.0</ele><time>2026-04-18T09:24:19Z</time></trkpt><trkpt lat="45.435551651103566" lon="11.566990899893543"><ele>209.0</ele><time>2026-04-18T09:24:20Z</time></trkpt><trkpt lat="45.435650293299354" lon="11.567025512957013"><ele>206.0</ele><time>2026-04-18T09:24:22Z</time></trkpt><trkpt lat="45.435615577517865" lon="11.567176199722386"><ele>203.0</ele><time>2026-04-18T09:24:24Z</time></trkpt><trkpt lat="45.4355270801251" lon="11.567227951242348"><ele>200.0</ele><time>2026-04-18T09:24:25Z</time></trkpt><trkpt lat="45.43544672960227" lon="11.567263201391588"><ele>197.0</ele><time>2026-04-18T09:24:26Z</time></trkpt><trkpt lat="45.43538945744138" lon="11.567309698503204"><ele>194.0</ele><time>2026-04-18T09:24:27Z</time></trkpt><trkpt lat="45.435335187526" lon="11.567459917463"><ele>194.0</ele><time>2026-04-18T09:24:29Z</time></trkpt><trkpt lat="45.43542706244402" lon="11.567584470696527"><ele>194.0</ele><time>2026-04-18T09:24:31Z</time></trkpt><trkpt lat="45.435544643111946" lon="11.567513568911204"><ele>194.0</ele><time>2026-04-18T09:24:32Z</time></trkpt><trkpt lat="45.435674189506415" lon="11.567419088467478"><ele>194.0</ele><time>2026-04-18T09:24:33Z</time></trkpt><trkpt lat="45.435791605237775" lon="11.567331051485493"><ele>193.66666666666669</ele><time>2026-04-18T09:24:34Z</time></trkpt><trkpt lat="45.43591551999049" lon="11.567205200014689"><ele>193.33333333333331</ele><time>2026-04-18T09:24:35Z</time></trkpt><trkpt lat="45.43604422381333" lon="11.56701209800111"><ele>193.0</ele><time>2026-04-18T09:24:36Z</time></trkpt><trkpt lat="45.436160995789564" lon="11.566781283254715"><ele>191.0</ele><time>2026-04-18T09:24:37Z</time></trkpt><trkpt lat="45.436250968372434" lon="11.566582819408023"><ele>189.0</ele><time>2026-04-18T09:24:38Z</time></trkpt><trkpt lat="45.43633778121461" lon="11.566375152318905"><ele>187.0</ele><time>2026-04-18T09:24:39Z</time></trkpt><trkpt lat="45.4364181055496" lon="11.566162379542972"><ele>187.0</ele><time>2026-04-18T09:24:40Z</time></trkpt><trkpt lat="45.43650871679207" lon="11.565977707108692"><ele>187.0</ele><time>2026-04-18T09:24:41Z</time></trkpt><trkpt lat="45.43658068828557" lon="11.565810605547854"><ele>187.0</ele><time>2026-04-18T09:24:42Z</time></trkpt><trkpt lat="45.436653038244906" lon="11.565660300341499"><ele>187.0</ele><time>2026-04-18T09:24:43Z</time></trkpt><trkpt lat="45.43671742910817" lon="11.565510221908632"><ele>187.0</ele><time>2026-04-18T09:24:44Z</time></trkpt><trkpt lat="45.43680959799393" lon="11.56539454535751"><ele>187.0</ele><time>2026-04-18T09:24:45Z</time></trkpt><trkpt lat="45.43691664270538" lon="11.56531322317611"><ele>187.0</ele><time>2026-04-18T09:24:46Z</time></trkpt><trkpt lat="45.43703301923201" lon="11.56526543808666"><ele>187.0</ele><time>2026-04-18T09:24:47Z</time></trkpt><trkpt lat="45.43715139217141" lon="11.565240053371628"><ele>186.6</ele><time>2026-04-18T09:24:48Z</time></trkpt><trkpt lat="45.43727193320874" lon="11.56520945472722"><ele>186.2</ele><time>2026-04-18T09:24:49Z</time></trkpt><trkpt lat="45.43738868412542" lon="11.565208266504749"><ele>185.8</ele><time>2026-04-18T09:24:50Z</time></trkpt><trkpt lat="45.437492033315905" lon="11.56519490001235"><ele>185.4</ele><time>2026-04-18T09:24:51Z</time></trkpt><trkpt lat="45.43758915838932" lon="11.56519184835074"><ele>185.0</ele><time>2026-04-18T09:24:52Z</time></trkpt><trkpt lat="45.4376806742806" lon="11.565220329862369"><ele>185.0</ele><time>2026-04-18T09:24:53Z</time></trkpt><trkpt lat="45.437758569367986" lon="11.565322795736018"><ele>185.0</ele><time>2026-04-18T09:24:54Z</time></trkpt><trkpt lat="45.43778910412401" lon="11.565486634923833"><ele>185.0</ele><time>2026-04-18T09:24:55Z</time></trkpt><trkpt lat="45.43782903206482" lon="11.565660362547792"><ele>185.0</ele><time>2026-04-18T09:24:56Z</time></trkpt><trkpt lat="45.43787558055016" lon="11.565882171603052"><ele>183.66666666666666</ele><time>2026-04-18T09:24:57Z</time></trkpt><trkpt lat="45.43792188608929" lon="11.566135241977674"><ele>182.33333333333334</ele><time>2026-04-18T09:24:58Z</time></trkpt><trkpt lat="45.43796112396198" lon="11.566374771536678"><ele>181.0</ele><time>2026-04-18T09:24:59Z</time></trkpt><trkpt lat="45.437999245802615" lon="11.566609947966189"><ele>181.0</ele><time>2026-04-18T09:25:00Z</time></trkpt><trkpt lat="45.43803994381119" lon="11.566858939526943"><ele>181.0</ele><time>2026-04-18T09:25:01Z</time></trkpt><trkpt lat="45.438100157735505" lon="11.567120858656287"><ele>181.0</ele><time>2026-04-18T09:25:02Z</time></trkpt><trkpt lat="45.4381515555578" lon="11.567388951949196"><ele>175.33333333333334</ele><time>2026-04-18T09:25:03Z</time></trkpt><trkpt lat="45.438205501992286" lon="11.567642770106318"><ele>169.66666666666666</ele><time>2026-04-18T09:25:04Z</time></trkpt><trkpt lat="45.438252575845006" lon="11.567893114305805"><ele>164.0</ele><time>2026-04-18T09:25:05Z</time></trkpt><trkpt lat="45.438308153541335" lon="11.568133001751738"><ele>158.66666666666666</ele><time>2026-04-18T09:25:06Z</time></trkpt><trkpt lat="45.43837197778212" lon="11.56836206450752"><ele>153.33333333333334</ele><time>2026-04-18T09:25:07.001Z</time></trkpt><trkpt lat="45.43839079481509" lon="11.568612416727534"><ele>148.0</ele><time>2026-04-18T09:25:08.001Z</time></trkpt><trkpt lat="45.43838903723216" lon="11.56887598784505"><ele>144.66666666666669</ele><time>2026-04-18T09:25:09.001Z</time></trkpt><trkpt lat="45.438404982710544" lon="11.569136625827072"><ele>141.33333333333334</ele><time>2026-04-18T09:25:10.001Z</time></trkpt><trkpt lat="45.438421224095414" lon="11.569401857008115"><ele>138.0</ele><time>2026-04-18T09:25:11.001Z</time></trkpt><trkpt lat="45.43843908556016" lon="11.569649362715987"><ele>136.0</ele><time>2026-04-18T09:25:12.001Z</time></trkpt><trkpt lat="45.43842214082428" lon="11.569890039033494"><ele>134.0</ele><time>2026-04-18T09:25:13.001Z</time></trkpt><trkpt lat="45.438412196910846" lon="11.570125965585813"><ele>132.0</ele><time>2026-04-18T09:25:14.001Z</time></trkpt><trkpt lat="45.438416418792464" lon="11.570362065016848"><ele>129.33333333333334</ele><time>2026-04-18T09:25:15.001Z</time></trkpt><trkpt lat="45.43844726734496" lon="11.570608415549911"><ele>126.66666666666667</ele><time>2026-04-18T09:25:16.001Z</time></trkpt><trkpt lat="45.43847994657948" lon="11.570852092198368"><ele>124.0</ele><time>2026-04-18T09:25:17.001Z</time></trkpt><trkpt lat="45.438525548731086" lon="11.571076055128128"><ele>122.25</ele><time>2026-04-18T09:25:18.001Z</time></trkpt><trkpt lat="45.43858494082712" lon="11.57127375360389"><ele>120.5</ele><time>2026-04-18T09:25:19.001Z</time></trkpt><trkpt lat="45.43861759102088" lon="11.571471581055972"><ele>118.75</ele><time>2026-04-18T09:25:20.001Z</time></trkpt><trkpt lat="45.43863319977892" lon="11.571655744401014"><ele>117.0</ele><time>2026-04-18T09:25:21.001Z</time></trkpt><trkpt lat="45.438628792078" lon="11.571838933424171"><ele>116.25</ele><time>2026-04-18T09:25:22.001Z</time></trkpt><trkpt lat="45.4386208874179" lon="11.572036046625644"><ele>115.5</ele><time>2026-04-18T09:25:23.001Z</time></trkpt><trkpt lat="45.43859279947685" lon="11.572245800343856"><ele>114.75</ele><time>2026-04-18T09:25:24.001Z</time></trkpt><trkpt lat="45.43857917061701" lon="11.572471578541412"><ele>114.0</ele><time>2026-04-18T09:25:25.001Z</time></trkpt><trkpt lat="45.438566773273116" lon="11.572676955533337"><ele>114.0</ele><time>2026-04-18T09:25:26.001Z</time></trkpt><trkpt lat="45.43856166074885" lon="11.57287955451093"><ele>114.0</ele><time>2026-04-18T09:25:27.001Z</time></trkpt><trkpt lat="45.43855328529198" lon="11.573070897976024"><ele>114.0</ele><time>2026-04-18T09:25:28.001Z</time></trkpt><trkpt lat="45.43855114103822" lon="11.573249781685647"><ele>114.0</ele><time>2026-04-18T09:25:29.001Z</time></trkpt><trkpt lat="45.43856976242437" lon="11.573424949600199"><ele>114.0</ele><time>2026-04-18T09:25:30.001Z</time></trkpt><trkpt lat="45.43860877345672" lon="11.573620829291166"><ele>114.0</ele><time>2026-04-18T09:25:31.001Z</time></trkpt><trkpt lat="45.43865775804012" lon="11.573823214006632"><ele>114.0</ele><time>2026-04-18T09:25:32.001Z</time></trkpt><trkpt lat="45.4387465007523" lon="11.573999002273379"><ele>114.0</ele><time>2026-04-18T09:25:33.001Z</time></trkpt><trkpt lat="45.438831870207046" lon="11.574201383325127"><ele>116.33333333333334</ele><time>2026-04-18T09:25:34.001Z</time></trkpt><trkpt lat="45.43889978636843" lon="11.574413452803418"><ele>118.66666666666667</ele><time>2026-04-18T09:25:35.001Z</time></trkpt><trkpt lat="45.43894301926302" lon="11.57465061892997"><ele>121.0</ele><time>2026-04-18T09:25:36.001Z</time></trkpt><trkpt lat="45.43898460864379" lon="11.574907970419172"><ele>116.0</ele><time>2026-04-18T09:25:37.001Z</time></trkpt><trkpt lat="45.439045417637296" lon="11.575141829219312"><ele>111.0</ele><time>2026-04-18T09:25:38.001Z</time></trkpt><trkpt lat="45.439138536240435" lon="11.575377655454467"><ele>106.0</ele><time>2026-04-18T09:25:39.001Z</time></trkpt><trkpt lat="45.43923229279218" lon="11.57561386847917"><ele>104.19999999999999</ele><time>2026-04-18T09:25:40.001Z</time></trkpt><trkpt lat="45.43928237521922" lon="11.575814384393642"><ele>102.39999999999999</ele><time>2026-04-18T09:25:41.001Z</time></trkpt><trkpt lat="45.43928407796894" lon="11.575984808198525"><ele>100.6</ele><time>2026-04-18T09:25:42.001Z</time></trkpt><trkpt lat="45.43925867215302" lon="11.576068794937884"><ele>98.8</ele><time>2026-04-18T09:25:43.001Z</time></trkpt><trkpt lat="45.439252703666455" lon="11.576163962290813"><ele>97.0</ele><time>2026-04-18T09:25:44.001Z</time></trkpt><trkpt lat="45.43916634365598" lon="11.576284078438524"><ele>95.0</ele><time>2026-04-18T09:25:46.001Z</time></trkpt><trkpt lat="45.43909128746447" lon="11.576413099020643"><ele>93.0</ele><time>2026-04-18T09:25:47.001Z</time></trkpt><trkpt lat="45.43901103271525" lon="11.576557162853536"><ele>91.0</ele><time>2026-04-18T09:25:48.001Z</time></trkpt><trkpt lat="45.438915337576525" lon="11.5766793453827"><ele>89.0</ele><time>2026-04-18T09:25:49.001Z</time></trkpt><trkpt lat="45.43879990664404" lon="11.576757873552243"><ele>87.33333333333334</ele><time>2026-04-18T09:25:50.001Z</time></trkpt><trkpt lat="45.438655456507135" lon="11.57679323944576"><ele>85.66666666666667</ele><time>2026-04-18T09:25:51.001Z</time></trkpt><trkpt lat="45.43850000017429" lon="11.576833400530209"><ele>84.0</ele><time>2026-04-18T09:25:52.001Z</time></trkpt><trkpt lat="45.438354238924944" lon="11.5768642239212"><ele>84.0</ele><time>2026-04-18T09:25:53.001Z</time></trkpt><trkpt lat="45.438214513471685" lon="11.576854801195111"><ele>84.0</ele><time>2026-04-18T09:25:54.001Z</time></trkpt><trkpt lat="45.43807545098681" lon="11.576825394101117"><ele>84.0</ele><time>2026-04-18T09:25:55.001Z</time></trkpt><trkpt lat="45.43793139483252" lon="11.576794307763178"><ele>84.0</ele><time>2026-04-18T09:25:56.001Z</time></trkpt><trkpt lat="45.437792973563475" lon="11.576800271665439"><ele>81.0</ele><time>2026-04-18T09:25:57.001Z</time></trkpt><trkpt lat="45.43767242087942" lon="11.576791897913512"><ele>78.0</ele><time>2026-04-18T09:25:58.001Z</time></trkpt><trkpt lat="45.43756227603633" lon="11.576798582123292"><ele>75.0</ele><time>2026-04-18T09:25:59.001Z</time></trkpt><trkpt lat="45.43745104711531" lon="11.576820432508434"><ele>72.0</ele><time>2026-04-18T09:26:00.001Z</time></trkpt><trkpt lat="45.43733734137627" lon="11.576859259079928"><ele>72.0</ele><time>2026-04-18T09:26:01.001Z</time></trkpt><trkpt lat="45.43722692787194" lon="11.576909073362899"><ele>72.0</ele><time>2026-04-18T09:26:02.001Z</time></trkpt><trkpt lat="45.43710822842953" lon="11.576962079362628"><ele>72.0</ele><time>2026-04-18T09:26:03.001Z</time></trkpt><trkpt lat="45.43698225355399" lon="11.577023444224352"><ele>72.0</ele><time>2026-04-18T09:26:04.001Z</time></trkpt><trkpt lat="45.43684806604772" lon="11.577102651821258"><ele>70.5</ele><time>2026-04-18T09:26:05.001Z</time></trkpt><trkpt lat="45.43671737660574" lon="11.577184380638949"><ele>69.0</ele><time>2026-04-18T09:26:06.001Z</time></trkpt><trkpt lat="45.4365932331971" lon="11.577257183329152"><ele>67.5</ele><time>2026-04-18T09:26:07.001Z</time></trkpt><trkpt lat="45.436473482261526" lon="11.577288865563549"><ele>66.0</ele><time>2026-04-18T09:26:08.001Z</time></trkpt><trkpt lat="45.43634972767462" lon="11.577314701298315"><ele>64.8</ele><time>2026-04-18T09:26:09.001Z</time></trkpt><trkpt lat="45.43623515303004" lon="11.577331443337185"><ele>63.599999999999994</ele><time>2026-04-18T09:26:10.001Z</time></trkpt><trkpt lat="45.43612692817136" lon="11.57732927583288"><ele>62.4</ele><time>2026-04-18T09:26:11.001Z</time></trkpt><trkpt lat="45.43601795189574" lon="11.577313800814645"><ele>61.2</ele><time>2026-04-18T09:26:12.001Z</time></trkpt><trkpt lat="45.43592056055869" lon="11.577285970704713"><ele>60.0</ele><time>2026-04-18T09:26:13.001Z</time></trkpt><trkpt lat="45.43581736568739" lon="11.577273409661837"><ele>60.0</ele><time>2026-04-18T09:26:14.001Z</time></trkpt><trkpt lat="45.43571592167871" lon="11.577290259238664"><ele>60.0</ele><time>2026-04-18T09:26:15.001Z</time></trkpt><trkpt lat="45.43562771817023" lon="11.577361428319241"><ele>60.0</ele><time>2026-04-18T09:26:16Z</time></trkpt><trkpt lat="45.43555627144841" lon="11.577477419444167"><ele>60.0</ele><time>2026-04-18T09:26:17Z</time></trkpt><trkpt lat="45.4354959443552" lon="11.577606700764747"><ele>60.0</ele><time>2026-04-18T09:26:18Z</time></trkpt><trkpt lat="45.43542786890538" lon="11.57773003865451"><ele>54.25</ele><time>2026-04-18T09:26:19Z</time></trkpt><trkpt lat="45.435371236050074" lon="11.57786965263324"><ele>48.5</ele><time>2026-04-18T09:26:20Z</time></trkpt><trkpt lat="45.435349363821175" lon="11.578045102895826"><ele>42.75</ele><time>2026-04-18T09:26:21Z</time></trkpt><trkpt lat="45.435334203479286" lon="11.578236891123046"><ele>37.0</ele><time>2026-04-18T09:26:22Z</time></trkpt><trkpt lat="45.43530995076629" lon="11.578429147578499"><ele>37.0</ele><time>2026-04-18T09:26:23Z</time></trkpt><trkpt lat="45.4352739153038" lon="11.578615494712901"><ele>37.0</ele><time>2026-04-18T09:26:24Z</time></trkpt><trkpt lat="45.43522108593165" lon="11.578794727580936"><ele>37.0</ele><time>2026-04-18T09:26:25Z</time></trkpt><trkpt lat="45.43515059623884" lon="11.578968888731014"><ele>37.0</ele><time>2026-04-18T09:26:26Z</time></trkpt><trkpt lat="45.43508268583705" lon="11.57914479402527"><ele>38.0</ele><time>2026-04-18T09:26:27Z</time></trkpt><trkpt lat="45.43501998424903" lon="11.579321442320115"><ele>39.0</ele><time>2026-04-18T09:26:28Z</time></trkpt><trkpt lat="45.43495909357112" lon="11.579493457559648"><ele>40.0</ele><time>2026-04-18T09:26:29Z</time></trkpt><trkpt lat="45.43490014367183" lon="11.579649292338667"><ele>41.0</ele><time>2026-04-18T09:26:30Z</time></trkpt><trkpt lat="45.43485281109655" lon="11.57978882009964"><ele>42.0</ele><time>2026-04-18T09:26:31Z</time></trkpt><trkpt lat="45.434808962600606" lon="11.57992058850385"><ele>43.0</ele><time>2026-04-18T09:26:32Z</time></trkpt><trkpt lat="45.43473776204673" lon="11.580014340092635"><ele>44.0</ele><time>2026-04-18T09:26:33Z</time></trkpt><trkpt lat="45.434672577970105" lon="11.580099739224814"><ele>45.0</ele><time>2026-04-18T09:26:34Z</time></trkpt><trkpt lat="45.4345648080013" lon="11.580085799522793"><ele>46.0</ele><time>2026-04-18T09:26:35Z</time></trkpt><trkpt lat="45.43445760541696" lon="11.580128872450535"><ele>44.5</ele><time>2026-04-18T09:26:36Z</time></trkpt><trkpt lat="45.4343426812354" lon="11.580154328571444"><ele>43.0</ele><time>2026-04-18T09:26:37Z</time></trkpt><trkpt lat="45.43423276791067" lon="11.580200252745454"><ele>41.5</ele><time>2026-04-18T09:26:38Z</time></trkpt><trkpt lat="45.43412706003988" lon="11.580274084045442"><ele>40.0</ele><time>2026-04-18T09:26:39Z</time></trkpt><trkpt lat="45.434014051865596" lon="11.580355606667386"><ele>40.0</ele><time>2026-04-18T09:26:40Z</time></trkpt><trkpt lat="45.43389446912358" lon="11.580443528585418"><ele>40.0</ele><time>2026-04-18T09:26:41Z</time></trkpt><trkpt lat="45.43376998957315" lon="11.58053875384834"><ele>40.0</ele><time>2026-04-18T09:26:42Z</time></trkpt><trkpt lat="45.43363705767521" lon="11.580654271935595"><ele>40.0</ele><time>2026-04-18T09:26:43Z</time></trkpt><trkpt lat="45.433508321860415" lon="11.580776164430482"><ele>37.5</ele><time>2026-04-18T09:26:44Z</time></trkpt><trkpt lat="45.433388198280724" lon="11.580891010598037"><ele>35.0</ele><time>2026-04-18T09:26:45Z</time></trkpt><trkpt lat="45.433277720011446" lon="11.581005881061492"><ele>32.5</ele><time>2026-04-18T09:26:46Z</time></trkpt><trkpt lat="45.433179569058936" lon="11.581125756312897"><ele>30.0</ele><time>2026-04-18T09:26:47Z</time></trkpt><trkpt lat="45.43308778622061" lon="11.581247468305067"><ele>30.0</ele><time>2026-04-18T09:26:48Z</time></trkpt><trkpt lat="45.4329954916715" lon="11.581356522301434"><ele>30.0</ele><time>2026-04-18T09:26:49Z</time></trkpt><trkpt lat="45.43290365482408" lon="11.581453499799052"><ele>30.0</ele><time>2026-04-18T09:26:50Z</time></trkpt><trkpt lat="45.432803846187426" lon="11.5815287787078"><ele>30.0</ele><time>2026-04-18T09:26:51Z</time></trkpt><trkpt lat="45.432695025031904" lon="11.58157956465576"><ele>28.5</ele><time>2026-04-18T09:26:52Z</time></trkpt><trkpt lat="45.432580797191925" lon="11.58162195823152"><ele>27.0</ele><time>2026-04-18T09:26:53Z</time></trkpt><trkpt lat="45.43245924984956" lon="11.58167115843972"><ele>25.5</ele><time>2026-04-18T09:26:54Z</time></trkpt><trkpt lat="45.43233479930107" lon="11.58173208594461"><ele>24.0</ele><time>2026-04-18T09:26:55Z</time></trkpt><trkpt lat="45.43221700259749" lon="11.581808203510262"><ele>24.0</ele><time>2026-04-18T09:26:56Z</time></trkpt><trkpt lat="45.432102094969345" lon="11.581904014143156"><ele>24.0</ele><time>2026-04-18T09:26:57Z</time></trkpt><trkpt lat="45.43197594303669" lon="11.582011180629605"><ele>24.0</ele><time>2026-04-18T09:26:58Z</time></trkpt><trkpt lat="45.43184317900397" lon="11.582129224914938"><ele>24.0</ele><time>2026-04-18T09:26:59Z</time></trkpt><trkpt lat="45.431712799097696" lon="11.58225764313028"><ele>24.0</ele><time>2026-04-18T09:27:00Z</time></trkpt><trkpt lat="45.4315858680921" lon="11.582388366932076"><ele>24.0</ele><time>2026-04-18T09:27:01Z</time></trkpt><trkpt lat="45.43145995026464" lon="11.5825234566836"><ele>24.0</ele><time>2026-04-18T09:27:02Z</time></trkpt><trkpt lat="45.431332116101984" lon="11.582672346567264"><ele>23.333333333333332</ele><time>2026-04-18T09:27:03Z</time></trkpt><trkpt lat="45.43120413595844" lon="11.582815959894463"><ele>22.666666666666664</ele><time>2026-04-18T09:27:04Z</time></trkpt><trkpt lat="45.43107711695583" lon="11.582963806946411"><ele>22.0</ele><time>2026-04-18T09:27:05Z</time></trkpt><trkpt lat="45.43096153556059" lon="11.583135626930947"><ele>21.0</ele><time>2026-04-18T09:27:06Z</time></trkpt><trkpt lat="45.4308591642528" lon="11.58332730410815"><ele>20.0</ele><time>2026-04-18T09:27:07Z</time></trkpt><trkpt lat="45.4307574032587" lon="11.583519692704522"><ele>19.0</ele><time>2026-04-18T09:27:08Z</time></trkpt><trkpt lat="45.43065514135573" lon="11.583702690019287"><ele>19.0</ele><time>2026-04-18T09:27:09Z</time></trkpt><trkpt lat="45.43055771086523" lon="11.583872908527704"><ele>19.0</ele><time>2026-04-18T09:27:10Z</time></trkpt><trkpt lat="45.43046711103966" lon="11.58403834187571"><ele>19.0</ele><time>2026-04-18T09:27:11Z</time></trkpt><trkpt lat="45.4303801569964" lon="11.584196872608224"><ele>19.0</ele><time>2026-04-18T09:27:12Z</time></trkpt><trkpt lat="45.4302895780941" lon="11.584357206333927"><ele>19.333333333333332</ele><time>2026-04-18T09:27:13Z</time></trkpt><trkpt lat="45.43020204736555" lon="11.584528568944833"><ele>19.666666666666668</ele><time>2026-04-18T09:27:14.001Z</time></trkpt><trkpt lat="45.430104773857224" lon="11.58470317786719"><ele>20.0</ele><time>2026-04-18T09:27:15.001Z</time></trkpt><trkpt lat="45.430006200686144" lon="11.584882530557206"><ele>20.0</ele><time>2026-04-18T09:27:16.001Z</time></trkpt><trkpt lat="45.429904932968405" lon="11.585060883829732"><ele>20.0</ele><time>2026-04-18T09:27:17.001Z</time></trkpt><trkpt lat="45.42980366815461" lon="11.585248185820769"><ele>20.0</ele><time>2026-04-18T09:27:18.001Z</time></trkpt><trkpt lat="45.42970450145026" lon="11.58544150913181"><ele>19.333333333333336</ele><time>2026-04-18T09:27:19.001Z</time></trkpt><trkpt lat="45.42960181956847" lon="11.585630575049386"><ele>18.666666666666668</ele><time>2026-04-18T09:27:20.001Z</time></trkpt><trkpt lat="45.429497819925" lon="11.585821560430938"><ele>18.0</ele><time>2026-04-18T09:27:21.001Z</time></trkpt><trkpt lat="45.4293909507992" lon="11.586024128168434"><ele>19.0</ele><time>2026-04-18T09:27:22.001Z</time></trkpt><trkpt lat="45.42929237483074" lon="11.586244835425191"><ele>20.0</ele><time>2026-04-18T09:27:23.001Z</time></trkpt><trkpt lat="45.4292000265018" lon="11.586457358500422"><ele>21.0</ele><time>2026-04-18T09:27:24.001Z</time></trkpt><trkpt lat="45.42911291120871" lon="11.586670594039798"><ele>21.0</ele><time>2026-04-18T09:27:25.001Z</time></trkpt><trkpt lat="45.429026640353705" lon="11.586888225851316"><ele>21.0</ele><time>2026-04-18T09:27:26.001Z</time></trkpt><trkpt lat="45.428932724411254" lon="11.587094329342792"><ele>21.0</ele><time>2026-04-18T09:27:27.001Z</time></trkpt><trkpt lat="45.42883265260407" lon="11.587294196252431"><ele>20.666666666666668</ele><time>2026-04-18T09:27:28.001Z</time></trkpt><trkpt lat="45.428728417386075" lon="11.58748863580812"><ele>20.333333333333336</ele><time>2026-04-18T09:27:29.001Z</time></trkpt><trkpt lat="45.4286239197013" lon="11.587682437426967"><ele>20.0</ele><time>2026-04-18T09:27:30.001Z</time></trkpt><trkpt lat="45.42851391260145" lon="11.58787840744653"><ele>19.666666666666668</ele><time>2026-04-18T09:27:31.001Z</time></trkpt><trkpt lat="45.428405206533284" lon="11.588069651370908"><ele>19.333333333333332</ele><time>2026-04-18T09:27:32.001Z</time></trkpt><trkpt lat="45.42829682722639" lon="11.588250714782887"><ele>19.0</ele><time>2026-04-18T09:27:33.001Z</time></trkpt><trkpt lat="45.42818782150805" lon="11.588424893344802"><ele>19.0</ele><time>2026-04-18T09:27:34.001Z</time></trkpt><trkpt lat="45.42808597670444" lon="11.588578806714391"><ele>19.0</ele><time>2026-04-18T09:27:35.001Z</time></trkpt><trkpt lat="45.42798326634277" lon="11.588716332743179"><ele>19.0</ele><time>2026-04-18T09:27:36.001Z</time></trkpt><trkpt lat="45.427878904351445" lon="11.588845388091489"><ele>19.0</ele><time>2026-04-18T09:27:37.001Z</time></trkpt><trkpt lat="45.42776822094293" lon="11.588970924963622"><ele>18.666666666666664</ele><time>2026-04-18T09:27:38.001Z</time></trkpt><trkpt lat="45.42765321108255" lon="11.589092511934284"><ele>18.333333333333332</ele><time>2026-04-18T09:27:39.001Z</time></trkpt><trkpt lat="45.42753526455229" lon="11.589222400876002"><ele>18.0</ele><time>2026-04-18T09:27:40.001Z</time></trkpt><trkpt lat="45.42741677952211" lon="11.589371281512408"><ele>18.0</ele><time>2026-04-18T09:27:41.001Z</time></trkpt><trkpt lat="45.42730157624556" lon="11.589525470479831"><ele>18.0</ele><time>2026-04-18T09:27:42.001Z</time></trkpt><trkpt lat="45.42719483578837" lon="11.589672291551032"><ele>18.0</ele><time>2026-04-18T09:27:43.001Z</time></trkpt><trkpt lat="45.427096323675016" lon="11.589812715484756"><ele>18.0</ele><time>2026-04-18T09:27:44.001Z</time></trkpt><trkpt lat="45.427015320584445" lon="11.589923851751685"><ele>18.0</ele><time>2026-04-18T09:27:45.001Z</time></trkpt><trkpt lat="45.42694213533056" lon="11.590022994428749"><ele>18.0</ele><time>2026-04-18T09:27:46.001Z</time></trkpt><trkpt lat="45.426870041247334" lon="11.59011682179445"><ele>18.0</ele><time>2026-04-18T09:27:47.001Z</time></trkpt><trkpt lat="45.42679860267665" lon="11.590210863458433"><ele>18.0</ele><time>2026-04-18T09:27:48.001Z</time></trkpt><trkpt lat="45.4267223607716" lon="11.590311206291915"><ele>18.0</ele><time>2026-04-18T09:27:49.001Z</time></trkpt><trkpt lat="45.426654172394855" lon="11.590399595748258"><ele>18.2</ele><time>2026-04-18T09:27:50.001Z</time></trkpt><trkpt lat="45.42658844959072" lon="11.590484201477073"><ele>18.4</ele><time>2026-04-18T09:27:51.001Z</time></trkpt><trkpt lat="45.426525412325475" lon="11.590572174203169"><ele>18.599999999999998</ele><time>2026-04-18T09:27:52.001Z</time></trkpt><trkpt lat="45.42645218751264" lon="11.59066877171566"><ele>18.8</ele><time>2026-04-18T09:27:53.001Z</time></trkpt><trkpt lat="45.426370728980245" lon="11.590767530492936"><ele>19.0</ele><time>2026-04-18T09:27:54.001Z</time></trkpt><trkpt lat="45.42628499595524" lon="11.590867621329886"><ele>19.0</ele><time>2026-04-18T09:27:55.001Z</time></trkpt><trkpt lat="45.42619813569602" lon="11.590977689159207"><ele>19.0</ele><time>2026-04-18T09:27:56.001Z</time></trkpt><trkpt lat="45.42609978249931" lon="11.591080602543745"><ele>19.0</ele><time>2026-04-18T09:27:57.001Z</time></trkpt><trkpt lat="45.42599957539049" lon="11.591167304371707"><ele>19.0</ele><time>2026-04-18T09:27:58.001Z</time></trkpt><trkpt lat="45.42589392209677" lon="11.591242142989511"><ele>19.166666666666664</ele><time>2026-04-18T09:27:59.001Z</time></trkpt><trkpt lat="45.42580518211488" lon="11.59129790513325"><ele>19.333333333333332</ele><time>2026-04-18T09:28:00.001Z</time></trkpt><trkpt lat="45.42571938657311" lon="11.591350848989105"><ele>19.5</ele><time>2026-04-18T09:28:01.001Z</time></trkpt><trkpt lat="45.425638925740245" lon="11.591395513060288"><ele>19.666666666666668</ele><time>2026-04-18T09:28:02.001Z</time></trkpt><trkpt lat="45.42556828430273" lon="11.591435219219612"><ele>19.833333333333336</ele><time>2026-04-18T09:28:03.001Z</time></trkpt><trkpt lat="45.4255016758014" lon="11.591475806837549"><ele>20.0</ele><time>2026-04-18T09:28:04.001Z</time></trkpt><trkpt lat="45.4253898102814" lon="11.591521313612393"><ele>20.2</ele><time>2026-04-18T09:28:06.001Z</time></trkpt><trkpt lat="45.42527895462803" lon="11.591580928941587"><ele>20.4</ele><time>2026-04-18T09:28:08.001Z</time></trkpt><trkpt lat="45.42516429760765" lon="11.591648571763814"><ele>20.6</ele><time>2026-04-18T09:28:10.001Z</time></trkpt><trkpt lat="45.42508739737366" lon="11.591715941794076"><ele>20.8</ele><time>2026-04-18T09:28:11.001Z</time></trkpt><trkpt lat="45.425001994622335" lon="11.591793489148246"><ele>21.0</ele><time>2026-04-18T09:28:12.001Z</time></trkpt><trkpt lat="45.424921366260115" lon="11.591875969088306"><ele>21.0</ele><time>2026-04-18T09:28:13.001Z</time></trkpt><trkpt lat="45.42484252308713" lon="11.59195806880979"><ele>21.0</ele><time>2026-04-18T09:28:14.001Z</time></trkpt><trkpt lat="45.42476649028247" lon="11.592031922006463"><ele>21.0</ele><time>2026-04-18T09:28:15.001Z</time></trkpt><trkpt lat="45.42470146694624" lon="11.592097783200243"><ele>21.0</ele><time>2026-04-18T09:28:16.001Z</time></trkpt><trkpt lat="45.424614820936256" lon="11.592194465077561"><ele>21.0</ele><time>2026-04-18T09:28:18.001Z</time></trkpt><trkpt lat="45.424529224741725" lon="11.592295706603199"><ele>21.0</ele><time>2026-04-18T09:28:20.001Z</time></trkpt><trkpt lat="45.424466776029135" lon="11.592381411657142"><ele>21.0</ele><time>2026-04-18T09:28:22Z</time></trkpt><trkpt lat="45.424416407069074" lon="11.592466671037984"><ele>21.0</ele><time>2026-04-18T09:28:24Z</time></trkpt><trkpt lat="45.42437197039758" lon="11.592561991746118"><ele>21.0</ele><time>2026-04-18T09:28:26Z</time></trkpt><trkpt lat="45.42432411829351" lon="11.592647474478866"><ele>21.0</ele><time>2026-04-18T09:28:28Z</time></trkpt><trkpt lat="45.424261076526015" lon="11.592729069928236"><ele>21.0</ele><time>2026-04-18T09:28:30Z</time></trkpt><trkpt lat="45.42418334354833" lon="11.592854578732796"><ele>21.5</ele><time>2026-04-18T09:28:32Z</time></trkpt><trkpt lat="45.42413444051866" lon="11.592935080279418"><ele>22.0</ele><time>2026-04-18T09:28:34Z</time></trkpt><trkpt lat="45.424083947266524" lon="11.593012339118374"><ele>22.5</ele><time>2026-04-18T09:28:38Z</time></trkpt><trkpt lat="45.424038634726756" lon="11.593092036838874"><ele>23.0</ele><time>2026-04-18T09:28:47Z</time></trkpt><trkpt lat="45.423991587831495" lon="11.593183393566214"><ele>23.5</ele><time>2026-04-18T09:28:49Z</time></trkpt><trkpt lat="45.42394656110818" lon="11.593280174245763"><ele>24.0</ele><time>2026-04-18T09:28:51Z</time></trkpt><trkpt lat="45.42389592778711" lon="11.593386335805107"><ele>24.0</ele><time>2026-04-18T09:28:54Z</time></trkpt><trkpt lat="45.42385656787855" lon="11.593473331570467"><ele>24.0</ele><time>2026-04-18T09:28:56Z</time></trkpt><trkpt lat="45.42382078886586" lon="11.593575891005914"><ele>24.0</ele><time>2026-04-18T09:28:58Z</time></trkpt><trkpt lat="45.42378152757556" lon="11.593661720895366"><ele>24.0</ele><time>2026-04-18T09:29:00Z</time></trkpt><trkpt lat="45.42371526579793" lon="11.593763302477607"><ele>24.0</ele><time>2026-04-18T09:29:02Z</time></trkpt><trkpt lat="45.423704420880014" lon="11.593862343433921"><ele>24.0</ele><time>2026-04-18T09:29:03Z</time></trkpt><trkpt lat="45.42368142232764" lon="11.593976216672068"><ele>23.4</ele><time>2026-04-18T09:29:04Z</time></trkpt><trkpt lat="45.42363693693572" lon="11.594107931618684"><ele>22.799999999999997</ele><time>2026-04-18T09:29:05Z</time></trkpt><trkpt lat="45.42360416759242" lon="11.594209514190453"><ele>22.200000000000003</ele><time>2026-04-18T09:29:06Z</time></trkpt><trkpt lat="45.42355519591436" lon="11.594314796982518"><ele>21.6</ele><time>2026-04-18T09:29:07Z</time></trkpt><trkpt lat="45.42351288178607" lon="11.594442056270367"><ele>21.0</ele><time>2026-04-18T09:29:08Z</time></trkpt><trkpt lat="45.423466429477664" lon="11.594579457197462"><ele>20.8</ele><time>2026-04-18T09:29:09Z</time></trkpt><trkpt lat="45.42342630328454" lon="11.59470220463127"><ele>20.6</ele><time>2026-04-18T09:29:10Z</time></trkpt><trkpt lat="45.42338368767809" lon="11.594831064859555"><ele>20.4</ele><time>2026-04-18T09:29:11Z</time></trkpt><trkpt lat="45.42333941482024" lon="11.594964936258236"><ele>20.2</ele><time>2026-04-18T09:29:12Z</time></trkpt><trkpt lat="45.42329491253107" lon="11.595099501357394"><ele>20.0</ele><time>2026-04-18T09:29:13Z</time></trkpt><trkpt lat="45.42325298305165" lon="11.595226286855773"><ele>20.0</ele><time>2026-04-18T09:29:14Z</time></trkpt><trkpt lat="45.42321447778023" lon="11.595342718466165"><ele>20.0</ele><time>2026-04-18T09:29:15Z</time></trkpt><trkpt lat="45.422962554796634" lon="11.596134789210645"><ele>20.0</ele><time>2026-04-18T09:29:17Z</time></trkpt><trkpt lat="45.42289681926307" lon="11.596328305626077"><ele>20.0</ele><time>2026-04-18T09:29:18Z</time></trkpt><trkpt lat="45.42283591543147" lon="11.596515521849165"><ele>20.0</ele><time>2026-04-18T09:29:19Z</time></trkpt><trkpt lat="45.42277478451406" lon="11.596698637083371"><ele>20.0</ele><time>2026-04-18T09:29:20Z</time></trkpt><trkpt lat="45.42271546907108" lon="11.596883454044175"><ele>20.0</ele><time>2026-04-18T09:29:21Z</time></trkpt><trkpt lat="45.42265845812573" lon="11.597063941009745"><ele>20.0</ele><time>2026-04-18T09:29:22Z</time></trkpt><trkpt lat="45.4226064743913" lon="11.59722689203383"><ele>20.0</ele><time>2026-04-18T09:29:23Z</time></trkpt><trkpt lat="45.42254899195038" lon="11.597386787224455"><ele>20.0</ele><time>2026-04-18T09:29:24Z</time></trkpt><trkpt lat="45.42249081611582" lon="11.597562566938683"><ele>20.0</ele><time>2026-04-18T09:29:25Z</time></trkpt><trkpt lat="45.42242641250475" lon="11.59775170148973"><ele>20.0</ele><time>2026-04-18T09:29:26Z</time></trkpt><trkpt lat="45.42235540660696" lon="11.597955125346667"><ele>20.0</ele><time>2026-04-18T09:29:27Z</time></trkpt><trkpt lat="45.42227824861365" lon="11.598163238084547"><ele>20.25</ele><time>2026-04-18T09:29:28Z</time></trkpt><trkpt lat="45.422206955152504" lon="11.598363959129115"><ele>20.5</ele><time>2026-04-18T09:29:29Z</time></trkpt><trkpt lat="45.42214382544522" lon="11.598541409685515"><ele>20.75</ele><time>2026-04-18T09:29:30Z</time></trkpt><trkpt lat="45.422085232668366" lon="11.598704422999106"><ele>21.0</ele><time>2026-04-18T09:29:31Z</time></trkpt><trkpt lat="45.421995190710994" lon="11.598861396238101"><ele>21.0</ele><time>2026-04-18T09:29:32Z</time></trkpt><trkpt lat="45.42189592444618" lon="11.599035279757297"><ele>21.0</ele><time>2026-04-18T09:29:33.001Z</time></trkpt><trkpt lat="45.4217716563283" lon="11.599196874468445"><ele>21.0</ele><time>2026-04-18T09:29:34.001Z</time></trkpt><trkpt lat="45.421634758951846" lon="11.599347428563128"><ele>21.0</ele><time>2026-04-18T09:29:35.001Z</time></trkpt><trkpt lat="45.42148104579163" lon="11.599453634662305"><ele>21.0</ele><time>2026-04-18T09:29:36.001Z</time></trkpt><trkpt lat="45.421331400947196" lon="11.599570957412283"><ele>21.0</ele><time>2026-04-18T09:29:37.001Z</time></trkpt><trkpt lat="45.421177486507695" lon="11.599694411002774"><ele>20.666666666666668</ele><time>2026-04-18T09:29:38.001Z</time></trkpt><trkpt lat="45.42099115054762" lon="11.599859106933275"><ele>20.333333333333336</ele><time>2026-04-18T09:29:39.001Z</time></trkpt><trkpt lat="45.420807862131305" lon="11.60005547630601"><ele>20.0</ele><time>2026-04-18T09:29:40.001Z</time></trkpt><trkpt lat="45.420647785979746" lon="11.600236198950066"><ele>20.0</ele><time>2026-04-18T09:29:41.001Z</time></trkpt><trkpt lat="45.420510191561725" lon="11.600392194285574"><ele>20.0</ele><time>2026-04-18T09:29:42.001Z</time></trkpt><trkpt lat="45.4203735565316" lon="11.600540234338341"><ele>20.0</ele><time>2026-04-18T09:29:43.001Z</time></trkpt><trkpt lat="45.42023177100507" lon="11.60069641342716"><ele>20.0</ele><time>2026-04-18T09:29:44.001Z</time></trkpt><trkpt lat="45.42008416744932" lon="11.600859406015243"><ele>20.0</ele><time>2026-04-18T09:29:45.001Z</time></trkpt><trkpt lat="45.41993623614076" lon="11.601024353973346"><ele>20.0</ele><time>2026-04-18T09:29:46.001Z</time></trkpt><trkpt lat="45.41979673272267" lon="11.601187328702792"><ele>20.0</ele><time>2026-04-18T09:29:47.001Z</time></trkpt><trkpt lat="45.41967671671695" lon="11.601341433176195"><ele>20.0</ele><time>2026-04-18T09:29:48.001Z</time></trkpt><trkpt lat="45.41956168560401" lon="11.60151605572349"><ele>20.0</ele><time>2026-04-18T09:29:49.001Z</time></trkpt><trkpt lat="45.419435897827405" lon="11.601706170854724"><ele>20.0</ele><time>2026-04-18T09:29:50.001Z</time></trkpt><trkpt lat="45.419293095612105" lon="11.60189006139468"><ele>20.0</ele><time>2026-04-18T09:29:51.001Z</time></trkpt><trkpt lat="45.419133964804075" lon="11.602050819035515"><ele>20.0</ele><time>2026-04-18T09:29:52.001Z</time></trkpt><trkpt lat="45.41897204889001" lon="11.602190585140411"><ele>19.666666666666668</ele><time>2026-04-18T09:29:53.001Z</time></trkpt><trkpt lat="45.41880244936338" lon="11.602327733350416"><ele>19.333333333333332</ele><time>2026-04-18T09:29:54.001Z</time></trkpt><trkpt lat="45.41863279597607" lon="11.60246914446786"><ele>19.0</ele><time>2026-04-18T09:29:55.001Z</time></trkpt><trkpt lat="45.41846630231665" lon="11.60261469013548"><ele>19.0</ele><time>2026-04-18T09:29:56.001Z</time></trkpt><trkpt lat="45.41830023405599" lon="11.602759344900745"><ele>19.0</ele><time>2026-04-18T09:29:57.001Z</time></trkpt><trkpt lat="45.41813623828191" lon="11.602896538398214"><ele>19.0</ele><time>2026-04-18T09:29:58.001Z</time></trkpt><trkpt lat="45.41797896486129" lon="11.603031259945034"><ele>19.333333333333332</ele><time>2026-04-18T09:29:59.001Z</time></trkpt><trkpt lat="45.417834479044984" lon="11.603158046693595"><ele>19.666666666666668</ele><time>2026-04-18T09:30:00.001Z</time></trkpt><trkpt lat="45.417697765732946" lon="11.60327859685702"><ele>20.0</ele><time>2026-04-18T09:30:01.001Z</time></trkpt><trkpt lat="45.41755483569303" lon="11.603396961404213"><ele>20.0</ele><time>2026-04-18T09:30:02.001Z</time></trkpt><trkpt lat="45.41740954438118" lon="11.603523942391144"><ele>20.0</ele><time>2026-04-18T09:30:03.001Z</time></trkpt><trkpt lat="45.41726463499172" lon="11.603669151404784"><ele>20.0</ele><time>2026-04-18T09:30:04.001Z</time></trkpt><trkpt lat="45.41712096655816" lon="11.603832296433566"><ele>20.0</ele><time>2026-04-18T09:30:05.001Z</time></trkpt><trkpt lat="45.41697382141723" lon="11.604013395442427"><ele>20.0</ele><time>2026-04-18T09:30:06.001Z</time></trkpt><trkpt lat="45.416825784524995" lon="11.604203409226052"><ele>20.0</ele><time>2026-04-18T09:30:07.001Z</time></trkpt><trkpt lat="45.41668165240165" lon="11.604400971135867"><ele>19.5</ele><time>2026-04-18T09:30:08.001Z</time></trkpt><trkpt lat="45.41653415968052" lon="11.604631169869743"><ele>19.0</ele><time>2026-04-18T09:30:09.001Z</time></trkpt><trkpt lat="45.416378516340934" lon="11.604908301257103"><ele>19.5</ele><time>2026-04-18T09:30:10.001Z</time></trkpt><trkpt lat="45.41621765731194" lon="11.605229510439592"><ele>20.0</ele><time>2026-04-18T09:30:11.001Z</time></trkpt><trkpt lat="45.41607535582821" lon="11.60553261274381"><ele>20.333333333333336</ele><time>2026-04-18T09:30:12.001Z</time></trkpt><trkpt lat="45.41595094857718" lon="11.605806332757892"><ele>20.666666666666668</ele><time>2026-04-18T09:30:13.001Z</time></trkpt><trkpt lat="45.415832639652926" lon="11.606057613227128"><ele>21.0</ele><time>2026-04-18T09:30:14.001Z</time></trkpt><trkpt lat="45.41571721554295" lon="11.606294487881328"><ele>21.0</ele><time>2026-04-18T09:30:15.001Z</time></trkpt><trkpt lat="45.415599687460094" lon="11.606533424862342"><ele>21.0</ele><time>2026-04-18T09:30:16.001Z</time></trkpt><trkpt lat="45.41548279459497" lon="11.606785622241363"><ele>21.0</ele><time>2026-04-18T09:30:17.001Z</time></trkpt><trkpt lat="45.41536664143906" lon="11.607043337434495"><ele>20.333333333333332</ele><time>2026-04-18T09:30:18.001Z</time></trkpt><trkpt lat="45.415259461096" lon="11.607275237443254"><ele>19.666666666666664</ele><time>2026-04-18T09:30:19.001Z</time></trkpt><trkpt lat="45.41515658572209" lon="11.607503861888624"><ele>19.0</ele><time>2026-04-18T09:30:20.001Z</time></trkpt><trkpt lat="45.4150600059067" lon="11.607750031507754"><ele>18.666666666666664</ele><time>2026-04-18T09:30:21.001Z</time></trkpt><trkpt lat="45.414970704812646" lon="11.608008954649293"><ele>18.333333333333332</ele><time>2026-04-18T09:30:22.001Z</time></trkpt><trkpt lat="45.41488824226535" lon="11.608276577597472"><ele>18.0</ele><time>2026-04-18T09:30:23.001Z</time></trkpt><trkpt lat="45.4148096480074" lon="11.60854625772555"><ele>18.0</ele><time>2026-04-18T09:30:24.001Z</time></trkpt><trkpt lat="45.41473490324858" lon="11.6088095354015"><ele>18.0</ele><time>2026-04-18T09:30:25.001Z</time></trkpt><trkpt lat="45.41466280328501" lon="11.609044600470098"><ele>18.0</ele><time>2026-04-18T09:30:26.001Z</time></trkpt><trkpt lat="45.41459734646621" lon="11.609263455257421"><ele>18.0</ele><time>2026-04-18T09:30:27.001Z</time></trkpt><trkpt lat="45.41453532176303" lon="11.609467942685335"><ele>18.0</ele><time>2026-04-18T09:30:28Z</time></trkpt><trkpt lat="45.41447991320538" lon="11.609658563887892"><ele>18.0</ele><time>2026-04-18T09:30:29Z</time></trkpt><trkpt lat="45.41443113585418" lon="11.609855734905716"><ele>18.0</ele><time>2026-04-18T09:30:30Z</time></trkpt><trkpt lat="45.41439610303455" lon="11.610072236021548"><ele>18.0</ele><time>2026-04-18T09:30:31Z</time></trkpt><trkpt lat="45.414375454164" lon="11.610312192414444"><ele>18.0</ele><time>2026-04-18T09:30:32Z</time></trkpt><trkpt lat="45.41437149423178" lon="11.610564016106569"><ele>18.0</ele><time>2026-04-18T09:30:33Z</time></trkpt><trkpt lat="45.41437376395917" lon="11.610822256088444"><ele>18.0</ele><time>2026-04-18T09:30:34Z</time></trkpt><trkpt lat="45.41436637918581" lon="11.61105637382766"><ele>18.0</ele><time>2026-04-18T09:30:35Z</time></trkpt><trkpt lat="45.41434109392475" lon="11.611273180056576"><ele>18.0</ele><time>2026-04-18T09:30:36Z</time></trkpt><trkpt lat="45.4143035294979" lon="11.611490563537421"><ele>18.333333333333332</ele><time>2026-04-18T09:30:37Z</time></trkpt><trkpt lat="45.41424750712867" lon="11.611716538985307"><ele>18.666666666666664</ele><time>2026-04-18T09:30:38Z</time></trkpt><trkpt lat="45.41417722130574" lon="11.611941644804359"><ele>19.0</ele><time>2026-04-18T09:30:39Z</time></trkpt><trkpt lat="45.414084076816856" lon="11.612163029627585"><ele>19.0</ele><time>2026-04-18T09:30:40Z</time></trkpt><trkpt lat="45.413987412412574" lon="11.612365870894607"><ele>19.0</ele><time>2026-04-18T09:30:41Z</time></trkpt><trkpt lat="45.413900020613184" lon="11.612547774482204"><ele>19.0</ele><time>2026-04-18T09:30:42Z</time></trkpt><trkpt lat="45.41381030525531" lon="11.612726891353773"><ele>19.333333333333332</ele><time>2026-04-18T09:30:43Z</time></trkpt><trkpt lat="45.41371365645473" lon="11.612901762400368"><ele>19.666666666666668</ele><time>2026-04-18T09:30:44Z</time></trkpt><trkpt lat="45.413616698575126" lon="11.613077879687278"><ele>20.0</ele><time>2026-04-18T09:30:45Z</time></trkpt><trkpt lat="45.413530165226405" lon="11.613259611042254"><ele>20.0</ele><time>2026-04-18T09:30:46Z</time></trkpt><trkpt lat="45.41344734015963" lon="11.613449774230576"><ele>20.0</ele><time>2026-04-18T09:30:47Z</time></trkpt><trkpt lat="45.41338162382903" lon="11.613651364041049"><ele>20.0</ele><time>2026-04-18T09:30:48Z</time></trkpt><trkpt lat="45.413326008418544" lon="11.613859225575641"><ele>20.0</ele><time>2026-04-18T09:30:49Z</time></trkpt><trkpt lat="45.41328135946708" lon="11.614075753188299"><ele>20.0</ele><time>2026-04-18T09:30:50Z</time></trkpt><trkpt lat="45.41322374556118" lon="11.614275656925932"><ele>20.0</ele><time>2026-04-18T09:30:51Z</time></trkpt><trkpt lat="45.413186804823255" lon="11.614447121370716"><ele>20.0</ele><time>2026-04-18T09:30:52Z</time></trkpt><trkpt lat="45.41312872331706" lon="11.614606862526665"><ele>19.75</ele><time>2026-04-18T09:30:53Z</time></trkpt><trkpt lat="45.413088377944206" lon="11.614748763872102"><ele>19.5</ele><time>2026-04-18T09:30:54Z</time></trkpt><trkpt lat="45.413034706135576" lon="11.61486905813245"><ele>19.25</ele><time>2026-04-18T09:30:55Z</time></trkpt><trkpt lat="45.41297059058836" lon="11.615035052421389"><ele>19.0</ele><time>2026-04-18T09:30:56Z</time></trkpt><trkpt lat="45.41289886770607" lon="11.615184223147045"><ele>19.0</ele><time>2026-04-18T09:30:57Z</time></trkpt><trkpt lat="45.412810934795196" lon="11.615324153312026"><ele>19.0</ele><time>2026-04-18T09:30:58Z</time></trkpt><trkpt lat="45.41272023610389" lon="11.615459482441501"><ele>19.0</ele><time>2026-04-18T09:30:59Z</time></trkpt><trkpt lat="45.412625825228716" lon="11.615593043574687"><ele>19.0</ele><time>2026-04-18T09:31:00Z</time></trkpt><trkpt lat="45.41254281950545" lon="11.61572919915093"><ele>19.0</ele><time>2026-04-18T09:31:01Z</time></trkpt><trkpt lat="45.41246256833032" lon="11.615836125515752"><ele>19.0</ele><time>2026-04-18T09:31:02Z</time></trkpt><trkpt lat="45.41234573015844" lon="11.615930807790082"><ele>19.0</ele><time>2026-04-18T09:31:03Z</time></trkpt><trkpt lat="45.412206607333665" lon="11.616027526330727"><ele>19.0</ele><time>2026-04-18T09:31:04Z</time></trkpt><trkpt lat="45.412102099978625" lon="11.61611206323247"><ele>19.25</ele><time>2026-04-18T09:31:05Z</time></trkpt><trkpt lat="45.41202001742257" lon="11.616149757101027"><ele>19.5</ele><time>2026-04-18T09:31:06Z</time></trkpt><trkpt lat="45.41191557900296" lon="11.616215936616863"><ele>19.75</ele><time>2026-04-18T09:31:07Z</time></trkpt><trkpt lat="45.4117954272639" lon="11.616291058377456"><ele>20.0</ele><time>2026-04-18T09:31:08Z</time></trkpt><trkpt lat="45.4116304274053" lon="11.61639441232679"><ele>20.0</ele><time>2026-04-18T09:31:09Z</time></trkpt><trkpt lat="45.411476852913026" lon="11.616483322666133"><ele>20.0</ele><time>2026-04-18T09:31:10Z</time></trkpt><trkpt lat="45.41134914569758" lon="11.616569101519637"><ele>20.0</ele><time>2026-04-18T09:31:11Z</time></trkpt><trkpt lat="45.411227931494324" lon="11.616654809720867"><ele>20.0</ele><time>2026-04-18T09:31:12Z</time></trkpt><trkpt lat="45.4110979200299" lon="11.616739453566735"><ele>20.0</ele><time>2026-04-18T09:31:13Z</time></trkpt><trkpt lat="45.4109711744583" lon="11.616823445766096"><ele>20.0</ele><time>2026-04-18T09:31:14Z</time></trkpt><trkpt lat="45.41085412298753" lon="11.616899785999351"><ele>20.0</ele><time>2026-04-18T09:31:15Z</time></trkpt><trkpt lat="45.41074381640426" lon="11.616976350622718"><ele>20.0</ele><time>2026-04-18T09:31:16Z</time></trkpt><trkpt lat="45.41063766521359" lon="11.617048305042028"><ele>20.0</ele><time>2026-04-18T09:31:17Z</time></trkpt><trkpt lat="45.41053165935945" lon="11.617118522583858"><ele>20.0</ele><time>2026-04-18T09:31:18Z</time></trkpt><trkpt lat="45.4104229144209" lon="11.617188611405812"><ele>20.0</ele><time>2026-04-18T09:31:19Z</time></trkpt><trkpt lat="45.41030726982861" lon="11.617252102863674"><ele>20.0</ele><time>2026-04-18T09:31:20Z</time></trkpt><trkpt lat="45.41019419202166" lon="11.617319614685584"><ele>20.0</ele><time>2026-04-18T09:31:21Z</time></trkpt><trkpt lat="45.4100980013265" lon="11.617389652108864"><ele>20.0</ele><time>2026-04-18T09:31:22Z</time></trkpt><trkpt lat="45.40998856858312" lon="11.61746830932377"><ele>20.0</ele><time>2026-04-18T09:31:23Z</time></trkpt><trkpt lat="45.409876133940024" lon="11.617556721497618"><ele>20.0</ele><time>2026-04-18T09:31:24Z</time></trkpt><trkpt lat="45.40976571146519" lon="11.617678254642062"><ele>19.75</ele><time>2026-04-18T09:31:25Z</time></trkpt><trkpt lat="45.409666684400406" lon="11.617836088677734"><ele>19.5</ele><time>2026-04-18T09:31:26Z</time></trkpt><trkpt lat="45.4095803673126" lon="11.618012623627383"><ele>19.25</ele><time>2026-04-18T09:31:27Z</time></trkpt><trkpt lat="45.40949204240325" lon="11.6181754917441"><ele>19.0</ele><time>2026-04-18T09:31:28Z</time></trkpt><trkpt lat="45.40937722880506" lon="11.61828944897152"><ele>18.75</ele><time>2026-04-18T09:31:29Z</time></trkpt><trkpt lat="45.4092514816076" lon="11.618376444417528"><ele>18.5</ele><time>2026-04-18T09:31:30Z</time></trkpt><trkpt lat="45.409117746443286" lon="11.618465203140078"><ele>18.25</ele><time>2026-04-18T09:31:31Z</time></trkpt><trkpt lat="45.40898904237593" lon="11.618561786286541"><ele>18.0</ele><time>2026-04-18T09:31:32Z</time></trkpt><trkpt lat="45.40884923155755" lon="11.618645025147766"><ele>18.25</ele><time>2026-04-18T09:31:33Z</time></trkpt><trkpt lat="45.408727573669" lon="11.618693885791515"><ele>18.5</ele><time>2026-04-18T09:31:34Z</time></trkpt><trkpt lat="45.408601870949084" lon="11.618797854486994"><ele>18.75</ele><time>2026-04-18T09:31:35Z</time></trkpt><trkpt lat="45.40847743083532" lon="11.618885151262253"><ele>19.0</ele><time>2026-04-18T09:31:36Z</time></trkpt><trkpt lat="45.40835491677045" lon="11.618974742410789"><ele>19.0</ele><time>2026-04-18T09:31:37Z</time></trkpt><trkpt lat="45.40823197147591" lon="11.619077239381962"><ele>19.0</ele><time>2026-04-18T09:31:38Z</time></trkpt><trkpt lat="45.40811921772415" lon="11.619219154680508"><ele>19.0</ele><time>2026-04-18T09:31:39Z</time></trkpt><trkpt lat="45.4080265271692" lon="11.619399119090723"><ele>19.333333333333332</ele><time>2026-04-18T09:31:40Z</time></trkpt><trkpt lat="45.407932994446995" lon="11.619608846559634"><ele>19.666666666666668</ele><time>2026-04-18T09:31:41Z</time></trkpt><trkpt lat="45.40784352891561" lon="11.61982319365241"><ele>20.0</ele><time>2026-04-18T09:31:42Z</time></trkpt><trkpt lat="45.40774956724207" lon="11.620016659128927"><ele>20.0</ele><time>2026-04-18T09:31:43.001Z</time></trkpt><trkpt lat="45.40766026441591" lon="11.620209491478368"><ele>20.0</ele><time>2026-04-18T09:31:44.001Z</time></trkpt><trkpt lat="45.40756887686301" lon="11.620406671779952"><ele>20.0</ele><time>2026-04-18T09:31:45.001Z</time></trkpt><trkpt lat="45.407478493918106" lon="11.620613493128449"><ele>19.333333333333336</ele><time>2026-04-18T09:31:46.001Z</time></trkpt><trkpt lat="45.407388395529914" lon="11.62084390542293"><ele>18.666666666666668</ele><time>2026-04-18T09:31:47.001Z</time></trkpt><trkpt lat="45.40731111905313" lon="11.621132831155446"><ele>18.0</ele><time>2026-04-18T09:31:48.001Z</time></trkpt><trkpt lat="45.4072431550036" lon="11.621510685808778"><ele>18.5</ele><time>2026-04-18T09:31:49.001Z</time></trkpt><trkpt lat="45.40716018200538" lon="11.621900229934496"><ele>19.0</ele><time>2026-04-18T09:31:50.001Z</time></trkpt><trkpt lat="45.40708167076804" lon="11.622248709135176"><ele>17.5</ele><time>2026-04-18T09:31:51.001Z</time></trkpt><trkpt lat="45.40701254512756" lon="11.62256925182115"><ele>16.0</ele><time>2026-04-18T09:31:52.001Z</time></trkpt><trkpt lat="45.406954649507625" lon="11.622870645395794"><ele>15.666666666666666</ele><time>2026-04-18T09:31:53.001Z</time></trkpt><trkpt lat="45.406904048533974" lon="11.62315518679695"><ele>15.333333333333332</ele><time>2026-04-18T09:31:54.001Z</time></trkpt><trkpt lat="45.406861183528385" lon="11.623438402568294"><ele>15.0</ele><time>2026-04-18T09:31:55.001Z</time></trkpt><trkpt lat="45.40681335116635" lon="11.623737614043078"><ele>15.666666666666668</ele><time>2026-04-18T09:31:56.001Z</time></trkpt><trkpt lat="45.40676357832804" lon="11.624043433727465"><ele>16.333333333333336</ele><time>2026-04-18T09:31:57.001Z</time></trkpt><trkpt lat="45.406719837781615" lon="11.624347655413985"><ele>17.0</ele><time>2026-04-18T09:31:58.001Z</time></trkpt><trkpt lat="45.40667645595093" lon="11.624616893155098"><ele>17.333333333333336</ele><time>2026-04-18T09:31:59.001Z</time></trkpt><trkpt lat="45.40663284304313" lon="11.624873520207302"><ele>17.666666666666668</ele><time>2026-04-18T09:32:00.001Z</time></trkpt><trkpt lat="45.40659577270311" lon="11.62511307413075"><ele>18.0</ele><time>2026-04-18T09:32:01.001Z</time></trkpt><trkpt lat="45.40656109607414" lon="11.625334364127358"><ele>17.0</ele><time>2026-04-18T09:32:02.001Z</time></trkpt><trkpt lat="45.40652983135196" lon="11.625544034032279"><ele>16.0</ele><time>2026-04-18T09:32:03.001Z</time></trkpt><trkpt lat="45.40648992462032" lon="11.625726990995057"><ele>15.0</ele><time>2026-04-18T09:32:04.001Z</time></trkpt><trkpt lat="45.406433181099196" lon="11.62587998320614"><ele>14.0</ele><time>2026-04-18T09:32:05.001Z</time></trkpt><trkpt lat="45.4063592338522" lon="11.626010505057886"><ele>15.333333333333334</ele><time>2026-04-18T09:32:06.001Z</time></trkpt><trkpt lat="45.40623789666388" lon="11.626063477369643"><ele>16.666666666666668</ele><time>2026-04-18T09:32:07.001Z</time></trkpt><trkpt lat="45.406086187715005" lon="11.626029299127692"><ele>18.0</ele><time>2026-04-18T09:32:08.001Z</time></trkpt><trkpt lat="45.40589548658992" lon="11.62600724274774"><ele>18.0</ele><time>2026-04-18T09:32:09.001Z</time></trkpt><trkpt lat="45.40567677850527" lon="11.626000942072118"><ele>18.0</ele><time>2026-04-18T09:32:10.001Z</time></trkpt><trkpt lat="45.40542772469136" lon="11.62597346674967"><ele>18.0</ele><time>2026-04-18T09:32:11.001Z</time></trkpt><trkpt lat="45.4051974609304" lon="11.625922555035764"><ele>18.0</ele><time>2026-04-18T09:32:12.001Z</time></trkpt><trkpt lat="45.40497689446741" lon="11.62589620034146"><ele>18.0</ele><time>2026-04-18T09:32:13.001Z</time></trkpt><trkpt lat="45.4047553833466" lon="11.62587549223214"><ele>18.0</ele><time>2026-04-18T09:32:14.001Z</time></trkpt><trkpt lat="45.40453105916187" lon="11.625874914997844"><ele>18.0</ele><time>2026-04-18T09:32:15.001Z</time></trkpt><trkpt lat="45.4043001606901" lon="11.625899953436788"><ele>18.0</ele><time>2026-04-18T09:32:16.001Z</time></trkpt><trkpt lat="45.40406952379145" lon="11.625926527920926"><ele>18.0</ele><time>2026-04-18T09:32:17.001Z</time></trkpt><trkpt lat="45.40386210955195" lon="11.625950426618747"><ele>18.0</ele><time>2026-04-18T09:32:18.001Z</time></trkpt><trkpt lat="45.4036579106525" lon="11.625995823661544"><ele>18.0</ele><time>2026-04-18T09:32:19.001Z</time></trkpt><trkpt lat="45.40345555302604" lon="11.626021130450646"><ele>18.0</ele><time>2026-04-18T09:32:20.001Z</time></trkpt><trkpt lat="45.40326373791786" lon="11.626023079349846"><ele>18.0</ele><time>2026-04-18T09:32:21.001Z</time></trkpt><trkpt lat="45.40308663694284" lon="11.626044693302205"><ele>17.666666666666668</ele><time>2026-04-18T09:32:22.001Z</time></trkpt><trkpt lat="45.40291674818974" lon="11.62608086541256"><ele>17.333333333333336</ele><time>2026-04-18T09:32:23.001Z</time></trkpt><trkpt lat="45.40275497464014" lon="11.626081829055924"><ele>17.0</ele><time>2026-04-18T09:32:24.001Z</time></trkpt><trkpt lat="45.40260413076037" lon="11.626068591675452"><ele>17.0</ele><time>2026-04-18T09:32:25.001Z</time></trkpt><trkpt lat="45.402467159575785" lon="11.626046829799243"><ele>17.0</ele><time>2026-04-18T09:32:26.001Z</time></trkpt><trkpt lat="45.40234140447599" lon="11.62603220371204"><ele>17.0</ele><time>2026-04-18T09:32:27.001Z</time></trkpt><trkpt lat="45.40224400665824" lon="11.62603874704977"><ele>17.0</ele><time>2026-04-18T09:32:28.001Z</time></trkpt><trkpt lat="45.402167660445755" lon="11.626067364503953"><ele>17.0</ele><time>2026-04-18T09:32:29.001Z</time></trkpt><trkpt lat="45.40210244724789" lon="11.626176815251968"><ele>17.0</ele><time>2026-04-18T09:32:30.001Z</time></trkpt><trkpt lat="45.402088879191616" lon="11.62636452437847"><ele>17.0</ele><time>2026-04-18T09:32:31.001Z</time></trkpt><trkpt lat="45.402082782830384" lon="11.626595822100983"><ele>17.0</ele><time>2026-04-18T09:32:32.001Z</time></trkpt><trkpt lat="45.40208586651167" lon="11.626873052644447"><ele>17.0</ele><time>2026-04-18T09:32:33.001Z</time></trkpt><trkpt lat="45.40208988718212" lon="11.627152060253684"><ele>17.0</ele><time>2026-04-18T09:32:34Z</time></trkpt><trkpt lat="45.40209398078434" lon="11.627436128747176"><ele>17.0</ele><time>2026-04-18T09:32:35Z</time></trkpt><trkpt lat="45.402098695361595" lon="11.627763288819276"><ele>17.0</ele><time>2026-04-18T09:32:36Z</time></trkpt><trkpt lat="45.40210265211782" lon="11.62810883010194"><ele>17.0</ele><time>2026-04-18T09:32:37Z</time></trkpt><trkpt lat="45.4021027634269" lon="11.628451496743862"><ele>16.5</ele><time>2026-04-18T09:32:38Z</time></trkpt><trkpt lat="45.40209392086579" lon="11.62879055146024"><ele>16.0</ele><time>2026-04-18T09:32:39Z</time></trkpt><trkpt lat="45.402073483011925" lon="11.62909740613767"><ele>16.0</ele><time>2026-04-18T09:32:40Z</time></trkpt><trkpt lat="45.40204385730039" lon="11.629403902626889"><ele>16.0</ele><time>2026-04-18T09:32:41Z</time></trkpt><trkpt lat="45.402009650248054" lon="11.62969667757006"><ele>16.0</ele><time>2026-04-18T09:32:42Z</time></trkpt><trkpt lat="45.40199092573925" lon="11.62996657524621"><ele>15.666666666666666</ele><time>2026-04-18T09:32:43Z</time></trkpt><trkpt lat="45.401951804739" lon="11.630237386372611"><ele>15.333333333333332</ele><time>2026-04-18T09:32:44Z</time></trkpt><trkpt lat="45.401915968804225" lon="11.630538676118206"><ele>15.0</ele><time>2026-04-18T09:32:45Z</time></trkpt><trkpt lat="45.40186945144497" lon="11.630882392685821"><ele>14.0</ele><time>2026-04-18T09:32:46Z</time></trkpt><trkpt lat="45.401822271159105" lon="11.631241384412952"><ele>13.0</ele><time>2026-04-18T09:32:47Z</time></trkpt><trkpt lat="45.40177717400277" lon="11.631599811792"><ele>13.0</ele><time>2026-04-18T09:32:48Z</time></trkpt><trkpt lat="45.401738561513255" lon="11.631941720755062"><ele>13.0</ele><time>2026-04-18T09:32:49Z</time></trkpt><trkpt lat="45.40169534582152" lon="11.632270922902485"><ele>14.0</ele><time>2026-04-18T09:32:50Z</time></trkpt><trkpt lat="45.401658538509615" lon="11.632586681464495"><ele>15.0</ele><time>2026-04-18T09:32:51Z</time></trkpt><trkpt lat="45.40162322032563" lon="11.63288570837924"><ele>16.0</ele><time>2026-04-18T09:32:52Z</time></trkpt><trkpt lat="45.401586850992594" lon="11.633167981059072"><ele>16.0</ele><time>2026-04-18T09:32:53Z</time></trkpt><trkpt lat="45.401550130058894" lon="11.633436291714254"><ele>16.0</ele><time>2026-04-18T09:32:54Z</time></trkpt><trkpt lat="45.40151803063422" lon="11.633690190422074"><ele>16.0</ele><time>2026-04-18T09:32:55Z</time></trkpt><trkpt lat="45.401491543876915" lon="11.63393669570297"><ele>16.0</ele><time>2026-04-18T09:32:56Z</time></trkpt><trkpt lat="45.401439479982045" lon="11.634152839199256"><ele>16.0</ele><time>2026-04-18T09:32:57Z</time></trkpt><trkpt lat="45.401384072896896" lon="11.634338102159056"><ele>16.0</ele><time>2026-04-18T09:32:58Z</time></trkpt><trkpt lat="45.40132435384797" lon="11.634522660746175"><ele>16.0</ele><time>2026-04-18T09:32:59Z</time></trkpt><trkpt lat="45.4012168511687" lon="11.63466386602772"><ele>16.666666666666664</ele><time>2026-04-18T09:33:00Z</time></trkpt><trkpt lat="45.40109704131747" lon="11.634832041912448"><ele>17.333333333333332</ele><time>2026-04-18T09:33:01Z</time></trkpt><trkpt lat="45.400984567604084" lon="11.635012763535062"><ele>18.0</ele><time>2026-04-18T09:33:02Z</time></trkpt><trkpt lat="45.40086990092283" lon="11.635187928653975"><ele>18.0</ele><time>2026-04-18T09:33:03Z</time></trkpt><trkpt lat="45.400736768422384" lon="11.635378923279978"><ele>18.0</ele><time>2026-04-18T09:33:04Z</time></trkpt><trkpt lat="45.400586189740544" lon="11.635567313071462"><ele>18.0</ele><time>2026-04-18T09:33:05Z</time></trkpt><trkpt lat="45.40044586996877" lon="11.635773808789667"><ele>17.666666666666668</ele><time>2026-04-18T09:33:06Z</time></trkpt><trkpt lat="45.4003051706108" lon="11.635980771790992"><ele>17.333333333333336</ele><time>2026-04-18T09:33:07Z</time></trkpt><trkpt lat="45.40016550508845" lon="11.636190120476247"><ele>17.0</ele><time>2026-04-18T09:33:08Z</time></trkpt><trkpt lat="45.40004188289088" lon="11.636407100174734"><ele>17.0</ele><time>2026-04-18T09:33:09Z</time></trkpt><trkpt lat="45.39990563108804" lon="11.636599178296505"><ele>17.0</ele><time>2026-04-18T09:33:10Z</time></trkpt><trkpt lat="45.39976562182864" lon="11.636805898416902"><ele>17.0</ele><time>2026-04-18T09:33:11Z</time></trkpt><trkpt lat="45.39962596503152" lon="11.637012017530461"><ele>17.0</ele><time>2026-04-18T09:33:12Z</time></trkpt><trkpt lat="45.39949378392216" lon="11.637210589693234"><ele>17.0</ele><time>2026-04-18T09:33:13Z</time></trkpt><trkpt lat="45.39936835168289" lon="11.63739724882887"><ele>17.0</ele><time>2026-04-18T09:33:14Z</time></trkpt><trkpt lat="45.399248159723356" lon="11.637575432264647"><ele>17.0</ele><time>2026-04-18T09:33:15Z</time></trkpt><trkpt lat="45.3991357034875" lon="11.637734727114818"><ele>17.0</ele><time>2026-04-18T09:33:16Z</time></trkpt><trkpt lat="45.39904045591985" lon="11.637869162007597"><ele>17.0</ele><time>2026-04-18T09:33:17Z</time></trkpt><trkpt lat="45.39895887152322" lon="11.637986525137913"><ele>17.0</ele><time>2026-04-18T09:33:18Z</time></trkpt><trkpt lat="45.39889188079444" lon="11.638089683189863"><ele>16.833333333333336</ele><time>2026-04-18T09:33:19Z</time></trkpt><trkpt lat="45.39883829861394" lon="11.638168611974402"><ele>16.666666666666668</ele><time>2026-04-18T09:33:20Z</time></trkpt><trkpt lat="45.39878581901717" lon="11.63824477364933"><ele>16.5</ele><time>2026-04-18T09:33:21Z</time></trkpt><trkpt lat="45.39873394119568" lon="11.638319540973754"><ele>16.333333333333332</ele><time>2026-04-18T09:33:22Z</time></trkpt><trkpt lat="45.3986820087506" lon="11.638394002807606"><ele>16.166666666666664</ele><time>2026-04-18T09:33:23Z</time></trkpt><trkpt lat="45.39861756921698" lon="11.638490532306703"><ele>16.0</ele><time>2026-04-18T09:33:24Z</time></trkpt><trkpt lat="45.39852508950801" lon="11.638619356316235"><ele>16.0</ele><time>2026-04-18T09:33:25Z</time></trkpt><trkpt lat="45.3984236771507" lon="11.638799578581756"><ele>16.0</ele><time>2026-04-18T09:33:26Z</time></trkpt><trkpt lat="45.39828215829717" lon="11.638987800364573"><ele>16.0</ele><time>2026-04-18T09:33:27Z</time></trkpt><trkpt lat="45.39813219635848" lon="11.639206468466831"><ele>16.333333333333332</ele><time>2026-04-18T09:33:28Z</time></trkpt><trkpt lat="45.39799260126126" lon="11.63941727566107"><ele>16.666666666666668</ele><time>2026-04-18T09:33:29Z</time></trkpt><trkpt lat="45.397866171536386" lon="11.639607114423361"><ele>17.0</ele><time>2026-04-18T09:33:30Z</time></trkpt><trkpt lat="45.39774271844235" lon="11.639783350791301"><ele>17.333333333333336</ele><time>2026-04-18T09:33:31Z</time></trkpt><trkpt lat="45.39762267258487" lon="11.639955800559058"><ele>17.666666666666668</ele><time>2026-04-18T09:33:32Z</time></trkpt><trkpt lat="45.397502130912436" lon="11.640137781147645"><ele>18.0</ele><time>2026-04-18T09:33:33Z</time></trkpt><trkpt lat="45.39737880681522" lon="11.640335468092296"><ele>18.0</ele><time>2026-04-18T09:33:34Z</time></trkpt><trkpt lat="45.397255006794474" lon="11.64054129536197"><ele>18.0</ele><time>2026-04-18T09:33:35Z</time></trkpt><trkpt lat="45.39712895184249" lon="11.64075206556938"><ele>18.0</ele><time>2026-04-18T09:33:36Z</time></trkpt><trkpt lat="45.39700029091918" lon="11.640976109615863"><ele>18.666666666666668</ele><time>2026-04-18T09:33:37Z</time></trkpt><trkpt lat="45.39687661449094" lon="11.641195436291746"><ele>19.333333333333336</ele><time>2026-04-18T09:33:38Z</time></trkpt><trkpt lat="45.396763722525584" lon="11.641390034141997"><ele>20.0</ele><time>2026-04-18T09:33:39Z</time></trkpt><trkpt lat="45.396652245762375" lon="11.641583253602079"><ele>20.0</ele><time>2026-04-18T09:33:40Z</time></trkpt><trkpt lat="45.39652922419209" lon="11.641778106636432"><ele>20.0</ele><time>2026-04-18T09:33:41Z</time></trkpt><trkpt lat="45.396399200078676" lon="11.641989746263649"><ele>20.0</ele><time>2026-04-18T09:33:42Z</time></trkpt><trkpt lat="45.39627128001566" lon="11.642215657892242"><ele>18.666666666666668</ele><time>2026-04-18T09:33:43Z</time></trkpt><trkpt lat="45.39614233384669" lon="11.642421122968685"><ele>17.333333333333332</ele><time>2026-04-18T09:33:44Z</time></trkpt><trkpt lat="45.39601273214945" lon="11.642622959218393"><ele>16.0</ele><time>2026-04-18T09:33:45Z</time></trkpt><trkpt lat="45.39589040309462" lon="11.642841301414622"><ele>16.0</ele><time>2026-04-18T09:33:46Z</time></trkpt><trkpt lat="45.39575506274702" lon="11.643045026128393"><ele>16.0</ele><time>2026-04-18T09:33:47.001Z</time></trkpt><trkpt lat="45.39561963289982" lon="11.64325549908782"><ele>16.0</ele><time>2026-04-18T09:33:48.001Z</time></trkpt><trkpt lat="45.39549307077679" lon="11.643462014253467"><ele>16.666666666666664</ele><time>2026-04-18T09:33:49.001Z</time></trkpt><trkpt lat="45.39536179870983" lon="11.643667293173877"><ele>17.333333333333332</ele><time>2026-04-18T09:33:50.001Z</time></trkpt><trkpt lat="45.39523615864945" lon="11.643878635320323"><ele>18.0</ele><time>2026-04-18T09:33:51.001Z</time></trkpt><trkpt lat="45.39511906015925" lon="11.644094058820968"><ele>18.0</ele><time>2026-04-18T09:33:52.001Z</time></trkpt><trkpt lat="45.3950041307981" lon="11.64430780778383"><ele>18.0</ele><time>2026-04-18T09:33:53.001Z</time></trkpt><trkpt lat="45.39488453252612" lon="11.644525849019672"><ele>18.0</ele><time>2026-04-18T09:33:54.001Z</time></trkpt><trkpt lat="45.39476467012918" lon="11.644739051051909"><ele>17.0</ele><time>2026-04-18T09:33:55.001Z</time></trkpt><trkpt lat="45.39465076160253" lon="11.64493573589448"><ele>16.0</ele><time>2026-04-18T09:33:56.001Z</time></trkpt><trkpt lat="45.3945462355051" lon="11.645118266525731"><ele>15.0</ele><time>2026-04-18T09:33:57.001Z</time></trkpt><trkpt lat="45.39444875932466" lon="11.645289102173221"><ele>15.25</ele><time>2026-04-18T09:33:58.001Z</time></trkpt><trkpt lat="45.3943487278105" lon="11.645459760798111"><ele>15.5</ele><time>2026-04-18T09:33:59.001Z</time></trkpt><trkpt lat="45.39425619505673" lon="11.645617197371191"><ele>15.75</ele><time>2026-04-18T09:34:00.001Z</time></trkpt><trkpt lat="45.39416582310209" lon="11.645769749625066"><ele>16.0</ele><time>2026-04-18T09:34:01.001Z</time></trkpt><trkpt lat="45.394076096989494" lon="11.645920888704275"><ele>16.0</ele><time>2026-04-18T09:34:02.001Z</time></trkpt><trkpt lat="45.39398162929713" lon="11.646086242129531"><ele>16.0</ele><time>2026-04-18T09:34:03.001Z</time></trkpt><trkpt lat="45.39387823264928" lon="11.64626890692127"><ele>16.0</ele><time>2026-04-18T09:34:04.001Z</time></trkpt><trkpt lat="45.39376928524361" lon="11.646465779714696"><ele>16.0</ele><time>2026-04-18T09:34:05.001Z</time></trkpt><trkpt lat="45.393650034812936" lon="11.64667462706515"><ele>16.0</ele><time>2026-04-18T09:34:06.001Z</time></trkpt><trkpt lat="45.39352448654289" lon="11.646888276601619"><ele>16.0</ele><time>2026-04-18T09:34:07.001Z</time></trkpt><trkpt lat="45.3933912306381" lon="11.647110002829"><ele>16.0</ele><time>2026-04-18T09:34:08.001Z</time></trkpt><trkpt lat="45.39325606590164" lon="11.647336601296379"><ele>16.0</ele><time>2026-04-18T09:34:09.001Z</time></trkpt><trkpt lat="45.39312163503714" lon="11.647569089823188"><ele>16.0</ele><time>2026-04-18T09:34:10.001Z</time></trkpt><trkpt lat="45.392990159327724" lon="11.647795989264207"><ele>16.0</ele><time>2026-04-18T09:34:11.001Z</time></trkpt><trkpt lat="45.39285305665658" lon="11.648028730622714"><ele>16.0</ele><time>2026-04-18T09:34:12.001Z</time></trkpt><trkpt lat="45.39271817974408" lon="11.648256636404762"><ele>16.0</ele><time>2026-04-18T09:34:13.001Z</time></trkpt><trkpt lat="45.39259314878578" lon="11.648470758419931"><ele>16.0</ele><time>2026-04-18T09:34:14.001Z</time></trkpt><trkpt lat="45.392475028292345" lon="11.648670197635067"><ele>16.0</ele><time>2026-04-18T09:34:15.001Z</time></trkpt><trkpt lat="45.392358798318476" lon="11.64886610425191"><ele>16.0</ele><time>2026-04-18T09:34:16.001Z</time></trkpt><trkpt lat="45.39223740926517" lon="11.649067851426349"><ele>16.0</ele><time>2026-04-18T09:34:17.001Z</time></trkpt><trkpt lat="45.3921163903603" lon="11.649272739055565"><ele>16.0</ele><time>2026-04-18T09:34:18.001Z</time></trkpt><trkpt lat="45.39199937676643" lon="11.649480294688123"><ele>16.0</ele><time>2026-04-18T09:34:19.001Z</time></trkpt><trkpt lat="45.39187929232728" lon="11.64968276586282"><ele>16.0</ele><time>2026-04-18T09:34:20.001Z</time></trkpt><trkpt lat="45.391759694604495" lon="11.649885938366213"><ele>16.0</ele><time>2026-04-18T09:34:21.001Z</time></trkpt><trkpt lat="45.3916496063468" lon="11.650082297834386"><ele>16.0</ele><time>2026-04-18T09:34:22.001Z</time></trkpt><trkpt lat="45.39152841460094" lon="11.650263623184797"><ele>16.0</ele><time>2026-04-18T09:34:23.001Z</time></trkpt><trkpt lat="45.39142771232651" lon="11.650440305726255"><ele>16.0</ele><time>2026-04-18T09:34:24.001Z</time></trkpt><trkpt lat="45.391329554909376" lon="11.650606301192225"><ele>16.0</ele><time>2026-04-18T09:34:25.001Z</time></trkpt><trkpt lat="45.39123139785663" lon="11.650763255326323"><ele>16.0</ele><time>2026-04-18T09:34:26.001Z</time></trkpt><trkpt lat="45.39113480797486" lon="11.650896830165994"><ele>16.0</ele><time>2026-04-18T09:34:27.001Z</time></trkpt><trkpt lat="45.39103660706053" lon="11.651005793356354"><ele>16.0</ele><time>2026-04-18T09:34:28.001Z</time></trkpt><trkpt lat="45.390919045017846" lon="11.651095970983006"><ele>16.0</ele><time>2026-04-18T09:34:29.001Z</time></trkpt><trkpt lat="45.390785418791495" lon="11.651165649006591"><ele>15.666666666666666</ele><time>2026-04-18T09:34:30.001Z</time></trkpt><trkpt lat="45.390639644703356" lon="11.651197575831203"><ele>15.333333333333332</ele><time>2026-04-18T09:34:31.001Z</time></trkpt><trkpt lat="45.390476612809984" lon="11.651199541897387"><ele>15.0</ele><time>2026-04-18T09:34:32.001Z</time></trkpt><trkpt lat="45.39030855040457" lon="11.651196237318914"><ele>14.75</ele><time>2026-04-18T09:34:33.001Z</time></trkpt><trkpt lat="45.39015718681179" lon="11.651185816519815"><ele>14.5</ele><time>2026-04-18T09:34:34.001Z</time></trkpt><trkpt lat="45.390018935109644" lon="11.651171598345217"><ele>14.25</ele><time>2026-04-18T09:34:35.001Z</time></trkpt><trkpt lat="45.389892123254455" lon="11.651147655908005"><ele>14.0</ele><time>2026-04-18T09:34:36.001Z</time></trkpt><trkpt lat="45.38977392923724" lon="11.65112089879376"><ele>14.2</ele><time>2026-04-18T09:34:37.001Z</time></trkpt><trkpt lat="45.38966560103858" lon="11.65110840261601"><ele>14.399999999999999</ele><time>2026-04-18T09:34:38.001Z</time></trkpt><trkpt lat="45.389565027920526" lon="11.651093675037925"><ele>14.6</ele><time>2026-04-18T09:34:39.001Z</time></trkpt><trkpt lat="45.3894593624785" lon="11.65107841795913"><ele>14.8</ele><time>2026-04-18T09:34:40Z</time></trkpt><trkpt lat="45.389358133316385" lon="11.651070853313874"><ele>15.0</ele><time>2026-04-18T09:34:41Z</time></trkpt><trkpt lat="45.389256018470945" lon="11.651056698862966"><ele>15.0</ele><time>2026-04-18T09:34:42Z</time></trkpt><trkpt lat="45.389152549829475" lon="11.651051339830376"><ele>15.0</ele><time>2026-04-18T09:34:43Z</time></trkpt><trkpt lat="45.38905358547758" lon="11.651033422764442"><ele>15.0</ele><time>2026-04-18T09:34:44Z</time></trkpt><trkpt lat="45.38895146722246" lon="11.651020210104265"><ele>15.0</ele><time>2026-04-18T09:34:45Z</time></trkpt><trkpt lat="45.38885788081151" lon="11.651011354428253"><ele>15.0</ele><time>2026-04-18T09:34:46Z</time></trkpt><trkpt lat="45.3887592120766" lon="11.651001503246468"><ele>15.2</ele><time>2026-04-18T09:34:47Z</time></trkpt><trkpt lat="45.388667673596544" lon="11.650982576786935"><ele>15.4</ele><time>2026-04-18T09:34:48Z</time></trkpt><trkpt lat="45.38858063568272" lon="11.650967800160291"><ele>15.600000000000001</ele><time>2026-04-18T09:34:49Z</time></trkpt><trkpt lat="45.38849160181838" lon="11.650959300505153"><ele>15.8</ele><time>2026-04-18T09:34:50Z</time></trkpt><trkpt lat="45.388400112900634" lon="11.650953715881966"><ele>16.0</ele><time>2026-04-18T09:34:51Z</time></trkpt><trkpt lat="45.38829860214797" lon="11.650950882561963"><ele>16.0</ele><time>2026-04-18T09:34:52Z</time></trkpt><trkpt lat="45.388199715659674" lon="11.650951829042853"><ele>16.0</ele><time>2026-04-18T09:34:53Z</time></trkpt><trkpt lat="45.38809289569823" lon="11.65096475054028"><ele>16.0</ele><time>2026-04-18T09:34:54Z</time></trkpt><trkpt lat="45.3879690518449" lon="11.650983578946375"><ele>16.0</ele><time>2026-04-18T09:34:55Z</time></trkpt><trkpt lat="45.38783993628197" lon="11.651010588769267"><ele>16.0</ele><time>2026-04-18T09:34:56Z</time></trkpt><trkpt lat="45.38770464060107" lon="11.651035421767952"><ele>16.0</ele><time>2026-04-18T09:34:57Z</time></trkpt><trkpt lat="45.387567745684414" lon="11.651051483310553"><ele>16.0</ele><time>2026-04-18T09:34:58Z</time></trkpt><trkpt lat="45.387434873266855" lon="11.651047376131979"><ele>16.0</ele><time>2026-04-18T09:34:59Z</time></trkpt><trkpt lat="45.38730199426444" lon="11.651056715172428"><ele>16.25</ele><time>2026-04-18T09:35:00Z</time></trkpt><trkpt lat="45.38716862272666" lon="11.651062131091646"><ele>16.5</ele><time>2026-04-18T09:35:01Z</time></trkpt><trkpt lat="45.387051912815394" lon="11.651075379967498"><ele>16.75</ele><time>2026-04-18T09:35:02Z</time></trkpt><trkpt lat="45.38693134836628" lon="11.651065139869552"><ele>17.0</ele><time>2026-04-18T09:35:03Z</time></trkpt><trkpt lat="45.38681825893767" lon="11.651075480036356"><ele>17.0</ele><time>2026-04-18T09:35:04Z</time></trkpt><trkpt lat="45.386706189839146" lon="11.651085725945842"><ele>17.0</ele><time>2026-04-18T09:35:05Z</time></trkpt><trkpt lat="45.3865982385004" lon="11.651137522763287"><ele>17.0</ele><time>2026-04-18T09:35:06Z</time></trkpt><trkpt lat="45.386481935644845" lon="11.651141710846709"><ele>17.0</ele><time>2026-04-18T09:35:07Z</time></trkpt><trkpt lat="45.38636539323874" lon="11.651149844256784"><ele>17.25</ele><time>2026-04-18T09:35:08Z</time></trkpt><trkpt lat="45.38624854285261" lon="11.651161903990928"><ele>17.5</ele><time>2026-04-18T09:35:09Z</time></trkpt><trkpt lat="45.386135518964785" lon="11.65120483546423"><ele>17.75</ele><time>2026-04-18T09:35:10Z</time></trkpt><trkpt lat="45.38602867429507" lon="11.6512635720949"><ele>18.0</ele><time>2026-04-18T09:35:11Z</time></trkpt><trkpt lat="45.3859128704289" lon="11.651340040349309"><ele>18.0</ele><time>2026-04-18T09:35:12Z</time></trkpt><trkpt lat="45.385811681057945" lon="11.6514060984439"><ele>18.0</ele><time>2026-04-18T09:35:13Z</time></trkpt><trkpt lat="45.38572232486768" lon="11.651459209887095"><ele>18.0</ele><time>2026-04-18T09:35:14Z</time></trkpt><trkpt lat="45.38563847171284" lon="11.651511835987126"><ele>18.0</ele><time>2026-04-18T09:35:15Z</time></trkpt><trkpt lat="45.38557634625434" lon="11.651545512059153"><ele>18.0</ele><time>2026-04-18T09:35:16Z</time></trkpt><trkpt lat="45.38551234200013" lon="11.651529415342592"><ele>18.0</ele><time>2026-04-18T09:35:19Z</time></trkpt><trkpt lat="45.38541476315223" lon="11.651618117613735"><ele>18.0</ele><time>2026-04-18T09:35:22Z</time></trkpt><trkpt lat="45.385345797338516" lon="11.651690625283994"><ele>18.0</ele><time>2026-04-18T09:35:33Z</time></trkpt><trkpt lat="45.38536880858708" lon="11.651886385527774"><ele>18.0</ele><time>2026-04-18T09:35:35Z</time></trkpt><trkpt lat="45.38540983050058" lon="11.651959710450463"><ele>18.0</ele><time>2026-04-18T09:35:36Z</time></trkpt><trkpt lat="45.38545230311642" lon="11.652035333554426"><ele>18.0</ele><time>2026-04-18T09:35:37Z</time></trkpt><trkpt lat="45.38548982377945" lon="11.6521290562757"><ele>18.0</ele><time>2026-04-18T09:35:38Z</time></trkpt><trkpt lat="45.38552539034241" lon="11.652209090344602"><ele>18.0</ele><time>2026-04-18T09:35:39Z</time></trkpt><trkpt lat="45.385558171776395" lon="11.652317580355563"><ele>18.0</ele><time>2026-04-18T09:35:41Z</time></trkpt><trkpt lat="45.385575127714134" lon="11.652417325882077"><ele>18.0</ele><time>2026-04-18T09:35:43Z</time></trkpt><trkpt lat="45.38556120172183" lon="11.65251005912734"><ele>18.0</ele><time>2026-04-18T09:35:44Z</time></trkpt><trkpt lat="45.38551828943595" lon="11.652618351533636"><ele>18.0</ele><time>2026-04-18T09:35:45Z</time></trkpt><trkpt lat="45.38547495269029" lon="11.652736415679676"><ele>18.0</ele><time>2026-04-18T09:35:46Z</time></trkpt><trkpt lat="45.385376263085924" lon="11.652786430837846"><ele>17.6</ele><time>2026-04-18T09:35:47Z</time></trkpt><trkpt lat="45.38528422938813" lon="11.652808093672622"><ele>17.200000000000003</ele><time>2026-04-18T09:35:48Z</time></trkpt><trkpt lat="45.385157870147566" lon="11.65282233496757"><ele>16.8</ele><time>2026-04-18T09:35:49Z</time></trkpt><trkpt lat="45.385042648195586" lon="11.652807721658219"><ele>16.400000000000002</ele><time>2026-04-18T09:35:50Z</time></trkpt><trkpt lat="45.384965878411435" lon="11.652820892559342"><ele>16.0</ele><time>2026-04-18T09:35:52Z</time></trkpt><trkpt lat="45.3848963558994" lon="11.652840850071204"><ele>16.0</ele><time>2026-04-18T09:35:54Z</time></trkpt><trkpt lat="45.38480868261061" lon="11.652851858012879"><ele>16.0</ele><time>2026-04-18T09:35:57Z</time></trkpt><trkpt lat="45.3846731854552" lon="11.652836619895334"><ele>16.0</ele><time>2026-04-18T09:35:59.001Z</time></trkpt><trkpt lat="45.3845611884842" lon="11.652830590917667"><ele>16.0</ele><time>2026-04-18T09:36:00.001Z</time></trkpt><trkpt lat="45.38446224924414" lon="11.652745756098795"><ele>16.400000000000002</ele><time>2026-04-18T09:36:01.001Z</time></trkpt><trkpt lat="45.38437428244971" lon="11.652684205283785"><ele>16.8</ele><time>2026-04-18T09:36:02.001Z</time></trkpt><trkpt lat="45.384297876809754" lon="11.65262828127014"><ele>17.200000000000003</ele><time>2026-04-18T09:36:03.001Z</time></trkpt><trkpt lat="45.38420477163175" lon="11.652579226667413"><ele>17.6</ele><time>2026-04-18T09:36:04.001Z</time></trkpt><trkpt lat="45.384128270147855" lon="11.652513056887694"><ele>18.0</ele><time>2026-04-18T09:36:05.001Z</time></trkpt><trkpt lat="45.384064038849054" lon="11.652437515381445"><ele>18.0</ele><time>2026-04-18T09:36:06.001Z</time></trkpt><trkpt lat="45.38401023240384" lon="11.652377640325806"><ele>18.0</ele><time>2026-04-18T09:36:07.001Z</time></trkpt><trkpt lat="45.38395680123988" lon="11.652310166496884"><ele>18.0</ele><time>2026-04-18T09:36:08.001Z</time></trkpt><trkpt lat="45.38390446922458" lon="11.652253958889444"><ele>18.0</ele><time>2026-04-18T09:36:09.001Z</time></trkpt><trkpt lat="45.38384602453048" lon="11.652202179175784"><ele>18.0</ele><time>2026-04-18T09:36:10.001Z</time></trkpt><trkpt lat="45.3837677839154" lon="11.652241693831762"><ele>18.0</ele><time>2026-04-18T09:36:11.001Z</time></trkpt><trkpt lat="45.38370004362159" lon="11.652345536243397"><ele>17.5</ele><time>2026-04-18T09:36:12.001Z</time></trkpt><trkpt lat="45.38364289226688" lon="11.652461024958933"><ele>17.0</ele><time>2026-04-18T09:36:13.001Z</time></trkpt><trkpt lat="45.38353195043697" lon="11.652531035955267"><ele>16.5</ele><time>2026-04-18T09:36:14.001Z</time></trkpt><trkpt lat="45.38336415951312" lon="11.652577398919158"><ele>16.0</ele><time>2026-04-18T09:36:15.001Z</time></trkpt><trkpt lat="45.383201333737276" lon="11.652606995762426"><ele>16.0</ele><time>2026-04-18T09:36:16.001Z</time></trkpt><trkpt lat="45.38301649138275" lon="11.652646291725716"><ele>16.0</ele><time>2026-04-18T09:36:17.001Z</time></trkpt><trkpt lat="45.38282183159192" lon="11.652673462456319"><ele>16.0</ele><time>2026-04-18T09:36:18.001Z</time></trkpt><trkpt lat="45.38264402877439" lon="11.652693797706512"><ele>16.0</ele><time>2026-04-18T09:36:19.001Z</time></trkpt><trkpt lat="45.38245361493411" lon="11.65273541334619"><ele>16.0</ele><time>2026-04-18T09:36:20.001Z</time></trkpt><trkpt lat="45.38226822848178" lon="11.65277123844985"><ele>16.0</ele><time>2026-04-18T09:36:21.001Z</time></trkpt><trkpt lat="45.382091318855394" lon="11.652800000744806"><ele>15.333333333333332</ele><time>2026-04-18T09:36:22.001Z</time></trkpt><trkpt lat="45.38191948778097" lon="11.652821279928961"><ele>14.666666666666668</ele><time>2026-04-18T09:36:23.001Z</time></trkpt><trkpt lat="45.38175423397631" lon="11.652841942951456"><ele>14.0</ele><time>2026-04-18T09:36:24.001Z</time></trkpt><trkpt lat="45.38159447829019" lon="11.652856783264776"><ele>14.0</ele><time>2026-04-18T09:36:25.001Z</time></trkpt><trkpt lat="45.38143804726228" lon="11.652875068983116"><ele>14.0</ele><time>2026-04-18T09:36:26.001Z</time></trkpt><trkpt lat="45.38126683765053" lon="11.652881539835292"><ele>14.0</ele><time>2026-04-18T09:36:27.001Z</time></trkpt><trkpt lat="45.38107243015623" lon="11.652874068100793"><ele>14.333333333333334</ele><time>2026-04-18T09:36:28.001Z</time></trkpt><trkpt lat="45.38086859378371" lon="11.652865664309992"><ele>14.666666666666668</ele><time>2026-04-18T09:36:29.001Z</time></trkpt><trkpt lat="45.38065810504662" lon="11.652861926837506"><ele>15.0</ele><time>2026-04-18T09:36:30.001Z</time></trkpt><trkpt lat="45.380461003561805" lon="11.652867947209836"><ele>16.666666666666668</ele><time>2026-04-18T09:36:31.001Z</time></trkpt><trkpt lat="45.38029610249401" lon="11.652873587058046"><ele>18.333333333333336</ele><time>2026-04-18T09:36:32.001Z</time></trkpt><trkpt lat="45.38013318966437" lon="11.652864820558117"><ele>20.0</ele><time>2026-04-18T09:36:33.001Z</time></trkpt><trkpt lat="45.37997541822807" lon="11.652861416790422"><ele>20.0</ele><time>2026-04-18T09:36:34.001Z</time></trkpt><trkpt lat="45.37980804564559" lon="11.652856602050287"><ele>20.0</ele><time>2026-04-18T09:36:35.001Z</time></trkpt><trkpt lat="45.37963933638611" lon="11.652844132888207"><ele>20.0</ele><time>2026-04-18T09:36:36.001Z</time></trkpt><trkpt lat="45.37950040547838" lon="11.652829184579689"><ele>21.0</ele><time>2026-04-18T09:36:37.001Z</time></trkpt><trkpt lat="45.379368771030634" lon="11.652819862984655"><ele>22.0</ele><time>2026-04-18T09:36:38.001Z</time></trkpt><trkpt lat="45.379237289507344" lon="11.652821680696508"><ele>23.0</ele><time>2026-04-18T09:36:39.001Z</time></trkpt><trkpt lat="45.379103146566976" lon="11.652823330356268"><ele>24.0</ele><time>2026-04-18T09:36:40.001Z</time></trkpt><trkpt lat="45.37897366729435" lon="11.652867329274986"><ele>24.0</ele><time>2026-04-18T09:36:41.001Z</time></trkpt><trkpt lat="45.378856209696146" lon="11.652952786243038"><ele>24.0</ele><time>2026-04-18T09:36:42.001Z</time></trkpt><trkpt lat="45.378753799679984" lon="11.653076814848577"><ele>24.0</ele><time>2026-04-18T09:36:43.001Z</time></trkpt><trkpt lat="45.37866469477801" lon="11.653233113025061"><ele>24.0</ele><time>2026-04-18T09:36:44.001Z</time></trkpt><trkpt lat="45.3786042295438" lon="11.653418422363115"><ele>24.666666666666664</ele><time>2026-04-18T09:36:45.001Z</time></trkpt><trkpt lat="45.378553475487614" lon="11.653625848416878"><ele>25.333333333333332</ele><time>2026-04-18T09:36:46Z</time></trkpt><trkpt lat="45.37849860316163" lon="11.653875490696459"><ele>26.0</ele><time>2026-04-18T09:36:47Z</time></trkpt><trkpt lat="45.37842875321373" lon="11.65412133277051"><ele>26.0</ele><time>2026-04-18T09:36:48Z</time></trkpt><trkpt lat="45.378360970983145" lon="11.654370581859913"><ele>26.0</ele><time>2026-04-18T09:36:49Z</time></trkpt><trkpt lat="45.3782745847652" lon="11.654633346882415"><ele>26.0</ele><time>2026-04-18T09:36:50Z</time></trkpt><trkpt lat="45.378198485007395" lon="11.654863863718623"><ele>27.666666666666664</ele><time>2026-04-18T09:36:51Z</time></trkpt><trkpt lat="45.37813604667593" lon="11.655101617511203"><ele>29.333333333333336</ele><time>2026-04-18T09:36:52Z</time></trkpt><trkpt lat="45.37808226392183" lon="11.655367219057519"><ele>31.0</ele><time>2026-04-18T09:36:53Z</time></trkpt><trkpt lat="45.3780217147051" lon="11.655618464241737"><ele>28.666666666666668</ele><time>2026-04-18T09:36:54Z</time></trkpt><trkpt lat="45.37791788912985" lon="11.655852997005047"><ele>26.333333333333336</ele><time>2026-04-18T09:36:55Z</time></trkpt><trkpt lat="45.3778245040393" lon="11.656063844396837"><ele>24.0</ele><time>2026-04-18T09:36:56Z</time></trkpt><trkpt lat="45.377736702550564" lon="11.656274050192135"><ele>24.0</ele><time>2026-04-18T09:36:57Z</time></trkpt><trkpt lat="45.37764705509853" lon="11.656475581814037"><ele>24.0</ele><time>2026-04-18T09:36:58Z</time></trkpt><trkpt lat="45.377568858417895" lon="11.656685424435762"><ele>24.0</ele><time>2026-04-18T09:36:59Z</time></trkpt><trkpt lat="45.377498835623506" lon="11.656929309005747"><ele>26.333333333333336</ele><time>2026-04-18T09:37:00Z</time></trkpt><trkpt lat="45.3774317496198" lon="11.657205849173089"><ele>28.666666666666668</ele><time>2026-04-18T09:37:01Z</time></trkpt><trkpt lat="45.3773883020608" lon="11.657525416786903"><ele>31.0</ele><time>2026-04-18T09:37:02Z</time></trkpt><trkpt lat="45.37733715648017" lon="11.657900207693551"><ele>33.5</ele><time>2026-04-18T09:37:03Z</time></trkpt><trkpt lat="45.37725207566083" lon="11.65827042393836"><ele>36.0</ele><time>2026-04-18T09:37:04Z</time></trkpt><trkpt lat="45.377143982727034" lon="11.658619389385027"><ele>27.5</ele><time>2026-04-18T09:37:05Z</time></trkpt><trkpt lat="45.37702696315966" lon="11.658929251159039"><ele>19.0</ele><time>2026-04-18T09:37:06Z</time></trkpt><trkpt lat="45.376920450788404" lon="11.65920395769803"><ele>19.333333333333332</ele><time>2026-04-18T09:37:07Z</time></trkpt><trkpt lat="45.37681420878666" lon="11.659458471987898"><ele>19.666666666666668</ele><time>2026-04-18T09:37:08Z</time></trkpt><trkpt lat="45.37673369599954" lon="11.659715306770314"><ele>20.0</ele><time>2026-04-18T09:37:09Z</time></trkpt><trkpt lat="45.376678712651156" lon="11.659979753996788"><ele>20.0</ele><time>2026-04-18T09:37:10Z</time></trkpt><trkpt lat="45.37662129692462" lon="11.660234563868224"><ele>20.0</ele><time>2026-04-18T09:37:11Z</time></trkpt><trkpt lat="45.376547914207855" lon="11.660464824002942"><ele>20.0</ele><time>2026-04-18T09:37:12Z</time></trkpt><trkpt lat="45.37645974561201" lon="11.660673214714926"><ele>20.0</ele><time>2026-04-18T09:37:13Z</time></trkpt><trkpt lat="45.376338231444585" lon="11.660858782663595"><ele>20.0</ele><time>2026-04-18T09:37:14Z</time></trkpt><trkpt lat="45.37618710484398" lon="11.661008178826647"><ele>20.0</ele><time>2026-04-18T09:37:15Z</time></trkpt><trkpt lat="45.37602289193177" lon="11.661118978502055"><ele>20.666666666666668</ele><time>2026-04-18T09:37:16Z</time></trkpt><trkpt lat="45.37583055978332" lon="11.661179489329646"><ele>21.333333333333332</ele><time>2026-04-18T09:37:17Z</time></trkpt><trkpt lat="45.37563198639997" lon="11.661173824046443"><ele>22.0</ele><time>2026-04-18T09:37:18Z</time></trkpt><trkpt lat="45.37544704719103" lon="11.66116969011234"><ele>21.75</ele><time>2026-04-18T09:37:19Z</time></trkpt><trkpt lat="45.37529273167535" lon="11.661166175700059"><ele>21.5</ele><time>2026-04-18T09:37:20Z</time></trkpt><trkpt lat="45.375150013533585" lon="11.661147505993842"><ele>21.25</ele><time>2026-04-18T09:37:21Z</time></trkpt><trkpt lat="45.37501610364989" lon="11.661110332173827"><ele>21.0</ele><time>2026-04-18T09:37:22Z</time></trkpt><trkpt lat="45.374890719205794" lon="11.661053415862227"><ele>21.0</ele><time>2026-04-18T09:37:23Z</time></trkpt><trkpt lat="45.374764395884334" lon="11.66095118072175"><ele>21.0</ele><time>2026-04-18T09:37:24Z</time></trkpt><trkpt lat="45.37462811417801" lon="11.660802884460463"><ele>21.0</ele><time>2026-04-18T09:37:25Z</time></trkpt><trkpt lat="45.37451257698646" lon="11.660599842582126"><ele>21.25</ele><time>2026-04-18T09:37:26Z</time></trkpt><trkpt lat="45.37442507069576" lon="11.660417499299855"><ele>21.5</ele><time>2026-04-18T09:37:27Z</time></trkpt><trkpt lat="45.374353371396545" lon="11.660236467469765"><ele>21.75</ele><time>2026-04-18T09:37:28Z</time></trkpt><trkpt lat="45.37430082435648" lon="11.660061290743673"><ele>22.0</ele><time>2026-04-18T09:37:29Z</time></trkpt><trkpt lat="45.37425831217005" lon="11.659863358070512"><ele>21.0</ele><time>2026-04-18T09:37:30Z</time></trkpt><trkpt lat="45.374248449102154" lon="11.659641200657916"><ele>20.0</ele><time>2026-04-18T09:37:31Z</time></trkpt><trkpt lat="45.374267705821296" lon="11.659416059947784"><ele>19.0</ele><time>2026-04-18T09:37:32Z</time></trkpt><trkpt lat="45.37428322489391" lon="11.65918581120918"><ele>18.666666666666664</ele><time>2026-04-18T09:37:33Z</time></trkpt><trkpt lat="45.37428901712115" lon="11.658957594217934"><ele>18.333333333333332</ele><time>2026-04-18T09:37:34Z</time></trkpt><trkpt lat="45.37428125913503" lon="11.658725760970835"><ele>18.0</ele><time>2026-04-18T09:37:35Z</time></trkpt><trkpt lat="45.37424743654355" lon="11.658491137455846"><ele>17.666666666666668</ele><time>2026-04-18T09:37:36Z</time></trkpt><trkpt lat="45.37419047420802" lon="11.658229671038558"><ele>17.333333333333336</ele><time>2026-04-18T09:37:37Z</time></trkpt><trkpt lat="45.374110979649885" lon="11.657976270228934"><ele>17.0</ele><time>2026-04-18T09:37:38Z</time></trkpt><trkpt lat="45.37402882957907" lon="11.657741446536367"><ele>17.0</ele><time>2026-04-18T09:37:39Z</time></trkpt><trkpt lat="45.37396093999413" lon="11.657492938094869"><ele>17.0</ele><time>2026-04-18T09:37:40Z</time></trkpt><trkpt lat="45.373941727378536" lon="11.657202786207703"><ele>17.0</ele><time>2026-04-18T09:37:41Z</time></trkpt><trkpt lat="45.37391845913681" lon="11.656924440090595"><ele>18.0</ele><time>2026-04-18T09:37:42Z</time></trkpt><trkpt lat="45.37395663791966" lon="11.656641681721611"><ele>19.0</ele><time>2026-04-18T09:37:43Z</time></trkpt><trkpt lat="45.37398421063853" lon="11.656403471174"><ele>20.0</ele><time>2026-04-18T09:37:44Z</time></trkpt><trkpt lat="45.374029899697696" lon="11.65618719872399"><ele>20.25</ele><time>2026-04-18T09:37:45Z</time></trkpt><trkpt lat="45.374056012266415" lon="11.655997728713357"><ele>20.5</ele><time>2026-04-18T09:37:46Z</time></trkpt><trkpt lat="45.374052566372384" lon="11.655820469603007"><ele>20.75</ele><time>2026-04-18T09:37:47Z</time></trkpt><trkpt lat="45.37400068643545" lon="11.655646743966917"><ele>21.0</ele><time>2026-04-18T09:37:48Z</time></trkpt><trkpt lat="45.373935747142276" lon="11.655492363898112"><ele>21.0</ele><time>2026-04-18T09:37:49Z</time></trkpt><trkpt lat="45.37386771916986" lon="11.655377595295075"><ele>21.0</ele><time>2026-04-18T09:37:50.001Z</time></trkpt><trkpt lat="45.3737944863448" lon="11.65529249270061"><ele>21.0</ele><time>2026-04-18T09:37:51.001Z</time></trkpt><trkpt lat="45.37370785003853" lon="11.655241453287971"><ele>21.0</ele><time>2026-04-18T09:37:52.001Z</time></trkpt><trkpt lat="45.373596466210905" lon="11.655198504749048"><ele>21.0</ele><time>2026-04-18T09:37:53.001Z</time></trkpt><trkpt lat="45.37346068413228" lon="11.655188928372418"><ele>21.666666666666668</ele><time>2026-04-18T09:37:54.001Z</time></trkpt><trkpt lat="45.373331663585276" lon="11.655228900111238"><ele>22.333333333333336</ele><time>2026-04-18T09:37:55.001Z</time></trkpt><trkpt lat="45.37319311679016" lon="11.655318160813408"><ele>23.0</ele><time>2026-04-18T09:37:56.001Z</time></trkpt><trkpt lat="45.37301553119344" lon="11.655412145357671"><ele>28.5</ele><time>2026-04-18T09:37:57.001Z</time></trkpt><trkpt lat="45.37280308061378" lon="11.65555724001007"><ele>34.0</ele><time>2026-04-18T09:37:58.001Z</time></trkpt><trkpt lat="45.37258773109021" lon="11.65566822821815"><ele>34.0</ele><time>2026-04-18T09:37:59.001Z</time></trkpt><trkpt lat="45.372379257949724" lon="11.655789033093756"><ele>34.0</ele><time>2026-04-18T09:38:00.001Z</time></trkpt><trkpt lat="45.37218824806977" lon="11.655873442395208"><ele>34.0</ele><time>2026-04-18T09:38:01.001Z</time></trkpt><trkpt lat="45.372017443745584" lon="11.655939500042251"><ele>33.333333333333336</ele><time>2026-04-18T09:38:02.001Z</time></trkpt><trkpt lat="45.371845328369886" lon="11.656042379365312"><ele>32.666666666666664</ele><time>2026-04-18T09:38:03.001Z</time></trkpt><trkpt lat="45.371674366349595" lon="11.656117559337078"><ele>32.0</ele><time>2026-04-18T09:38:04.001Z</time></trkpt><trkpt lat="45.371501057566874" lon="11.656185031316538"><ele>35.0</ele><time>2026-04-18T09:38:05.001Z</time></trkpt><trkpt lat="45.37131453425024" lon="11.656270825895284"><ele>38.0</ele><time>2026-04-18T09:38:06.001Z</time></trkpt><trkpt lat="45.37112509389598" lon="11.656359294069642"><ele>41.0</ele><time>2026-04-18T09:38:07.001Z</time></trkpt><trkpt lat="45.37093550028825" lon="11.656448963589709"><ele>41.0</ele><time>2026-04-18T09:38:08.001Z</time></trkpt><trkpt lat="45.370745087639655" lon="11.65654156723416"><ele>41.0</ele><time>2026-04-18T09:38:09.001Z</time></trkpt><trkpt lat="45.37055820318609" lon="11.656637355923847"><ele>41.0</ele><time>2026-04-18T09:38:10.001Z</time></trkpt><trkpt lat="45.37039152267319" lon="11.656746298684316"><ele>42.0</ele><time>2026-04-18T09:38:11.001Z</time></trkpt><trkpt lat="45.37023614296929" lon="11.656809183418085"><ele>43.0</ele><time>2026-04-18T09:38:12.001Z</time></trkpt><trkpt lat="45.37009490786918" lon="11.656873074812612"><ele>44.0</ele><time>2026-04-18T09:38:13.001Z</time></trkpt><trkpt lat="45.36997361467076" lon="11.656935660034632"><ele>45.0</ele><time>2026-04-18T09:38:14.001Z</time></trkpt><trkpt lat="45.369871029327655" lon="11.65700308663821"><ele>45.8</ele><time>2026-04-18T09:38:15.001Z</time></trkpt><trkpt lat="45.369814024993666" lon="11.657067500878975"><ele>46.6</ele><time>2026-04-18T09:38:16.001Z</time></trkpt><trkpt lat="45.36976847191979" lon="11.657191829639155"><ele>47.400000000000006</ele><time>2026-04-18T09:38:17.001Z</time></trkpt><trkpt lat="45.36973576184652" lon="11.657331546807267"><ele>48.2</ele><time>2026-04-18T09:38:18.001Z</time></trkpt><trkpt lat="45.3698120180204" lon="11.657506522614556"><ele>49.0</ele><time>2026-04-18T09:38:19.001Z</time></trkpt><trkpt lat="45.36988957995499" lon="11.65766942832726"><ele>52.33333333333333</ele><time>2026-04-18T09:38:20.001Z</time></trkpt><trkpt lat="45.36996476479039" lon="11.657873733930547"><ele>55.66666666666667</ele><time>2026-04-18T09:38:21.001Z</time></trkpt><trkpt lat="45.370081380924596" lon="11.658069976369458"><ele>59.0</ele><time>2026-04-18T09:38:22.001Z</time></trkpt><trkpt lat="45.3701840070516" lon="11.658214504808942"><ele>59.0</ele><time>2026-04-18T09:38:23.001Z</time></trkpt><trkpt lat="45.370260362882824" lon="11.658340149099807"><ele>59.0</ele><time>2026-04-18T09:38:24.001Z</time></trkpt><trkpt lat="45.37032483948527" lon="11.658484572705"><ele>59.0</ele><time>2026-04-18T09:38:25.001Z</time></trkpt><trkpt lat="45.370392545481" lon="11.658684106127359"><ele>59.0</ele><time>2026-04-18T09:38:26.001Z</time></trkpt><trkpt lat="45.37047338629522" lon="11.65891748434723"><ele>59.5</ele><time>2026-04-18T09:38:27.001Z</time></trkpt><trkpt lat="45.37056906463853" lon="11.659193662142023"><ele>60.0</ele><time>2026-04-18T09:38:28.001Z</time></trkpt><trkpt lat="45.370689997809336" lon="11.659492653567053"><ele>60.0</ele><time>2026-04-18T09:38:29.001Z</time></trkpt><trkpt lat="45.370793183517165" lon="11.659787578289363"><ele>60.0</ele><time>2026-04-18T09:38:30.001Z</time></trkpt><trkpt lat="45.370882912913004" lon="11.660040451068722"><ele>60.0</ele><time>2026-04-18T09:38:31.001Z</time></trkpt><trkpt lat="45.37094812007567" lon="11.660281492327337"><ele>62.66666666666667</ele><time>2026-04-18T09:38:32.001Z</time></trkpt><trkpt lat="45.37100809208329" lon="11.660496823898196"><ele>65.33333333333334</ele><time>2026-04-18T09:38:33.001Z</time></trkpt><trkpt lat="45.371067216037794" lon="11.660707679153477"><ele>68.0</ele><time>2026-04-18T09:38:34.001Z</time></trkpt><trkpt lat="45.37109600395887" lon="11.660943752114685"><ele>70.33333333333334</ele><time>2026-04-18T09:38:35.001Z</time></trkpt><trkpt lat="45.37110093139286" lon="11.661190999323596"><ele>72.66666666666667</ele><time>2026-04-18T09:38:36.001Z</time></trkpt><trkpt lat="45.371082392096895" lon="11.661443907532615"><ele>75.0</ele><time>2026-04-18T09:38:37.001Z</time></trkpt><trkpt lat="45.3710573600848" lon="11.661687755580811"><ele>75.0</ele><time>2026-04-18T09:38:38.001Z</time></trkpt><trkpt lat="45.371042291662874" lon="11.661900422967106"><ele>75.0</ele><time>2026-04-18T09:38:39.001Z</time></trkpt><trkpt lat="45.37102493059693" lon="11.66209115366302"><ele>75.0</ele><time>2026-04-18T09:38:40.001Z</time></trkpt><trkpt lat="45.37099035126353" lon="11.662253933584436"><ele>75.0</ele><time>2026-04-18T09:38:41.001Z</time></trkpt><trkpt lat="45.37093403092118" lon="11.662388331835556"><ele>75.6</ele><time>2026-04-18T09:38:42.001Z</time></trkpt><trkpt lat="45.37087691322211" lon="11.662495426555255"><ele>76.2</ele><time>2026-04-18T09:38:43.001Z</time></trkpt><trkpt lat="45.370881352101996" lon="11.66261132513082"><ele>76.8</ele><time>2026-04-18T09:38:44.001Z</time></trkpt><trkpt lat="45.37094334167632" lon="11.662697300536921"><ele>77.4</ele><time>2026-04-18T09:38:45.001Z</time></trkpt><trkpt lat="45.37103561873172" lon="11.66275966246254"><ele>78.0</ele><time>2026-04-18T09:38:46.001Z</time></trkpt><trkpt lat="45.37115702756653" lon="11.662685585180267"><ele>78.0</ele><time>2026-04-18T09:38:47.001Z</time></trkpt><trkpt lat="45.371287787780744" lon="11.66258734527021"><ele>78.0</ele><time>2026-04-18T09:38:48.001Z</time></trkpt><trkpt lat="45.37143789629225" lon="11.66252497996411"><ele>78.0</ele><time>2026-04-18T09:38:49.001Z</time></trkpt><trkpt lat="45.3715435817678" lon="11.662449944579196"><ele>78.0</ele><time>2026-04-18T09:38:50.001Z</time></trkpt><trkpt lat="45.371622744967695" lon="11.662428302229813"><ele>77.6</ele><time>2026-04-18T09:38:51.001Z</time></trkpt><trkpt lat="45.371688314543334" lon="11.662422974681402"><ele>77.19999999999999</ele><time>2026-04-18T09:38:52Z</time></trkpt><trkpt lat="45.37175273049985" lon="11.662492062387168"><ele>76.8</ele><time>2026-04-18T09:38:53Z</time></trkpt><trkpt lat="45.37183988000433" lon="11.66259327175912"><ele>76.39999999999999</ele><time>2026-04-18T09:38:54Z</time></trkpt><trkpt lat="45.37170913596942" lon="11.66249697214988"><ele>76.0</ele><time>2026-04-18T09:38:55Z</time></trkpt><trkpt lat="45.371672288004405" lon="11.662591599620393"><ele>76.0</ele><time>2026-04-18T09:38:56Z</time></trkpt><trkpt lat="45.371568242816544" lon="11.662613464097117"><ele>76.0</ele><time>2026-04-18T09:38:57Z</time></trkpt><trkpt lat="45.37144888148077" lon="11.662664288894744"><ele>76.0</ele><time>2026-04-18T09:38:58Z</time></trkpt><trkpt lat="45.371306594066915" lon="11.662775523461809"><ele>76.0</ele><time>2026-04-18T09:38:59Z</time></trkpt><trkpt lat="45.37115575789153" lon="11.6629394106347"><ele>80.0</ele><time>2026-04-18T09:39:00Z</time></trkpt><trkpt lat="45.37100981616029" lon="11.663070923838896"><ele>84.0</ele><time>2026-04-18T09:39:01Z</time></trkpt><trkpt lat="45.37085897016012" lon="11.663234315567934"><ele>88.0</ele><time>2026-04-18T09:39:02Z</time></trkpt><trkpt lat="45.3707336775706" lon="11.663417787448267"><ele>88.0</ele><time>2026-04-18T09:39:03Z</time></trkpt><trkpt lat="45.37064014812439" lon="11.66359492176606"><ele>88.0</ele><time>2026-04-18T09:39:04Z</time></trkpt><trkpt lat="45.370567390742316" lon="11.66375425127652"><ele>88.0</ele><time>2026-04-18T09:39:05Z</time></trkpt><trkpt lat="45.370509974378656" lon="11.663900117656853"><ele>88.0</ele><time>2026-04-18T09:39:06Z</time></trkpt><trkpt lat="45.37046568334515" lon="11.664036019159097"><ele>89.83333333333333</ele><time>2026-04-18T09:39:07Z</time></trkpt><trkpt lat="45.37042627081591" lon="11.66415379841475"><ele>91.66666666666666</ele><time>2026-04-18T09:39:08Z</time></trkpt><trkpt lat="45.37038705967212" lon="11.66424185122312"><ele>93.5</ele><time>2026-04-18T09:39:09Z</time></trkpt><trkpt lat="45.37032879851891" lon="11.664296668323278"><ele>95.33333333333333</ele><time>2026-04-18T09:39:10Z</time></trkpt><trkpt lat="45.37025727024369" lon="11.664327160181516"><ele>97.16666666666667</ele><time>2026-04-18T09:39:11Z</time></trkpt><trkpt lat="45.370158831566144" lon="11.664251789113067"><ele>99.0</ele><time>2026-04-18T09:39:12Z</time></trkpt><trkpt lat="45.37002041506491" lon="11.664195018053439"><ele>99.0</ele><time>2026-04-18T09:39:13Z</time></trkpt><trkpt lat="45.36989746755604" lon="11.664136257063777"><ele>99.0</ele><time>2026-04-18T09:39:14Z</time></trkpt><trkpt lat="45.36978423902479" lon="11.664066194040526"><ele>99.0</ele><time>2026-04-18T09:39:15Z</time></trkpt><trkpt lat="45.369686910338736" lon="11.663917026799327"><ele>99.0</ele><time>2026-04-18T09:39:16Z</time></trkpt><trkpt lat="45.36955403787713" lon="11.663702041245402"><ele>100.66666666666666</ele><time>2026-04-18T09:39:17Z</time></trkpt><trkpt lat="45.369433624300406" lon="11.663540158532415"><ele>102.33333333333333</ele><time>2026-04-18T09:39:18Z</time></trkpt><trkpt lat="45.369292606864825" lon="11.663429616185272"><ele>104.0</ele><time>2026-04-18T09:39:19Z</time></trkpt><trkpt lat="45.36913477564414" lon="11.663379709295674"><ele>104.0</ele><time>2026-04-18T09:39:20Z</time></trkpt><trkpt lat="45.36899561030404" lon="11.6633610871273"><ele>104.0</ele><time>2026-04-18T09:39:21Z</time></trkpt><trkpt lat="45.368878712522424" lon="11.663274171380662"><ele>104.0</ele><time>2026-04-18T09:39:22Z</time></trkpt><trkpt lat="45.36880084694272" lon="11.66310901615223"><ele>104.0</ele><time>2026-04-18T09:39:23Z</time></trkpt><trkpt lat="45.368749663389096" lon="11.662947077857098"><ele>104.80000000000001</ele><time>2026-04-18T09:39:24Z</time></trkpt><trkpt lat="45.36869771422335" lon="11.66282341810972"><ele>105.60000000000001</ele><time>2026-04-18T09:39:25Z</time></trkpt><trkpt lat="45.36861883654181" lon="11.662755118690368"><ele>106.4</ele><time>2026-04-18T09:39:26Z</time></trkpt><trkpt lat="45.36852622116216" lon="11.662705082291069"><ele>107.2</ele><time>2026-04-18T09:39:27Z</time></trkpt><trkpt lat="45.368421463673855" lon="11.662666219919505"><ele>108.0</ele><time>2026-04-18T09:39:28Z</time></trkpt><trkpt lat="45.36831370895789" lon="11.662630476485566"><ele>108.0</ele><time>2026-04-18T09:39:29Z</time></trkpt><trkpt lat="45.3682159439393" lon="11.662609381107563"><ele>108.00000000000001</ele><time>2026-04-18T09:39:30Z</time></trkpt><trkpt lat="45.368124998261145" lon="11.662621643470526"><ele>108.00000000000001</ele><time>2026-04-18T09:39:31Z</time></trkpt><trkpt lat="45.3680362661887" lon="11.66265746077006"><ele>108.0</ele><time>2026-04-18T09:39:32Z</time></trkpt><trkpt lat="45.36794400655847" lon="11.662708114185463"><ele>108.0</ele><time>2026-04-18T09:39:33Z</time></trkpt><trkpt lat="45.36783998713645" lon="11.66278502459848"><ele>112.25</ele><time>2026-04-18T09:39:34Z</time></trkpt><trkpt lat="45.36774065777561" lon="11.662910880863306"><ele>116.5</ele><time>2026-04-18T09:39:35Z</time></trkpt><trkpt lat="45.36767513907048" lon="11.66305929811022"><ele>120.75</ele><time>2026-04-18T09:39:36Z</time></trkpt><trkpt lat="45.36767507041068" lon="11.663219244377041"><ele>125.0</ele><time>2026-04-18T09:39:37Z</time></trkpt><trkpt lat="45.36769515460432" lon="11.663345153675849"><ele>125.0</ele><time>2026-04-18T09:39:38Z</time></trkpt><trkpt lat="45.367683800050216" lon="11.663491659558591"><ele>125.0</ele><time>2026-04-18T09:39:40Z</time></trkpt><trkpt lat="45.36761410403891" lon="11.663527621914374"><ele>125.0</ele><time>2026-04-18T09:39:41Z</time></trkpt><trkpt lat="45.367513329922836" lon="11.663471102821893"><ele>125.0</ele><time>2026-04-18T09:39:42Z</time></trkpt><trkpt lat="45.36739679204306" lon="11.66336834583007"><ele>125.0</ele><time>2026-04-18T09:39:43Z</time></trkpt><trkpt lat="45.36725734747223" lon="11.663225119170715"><ele>131.33333333333331</ele><time>2026-04-18T09:39:44Z</time></trkpt><trkpt lat="45.36710904926883" lon="11.663076710871797"><ele>137.66666666666666</ele><time>2026-04-18T09:39:45Z</time></trkpt><trkpt lat="45.36696088802425" lon="11.66293535548955"><ele>144.0</ele><time>2026-04-18T09:39:46Z</time></trkpt><trkpt lat="45.36681321206365" lon="11.662795278600088"><ele>143.75</ele><time>2026-04-18T09:39:47Z</time></trkpt><trkpt lat="45.36667858540745" lon="11.662660968761704"><ele>143.5</ele><time>2026-04-18T09:39:48Z</time></trkpt><trkpt lat="45.36656575056112" lon="11.66256888311488"><ele>143.25</ele><time>2026-04-18T09:39:49Z</time></trkpt><trkpt lat="45.366462250161554" lon="11.662495772246562"><ele>143.0</ele><time>2026-04-18T09:39:50Z</time></trkpt><trkpt lat="45.366360125649265" lon="11.662432294409243"><ele>143.0</ele><time>2026-04-18T09:39:51Z</time></trkpt><trkpt lat="45.36625311544617" lon="11.662352754885884"><ele>143.0</ele><time>2026-04-18T09:39:52Z</time></trkpt><trkpt lat="45.36613661209922" lon="11.662259356474584"><ele>143.0</ele><time>2026-04-18T09:39:53Z</time></trkpt><trkpt lat="45.36600815925721" lon="11.662179493434461"><ele>143.0</ele><time>2026-04-18T09:39:54Z</time></trkpt><trkpt lat="45.36587729638831" lon="11.662122514563464"><ele>143.0</ele><time>2026-04-18T09:39:55Z</time></trkpt><trkpt lat="45.36575207429425" lon="11.662089705710663"><ele>143.0</ele><time>2026-04-18T09:39:56Z</time></trkpt><trkpt lat="45.365631356325785" lon="11.662074163654545"><ele>143.0</ele><time>2026-04-18T09:39:57Z</time></trkpt><trkpt lat="45.365523949946635" lon="11.662076039962304"><ele>143.0</ele><time>2026-04-18T09:39:58Z</time></trkpt><trkpt lat="45.365439056653" lon="11.662118682046716"><ele>143.0</ele><time>2026-04-18T09:39:59.001Z</time></trkpt><trkpt lat="45.36538150115352" lon="11.662215041404966"><ele>143.0</ele><time>2026-04-18T09:40:00.001Z</time></trkpt><trkpt lat="45.36535381588476" lon="11.662332115211004"><ele>143.0</ele><time>2026-04-18T09:40:01.001Z</time></trkpt><trkpt lat="45.365374525072184" lon="11.662462951239727"><ele>143.0</ele><time>2026-04-18T09:40:02.001Z</time></trkpt><trkpt lat="45.36545207907919" lon="11.662570377554612"><ele>143.0</ele><time>2026-04-18T09:40:03.001Z</time></trkpt><trkpt lat="45.36555050841739" lon="11.662675963176525"><ele>143.0</ele><time>2026-04-18T09:40:04.001Z</time></trkpt><trkpt lat="45.36564035148927" lon="11.662817433903259"><ele>144.6</ele><time>2026-04-18T09:40:05.001Z</time></trkpt><trkpt lat="45.36572343815467" lon="11.662957570735449"><ele>146.20000000000002</ele><time>2026-04-18T09:40:06.001Z</time></trkpt><trkpt lat="45.3657881881478" lon="11.663097820547856"><ele>147.8</ele><time>2026-04-18T09:40:07.001Z</time></trkpt><trkpt lat="45.365838404487306" lon="11.66322105137159"><ele>149.4</ele><time>2026-04-18T09:40:08.001Z</time></trkpt><trkpt lat="45.365900528314945" lon="11.663335157759155"><ele>151.0</ele><time>2026-04-18T09:40:09.001Z</time></trkpt><trkpt lat="45.36596056808642" lon="11.663455321708833"><ele>151.0</ele><time>2026-04-18T09:40:10.001Z</time></trkpt><trkpt lat="45.36602660564158" lon="11.663571003940259"><ele>151.0</ele><time>2026-04-18T09:40:11.001Z</time></trkpt><trkpt lat="45.36608832162028" lon="11.663705968137418"><ele>151.0</ele><time>2026-04-18T09:40:12.001Z</time></trkpt><trkpt lat="45.366164935528644" lon="11.663816076578426"><ele>151.0</ele><time>2026-04-18T09:40:13.001Z</time></trkpt><trkpt lat="45.36620019039506" lon="11.663965397025208"><ele>151.0</ele><time>2026-04-18T09:40:14.001Z</time></trkpt><trkpt lat="45.36625089532044" lon="11.664110322862408"><ele>152.0</ele><time>2026-04-18T09:40:15.001Z</time></trkpt><trkpt lat="45.36631312102822" lon="11.664297853384479"><ele>153.0</ele><time>2026-04-18T09:40:16.001Z</time></trkpt><trkpt lat="45.36638622093688" lon="11.664518972163004"><ele>154.0</ele><time>2026-04-18T09:40:17.001Z</time></trkpt><trkpt lat="45.36647473668914" lon="11.66471100988419"><ele>152.75</ele><time>2026-04-18T09:40:18.001Z</time></trkpt><trkpt lat="45.36653016585252" lon="11.664891323428025"><ele>151.5</ele><time>2026-04-18T09:40:19.001Z</time></trkpt><trkpt lat="45.366575275531034" lon="11.665048320896226"><ele>150.25</ele><time>2026-04-18T09:40:20.001Z</time></trkpt><trkpt lat="45.36661134513915" lon="11.66519389329402"><ele>149.0</ele><time>2026-04-18T09:40:21.001Z</time></trkpt><trkpt lat="45.36667335637423" lon="11.665341467797434"><ele>149.0</ele><time>2026-04-18T09:40:22.001Z</time></trkpt><trkpt lat="45.3667189185076" lon="11.665492933182689"><ele>149.0</ele><time>2026-04-18T09:40:23.001Z</time></trkpt><trkpt lat="45.366775426933444" lon="11.665659305780931"><ele>149.0</ele><time>2026-04-18T09:40:24.001Z</time></trkpt><trkpt lat="45.3668391561549" lon="11.66584630719294"><ele>149.0</ele><time>2026-04-18T09:40:25.001Z</time></trkpt><trkpt lat="45.36690755113029" lon="11.666041026965653"><ele>148.5</ele><time>2026-04-18T09:40:26.001Z</time></trkpt><trkpt lat="45.36698195047341" lon="11.666221461130773"><ele>148.0</ele><time>2026-04-18T09:40:27.001Z</time></trkpt><trkpt lat="45.36708621719663" lon="11.666371205908867"><ele>147.5</ele><time>2026-04-18T09:40:28.001Z</time></trkpt><trkpt lat="45.36716729313462" lon="11.666547633497116"><ele>147.0</ele><time>2026-04-18T09:40:29.001Z</time></trkpt><trkpt lat="45.367279769255866" lon="11.666703000931134"><ele>147.0</ele><time>2026-04-18T09:40:30.001Z</time></trkpt><trkpt lat="45.36738093588419" lon="11.666914600169134"><ele>147.0</ele><time>2026-04-18T09:40:31.001Z</time></trkpt><trkpt lat="45.36751495069601" lon="11.667116068749104"><ele>147.0</ele><time>2026-04-18T09:40:32.001Z</time></trkpt><trkpt lat="45.36763553854465" lon="11.667331461367572"><ele>150.0</ele><time>2026-04-18T09:40:33.001Z</time></trkpt><trkpt lat="45.36774608259222" lon="11.667522095173155"><ele>153.0</ele><time>2026-04-18T09:40:34.001Z</time></trkpt><trkpt lat="45.36783032411144" lon="11.667706751975707"><ele>156.0</ele><time>2026-04-18T09:40:35.001Z</time></trkpt><trkpt lat="45.36792474142243" lon="11.667871838919995"><ele>155.5</ele><time>2026-04-18T09:40:36.001Z</time></trkpt><trkpt lat="45.36802859872254" lon="11.668002360380973"><ele>155.0</ele><time>2026-04-18T09:40:37.001Z</time></trkpt><trkpt lat="45.36813193192096" lon="11.668103244091455"><ele>154.5</ele><time>2026-04-18T09:40:38.001Z</time></trkpt><trkpt lat="45.36826204170597" lon="11.668151924572117"><ele>154.0</ele><time>2026-04-18T09:40:39.001Z</time></trkpt><trkpt lat="45.36840426152565" lon="11.668146898385903"><ele>154.0</ele><time>2026-04-18T09:40:40.001Z</time></trkpt><trkpt lat="45.36854304582433" lon="11.668080520837226"><ele>154.0</ele><time>2026-04-18T09:40:41.001Z</time></trkpt><trkpt lat="45.368674270775415" lon="11.66796652649049"><ele>154.0</ele><time>2026-04-18T09:40:42.001Z</time></trkpt><trkpt lat="45.368788133749064" lon="11.667891937554312"><ele>154.0</ele><time>2026-04-18T09:40:43.001Z</time></trkpt><trkpt lat="45.3688915616259" lon="11.667880541290286"><ele>153.0</ele><time>2026-04-18T09:40:44.001Z</time></trkpt><trkpt lat="45.36898806032149" lon="11.667861396834681"><ele>152.0</ele><time>2026-04-18T09:40:45.001Z</time></trkpt><trkpt lat="45.369081427805106" lon="11.667944194445953"><ele>151.0</ele><time>2026-04-18T09:40:46.001Z</time></trkpt><trkpt lat="45.369169163117505" lon="11.668014546056664"><ele>150.0</ele><time>2026-04-18T09:40:47.001Z</time></trkpt><trkpt lat="45.36925133370614" lon="11.66810429179966"><ele>149.0</ele><time>2026-04-18T09:40:48.001Z</time></trkpt><trkpt lat="45.36929943557469" lon="11.668254348950219"><ele>149.0</ele><time>2026-04-18T09:40:49.001Z</time></trkpt><trkpt lat="45.36937087523024" lon="11.668437686688506"><ele>149.0</ele><time>2026-04-18T09:40:50.001Z</time></trkpt><trkpt lat="45.369465603097744" lon="11.668670705208669"><ele>149.0</ele><time>2026-04-18T09:40:51.001Z</time></trkpt><trkpt lat="45.36956787895255" lon="11.668955181264502"><ele>148.0</ele><time>2026-04-18T09:40:52.001Z</time></trkpt><trkpt lat="45.369674466302044" lon="11.66923647253402"><ele>147.0</ele><time>2026-04-18T09:40:53.001Z</time></trkpt><trkpt lat="45.36976909854972" lon="11.669486802006086"><ele>146.0</ele><time>2026-04-18T09:40:54.001Z</time></trkpt><trkpt lat="45.369856001834066" lon="11.669721919600448"><ele>146.0</ele><time>2026-04-18T09:40:55.001Z</time></trkpt><trkpt lat="45.36993673724923" lon="11.669945754449248"><ele>146.0</ele><time>2026-04-18T09:40:56.001Z</time></trkpt><trkpt lat="45.370017251200615" lon="11.670155967079792"><ele>146.0</ele><time>2026-04-18T09:40:57.001Z</time></trkpt><trkpt lat="45.37009126438329" lon="11.670350818470657"><ele>146.0</ele><time>2026-04-18T09:40:58Z</time></trkpt><trkpt lat="45.37014673300302" lon="11.670549084598472"><ele>146.0</ele><time>2026-04-18T09:40:59Z</time></trkpt><trkpt lat="45.37019712502175" lon="11.67073376057524"><ele>146.0</ele><time>2026-04-18T09:41:00Z</time></trkpt><trkpt lat="45.37022258972175" lon="11.670915794894922"><ele>146.0</ele><time>2026-04-18T09:41:01Z</time></trkpt><trkpt lat="45.37023333513773" lon="11.671103149373314"><ele>146.0</ele><time>2026-04-18T09:41:02Z</time></trkpt><trkpt lat="45.370225895694986" lon="11.671304881647906"><ele>146.0</ele><time>2026-04-18T09:41:03Z</time></trkpt><trkpt lat="45.37018737281466" lon="11.671509320053058"><ele>146.0</ele><time>2026-04-18T09:41:04Z</time></trkpt><trkpt lat="45.37012943527356" lon="11.671716253014104"><ele>146.0</ele><time>2026-04-18T09:41:05Z</time></trkpt><trkpt lat="45.37003718718374" lon="11.671919655971552"><ele>144.0</ele><time>2026-04-18T09:41:06Z</time></trkpt><trkpt lat="45.36995530217434" lon="11.672134740007056"><ele>142.0</ele><time>2026-04-18T09:41:07Z</time></trkpt><trkpt lat="45.36986655784253" lon="11.672312085800101"><ele>140.0</ele><time>2026-04-18T09:41:08Z</time></trkpt><trkpt lat="45.369798924794466" lon="11.67249029650576"><ele>140.0</ele><time>2026-04-18T09:41:09Z</time></trkpt><trkpt lat="45.369764029502065" lon="11.672706621479644"><ele>140.0</ele><time>2026-04-18T09:41:10Z</time></trkpt><trkpt lat="45.369741421373064" lon="11.672952879996881"><ele>140.0</ele><time>2026-04-18T09:41:11Z</time></trkpt><trkpt lat="45.369716453548705" lon="11.673231133990415"><ele>144.0</ele><time>2026-04-18T09:41:12Z</time></trkpt><trkpt lat="45.36968529714832" lon="11.67353268567949"><ele>148.0</ele><time>2026-04-18T09:41:13Z</time></trkpt><trkpt lat="45.36965121737141" lon="11.673861860928652"><ele>152.0</ele><time>2026-04-18T09:41:14Z</time></trkpt><trkpt lat="45.36961995229179" lon="11.674176763104919"><ele>152.33333333333331</ele><time>2026-04-18T09:41:15Z</time></trkpt><trkpt lat="45.36958904783305" lon="11.674456844052674"><ele>152.66666666666666</ele><time>2026-04-18T09:41:16Z</time></trkpt><trkpt lat="45.369556183480505" lon="11.674715713416713"><ele>153.0</ele><time>2026-04-18T09:41:17Z</time></trkpt><trkpt lat="45.36952934593064" lon="11.674956544864235"><ele>153.0</ele><time>2026-04-18T09:41:18Z</time></trkpt><trkpt lat="45.36950477854731" lon="11.67518810505821"><ele>153.0</ele><time>2026-04-18T09:41:19Z</time></trkpt><trkpt lat="45.36948205656231" lon="11.675424221640677"><ele>153.0</ele><time>2026-04-18T09:41:20Z</time></trkpt><trkpt lat="45.36945098665165" lon="11.675675913732212"><ele>153.66666666666666</ele><time>2026-04-18T09:41:21Z</time></trkpt><trkpt lat="45.36942254455193" lon="11.675925771593253"><ele>154.33333333333331</ele><time>2026-04-18T09:41:22Z</time></trkpt><trkpt lat="45.36939279706804" lon="11.676166812805468"><ele>155.0</ele><time>2026-04-18T09:41:23Z</time></trkpt><trkpt lat="45.36936908440742" lon="11.676390405931063"><ele>155.0</ele><time>2026-04-18T09:41:24Z</time></trkpt><trkpt lat="45.369343041897" lon="11.676603216336735"><ele>155.0</ele><time>2026-04-18T09:41:25Z</time></trkpt><trkpt lat="45.36931605575496" lon="11.676794970801243"><ele>155.0</ele><time>2026-04-18T09:41:26Z</time></trkpt><trkpt lat="45.36927018122663" lon="11.676985683233013"><ele>155.0</ele><time>2026-04-18T09:41:27Z</time></trkpt><trkpt lat="45.36920261537435" lon="11.67716540056251"><ele>151.33333333333331</ele><time>2026-04-18T09:41:28Z</time></trkpt><trkpt lat="45.36915517960621" lon="11.677366543229518"><ele>147.66666666666666</ele><time>2026-04-18T09:41:29Z</time></trkpt><trkpt lat="45.36909031709917" lon="11.677577937667095"><ele>144.0</ele><time>2026-04-18T09:41:30Z</time></trkpt><trkpt lat="45.369017181968" lon="11.677807552585573"><ele>142.0</ele><time>2026-04-18T09:41:31Z</time></trkpt><trkpt lat="45.368944776221475" lon="11.678040079817546"><ele>140.0</ele><time>2026-04-18T09:41:32Z</time></trkpt><trkpt lat="45.368885639422295" lon="11.678289432450365"><ele>138.0</ele><time>2026-04-18T09:41:33Z</time></trkpt><trkpt lat="45.36884455230615" lon="11.67856040158924"><ele>142.66666666666666</ele><time>2026-04-18T09:41:34Z</time></trkpt><trkpt lat="45.368822448959165" lon="11.678847461771811"><ele>147.33333333333331</ele><time>2026-04-18T09:41:35Z</time></trkpt><trkpt lat="45.36880515377565" lon="11.679124395884893"><ele>152.0</ele><time>2026-04-18T09:41:36Z</time></trkpt><trkpt lat="45.36878902142931" lon="11.67937754509893"><ele>150.5</ele><time>2026-04-18T09:41:37Z</time></trkpt><trkpt lat="45.368776172410485" lon="11.679591977491931"><ele>149.0</ele><time>2026-04-18T09:41:38Z</time></trkpt><trkpt lat="45.36876306619994" lon="11.67979809419622"><ele>147.5</ele><time>2026-04-18T09:41:39Z</time></trkpt><trkpt lat="45.36874315214824" lon="11.679978876830408"><ele>146.0</ele><time>2026-04-18T09:41:40Z</time></trkpt><trkpt lat="45.36869785807315" lon="11.680140861642073"><ele>146.0</ele><time>2026-04-18T09:41:41Z</time></trkpt><trkpt lat="45.36862141170263" lon="11.680263567161251"><ele>146.0</ele><time>2026-04-18T09:41:42Z</time></trkpt><trkpt lat="45.36852960975214" lon="11.680365233355026"><ele>146.0</ele><time>2026-04-18T09:41:43Z</time></trkpt><trkpt lat="45.36841705012058" lon="11.680460045499785"><ele>146.0</ele><time>2026-04-18T09:41:44Z</time></trkpt><trkpt lat="45.36829235295749" lon="11.680582482221006"><ele>143.33333333333331</ele><time>2026-04-18T09:41:45Z</time></trkpt><trkpt lat="45.36815121957966" lon="11.680696519143012"><ele>140.66666666666666</ele><time>2026-04-18T09:41:46Z</time></trkpt><trkpt lat="45.368013368987704" lon="11.680829141806564"><ele>138.0</ele><time>2026-04-18T09:41:47Z</time></trkpt><trkpt lat="45.36787387573545" lon="11.680974524911889"><ele>133.66666666666666</ele><time>2026-04-18T09:41:48Z</time></trkpt><trkpt lat="45.367762740491074" lon="11.681171422901134"><ele>129.33333333333331</ele><time>2026-04-18T09:41:49Z</time></trkpt><trkpt lat="45.367631778266336" lon="11.681357340686507"><ele>125.0</ele><time>2026-04-18T09:41:50Z</time></trkpt><trkpt lat="45.367517351827416" lon="11.68154851594136"><ele>125.0</ele><time>2026-04-18T09:41:51Z</time></trkpt><trkpt lat="45.36741186601939" lon="11.681725228550539"><ele>125.0</ele><time>2026-04-18T09:41:52Z</time></trkpt><trkpt lat="45.36728894599443" lon="11.681860517268879"><ele>125.0</ele><time>2026-04-18T09:41:53Z</time></trkpt><trkpt lat="45.3671501887211" lon="11.681969073298866"><ele>122.33333333333333</ele><time>2026-04-18T09:41:54Z</time></trkpt><trkpt lat="45.36699654455323" lon="11.682056446990718"><ele>119.66666666666666</ele><time>2026-04-18T09:41:55Z</time></trkpt><trkpt lat="45.366829807882866" lon="11.682141513798381"><ele>117.0</ele><time>2026-04-18T09:41:56Z</time></trkpt><trkpt lat="45.366653557104115" lon="11.68224523790823"><ele>117.0</ele><time>2026-04-18T09:41:57Z</time></trkpt><trkpt lat="45.36646694554108" lon="11.682410897956983"><ele>117.0</ele><time>2026-04-18T09:41:58Z</time></trkpt><trkpt lat="45.36627118303887" lon="11.682605704476092"><ele>115.5</ele><time>2026-04-18T09:41:59Z</time></trkpt><trkpt lat="45.36611444998086" lon="11.682878390085243"><ele>114.0</ele><time>2026-04-18T09:42:00Z</time></trkpt><trkpt lat="45.36595984425333" lon="11.683105181859315"><ele>114.0</ele><time>2026-04-18T09:42:01Z</time></trkpt><trkpt lat="45.36580588545586" lon="11.683310513470552"><ele>114.0</ele><time>2026-04-18T09:42:02Z</time></trkpt><trkpt lat="45.365661315203305" lon="11.683497383512764"><ele>114.0</ele><time>2026-04-18T09:42:03Z</time></trkpt><trkpt lat="45.365530127761744" lon="11.683666565031286"><ele>113.25</ele><time>2026-04-18T09:42:04.001Z</time></trkpt><trkpt lat="45.36541169000885" lon="11.68381645732969"><ele>112.5</ele><time>2026-04-18T09:42:05.001Z</time></trkpt><trkpt lat="45.36530166795992" lon="11.683956588515759"><ele>111.75</ele><time>2026-04-18T09:42:06.001Z</time></trkpt><trkpt lat="45.365201268678774" lon="11.6840879006547"><ele>111.0</ele><time>2026-04-18T09:42:07.001Z</time></trkpt><trkpt lat="45.36511540179964" lon="11.684202591814579"><ele>111.0</ele><time>2026-04-18T09:42:08.001Z</time></trkpt><trkpt lat="45.365050711910236" lon="11.684305807116694"><ele>111.0</ele><time>2026-04-18T09:42:09.001Z</time></trkpt><trkpt lat="45.36502853834132" lon="11.684411543740596"><ele>111.0</ele><time>2026-04-18T09:42:10.001Z</time></trkpt><trkpt lat="45.36504440680284" lon="11.684519660881687"><ele>111.0</ele><time>2026-04-18T09:42:11.001Z</time></trkpt><trkpt lat="45.36513391364805" lon="11.684592724979938"><ele>111.0</ele><time>2026-04-18T09:42:12.001Z</time></trkpt><trkpt lat="45.365228568254174" lon="11.68461436521687"><ele>111.0</ele><time>2026-04-18T09:42:13.001Z</time></trkpt><trkpt lat="45.36532946920296" lon="11.6845048213855"><ele>111.0</ele><time>2026-04-18T09:42:14.001Z</time></trkpt><trkpt lat="45.36546365917963" lon="11.684378515418421"><ele>111.0</ele><time>2026-04-18T09:42:15.001Z</time></trkpt><trkpt lat="45.36558813052508" lon="11.684254129553395"><ele>111.0</ele><time>2026-04-18T09:42:16.001Z</time></trkpt><trkpt lat="45.365645128787776" lon="11.684197170226367"><ele>110.0</ele><time>2026-04-18T09:42:17.001Z</time></trkpt><trkpt lat="45.36571287440527" lon="11.6841432705882"><ele>109.0</ele><time>2026-04-18T09:42:18.001Z</time></trkpt><trkpt lat="45.365824223091735" lon="11.68418189035201"><ele>108.0</ele><time>2026-04-18T09:42:20.001Z</time></trkpt><trkpt lat="45.365853410414" lon="11.684305931758978"><ele>107.0</ele><time>2026-04-18T09:42:21.001Z</time></trkpt><trkpt lat="45.3658106842651" lon="11.684456380834357"><ele>106.0</ele><time>2026-04-18T09:42:22.001Z</time></trkpt><trkpt lat="45.365711079193844" lon="11.68463256588946"><ele>105.66666666666667</ele><time>2026-04-18T09:42:23.001Z</time></trkpt><trkpt lat="45.36557708870103" lon="11.68484483210798"><ele>105.33333333333334</ele><time>2026-04-18T09:42:24.001Z</time></trkpt><trkpt lat="45.365445941913485" lon="11.685063665160504"><ele>105.0</ele><time>2026-04-18T09:42:25.001Z</time></trkpt><trkpt lat="45.36538183314665" lon="11.685229368145675"><ele>102.25</ele><time>2026-04-18T09:42:26.001Z</time></trkpt><trkpt lat="45.36529977793274" lon="11.685381404529524"><ele>99.5</ele><time>2026-04-18T09:42:27.001Z</time></trkpt><trkpt lat="45.36522556638437" lon="11.685533272337441"><ele>96.75</ele><time>2026-04-18T09:42:28.001Z</time></trkpt><trkpt lat="45.3651336834308" lon="11.685661479109918"><ele>94.0</ele><time>2026-04-18T09:42:29.001Z</time></trkpt><trkpt lat="45.36501004942502" lon="11.685772903124688"><ele>94.0</ele><time>2026-04-18T09:42:30.001Z</time></trkpt><trkpt lat="45.36484213841877" lon="11.685848703627352"><ele>94.0</ele><time>2026-04-18T09:42:31.001Z</time></trkpt><trkpt lat="45.364623107964135" lon="11.6858638781346"><ele>94.0</ele><time>2026-04-18T09:42:32.001Z</time></trkpt><trkpt lat="45.364413512797654" lon="11.685921700994397"><ele>92.0</ele><time>2026-04-18T09:42:33.001Z</time></trkpt><trkpt lat="45.36422278582705" lon="11.685970118818236"><ele>90.0</ele><time>2026-04-18T09:42:34.001Z</time></trkpt><trkpt lat="45.36403674379099" lon="11.685991817453774"><ele>88.0</ele><time>2026-04-18T09:42:35.001Z</time></trkpt><trkpt lat="45.36386228133901" lon="11.685992910400884"><ele>86.0</ele><time>2026-04-18T09:42:36.001Z</time></trkpt><trkpt lat="45.36370925473085" lon="11.686002106159396"><ele>84.0</ele><time>2026-04-18T09:42:37.001Z</time></trkpt><trkpt lat="45.36358965875665" lon="11.686008600823962"><ele>82.0</ele><time>2026-04-18T09:42:38.001Z</time></trkpt><trkpt lat="45.363484845876705" lon="11.686020239862845"><ele>80.0</ele><time>2026-04-18T09:42:39.001Z</time></trkpt><trkpt lat="45.36340073481187" lon="11.68607601559999"><ele>78.5</ele><time>2026-04-18T09:42:40.001Z</time></trkpt><trkpt lat="45.36335815125088" lon="11.686202558917772"><ele>77.0</ele><time>2026-04-18T09:42:41.001Z</time></trkpt><trkpt lat="45.36334108024109" lon="11.686350491533208"><ele>75.5</ele><time>2026-04-18T09:42:42.001Z</time></trkpt><trkpt lat="45.363384018303385" lon="11.686507275783072"><ele>74.0</ele><time>2026-04-18T09:42:43.001Z</time></trkpt><trkpt lat="45.36348696731219" lon="11.686676242894201"><ele>74.0</ele><time>2026-04-18T09:42:44.001Z</time></trkpt><trkpt lat="45.363589107708" lon="11.686846865072232"><ele>74.0</ele><time>2026-04-18T09:42:45.001Z</time></trkpt><trkpt lat="45.36369759233162" lon="11.686972445821661"><ele>74.0</ele><time>2026-04-18T09:42:46.001Z</time></trkpt><trkpt lat="45.363825497853796" lon="11.68705703362046"><ele>74.0</ele><time>2026-04-18T09:42:47.001Z</time></trkpt><trkpt lat="45.36398060151736" lon="11.687080448232239"><ele>69.66666666666667</ele><time>2026-04-18T09:42:48.001Z</time></trkpt><trkpt lat="45.36417081206093" lon="11.68707140227464"><ele>65.33333333333333</ele><time>2026-04-18T09:42:49.001Z</time></trkpt><trkpt lat="45.364376110693996" lon="11.68710157512016"><ele>61.0</ele><time>2026-04-18T09:42:50.001Z</time></trkpt><trkpt lat="45.36455286190077" lon="11.68709180073532"><ele>60.75</ele><time>2026-04-18T09:42:51.001Z</time></trkpt><trkpt lat="45.364703623697366" lon="11.687102040896283"><ele>60.5</ele><time>2026-04-18T09:42:52.001Z</time></trkpt><trkpt lat="45.36484713926152" lon="11.687131228092468"><ele>60.25</ele><time>2026-04-18T09:42:53.001Z</time></trkpt><trkpt lat="45.36498313704139" lon="11.687203449901485"><ele>60.0</ele><time>2026-04-18T09:42:54.001Z</time></trkpt><trkpt lat="45.36511749537105" lon="11.687328595971449"><ele>60.0</ele><time>2026-04-18T09:42:55.001Z</time></trkpt><trkpt lat="45.365236315357166" lon="11.68752563517445"><ele>60.0</ele><time>2026-04-18T09:42:56.001Z</time></trkpt><trkpt lat="45.36535419385689" lon="11.68767519710424"><ele>60.0</ele><time>2026-04-18T09:42:57.001Z</time></trkpt><trkpt lat="45.365458496916645" lon="11.687813686931833"><ele>57.66666666666667</ele><time>2026-04-18T09:42:58.001Z</time></trkpt><trkpt lat="45.36555610615952" lon="11.687990842401602"><ele>55.333333333333336</ele><time>2026-04-18T09:42:59.001Z</time></trkpt><trkpt lat="45.365641350602345" lon="11.68821458376607"><ele>53.0</ele><time>2026-04-18T09:43:00.001Z</time></trkpt><trkpt lat="45.365729409865274" lon="11.688407874534702"><ele>50.5</ele><time>2026-04-18T09:43:01.001Z</time></trkpt><trkpt lat="45.36579009667275" lon="11.688610180653503"><ele>48.0</ele><time>2026-04-18T09:43:02.001Z</time></trkpt><trkpt lat="45.365854539817775" lon="11.688782307590202"><ele>45.5</ele><time>2026-04-18T09:43:03.001Z</time></trkpt><trkpt lat="45.36591735864939" lon="11.688916549437142"><ele>43.0</ele><time>2026-04-18T09:43:04Z</time></trkpt><trkpt lat="45.36600881912399" lon="11.689015852781651"><ele>43.0</ele><time>2026-04-18T09:43:05Z</time></trkpt><trkpt lat="45.36613714148595" lon="11.689035722334216"><ele>43.0</ele><time>2026-04-18T09:43:06Z</time></trkpt><trkpt lat="45.36626746077849" lon="11.688987724189461"><ele>43.0</ele><time>2026-04-18T09:43:07Z</time></trkpt><trkpt lat="45.36639449392366" lon="11.68888216513315"><ele>43.0</ele><time>2026-04-18T09:43:08Z</time></trkpt><trkpt lat="45.366528552386356" lon="11.688738493341498"><ele>41.66666666666667</ele><time>2026-04-18T09:43:09Z</time></trkpt><trkpt lat="45.36661737289976" lon="11.688664341291089"><ele>40.333333333333336</ele><time>2026-04-18T09:43:10Z</time></trkpt><trkpt lat="45.36667111608705" lon="11.68856183856137"><ele>39.0</ele><time>2026-04-18T09:43:11Z</time></trkpt><trkpt lat="45.36672119514355" lon="11.68847303196062"><ele>37.666666666666664</ele><time>2026-04-18T09:43:12Z</time></trkpt><trkpt lat="45.366774761682734" lon="11.688399876882718"><ele>36.33333333333333</ele><time>2026-04-18T09:43:13Z</time></trkpt><trkpt lat="45.366825964773405" lon="11.688342862599464"><ele>35.0</ele><time>2026-04-18T09:43:14Z</time></trkpt><trkpt lat="45.366898394630944" lon="11.688384878321394"><ele>35.0</ele><time>2026-04-18T09:43:15Z</time></trkpt><trkpt lat="45.36695119474026" lon="11.688458721362323"><ele>35.0</ele><time>2026-04-18T09:43:16Z</time></trkpt><trkpt lat="45.36700009755357" lon="11.688537250587133"><ele>35.0</ele><time>2026-04-18T09:43:17Z</time></trkpt><trkpt lat="45.36684272383104" lon="11.68853223675208"><ele>35.0</ele><time>2026-04-18T09:43:18Z</time></trkpt><trkpt lat="45.366770778428425" lon="11.68861511392363"><ele>35.0</ele><time>2026-04-18T09:43:19Z</time></trkpt><trkpt lat="45.366717806535895" lon="11.688699172098804"><ele>35.0</ele><time>2026-04-18T09:43:20Z</time></trkpt><trkpt lat="45.36671186443863" lon="11.688791478897434"><ele>35.0</ele><time>2026-04-18T09:43:21Z</time></trkpt><trkpt lat="45.36675347281705" lon="11.688866470615453"><ele>35.0</ele><time>2026-04-18T09:43:22Z</time></trkpt><trkpt lat="45.366826605704325" lon="11.688866749034698"><ele>35.0</ele><time>2026-04-18T09:43:23Z</time></trkpt><trkpt lat="45.36688295440806" lon="11.68879476375269"><ele>35.0</ele><time>2026-04-18T09:43:24Z</time></trkpt><trkpt lat="45.366911468237156" lon="11.68869947709909"><ele>35.0</ele><time>2026-04-18T09:43:25Z</time></trkpt><trkpt lat="45.36693788196012" lon="11.688613143800278"><ele>35.0</ele><time>2026-04-18T09:43:26Z</time></trkpt><trkpt lat="45.36703942975499" lon="11.688637370429667"><ele>35.0</ele><time>2026-04-18T09:43:28Z</time></trkpt><trkpt lat="45.36704874372285" lon="11.68874568863515"><ele>35.0</ele><time>2026-04-18T09:43:29Z</time></trkpt><trkpt lat="45.366997260878286" lon="11.688851294594144"><ele>35.0</ele><time>2026-04-18T09:43:30Z</time></trkpt><trkpt lat="45.366901973478186" lon="11.68895784534884"><ele>35.0</ele><time>2026-04-18T09:43:31Z</time></trkpt><trkpt lat="45.366786542953655" lon="11.689060874738658"><ele>35.0</ele><time>2026-04-18T09:43:32Z</time></trkpt><trkpt lat="45.366685458569115" lon="11.689179860709837"><ele>35.0</ele><time>2026-04-18T09:43:33Z</time></trkpt><trkpt lat="45.366620208963994" lon="11.689336295336348"><ele>35.0</ele><time>2026-04-18T09:43:34Z</time></trkpt><trkpt lat="45.36657816864504" lon="11.68954146407395"><ele>35.0</ele><time>2026-04-18T09:43:35Z</time></trkpt><trkpt lat="45.366542611617305" lon="11.689767474221776"><ele>35.0</ele><time>2026-04-18T09:43:36Z</time></trkpt><trkpt lat="45.366504610341515" lon="11.689959191576826"><ele>32.0</ele><time>2026-04-18T09:43:37Z</time></trkpt><trkpt lat="45.366481128087365" lon="11.69015693052811"><ele>29.0</ele><time>2026-04-18T09:43:38Z</time></trkpt><trkpt lat="45.366480248381436" lon="11.69037072235189"><ele>26.0</ele><time>2026-04-18T09:43:39Z</time></trkpt><trkpt lat="45.36649719887999" lon="11.690577913818396"><ele>23.0</ele><time>2026-04-18T09:43:40Z</time></trkpt><trkpt lat="45.366515183260894" lon="11.690775231694774"><ele>21.25</ele><time>2026-04-18T09:43:41Z</time></trkpt><trkpt lat="45.36654330399367" lon="11.690964348209114"><ele>19.5</ele><time>2026-04-18T09:43:42Z</time></trkpt><trkpt lat="45.36656194930232" lon="11.691165394068088"><ele>17.75</ele><time>2026-04-18T09:43:43Z</time></trkpt><trkpt lat="45.36656784472252" lon="11.691376208921787"><ele>16.0</ele><time>2026-04-18T09:43:44Z</time></trkpt><trkpt lat="45.36652670596822" lon="11.6915882388046"><ele>14.666666666666666</ele><time>2026-04-18T09:43:45Z</time></trkpt><trkpt lat="45.36648504375513" lon="11.691822110356561"><ele>13.333333333333332</ele><time>2026-04-18T09:43:46Z</time></trkpt><trkpt lat="45.366430414861455" lon="11.692080105215004"><ele>12.0</ele><time>2026-04-18T09:43:47Z</time></trkpt><trkpt lat="45.36637298039946" lon="11.692350895359722"><ele>12.0</ele><time>2026-04-18T09:43:48Z</time></trkpt><trkpt lat="45.36632912622894" lon="11.692622575491114"><ele>12.0</ele><time>2026-04-18T09:43:49Z</time></trkpt><trkpt lat="45.366263405142064" lon="11.692896022826647"><ele>12.0</ele><time>2026-04-18T09:43:50Z</time></trkpt><trkpt lat="45.366212078596575" lon="11.693140912831954"><ele>12.333333333333332</ele><time>2026-04-18T09:43:51Z</time></trkpt><trkpt lat="45.366167050846286" lon="11.693370130959801"><ele>12.666666666666666</ele><time>2026-04-18T09:43:52Z</time></trkpt><trkpt lat="45.366132613328226" lon="11.693594951524327"><ele>13.0</ele><time>2026-04-18T09:43:53Z</time></trkpt><trkpt lat="45.36610195030329" lon="11.693822022818228"><ele>13.0</ele><time>2026-04-18T09:43:54Z</time></trkpt><trkpt lat="45.36607393448319" lon="11.694062797712851"><ele>13.0</ele><time>2026-04-18T09:43:55Z</time></trkpt><trkpt lat="45.366051467536565" lon="11.69432116894889"><ele>13.0</ele><time>2026-04-18T09:43:56Z</time></trkpt><trkpt lat="45.36603535463778" lon="11.694608330116257"><ele>13.0</ele><time>2026-04-18T09:43:57Z</time></trkpt><trkpt lat="45.366014134345725" lon="11.694904515946591"><ele>13.0</ele><time>2026-04-18T09:43:58.001Z</time></trkpt><trkpt lat="45.365994747718865" lon="11.695210438173737"><ele>13.0</ele><time>2026-04-18T09:43:59.001Z</time></trkpt><trkpt lat="45.3659807028511" lon="11.695511970041247"><ele>12.333333333333332</ele><time>2026-04-18T09:44:00.001Z</time></trkpt><trkpt lat="45.36596870585434" lon="11.69580541935043"><ele>11.666666666666666</ele><time>2026-04-18T09:44:01.001Z</time></trkpt><trkpt lat="45.36595352264992" lon="11.696082446327999"><ele>11.0</ele><time>2026-04-18T09:44:02.001Z</time></trkpt><trkpt lat="45.365937904913054" lon="11.696353191216648"><ele>11.0</ele><time>2026-04-18T09:44:03.001Z</time></trkpt><trkpt lat="45.36592111669978" lon="11.696620439563443"><ele>11.0</ele><time>2026-04-18T09:44:04.001Z</time></trkpt><trkpt lat="45.365907636766686" lon="11.696885946256714"><ele>11.0</ele><time>2026-04-18T09:44:05.001Z</time></trkpt><trkpt lat="45.36589644216855" lon="11.697148792270097"><ele>11.666666666666666</ele><time>2026-04-18T09:44:06.001Z</time></trkpt><trkpt lat="45.365884144905436" lon="11.697424895401802"><ele>12.333333333333332</ele><time>2026-04-18T09:44:07.001Z</time></trkpt><trkpt lat="45.36588685465602" lon="11.697707265232339"><ele>13.0</ele><time>2026-04-18T09:44:08.001Z</time></trkpt><trkpt lat="45.365894945518136" lon="11.697978306605755"><ele>13.0</ele><time>2026-04-18T09:44:09.001Z</time></trkpt><trkpt lat="45.36589281760501" lon="11.69824137419903"><ele>13.0</ele><time>2026-04-18T09:44:10.001Z</time></trkpt><trkpt lat="45.365883444298845" lon="11.69848912948061"><ele>13.0</ele><time>2026-04-18T09:44:11.001Z</time></trkpt><trkpt lat="45.36587912420728" lon="11.698733445147738"><ele>13.0</ele><time>2026-04-18T09:44:12.001Z</time></trkpt><trkpt lat="45.36588491672086" lon="11.698978453884"><ele>13.0</ele><time>2026-04-18T09:44:13.001Z</time></trkpt><trkpt lat="45.36588606850003" lon="11.699220367069874"><ele>13.0</ele><time>2026-04-18T09:44:14.001Z</time></trkpt><trkpt lat="45.36588795418454" lon="11.69946409266565"><ele>13.333333333333332</ele><time>2026-04-18T09:44:15.001Z</time></trkpt><trkpt lat="45.36589044853277" lon="11.699715091618714"><ele>13.666666666666668</ele><time>2026-04-18T09:44:16.001Z</time></trkpt><trkpt lat="45.36589039442082" lon="11.69995386884674"><ele>14.0</ele><time>2026-04-18T09:44:17.001Z</time></trkpt><trkpt lat="45.36588486835049" lon="11.700191495779253"><ele>14.333333333333334</ele><time>2026-04-18T09:44:18.001Z</time></trkpt><trkpt lat="45.365881445789775" lon="11.700428959793465"><ele>14.666666666666668</ele><time>2026-04-18T09:44:19.001Z</time></trkpt><trkpt lat="45.365879106682684" lon="11.700668599762897"><ele>15.0</ele><time>2026-04-18T09:44:20.001Z</time></trkpt><trkpt lat="45.3658794057848" lon="11.700917608943605"><ele>14.333333333333332</ele><time>2026-04-18T09:44:21.001Z</time></trkpt><trkpt lat="45.36588863151403" lon="11.70117638223685"><ele>13.666666666666666</ele><time>2026-04-18T09:44:22.001Z</time></trkpt><trkpt lat="45.3658950396353" lon="11.701425105633202"><ele>13.0</ele><time>2026-04-18T09:44:23.001Z</time></trkpt><trkpt lat="45.36591466288105" lon="11.701666599598862"><ele>13.0</ele><time>2026-04-18T09:44:24.001Z</time></trkpt><trkpt lat="45.36593450092104" lon="11.70188718806933"><ele>13.0</ele><time>2026-04-18T09:44:25.001Z</time></trkpt><trkpt lat="45.365949091382696" lon="11.702097968780624"><ele>13.0</ele><time>2026-04-18T09:44:26.001Z</time></trkpt><trkpt lat="45.36595596612949" lon="11.702310552447075"><ele>13.0</ele><time>2026-04-18T09:44:27.001Z</time></trkpt><trkpt lat="45.36596911218972" lon="11.702532756375321"><ele>13.0</ele><time>2026-04-18T09:44:28.001Z</time></trkpt><trkpt lat="45.36598104543048" lon="11.702762454539563"><ele>13.0</ele><time>2026-04-18T09:44:29.001Z</time></trkpt><trkpt lat="45.36599277968315" lon="11.702997283796776"><ele>13.0</ele><time>2026-04-18T09:44:30.001Z</time></trkpt><trkpt lat="45.366009223201225" lon="11.70322966288039"><ele>13.0</ele><time>2026-04-18T09:44:31.001Z</time></trkpt><trkpt lat="45.36602863206641" lon="11.703452328304078"><ele>13.0</ele><time>2026-04-18T09:44:32.001Z</time></trkpt><trkpt lat="45.366052783201106" lon="11.703673770666855"><ele>13.0</ele><time>2026-04-18T09:44:33.001Z</time></trkpt><trkpt lat="45.36608940045556" lon="11.703901313007009"><ele>13.0</ele><time>2026-04-18T09:44:34.001Z</time></trkpt><trkpt lat="45.36613814030085" lon="11.704128229867296"><ele>13.0</ele><time>2026-04-18T09:44:35.001Z</time></trkpt><trkpt lat="45.36618789330316" lon="11.704357824520228"><ele>13.333333333333332</ele><time>2026-04-18T09:44:36.001Z</time></trkpt><trkpt lat="45.366232441632874" lon="11.704578957846138"><ele>13.666666666666668</ele><time>2026-04-18T09:44:37.001Z</time></trkpt><trkpt lat="45.36627066040136" lon="11.704786452494933"><ele>14.0</ele><time>2026-04-18T09:44:38.001Z</time></trkpt><trkpt lat="45.36630554326517" lon="11.704980154350508"><ele>14.0</ele><time>2026-04-18T09:44:39.001Z</time></trkpt><trkpt lat="45.36633613478389" lon="11.705175899024285"><ele>14.0</ele><time>2026-04-18T09:44:40.001Z</time></trkpt><trkpt lat="45.366368533600685" lon="11.705358759851663"><ele>14.0</ele><time>2026-04-18T09:44:41.001Z</time></trkpt><trkpt lat="45.366391371945774" lon="11.70552842895945"><ele>14.0</ele><time>2026-04-18T09:44:42.001Z</time></trkpt><trkpt lat="45.36640136576893" lon="11.705705415688511"><ele>13.75</ele><time>2026-04-18T09:44:43.001Z</time></trkpt><trkpt lat="45.36637912769004" lon="11.705880114886789"><ele>13.5</ele><time>2026-04-18T09:44:44.001Z</time></trkpt><trkpt lat="45.366368312694405" lon="11.70607270034146"><ele>13.25</ele><time>2026-04-18T09:44:45.001Z</time></trkpt><trkpt lat="45.36634133203038" lon="11.706269368959674"><ele>13.0</ele><time>2026-04-18T09:44:46.001Z</time></trkpt><trkpt lat="45.36631662776528" lon="11.706455709702675"><ele>13.499999999999998</ele><time>2026-04-18T09:44:47.001Z</time></trkpt><trkpt lat="45.3663026680379" lon="11.706617504306845"><ele>14.0</ele><time>2026-04-18T09:44:48.001Z</time></trkpt><trkpt lat="45.3662892297395" lon="11.706753236509666"><ele>14.5</ele><time>2026-04-18T09:44:49.001Z</time></trkpt><trkpt lat="45.36627218745388" lon="11.706873115071776"><ele>15.0</ele><time>2026-04-18T09:44:50.001Z</time></trkpt><trkpt lat="45.36624214775876" lon="11.70695347950447"><ele>15.499999999999998</ele><time>2026-04-18T09:44:51.001Z</time></trkpt><trkpt lat="45.3661940341536" lon="11.707015589813647"><ele>16.0</ele><time>2026-04-18T09:44:53.001Z</time></trkpt><trkpt lat="45.366137775716744" lon="11.707091739360244"><ele>16.400000000000002</ele><time>2026-04-18T09:45:00.001Z</time></trkpt><trkpt lat="45.36608306980573" lon="11.70717441573789"><ele>16.8</ele><time>2026-04-18T09:45:01.001Z</time></trkpt><trkpt lat="45.366000377427035" lon="11.707262646298435"><ele>17.200000000000003</ele><time>2026-04-18T09:45:02.001Z</time></trkpt><trkpt lat="45.365903991627576" lon="11.707346698300197"><ele>17.6</ele><time>2026-04-18T09:45:03.001Z</time></trkpt><trkpt lat="45.36579266629609" lon="11.70744609996273"><ele>18.0</ele><time>2026-04-18T09:45:04.001Z</time></trkpt><trkpt lat="45.36563014630689" lon="11.707585390536021"><ele>17.0</ele><time>2026-04-18T09:45:05.001Z</time></trkpt><trkpt lat="45.36543370713296" lon="11.707746603283585"><ele>16.0</ele><time>2026-04-18T09:45:06.001Z</time></trkpt><trkpt lat="45.36523460459218" lon="11.707871483262272"><ele>15.0</ele><time>2026-04-18T09:45:07.001Z</time></trkpt><trkpt lat="45.36506206732047" lon="11.707918819715466"><ele>15.0</ele><time>2026-04-18T09:45:08.001Z</time></trkpt><trkpt lat="45.36492477450892" lon="11.707940354704446"><ele>15.0</ele><time>2026-04-18T09:45:09.001Z</time></trkpt><trkpt lat="45.36483040920464" lon="11.707874752589076"><ele>15.0</ele><time>2026-04-18T09:45:10Z</time></trkpt><trkpt lat="45.36471405918911" lon="11.707807511146624"><ele>15.0</ele><time>2026-04-18T09:45:11Z</time></trkpt><trkpt lat="45.36454968426861" lon="11.707715935415322"><ele>19.5</ele><time>2026-04-18T09:45:12Z</time></trkpt><trkpt lat="45.36433944041067" lon="11.707589828313369"><ele>24.0</ele><time>2026-04-18T09:45:13Z</time></trkpt><trkpt lat="45.364111676598725" lon="11.707450142023411"><ele>24.0</ele><time>2026-04-18T09:45:14Z</time></trkpt><trkpt lat="45.363902801704356" lon="11.707320634858274"><ele>24.0</ele><time>2026-04-18T09:45:15Z</time></trkpt><trkpt lat="45.36368431971971" lon="11.707215714656547"><ele>20.0</ele><time>2026-04-18T09:45:16Z</time></trkpt><trkpt lat="45.363448115426024" lon="11.707141098340449"><ele>16.0</ele><time>2026-04-18T09:45:17Z</time></trkpt><trkpt lat="45.36323221885513" lon="11.707084835808885"><ele>16.0</ele><time>2026-04-18T09:45:18Z</time></trkpt><trkpt lat="45.36304298372093" lon="11.707033491039441"><ele>16.0</ele><time>2026-04-18T09:45:19Z</time></trkpt><trkpt lat="45.36286345493816" lon="11.706986968446175"><ele>16.0</ele><time>2026-04-18T09:45:20Z</time></trkpt><trkpt lat="45.36267636141715" lon="11.706986479065506"><ele>16.333333333333332</ele><time>2026-04-18T09:45:21Z</time></trkpt><trkpt lat="45.36247373232704" lon="11.707051908104951"><ele>16.666666666666668</ele><time>2026-04-18T09:45:22Z</time></trkpt><trkpt lat="45.36228774119706" lon="11.707168927728517"><ele>17.0</ele><time>2026-04-18T09:45:23Z</time></trkpt><trkpt lat="45.36212725720334" lon="11.707235797894386"><ele>17.0</ele><time>2026-04-18T09:45:24Z</time></trkpt><trkpt lat="45.36197203722142" lon="11.707248879776515"><ele>17.0</ele><time>2026-04-18T09:45:25Z</time></trkpt><trkpt lat="45.361811734861085" lon="11.707253061278118"><ele>17.0</ele><time>2026-04-18T09:45:26Z</time></trkpt><trkpt lat="45.361678944219825" lon="11.707255363949637"><ele>17.0</ele><time>2026-04-18T09:45:27Z</time></trkpt><trkpt lat="45.361561303761285" lon="11.707253156013161"><ele>17.0</ele><time>2026-04-18T09:45:28Z</time></trkpt><trkpt lat="45.361459084917406" lon="11.70723148889013"><ele>17.0</ele><time>2026-04-18T09:45:29Z</time></trkpt><trkpt lat="45.361390890753746" lon="11.707166215527273"><ele>17.0</ele><time>2026-04-18T09:45:30Z</time></trkpt><trkpt lat="45.36134662228284" lon="11.707076579177143"><ele>17.0</ele><time>2026-04-18T09:45:31Z</time></trkpt><trkpt lat="45.361289644864904" lon="11.706981795267064"><ele>17.0</ele><time>2026-04-18T09:45:32Z</time></trkpt><trkpt lat="45.36126419235186" lon="11.706828254428892"><ele>17.0</ele><time>2026-04-18T09:45:33Z</time></trkpt><trkpt lat="45.36123030640843" lon="11.706651184406095"><ele>17.0</ele><time>2026-04-18T09:45:34Z</time></trkpt><trkpt lat="45.36117670410205" lon="11.706456988323872"><ele>17.0</ele><time>2026-04-18T09:45:35Z</time></trkpt><trkpt lat="45.36115423634012" lon="11.70626509001852"><ele>17.0</ele><time>2026-04-18T09:45:36Z</time></trkpt><trkpt lat="45.36110908387974" lon="11.706105353521824"><ele>19.0</ele><time>2026-04-18T09:45:37Z</time></trkpt><trkpt lat="45.361035555808634" lon="11.7059805671335"><ele>21.0</ele><time>2026-04-18T09:45:38Z</time></trkpt><trkpt lat="45.36093323494785" lon="11.705905676520235"><ele>23.0</ele><time>2026-04-18T09:45:39Z</time></trkpt><trkpt lat="45.360812376715245" lon="11.70588384579529"><ele>25.0</ele><time>2026-04-18T09:45:40Z</time></trkpt><trkpt lat="45.36069343394176" lon="11.70592548657264"><ele>25.0</ele><time>2026-04-18T09:45:41Z</time></trkpt><trkpt lat="45.36056905945217" lon="11.706005682548836"><ele>25.0</ele><time>2026-04-18T09:45:42Z</time></trkpt><trkpt lat="45.36042055090381" lon="11.706081616064443"><ele>25.0</ele><time>2026-04-18T09:45:43Z</time></trkpt><trkpt lat="45.360257209147065" lon="11.706158045722571"><ele>22.0</ele><time>2026-04-18T09:45:44Z</time></trkpt><trkpt lat="45.36008241137918" lon="11.706209825253177"><ele>19.0</ele><time>2026-04-18T09:45:45Z</time></trkpt><trkpt lat="45.35989743523145" lon="11.70622772443544"><ele>16.0</ele><time>2026-04-18T09:45:46Z</time></trkpt><trkpt lat="45.35973337148872" lon="11.706248245854926"><ele>16.25</ele><time>2026-04-18T09:45:47Z</time></trkpt><trkpt lat="45.35959591213842" lon="11.706239109244752"><ele>16.5</ele><time>2026-04-18T09:45:48Z</time></trkpt><trkpt lat="45.35947812633964" lon="11.706195482868072"><ele>16.75</ele><time>2026-04-18T09:45:49Z</time></trkpt><trkpt lat="45.35936290637016" lon="11.706152151227066"><ele>17.0</ele><time>2026-04-18T09:45:50Z</time></trkpt><trkpt lat="45.359242184677065" lon="11.706092784642584"><ele>17.666666666666668</ele><time>2026-04-18T09:45:51Z</time></trkpt><trkpt lat="45.359097262135855" lon="11.70603304221286"><ele>18.333333333333332</ele><time>2026-04-18T09:45:52Z</time></trkpt><trkpt lat="45.358930015868104" lon="11.705940744422186"><ele>19.0</ele><time>2026-04-18T09:45:53Z</time></trkpt><trkpt lat="45.35875416680214" lon="11.705846555335684"><ele>19.0</ele><time>2026-04-18T09:45:54Z</time></trkpt><trkpt lat="45.358561703930505" lon="11.705774005924859"><ele>19.0</ele><time>2026-04-18T09:45:55Z</time></trkpt><trkpt lat="45.358363348899786" lon="11.705710342204073"><ele>19.0</ele><time>2026-04-18T09:45:56Z</time></trkpt><trkpt lat="45.35815786797825" lon="11.705656386944169"><ele>18.666666666666664</ele><time>2026-04-18T09:45:57Z</time></trkpt><trkpt lat="45.35796848374636" lon="11.705605995720706"><ele>18.333333333333332</ele><time>2026-04-18T09:45:58Z</time></trkpt><trkpt lat="45.35779890974109" lon="11.705575730951207"><ele>18.0</ele><time>2026-04-18T09:45:59Z</time></trkpt><trkpt lat="45.35764232752673" lon="11.705554293744271"><ele>18.0</ele><time>2026-04-18T09:46:00Z</time></trkpt><trkpt lat="45.357491933749166" lon="11.70552451172729"><ele>18.0</ele><time>2026-04-18T09:46:01Z</time></trkpt><trkpt lat="45.35735595742782" lon="11.705494371813232"><ele>18.0</ele><time>2026-04-18T09:46:02Z</time></trkpt><trkpt lat="45.357225980492096" lon="11.705477035396642"><ele>18.0</ele><time>2026-04-18T09:46:03Z</time></trkpt><trkpt lat="45.35709717284877" lon="11.70547000120872"><ele>17.75</ele><time>2026-04-18T09:46:04.001Z</time></trkpt><trkpt lat="45.356967960027355" lon="11.705484954766018"><ele>17.5</ele><time>2026-04-18T09:46:05.001Z</time></trkpt><trkpt lat="45.356840390191856" lon="11.705547873022327"><ele>17.25</ele><time>2026-04-18T09:46:06.001Z</time></trkpt><trkpt lat="45.356728300273204" lon="11.705656236330931"><ele>17.0</ele><time>2026-04-18T09:46:07.001Z</time></trkpt><trkpt lat="45.356653709861455" lon="11.705766361068065"><ele>17.0</ele><time>2026-04-18T09:46:08.001Z</time></trkpt><trkpt lat="45.35661902691427" lon="11.70591676681525"><ele>17.0</ele><time>2026-04-18T09:46:09.001Z</time></trkpt><trkpt lat="45.35659931500938" lon="11.706106226368302"><ele>17.0</ele><time>2026-04-18T09:46:10.001Z</time></trkpt><trkpt lat="45.356558618236356" lon="11.706331191320801"><ele>17.0</ele><time>2026-04-18T09:46:11.001Z</time></trkpt><trkpt lat="45.356539391682965" lon="11.706586146489833"><ele>16.333333333333336</ele><time>2026-04-18T09:46:12.001Z</time></trkpt><trkpt lat="45.35650451250525" lon="11.70682841800007"><ele>15.666666666666668</ele><time>2026-04-18T09:46:13.001Z</time></trkpt><trkpt lat="45.3564763173968" lon="11.707043648232997"><ele>15.0</ele><time>2026-04-18T09:46:14.001Z</time></trkpt><trkpt lat="45.35644417907502" lon="11.707244621458466"><ele>15.0</ele><time>2026-04-18T09:46:15.001Z</time></trkpt><trkpt lat="45.35638477572962" lon="11.707440399834722"><ele>15.0</ele><time>2026-04-18T09:46:16.001Z</time></trkpt><trkpt lat="45.35633084890905" lon="11.707658932202557"><ele>15.0</ele><time>2026-04-18T09:46:17.001Z</time></trkpt><trkpt lat="45.35624173303719" lon="11.707870481682177"><ele>15.0</ele><time>2026-04-18T09:46:18.001Z</time></trkpt><trkpt lat="45.3561392146704" lon="11.708088760069554"><ele>15.0</ele><time>2026-04-18T09:46:19.001Z</time></trkpt><trkpt lat="45.35603959894064" lon="11.708303930363883"><ele>15.0</ele><time>2026-04-18T09:46:20.001Z</time></trkpt><trkpt lat="45.35594068734444" lon="11.708511965120257"><ele>15.25</ele><time>2026-04-18T09:46:21.001Z</time></trkpt><trkpt lat="45.35584356834935" lon="11.70869932636613"><ele>15.5</ele><time>2026-04-18T09:46:22.001Z</time></trkpt><trkpt lat="45.355759117335495" lon="11.708869865994787"><ele>15.75</ele><time>2026-04-18T09:46:23.001Z</time></trkpt><trkpt lat="45.35567975879568" lon="11.709029137897428"><ele>16.0</ele><time>2026-04-18T09:46:24.001Z</time></trkpt><trkpt lat="45.3556015771586" lon="11.709174463775756"><ele>15.666666666666666</ele><time>2026-04-18T09:46:25.001Z</time></trkpt><trkpt lat="45.35551543465293" lon="11.709336271665427"><ele>15.333333333333332</ele><time>2026-04-18T09:46:26.001Z</time></trkpt><trkpt lat="45.35540420377999" lon="11.709506627591464"><ele>15.0</ele><time>2026-04-18T09:46:27.001Z</time></trkpt><trkpt lat="45.355258052237886" lon="11.709674334691712"><ele>15.0</ele><time>2026-04-18T09:46:28.001Z</time></trkpt><trkpt lat="45.35507406568391" lon="11.709791485474431"><ele>15.0</ele><time>2026-04-18T09:46:29.001Z</time></trkpt><trkpt lat="45.35488018230417" lon="11.709905739284054"><ele>15.0</ele><time>2026-04-18T09:46:30.001Z</time></trkpt><trkpt lat="45.35469885451057" lon="11.709975617877888"><ele>15.333333333333332</ele><time>2026-04-18T09:46:31.001Z</time></trkpt><trkpt lat="45.35453095316921" lon="11.710052975946937"><ele>15.666666666666666</ele><time>2026-04-18T09:46:32.001Z</time></trkpt><trkpt lat="45.35436916698307" lon="11.710142953608072"><ele>16.0</ele><time>2026-04-18T09:46:33.001Z</time></trkpt><trkpt lat="45.354217285718065" lon="11.710262477282276"><ele>16.0</ele><time>2026-04-18T09:46:34.001Z</time></trkpt><trkpt lat="45.35408406415237" lon="11.710415312367102"><ele>16.0</ele><time>2026-04-18T09:46:35.001Z</time></trkpt><trkpt lat="45.35396030615164" lon="11.710547605607777"><ele>16.0</ele><time>2026-04-18T09:46:36.001Z</time></trkpt><trkpt lat="45.35385152320345" lon="11.710676412509045"><ele>16.75</ele><time>2026-04-18T09:46:37.001Z</time></trkpt><trkpt lat="45.35373798112635" lon="11.710763950795279"><ele>17.5</ele><time>2026-04-18T09:46:38.001Z</time></trkpt><trkpt lat="45.353614501687446" lon="11.71082590836981"><ele>18.25</ele><time>2026-04-18T09:46:39.001Z</time></trkpt><trkpt lat="45.353473768469705" lon="11.710773611047474"><ele>19.0</ele><time>2026-04-18T09:46:40.001Z</time></trkpt><trkpt lat="45.353325715074604" lon="11.710716100162573"><ele>19.0</ele><time>2026-04-18T09:46:41.001Z</time></trkpt><trkpt lat="45.353174472879104" lon="11.710597501545818"><ele>19.0</ele><time>2026-04-18T09:46:42.001Z</time></trkpt><trkpt lat="45.35299786878487" lon="11.71049848767219"><ele>19.0</ele><time>2026-04-18T09:46:43.001Z</time></trkpt><trkpt lat="45.35280307987967" lon="11.710459609240841"><ele>18.666666666666664</ele><time>2026-04-18T09:46:44.001Z</time></trkpt><trkpt lat="45.35262890696939" lon="11.710430990229122"><ele>18.333333333333332</ele><time>2026-04-18T09:46:45.001Z</time></trkpt><trkpt lat="45.35245678675786" lon="11.71050692006535"><ele>18.0</ele><time>2026-04-18T09:46:46.001Z</time></trkpt><trkpt lat="45.352269984575116" lon="11.710572968658006"><ele>18.666666666666668</ele><time>2026-04-18T09:46:47.001Z</time></trkpt><trkpt lat="45.35209339719495" lon="11.71065889782324"><ele>19.333333333333336</ele><time>2026-04-18T09:46:48.001Z</time></trkpt><trkpt lat="45.35190454581366" lon="11.710771636864731"><ele>20.0</ele><time>2026-04-18T09:46:49.001Z</time></trkpt><trkpt lat="45.35168053542477" lon="11.710851242388923"><ele>20.0</ele><time>2026-04-18T09:46:50.001Z</time></trkpt><trkpt lat="45.35143975099722" lon="11.710945362076576"><ele>20.0</ele><time>2026-04-18T09:46:51.001Z</time></trkpt><trkpt lat="45.35121231426717" lon="11.71103275324418"><ele>19.333333333333336</ele><time>2026-04-18T09:46:52.001Z</time></trkpt><trkpt lat="45.35100673770177" lon="11.711112774842858"><ele>18.666666666666668</ele><time>2026-04-18T09:46:53.001Z</time></trkpt><trkpt lat="45.350826299603824" lon="11.711222753463675"><ele>18.0</ele><time>2026-04-18T09:46:54.001Z</time></trkpt><trkpt lat="45.35067437357834" lon="11.711386858553565"><ele>18.0</ele><time>2026-04-18T09:46:55.001Z</time></trkpt><trkpt lat="45.35054553959577" lon="11.711587604527592"><ele>18.0</ele><time>2026-04-18T09:46:56.001Z</time></trkpt><trkpt lat="45.350403052686026" lon="11.711772543035966"><ele>18.0</ele><time>2026-04-18T09:46:57.001Z</time></trkpt><trkpt lat="45.3502102560992" lon="11.711874376121568"><ele>17.0</ele><time>2026-04-18T09:46:58.001Z</time></trkpt><trkpt lat="45.35001121523781" lon="11.711979685458148"><ele>16.0</ele><time>2026-04-18T09:46:59.001Z</time></trkpt><trkpt lat="45.349820129622415" lon="11.712076393821235"><ele>15.0</ele><time>2026-04-18T09:47:00.001Z</time></trkpt><trkpt lat="45.34962961326288" lon="11.712173661962492"><ele>18.0</ele><time>2026-04-18T09:47:01.001Z</time></trkpt><trkpt lat="45.34942464689561" lon="11.71227880411235"><ele>21.0</ele><time>2026-04-18T09:47:02.001Z</time></trkpt><trkpt lat="45.34920427949944" lon="11.7123918836478"><ele>21.0</ele><time>2026-04-18T09:47:03.001Z</time></trkpt><trkpt lat="45.34898383978159" lon="11.712505249352303"><ele>21.0</ele><time>2026-04-18T09:47:04.001Z</time></trkpt><trkpt lat="45.348770668437574" lon="11.712614877222679"><ele>19.333333333333332</ele><time>2026-04-18T09:47:05.001Z</time></trkpt><trkpt lat="45.348578081008036" lon="11.712713920258437"><ele>17.666666666666664</ele><time>2026-04-18T09:47:06.001Z</time></trkpt><trkpt lat="45.34839716162925" lon="11.71279989699743"><ele>16.0</ele><time>2026-04-18T09:47:07.001Z</time></trkpt><trkpt lat="45.348222115994155" lon="11.712866122560145"><ele>16.0</ele><time>2026-04-18T09:47:08.001Z</time></trkpt><trkpt lat="45.34805290781477" lon="11.712905041879278"><ele>16.0</ele><time>2026-04-18T09:47:09.001Z</time></trkpt><trkpt lat="45.34787739908717" lon="11.71292399200815"><ele>16.0</ele><time>2026-04-18T09:47:10.001Z</time></trkpt><trkpt lat="45.34769764774451" lon="11.71292169270278"><ele>16.0</ele><time>2026-04-18T09:47:11.001Z</time></trkpt><trkpt lat="45.34749222942752" lon="11.712905165195693"><ele>16.0</ele><time>2026-04-18T09:47:12.001Z</time></trkpt><trkpt lat="45.34729210046864" lon="11.712910097418417"><ele>16.0</ele><time>2026-04-18T09:47:13.001Z</time></trkpt><trkpt lat="45.34710458202478" lon="11.712891130428229"><ele>16.666666666666664</ele><time>2026-04-18T09:47:14.001Z</time></trkpt><trkpt lat="45.346926664279785" lon="11.712871961990539"><ele>17.333333333333332</ele><time>2026-04-18T09:47:15.001Z</time></trkpt><trkpt lat="45.3467478426092" lon="11.712856892807498"><ele>18.0</ele><time>2026-04-18T09:47:16Z</time></trkpt><trkpt lat="45.346576959694474" lon="11.712820387487213"><ele>18.0</ele><time>2026-04-18T09:47:17Z</time></trkpt><trkpt lat="45.34642790344477" lon="11.712805494258475"><ele>18.0</ele><time>2026-04-18T09:47:18Z</time></trkpt><trkpt lat="45.34628863151392" lon="11.71279146949756"><ele>18.0</ele><time>2026-04-18T09:47:19Z</time></trkpt><trkpt lat="45.34615141453857" lon="11.712777651685572"><ele>18.0</ele><time>2026-04-18T09:47:20Z</time></trkpt><trkpt lat="45.346006274280164" lon="11.712763035982094"><ele>18.5</ele><time>2026-04-18T09:47:21Z</time></trkpt><trkpt lat="45.345856574130316" lon="11.71275529128788"><ele>19.0</ele><time>2026-04-18T09:47:22Z</time></trkpt><trkpt lat="45.34571906019796" lon="11.712745403400781"><ele>19.5</ele><time>2026-04-18T09:47:23Z</time></trkpt><trkpt lat="45.34558895732847" lon="11.712735309875995"><ele>20.0</ele><time>2026-04-18T09:47:24Z</time></trkpt><trkpt lat="45.34546341511087" lon="11.712723766491091"><ele>22.0</ele><time>2026-04-18T09:47:25Z</time></trkpt><trkpt lat="45.34533641708466" lon="11.712708849548891"><ele>24.0</ele><time>2026-04-18T09:47:26Z</time></trkpt><trkpt lat="45.345210060337735" lon="11.712700741570705"><ele>26.0</ele><time>2026-04-18T09:47:27Z</time></trkpt><trkpt lat="45.34508927591216" lon="11.71270124505452"><ele>28.0</ele><time>2026-04-18T09:47:28Z</time></trkpt><trkpt lat="45.34497082840656" lon="11.712693072080908"><ele>28.0</ele><time>2026-04-18T09:47:29Z</time></trkpt><trkpt lat="45.344864191388716" lon="11.71269413728532"><ele>27.999999999999996</ele><time>2026-04-18T09:47:30Z</time></trkpt><trkpt lat="45.344758007055226" lon="11.71270443786614"><ele>27.999999999999996</ele><time>2026-04-18T09:47:31Z</time></trkpt><trkpt lat="45.344666568147446" lon="11.712765279241975"><ele>28.0</ele><time>2026-04-18T09:47:32Z</time></trkpt><trkpt lat="45.34459964278176" lon="11.712857926017884"><ele>28.0</ele><time>2026-04-18T09:47:33Z</time></trkpt><trkpt lat="45.34453779560873" lon="11.712925038568848"><ele>24.333333333333336</ele><time>2026-04-18T09:47:34Z</time></trkpt><trkpt lat="45.34448679445818" lon="11.712989863718494"><ele>20.666666666666668</ele><time>2026-04-18T09:47:35Z</time></trkpt><trkpt lat="45.34463210930209" lon="11.713417899120614"><ele>17.0</ele><time>2026-04-18T09:47:36Z</time></trkpt><trkpt lat="45.344641185514114" lon="11.713597374159354"><ele>17.0</ele><time>2026-04-18T09:47:37Z</time></trkpt><trkpt lat="45.34464536779836" lon="11.713747521114044"><ele>17.0</ele><time>2026-04-18T09:47:38Z</time></trkpt><trkpt lat="45.344641038135926" lon="11.713872386124963"><ele>17.0</ele><time>2026-04-18T09:47:39Z</time></trkpt><trkpt lat="45.34461527317973" lon="11.713977143084946"><ele>17.0</ele><time>2026-04-18T09:47:40Z</time></trkpt><trkpt lat="45.34453821431367" lon="11.714015573454"><ele>17.0</ele><time>2026-04-18T09:47:41Z</time></trkpt><trkpt lat="45.344435780205195" lon="11.714009325452462"><ele>17.0</ele><time>2026-04-18T09:47:42Z</time></trkpt><trkpt lat="45.34431136618601" lon="11.713979855530647"><ele>17.0</ele><time>2026-04-18T09:47:43Z</time></trkpt><trkpt lat="45.344157880507" lon="11.71396564745909"><ele>17.0</ele><time>2026-04-18T09:47:44Z</time></trkpt><trkpt lat="45.34397605632029" lon="11.7139543715799"><ele>17.666666666666668</ele><time>2026-04-18T09:47:45Z</time></trkpt><trkpt lat="45.34380613635403" lon="11.713948186511818"><ele>18.333333333333332</ele><time>2026-04-18T09:47:46Z</time></trkpt><trkpt lat="45.343648458751865" lon="11.713936027215302"><ele>19.0</ele><time>2026-04-18T09:47:47Z</time></trkpt><trkpt lat="45.34349850689135" lon="11.713925630460736"><ele>19.0</ele><time>2026-04-18T09:47:48Z</time></trkpt><trkpt lat="45.343349421408554" lon="11.713909662073116"><ele>19.0</ele><time>2026-04-18T09:47:49Z</time></trkpt><trkpt lat="45.34320127111833" lon="11.71389880042349"><ele>19.0</ele><time>2026-04-18T09:47:50Z</time></trkpt><trkpt lat="45.34305862219429" lon="11.713883406092945"><ele>19.0</ele><time>2026-04-18T09:47:51Z</time></trkpt><trkpt lat="45.34292249136116" lon="11.71386838930019"><ele>20.0</ele><time>2026-04-18T09:47:52Z</time></trkpt><trkpt lat="45.342791874993395" lon="11.713853548860376"><ele>21.0</ele><time>2026-04-18T09:47:53Z</time></trkpt><trkpt lat="45.342675214516525" lon="11.713845313020709"><ele>22.0</ele><time>2026-04-18T09:47:54Z</time></trkpt><trkpt lat="45.34256461612128" lon="11.713840477979781"><ele>23.0</ele><time>2026-04-18T09:47:55Z</time></trkpt><trkpt lat="45.34246253559652" lon="11.713835795957834"><ele>23.0</ele><time>2026-04-18T09:47:56Z</time></trkpt><trkpt lat="45.342369490717125" lon="11.713826045941953"><ele>23.0</ele><time>2026-04-18T09:47:57Z</time></trkpt><trkpt lat="45.34228184892485" lon="11.713823027011461"><ele>23.0</ele><time>2026-04-18T09:47:58Z</time></trkpt><trkpt lat="45.34221205935043" lon="11.713782686901167"><ele>23.0</ele><time>2026-04-18T09:47:59Z</time></trkpt><trkpt lat="45.3421685853262" lon="11.713669607263377"><ele>23.0</ele><time>2026-04-18T09:48:00Z</time></trkpt><trkpt lat="45.34215946841395" lon="11.713522965373514"><ele>23.25</ele><time>2026-04-18T09:48:01Z</time></trkpt><trkpt lat="45.34217074884507" lon="11.713348624244514"><ele>23.5</ele><time>2026-04-18T09:48:02Z</time></trkpt><trkpt lat="45.34218471243249" lon="11.713173265300716"><ele>23.75</ele><time>2026-04-18T09:48:03Z</time></trkpt><trkpt lat="45.342182604100536" lon="11.713015831959524"><ele>24.0</ele><time>2026-04-18T09:48:04Z</time></trkpt><trkpt lat="45.34215181695965" lon="11.712888947382066"><ele>24.0</ele><time>2026-04-18T09:48:05Z</time></trkpt><trkpt lat="45.342081258783644" lon="11.71279987380823"><ele>24.0</ele><time>2026-04-18T09:48:06Z</time></trkpt><trkpt lat="45.341974510791275" lon="11.712750333873212"><ele>24.0</ele><time>2026-04-18T09:48:07Z</time></trkpt><trkpt lat="45.34184213337246" lon="11.712745760043802"><ele>24.0</ele><time>2026-04-18T09:48:08Z</time></trkpt><trkpt lat="45.34169609018719" lon="11.71276070410371"><ele>24.0</ele><time>2026-04-18T09:48:09Z</time></trkpt><trkpt lat="45.341557934101715" lon="11.712763078713968"><ele>24.0</ele><time>2026-04-18T09:48:10Z</time></trkpt><trkpt lat="45.34142611206958" lon="11.712766446504578"><ele>24.0</ele><time>2026-04-18T09:48:11Z</time></trkpt><trkpt lat="45.341310340467736" lon="11.712767858536319"><ele>24.0</ele><time>2026-04-18T09:48:12Z</time></trkpt><trkpt lat="45.34120743500019" lon="11.712773607213526"><ele>24.75</ele><time>2026-04-18T09:48:13Z</time></trkpt><trkpt lat="45.341100352239714" lon="11.712795733677828"><ele>25.5</ele><time>2026-04-18T09:48:14.001Z</time></trkpt><trkpt lat="45.340989998826444" lon="11.712852650855968"><ele>26.25</ele><time>2026-04-18T09:48:15.001Z</time></trkpt><trkpt lat="45.34088064612795" lon="11.712961174343915"><ele>27.0</ele><time>2026-04-18T09:48:16.001Z</time></trkpt><trkpt lat="45.34077810382613" lon="11.713077470137092"><ele>27.0</ele><time>2026-04-18T09:48:17.001Z</time></trkpt><trkpt lat="45.34068263917027" lon="11.713193578056677"><ele>27.000000000000004</ele><time>2026-04-18T09:48:18.001Z</time></trkpt><trkpt lat="45.34060204843901" lon="11.713313619309224"><ele>27.000000000000004</ele><time>2026-04-18T09:48:19.001Z</time></trkpt><trkpt lat="45.34053819659848" lon="11.713430419594829"><ele>27.0</ele><time>2026-04-18T09:48:20.001Z</time></trkpt><trkpt lat="45.34049016934877" lon="11.713535758342427"><ele>27.0</ele><time>2026-04-18T09:48:21.001Z</time></trkpt><trkpt lat="45.34044123478687" lon="11.713625080809415"><ele>27.0</ele><time>2026-04-18T09:48:22.001Z</time></trkpt><trkpt lat="45.34038879327901" lon="11.71368985799959"><ele>27.000000000000004</ele><time>2026-04-18T09:48:23.001Z</time></trkpt><trkpt lat="45.34030793226235" lon="11.713825437592712"><ele>27.000000000000004</ele><time>2026-04-18T09:48:25.001Z</time></trkpt><trkpt lat="45.34022308074807" lon="11.713937350720308"><ele>27.0</ele><time>2026-04-18T09:48:27.001Z</time></trkpt><trkpt lat="45.34013000474646" lon="11.714004161193902"><ele>27.0</ele><time>2026-04-18T09:48:29.001Z</time></trkpt><trkpt lat="45.34005335494992" lon="11.714052432636654"><ele>27.0</ele><time>2026-04-18T09:48:31.001Z</time></trkpt><trkpt lat="45.339953566974316" lon="11.714104248481254"><ele>27.000000000000004</ele><time>2026-04-18T09:48:33.001Z</time></trkpt><trkpt lat="45.33983031741783" lon="11.714163859283067"><ele>27.000000000000004</ele><time>2026-04-18T09:48:35.001Z</time></trkpt><trkpt lat="45.339755699560655" lon="11.714201032881128"><ele>27.0</ele><time>2026-04-18T09:48:36.001Z</time></trkpt><trkpt lat="45.33966039375867" lon="11.714248701343772"><ele>27.0</ele><time>2026-04-18T09:48:37.001Z</time></trkpt><trkpt lat="45.33955959086624" lon="11.714299033203147"><ele>26.6</ele><time>2026-04-18T09:48:38.001Z</time></trkpt><trkpt lat="45.33946637878655" lon="11.71434162438443"><ele>26.200000000000003</ele><time>2026-04-18T09:48:39.001Z</time></trkpt><trkpt lat="45.33938482019784" lon="11.714382167441684"><ele>25.8</ele><time>2026-04-18T09:48:40.001Z</time></trkpt><trkpt lat="45.33931983113221" lon="11.714422952741371"><ele>25.4</ele><time>2026-04-18T09:48:41.001Z</time></trkpt><trkpt lat="45.33924186900083" lon="11.714475335987284"><ele>25.0</ele><time>2026-04-18T09:48:42.001Z</time></trkpt><trkpt lat="45.33913195713687" lon="11.714575294822088"><ele>25.0</ele><time>2026-04-18T09:48:43.001Z</time></trkpt><trkpt lat="45.33903945018788" lon="11.714734135092268"><ele>25.0</ele><time>2026-04-18T09:48:44.001Z</time></trkpt><trkpt lat="45.33896998699301" lon="11.714973984367393"><ele>25.0</ele><time>2026-04-18T09:48:45.001Z</time></trkpt><trkpt lat="45.338924397696815" lon="11.715289040292427"><ele>25.0</ele><time>2026-04-18T09:48:46.001Z</time></trkpt><trkpt lat="45.3388693644027" lon="11.71561423855878"><ele>25.0</ele><time>2026-04-18T09:48:47.001Z</time></trkpt><trkpt lat="45.3388097532292" lon="11.715896022129867"><ele>25.0</ele><time>2026-04-18T09:48:48.001Z</time></trkpt><trkpt lat="45.33874664044899" lon="11.716140396069527"><ele>24.666666666666668</ele><time>2026-04-18T09:48:49.001Z</time></trkpt><trkpt lat="45.33867572754745" lon="11.716362140146378"><ele>24.333333333333336</ele><time>2026-04-18T09:48:50.001Z</time></trkpt><trkpt lat="45.33859872889768" lon="11.716562374422772"><ele>24.0</ele><time>2026-04-18T09:48:51.001Z</time></trkpt><trkpt lat="45.33852145786649" lon="11.716741706867598"><ele>24.333333333333336</ele><time>2026-04-18T09:48:52.001Z</time></trkpt><trkpt lat="45.33843889046164" lon="11.716915334006833"><ele>24.666666666666668</ele><time>2026-04-18T09:48:53.001Z</time></trkpt><trkpt lat="45.33833173405213" lon="11.717071707368481"><ele>25.0</ele><time>2026-04-18T09:48:54.001Z</time></trkpt><trkpt lat="45.338193386617846" lon="11.717175585269285"><ele>25.0</ele><time>2026-04-18T09:48:55.001Z</time></trkpt><trkpt lat="45.33806541543183" lon="11.717294573284098"><ele>25.0</ele><time>2026-04-18T09:48:56.001Z</time></trkpt><trkpt lat="45.337956735556205" lon="11.71735376083625"><ele>25.0</ele><time>2026-04-18T09:48:57.001Z</time></trkpt><trkpt lat="45.33786372471093" lon="11.71741389445487"><ele>25.0</ele><time>2026-04-18T09:48:58.001Z</time></trkpt><trkpt lat="45.337777330778025" lon="11.717466286762116"><ele>25.5</ele><time>2026-04-18T09:48:59.001Z</time></trkpt><trkpt lat="45.33769200448774" lon="11.717502346007517"><ele>26.0</ele><time>2026-04-18T09:49:00.001Z</time></trkpt><trkpt lat="45.337590788741615" lon="11.717540718551623"><ele>26.5</ele><time>2026-04-18T09:49:01.001Z</time></trkpt><trkpt lat="45.33746890333624" lon="11.717574676285587"><ele>27.0</ele><time>2026-04-18T09:49:02.001Z</time></trkpt><trkpt lat="45.33733721887452" lon="11.717598999636222"><ele>26.8</ele><time>2026-04-18T09:49:03.001Z</time></trkpt><trkpt lat="45.337217593048095" lon="11.71761928546426"><ele>26.6</ele><time>2026-04-18T09:49:04.001Z</time></trkpt><trkpt lat="45.33710928031039" lon="11.71764552344747"><ele>26.400000000000002</ele><time>2026-04-18T09:49:05.001Z</time></trkpt><trkpt lat="45.3370078673734" lon="11.717673693728205"><ele>26.200000000000003</ele><time>2026-04-18T09:49:06.001Z</time></trkpt><trkpt lat="45.336908956805" lon="11.717701311982937"><ele>26.0</ele><time>2026-04-18T09:49:07.001Z</time></trkpt><trkpt lat="45.336810531364755" lon="11.717746739769451"><ele>26.0</ele><time>2026-04-18T09:49:08.001Z</time></trkpt><trkpt lat="45.33672266150186" lon="11.717837372769306"><ele>26.0</ele><time>2026-04-18T09:49:09.001Z</time></trkpt><trkpt lat="45.336650708999336" lon="11.717964247405764"><ele>26.0</ele><time>2026-04-18T09:49:10.001Z</time></trkpt><trkpt lat="45.336593388013085" lon="11.718111322895632"><ele>26.0</ele><time>2026-04-18T09:49:11.001Z</time></trkpt><trkpt lat="45.336536313972154" lon="11.718258578404967"><ele>26.0</ele><time>2026-04-18T09:49:12.001Z</time></trkpt><trkpt lat="45.33647958838024" lon="11.71837996677965"><ele>26.0</ele><time>2026-04-18T09:49:13.001Z</time></trkpt><trkpt lat="45.33642426403094" lon="11.718490132772857"><ele>26.0</ele><time>2026-04-18T09:49:14.001Z</time></trkpt><trkpt lat="45.33636619902531" lon="11.718592498204394"><ele>26.0</ele><time>2026-04-18T09:49:15.001Z</time></trkpt><trkpt lat="45.33631541301269" lon="11.718702915049361"><ele>26.0</ele><time>2026-04-18T09:49:16.001Z</time></trkpt><trkpt lat="45.33626878802698" lon="11.718820359238908"><ele>26.4</ele><time>2026-04-18T09:49:17.001Z</time></trkpt><trkpt lat="45.33623636874151" lon="11.718939386725285"><ele>26.8</ele><time>2026-04-18T09:49:18.001Z</time></trkpt><trkpt lat="45.33620899175022" lon="11.719070825297576"><ele>27.199999999999996</ele><time>2026-04-18T09:49:19.001Z</time></trkpt><trkpt lat="45.33618893514837" lon="11.719221928827556"><ele>27.599999999999998</ele><time>2026-04-18T09:49:20.001Z</time></trkpt><trkpt lat="45.33617003812092" lon="11.719398551090704"><ele>28.0</ele><time>2026-04-18T09:49:21.001Z</time></trkpt><trkpt lat="45.33614375984132" lon="11.719585132207971"><ele>28.0</ele><time>2026-04-18T09:49:22Z</time></trkpt><trkpt lat="45.33611750858968" lon="11.719784977775054"><ele>28.0</ele><time>2026-04-18T09:49:23Z</time></trkpt><trkpt lat="45.336100127472434" lon="11.719987439697286"><ele>28.0</ele><time>2026-04-18T09:49:24Z</time></trkpt><trkpt lat="45.33609633364377" lon="11.720181895445148"><ele>28.0</ele><time>2026-04-18T09:49:25Z</time></trkpt><trkpt lat="45.33609504643431" lon="11.720376573925114"><ele>27.5</ele><time>2026-04-18T09:49:26Z</time></trkpt><trkpt lat="45.33609497697073" lon="11.720572173639017"><ele>27.0</ele><time>2026-04-18T09:49:27Z</time></trkpt><trkpt lat="45.336094724857496" lon="11.720769673523872"><ele>26.5</ele><time>2026-04-18T09:49:28Z</time></trkpt><trkpt lat="45.33609396311366" lon="11.7209650700615"><ele>26.0</ele><time>2026-04-18T09:49:29Z</time></trkpt><trkpt lat="45.33609750638126" lon="11.721150819858313"><ele>26.0</ele><time>2026-04-18T09:49:30Z</time></trkpt><trkpt lat="45.3361078204987" lon="11.72132982735382"><ele>26.0</ele><time>2026-04-18T09:49:31Z</time></trkpt><trkpt lat="45.33611905979826" lon="11.721522021845642"><ele>26.0</ele><time>2026-04-18T09:49:32Z</time></trkpt><trkpt lat="45.33613147443917" lon="11.721725256710402"><ele>26.0</ele><time>2026-04-18T09:49:33Z</time></trkpt><trkpt lat="45.33615887051398" lon="11.721913201536681"><ele>25.5</ele><time>2026-04-18T09:49:34Z</time></trkpt><trkpt lat="45.33618787033392" lon="11.722096867318463"><ele>25.0</ele><time>2026-04-18T09:49:35Z</time></trkpt><trkpt lat="45.33619032997732" lon="11.722295370632661"><ele>24.5</ele><time>2026-04-18T09:49:36Z</time></trkpt><trkpt lat="45.33617130711208" lon="11.722493813572433"><ele>24.0</ele><time>2026-04-18T09:49:37Z</time></trkpt><trkpt lat="45.33616125610207" lon="11.722706923477125"><ele>23.75</ele><time>2026-04-18T09:49:38Z</time></trkpt><trkpt lat="45.336140603013654" lon="11.722913516588156"><ele>23.5</ele><time>2026-04-18T09:49:39Z</time></trkpt><trkpt lat="45.33613773665766" lon="11.723135660700178"><ele>23.25</ele><time>2026-04-18T09:49:40Z</time></trkpt><trkpt lat="45.33615677261626" lon="11.72334061964226"><ele>23.0</ele><time>2026-04-18T09:49:42Z</time></trkpt><trkpt lat="45.336130578105326" lon="11.723492280719858"><ele>23.0</ele><time>2026-04-18T09:49:43Z</time></trkpt><trkpt lat="45.336097360888154" lon="11.723637923320414"><ele>23.0</ele><time>2026-04-18T09:49:44Z</time></trkpt><trkpt lat="45.33605794963808" lon="11.723779484085687"><ele>23.0</ele><time>2026-04-18T09:49:45Z</time></trkpt><trkpt lat="45.33601010177935" lon="11.723912295045281"><ele>23.0</ele><time>2026-04-18T09:49:46Z</time></trkpt><trkpt lat="45.335967017052326" lon="11.724038271353367"><ele>23.0</ele><time>2026-04-18T09:49:47Z</time></trkpt><trkpt lat="45.335940537360585" lon="11.72415329514849"><ele>23.0</ele><time>2026-04-18T09:49:48Z</time></trkpt><trkpt lat="45.33591187013758" lon="11.724236907019781"><ele>23.0</ele><time>2026-04-18T09:49:49Z</time></trkpt><trkpt lat="45.33585944462622" lon="11.724343506787122"><ele>23.0</ele><time>2026-04-18T09:49:51Z</time></trkpt><trkpt lat="45.335800109567444" lon="11.724421960532371"><ele>23.0</ele><time>2026-04-18T09:50:09Z</time></trkpt><trkpt lat="45.335780987981295" lon="11.724533100570167"><ele>23.0</ele><time>2026-04-18T09:50:19.001Z</time></trkpt><trkpt lat="45.335801370793334" lon="11.724687493154677"><ele>23.0</ele><time>2026-04-18T09:50:20.001Z</time></trkpt><trkpt lat="45.33580941975042" lon="11.724867103124673"><ele>22.799999999999997</ele><time>2026-04-18T09:50:21.001Z</time></trkpt><trkpt lat="45.33582083668542" lon="11.72501818686447"><ele>22.6</ele><time>2026-04-18T09:50:22.001Z</time></trkpt><trkpt lat="45.335827592602556" lon="11.725182284199413"><ele>22.4</ele><time>2026-04-18T09:50:23.001Z</time></trkpt><trkpt lat="45.33582273978533" lon="11.725343999816332"><ele>22.200000000000003</ele><time>2026-04-18T09:50:24.001Z</time></trkpt><trkpt lat="45.33580889627762" lon="11.725501571599523"><ele>22.0</ele><time>2026-04-18T09:50:25.001Z</time></trkpt><trkpt lat="45.335791541705284" lon="11.725653592604779"><ele>21.6</ele><time>2026-04-18T09:50:26.001Z</time></trkpt><trkpt lat="45.33577896961837" lon="11.725802042738383"><ele>21.200000000000003</ele><time>2026-04-18T09:50:27.001Z</time></trkpt><trkpt lat="45.33575895376349" lon="11.725933349509209"><ele>20.8</ele><time>2026-04-18T09:50:28.001Z</time></trkpt><trkpt lat="45.33573268413049" lon="11.726077623257563"><ele>20.4</ele><time>2026-04-18T09:50:29.001Z</time></trkpt><trkpt lat="45.335712183025635" lon="11.726231562177754"><ele>20.0</ele><time>2026-04-18T09:50:30.001Z</time></trkpt><trkpt lat="45.33568109861994" lon="11.726396548555838"><ele>19.8</ele><time>2026-04-18T09:50:31.001Z</time></trkpt><trkpt lat="45.33565076764764" lon="11.726551881843747"><ele>19.6</ele><time>2026-04-18T09:50:32.001Z</time></trkpt><trkpt lat="45.335620570119275" lon="11.726697297624264"><ele>19.4</ele><time>2026-04-18T09:50:33.001Z</time></trkpt><trkpt lat="45.335587254018556" lon="11.726848395304442"><ele>19.2</ele><time>2026-04-18T09:50:34.001Z</time></trkpt><trkpt lat="45.335546883796205" lon="11.726994026733927"><ele>19.0</ele><time>2026-04-18T09:50:35.001Z</time></trkpt><trkpt lat="45.33550978479314" lon="11.727148917986769"><ele>19.0</ele><time>2026-04-18T09:50:36.001Z</time></trkpt><trkpt lat="45.33547027942943" lon="11.727297154289523"><ele>19.0</ele><time>2026-04-18T09:50:37.001Z</time></trkpt><trkpt lat="45.335431419897645" lon="11.727459791921628"><ele>19.0</ele><time>2026-04-18T09:50:38.001Z</time></trkpt><trkpt lat="45.335391930025885" lon="11.727618559484554"><ele>19.0</ele><time>2026-04-18T09:50:39.001Z</time></trkpt><trkpt lat="45.335358096782855" lon="11.727772664631832"><ele>18.75</ele><time>2026-04-18T09:50:40.001Z</time></trkpt><trkpt lat="45.335342662782324" lon="11.727923644027573"><ele>18.5</ele><time>2026-04-18T09:50:41.001Z</time></trkpt><trkpt lat="45.33525219877919" lon="11.72806958654478"><ele>18.25</ele><time>2026-04-18T09:50:42.001Z</time></trkpt><trkpt lat="45.335334295886184" lon="11.728239096482703"><ele>18.0</ele><time>2026-04-18T09:50:43.001Z</time></trkpt><trkpt lat="45.33532649500585" lon="11.728398703656527"><ele>18.0</ele><time>2026-04-18T09:50:44.001Z</time></trkpt><trkpt lat="45.33532389943704" lon="11.728557098726968"><ele>18.0</ele><time>2026-04-18T09:50:45.001Z</time></trkpt><trkpt lat="45.33532044683679" lon="11.728725372016568"><ele>18.0</ele><time>2026-04-18T09:50:46.001Z</time></trkpt><trkpt lat="45.33531671976471" lon="11.728889191343772"><ele>18.0</ele><time>2026-04-18T09:50:47.001Z</time></trkpt><trkpt lat="45.335322605700505" lon="11.729038175167124"><ele>18.0</ele><time>2026-04-18T09:50:48.001Z</time></trkpt><trkpt lat="45.33531880747378" lon="11.729174994042982"><ele>18.0</ele><time>2026-04-18T09:50:49.001Z</time></trkpt><trkpt lat="45.3353093649529" lon="11.729301745614233"><ele>18.0</ele><time>2026-04-18T09:50:50.001Z</time></trkpt><trkpt lat="45.335299138771866" lon="11.729429482580153"><ele>18.0</ele><time>2026-04-18T09:50:51.001Z</time></trkpt><trkpt lat="45.33529354552428" lon="11.729565987573219"><ele>18.0</ele><time>2026-04-18T09:50:52.001Z</time></trkpt><trkpt lat="45.3352809810753" lon="11.729703314456277"><ele>17.8</ele><time>2026-04-18T09:50:53.001Z</time></trkpt><trkpt lat="45.33527058243932" lon="11.729840238636493"><ele>17.6</ele><time>2026-04-18T09:50:54.001Z</time></trkpt><trkpt lat="45.335265602608686" lon="11.72997803155751"><ele>17.4</ele><time>2026-04-18T09:50:55.001Z</time></trkpt><trkpt lat="45.33526258281761" lon="11.730118070188102"><ele>17.2</ele><time>2026-04-18T09:50:56.001Z</time></trkpt><trkpt lat="45.335254238600896" lon="11.730250478417137"><ele>17.0</ele><time>2026-04-18T09:50:57.001Z</time></trkpt><trkpt lat="45.335241307541565" lon="11.730391154659559"><ele>16.857142857142854</ele><time>2026-04-18T09:50:58.001Z</time></trkpt><trkpt lat="45.33523463213136" lon="11.730508415664582"><ele>16.714285714285715</ele><time>2026-04-18T09:50:59.001Z</time></trkpt><trkpt lat="45.33522132778523" lon="11.730616366315079"><ele>16.57142857142857</ele><time>2026-04-18T09:51:00.001Z</time></trkpt><trkpt lat="45.335216358070376" lon="11.730713257626359"><ele>16.428571428571427</ele><time>2026-04-18T09:51:01.001Z</time></trkpt><trkpt lat="45.33520944096834" lon="11.730809879479635"><ele>16.285714285714285</ele><time>2026-04-18T09:51:02.001Z</time></trkpt><trkpt lat="45.33520725601644" lon="11.730908327974268"><ele>16.142857142857142</ele><time>2026-04-18T09:51:03.001Z</time></trkpt><trkpt lat="45.33520211347981" lon="11.731006673183687"><ele>16.0</ele><time>2026-04-18T09:51:04.001Z</time></trkpt><trkpt lat="45.335196555742655" lon="11.731148652149196"><ele>15.833333333333332</ele><time>2026-04-18T09:51:06.001Z</time></trkpt><trkpt lat="45.335188585970855" lon="11.731278458758085"><ele>15.666666666666666</ele><time>2026-04-18T09:51:08.001Z</time></trkpt><trkpt lat="45.33517832980306" lon="11.731400146188676"><ele>15.5</ele><time>2026-04-18T09:51:10.001Z</time></trkpt><trkpt lat="45.33518883992287" lon="11.731518177894719"><ele>15.333333333333332</ele><time>2026-04-18T09:51:12.001Z</time></trkpt><trkpt lat="45.33521041660488" lon="11.731615454005464"><ele>15.166666666666666</ele><time>2026-04-18T09:51:14.001Z</time></trkpt><trkpt lat="45.33525045485668" lon="11.731704218768224"><ele>15.0</ele><time>2026-04-18T09:51:16.001Z</time></trkpt><trkpt lat="45.33529468189347" lon="11.731866521472943"><ele>14.6</ele><time>2026-04-18T09:51:18.001Z</time></trkpt><trkpt lat="45.335298082439834" lon="11.731958164529008"><ele>14.2</ele><time>2026-04-18T09:51:19.001Z</time></trkpt><trkpt lat="45.33524139853641" lon="11.732106491143194"><ele>13.8</ele><time>2026-04-18T09:51:21.001Z</time></trkpt><trkpt lat="45.33512492102919" lon="11.73219832890214"><ele>13.4</ele><time>2026-04-18T09:51:23.001Z</time></trkpt><trkpt lat="45.33504534629904" lon="11.732232753767551"><ele>13.0</ele><time>2026-04-18T09:51:24.001Z</time></trkpt><trkpt lat="45.334951655149275" lon="11.732255239497954"><ele>13.0</ele><time>2026-04-18T09:51:25.001Z</time></trkpt><trkpt lat="45.334861128006295" lon="11.732265778355945"><ele>13.0</ele><time>2026-04-18T09:51:26.001Z</time></trkpt><trkpt lat="45.33476376295851" lon="11.732275990973076"><ele>13.0</ele><time>2026-04-18T09:51:27.001Z</time></trkpt><trkpt lat="45.33466877268898" lon="11.732289925186658"><ele>13.0</ele><time>2026-04-18T09:51:28Z</time></trkpt><trkpt lat="45.33457873765761" lon="11.732299731979769"><ele>13.0</ele><time>2026-04-18T09:51:29Z</time></trkpt><trkpt lat="45.33447686541307" lon="11.732309465351223"><ele>13.0</ele><time>2026-04-18T09:51:30Z</time></trkpt><trkpt lat="45.33436641337208" lon="11.732319022536831"><ele>13.0</ele><time>2026-04-18T09:51:31Z</time></trkpt><trkpt lat="45.33424946050677" lon="11.732327841908477"><ele>13.0</ele><time>2026-04-18T09:51:32Z</time></trkpt><trkpt lat="45.33413165792385" lon="11.732334496268141"><ele>13.0</ele><time>2026-04-18T09:51:33Z</time></trkpt><trkpt lat="45.33402279185705" lon="11.732351622262275"><ele>13.0</ele><time>2026-04-18T09:51:34Z</time></trkpt><trkpt lat="45.33390854838776" lon="11.732361894950802"><ele>13.0</ele><time>2026-04-18T09:51:35Z</time></trkpt><trkpt lat="45.333787875298306" lon="11.73237444850528"><ele>13.0</ele><time>2026-04-18T09:51:36Z</time></trkpt><trkpt lat="45.33366570682673" lon="11.732387073786846"><ele>13.0</ele><time>2026-04-18T09:51:37Z</time></trkpt><trkpt lat="45.33354220167677" lon="11.732402999387563"><ele>12.75</ele><time>2026-04-18T09:51:38Z</time></trkpt><trkpt lat="45.33340832888177" lon="11.732407708124523"><ele>12.5</ele><time>2026-04-18T09:51:39Z</time></trkpt><trkpt lat="45.33327168373214" lon="11.732420344519872"><ele>12.25</ele><time>2026-04-18T09:51:40Z</time></trkpt><trkpt lat="45.333130880077796" lon="11.732436845472519"><ele>12.0</ele><time>2026-04-18T09:51:41Z</time></trkpt><trkpt lat="45.332983740860975" lon="11.732455330705738"><ele>12.0</ele><time>2026-04-18T09:51:42Z</time></trkpt><trkpt lat="45.33283634766486" lon="11.732476696115668"><ele>12.0</ele><time>2026-04-18T09:51:43Z</time></trkpt><trkpt lat="45.33268351664553" lon="11.732498620857605"><ele>12.0</ele><time>2026-04-18T09:51:44Z</time></trkpt><trkpt lat="45.33253034408811" lon="11.73251947185111"><ele>12.0</ele><time>2026-04-18T09:51:45Z</time></trkpt><trkpt lat="45.3323763846619" lon="11.73253389537339"><ele>12.0</ele><time>2026-04-18T09:51:46Z</time></trkpt><trkpt lat="45.33222254693528" lon="11.732544631245359"><ele>12.0</ele><time>2026-04-18T09:51:47Z</time></trkpt><trkpt lat="45.33206418961098" lon="11.732556430762694"><ele>12.0</ele><time>2026-04-18T09:51:48Z</time></trkpt><trkpt lat="45.33191622305586" lon="11.732578548643103"><ele>12.0</ele><time>2026-04-18T09:51:49Z</time></trkpt><trkpt lat="45.33178038427123" lon="11.73259051512271"><ele>12.0</ele><time>2026-04-18T09:51:50Z</time></trkpt><trkpt lat="45.33164256508556" lon="11.732589731564541"><ele>12.0</ele><time>2026-04-18T09:51:51Z</time></trkpt><trkpt lat="45.331495090094634" lon="11.73257621923609"><ele>12.25</ele><time>2026-04-18T09:51:52Z</time></trkpt><trkpt lat="45.33134443782297" lon="11.73254310147447"><ele>12.5</ele><time>2026-04-18T09:51:53Z</time></trkpt><trkpt lat="45.331197290862065" lon="11.732503256320006"><ele>12.75</ele><time>2026-04-18T09:51:54Z</time></trkpt><trkpt lat="45.33105952433669" lon="11.732472419641017"><ele>13.0</ele><time>2026-04-18T09:51:55Z</time></trkpt><trkpt lat="45.330927805325764" lon="11.73244367101818"><ele>13.0</ele><time>2026-04-18T09:51:56Z</time></trkpt><trkpt lat="45.33079080020767" lon="11.73241166462986"><ele>13.0</ele><time>2026-04-18T09:51:57Z</time></trkpt><trkpt lat="45.330649445825046" lon="11.732386515348438"><ele>13.0</ele><time>2026-04-18T09:51:58Z</time></trkpt><trkpt lat="45.330504942673855" lon="11.732364478666598"><ele>13.0</ele><time>2026-04-18T09:51:59Z</time></trkpt><trkpt lat="45.330361881816415" lon="11.73233818151861"><ele>13.5</ele><time>2026-04-18T09:52:00Z</time></trkpt><trkpt lat="45.330224804066894" lon="11.732311047547734"><ele>14.0</ele><time>2026-04-18T09:52:01Z</time></trkpt><trkpt lat="45.330088586540505" lon="11.73228688508292"><ele>14.5</ele><time>2026-04-18T09:52:02Z</time></trkpt><trkpt lat="45.32996323542605" lon="11.732250573326763"><ele>15.0</ele><time>2026-04-18T09:52:03Z</time></trkpt><trkpt lat="45.329851977869176" lon="11.732212499765522"><ele>15.0</ele><time>2026-04-18T09:52:04Z</time></trkpt><trkpt lat="45.329759601965215" lon="11.73217274118068"><ele>15.0</ele><time>2026-04-18T09:52:05Z</time></trkpt><trkpt lat="45.32967868700399" lon="11.73214125853144"><ele>15.0</ele><time>2026-04-18T09:52:06Z</time></trkpt><trkpt lat="45.32959653338864" lon="11.732093731950032"><ele>15.0</ele><time>2026-04-18T09:52:07Z</time></trkpt><trkpt lat="45.329506414065456" lon="11.732008238184163"><ele>15.0</ele><time>2026-04-18T09:52:08Z</time></trkpt><trkpt lat="45.32938850985748" lon="11.731939000177743"><ele>14.5</ele><time>2026-04-18T09:52:09Z</time></trkpt><trkpt lat="45.32924597749419" lon="11.731877009400725"><ele>14.0</ele><time>2026-04-18T09:52:10Z</time></trkpt><trkpt lat="45.329120250923715" lon="11.731806860103903"><ele>13.5</ele><time>2026-04-18T09:52:11Z</time></trkpt><trkpt lat="45.32899257454286" lon="11.731737568741899"><ele>13.0</ele><time>2026-04-18T09:52:12Z</time></trkpt><trkpt lat="45.32884753990759" lon="11.731691347192182"><ele>13.0</ele><time>2026-04-18T09:52:13Z</time></trkpt><trkpt lat="45.32870429261629" lon="11.731649969700678"><ele>13.0</ele><time>2026-04-18T09:52:14Z</time></trkpt><trkpt lat="45.328553578171096" lon="11.73161384137036"><ele>13.0</ele><time>2026-04-18T09:52:15Z</time></trkpt><trkpt lat="45.328397494402964" lon="11.731588452558672"><ele>13.0</ele><time>2026-04-18T09:52:16Z</time></trkpt><trkpt lat="45.32824342706004" lon="11.731573489937528"><ele>13.0</ele><time>2026-04-18T09:52:17Z</time></trkpt><trkpt lat="45.32810254361785" lon="11.731558853483204"><ele>13.0</ele><time>2026-04-18T09:52:18Z</time></trkpt><trkpt lat="45.327954030929284" lon="11.731543043221903"><ele>13.0</ele><time>2026-04-18T09:52:19Z</time></trkpt><trkpt lat="45.32780813776895" lon="11.731530174302831"><ele>12.75</ele><time>2026-04-18T09:52:20Z</time></trkpt><trkpt lat="45.32765950136463" lon="11.731527605412706"><ele>12.5</ele><time>2026-04-18T09:52:21Z</time></trkpt><trkpt lat="45.32750609875021" lon="11.731529032725668"><ele>12.25</ele><time>2026-04-18T09:52:22Z</time></trkpt><trkpt lat="45.32736021263754" lon="11.731535684969705"><ele>12.0</ele><time>2026-04-18T09:52:23Z</time></trkpt><trkpt lat="45.32722056532471" lon="11.73155807921194"><ele>12.0</ele><time>2026-04-18T09:52:24Z</time></trkpt><trkpt lat="45.32708461776822" lon="11.731596033468751"><ele>12.0</ele><time>2026-04-18T09:52:25Z</time></trkpt><trkpt lat="45.326950371524276" lon="11.731640396149569"><ele>12.0</ele><time>2026-04-18T09:52:26Z</time></trkpt><trkpt lat="45.32681371519769" lon="11.73168127203783"><ele>12.0</ele><time>2026-04-18T09:52:27Z</time></trkpt><trkpt lat="45.32667848021726" lon="11.731710091431452"><ele>12.0</ele><time>2026-04-18T09:52:28Z</time></trkpt><trkpt lat="45.32654869201239" lon="11.73172542468803"><ele>12.0</ele><time>2026-04-18T09:52:29Z</time></trkpt><trkpt lat="45.32641507904131" lon="11.731724434524086"><ele>12.0</ele><time>2026-04-18T09:52:30Z</time></trkpt><trkpt lat="45.326284462395925" lon="11.731698490091667"><ele>12.0</ele><time>2026-04-18T09:52:31Z</time></trkpt><trkpt lat="45.326164706416655" lon="11.73165539847019"><ele>12.6</ele><time>2026-04-18T09:52:32.001Z</time></trkpt><trkpt lat="45.32606339071741" lon="11.731605699285291"><ele>13.2</ele><time>2026-04-18T09:52:33.001Z</time></trkpt><trkpt lat="45.32597532871937" lon="11.731571687463974"><ele>13.8</ele><time>2026-04-18T09:52:34.001Z</time></trkpt><trkpt lat="45.32589178892646" lon="11.731554758541533"><ele>14.4</ele><time>2026-04-18T09:52:35.001Z</time></trkpt><trkpt lat="45.325811628352625" lon="11.731577311016572"><ele>15.0</ele><time>2026-04-18T09:52:36.001Z</time></trkpt><trkpt lat="45.32573813855557" lon="11.73164480952683"><ele>15.0</ele><time>2026-04-18T09:52:37.001Z</time></trkpt><trkpt lat="45.32567434094822" lon="11.731744453381273"><ele>15.0</ele><time>2026-04-18T09:52:38.001Z</time></trkpt><trkpt lat="45.32562317620173" lon="11.73187510752279"><ele>15.0</ele><time>2026-04-18T09:52:39.001Z</time></trkpt><trkpt lat="45.325581118595636" lon="11.73202370956123"><ele>15.0</ele><time>2026-04-18T09:52:40.001Z</time></trkpt><trkpt lat="45.32553510369924" lon="11.732172851632088"><ele>15.0</ele><time>2026-04-18T09:52:41.001Z</time></trkpt><trkpt lat="45.32547358420123" lon="11.732321592675065"><ele>14.5</ele><time>2026-04-18T09:52:42.001Z</time></trkpt><trkpt lat="45.32539566759452" lon="11.732469530974765"><ele>14.0</ele><time>2026-04-18T09:52:43.001Z</time></trkpt><trkpt lat="45.32529797762931" lon="11.73260631741702"><ele>13.5</ele><time>2026-04-18T09:52:44.001Z</time></trkpt><trkpt lat="45.32519352713319" lon="11.732719841057673"><ele>13.0</ele><time>2026-04-18T09:52:45.001Z</time></trkpt><trkpt lat="45.325088366032986" lon="11.732818403896808"><ele>13.0</ele><time>2026-04-18T09:52:46.001Z</time></trkpt><trkpt lat="45.324995059592375" lon="11.73289225467762"><ele>13.0</ele><time>2026-04-18T09:52:47.001Z</time></trkpt><trkpt lat="45.32490592114832" lon="11.732958668603972"><ele>13.0</ele><time>2026-04-18T09:52:48.001Z</time></trkpt><trkpt lat="45.324815913576764" lon="11.733016310037751"><ele>13.0</ele><time>2026-04-18T09:52:49.001Z</time></trkpt><trkpt lat="45.32472363603765" lon="11.73305272039843"><ele>13.0</ele><time>2026-04-18T09:52:50.001Z</time></trkpt><trkpt lat="45.324611581951636" lon="11.733051046860524"><ele>14.0</ele><time>2026-04-18T09:52:51.001Z</time></trkpt><trkpt lat="45.324470868131854" lon="11.7330485826895"><ele>15.0</ele><time>2026-04-18T09:52:52.001Z</time></trkpt><trkpt lat="45.32431180992376" lon="11.733046807341466"><ele>16.0</ele><time>2026-04-18T09:52:53.001Z</time></trkpt><trkpt lat="45.32415361990777" lon="11.733045041680093"><ele>16.0</ele><time>2026-04-18T09:52:54.001Z</time></trkpt><trkpt lat="45.32400570762875" lon="11.733046687827928"><ele>16.0</ele><time>2026-04-18T09:52:55.001Z</time></trkpt><trkpt lat="45.32386249823312" lon="11.733048577135177"><ele>16.0</ele><time>2026-04-18T09:52:56.001Z</time></trkpt><trkpt lat="45.32371922362209" lon="11.733050467302041"><ele>16.0</ele><time>2026-04-18T09:52:57.001Z</time></trkpt><trkpt lat="45.32358569483752" lon="11.733067438538129"><ele>16.25</ele><time>2026-04-18T09:52:58.001Z</time></trkpt><trkpt lat="45.32345405181512" lon="11.733052350725602"><ele>16.5</ele><time>2026-04-18T09:52:59.001Z</time></trkpt><trkpt lat="45.32332746465811" lon="11.733051839768617"><ele>16.75</ele><time>2026-04-18T09:53:00.001Z</time></trkpt><trkpt lat="45.32320763310164" lon="11.733044607871701"><ele>17.0</ele><time>2026-04-18T09:53:01.001Z</time></trkpt><trkpt lat="45.323094191240195" lon="11.732979905559132"><ele>19.8</ele><time>2026-04-18T09:53:02.001Z</time></trkpt><trkpt lat="45.32298020855525" lon="11.732924504598117"><ele>22.6</ele><time>2026-04-18T09:53:03.001Z</time></trkpt><trkpt lat="45.322869567704316" lon="11.732890601290526"><ele>25.400000000000002</ele><time>2026-04-18T09:53:04.001Z</time></trkpt><trkpt lat="45.322767535567394" lon="11.73283340265109"><ele>28.2</ele><time>2026-04-18T09:53:05.001Z</time></trkpt><trkpt lat="45.32266914872637" lon="11.732791478375159"><ele>31.0</ele><time>2026-04-18T09:53:06.001Z</time></trkpt><trkpt lat="45.322575244560056" lon="11.732787993095327"><ele>31.0</ele><time>2026-04-18T09:53:07.001Z</time></trkpt><trkpt lat="45.32249611134677" lon="11.732830983668366"><ele>31.0</ele><time>2026-04-18T09:53:08.001Z</time></trkpt><trkpt lat="45.32244454214027" lon="11.732906842029259"><ele>31.0</ele><time>2026-04-18T09:53:09.001Z</time></trkpt><trkpt lat="45.32242227529951" lon="11.73309758865213"><ele>31.0</ele><time>2026-04-18T09:53:10.001Z</time></trkpt><trkpt lat="45.322414709897984" lon="11.73322871667606"><ele>31.0</ele><time>2026-04-18T09:53:11.001Z</time></trkpt><trkpt lat="45.322399103190634" lon="11.733354430880523"><ele>31.000000000000004</ele><time>2026-04-18T09:53:12.001Z</time></trkpt><trkpt lat="45.32238394624827" lon="11.733492043168274"><ele>31.0</ele><time>2026-04-18T09:53:13.001Z</time></trkpt><trkpt lat="45.32236699913987" lon="11.733617614572617"><ele>31.0</ele><time>2026-04-18T09:53:14.001Z</time></trkpt><trkpt lat="45.322347169109236" lon="11.733712063230648"><ele>31.0</ele><time>2026-04-18T09:53:15.001Z</time></trkpt><trkpt lat="45.322323274306115" lon="11.733799536106979"><ele>31.000000000000004</ele><time>2026-04-18T09:53:16.001Z</time></trkpt><trkpt lat="45.32223758755802" lon="11.73390791588459"><ele>31.0</ele><time>2026-04-18T09:53:18.001Z</time></trkpt><trkpt lat="45.322170522184344" lon="11.733896282969317"><ele>34.0</ele><time>2026-04-18T09:53:19.001Z</time></trkpt><trkpt lat="45.3220748962425" lon="11.733833403372872"><ele>37.0</ele><time>2026-04-18T09:53:20.001Z</time></trkpt><trkpt lat="45.322057595569305" lon="11.733689116906827"><ele>40.0</ele><time>2026-04-18T09:53:21.001Z</time></trkpt><trkpt lat="45.32205191830151" lon="11.733546871353136"><ele>43.0</ele><time>2026-04-18T09:53:22.001Z</time></trkpt><trkpt lat="45.32204767647729" lon="11.733382032208148"><ele>46.0</ele><time>2026-04-18T09:53:23.001Z</time></trkpt><trkpt lat="45.322038659604225" lon="11.733220084842134"><ele>46.0</ele><time>2026-04-18T09:53:25.001Z</time></trkpt><trkpt lat="45.3219605755305" lon="11.733102654589096"><ele>46.0</ele><time>2026-04-18T09:53:27.001Z</time></trkpt><trkpt lat="45.32187434577964" lon="11.733073220655138"><ele>46.0</ele><time>2026-04-18T09:53:28.001Z</time></trkpt><trkpt lat="45.32179299490974" lon="11.733115044466226"><ele>46.0</ele><time>2026-04-18T09:53:29.001Z</time></trkpt><trkpt lat="45.321750480434126" lon="11.733278072125177"><ele>46.0</ele><time>2026-04-18T09:53:30.001Z</time></trkpt><trkpt lat="45.32176201418843" lon="11.733432525169972"><ele>46.333333333333336</ele><time>2026-04-18T09:53:31.001Z</time></trkpt><trkpt lat="45.321814158970135" lon="11.733567816098562"><ele>46.66666666666667</ele><time>2026-04-18T09:53:32.001Z</time></trkpt><trkpt lat="45.32183869643145" lon="11.733678456589677"><ele>47.0</ele><time>2026-04-18T09:53:33.001Z</time></trkpt><trkpt lat="45.321851479523644" lon="11.73377345169902"><ele>47.333333333333336</ele><time>2026-04-18T09:53:34Z</time></trkpt><trkpt lat="45.321858974670704" lon="11.73386579100996"><ele>47.666666666666664</ele><time>2026-04-18T09:53:35Z</time></trkpt><trkpt lat="45.321862400966104" lon="11.73396172898466"><ele>48.0</ele><time>2026-04-18T09:53:36Z</time></trkpt><trkpt lat="45.32177224950452" lon="11.734063861006382"><ele>48.0</ele><time>2026-04-18T09:53:38Z</time></trkpt><trkpt lat="45.32165861000015" lon="11.733970898266357"><ele>48.0</ele><time>2026-04-18T09:53:40Z</time></trkpt><trkpt lat="45.321644659537355" lon="11.733882322837319"><ele>48.0</ele><time>2026-04-18T09:53:41Z</time></trkpt><trkpt lat="45.32164736017288" lon="11.733768433929566"><ele>48.0</ele><time>2026-04-18T09:53:42Z</time></trkpt><trkpt lat="45.32162886548179" lon="11.733598013100508"><ele>48.0</ele><time>2026-04-18T09:53:43Z</time></trkpt><trkpt lat="45.321605806081244" lon="11.73345381605459"><ele>47.666666666666664</ele><time>2026-04-18T09:53:44Z</time></trkpt><trkpt lat="45.32159048057004" lon="11.733336664535607"><ele>47.333333333333336</ele><time>2026-04-18T09:53:45Z</time></trkpt><trkpt lat="45.32156939675188" lon="11.733234193541787"><ele>47.0</ele><time>2026-04-18T09:53:46Z</time></trkpt><trkpt lat="45.321521864148345" lon="11.733147992936207"><ele>46.66666666666667</ele><time>2026-04-18T09:53:47Z</time></trkpt><trkpt lat="45.321464889003515" lon="11.733067426450308"><ele>46.333333333333336</ele><time>2026-04-18T09:53:48Z</time></trkpt><trkpt lat="45.32138427807978" lon="11.733069997202511"><ele>46.0</ele><time>2026-04-18T09:53:49Z</time></trkpt><trkpt lat="45.321316482361325" lon="11.733066253284166"><ele>46.4</ele><time>2026-04-18T09:53:50Z</time></trkpt><trkpt lat="45.321244408541936" lon="11.733198730401938"><ele>46.8</ele><time>2026-04-18T09:53:51Z</time></trkpt><trkpt lat="45.32127434828102" lon="11.733364479398558"><ele>47.199999999999996</ele><time>2026-04-18T09:53:52Z</time></trkpt><trkpt lat="45.321317848289155" lon="11.733456185013244"><ele>47.599999999999994</ele><time>2026-04-18T09:53:53Z</time></trkpt><trkpt lat="45.321364943858335" lon="11.733545789853588"><ele>48.0</ele><time>2026-04-18T09:53:54Z</time></trkpt><trkpt lat="45.32141385667191" lon="11.733693416485723"><ele>50.599999999999994</ele><time>2026-04-18T09:53:56Z</time></trkpt><trkpt lat="45.32139109503315" lon="11.733787350773431"><ele>53.199999999999996</ele><time>2026-04-18T09:53:58Z</time></trkpt><trkpt lat="45.32125727612396" lon="11.733772649732861"><ele>55.8</ele><time>2026-04-18T09:54:00Z</time></trkpt><trkpt lat="45.321182467104585" lon="11.733694975491463"><ele>58.4</ele><time>2026-04-18T09:54:01Z</time></trkpt><trkpt lat="45.3210657250912" lon="11.733596041711898"><ele>61.0</ele><time>2026-04-18T09:54:02Z</time></trkpt><trkpt lat="45.320944852992305" lon="11.733513663252825"><ele>61.0</ele><time>2026-04-18T09:54:03Z</time></trkpt><trkpt lat="45.32084183868315" lon="11.733487310526824"><ele>60.99999999999999</ele><time>2026-04-18T09:54:04Z</time></trkpt><trkpt lat="45.32075716110242" lon="11.733452623100678"><ele>60.99999999999999</ele><time>2026-04-18T09:54:05Z</time></trkpt><trkpt lat="45.320664754543785" lon="11.733421002601936"><ele>61.0</ele><time>2026-04-18T09:54:06Z</time></trkpt><trkpt lat="45.3205784419066" lon="11.73336056514064"><ele>61.0</ele><time>2026-04-18T09:54:07Z</time></trkpt><trkpt lat="45.32046828521179" lon="11.733300494830651"><ele>61.599999999999994</ele><time>2026-04-18T09:54:08Z</time></trkpt><trkpt lat="45.32036736000066" lon="11.733251223669571"><ele>62.199999999999996</ele><time>2026-04-18T09:54:09Z</time></trkpt><trkpt lat="45.32026424859794" lon="11.733219414544788"><ele>62.800000000000004</ele><time>2026-04-18T09:54:10Z</time></trkpt><trkpt lat="45.32017898664534" lon="11.733164129634066"><ele>63.400000000000006</ele><time>2026-04-18T09:54:11Z</time></trkpt><trkpt lat="45.32007436044362" lon="11.733122469049686"><ele>64.0</ele><time>2026-04-18T09:54:12Z</time></trkpt><trkpt lat="45.31996287460503" lon="11.733145182225629"><ele>64.0</ele><time>2026-04-18T09:54:13Z</time></trkpt><trkpt lat="45.31984166851799" lon="11.733137958171936"><ele>64.0</ele><time>2026-04-18T09:54:14Z</time></trkpt><trkpt lat="45.31974615677357" lon="11.733164138861353"><ele>64.0</ele><time>2026-04-18T09:54:15Z</time></trkpt><trkpt lat="45.31963803408979" lon="11.733135392161806"><ele>64.0</ele><time>2026-04-18T09:54:16Z</time></trkpt><trkpt lat="45.319552451078046" lon="11.73311632572409"><ele>64.0</ele><time>2026-04-18T09:54:17Z</time></trkpt><trkpt lat="45.319478572558644" lon="11.73309920706281"><ele>62.49999999999999</ele><time>2026-04-18T09:54:18Z</time></trkpt><trkpt lat="45.31940885837119" lon="11.733036872189409"><ele>61.0</ele><time>2026-04-18T09:54:19Z</time></trkpt><trkpt lat="45.319347608872704" lon="11.732978635284145"><ele>59.5</ele><time>2026-04-18T09:54:20Z</time></trkpt><trkpt lat="45.31933036328802" lon="11.732854224590248"><ele>58.0</ele><time>2026-04-18T09:54:21Z</time></trkpt><trkpt lat="45.31928868749033" lon="11.732752149289619"><ele>56.49999999999999</ele><time>2026-04-18T09:54:22Z</time></trkpt><trkpt lat="45.31926363700406" lon="11.732624338184896"><ele>55.0</ele><time>2026-04-18T09:54:23Z</time></trkpt><trkpt lat="45.319215015255885" lon="11.732544684776476"><ele>54.99999999999999</ele><time>2026-04-18T09:54:24Z</time></trkpt><trkpt lat="45.31914586118569" lon="11.732490796525335"><ele>55.0</ele><time>2026-04-18T09:54:25Z</time></trkpt><trkpt lat="45.31906174354857" lon="11.73247547595854"><ele>55.0</ele><time>2026-04-18T09:54:26Z</time></trkpt><trkpt lat="45.3189760674489" lon="11.732521835414067"><ele>55.0</ele><time>2026-04-18T09:54:27Z</time></trkpt><trkpt lat="45.31889493436106" lon="11.732530954301877"><ele>54.99999999999999</ele><time>2026-04-18T09:54:28Z</time></trkpt><trkpt lat="45.31882995640915" lon="11.732543447056683"><ele>55.0</ele><time>2026-04-18T09:54:29Z</time></trkpt><trkpt lat="45.31871467435878" lon="11.732511275588907"><ele>53.33333333333333</ele><time>2026-04-18T09:54:31Z</time></trkpt><trkpt lat="45.31867072408128" lon="11.732420970003815"><ele>51.666666666666664</ele><time>2026-04-18T09:54:32Z</time></trkpt><trkpt lat="45.318649565679706" lon="11.732312111162251"><ele>50.0</ele><time>2026-04-18T09:54:33Z</time></trkpt><trkpt lat="45.31864627311869" lon="11.73217676553101"><ele>48.33333333333333</ele><time>2026-04-18T09:54:34Z</time></trkpt><trkpt lat="45.3186418511399" lon="11.732049669079814"><ele>46.666666666666664</ele><time>2026-04-18T09:54:35Z</time></trkpt><trkpt lat="45.318612029439414" lon="11.731942900323546"><ele>45.0</ele><time>2026-04-18T09:54:36Z</time></trkpt><trkpt lat="45.31854452216542" lon="11.731864872953624"><ele>45.0</ele><time>2026-04-18T09:54:37Z</time></trkpt><trkpt lat="45.318461627868224" lon="11.73181040554726"><ele>45.0</ele><time>2026-04-18T09:54:38Z</time></trkpt><trkpt lat="45.31836265712051" lon="11.731755340108423"><ele>45.0</ele><time>2026-04-18T09:54:39Z</time></trkpt><trkpt lat="45.318254774784876" lon="11.731686489563781"><ele>45.0</ele><time>2026-04-18T09:54:40Z</time></trkpt><trkpt lat="45.318147163185934" lon="11.731640215582566"><ele>45.0</ele><time>2026-04-18T09:54:41.001Z</time></trkpt><trkpt lat="45.31804551248433" lon="11.731575061951032"><ele>41.4</ele><time>2026-04-18T09:54:42.001Z</time></trkpt><trkpt lat="45.31795957672597" lon="11.73148903305413"><ele>37.8</ele><time>2026-04-18T09:54:43.001Z</time></trkpt><trkpt lat="45.31788376158408" lon="11.731418619869283"><ele>34.2</ele><time>2026-04-18T09:54:44.001Z</time></trkpt><trkpt lat="45.317840487449864" lon="11.731281940185115"><ele>30.6</ele><time>2026-04-18T09:54:45.001Z</time></trkpt><trkpt lat="45.317803147189835" lon="11.73116236947884"><ele>27.0</ele><time>2026-04-18T09:54:46.001Z</time></trkpt><trkpt lat="45.31777609926731" lon="11.731062296400522"><ele>27.0</ele><time>2026-04-18T09:54:47.001Z</time></trkpt><trkpt lat="45.317742991883904" lon="11.730980659110635"><ele>27.0</ele><time>2026-04-18T09:54:48.001Z</time></trkpt><trkpt lat="45.31766628861937" lon="11.730932923195915"><ele>27.0</ele><time>2026-04-18T09:54:49.001Z</time></trkpt><trkpt lat="45.31758447816608" lon="11.730921780069307"><ele>27.0</ele><time>2026-04-18T09:54:50.001Z</time></trkpt><trkpt lat="45.3174995105078" lon="11.730976143641264"><ele>27.0</ele><time>2026-04-18T09:54:51.001Z</time></trkpt><trkpt lat="45.31741010362526" lon="11.731053161234204"><ele>27.0</ele><time>2026-04-18T09:54:52.001Z</time></trkpt><trkpt lat="45.31732476442866" lon="11.731144292171322"><ele>25.25</ele><time>2026-04-18T09:54:53.001Z</time></trkpt><trkpt lat="45.3172322802143" lon="11.7312625885476"><ele>23.5</ele><time>2026-04-18T09:54:54.001Z</time></trkpt><trkpt lat="45.31713263020237" lon="11.731345676267463"><ele>21.75</ele><time>2026-04-18T09:54:55.001Z</time></trkpt><trkpt lat="45.31702951932091" lon="11.73143467251889"><ele>20.0</ele><time>2026-04-18T09:54:56.001Z</time></trkpt><trkpt lat="45.316924407313174" lon="11.731508244403333"><ele>20.0</ele><time>2026-04-18T09:54:57.001Z</time></trkpt><trkpt lat="45.31681705666715" lon="11.73158374537187"><ele>20.0</ele><time>2026-04-18T09:54:58.001Z</time></trkpt><trkpt lat="45.31670045068538" lon="11.731633640528937"><ele>20.0</ele><time>2026-04-18T09:54:59.001Z</time></trkpt><trkpt lat="45.31658510225916" lon="11.73165525809557"><ele>20.0</ele><time>2026-04-18T09:55:00.001Z</time></trkpt><trkpt lat="45.31647501848362" lon="11.73164572587392"><ele>18.75</ele><time>2026-04-18T09:55:01.001Z</time></trkpt><trkpt lat="45.31635167518892" lon="11.731605870740667"><ele>17.5</ele><time>2026-04-18T09:55:02.001Z</time></trkpt><trkpt lat="45.316230795704655" lon="11.731510075738683"><ele>16.25</ele><time>2026-04-18T09:55:03.001Z</time></trkpt><trkpt lat="45.316116621743" lon="11.73140973461541"><ele>15.0</ele><time>2026-04-18T09:55:04.001Z</time></trkpt><trkpt lat="45.31600075933047" lon="11.731289380781313"><ele>15.0</ele><time>2026-04-18T09:55:05.001Z</time></trkpt><trkpt lat="45.31588290665232" lon="11.73118485459123"><ele>15.0</ele><time>2026-04-18T09:55:06.001Z</time></trkpt><trkpt lat="45.3157676617781" lon="11.731082224782606"><ele>15.0</ele><time>2026-04-18T09:55:07.001Z</time></trkpt><trkpt lat="45.31565200901181" lon="11.730979005053733"><ele>15.0</ele><time>2026-04-18T09:55:08.001Z</time></trkpt><trkpt lat="45.31552930621208" lon="11.730878965374384"><ele>15.0</ele><time>2026-04-18T09:55:09.001Z</time></trkpt><trkpt lat="45.315399543748924" lon="11.73080099520667"><ele>15.0</ele><time>2026-04-18T09:55:10.001Z</time></trkpt><trkpt lat="45.31526832913493" lon="11.730741741813489"><ele>15.0</ele><time>2026-04-18T09:55:11.001Z</time></trkpt><trkpt lat="45.31512541089125" lon="11.730713041696603"><ele>15.0</ele><time>2026-04-18T09:55:12.001Z</time></trkpt><trkpt lat="45.31497917327623" lon="11.73068298355943"><ele>15.0</ele><time>2026-04-18T09:55:13.001Z</time></trkpt><trkpt lat="45.314845848116626" lon="11.730652789842"><ele>15.0</ele><time>2026-04-18T09:55:14.001Z</time></trkpt><trkpt lat="45.31470624819195" lon="11.730559305548885"><ele>15.0</ele><time>2026-04-18T09:55:15.001Z</time></trkpt><trkpt lat="45.31456145798552" lon="11.73042278742002"><ele>16.666666666666668</ele><time>2026-04-18T09:55:16.001Z</time></trkpt><trkpt lat="45.314384020003374" lon="11.730257507688773"><ele>18.333333333333336</ele><time>2026-04-18T09:55:17.001Z</time></trkpt><trkpt lat="45.31418922466432" lon="11.730076071759681"><ele>20.0</ele><time>2026-04-18T09:55:18.001Z</time></trkpt><trkpt lat="45.314027176483044" lon="11.729943059168916"><ele>24.666666666666668</ele><time>2026-04-18T09:55:19.001Z</time></trkpt><trkpt lat="45.31389167571125" lon="11.729812284549078"><ele>29.333333333333336</ele><time>2026-04-18T09:55:20.001Z</time></trkpt><trkpt lat="45.31377835093063" lon="11.729690985588983"><ele>34.0</ele><time>2026-04-18T09:55:21.001Z</time></trkpt><trkpt lat="45.3136851066466" lon="11.729523209354385"><ele>32.5</ele><time>2026-04-18T09:55:22.001Z</time></trkpt><trkpt lat="45.31363689164183" lon="11.729309891832536"><ele>31.0</ele><time>2026-04-18T09:55:23.001Z</time></trkpt><trkpt lat="45.313627980604444" lon="11.729120782648708"><ele>29.5</ele><time>2026-04-18T09:55:24.001Z</time></trkpt><trkpt lat="45.313611687382625" lon="11.728973576104519"><ele>28.0</ele><time>2026-04-18T09:55:25.001Z</time></trkpt><trkpt lat="45.31357413867394" lon="11.72886815193069"><ele>28.0</ele><time>2026-04-18T09:55:26.001Z</time></trkpt><trkpt lat="45.31350521477327" lon="11.72881285283848"><ele>27.999999999999996</ele><time>2026-04-18T09:55:27.001Z</time></trkpt><trkpt lat="45.313417481498156" lon="11.728849599440942"><ele>27.999999999999996</ele><time>2026-04-18T09:55:28.001Z</time></trkpt><trkpt lat="45.31336512204758" lon="11.728941503621089"><ele>28.0</ele><time>2026-04-18T09:55:29.001Z</time></trkpt><trkpt lat="45.31336299779259" lon="11.729087841789886"><ele>28.0</ele><time>2026-04-18T09:55:30.001Z</time></trkpt><trkpt lat="45.3133737863635" lon="11.729268751238164"><ele>28.5</ele><time>2026-04-18T09:55:31.001Z</time></trkpt><trkpt lat="45.31335600098929" lon="11.729413456424655"><ele>29.0</ele><time>2026-04-18T09:55:32.001Z</time></trkpt><trkpt lat="45.31328564112489" lon="11.729521114784102"><ele>29.5</ele><time>2026-04-18T09:55:33.001Z</time></trkpt><trkpt lat="45.31317326509607" lon="11.729574437415911"><ele>30.0</ele><time>2026-04-18T09:55:34.001Z</time></trkpt><trkpt lat="45.3130184286881" lon="11.72959774366642"><ele>30.0</ele><time>2026-04-18T09:55:35.001Z</time></trkpt><trkpt lat="45.3128482853726" lon="11.729624557680806"><ele>30.0</ele><time>2026-04-18T09:55:36.001Z</time></trkpt><trkpt lat="45.312684391941254" lon="11.729606343140395"><ele>30.0</ele><time>2026-04-18T09:55:37.001Z</time></trkpt><trkpt lat="45.312514589097546" lon="11.729573148830104"><ele>30.0</ele><time>2026-04-18T09:55:38.001Z</time></trkpt><trkpt lat="45.31230773781922" lon="11.72959791413463"><ele>30.0</ele><time>2026-04-18T09:55:39.001Z</time></trkpt><trkpt lat="45.312071413720055" lon="11.729676712569875"><ele>27.0</ele><time>2026-04-18T09:55:40Z</time></trkpt><trkpt lat="45.3118481272705" lon="11.729782237896485"><ele>24.0</ele><time>2026-04-18T09:55:41Z</time></trkpt><trkpt lat="45.311649002812594" lon="11.729880798399883"><ele>21.0</ele><time>2026-04-18T09:55:42Z</time></trkpt><trkpt lat="45.31146060607428" lon="11.729976496720063"><ele>22.0</ele><time>2026-04-18T09:55:43Z</time></trkpt><trkpt lat="45.31128243479032" lon="11.73007803270787"><ele>23.0</ele><time>2026-04-18T09:55:44Z</time></trkpt><trkpt lat="45.31111877833267" lon="11.73017159918478"><ele>24.0</ele><time>2026-04-18T09:55:45Z</time></trkpt><trkpt lat="45.310955976835" lon="11.73022940899509"><ele>22.0</ele><time>2026-04-18T09:55:46Z</time></trkpt><trkpt lat="45.310788457919564" lon="11.730251625215447"><ele>20.0</ele><time>2026-04-18T09:55:47Z</time></trkpt><trkpt lat="45.310627721757854" lon="11.730232957531062"><ele>18.0</ele><time>2026-04-18T09:55:48Z</time></trkpt><trkpt lat="45.31048538555574" lon="11.730172660144737"><ele>18.0</ele><time>2026-04-18T09:55:49Z</time></trkpt><trkpt lat="45.31034909246183" lon="11.730095127983729"><ele>18.0</ele><time>2026-04-18T09:55:50Z</time></trkpt><trkpt lat="45.31020891107948" lon="11.730022732842357"><ele>18.0</ele><time>2026-04-18T09:55:51Z</time></trkpt><trkpt lat="45.31008039985876" lon="11.729963781779457"><ele>18.0</ele><time>2026-04-18T09:55:52Z</time></trkpt><trkpt lat="45.30996117530359" lon="11.729906740321926"><ele>18.0</ele><time>2026-04-18T09:55:53Z</time></trkpt><trkpt lat="45.3098565485243" lon="11.729842098633087"><ele>18.0</ele><time>2026-04-18T09:55:54Z</time></trkpt><trkpt lat="45.30976504356284" lon="11.729771362150366"><ele>18.0</ele><time>2026-04-18T09:55:55Z</time></trkpt><trkpt lat="45.30968053689765" lon="11.729703455398901"><ele>18.0</ele><time>2026-04-18T09:55:56Z</time></trkpt><trkpt lat="45.30959739769694" lon="11.729633691604286"><ele>18.0</ele><time>2026-04-18T09:55:57Z</time></trkpt><trkpt lat="45.30951399244083" lon="11.729550576413075"><ele>18.6</ele><time>2026-04-18T09:55:58Z</time></trkpt><trkpt lat="45.30942772891051" lon="11.729450233770518"><ele>19.200000000000003</ele><time>2026-04-18T09:55:59Z</time></trkpt><trkpt lat="45.30933730344399" lon="11.729342673558605"><ele>19.8</ele><time>2026-04-18T09:56:00Z</time></trkpt><trkpt lat="45.30925239709378" lon="11.729240429242097"><ele>20.400000000000002</ele><time>2026-04-18T09:56:01Z</time></trkpt><trkpt lat="45.30916793302924" lon="11.729142753686098"><ele>21.0</ele><time>2026-04-18T09:56:02Z</time></trkpt><trkpt lat="45.309084335680005" lon="11.729048240076052"><ele>21.4</ele><time>2026-04-18T09:56:03Z</time></trkpt><trkpt lat="45.30901031898505" lon="11.728960385290668"><ele>21.8</ele><time>2026-04-18T09:56:04Z</time></trkpt><trkpt lat="45.30894490940392" lon="11.728870703923183"><ele>22.2</ele><time>2026-04-18T09:56:05Z</time></trkpt><trkpt lat="45.30888058579957" lon="11.72877448359888"><ele>22.599999999999998</ele><time>2026-04-18T09:56:06Z</time></trkpt><trkpt lat="45.30882310183772" lon="11.728699451431462"><ele>23.0</ele><time>2026-04-18T09:56:07Z</time></trkpt><trkpt lat="45.308735387543344" lon="11.728587811978432"><ele>23.0</ele><time>2026-04-18T09:56:09Z</time></trkpt><trkpt lat="45.30866769733403" lon="11.72852212081262"><ele>23.0</ele><time>2026-04-18T09:56:11Z</time></trkpt><trkpt lat="45.30861060059404" lon="11.728480302520595"><ele>23.0</ele><time>2026-04-18T09:56:14Z</time></trkpt><trkpt lat="45.30853203996178" lon="11.72842248126846"><ele>23.0</ele><time>2026-04-18T09:56:17Z</time></trkpt><trkpt lat="45.308458624558945" lon="11.72843735836148"><ele>23.0</ele><time>2026-04-18T09:56:19Z</time></trkpt><trkpt lat="45.30841676709224" lon="11.728555489492487"><ele>23.0</ele><time>2026-04-18T09:56:21Z</time></trkpt><trkpt lat="45.30846603131898" lon="11.728633209571765"><ele>23.25</ele><time>2026-04-18T09:56:23Z</time></trkpt><trkpt lat="45.308549667492215" lon="11.728473549596961"><ele>23.5</ele><time>2026-04-18T09:56:26Z</time></trkpt><trkpt lat="45.30850228315639" lon="11.728368782207262"><ele>23.75</ele><time>2026-04-18T09:56:27Z</time></trkpt><trkpt lat="45.30841928231487" lon="11.728241664648554"><ele>24.0</ele><time>2026-04-18T09:56:28Z</time></trkpt><trkpt lat="45.30834232492071" lon="11.72812191167056"><ele>24.0</ele><time>2026-04-18T09:56:29Z</time></trkpt><trkpt lat="45.30827883786134" lon="11.728011231261723"><ele>24.0</ele><time>2026-04-18T09:56:30Z</time></trkpt><trkpt lat="45.308194923303425" lon="11.727906889838813"><ele>24.0</ele><time>2026-04-18T09:56:31Z</time></trkpt><trkpt lat="45.30810902546135" lon="11.72778486132193"><ele>24.0</ele><time>2026-04-18T09:56:32Z</time></trkpt><trkpt lat="45.30802170017996" lon="11.727650602604184"><ele>24.2</ele><time>2026-04-18T09:56:33Z</time></trkpt><trkpt lat="45.30793852979699" lon="11.727556816903348"><ele>24.4</ele><time>2026-04-18T09:56:34Z</time></trkpt><trkpt lat="45.30787427125359" lon="11.727466029464338"><ele>24.6</ele><time>2026-04-18T09:56:35Z</time></trkpt><trkpt lat="45.3078201229859" lon="11.727397524246044"><ele>24.8</ele><time>2026-04-18T09:56:37Z</time></trkpt><trkpt lat="45.307729531751264" lon="11.727255553140445"><ele>25.0</ele><time>2026-04-18T09:56:39Z</time></trkpt><trkpt lat="45.30766379753402" lon="11.727158847064574"><ele>25.0</ele><time>2026-04-18T09:56:40Z</time></trkpt><trkpt lat="45.30759975423814" lon="11.727054647617006"><ele>25.0</ele><time>2026-04-18T09:56:41Z</time></trkpt><trkpt lat="45.30753945840912" lon="11.726953307227852"><ele>25.0</ele><time>2026-04-18T09:56:42Z</time></trkpt><trkpt lat="45.30746784948034" lon="11.726862543376567"><ele>25.0</ele><time>2026-04-18T09:56:43Z</time></trkpt><trkpt lat="45.30741072420636" lon="11.726774119207679"><ele>25.0</ele><time>2026-04-18T09:56:44Z</time></trkpt><trkpt lat="45.30731898671506" lon="11.726664703430115"><ele>25.5</ele><time>2026-04-18T09:56:46Z</time></trkpt><trkpt lat="45.30725412538755" lon="11.726620788001318"><ele>26.0</ele><time>2026-04-18T09:56:47.001Z</time></trkpt><trkpt lat="45.30715148461672" lon="11.726555996689097"><ele>26.5</ele><time>2026-04-18T09:56:48.001Z</time></trkpt><trkpt lat="45.30703074865833" lon="11.726485531166983"><ele>27.0</ele><time>2026-04-18T09:56:49.001Z</time></trkpt><trkpt lat="45.30689428414689" lon="11.72634751130411"><ele>27.0</ele><time>2026-04-18T09:56:50.001Z</time></trkpt><trkpt lat="45.3067732072231" lon="11.726210472374428"><ele>27.0</ele><time>2026-04-18T09:56:51.001Z</time></trkpt><trkpt lat="45.30663574773027" lon="11.726075811966204"><ele>27.0</ele><time>2026-04-18T09:56:52.001Z</time></trkpt><trkpt lat="45.30649783982758" lon="11.725948853097387"><ele>27.25</ele><time>2026-04-18T09:56:53.001Z</time></trkpt><trkpt lat="45.30637352480783" lon="11.725829592276943"><ele>27.5</ele><time>2026-04-18T09:56:54.001Z</time></trkpt><trkpt lat="45.30625680044664" lon="11.725716792381965"><ele>27.75</ele><time>2026-04-18T09:56:55.001Z</time></trkpt><trkpt lat="45.306146064595566" lon="11.725609515780882"><ele>28.0</ele><time>2026-04-18T09:56:56.001Z</time></trkpt><trkpt lat="45.30603013739355" lon="11.72549816383626"><ele>28.0</ele><time>2026-04-18T09:56:57.001Z</time></trkpt><trkpt lat="45.30590647959275" lon="11.725380083370483"><ele>28.0</ele><time>2026-04-18T09:56:58.001Z</time></trkpt><trkpt lat="45.30578497548597" lon="11.725243361001475"><ele>28.0</ele><time>2026-04-18T09:56:59.001Z</time></trkpt><trkpt lat="45.30566936942121" lon="11.72508985264145"><ele>28.333333333333336</ele><time>2026-04-18T09:57:00.001Z</time></trkpt><trkpt lat="45.30555602558209" lon="11.724923653510208"><ele>28.666666666666664</ele><time>2026-04-18T09:57:01.001Z</time></trkpt><trkpt lat="45.30544349397406" lon="11.724759541411485"><ele>29.0</ele><time>2026-04-18T09:57:02.001Z</time></trkpt><trkpt lat="45.30533669749738" lon="11.724592092614111"><ele>29.0</ele><time>2026-04-18T09:57:03.001Z</time></trkpt><trkpt lat="45.30524183684418" lon="11.724421829701301"><ele>29.0</ele><time>2026-04-18T09:57:04.001Z</time></trkpt><trkpt lat="45.305161893913485" lon="11.724240058896596"><ele>29.0</ele><time>2026-04-18T09:57:05.001Z</time></trkpt><trkpt lat="45.305099969429314" lon="11.724036100408904"><ele>29.666666666666664</ele><time>2026-04-18T09:57:06.001Z</time></trkpt><trkpt lat="45.30505163741925" lon="11.723823779801455"><ele>30.333333333333336</ele><time>2026-04-18T09:57:07.001Z</time></trkpt><trkpt lat="45.30501991930617" lon="11.723607580624835"><ele>31.0</ele><time>2026-04-18T09:57:08.001Z</time></trkpt><trkpt lat="45.304991058599995" lon="11.723402668833572"><ele>32.0</ele><time>2026-04-18T09:57:09.001Z</time></trkpt><trkpt lat="45.3049464797634" lon="11.723198954240896"><ele>33.0</ele><time>2026-04-18T09:57:10.001Z</time></trkpt><trkpt lat="45.304875012375824" lon="11.723002471305067"><ele>34.0</ele><time>2026-04-18T09:57:11.001Z</time></trkpt><trkpt lat="45.304783304554356" lon="11.722823438108646"><ele>34.5</ele><time>2026-04-18T09:57:12.001Z</time></trkpt><trkpt lat="45.30468225026784" lon="11.722673110854094"><ele>35.0</ele><time>2026-04-18T09:57:13.001Z</time></trkpt><trkpt lat="45.304620910675524" lon="11.722515086851676"><ele>35.5</ele><time>2026-04-18T09:57:14.001Z</time></trkpt><trkpt lat="45.30456951883312" lon="11.722347791389797"><ele>36.0</ele><time>2026-04-18T09:57:15.001Z</time></trkpt><trkpt lat="45.30453847316452" lon="11.722145333866939"><ele>36.333333333333336</ele><time>2026-04-18T09:57:16.001Z</time></trkpt><trkpt lat="45.30453609027676" lon="11.721894237786985"><ele>36.66666666666667</ele><time>2026-04-18T09:57:17.001Z</time></trkpt><trkpt lat="45.30453990643635" lon="11.72160960243541"><ele>37.0</ele><time>2026-04-18T09:57:18.001Z</time></trkpt><trkpt lat="45.30453903880911" lon="11.721294052974596"><ele>37.333333333333336</ele><time>2026-04-18T09:57:19.001Z</time></trkpt><trkpt lat="45.304525621911736" lon="11.721055408627548"><ele>37.666666666666664</ele><time>2026-04-18T09:57:20.001Z</time></trkpt><trkpt lat="45.304532260267194" lon="11.72078872975505"><ele>38.0</ele><time>2026-04-18T09:57:21.001Z</time></trkpt><trkpt lat="45.30453726788524" lon="11.720527378547164"><ele>38.0</ele><time>2026-04-18T09:57:22.001Z</time></trkpt><trkpt lat="45.304526365057185" lon="11.720275063197493"><ele>38.0</ele><time>2026-04-18T09:57:23.001Z</time></trkpt><trkpt lat="45.304504791032834" lon="11.720033542944224"><ele>38.0</ele><time>2026-04-18T09:57:24.001Z</time></trkpt><trkpt lat="45.30450188217009" lon="11.719785225440319"><ele>39.0</ele><time>2026-04-18T09:57:25.001Z</time></trkpt><trkpt lat="45.30452756707594" lon="11.719526137081134"><ele>40.0</ele><time>2026-04-18T09:57:26.001Z</time></trkpt><trkpt lat="45.30456535975939" lon="11.71927900408803"><ele>41.0</ele><time>2026-04-18T09:57:27.001Z</time></trkpt><trkpt lat="45.304594716557226" lon="11.71904869559934"><ele>41.75</ele><time>2026-04-18T09:57:28.001Z</time></trkpt><trkpt lat="45.30461271203091" lon="11.718842201176203"><ele>42.5</ele><time>2026-04-18T09:57:29.001Z</time></trkpt><trkpt lat="45.30460324004572" lon="11.718663323198266"><ele>43.25</ele><time>2026-04-18T09:57:30.001Z</time></trkpt><trkpt lat="45.30457049522109" lon="11.718475357556144"><ele>44.0</ele><time>2026-04-18T09:57:31.001Z</time></trkpt><trkpt lat="45.30455579284426" lon="11.718272317910289"><ele>44.75</ele><time>2026-04-18T09:57:32.001Z</time></trkpt><trkpt lat="45.30457974643313" lon="11.718057976266095"><ele>45.5</ele><time>2026-04-18T09:57:33.001Z</time></trkpt><trkpt lat="45.304610813019266" lon="11.717848469021485"><ele>46.25</ele><time>2026-04-18T09:57:34.001Z</time></trkpt><trkpt lat="45.30463758940215" lon="11.717664601944898"><ele>47.0</ele><time>2026-04-18T09:57:35.001Z</time></trkpt><trkpt lat="45.30467936699888" lon="11.717487953215832"><ele>47.75</ele><time>2026-04-18T09:57:36.001Z</time></trkpt><trkpt lat="45.30477360762373" lon="11.717334038659681"><ele>48.5</ele><time>2026-04-18T09:57:37.001Z</time></trkpt><trkpt lat="45.304841700150796" lon="11.717161029781954"><ele>49.25</ele><time>2026-04-18T09:57:38.001Z</time></trkpt><trkpt lat="45.304913392775674" lon="11.717019850218719"><ele>50.0</ele><time>2026-04-18T09:57:39.001Z</time></trkpt><trkpt lat="45.30494791653952" lon="11.716864458477342"><ele>50.75</ele><time>2026-04-18T09:57:40.001Z</time></trkpt><trkpt lat="45.30495005684669" lon="11.716685267637656"><ele>51.5</ele><time>2026-04-18T09:57:41.001Z</time></trkpt><trkpt lat="45.304928402954026" lon="11.71646758064186"><ele>52.25</ele><time>2026-04-18T09:57:42.001Z</time></trkpt><trkpt lat="45.304930846314555" lon="11.716308114575467"><ele>53.0</ele><time>2026-04-18T09:57:43.001Z</time></trkpt><trkpt lat="45.30494005832879" lon="11.716122039418382"><ele>54.0</ele><time>2026-04-18T09:57:44.001Z</time></trkpt><trkpt lat="45.30495981925141" lon="11.715929648939069"><ele>55.0</ele><time>2026-04-18T09:57:45.001Z</time></trkpt><trkpt lat="45.304981189979834" lon="11.71574886052041"><ele>56.0</ele><time>2026-04-18T09:57:46Z</time></trkpt><trkpt lat="45.30498674957527" lon="11.7155482523451"><ele>57.0</ele><time>2026-04-18T09:57:47Z</time></trkpt><trkpt lat="45.30500140024306" lon="11.715287602806816"><ele>59.33333333333333</ele><time>2026-04-18T09:57:48Z</time></trkpt><trkpt lat="45.30501017960578" lon="11.715011997975704"><ele>61.666666666666664</ele><time>2026-04-18T09:57:49Z</time></trkpt><trkpt lat="45.30499860951404" lon="11.714697553616123"><ele>64.0</ele><time>2026-04-18T09:57:50Z</time></trkpt><trkpt lat="45.30499280862145" lon="11.71437731405377"><ele>66.33333333333333</ele><time>2026-04-18T09:57:51Z</time></trkpt><trkpt lat="45.304996937884916" lon="11.714111760728997"><ele>68.66666666666667</ele><time>2026-04-18T09:57:52Z</time></trkpt><trkpt lat="45.30500053999355" lon="11.713868476183713"><ele>71.0</ele><time>2026-04-18T09:57:53Z</time></trkpt><trkpt lat="45.30499953172479" lon="11.713644148777078"><ele>71.0</ele><time>2026-04-18T09:57:54Z</time></trkpt><trkpt lat="45.30498007826465" lon="11.7134286704446"><ele>71.0</ele><time>2026-04-18T09:57:55Z</time></trkpt><trkpt lat="45.304925648951865" lon="11.71317992373066"><ele>71.0</ele><time>2026-04-18T09:57:56Z</time></trkpt><trkpt lat="45.30487674921252" lon="11.712902361779431"><ele>72.66666666666667</ele><time>2026-04-18T09:57:57Z</time></trkpt><trkpt lat="45.304842344657764" lon="11.712611450084655"><ele>74.33333333333333</ele><time>2026-04-18T09:57:58Z</time></trkpt><trkpt lat="45.30480259262921" lon="11.712336929229073"><ele>76.0</ele><time>2026-04-18T09:57:59Z</time></trkpt><trkpt lat="45.3047785484813" lon="11.712085438245632"><ele>78.5</ele><time>2026-04-18T09:58:00Z</time></trkpt><trkpt lat="45.304779737924356" lon="11.711782753107048"><ele>81.0</ele><time>2026-04-18T09:58:01Z</time></trkpt><trkpt lat="45.30479508626196" lon="11.711441931551459"><ele>81.0</ele><time>2026-04-18T09:58:02Z</time></trkpt><trkpt lat="45.30481142473603" lon="11.711110953556524"><ele>81.0</ele><time>2026-04-18T09:58:03Z</time></trkpt><trkpt lat="45.304816714034416" lon="11.710836533312369"><ele>81.0</ele><time>2026-04-18T09:58:04Z</time></trkpt><trkpt lat="45.304803019062234" lon="11.710580539184832"><ele>83.33333333333333</ele><time>2026-04-18T09:58:05Z</time></trkpt><trkpt lat="45.30478999142405" lon="11.710342025155867"><ele>85.66666666666666</ele><time>2026-04-18T09:58:06Z</time></trkpt><trkpt lat="45.30479367432692" lon="11.710099095705226"><ele>88.0</ele><time>2026-04-18T09:58:07Z</time></trkpt><trkpt lat="45.30482773183752" lon="11.709875675978276"><ele>90.0</ele><time>2026-04-18T09:58:08Z</time></trkpt><trkpt lat="45.304868549061375" lon="11.709679665346561"><ele>92.0</ele><time>2026-04-18T09:58:09Z</time></trkpt><trkpt lat="45.304920732125616" lon="11.709513218329352"><ele>94.0</ele><time>2026-04-18T09:58:10Z</time></trkpt><trkpt lat="45.3049737563657" lon="11.709380877324199"><ele>96.0</ele><time>2026-04-18T09:58:11Z</time></trkpt><trkpt lat="45.3050631668191" lon="11.709243968964811"><ele>99.33333333333334</ele><time>2026-04-18T09:58:12Z</time></trkpt><trkpt lat="45.3051807502957" lon="11.709103522235615"><ele>102.66666666666667</ele><time>2026-04-18T09:58:13Z</time></trkpt><trkpt lat="45.305276580903886" lon="11.7089268660307"><ele>106.0</ele><time>2026-04-18T09:58:14Z</time></trkpt><trkpt lat="45.30535611960364" lon="11.70871586904252"><ele>110.66666666666667</ele><time>2026-04-18T09:58:15Z</time></trkpt><trkpt lat="45.305414221926505" lon="11.708466533288405"><ele>115.33333333333334</ele><time>2026-04-18T09:58:16Z</time></trkpt><trkpt lat="45.30547045486426" lon="11.70828029698539"><ele>120.0</ele><time>2026-04-18T09:58:17Z</time></trkpt><trkpt lat="45.30554697212562" lon="11.708119593786947"><ele>118.33333333333334</ele><time>2026-04-18T09:58:18Z</time></trkpt><trkpt lat="45.30564805876476" lon="11.707985647909664"><ele>116.66666666666667</ele><time>2026-04-18T09:58:19Z</time></trkpt><trkpt lat="45.305785294249645" lon="11.707890635333783"><ele>115.0</ele><time>2026-04-18T09:58:20Z</time></trkpt><trkpt lat="45.30592911728438" lon="11.707747181883315"><ele>119.0</ele><time>2026-04-18T09:58:21Z</time></trkpt><trkpt lat="45.30607215391589" lon="11.70763005475713"><ele>123.0</ele><time>2026-04-18T09:58:22Z</time></trkpt><trkpt lat="45.30620332538873" lon="11.707521083317811"><ele>127.0</ele><time>2026-04-18T09:58:23Z</time></trkpt><trkpt lat="45.3063289135311" lon="11.707374262789749"><ele>126.66666666666667</ele><time>2026-04-18T09:58:24Z</time></trkpt><trkpt lat="45.30645563222672" lon="11.707188020637581"><ele>126.33333333333334</ele><time>2026-04-18T09:58:25Z</time></trkpt><trkpt lat="45.3065268214069" lon="11.706993076495051"><ele>126.0</ele><time>2026-04-18T09:58:26Z</time></trkpt><trkpt lat="45.306611234457975" lon="11.706841101441269"><ele>128.25</ele><time>2026-04-18T09:58:27Z</time></trkpt><trkpt lat="45.30670259611301" lon="11.706717010787973"><ele>130.5</ele><time>2026-04-18T09:58:28Z</time></trkpt><trkpt lat="45.306786176296306" lon="11.706572368022101"><ele>132.75</ele><time>2026-04-18T09:58:29Z</time></trkpt><trkpt lat="45.30684691452351" lon="11.706382076278333"><ele>135.0</ele><time>2026-04-18T09:58:30Z</time></trkpt><trkpt lat="45.30685410542176" lon="11.70619842297967"><ele>135.0</ele><time>2026-04-18T09:58:31Z</time></trkpt><trkpt lat="45.30683475395022" lon="11.706078904514342"><ele>135.0</ele><time>2026-04-18T09:58:32Z</time></trkpt><trkpt lat="45.30673634554384" lon="11.706012270991728"><ele>135.0</ele><time>2026-04-18T09:58:34Z</time></trkpt><trkpt lat="45.30664212832289" lon="11.706072687103322"><ele>135.0</ele><time>2026-04-18T09:58:35Z</time></trkpt><trkpt lat="45.30654637100439" lon="11.706223260812273"><ele>135.0</ele><time>2026-04-18T09:58:36Z</time></trkpt><trkpt lat="45.30643691359518" lon="11.70637509772213"><ele>139.0</ele><time>2026-04-18T09:58:37Z</time></trkpt><trkpt lat="45.30638597658363" lon="11.706484085975692"><ele>143.0</ele><time>2026-04-18T09:58:38Z</time></trkpt><trkpt lat="45.306263781629376" lon="11.706585878184432"><ele>147.0</ele><time>2026-04-18T09:58:39Z</time></trkpt><trkpt lat="45.306084291934944" lon="11.706650640056717"><ele>151.0</ele><time>2026-04-18T09:58:40Z</time></trkpt><trkpt lat="45.30593824550405" lon="11.70676873307978"><ele>151.0</ele><time>2026-04-18T09:58:41Z</time></trkpt><trkpt lat="45.30581140855236" lon="11.706902773384884"><ele>151.0</ele><time>2026-04-18T09:58:42Z</time></trkpt><trkpt lat="45.305624776380796" lon="11.706983576422168"><ele>151.0</ele><time>2026-04-18T09:58:43Z</time></trkpt><trkpt lat="45.30541036150094" lon="11.707048143725839"><ele>148.66666666666669</ele><time>2026-04-18T09:58:44Z</time></trkpt><trkpt lat="45.305266254581845" lon="11.707106907228585"><ele>146.33333333333334</ele><time>2026-04-18T09:58:45Z</time></trkpt><trkpt lat="45.305120076590015" lon="11.707242700020576"><ele>144.0</ele><time>2026-04-18T09:58:46Z</time></trkpt><trkpt lat="45.30496990241348" lon="11.707394133330768"><ele>144.0</ele><time>2026-04-18T09:58:47Z</time></trkpt><trkpt lat="45.30483664401095" lon="11.707521935347739"><ele>144.0</ele><time>2026-04-18T09:58:48Z</time></trkpt><trkpt lat="45.3047013775034" lon="11.7075934448244"><ele>144.0</ele><time>2026-04-18T09:58:49.001Z</time></trkpt><trkpt lat="45.30454760951661" lon="11.707632229269713"><ele>151.66666666666666</ele><time>2026-04-18T09:58:50.001Z</time></trkpt><trkpt lat="45.304356878900506" lon="11.707614717398966"><ele>159.33333333333331</ele><time>2026-04-18T09:58:51.001Z</time></trkpt><trkpt lat="45.30416537799789" lon="11.707610102813707"><ele>167.0</ele><time>2026-04-18T09:58:52.001Z</time></trkpt><trkpt lat="45.30399218185384" lon="11.70763309899365"><ele>167.66666666666666</ele><time>2026-04-18T09:58:53.001Z</time></trkpt><trkpt lat="45.30382663758017" lon="11.707607272917807"><ele>168.33333333333334</ele><time>2026-04-18T09:58:54.001Z</time></trkpt><trkpt lat="45.30367517321698" lon="11.707535100921081"><ele>169.0</ele><time>2026-04-18T09:58:55.001Z</time></trkpt><trkpt lat="45.30354192008988" lon="11.70747176490692"><ele>169.0</ele><time>2026-04-18T09:58:56.001Z</time></trkpt><trkpt lat="45.30342069986597" lon="11.70744344497955"><ele>169.0</ele><time>2026-04-18T09:58:57.001Z</time></trkpt><trkpt lat="45.303324420389025" lon="11.707430216932266"><ele>169.0</ele><time>2026-04-18T09:58:58.001Z</time></trkpt><trkpt lat="45.303244056754735" lon="11.707532919464986"><ele>169.0</ele><time>2026-04-18T09:58:59.001Z</time></trkpt><trkpt lat="45.303196482298226" lon="11.707726489171225"><ele>166.0</ele><time>2026-04-18T09:59:00.001Z</time></trkpt><trkpt lat="45.30315068794747" lon="11.707947397193454"><ele>163.0</ele><time>2026-04-18T09:59:01.001Z</time></trkpt><trkpt lat="45.30309671618091" lon="11.708207618196507"><ele>160.0</ele><time>2026-04-18T09:59:02.001Z</time></trkpt><trkpt lat="45.30305198928366" lon="11.708445438245155"><ele>159.0</ele><time>2026-04-18T09:59:03.001Z</time></trkpt><trkpt lat="45.30305359586103" lon="11.708662924824555"><ele>158.0</ele><time>2026-04-18T09:59:04.001Z</time></trkpt><trkpt lat="45.303082146418674" lon="11.708842452774515"><ele>157.0</ele><time>2026-04-18T09:59:05.001Z</time></trkpt><trkpt lat="45.303092531423374" lon="11.70897301745596"><ele>156.0</ele><time>2026-04-18T09:59:06.001Z</time></trkpt><trkpt lat="45.30307398876426" lon="11.709082758861399"><ele>161.5</ele><time>2026-04-18T09:59:07.001Z</time></trkpt><trkpt lat="45.303005065842115" lon="11.70915515475699"><ele>167.0</ele><time>2026-04-18T09:59:08.001Z</time></trkpt><trkpt lat="45.30290247737057" lon="11.709253551224181"><ele>172.5</ele><time>2026-04-18T09:59:09.001Z</time></trkpt><trkpt lat="45.30277723427414" lon="11.709397826485471"><ele>178.0</ele><time>2026-04-18T09:59:10.001Z</time></trkpt><trkpt lat="45.30265572109778" lon="11.709593062771342"><ele>178.0</ele><time>2026-04-18T09:59:11.001Z</time></trkpt><trkpt lat="45.302557808740865" lon="11.709757997159524"><ele>178.0</ele><time>2026-04-18T09:59:12.001Z</time></trkpt><trkpt lat="45.30250071997332" lon="11.709954676565456"><ele>178.0</ele><time>2026-04-18T09:59:13.001Z</time></trkpt><trkpt lat="45.30245926004757" lon="11.710158747930858"><ele>175.8</ele><time>2026-04-18T09:59:14.001Z</time></trkpt><trkpt lat="45.30244480632184" lon="11.710356861386556"><ele>173.60000000000002</ele><time>2026-04-18T09:59:15.001Z</time></trkpt><trkpt lat="45.30246620361559" lon="11.710524164118764"><ele>171.39999999999998</ele><time>2026-04-18T09:59:16.001Z</time></trkpt><trkpt lat="45.30247499844241" lon="11.710641490202068"><ele>169.2</ele><time>2026-04-18T09:59:17.001Z</time></trkpt><trkpt lat="45.30243561748942" lon="11.710720418999243"><ele>167.0</ele><time>2026-04-18T09:59:18.001Z</time></trkpt><trkpt lat="45.30234986198526" lon="11.710735594454466"><ele>167.0</ele><time>2026-04-18T09:59:19.001Z</time></trkpt><trkpt lat="45.30226625157227" lon="11.710673246614276"><ele>167.0</ele><time>2026-04-18T09:59:20.001Z</time></trkpt><trkpt lat="45.302226021498576" lon="11.710532204003254"><ele>167.0</ele><time>2026-04-18T09:59:21.001Z</time></trkpt><trkpt lat="45.302249088143675" lon="11.710363019492576"><ele>167.0</ele><time>2026-04-18T09:59:22.001Z</time></trkpt><trkpt lat="45.30229209273666" lon="11.710154354971042"><ele>170.66666666666666</ele><time>2026-04-18T09:59:23.001Z</time></trkpt><trkpt lat="45.30232153137174" lon="11.709912181484006"><ele>174.33333333333334</ele><time>2026-04-18T09:59:24.001Z</time></trkpt><trkpt lat="45.3023560415054" lon="11.709683393289216"><ele>178.0</ele><time>2026-04-18T09:59:25.001Z</time></trkpt><trkpt lat="45.302429382877165" lon="11.709495361440993"><ele>184.66666666666669</ele><time>2026-04-18T09:59:26.001Z</time></trkpt><trkpt lat="45.30253490764956" lon="11.70931584611953"><ele>191.33333333333334</ele><time>2026-04-18T09:59:27.001Z</time></trkpt><trkpt lat="45.302608828430486" lon="11.709099613123703"><ele>198.0</ele><time>2026-04-18T09:59:28.001Z</time></trkpt><trkpt lat="45.30266345348538" lon="11.708814937826817"><ele>203.33333333333331</ele><time>2026-04-18T09:59:29.001Z</time></trkpt><trkpt lat="45.30270182043239" lon="11.708490031633533"><ele>208.66666666666666</ele><time>2026-04-18T09:59:30.001Z</time></trkpt><trkpt lat="45.30274029246828" lon="11.708248082779692"><ele>214.0</ele><time>2026-04-18T09:59:31.001Z</time></trkpt><trkpt lat="45.30277512934403" lon="11.708029490649325"><ele>214.0</ele><time>2026-04-18T09:59:32.001Z</time></trkpt><trkpt lat="45.302783643336014" lon="11.707785432171093"><ele>214.0</ele><time>2026-04-18T09:59:33.001Z</time></trkpt><trkpt lat="45.30274701327963" lon="11.707503294739327"><ele>214.0</ele><time>2026-04-18T09:59:34.001Z</time></trkpt><trkpt lat="45.30269592616578" lon="11.707263185778228"><ele>214.75</ele><time>2026-04-18T09:59:35.001Z</time></trkpt><trkpt lat="45.302640966377766" lon="11.707044941649523"><ele>215.5</ele><time>2026-04-18T09:59:36.001Z</time></trkpt><trkpt lat="45.30259185455406" lon="11.706837215340803"><ele>216.25</ele><time>2026-04-18T09:59:37.001Z</time></trkpt><trkpt lat="45.302548957507106" lon="11.70666783843267"><ele>217.0</ele><time>2026-04-18T09:59:38.001Z</time></trkpt><trkpt lat="45.3025406060201" lon="11.706520487802818"><ele>217.75</ele><time>2026-04-18T09:59:39.001Z</time></trkpt><trkpt lat="45.3025824880109" lon="11.706388124375014"><ele>218.5</ele><time>2026-04-18T09:59:40.001Z</time></trkpt><trkpt lat="45.302679948476346" lon="11.706287551249389"><ele>219.25</ele><time>2026-04-18T09:59:41.001Z</time></trkpt><trkpt lat="45.30283911469377" lon="11.706288492811707"><ele>220.0</ele><time>2026-04-18T09:59:42.001Z</time></trkpt><trkpt lat="45.30301651055805" lon="11.706255110494471"><ele>223.66666666666666</ele><time>2026-04-18T09:59:43.001Z</time></trkpt><trkpt lat="45.303186192422665" lon="11.706187173221366"><ele>227.33333333333331</ele><time>2026-04-18T09:59:44.001Z</time></trkpt><trkpt lat="45.303321911633454" lon="11.70609591766142"><ele>231.0</ele><time>2026-04-18T09:59:45.001Z</time></trkpt><trkpt lat="45.303444590611676" lon="11.706047674736784"><ele>231.0</ele><time>2026-04-18T09:59:46.001Z</time></trkpt><trkpt lat="45.303589842724406" lon="11.706033321073413"><ele>231.0</ele><time>2026-04-18T09:59:47.001Z</time></trkpt><trkpt lat="45.303729078918906" lon="11.706059173118392"><ele>231.0</ele><time>2026-04-18T09:59:48.001Z</time></trkpt><trkpt lat="45.303855350872595" lon="11.706116294386703"><ele>231.0</ele><time>2026-04-18T09:59:49.001Z</time></trkpt><trkpt lat="45.30397101110051" lon="11.70614076281109"><ele>229.60000000000002</ele><time>2026-04-18T09:59:50.001Z</time></trkpt><trkpt lat="45.30407543851447" lon="11.706162133495814"><ele>228.20000000000002</ele><time>2026-04-18T09:59:51.001Z</time></trkpt><trkpt lat="45.3041578529859" lon="11.706168167423819"><ele>226.79999999999998</ele><time>2026-04-18T09:59:52Z</time></trkpt><trkpt lat="45.30424780781794" lon="11.706134530991147"><ele>225.39999999999998</ele><time>2026-04-18T09:59:53Z</time></trkpt><trkpt lat="45.30433429515363" lon="11.706053909826487"><ele>224.0</ele><time>2026-04-18T09:59:54Z</time></trkpt><trkpt lat="45.30439972510479" lon="11.705932760040124"><ele>224.0</ele><time>2026-04-18T09:59:55Z</time></trkpt><trkpt lat="45.3044423210496" lon="11.705793803335734"><ele>223.99999999999997</ele><time>2026-04-18T09:59:56Z</time></trkpt><trkpt lat="45.30446685503455" lon="11.705641016377575"><ele>223.99999999999997</ele><time>2026-04-18T09:59:57Z</time></trkpt><trkpt lat="45.30448354973604" lon="11.70547829966547"><ele>224.0</ele><time>2026-04-18T09:59:58Z</time></trkpt><trkpt lat="45.30451977640618" lon="11.705327846278104"><ele>224.0</ele><time>2026-04-18T09:59:59Z</time></trkpt><trkpt lat="45.304588649045" lon="11.705194698458477"><ele>222.6</ele><time>2026-04-18T10:00:00Z</time></trkpt><trkpt lat="45.30467017942948" lon="11.705081734352571"><ele>221.2</ele><time>2026-04-18T10:00:01Z</time></trkpt><trkpt lat="45.30475229556739" lon="11.704972568057444"><ele>219.79999999999998</ele><time>2026-04-18T10:00:02Z</time></trkpt><trkpt lat="45.30483100970661" lon="11.704865602853609"><ele>218.39999999999998</ele><time>2026-04-18T10:00:03Z</time></trkpt><trkpt lat="45.30490633871201" lon="11.70475955495677"><ele>217.0</ele><time>2026-04-18T10:00:04Z</time></trkpt><trkpt lat="45.30497259485938" lon="11.704633239983082"><ele>217.0</ele><time>2026-04-18T10:00:05Z</time></trkpt><trkpt lat="45.30501738047635" lon="11.704476668395875"><ele>217.0</ele><time>2026-04-18T10:00:06Z</time></trkpt><trkpt lat="45.30504263220386" lon="11.704313415015482"><ele>217.0</ele><time>2026-04-18T10:00:07Z</time></trkpt><trkpt lat="45.30506441264588" lon="11.704157533544251"><ele>217.0</ele><time>2026-04-18T10:00:08Z</time></trkpt><trkpt lat="45.30509658476422" lon="11.704008484223428"><ele>222.5</ele><time>2026-04-18T10:00:09Z</time></trkpt><trkpt lat="45.30514081558872" lon="11.703863994454304"><ele>228.0</ele><time>2026-04-18T10:00:10Z</time></trkpt><trkpt lat="45.305212795110755" lon="11.703739406715188"><ele>233.5</ele><time>2026-04-18T10:00:11Z</time></trkpt><trkpt lat="45.30530444392502" lon="11.703639361594632"><ele>239.0</ele><time>2026-04-18T10:00:12Z</time></trkpt><trkpt lat="45.30541833264951" lon="11.703583562934169"><ele>241.79999999999998</ele><time>2026-04-18T10:00:13Z</time></trkpt><trkpt lat="45.305536205682394" lon="11.70355761617345"><ele>244.59999999999997</ele><time>2026-04-18T10:00:14Z</time></trkpt><trkpt lat="45.30564867586259" lon="11.703547776170012"><ele>247.4</ele><time>2026-04-18T10:00:15Z</time></trkpt><trkpt lat="45.30575607173888" lon="11.703555097655494"><ele>250.2</ele><time>2026-04-18T10:00:16Z</time></trkpt><trkpt lat="45.30585763433446" lon="11.703598205073462"><ele>253.0</ele><time>2026-04-18T10:00:17Z</time></trkpt><trkpt lat="45.305942566457055" lon="11.703663282851979"><ele>252.99999999999997</ele><time>2026-04-18T10:00:18Z</time></trkpt><trkpt lat="45.306024020908495" lon="11.703705874749453"><ele>253.0</ele><time>2026-04-18T10:00:19Z</time></trkpt><trkpt lat="45.306100824503105" lon="11.70371026783347"><ele>253.0</ele><time>2026-04-18T10:00:20Z</time></trkpt><trkpt lat="45.30617577432646" lon="11.703674365574464"><ele>253.0</ele><time>2026-04-18T10:00:21Z</time></trkpt><trkpt lat="45.30625270601072" lon="11.703596753084227"><ele>252.99999999999997</ele><time>2026-04-18T10:00:22Z</time></trkpt><trkpt lat="45.3063288206544" lon="11.703496256908746"><ele>253.0</ele><time>2026-04-18T10:00:23Z</time></trkpt><trkpt lat="45.30636780001821" lon="11.703383733200324"><ele>253.0</ele><time>2026-04-18T10:00:24Z</time></trkpt><trkpt lat="45.30638654421266" lon="11.70326427508495"><ele>253.0</ele><time>2026-04-18T10:00:25Z</time></trkpt><trkpt lat="45.30639971060676" lon="11.70313194838996"><ele>253.0</ele><time>2026-04-18T10:00:26Z</time></trkpt><trkpt lat="45.30642894563068" lon="11.702989038978174"><ele>253.0</ele><time>2026-04-18T10:00:27Z</time></trkpt><trkpt lat="45.30648660527337" lon="11.702833242054364"><ele>253.0</ele><time>2026-04-18T10:00:28Z</time></trkpt><trkpt lat="45.30658193673688" lon="11.702673629054782"><ele>252.0</ele><time>2026-04-18T10:00:29Z</time></trkpt><trkpt lat="45.30666772817881" lon="11.7025488680955"><ele>251.0</ele><time>2026-04-18T10:00:30Z</time></trkpt><trkpt lat="45.30675895647977" lon="11.702412594239554"><ele>250.0</ele><time>2026-04-18T10:00:31Z</time></trkpt><trkpt lat="45.30682910545898" lon="11.702264469041399"><ele>249.0</ele><time>2026-04-18T10:00:32Z</time></trkpt><trkpt lat="45.30687161312267" lon="11.702130880292936"><ele>249.0</ele><time>2026-04-18T10:00:33Z</time></trkpt><trkpt lat="45.30693568045556" lon="11.701987240284778"><ele>248.99999999999997</ele><time>2026-04-18T10:00:34Z</time></trkpt><trkpt lat="45.306980372952154" lon="11.701880700425342"><ele>248.99999999999997</ele><time>2026-04-18T10:00:35Z</time></trkpt><trkpt lat="45.30700555593497" lon="11.701746615398815"><ele>249.0</ele><time>2026-04-18T10:00:36Z</time></trkpt><trkpt lat="45.30701310331927" lon="11.701589501127952"><ele>249.0</ele><time>2026-04-18T10:00:37Z</time></trkpt><trkpt lat="45.306989995619666" lon="11.701394483958774"><ele>252.66666666666669</ele><time>2026-04-18T10:00:38Z</time></trkpt><trkpt lat="45.306949460570294" lon="11.701180479772175"><ele>256.33333333333337</ele><time>2026-04-18T10:00:39Z</time></trkpt><trkpt lat="45.30689504261232" lon="11.700915536927123"><ele>260.0</ele><time>2026-04-18T10:00:40Z</time></trkpt><trkpt lat="45.30683591894126" lon="11.700625047912848"><ele>260.0</ele><time>2026-04-18T10:00:41Z</time></trkpt><trkpt lat="45.30677585751304" lon="11.700332880240849"><ele>260.0</ele><time>2026-04-18T10:00:42Z</time></trkpt><trkpt lat="45.30671467757724" lon="11.700039509080453"><ele>260.0</ele><time>2026-04-18T10:00:43Z</time></trkpt><trkpt lat="45.30665815540186" lon="11.699766285315306"><ele>259.0</ele><time>2026-04-18T10:00:44Z</time></trkpt><trkpt lat="45.306602222592566" lon="11.699547035906184"><ele>258.0</ele><time>2026-04-18T10:00:45Z</time></trkpt><trkpt lat="45.30655569152328" lon="11.699366574740308"><ele>257.0</ele><time>2026-04-18T10:00:46Z</time></trkpt><trkpt lat="45.306521378074905" lon="11.699239959067937"><ele>256.0</ele><time>2026-04-18T10:00:47Z</time></trkpt><trkpt lat="45.306482336696085" lon="11.699110392083028"><ele>283.0</ele><time>2026-04-18T10:00:48.001Z</time></trkpt><trkpt lat="45.30580157260544" lon="11.69917354941611"><ele>283.0</ele><time>2026-04-18T10:00:49.001Z</time></trkpt><trkpt lat="45.30566771444387" lon="11.699093922186767"><ele>283.0</ele><time>2026-04-18T10:00:50.001Z</time></trkpt><trkpt lat="45.30652448621842" lon="11.698447345635445"><ele>280.0</ele><time>2026-04-18T10:00:51.001Z</time></trkpt><trkpt lat="45.30647162617139" lon="11.698305538765958"><ele>277.0</ele><time>2026-04-18T10:00:52.001Z</time></trkpt><trkpt lat="45.30640720087245" lon="11.698166105407422"><ele>274.0</ele><time>2026-04-18T10:00:53.001Z</time></trkpt><trkpt lat="45.306348511496495" lon="11.698040503394555"><ele>271.0</ele><time>2026-04-18T10:00:54.001Z</time></trkpt><trkpt lat="45.30628395080425" lon="11.69789979159566"><ele>268.25</ele><time>2026-04-18T10:00:55.001Z</time></trkpt><trkpt lat="45.306212170353135" lon="11.697731382431162"><ele>265.5</ele><time>2026-04-18T10:00:56.001Z</time></trkpt><trkpt lat="45.306130797651946" lon="11.69753975951532"><ele>262.75</ele><time>2026-04-18T10:00:57.001Z</time></trkpt><trkpt lat="45.30605386366725" lon="11.697368097723581"><ele>260.0</ele><time>2026-04-18T10:00:58.001Z</time></trkpt><trkpt lat="45.306010103436456" lon="11.697163871850202"><ele>260.0</ele><time>2026-04-18T10:00:59.001Z</time></trkpt><trkpt lat="45.30595918939329" lon="11.696950796612272"><ele>260.0</ele><time>2026-04-18T10:01:00.001Z</time></trkpt><trkpt lat="45.30589881210415" lon="11.696711023615958"><ele>260.0</ele><time>2026-04-18T10:01:01.001Z</time></trkpt><trkpt lat="45.305853144089205" lon="11.69647528179522"><ele>259.33333333333337</ele><time>2026-04-18T10:01:02.001Z</time></trkpt><trkpt lat="45.3057950500127" lon="11.696238424672625"><ele>258.6666666666667</ele><time>2026-04-18T10:01:03.001Z</time></trkpt><trkpt lat="45.30571889090363" lon="11.695997509006915"><ele>258.0</ele><time>2026-04-18T10:01:04.001Z</time></trkpt><trkpt lat="45.30563285419076" lon="11.695753348302855"><ele>251.33333333333331</ele><time>2026-04-18T10:01:05.001Z</time></trkpt><trkpt lat="45.305570231162186" lon="11.695510152997485"><ele>244.66666666666666</ele><time>2026-04-18T10:01:06.001Z</time></trkpt><trkpt lat="45.30551494298893" lon="11.695271275584558"><ele>238.0</ele><time>2026-04-18T10:01:07.001Z</time></trkpt><trkpt lat="45.30545521354974" lon="11.695042516297505"><ele>236.33333333333331</ele><time>2026-04-18T10:01:08.001Z</time></trkpt><trkpt lat="45.30541050779109" lon="11.694836024798038"><ele>234.66666666666669</ele><time>2026-04-18T10:01:09.001Z</time></trkpt><trkpt lat="45.305356583353756" lon="11.694637121853692"><ele>233.0</ele><time>2026-04-18T10:01:10.001Z</time></trkpt><trkpt lat="45.305273547480006" lon="11.694454658397095"><ele>232.5</ele><time>2026-04-18T10:01:11.001Z</time></trkpt><trkpt lat="45.305171638785495" lon="11.69429988719897"><ele>232.0</ele><time>2026-04-18T10:01:12.001Z</time></trkpt><trkpt lat="45.30506887507563" lon="11.694201659497379"><ele>231.5</ele><time>2026-04-18T10:01:13.001Z</time></trkpt><trkpt lat="45.30499698009528" lon="11.694055179058191"><ele>231.0</ele><time>2026-04-18T10:01:14.001Z</time></trkpt><trkpt lat="45.30494565222167" lon="11.693871575366783"><ele>231.0</ele><time>2026-04-18T10:01:15.001Z</time></trkpt><trkpt lat="45.30489723061041" lon="11.693646615915881"><ele>231.0</ele><time>2026-04-18T10:01:16.001Z</time></trkpt><trkpt lat="45.30482927356033" lon="11.693409250089942"><ele>231.0</ele><time>2026-04-18T10:01:17.001Z</time></trkpt><trkpt lat="45.304737814025636" lon="11.693222662384642"><ele>228.0</ele><time>2026-04-18T10:01:18.001Z</time></trkpt><trkpt lat="45.30464706437945" lon="11.693059533086902"><ele>225.0</ele><time>2026-04-18T10:01:19.001Z</time></trkpt><trkpt lat="45.30454672606471" lon="11.692925845075827"><ele>222.0</ele><time>2026-04-18T10:01:20.001Z</time></trkpt><trkpt lat="45.304438577303195" lon="11.692807924110442"><ele>219.0</ele><time>2026-04-18T10:01:21.001Z</time></trkpt><trkpt lat="45.30429643526266" lon="11.692720129809835"><ele>219.0</ele><time>2026-04-18T10:01:22.001Z</time></trkpt><trkpt lat="45.304122108187194" lon="11.692634047844328"><ele>219.0</ele><time>2026-04-18T10:01:23.001Z</time></trkpt><trkpt lat="45.30396239844737" lon="11.692527899898083"><ele>219.0</ele><time>2026-04-18T10:01:24.001Z</time></trkpt><trkpt lat="45.303824531661974" lon="11.692401910242994"><ele>216.33333333333331</ele><time>2026-04-18T10:01:25.001Z</time></trkpt><trkpt lat="45.30368727753909" lon="11.692269779129786"><ele>213.66666666666666</ele><time>2026-04-18T10:01:26.001Z</time></trkpt><trkpt lat="45.303541961804925" lon="11.69213242708754"><ele>211.0</ele><time>2026-04-18T10:01:27.001Z</time></trkpt><trkpt lat="45.30339668512299" lon="11.691978033977932"><ele>210.0</ele><time>2026-04-18T10:01:28.001Z</time></trkpt><trkpt lat="45.30325284989056" lon="11.691841461251158"><ele>209.0</ele><time>2026-04-18T10:01:29.001Z</time></trkpt><trkpt lat="45.30311796870251" lon="11.69171430316601"><ele>208.0</ele><time>2026-04-18T10:01:30.001Z</time></trkpt><trkpt lat="45.30298756166454" lon="11.691605509605191"><ele>207.0</ele><time>2026-04-18T10:01:31.001Z</time></trkpt><trkpt lat="45.30285998910042" lon="11.691522889073378"><ele>206.0</ele><time>2026-04-18T10:01:32.001Z</time></trkpt><trkpt lat="45.30271102502643" lon="11.691474237100863"><ele>205.0</ele><time>2026-04-18T10:01:33.001Z</time></trkpt><trkpt lat="45.302546898755125" lon="11.691443839773594"><ele>205.0</ele><time>2026-04-18T10:01:34.001Z</time></trkpt><trkpt lat="45.30237538450162" lon="11.691414343043691"><ele>205.0</ele><time>2026-04-18T10:01:35.001Z</time></trkpt><trkpt lat="45.30221339103053" lon="11.691391026621865"><ele>205.0</ele><time>2026-04-18T10:01:36.001Z</time></trkpt><trkpt lat="45.30205350368155" lon="11.691386189750569"><ele>201.0</ele><time>2026-04-18T10:01:37.001Z</time></trkpt><trkpt lat="45.30189006893659" lon="11.691402014986311"><ele>197.0</ele><time>2026-04-18T10:01:38.001Z</time></trkpt><trkpt lat="45.30172738169111" lon="11.69143072015599"><ele>193.0</ele><time>2026-04-18T10:01:39.001Z</time></trkpt><trkpt lat="45.30157197746322" lon="11.691453934013985"><ele>193.0</ele><time>2026-04-18T10:01:40.001Z</time></trkpt><trkpt lat="45.30142592309993" lon="11.691451645222866"><ele>193.0</ele><time>2026-04-18T10:01:41.001Z</time></trkpt><trkpt lat="45.301295383186016" lon="11.69138974151606"><ele>193.0</ele><time>2026-04-18T10:01:42.001Z</time></trkpt><trkpt lat="45.30116056936005" lon="11.691299430780376"><ele>193.0</ele><time>2026-04-18T10:01:43.001Z</time></trkpt><trkpt lat="45.30108376963157" lon="11.691091458664955"><ele>191.66666666666666</ele><time>2026-04-18T10:01:44.001Z</time></trkpt><trkpt lat="45.300984110250965" lon="11.690874474323518"><ele>190.33333333333331</ele><time>2026-04-18T10:01:45.001Z</time></trkpt><trkpt lat="45.30090450193052" lon="11.690639745783047"><ele>189.0</ele><time>2026-04-18T10:01:46.001Z</time></trkpt><trkpt lat="45.300826216485554" lon="11.690451572327575"><ele>189.0</ele><time>2026-04-18T10:01:47.001Z</time></trkpt><trkpt lat="45.30073337670655" lon="11.690272583979999"><ele>189.0</ele><time>2026-04-18T10:01:48.001Z</time></trkpt><trkpt lat="45.300640006380554" lon="11.690080470688997"><ele>189.0</ele><time>2026-04-18T10:01:49.001Z</time></trkpt><trkpt lat="45.30053045748645" lon="11.689894276320251"><ele>187.25</ele><time>2026-04-18T10:01:50.001Z</time></trkpt><trkpt lat="45.30043917368572" lon="11.689707338460176"><ele>185.5</ele><time>2026-04-18T10:01:51.001Z</time></trkpt><trkpt lat="45.300372865254964" lon="11.689549098183381"><ele>183.75</ele><time>2026-04-18T10:01:52.002Z</time></trkpt><trkpt lat="45.30029007819559" lon="11.689381041427042"><ele>182.0</ele><time>2026-04-18T10:01:53.002Z</time></trkpt><trkpt lat="45.300188358845574" lon="11.689188904347413"><ele>180.5</ele><time>2026-04-18T10:01:54.002Z</time></trkpt><trkpt lat="45.30010327582071" lon="11.689015231677947"><ele>179.0</ele><time>2026-04-18T10:01:55.002Z</time></trkpt><trkpt lat="45.30002831095089" lon="11.688857787953326"><ele>177.5</ele><time>2026-04-18T10:01:56.002Z</time></trkpt><trkpt lat="45.299958050931984" lon="11.688724081936517"><ele>176.0</ele><time>2026-04-18T10:01:57.002Z</time></trkpt><trkpt lat="45.299887187057735" lon="11.688619467263479"><ele>175.0</ele><time>2026-04-18T10:01:58Z</time></trkpt><trkpt lat="45.29980222821757" lon="11.688542791552807"><ele>174.0</ele><time>2026-04-18T10:01:59Z</time></trkpt><trkpt lat="45.2997013422277" lon="11.68850567388269"><ele>173.0</ele><time>2026-04-18T10:02:00Z</time></trkpt><trkpt lat="45.299600110413856" lon="11.688514935085948"><ele>172.0</ele><time>2026-04-18T10:02:01Z</time></trkpt><trkpt lat="45.299495930776786" lon="11.688582533537286"><ele>171.0</ele><time>2026-04-18T10:02:02Z</time></trkpt><trkpt lat="45.29940345375517" lon="11.688685756014893"><ele>171.0</ele><time>2026-04-18T10:02:03Z</time></trkpt><trkpt lat="45.29932480118969" lon="11.688822076752029"><ele>171.0</ele><time>2026-04-18T10:02:04Z</time></trkpt><trkpt lat="45.299256784800676" lon="11.688940821741024"><ele>171.0</ele><time>2026-04-18T10:02:05Z</time></trkpt><trkpt lat="45.29919781324483" lon="11.689063900368591"><ele>171.0</ele><time>2026-04-18T10:02:06Z</time></trkpt><trkpt lat="45.299142492676395" lon="11.689197330924337"><ele>171.0</ele><time>2026-04-18T10:02:07Z</time></trkpt><trkpt lat="45.29908479386549" lon="11.68933711795002"><ele>172.0</ele><time>2026-04-18T10:02:08Z</time></trkpt><trkpt lat="45.299047659643286" lon="11.689480882612282"><ele>173.0</ele><time>2026-04-18T10:02:09Z</time></trkpt><trkpt lat="45.298980933543426" lon="11.689585617399041"><ele>174.0</ele><time>2026-04-18T10:02:10Z</time></trkpt><trkpt lat="45.29889979010167" lon="11.689650609652247"><ele>175.0</ele><time>2026-04-18T10:02:11Z</time></trkpt><trkpt lat="45.298802766582845" lon="11.689651710678321"><ele>176.0</ele><time>2026-04-18T10:02:12Z</time></trkpt><trkpt lat="45.29871664059441" lon="11.689686329299304"><ele>173.20000000000002</ele><time>2026-04-18T10:02:13Z</time></trkpt><trkpt lat="45.2986268673346" lon="11.689735963839793"><ele>170.4</ele><time>2026-04-18T10:02:14Z</time></trkpt><trkpt lat="45.29854649166684" lon="11.6898210557938"><ele>167.6</ele><time>2026-04-18T10:02:15Z</time></trkpt><trkpt lat="45.29847427289282" lon="11.689930740233146"><ele>164.8</ele><time>2026-04-18T10:02:16Z</time></trkpt><trkpt lat="45.29839174037006" lon="11.690033765107396"><ele>162.0</ele><time>2026-04-18T10:02:17Z</time></trkpt><trkpt lat="45.29831705359915" lon="11.690148618439256"><ele>162.16666666666666</ele><time>2026-04-18T10:02:18Z</time></trkpt><trkpt lat="45.29825822575235" lon="11.690258479850792"><ele>162.33333333333334</ele><time>2026-04-18T10:02:19Z</time></trkpt><trkpt lat="45.298213315400766" lon="11.690337860858534"><ele>162.5</ele><time>2026-04-18T10:02:20Z</time></trkpt><trkpt lat="45.29814873688528" lon="11.690424830472347"><ele>162.66666666666669</ele><time>2026-04-18T10:02:22Z</time></trkpt><trkpt lat="45.298076282676305" lon="11.690490758737427"><ele>162.83333333333334</ele><time>2026-04-18T10:02:24Z</time></trkpt><trkpt lat="45.29799688410993" lon="11.69042275763824"><ele>163.0</ele><time>2026-04-18T10:02:26Z</time></trkpt><trkpt lat="45.2979907090462" lon="11.690325322218108"><ele>162.75</ele><time>2026-04-18T10:02:27Z</time></trkpt><trkpt lat="45.298015452571136" lon="11.69019847254688"><ele>162.5</ele><time>2026-04-18T10:02:28Z</time></trkpt><trkpt lat="45.29804948498542" lon="11.690044350984266"><ele>162.25</ele><time>2026-04-18T10:02:29Z</time></trkpt><trkpt lat="45.298081245826005" lon="11.689840232047723"><ele>162.0</ele><time>2026-04-18T10:02:30Z</time></trkpt><trkpt lat="45.29811094987854" lon="11.689635024108762"><ele>162.0</ele><time>2026-04-18T10:02:31Z</time></trkpt><trkpt lat="45.298128609346136" lon="11.689446645788406"><ele>162.0</ele><time>2026-04-18T10:02:32Z</time></trkpt><trkpt lat="45.298135766627105" lon="11.689246366364374"><ele>162.0</ele><time>2026-04-18T10:02:33Z</time></trkpt><trkpt lat="45.29813604165722" lon="11.68905868404735"><ele>162.0</ele><time>2026-04-18T10:02:34Z</time></trkpt><trkpt lat="45.29812615282515" lon="11.688884355108552"><ele>160.79999999999998</ele><time>2026-04-18T10:02:35Z</time></trkpt><trkpt lat="45.298107113477506" lon="11.688715296213212"><ele>159.6</ele><time>2026-04-18T10:02:36Z</time></trkpt><trkpt lat="45.298086157485265" lon="11.688559072982871"><ele>158.39999999999998</ele><time>2026-04-18T10:02:37Z</time></trkpt><trkpt lat="45.29805306044928" lon="11.68842284755716"><ele>157.2</ele><time>2026-04-18T10:02:38Z</time></trkpt><trkpt lat="45.29799755769557" lon="11.688305809528691"><ele>156.0</ele><time>2026-04-18T10:02:39Z</time></trkpt><trkpt lat="45.29788322920572" lon="11.688227668884574"><ele>150.5</ele><time>2026-04-18T10:02:40Z</time></trkpt><trkpt lat="45.29775212064164" lon="11.68818509617918"><ele>145.0</ele><time>2026-04-18T10:02:41Z</time></trkpt><trkpt lat="45.29759740193281" lon="11.688184375018835"><ele>139.5</ele><time>2026-04-18T10:02:42.001Z</time></trkpt><trkpt lat="45.297458456696575" lon="11.688162933775358"><ele>134.0</ele><time>2026-04-18T10:02:43.001Z</time></trkpt><trkpt lat="45.29733722088185" lon="11.688164825917559"><ele>131.75</ele><time>2026-04-18T10:02:44.001Z</time></trkpt><trkpt lat="45.29720046538645" lon="11.688195057029203"><ele>129.5</ele><time>2026-04-18T10:02:45.001Z</time></trkpt><trkpt lat="45.29706466512443" lon="11.688238334618648"><ele>127.25</ele><time>2026-04-18T10:02:46.001Z</time></trkpt><trkpt lat="45.296925704780236" lon="11.688249168734076"><ele>125.0</ele><time>2026-04-18T10:02:47.001Z</time></trkpt><trkpt lat="45.296797632478736" lon="11.68824205693139"><ele>125.0</ele><time>2026-04-18T10:02:48.001Z</time></trkpt><trkpt lat="45.29669546830816" lon="11.688223800517036"><ele>125.0</ele><time>2026-04-18T10:02:49.001Z</time></trkpt><trkpt lat="45.29655741925262" lon="11.688245549959314"><ele>125.0</ele><time>2026-04-18T10:02:50.001Z</time></trkpt><trkpt lat="45.296441797023625" lon="11.688265623032827"><ele>125.0</ele><time>2026-04-18T10:02:51.001Z</time></trkpt><trkpt lat="45.296335933651775" lon="11.688297481072102"><ele>122.25</ele><time>2026-04-18T10:02:52.001Z</time></trkpt><trkpt lat="45.296236389847344" lon="11.688376376488982"><ele>119.5</ele><time>2026-04-18T10:02:53.001Z</time></trkpt><trkpt lat="45.29615059261491" lon="11.688505320084468"><ele>116.75</ele><time>2026-04-18T10:02:54.001Z</time></trkpt><trkpt lat="45.29607305049249" lon="11.688668067509228"><ele>114.0</ele><time>2026-04-18T10:02:55.001Z</time></trkpt><trkpt lat="45.29601883923376" lon="11.688836213180721"><ele>113.25</ele><time>2026-04-18T10:02:56.001Z</time></trkpt><trkpt lat="45.295998143891964" lon="11.688999162390857"><ele>112.5</ele><time>2026-04-18T10:02:57.001Z</time></trkpt><trkpt lat="45.29600449645837" lon="11.689169890566147"><ele>111.75</ele><time>2026-04-18T10:02:58.001Z</time></trkpt><trkpt lat="45.296027500767224" lon="11.689353304617715"><ele>111.0</ele><time>2026-04-18T10:02:59.001Z</time></trkpt><trkpt lat="45.2960392960009" lon="11.689526409175542"><ele>110.19999999999999</ele><time>2026-04-18T10:03:00.001Z</time></trkpt><trkpt lat="45.296059650892474" lon="11.689681403225828"><ele>109.39999999999999</ele><time>2026-04-18T10:03:01.001Z</time></trkpt><trkpt lat="45.29607746200433" lon="11.689817027333858"><ele>108.6</ele><time>2026-04-18T10:03:02.001Z</time></trkpt><trkpt lat="45.29609096817156" lon="11.689932927083795"><ele>107.8</ele><time>2026-04-18T10:03:03.001Z</time></trkpt><trkpt lat="45.296083861041815" lon="11.690076121714874"><ele>107.0</ele><time>2026-04-18T10:03:05.001Z</time></trkpt><trkpt lat="45.29595404583668" lon="11.69005874411166"><ele>107.0</ele><time>2026-04-18T10:03:07.001Z</time></trkpt><trkpt lat="45.29587078432802" lon="11.689984222193157"><ele>107.0</ele><time>2026-04-18T10:03:08.001Z</time></trkpt><trkpt lat="45.29577495286117" lon="11.689890772724755"><ele>107.0</ele><time>2026-04-18T10:03:09.001Z</time></trkpt><trkpt lat="45.29568637045757" lon="11.68975456740411"><ele>107.0</ele><time>2026-04-18T10:03:10.001Z</time></trkpt><trkpt lat="45.29562321653949" lon="11.689610119254592"><ele>105.39999999999999</ele><time>2026-04-18T10:03:11.001Z</time></trkpt><trkpt lat="45.29557277941881" lon="11.689478246655908"><ele>103.79999999999998</ele><time>2026-04-18T10:03:12.001Z</time></trkpt><trkpt lat="45.29552375721292" lon="11.689358119434981"><ele>102.2</ele><time>2026-04-18T10:03:13.001Z</time></trkpt><trkpt lat="45.29547339041428" lon="11.689255300017713"><ele>100.6</ele><time>2026-04-18T10:03:14.001Z</time></trkpt><trkpt lat="45.29542101224379" lon="11.689157205903106"><ele>99.0</ele><time>2026-04-18T10:03:15.001Z</time></trkpt><trkpt lat="45.29537034935636" lon="11.689066546928167"><ele>99.0</ele><time>2026-04-18T10:03:16.001Z</time></trkpt><trkpt lat="45.29532277526182" lon="11.688977072189019"><ele>99.0</ele><time>2026-04-18T10:03:17.001Z</time></trkpt><trkpt lat="45.29528205249299" lon="11.688882991104716"><ele>99.0</ele><time>2026-04-18T10:03:18.001Z</time></trkpt><trkpt lat="45.29524788026701" lon="11.688784030195661"><ele>99.0</ele><time>2026-04-18T10:03:19.001Z</time></trkpt><trkpt lat="45.295225362523965" lon="11.688675357981968"><ele>99.0</ele><time>2026-04-18T10:03:20.001Z</time></trkpt><trkpt lat="45.29522411235882" lon="11.688559540509155"><ele>99.0</ele><time>2026-04-18T10:03:21.001Z</time></trkpt><trkpt lat="45.29522796154842" lon="11.688446228592277"><ele>99.0</ele><time>2026-04-18T10:03:22.001Z</time></trkpt><trkpt lat="45.29523287876897" lon="11.688330834181924"><ele>99.0</ele><time>2026-04-18T10:03:23.001Z</time></trkpt><trkpt lat="45.29524156753826" lon="11.688220212417932"><ele>99.0</ele><time>2026-04-18T10:03:24.001Z</time></trkpt><trkpt lat="45.295268050823" lon="11.688112580844034"><ele>99.0</ele><time>2026-04-18T10:03:25.001Z</time></trkpt><trkpt lat="45.29529909297325" lon="11.688007851551626"><ele>99.0</ele><time>2026-04-18T10:03:26.001Z</time></trkpt><trkpt lat="45.295330276601" lon="11.687894949722594"><ele>99.0</ele><time>2026-04-18T10:03:27.001Z</time></trkpt><trkpt lat="45.295361184630686" lon="11.68778047454718"><ele>99.16666666666667</ele><time>2026-04-18T10:03:28.001Z</time></trkpt><trkpt lat="45.29539708098909" lon="11.687672526269429"><ele>99.33333333333334</ele><time>2026-04-18T10:03:29.001Z</time></trkpt><trkpt lat="45.295428029226706" lon="11.68757162570096"><ele>99.5</ele><time>2026-04-18T10:03:30.001Z</time></trkpt><trkpt lat="45.29544878369776" lon="11.687472884318364"><ele>99.66666666666667</ele><time>2026-04-18T10:03:31.001Z</time></trkpt><trkpt lat="45.29544675891206" lon="11.687351916086003"><ele>99.83333333333334</ele><time>2026-04-18T10:03:32.001Z</time></trkpt><trkpt lat="45.29542238835644" lon="11.687232624093687"><ele>100.0</ele><time>2026-04-18T10:03:33.001Z</time></trkpt><trkpt lat="45.295383051816586" lon="11.687125477298345"><ele>100.0</ele><time>2026-04-18T10:03:34.001Z</time></trkpt><trkpt lat="45.2953277271409" lon="11.687022132143072"><ele>100.0</ele><time>2026-04-18T10:03:35.001Z</time></trkpt><trkpt lat="45.295266077401244" lon="11.686929672291518"><ele>100.0</ele><time>2026-04-18T10:03:36.001Z</time></trkpt><trkpt lat="45.295203100519565" lon="11.686828670581914"><ele>100.0</ele><time>2026-04-18T10:03:37.001Z</time></trkpt><trkpt lat="45.29513962526993" lon="11.68672881170792"><ele>100.0</ele><time>2026-04-18T10:03:38.001Z</time></trkpt><trkpt lat="45.29507503636014" lon="11.68662833792645"><ele>99.2</ele><time>2026-04-18T10:03:39.001Z</time></trkpt><trkpt lat="45.29500985478594" lon="11.68652857522812"><ele>98.4</ele><time>2026-04-18T10:03:40.001Z</time></trkpt><trkpt lat="45.29494595959319" lon="11.68643367991127"><ele>97.6</ele><time>2026-04-18T10:03:41.001Z</time></trkpt><trkpt lat="45.29487175284768" lon="11.686348633058333"><ele>96.8</ele><time>2026-04-18T10:03:42.001Z</time></trkpt><trkpt lat="45.294789733317636" lon="11.686292029198079"><ele>96.0</ele><time>2026-04-18T10:03:43.001Z</time></trkpt><trkpt lat="45.29470188928152" lon="11.68625377850721"><ele>94.8</ele><time>2026-04-18T10:03:44.001Z</time></trkpt><trkpt lat="45.29461309865032" lon="11.686219615650103"><ele>93.6</ele><time>2026-04-18T10:03:45.001Z</time></trkpt><trkpt lat="45.29452052902207" lon="11.686190024129573"><ele>92.4</ele><time>2026-04-18T10:03:46.001Z</time></trkpt><trkpt lat="45.294421529769465" lon="11.686149276116545"><ele>91.2</ele><time>2026-04-18T10:03:47.001Z</time></trkpt><trkpt lat="45.29433123637615" lon="11.686084024393086"><ele>90.0</ele><time>2026-04-18T10:03:48.002Z</time></trkpt><trkpt lat="45.29425595443274" lon="11.685981274425487"><ele>90.0</ele><time>2026-04-18T10:03:49.002Z</time></trkpt><trkpt lat="45.294194190946705" lon="11.68583437532604"><ele>90.0</ele><time>2026-04-18T10:03:50.002Z</time></trkpt><trkpt lat="45.29414067603439" lon="11.685652092854767"><ele>90.0</ele><time>2026-04-18T10:03:51.002Z</time></trkpt><trkpt lat="45.29408491721236" lon="11.68544376494472"><ele>90.0</ele><time>2026-04-18T10:03:52.002Z</time></trkpt><trkpt lat="45.2940440540663" lon="11.68520891602097"><ele>90.0</ele><time>2026-04-18T10:03:53.002Z</time></trkpt><trkpt lat="45.29401523380322" lon="11.684979351523603"><ele>90.0</ele><time>2026-04-18T10:03:54.002Z</time></trkpt><trkpt lat="45.29398065922902" lon="11.68477458137983"><ele>90.0</ele><time>2026-04-18T10:03:55.002Z</time></trkpt><trkpt lat="45.29394152014904" lon="11.68458380977127"><ele>90.75</ele><time>2026-04-18T10:03:56.002Z</time></trkpt><trkpt lat="45.29390858521082" lon="11.684397312418781"><ele>91.5</ele><time>2026-04-18T10:03:57.002Z</time></trkpt><trkpt lat="45.29388229137992" lon="11.684221619663235"><ele>92.25</ele><time>2026-04-18T10:03:58.002Z</time></trkpt><trkpt lat="45.29385470236635" lon="11.684048276979361"><ele>93.0</ele><time>2026-04-18T10:03:59.002Z</time></trkpt><trkpt lat="45.29383827773065" lon="11.683877335866176"><ele>93.0</ele><time>2026-04-18T10:04:00.002Z</time></trkpt><trkpt lat="45.293837491264036" lon="11.683707085968372"><ele>93.0</ele><time>2026-04-18T10:04:01.002Z</time></trkpt><trkpt lat="45.293844216097504" lon="11.68354493994895"><ele>93.0</ele><time>2026-04-18T10:04:02.002Z</time></trkpt><trkpt lat="45.29384122915293" lon="11.683395921984877"><ele>93.0</ele><time>2026-04-18T10:04:03.002Z</time></trkpt><trkpt lat="45.29383621661683" lon="11.683269563226972"><ele>93.0</ele><time>2026-04-18T10:04:04Z</time></trkpt><trkpt lat="45.293805847944775" lon="11.683166765955761"><ele>91.4</ele><time>2026-04-18T10:04:05Z</time></trkpt><trkpt lat="45.29377284403083" lon="11.68304834026448"><ele>89.80000000000001</ele><time>2026-04-18T10:04:06Z</time></trkpt><trkpt lat="45.29369631780784" lon="11.682934984495155"><ele>88.2</ele><time>2026-04-18T10:04:07Z</time></trkpt><trkpt lat="45.293601095906894" lon="11.68285433313072"><ele>86.6</ele><time>2026-04-18T10:04:08Z</time></trkpt><trkpt lat="45.29350645909146" lon="11.68279012475337"><ele>85.0</ele><time>2026-04-18T10:04:09Z</time></trkpt><trkpt lat="45.293401101721116" lon="11.682724048992307"><ele>84.0</ele><time>2026-04-18T10:04:10Z</time></trkpt><trkpt lat="45.29330739050199" lon="11.682651330041475"><ele>83.0</ele><time>2026-04-18T10:04:11Z</time></trkpt><trkpt lat="45.293246414036226" lon="11.682543062934775"><ele>82.0</ele><time>2026-04-18T10:04:12Z</time></trkpt><trkpt lat="45.293231611069984" lon="11.682413122563066"><ele>81.0</ele><time>2026-04-18T10:04:13Z</time></trkpt><trkpt lat="45.29324210163308" lon="11.682248115459398"><ele>80.0</ele><time>2026-04-18T10:04:14Z</time></trkpt><trkpt lat="45.293244469618436" lon="11.682044323633102"><ele>79.75</ele><time>2026-04-18T10:04:15Z</time></trkpt><trkpt lat="45.29324756141305" lon="11.68184347220378"><ele>79.5</ele><time>2026-04-18T10:04:16Z</time></trkpt><trkpt lat="45.29322262820802" lon="11.681661345304992"><ele>79.25</ele><time>2026-04-18T10:04:17Z</time></trkpt><trkpt lat="45.293188985417096" lon="11.68147704816243"><ele>79.0</ele><time>2026-04-18T10:04:18Z</time></trkpt><trkpt lat="45.29313986719358" lon="11.681293423906503"><ele>80.75</ele><time>2026-04-18T10:04:19Z</time></trkpt><trkpt lat="45.2930835431428" lon="11.681119966345111"><ele>82.5</ele><time>2026-04-18T10:04:20Z</time></trkpt><trkpt lat="45.29301974508657" lon="11.680951324729357"><ele>84.25</ele><time>2026-04-18T10:04:21Z</time></trkpt><trkpt lat="45.29295140171696" lon="11.68077524714829"><ele>86.0</ele><time>2026-04-18T10:04:22Z</time></trkpt><trkpt lat="45.292883926281604" lon="11.68059472520545"><ele>86.0</ele><time>2026-04-18T10:04:23Z</time></trkpt><trkpt lat="45.292817609858886" lon="11.680403106547015"><ele>86.0</ele><time>2026-04-18T10:04:24Z</time></trkpt><trkpt lat="45.29276501395192" lon="11.68022141573246"><ele>86.0</ele><time>2026-04-18T10:04:25Z</time></trkpt><trkpt lat="45.29272419625334" lon="11.680049265004278"><ele>86.0</ele><time>2026-04-18T10:04:26Z</time></trkpt><trkpt lat="45.29267254430034" lon="11.679887587845995"><ele>83.25</ele><time>2026-04-18T10:04:27Z</time></trkpt><trkpt lat="45.29260245059381" lon="11.679737316880685"><ele>80.5</ele><time>2026-04-18T10:04:28Z</time></trkpt><trkpt lat="45.292503174125756" lon="11.679599259680014"><ele>77.75</ele><time>2026-04-18T10:04:29Z</time></trkpt><trkpt lat="45.29239245132526" lon="11.679445732810848"><ele>75.0</ele><time>2026-04-18T10:04:30Z</time></trkpt><trkpt lat="45.29227485325173" lon="11.679280234711543"><ele>78.66666666666667</ele><time>2026-04-18T10:04:31Z</time></trkpt><trkpt lat="45.29216495497883" lon="11.679102357418927"><ele>82.33333333333334</ele><time>2026-04-18T10:04:32Z</time></trkpt><trkpt lat="45.292068121901806" lon="11.678915006677032"><ele>86.0</ele><time>2026-04-18T10:04:33Z</time></trkpt><trkpt lat="45.2919829588399" lon="11.678727468809102"><ele>82.66666666666667</ele><time>2026-04-18T10:04:34Z</time></trkpt><trkpt lat="45.29191063793878" lon="11.678540566458256"><ele>79.33333333333333</ele><time>2026-04-18T10:04:35Z</time></trkpt><trkpt lat="45.29183343938875" lon="11.678338952715775"><ele>76.0</ele><time>2026-04-18T10:04:36Z</time></trkpt><trkpt lat="45.291754865824146" lon="11.678135160175366"><ele>76.0</ele><time>2026-04-18T10:04:37Z</time></trkpt><trkpt lat="45.29168248429343" lon="11.67793896597418"><ele>76.0</ele><time>2026-04-18T10:04:38Z</time></trkpt><trkpt lat="45.29162007587586" lon="11.677754407901167"><ele>76.0</ele><time>2026-04-18T10:04:39Z</time></trkpt><trkpt lat="45.291565764308345" lon="11.677578775989575"><ele>76.0</ele><time>2026-04-18T10:04:40.001Z</time></trkpt><trkpt lat="45.29152119367709" lon="11.677414128779256"><ele>76.8</ele><time>2026-04-18T10:04:41.001Z</time></trkpt><trkpt lat="45.29148659262105" lon="11.677255408359489"><ele>77.6</ele><time>2026-04-18T10:04:42.001Z</time></trkpt><trkpt lat="45.291449083240984" lon="11.677108988552257"><ele>78.4</ele><time>2026-04-18T10:04:43.001Z</time></trkpt><trkpt lat="45.29141602280074" lon="11.67697550059134"><ele>79.2</ele><time>2026-04-18T10:04:44.001Z</time></trkpt><trkpt lat="45.291386615603834" lon="11.67684700999409"><ele>80.0</ele><time>2026-04-18T10:04:45.001Z</time></trkpt><trkpt lat="45.29136073418122" lon="11.676711280086133"><ele>80.0</ele><time>2026-04-18T10:04:46.001Z</time></trkpt><trkpt lat="45.29133557718271" lon="11.67657225996731"><ele>80.0</ele><time>2026-04-18T10:04:47.001Z</time></trkpt><trkpt lat="45.29131012109235" lon="11.676438877544346"><ele>80.0</ele><time>2026-04-18T10:04:48.001Z</time></trkpt><trkpt lat="45.291276134769" lon="11.676302183462221"><ele>80.0</ele><time>2026-04-18T10:04:49.001Z</time></trkpt><trkpt lat="45.2912413571704" lon="11.676153528284125"><ele>80.0</ele><time>2026-04-18T10:04:50.001Z</time></trkpt><trkpt lat="45.291205358918944" lon="11.675982430173237"><ele>79.0</ele><time>2026-04-18T10:04:51.001Z</time></trkpt><trkpt lat="45.29117199929851" lon="11.675796320927128"><ele>78.0</ele><time>2026-04-18T10:04:52.001Z</time></trkpt><trkpt lat="45.291137756731665" lon="11.675592418239612"><ele>77.0</ele><time>2026-04-18T10:04:53.001Z</time></trkpt><trkpt lat="45.291120996310454" lon="11.675380297738384"><ele>76.0</ele><time>2026-04-18T10:04:54.001Z</time></trkpt><trkpt lat="45.291124612971124" lon="11.675176114689604"><ele>74.5</ele><time>2026-04-18T10:04:55.001Z</time></trkpt><trkpt lat="45.29115129062211" lon="11.674999830047431"><ele>73.0</ele><time>2026-04-18T10:04:56.001Z</time></trkpt><trkpt lat="45.291179727129105" lon="11.674820885363626"><ele>71.5</ele><time>2026-04-18T10:04:57.001Z</time></trkpt><trkpt lat="45.29120898940517" lon="11.674661030759864"><ele>70.0</ele><time>2026-04-18T10:04:58.001Z</time></trkpt><trkpt lat="45.29122700296133" lon="11.674500694262305"><ele>68.0</ele><time>2026-04-18T10:04:59.001Z</time></trkpt><trkpt lat="45.29124191018379" lon="11.674340370461092"><ele>66.0</ele><time>2026-04-18T10:05:00.001Z</time></trkpt><trkpt lat="45.29126016681922" lon="11.674174961691369"><ele>64.0</ele><time>2026-04-18T10:05:01.001Z</time></trkpt><trkpt lat="45.29127556837324" lon="11.674006801685145"><ele>62.0</ele><time>2026-04-18T10:05:02.001Z</time></trkpt><trkpt lat="45.29128424999871" lon="11.673839441240096"><ele>62.0</ele><time>2026-04-18T10:05:03.001Z</time></trkpt><trkpt lat="45.291290671811375" lon="11.673675824031884"><ele>62.0</ele><time>2026-04-18T10:05:04.001Z</time></trkpt><trkpt lat="45.29129407540225" lon="11.673514444310454"><ele>62.0</ele><time>2026-04-18T10:05:05.001Z</time></trkpt><trkpt lat="45.2912978900884" lon="11.673357177129086"><ele>62.0</ele><time>2026-04-18T10:05:06.001Z</time></trkpt><trkpt lat="45.29130121664885" lon="11.673202849447302"><ele>62.0</ele><time>2026-04-18T10:05:07.001Z</time></trkpt><trkpt lat="45.29130147466286" lon="11.673062516153756"><ele>60.75</ele><time>2026-04-18T10:05:08.001Z</time></trkpt><trkpt lat="45.291287605806815" lon="11.672914344666555"><ele>59.5</ele><time>2026-04-18T10:05:09.001Z</time></trkpt><trkpt lat="45.291271987199515" lon="11.672707197942684"><ele>58.25</ele><time>2026-04-18T10:05:10.001Z</time></trkpt><trkpt lat="45.291256236391916" lon="11.67243589906134"><ele>57.0</ele><time>2026-04-18T10:05:11.001Z</time></trkpt><trkpt lat="45.29123863371346" lon="11.672118133199557"><ele>54.5</ele><time>2026-04-18T10:05:12.001Z</time></trkpt><trkpt lat="45.29119162681926" lon="11.671742894502302"><ele>52.0</ele><time>2026-04-18T10:05:13.001Z</time></trkpt><trkpt lat="45.29111495700911" lon="11.671356048583743"><ele>51.5</ele><time>2026-04-18T10:05:14.001Z</time></trkpt><trkpt lat="45.29102597414741" lon="11.670981507482612"><ele>51.0</ele><time>2026-04-18T10:05:15.001Z</time></trkpt><trkpt lat="45.29095382696604" lon="11.670646190332711"><ele>51.0</ele><time>2026-04-18T10:05:16.001Z</time></trkpt><trkpt lat="45.2908785883624" lon="11.670346759584065"><ele>51.0</ele><time>2026-04-18T10:05:17.001Z</time></trkpt><trkpt lat="45.29081920004927" lon="11.670072390564934"><ele>51.0</ele><time>2026-04-18T10:05:18.001Z</time></trkpt><trkpt lat="45.29076852659934" lon="11.669807116538545"><ele>50.33333333333333</ele><time>2026-04-18T10:05:19.001Z</time></trkpt><trkpt lat="45.290735902243604" lon="11.669518981667641"><ele>49.666666666666664</ele><time>2026-04-18T10:05:20.001Z</time></trkpt><trkpt lat="45.290704347585724" lon="11.66919021875655"><ele>49.0</ele><time>2026-04-18T10:05:21.001Z</time></trkpt><trkpt lat="45.29068386588172" lon="11.66884462759511"><ele>48.5</ele><time>2026-04-18T10:05:22.001Z</time></trkpt><trkpt lat="45.290668729646015" lon="11.668531423404913"><ele>48.0</ele><time>2026-04-18T10:05:23.001Z</time></trkpt><trkpt lat="45.2906485733749" lon="11.668205014564913"><ele>48.0</ele><time>2026-04-18T10:05:24.001Z</time></trkpt><trkpt lat="45.29062959807343" lon="11.66788799059542"><ele>48.0</ele><time>2026-04-18T10:05:25.001Z</time></trkpt><trkpt lat="45.290612427767975" lon="11.667559304782255"><ele>47.666666666666664</ele><time>2026-04-18T10:05:26.001Z</time></trkpt><trkpt lat="45.29059411159099" lon="11.667236674282647"><ele>47.33333333333333</ele><time>2026-04-18T10:05:27.001Z</time></trkpt><trkpt lat="45.2905778457138" lon="11.66693822458215"><ele>47.0</ele><time>2026-04-18T10:05:28.001Z</time></trkpt><trkpt lat="45.290562465604694" lon="11.666641383723697"><ele>45.666666666666664</ele><time>2026-04-18T10:05:29.001Z</time></trkpt><trkpt lat="45.29054740401918" lon="11.66634467424207"><ele>44.333333333333336</ele><time>2026-04-18T10:05:30.001Z</time></trkpt><trkpt lat="45.290539198158406" lon="11.666060207693322"><ele>43.0</ele><time>2026-04-18T10:05:31.001Z</time></trkpt><trkpt lat="45.29055090479576" lon="11.665758083285374"><ele>42.5</ele><time>2026-04-18T10:05:32.001Z</time></trkpt><trkpt lat="45.29058957759901" lon="11.66541498006296"><ele>42.0</ele><time>2026-04-18T10:05:33.001Z</time></trkpt><trkpt lat="45.29063500431353" lon="11.665077340011432"><ele>43.666666666666664</ele><time>2026-04-18T10:05:34.001Z</time></trkpt><trkpt lat="45.29067669545074" lon="11.664770263092098"><ele>45.33333333333333</ele><time>2026-04-18T10:05:35.001Z</time></trkpt><trkpt lat="45.290711944136085" lon="11.664479548889146"><ele>47.0</ele><time>2026-04-18T10:05:36.001Z</time></trkpt><trkpt lat="45.290742937776706" lon="11.664220663148003"><ele>47.0</ele><time>2026-04-18T10:05:37.001Z</time></trkpt><trkpt lat="45.29077808221403" lon="11.663968254645923"><ele>47.0</ele><time>2026-04-18T10:05:38.001Z</time></trkpt><trkpt lat="45.29080942749247" lon="11.663735383555728"><ele>47.0</ele><time>2026-04-18T10:05:39.001Z</time></trkpt><trkpt lat="45.29084757270725" lon="11.663515599907642"><ele>45.25</ele><time>2026-04-18T10:05:40.001Z</time></trkpt><trkpt lat="45.29090357302152" lon="11.663300185663992"><ele>43.5</ele><time>2026-04-18T10:05:41.001Z</time></trkpt><trkpt lat="45.29097576586801" lon="11.663118756015608"><ele>41.75</ele><time>2026-04-18T10:05:42.001Z</time></trkpt><trkpt lat="45.29104588326831" lon="11.662955367454"><ele>40.0</ele><time>2026-04-18T10:05:43.001Z</time></trkpt><trkpt lat="45.29111154054272" lon="11.66280230553645"><ele>39.4</ele><time>2026-04-18T10:05:44.001Z</time></trkpt><trkpt lat="45.291171732905255" lon="11.662655732460834"><ele>38.8</ele><time>2026-04-18T10:05:45.001Z</time></trkpt><trkpt lat="45.291222925211194" lon="11.66251133127783"><ele>38.2</ele><time>2026-04-18T10:05:46.001Z</time></trkpt><trkpt lat="45.29125131611299" lon="11.662380651406046"><ele>37.6</ele><time>2026-04-18T10:05:47.001Z</time></trkpt><trkpt lat="45.29126575506671" lon="11.662280342520363"><ele>37.0</ele><time>2026-04-18T10:05:48.001Z</time></trkpt><trkpt lat="45.29125187044065" lon="11.66216333012657"><ele>37.0</ele><time>2026-04-18T10:05:50.001Z</time></trkpt><trkpt lat="45.291109567479324" lon="11.662085937332956"><ele>37.0</ele><time>2026-04-18T10:05:52.002Z</time></trkpt><trkpt lat="45.290974894235795" lon="11.66200240556357"><ele>37.0</ele><time>2026-04-18T10:05:53.002Z</time></trkpt><trkpt lat="45.290807337860414" lon="11.661926921252443"><ele>36.75</ele><time>2026-04-18T10:05:54.002Z</time></trkpt><trkpt lat="45.29077360949698" lon="11.661846272091521"><ele>36.5</ele><time>2026-04-18T10:05:55.002Z</time></trkpt><trkpt lat="45.29058921648293" lon="11.661738967620282"><ele>36.25</ele><time>2026-04-18T10:05:56.002Z</time></trkpt><trkpt lat="45.2904252588697" lon="11.661663746001874"><ele>36.0</ele><time>2026-04-18T10:05:57.002Z</time></trkpt><trkpt lat="45.290269464296784" lon="11.661618643046538"><ele>36.0</ele><time>2026-04-18T10:05:58.002Z</time></trkpt><trkpt lat="45.290116523921924" lon="11.661618127525143"><ele>36.0</ele><time>2026-04-18T10:05:59.002Z</time></trkpt><trkpt lat="45.289966336752656" lon="11.661642818093881"><ele>36.0</ele><time>2026-04-18T10:06:00.002Z</time></trkpt><trkpt lat="45.289819757425455" lon="11.661664218697153"><ele>35.333333333333336</ele><time>2026-04-18T10:06:01.002Z</time></trkpt><trkpt lat="45.2896610750201" lon="11.661663630910404"><ele>34.66666666666667</ele><time>2026-04-18T10:06:02.002Z</time></trkpt><trkpt lat="45.28945931184563" lon="11.661629290526644"><ele>34.0</ele><time>2026-04-18T10:06:03.002Z</time></trkpt><trkpt lat="45.28920755305841" lon="11.6615579029655"><ele>34.0</ele><time>2026-04-18T10:06:04.002Z</time></trkpt><trkpt lat="45.2889251949372" lon="11.661474345368413"><ele>34.0</ele><time>2026-04-18T10:06:05.002Z</time></trkpt><trkpt lat="45.288653102820234" lon="11.661383576984688"><ele>34.0</ele><time>2026-04-18T10:06:06.002Z</time></trkpt><trkpt lat="45.28843255664412" lon="11.661273934771927"><ele>34.0</ele><time>2026-04-18T10:06:07.002Z</time></trkpt><trkpt lat="45.28823870070867" lon="11.661159698418237"><ele>34.0</ele><time>2026-04-18T10:06:08.002Z</time></trkpt><trkpt lat="45.288071552014664" lon="11.66106449888906"><ele>35.0</ele><time>2026-04-18T10:06:09.002Z</time></trkpt><trkpt lat="45.287935388153144" lon="11.661005963446586"><ele>36.0</ele><time>2026-04-18T10:06:10Z</time></trkpt><trkpt lat="45.28778279559791" lon="11.660969505476123"><ele>37.0</ele><time>2026-04-18T10:06:11Z</time></trkpt><trkpt lat="45.28759067106983" lon="11.66098150840128"><ele>37.0</ele><time>2026-04-18T10:06:12Z</time></trkpt><trkpt lat="45.287399567138856" lon="11.661008151204365"><ele>37.0</ele><time>2026-04-18T10:06:13Z</time></trkpt><trkpt lat="45.28720307746365" lon="11.66104811594343"><ele>37.0</ele><time>2026-04-18T10:06:14Z</time></trkpt><trkpt lat="45.28699947512383" lon="11.66110684176069"><ele>40.333333333333336</ele><time>2026-04-18T10:06:15Z</time></trkpt><trkpt lat="45.28680536488259" lon="11.661178243544935"><ele>43.666666666666664</ele><time>2026-04-18T10:06:16Z</time></trkpt><trkpt lat="45.28664950142209" lon="11.661245575895448"><ele>47.0</ele><time>2026-04-18T10:06:17Z</time></trkpt><trkpt lat="45.28655000932705" lon="11.661318443727529"><ele>45.33333333333333</ele><time>2026-04-18T10:06:18Z</time></trkpt><trkpt lat="45.28640315449841" lon="11.661408044409335"><ele>43.666666666666664</ele><time>2026-04-18T10:06:19Z</time></trkpt><trkpt lat="45.286221871493645" lon="11.66155401386153"><ele>42.0</ele><time>2026-04-18T10:06:20Z</time></trkpt><trkpt lat="45.28602130161341" lon="11.661744610299332"><ele>43.0</ele><time>2026-04-18T10:06:21Z</time></trkpt><trkpt lat="45.28579141808755" lon="11.661957690854555"><ele>44.0</ele><time>2026-04-18T10:06:22Z</time></trkpt><trkpt lat="45.28556123841798" lon="11.66220872806901"><ele>44.0</ele><time>2026-04-18T10:06:23Z</time></trkpt><trkpt lat="45.285335837640034" lon="11.662466879959348"><ele>44.0</ele><time>2026-04-18T10:06:24Z</time></trkpt><trkpt lat="45.28511842031823" lon="11.662655079930452"><ele>46.0</ele><time>2026-04-18T10:06:25Z</time></trkpt><trkpt lat="45.28492728051824" lon="11.662791598214374"><ele>48.0</ele><time>2026-04-18T10:06:26Z</time></trkpt><trkpt lat="45.28471533981948" lon="11.6628582015835"><ele>50.0</ele><time>2026-04-18T10:06:27Z</time></trkpt><trkpt lat="45.284479985012126" lon="11.662903212035944"><ele>50.5</ele><time>2026-04-18T10:06:28Z</time></trkpt><trkpt lat="45.28420947772436" lon="11.662921651088078"><ele>51.0</ele><time>2026-04-18T10:06:29Z</time></trkpt><trkpt lat="45.28396233888279" lon="11.662921961677357"><ele>53.0</ele><time>2026-04-18T10:06:30Z</time></trkpt><trkpt lat="45.283748808693296" lon="11.662927935343717"><ele>55.0</ele><time>2026-04-18T10:06:31Z</time></trkpt><trkpt lat="45.28353743452448" lon="11.662946188544229"><ele>57.0</ele><time>2026-04-18T10:06:32Z</time></trkpt><trkpt lat="45.28332687694055" lon="11.662996805097565"><ele>57.0</ele><time>2026-04-18T10:06:33Z</time></trkpt><trkpt lat="45.28311949259743" lon="11.663108004704712"><ele>57.0</ele><time>2026-04-18T10:06:34Z</time></trkpt><trkpt lat="45.282925307431725" lon="11.663236264744247"><ele>57.0</ele><time>2026-04-18T10:06:35Z</time></trkpt><trkpt lat="45.28274834842305" lon="11.663312199271571"><ele>59.0</ele><time>2026-04-18T10:06:36Z</time></trkpt><trkpt lat="45.28258578539099" lon="11.663341752127177"><ele>61.0</ele><time>2026-04-18T10:06:37Z</time></trkpt><trkpt lat="45.28243764667353" lon="11.663358234948612"><ele>63.0</ele><time>2026-04-18T10:06:38Z</time></trkpt><trkpt lat="45.28230181841082" lon="11.663349634473416"><ele>65.0</ele><time>2026-04-18T10:06:39Z</time></trkpt><trkpt lat="45.28217920520114" lon="11.66330851711531"><ele>65.0</ele><time>2026-04-18T10:06:40Z</time></trkpt><trkpt lat="45.282042094549055" lon="11.663224543324443"><ele>65.0</ele><time>2026-04-18T10:06:41Z</time></trkpt><trkpt lat="45.281866458463206" lon="11.66309285023743"><ele>65.0</ele><time>2026-04-18T10:06:42Z</time></trkpt><trkpt lat="45.28164273246104" lon="11.662951809336894"><ele>62.66666666666667</ele><time>2026-04-18T10:06:43Z</time></trkpt><trkpt lat="45.281427897642494" lon="11.662825899004078"><ele>60.33333333333333</ele><time>2026-04-18T10:06:44Z</time></trkpt><trkpt lat="45.281239682096135" lon="11.662680934813705"><ele>58.0</ele><time>2026-04-18T10:06:45Z</time></trkpt><trkpt lat="45.28104445245131" lon="11.662516410400334"><ele>58.0</ele><time>2026-04-18T10:06:46Z</time></trkpt><trkpt lat="45.28080444280242" lon="11.662395355030855"><ele>58.0</ele><time>2026-04-18T10:06:47Z</time></trkpt><trkpt lat="45.28055359135951" lon="11.6623195664146"><ele>54.33333333333333</ele><time>2026-04-18T10:06:48.001Z</time></trkpt><trkpt lat="45.28032569507596" lon="11.662284311947477"><ele>50.666666666666664</ele><time>2026-04-18T10:06:49.001Z</time></trkpt><trkpt lat="45.2801325148809" lon="11.66224906913963"><ele>47.0</ele><time>2026-04-18T10:06:50.001Z</time></trkpt><trkpt lat="45.27995298550642" lon="11.662194320007425"><ele>47.0</ele><time>2026-04-18T10:06:51.001Z</time></trkpt><trkpt lat="45.27978690999762" lon="11.662113549108053"><ele>47.0</ele><time>2026-04-18T10:06:52.001Z</time></trkpt><trkpt lat="45.27960468065134" lon="11.661987204168351"><ele>47.0</ele><time>2026-04-18T10:06:53.001Z</time></trkpt><trkpt lat="45.27939333463761" lon="11.66183094702125"><ele>49.0</ele><time>2026-04-18T10:06:54.001Z</time></trkpt><trkpt lat="45.27920719844616" lon="11.661679232409734"><ele>51.0</ele><time>2026-04-18T10:06:55.001Z</time></trkpt><trkpt lat="45.279031947520814" lon="11.66156007238183"><ele>53.0</ele><time>2026-04-18T10:06:56.001Z</time></trkpt><trkpt lat="45.27884311334426" lon="11.661419769786674"><ele>52.333333333333336</ele><time>2026-04-18T10:06:57.001Z</time></trkpt><trkpt lat="45.27867229647666" lon="11.661252694406077"><ele>51.66666666666667</ele><time>2026-04-18T10:06:58.001Z</time></trkpt><trkpt lat="45.2785139340515" lon="11.661103916039744"><ele>51.0</ele><time>2026-04-18T10:06:59.001Z</time></trkpt><trkpt lat="45.278356847883806" lon="11.660979191274356"><ele>51.0</ele><time>2026-04-18T10:07:00.001Z</time></trkpt><trkpt lat="45.27819711642258" lon="11.660893843308196"><ele>51.0</ele><time>2026-04-18T10:07:01.001Z</time></trkpt><trkpt lat="45.27804104990489" lon="11.660834181765708"><ele>51.0</ele><time>2026-04-18T10:07:02.001Z</time></trkpt><trkpt lat="45.27789062826966" lon="11.660785290876177"><ele>48.0</ele><time>2026-04-18T10:07:03.001Z</time></trkpt><trkpt lat="45.27774761293394" lon="11.66073611057436"><ele>45.0</ele><time>2026-04-18T10:07:04.001Z</time></trkpt><trkpt lat="45.27761621149375" lon="11.660684847615402"><ele>42.0</ele><time>2026-04-18T10:07:05.001Z</time></trkpt><trkpt lat="45.27750643899982" lon="11.660641475488218"><ele>39.0</ele><time>2026-04-18T10:07:06.001Z</time></trkpt><trkpt lat="45.2774122625479" lon="11.660612259468191"><ele>39.0</ele><time>2026-04-18T10:07:07.001Z</time></trkpt><trkpt lat="45.27733531003287" lon="11.660608155700665"><ele>39.0</ele><time>2026-04-18T10:07:08.001Z</time></trkpt><trkpt lat="45.27727257115604" lon="11.660660092799061"><ele>39.0</ele><time>2026-04-18T10:07:09.001Z</time></trkpt><trkpt lat="45.27723495989957" lon="11.66077792909585"><ele>39.0</ele><time>2026-04-18T10:07:10.001Z</time></trkpt><trkpt lat="45.277229683997916" lon="11.6609335458693"><ele>39.0</ele><time>2026-04-18T10:07:11.001Z</time></trkpt><trkpt lat="45.27722530932854" lon="11.661112224560801"><ele>35.75</ele><time>2026-04-18T10:07:12.001Z</time></trkpt><trkpt lat="45.277203612000136" lon="11.661276808316927"><ele>32.5</ele><time>2026-04-18T10:07:13.001Z</time></trkpt><trkpt lat="45.27716740951839" lon="11.661426616400789"><ele>29.25</ele><time>2026-04-18T10:07:14.001Z</time></trkpt><trkpt lat="45.277086318053385" lon="11.66154846921646"><ele>26.0</ele><time>2026-04-18T10:07:15.001Z</time></trkpt><trkpt lat="45.277023944756834" lon="11.66168725797079"><ele>25.999999999999996</ele><time>2026-04-18T10:07:16.001Z</time></trkpt><trkpt lat="45.27695964971758" lon="11.661796678168733"><ele>26.0</ele><time>2026-04-18T10:07:17.001Z</time></trkpt><trkpt lat="45.27691265997384" lon="11.661879972508144"><ele>26.0</ele><time>2026-04-18T10:07:18.001Z</time></trkpt><trkpt lat="45.276863669936695" lon="11.66193915133688"><ele>26.0</ele><time>2026-04-18T10:07:19.001Z</time></trkpt><trkpt lat="45.27682146679497" lon="11.662014921679106"><ele>25.999999999999996</ele><time>2026-04-18T10:07:20.001Z</time></trkpt><trkpt lat="45.276767485459445" lon="11.662072822744543"><ele>26.0</ele><time>2026-04-18T10:07:21.001Z</time></trkpt><trkpt lat="45.27681040519935" lon="11.662288451251573"><ele>25.8</ele><time>2026-04-18T10:07:22.001Z</time></trkpt><trkpt lat="45.276812773704584" lon="11.66245495734815"><ele>25.6</ele><time>2026-04-18T10:07:23.001Z</time></trkpt><trkpt lat="45.2767844976875" lon="11.662584585963343"><ele>25.4</ele><time>2026-04-18T10:07:24.001Z</time></trkpt><trkpt lat="45.27672045694297" lon="11.662677768709626"><ele>25.2</ele><time>2026-04-18T10:07:25.001Z</time></trkpt><trkpt lat="45.276627609671884" lon="11.662722341777032"><ele>25.0</ele><time>2026-04-18T10:07:26.001Z</time></trkpt><trkpt lat="45.27651062062279" lon="11.662697341206474"><ele>24.0</ele><time>2026-04-18T10:07:27.001Z</time></trkpt><trkpt lat="45.276355472462896" lon="11.66271133162163"><ele>23.0</ele><time>2026-04-18T10:07:28.001Z</time></trkpt><trkpt lat="45.27617710368106" lon="11.662697521936535"><ele>22.0</ele><time>2026-04-18T10:07:29.001Z</time></trkpt><trkpt lat="45.27601969068171" lon="11.662690827928964"><ele>22.0</ele><time>2026-04-18T10:07:30.001Z</time></trkpt><trkpt lat="45.27585330559975" lon="11.662690053938448"><ele>22.0</ele><time>2026-04-18T10:07:31.001Z</time></trkpt><trkpt lat="45.27567086504371" lon="11.662691127835219"><ele>22.0</ele><time>2026-04-18T10:07:32.001Z</time></trkpt><trkpt lat="45.27549871541406" lon="11.662692440148485"><ele>21.666666666666664</ele><time>2026-04-18T10:07:33.001Z</time></trkpt><trkpt lat="45.27534769784115" lon="11.66269850992401"><ele>21.333333333333332</ele><time>2026-04-18T10:07:34.001Z</time></trkpt><trkpt lat="45.27519367811626" lon="11.662711750069004"><ele>21.0</ele><time>2026-04-18T10:07:35.001Z</time></trkpt><trkpt lat="45.275023337798864" lon="11.6627479989219"><ele>21.0</ele><time>2026-04-18T10:07:36.001Z</time></trkpt><trkpt lat="45.274847188733695" lon="11.662800619940272"><ele>21.0</ele><time>2026-04-18T10:07:37.001Z</time></trkpt><trkpt lat="45.27469201745094" lon="11.66287835321212"><ele>21.0</ele><time>2026-04-18T10:07:38.001Z</time></trkpt><trkpt lat="45.274543405399406" lon="11.662966658693632"><ele>21.0</ele><time>2026-04-18T10:07:39.001Z</time></trkpt><trkpt lat="45.27439823646238" lon="11.663056454483996"><ele>21.0</ele><time>2026-04-18T10:07:40.001Z</time></trkpt><trkpt lat="45.27424561125422" lon="11.663128116798168"><ele>21.0</ele><time>2026-04-18T10:07:41.001Z</time></trkpt><trkpt lat="45.2740798707303" lon="11.663176368878863"><ele>20.0</ele><time>2026-04-18T10:07:42.001Z</time></trkpt><trkpt lat="45.27390111179459" lon="11.663195197614108"><ele>19.0</ele><time>2026-04-18T10:07:43.001Z</time></trkpt><trkpt lat="45.27369831501825" lon="11.663182316431298"><ele>18.0</ele><time>2026-04-18T10:07:44.001Z</time></trkpt><trkpt lat="45.27346676770609" lon="11.663159639575117"><ele>18.0</ele><time>2026-04-18T10:07:45.001Z</time></trkpt><trkpt lat="45.27320264252172" lon="11.663114410360455"><ele>18.0</ele><time>2026-04-18T10:07:46.001Z</time></trkpt><trkpt lat="45.272907023456746" lon="11.663062367904187"><ele>17.0</ele><time>2026-04-18T10:07:47.001Z</time></trkpt><trkpt lat="45.272626854440446" lon="11.663019728003748"><ele>16.0</ele><time>2026-04-18T10:07:48.001Z</time></trkpt><trkpt lat="45.272380613263344" lon="11.662975925338891"><ele>14.666666666666666</ele><time>2026-04-18T10:07:49.001Z</time></trkpt><trkpt lat="45.27216948258868" lon="11.662946897211958"><ele>13.333333333333332</ele><time>2026-04-18T10:07:50.001Z</time></trkpt><trkpt lat="45.271970002452555" lon="11.66294091458416"><ele>12.0</ele><time>2026-04-18T10:07:51.001Z</time></trkpt><trkpt lat="45.271776271953925" lon="11.662979151627148"><ele>12.0</ele><time>2026-04-18T10:07:52.001Z</time></trkpt><trkpt lat="45.271579204504235" lon="11.663081460455"><ele>12.0</ele><time>2026-04-18T10:07:53.001Z</time></trkpt><trkpt lat="45.27138392390768" lon="11.663225288609462"><ele>12.0</ele><time>2026-04-18T10:07:54.001Z</time></trkpt><trkpt lat="45.27120371547496" lon="11.663421449602067"><ele>12.333333333333332</ele><time>2026-04-18T10:07:55.001Z</time></trkpt><trkpt lat="45.27102356173214" lon="11.663596629445767"><ele>12.666666666666666</ele><time>2026-04-18T10:07:56.001Z</time></trkpt><trkpt lat="45.27082297277039" lon="11.66373529033642"><ele>13.0</ele><time>2026-04-18T10:07:57.001Z</time></trkpt><trkpt lat="45.270598796239064" lon="11.663828166991436"><ele>17.5</ele><time>2026-04-18T10:07:58.001Z</time></trkpt><trkpt lat="45.27036391339911" lon="11.663866100963789"><ele>22.0</ele><time>2026-04-18T10:07:59.001Z</time></trkpt><trkpt lat="45.270144227821355" lon="11.663887932262684"><ele>22.0</ele><time>2026-04-18T10:08:00.001Z</time></trkpt><trkpt lat="45.26994660644865" lon="11.66389913562384"><ele>22.0</ele><time>2026-04-18T10:08:01.001Z</time></trkpt><trkpt lat="45.269738226359316" lon="11.663886773916248"><ele>22.0</ele><time>2026-04-18T10:08:02.002Z</time></trkpt><trkpt lat="45.26953490630247" lon="11.663842929975939"><ele>24.0</ele><time>2026-04-18T10:08:03.002Z</time></trkpt><trkpt lat="45.26935653223765" lon="11.663773431990075"><ele>26.0</ele><time>2026-04-18T10:08:04.002Z</time></trkpt><trkpt lat="45.26919703751598" lon="11.663695573981949"><ele>28.0</ele><time>2026-04-18T10:08:05.002Z</time></trkpt><trkpt lat="45.26905949736185" lon="11.663627212411864"><ele>25.5</ele><time>2026-04-18T10:08:06.002Z</time></trkpt><trkpt lat="45.268931941190935" lon="11.663591609802285"><ele>23.0</ele><time>2026-04-18T10:08:07.002Z</time></trkpt><trkpt lat="45.26881253927251" lon="11.66359435030536"><ele>20.5</ele><time>2026-04-18T10:08:08.002Z</time></trkpt><trkpt lat="45.2687019349752" lon="11.663667224664916"><ele>18.0</ele><time>2026-04-18T10:08:09.002Z</time></trkpt><trkpt lat="45.26860655986166" lon="11.663807984038996"><ele>18.0</ele><time>2026-04-18T10:08:10.002Z</time></trkpt><trkpt lat="45.2685372970065" lon="11.66403194061198"><ele>18.0</ele><time>2026-04-18T10:08:11.002Z</time></trkpt><trkpt lat="45.268485338604094" lon="11.66430755171963"><ele>18.0</ele><time>2026-04-18T10:08:12.002Z</time></trkpt><trkpt lat="45.26843345259153" lon="11.664601848361853"><ele>19.666666666666668</ele><time>2026-04-18T10:08:13.002Z</time></trkpt><trkpt lat="45.26838247232447" lon="11.664864135399817"><ele>21.333333333333336</ele><time>2026-04-18T10:08:14.002Z</time></trkpt><trkpt lat="45.268347163515784" lon="11.665167844879752"><ele>23.0</ele><time>2026-04-18T10:08:15.002Z</time></trkpt><trkpt lat="45.268305329479624" lon="11.665510634998835"><ele>23.666666666666668</ele><time>2026-04-18T10:08:16Z</time></trkpt><trkpt lat="45.26827929360683" lon="11.66583748308344"><ele>24.333333333333336</ele><time>2026-04-18T10:08:17Z</time></trkpt><trkpt lat="45.26825369260449" lon="11.666136626739979"><ele>25.0</ele><time>2026-04-18T10:08:18Z</time></trkpt><trkpt lat="45.26822983513581" lon="11.666440051646486"><ele>26.0</ele><time>2026-04-18T10:08:19Z</time></trkpt><trkpt lat="45.26820674006876" lon="11.666753679741426"><ele>27.0</ele><time>2026-04-18T10:08:20Z</time></trkpt><trkpt lat="45.26817756212733" lon="11.6670827057663"><ele>24.5</ele><time>2026-04-18T10:08:21Z</time></trkpt><trkpt lat="45.26813671758626" lon="11.667409902038417"><ele>22.0</ele><time>2026-04-18T10:08:22Z</time></trkpt><trkpt lat="45.268080401444664" lon="11.667734867267646"><ele>18.0</ele><time>2026-04-18T10:08:23Z</time></trkpt><trkpt lat="45.26800266318419" lon="11.668046697050453"><ele>14.0</ele><time>2026-04-18T10:08:24Z</time></trkpt><trkpt lat="45.267911647278154" lon="11.668345299871335"><ele>15.0</ele><time>2026-04-18T10:08:25Z</time></trkpt><trkpt lat="45.26782295095791" lon="11.66862276074001"><ele>16.0</ele><time>2026-04-18T10:08:26Z</time></trkpt><trkpt lat="45.26775065863389" lon="11.668877077413388"><ele>17.0</ele><time>2026-04-18T10:08:27Z</time></trkpt><trkpt lat="45.26766510714001" lon="11.669118390129855"><ele>17.0</ele><time>2026-04-18T10:08:28Z</time></trkpt><trkpt lat="45.26758533555552" lon="11.669379487775105"><ele>17.0</ele><time>2026-04-18T10:08:29Z</time></trkpt><trkpt lat="45.26749891031128" lon="11.669624631046743"><ele>17.0</ele><time>2026-04-18T10:08:30Z</time></trkpt><trkpt lat="45.26741608197115" lon="11.669867936164335"><ele>16.0</ele><time>2026-04-18T10:08:31Z</time></trkpt><trkpt lat="45.26733730316474" lon="11.670104514914657"><ele>15.0</ele><time>2026-04-18T10:08:32Z</time></trkpt><trkpt lat="45.26726880338681" lon="11.670343363292046"><ele>14.0</ele><time>2026-04-18T10:08:33Z</time></trkpt><trkpt lat="45.26721044801092" lon="11.670630360531602"><ele>14.0</ele><time>2026-04-18T10:08:34Z</time></trkpt><trkpt lat="45.26714662528311" lon="11.67095521087622"><ele>14.0</ele><time>2026-04-18T10:08:35Z</time></trkpt><trkpt lat="45.267109116735874" lon="11.671273710183707"><ele>14.333333333333334</ele><time>2026-04-18T10:08:36Z</time></trkpt><trkpt lat="45.26703547256392" lon="11.671550234246043"><ele>14.666666666666668</ele><time>2026-04-18T10:08:37Z</time></trkpt><trkpt lat="45.266952286143464" lon="11.671794854988363"><ele>15.0</ele><time>2026-04-18T10:08:38Z</time></trkpt><trkpt lat="45.26686552751044" lon="11.671990892842171"><ele>15.5</ele><time>2026-04-18T10:08:39Z</time></trkpt><trkpt lat="45.266798253729156" lon="11.672175454992619"><ele>16.0</ele><time>2026-04-18T10:08:40Z</time></trkpt><trkpt lat="45.26676017730484" lon="11.672343576432167"><ele>16.5</ele><time>2026-04-18T10:08:41Z</time></trkpt><trkpt lat="45.26674816209609" lon="11.672509770639893"><ele>17.0</ele><time>2026-04-18T10:08:42Z</time></trkpt><trkpt lat="45.266727926822" lon="11.672728906221472"><ele>17.0</ele><time>2026-04-18T10:08:43Z</time></trkpt><trkpt lat="45.26672292056802" lon="11.673021325628822"><ele>17.0</ele><time>2026-04-18T10:08:44Z</time></trkpt><trkpt lat="45.26674168341692" lon="11.673335625988027"><ele>17.0</ele><time>2026-04-18T10:08:45Z</time></trkpt><trkpt lat="45.26676326185021" lon="11.673605585437986"><ele>17.0</ele><time>2026-04-18T10:08:46Z</time></trkpt><trkpt lat="45.26677034718514" lon="11.673908027998726"><ele>17.0</ele><time>2026-04-18T10:08:47Z</time></trkpt><trkpt lat="45.2667584050789" lon="11.67422752596115"><ele>17.0</ele><time>2026-04-18T10:08:48Z</time></trkpt><trkpt lat="45.26675094740581" lon="11.67456779432678"><ele>17.0</ele><time>2026-04-18T10:08:49Z</time></trkpt><trkpt lat="45.266751285889406" lon="11.674889553989448"><ele>17.0</ele><time>2026-04-18T10:08:50Z</time></trkpt><trkpt lat="45.266737915145" lon="11.675176056831607"><ele>17.0</ele><time>2026-04-18T10:08:51Z</time></trkpt><trkpt lat="45.2667336309752" lon="11.675477260219495"><ele>17.333333333333336</ele><time>2026-04-18T10:08:52Z</time></trkpt><trkpt lat="45.26672571754452" lon="11.675773174996259"><ele>17.666666666666668</ele><time>2026-04-18T10:08:53Z</time></trkpt><trkpt lat="45.26671508161204" lon="11.676066525243682"><ele>18.0</ele><time>2026-04-18T10:08:54Z</time></trkpt><trkpt lat="45.26671999074235" lon="11.67635279889964"><ele>18.333333333333332</ele><time>2026-04-18T10:08:55Z</time></trkpt><trkpt lat="45.26675060347282" lon="11.676617773622144"><ele>18.666666666666664</ele><time>2026-04-18T10:08:56Z</time></trkpt><trkpt lat="45.26679605580901" lon="11.676871309602143"><ele>19.0</ele><time>2026-04-18T10:08:57Z</time></trkpt><trkpt lat="45.266837062954885" lon="11.677120026204701"><ele>19.0</ele><time>2026-04-18T10:08:58.001Z</time></trkpt><trkpt lat="45.26684171107816" lon="11.677398239639388"><ele>19.0</ele><time>2026-04-18T10:08:59.001Z</time></trkpt><trkpt lat="45.26684484445878" lon="11.677686710892988"><ele>19.0</ele><time>2026-04-18T10:09:00.001Z</time></trkpt><trkpt lat="45.26688002134924" lon="11.677981384288433"><ele>20.0</ele><time>2026-04-18T10:09:01.001Z</time></trkpt><trkpt lat="45.26693690279846" lon="11.678265309904251"><ele>21.0</ele><time>2026-04-18T10:09:02.001Z</time></trkpt><trkpt lat="45.26698469593465" lon="11.67852008917512"><ele>22.0</ele><time>2026-04-18T10:09:03.001Z</time></trkpt><trkpt lat="45.26699955243288" lon="11.678777090787234"><ele>22.666666666666664</ele><time>2026-04-18T10:09:04.001Z</time></trkpt><trkpt lat="45.26697659213359" lon="11.6790635867354"><ele>23.333333333333332</ele><time>2026-04-18T10:09:05.001Z</time></trkpt><trkpt lat="45.2669246410159" lon="11.679359622070029"><ele>24.0</ele><time>2026-04-18T10:09:06.001Z</time></trkpt><trkpt lat="45.26687023998925" lon="11.679625619792825"><ele>24.0</ele><time>2026-04-18T10:09:07.001Z</time></trkpt><trkpt lat="45.266828062388356" lon="11.67987201949767"><ele>24.0</ele><time>2026-04-18T10:09:08.001Z</time></trkpt><trkpt lat="45.266790411943454" lon="11.680115434776678"><ele>24.0</ele><time>2026-04-18T10:09:09.001Z</time></trkpt><trkpt lat="45.266770696024764" lon="11.680351930966134"><ele>24.666666666666664</ele><time>2026-04-18T10:09:10.001Z</time></trkpt><trkpt lat="45.26675787640654" lon="11.680597393267103"><ele>25.333333333333332</ele><time>2026-04-18T10:09:11.001Z</time></trkpt><trkpt lat="45.26677293571283" lon="11.680841076544594"><ele>26.0</ele><time>2026-04-18T10:09:12.001Z</time></trkpt><trkpt lat="45.266810166720084" lon="11.681085220920963"><ele>26.0</ele><time>2026-04-18T10:09:13.001Z</time></trkpt><trkpt lat="45.26684542889586" lon="11.681330356272346"><ele>26.0</ele><time>2026-04-18T10:09:14.001Z</time></trkpt><trkpt lat="45.26684876426347" lon="11.681563762189143"><ele>26.0</ele><time>2026-04-18T10:09:15.001Z</time></trkpt><trkpt lat="45.266826079303314" lon="11.681779240701694"><ele>26.666666666666664</ele><time>2026-04-18T10:09:16.001Z</time></trkpt><trkpt lat="45.26678991343803" lon="11.681992016319363"><ele>27.333333333333336</ele><time>2026-04-18T10:09:17.001Z</time></trkpt><trkpt lat="45.26671271056557" lon="11.682216633433702"><ele>28.0</ele><time>2026-04-18T10:09:18.001Z</time></trkpt><trkpt lat="45.2666149556098" lon="11.6824487328409"><ele>28.0</ele><time>2026-04-18T10:09:19.001Z</time></trkpt><trkpt lat="45.266515089122386" lon="11.682668092343656"><ele>28.0</ele><time>2026-04-18T10:09:20.001Z</time></trkpt><trkpt lat="45.26640642076229" lon="11.68287032502671"><ele>28.0</ele><time>2026-04-18T10:09:21.001Z</time></trkpt><trkpt lat="45.26628442028908" lon="11.683058426594574"><ele>27.333333333333336</ele><time>2026-04-18T10:09:22.001Z</time></trkpt><trkpt lat="45.266160752186416" lon="11.683226656330966"><ele>26.666666666666664</ele><time>2026-04-18T10:09:23.001Z</time></trkpt><trkpt lat="45.26604560750208" lon="11.683391782465225"><ele>26.0</ele><time>2026-04-18T10:09:24.001Z</time></trkpt><trkpt lat="45.26594577219368" lon="11.68355131103438"><ele>26.0</ele><time>2026-04-18T10:09:25.001Z</time></trkpt><trkpt lat="45.26588080023562" lon="11.683755912734865"><ele>26.0</ele><time>2026-04-18T10:09:26.001Z</time></trkpt><trkpt lat="45.26584243248045" lon="11.683987793064787"><ele>26.0</ele><time>2026-04-18T10:09:27.001Z</time></trkpt><trkpt lat="45.26582672861389" lon="11.684222945813344"><ele>26.666666666666664</ele><time>2026-04-18T10:09:28.001Z</time></trkpt><trkpt lat="45.265808099257704" lon="11.684434693015405"><ele>27.333333333333336</ele><time>2026-04-18T10:09:29.001Z</time></trkpt><trkpt lat="45.265760542652025" lon="11.684640488479758"><ele>28.0</ele><time>2026-04-18T10:09:30.001Z</time></trkpt><trkpt lat="45.26566760129577" lon="11.684838597700017"><ele>26.666666666666668</ele><time>2026-04-18T10:09:31.001Z</time></trkpt><trkpt lat="45.2655566035257" lon="11.685026834974622"><ele>25.333333333333336</ele><time>2026-04-18T10:09:32.001Z</time></trkpt><trkpt lat="45.26544424009243" lon="11.685206009352532"><ele>24.0</ele><time>2026-04-18T10:09:33.001Z</time></trkpt><trkpt lat="45.26532569708188" lon="11.685326369000117"><ele>24.0</ele><time>2026-04-18T10:09:34.001Z</time></trkpt><trkpt lat="45.26519795576882" lon="11.68541360059288"><ele>24.0</ele><time>2026-04-18T10:09:35.001Z</time></trkpt><trkpt lat="45.26506950736218" lon="11.685485724736287"><ele>24.0</ele><time>2026-04-18T10:09:36.001Z</time></trkpt><trkpt lat="45.26494948111602" lon="11.685597739105278"><ele>24.0</ele><time>2026-04-18T10:09:37.001Z</time></trkpt><trkpt lat="45.2648783669825" lon="11.685783164989767"><ele>24.0</ele><time>2026-04-18T10:09:38.001Z</time></trkpt><trkpt lat="45.26485727073898" lon="11.685987852439684"><ele>24.0</ele><time>2026-04-18T10:09:39.001Z</time></trkpt><trkpt lat="45.26487951575036" lon="11.686210519662438"><ele>24.0</ele><time>2026-04-18T10:09:40.001Z</time></trkpt><trkpt lat="45.2649188933076" lon="11.686427565300047"><ele>23.75</ele><time>2026-04-18T10:09:41.001Z</time></trkpt><trkpt lat="45.264954659093355" lon="11.686622465336875"><ele>23.5</ele><time>2026-04-18T10:09:42.001Z</time></trkpt><trkpt lat="45.264966745553" lon="11.686823602846722"><ele>23.25</ele><time>2026-04-18T10:09:43.001Z</time></trkpt><trkpt lat="45.26499379600691" lon="11.68701989578713"><ele>23.0</ele><time>2026-04-18T10:09:44.001Z</time></trkpt><trkpt lat="45.26503068465763" lon="11.68723010969007"><ele>23.0</ele><time>2026-04-18T10:09:45.001Z</time></trkpt><trkpt lat="45.26506517186079" lon="11.687452021820611"><ele>23.0</ele><time>2026-04-18T10:09:46.001Z</time></trkpt><trkpt lat="45.26509048645322" lon="11.68764968698027"><ele>23.0</ele><time>2026-04-18T10:09:47.001Z</time></trkpt><trkpt lat="45.265118792755814" lon="11.687825353294386"><ele>23.0</ele><time>2026-04-18T10:09:48.001Z</time></trkpt><trkpt lat="45.26513957664827" lon="11.68797926863917"><ele>23.0</ele><time>2026-04-18T10:09:49.001Z</time></trkpt><trkpt lat="45.26512536306052" lon="11.688121623273734"><ele>23.0</ele><time>2026-04-18T10:09:50.001Z</time></trkpt><trkpt lat="45.265050995043524" lon="11.6882324504326"><ele>23.0</ele><time>2026-04-18T10:09:51.001Z</time></trkpt><trkpt lat="45.26494593244679" lon="11.688328698100776"><ele>23.0</ele><time>2026-04-18T10:09:52.001Z</time></trkpt><trkpt lat="45.26481158781699" lon="11.688376495430276"><ele>23.666666666666668</ele><time>2026-04-18T10:09:53.001Z</time></trkpt><trkpt lat="45.26464379373973" lon="11.688369800627239"><ele>24.333333333333336</ele><time>2026-04-18T10:09:54.001Z</time></trkpt><trkpt lat="45.26448269543491" lon="11.688331827065921"><ele>25.0</ele><time>2026-04-18T10:09:55.001Z</time></trkpt><trkpt lat="45.264349705885515" lon="11.688275745285491"><ele>25.0</ele><time>2026-04-18T10:09:56.001Z</time></trkpt><trkpt lat="45.26423120990469" lon="11.688225749929012"><ele>25.0</ele><time>2026-04-18T10:09:57.001Z</time></trkpt><trkpt lat="45.26412433796429" lon="11.688193092475741"><ele>25.0</ele><time>2026-04-18T10:09:58.001Z</time></trkpt><trkpt lat="45.26402309827716" lon="11.688193699792583"><ele>25.0</ele><time>2026-04-18T10:09:59.001Z</time></trkpt><trkpt lat="45.26394426594265" lon="11.688261402860283"><ele>25.0</ele><time>2026-04-18T10:10:00.001Z</time></trkpt><trkpt lat="45.2639025777433" lon="11.68839399374163"><ele>25.0</ele><time>2026-04-18T10:10:01.001Z</time></trkpt><trkpt lat="45.26387529981817" lon="11.688561945397312"><ele>25.0</ele><time>2026-04-18T10:10:02.001Z</time></trkpt><trkpt lat="45.26384128877719" lon="11.68874183815533"><ele>25.0</ele><time>2026-04-18T10:10:03.001Z</time></trkpt><trkpt lat="45.26378494471147" lon="11.68889092370325"><ele>25.0</ele><time>2026-04-18T10:10:04.001Z</time></trkpt><trkpt lat="45.26373320374369" lon="11.68901967107288"><ele>25.0</ele><time>2026-04-18T10:10:05.001Z</time></trkpt><trkpt lat="45.26369252039664" lon="11.689143625133822"><ele>25.0</ele><time>2026-04-18T10:10:06.001Z</time></trkpt><trkpt lat="45.26366141559903" lon="11.689246354858996"><ele>25.0</ele><time>2026-04-18T10:10:07.001Z</time></trkpt><trkpt lat="45.26360522603994" lon="11.689343711786062"><ele>25.0</ele><time>2026-04-18T10:10:08.001Z</time></trkpt><trkpt lat="45.263527203245985" lon="11.68938655862995"><ele>25.0</ele><time>2026-04-18T10:10:09.001Z</time></trkpt><trkpt lat="45.2634204425194" lon="11.689327429367653"><ele>25.0</ele><time>2026-04-18T10:10:10.001Z</time></trkpt><trkpt lat="45.263314996698426" lon="11.689276116053163"><ele>25.0</ele><time>2026-04-18T10:10:11.001Z</time></trkpt><trkpt lat="45.263221780595686" lon="11.68920498596029"><ele>25.0</ele><time>2026-04-18T10:10:12.001Z</time></trkpt><trkpt lat="45.26314143315552" lon="11.689155975196263"><ele>25.0</ele><time>2026-04-18T10:10:13.001Z</time></trkpt><trkpt lat="45.26308006697468" lon="11.68907737241556"><ele>25.0</ele><time>2026-04-18T10:10:14.001Z</time></trkpt><trkpt lat="45.263006491847605" lon="11.68904023242651"><ele>29.0</ele><time>2026-04-18T10:10:15.001Z</time></trkpt><trkpt lat="45.262924857802254" lon="11.68906136487589"><ele>33.0</ele><time>2026-04-18T10:10:16.002Z</time></trkpt><trkpt lat="45.26284206145451" lon="11.689144204855909"><ele>37.0</ele><time>2026-04-18T10:10:17.002Z</time></trkpt><trkpt lat="45.26275634877192" lon="11.68929058957201"><ele>41.0</ele><time>2026-04-18T10:10:18.002Z</time></trkpt><trkpt lat="45.26269675732711" lon="11.68946822881463"><ele>41.0</ele><time>2026-04-18T10:10:19.002Z</time></trkpt><trkpt lat="45.26264749012086" lon="11.68962786392915"><ele>41.0</ele><time>2026-04-18T10:10:20.002Z</time></trkpt><trkpt lat="45.26262475359468" lon="11.689776337086132"><ele>41.0</ele><time>2026-04-18T10:10:21.002Z</time></trkpt><trkpt lat="45.26264541797147" lon="11.689923703434426"><ele>41.0</ele><time>2026-04-18T10:10:22Z</time></trkpt><trkpt lat="45.26269649212569" lon="11.690032085351984"><ele>41.0</ele><time>2026-04-18T10:10:23Z</time></trkpt><trkpt lat="45.26278087838533" lon="11.690123512284584"><ele>41.0</ele><time>2026-04-18T10:10:24Z</time></trkpt><trkpt lat="45.26286077813442" lon="11.69018858847709"><ele>41.0</ele><time>2026-04-18T10:10:25Z</time></trkpt><trkpt lat="45.262931674058905" lon="11.690267916395605"><ele>41.0</ele><time>2026-04-18T10:10:26Z</time></trkpt><trkpt lat="45.262965917652" lon="11.690385802592813"><ele>41.0</ele><time>2026-04-18T10:10:27Z</time></trkpt><trkpt lat="45.26295390961322" lon="11.690537137322329"><ele>41.0</ele><time>2026-04-18T10:10:28Z</time></trkpt><trkpt lat="45.262951556865005" lon="11.69076257405514"><ele>43.666666666666664</ele><time>2026-04-18T10:10:29Z</time></trkpt><trkpt lat="45.26292961844693" lon="11.690993867220852"><ele>46.33333333333333</ele><time>2026-04-18T10:10:30Z</time></trkpt><trkpt lat="45.2629193286988" lon="11.69122613907846"><ele>49.0</ele><time>2026-04-18T10:10:31Z</time></trkpt><trkpt lat="45.2628708277118" lon="11.691471159597988"><ele>52.5</ele><time>2026-04-18T10:10:32Z</time></trkpt><trkpt lat="45.26281361916047" lon="11.691693006117731"><ele>56.0</ele><time>2026-04-18T10:10:33Z</time></trkpt><trkpt lat="45.262779432377116" lon="11.691893437513933"><ele>59.5</ele><time>2026-04-18T10:10:34Z</time></trkpt><trkpt lat="45.26276422240377" lon="11.692069810187846"><ele>63.0</ele><time>2026-04-18T10:10:35Z</time></trkpt><trkpt lat="45.262768709676095" lon="11.692227515449122"><ele>66.0</ele><time>2026-04-18T10:10:36Z</time></trkpt><trkpt lat="45.26278345624833" lon="11.692364468056912"><ele>69.0</ele><time>2026-04-18T10:10:37Z</time></trkpt><trkpt lat="45.26281469593194" lon="11.692538464911557"><ele>72.0</ele><time>2026-04-18T10:10:38Z</time></trkpt><trkpt lat="45.262882667023895" lon="11.692716625030389"><ele>75.0</ele><time>2026-04-18T10:10:39Z</time></trkpt><trkpt lat="45.26296109049612" lon="11.692897614064856"><ele>72.0</ele><time>2026-04-18T10:10:40Z</time></trkpt><trkpt lat="45.263021994403076" lon="11.69304459062356"><ele>69.0</ele><time>2026-04-18T10:10:41Z</time></trkpt><trkpt lat="45.26308268081688" lon="11.693223494296154"><ele>66.0</ele><time>2026-04-18T10:10:42Z</time></trkpt><trkpt lat="45.26310800014036" lon="11.69342294558782"><ele>63.0</ele><time>2026-04-18T10:10:43Z</time></trkpt><trkpt lat="45.26314522669885" lon="11.693622855867249"><ele>63.0</ele><time>2026-04-18T10:10:44Z</time></trkpt><trkpt lat="45.26319092668858" lon="11.693789500077173"><ele>63.0</ele><time>2026-04-18T10:10:45Z</time></trkpt><trkpt lat="45.26321479027689" lon="11.693944612129814"><ele>63.0</ele><time>2026-04-18T10:10:46Z</time></trkpt><trkpt lat="45.263249440741006" lon="11.694112727347068"><ele>63.0</ele><time>2026-04-18T10:10:47Z</time></trkpt><trkpt lat="45.26325033632291" lon="11.69429542164156"><ele>64.5</ele><time>2026-04-18T10:10:48Z</time></trkpt><trkpt lat="45.263260952846764" lon="11.694501863821158"><ele>66.0</ele><time>2026-04-18T10:10:49Z</time></trkpt><trkpt lat="45.26325604269361" lon="11.694661970487331"><ele>67.5</ele><time>2026-04-18T10:10:50Z</time></trkpt><trkpt lat="45.263243680074595" lon="11.694855092813752"><ele>69.0</ele><time>2026-04-18T10:10:51Z</time></trkpt><trkpt lat="45.26322687321014" lon="11.695063492614526"><ele>69.0</ele><time>2026-04-18T10:10:52Z</time></trkpt><trkpt lat="45.263211444137426" lon="11.69524528341412"><ele>69.0</ele><time>2026-04-18T10:10:53Z</time></trkpt><trkpt lat="45.263196868903876" lon="11.695417013963157"><ele>69.0</ele><time>2026-04-18T10:10:54Z</time></trkpt><trkpt lat="45.263182237531055" lon="11.695589405985663"><ele>69.0</ele><time>2026-04-18T10:10:55Z</time></trkpt><trkpt lat="45.26316951471273" lon="11.695764670955437"><ele>69.60000000000001</ele><time>2026-04-18T10:10:56Z</time></trkpt><trkpt lat="45.26316055298831" lon="11.69593188066423"><ele>70.2</ele><time>2026-04-18T10:10:57Z</time></trkpt><trkpt lat="45.2631770938513" lon="11.696087454180258"><ele>70.80000000000001</ele><time>2026-04-18T10:10:58Z</time></trkpt><trkpt lat="45.26317896016063" lon="11.696227148190065"><ele>71.4</ele><time>2026-04-18T10:10:59Z</time></trkpt><trkpt lat="45.26319155991768" lon="11.696367486692445"><ele>72.0</ele><time>2026-04-18T10:11:00Z</time></trkpt><trkpt lat="45.263190254100124" lon="11.69649265553892"><ele>72.8</ele><time>2026-04-18T10:11:01Z</time></trkpt><trkpt lat="45.26317840802282" lon="11.696626821352446"><ele>73.6</ele><time>2026-04-18T10:11:02Z</time></trkpt><trkpt lat="45.26311534509488" lon="11.696761712988778"><ele>74.39999999999999</ele><time>2026-04-18T10:11:03Z</time></trkpt><trkpt lat="45.26305623283163" lon="11.696886434125396"><ele>75.2</ele><time>2026-04-18T10:11:04Z</time></trkpt><trkpt lat="45.26301725342371" lon="11.697031634931967"><ele>76.0</ele><time>2026-04-18T10:11:05Z</time></trkpt><trkpt lat="45.262999958115266" lon="11.697163156916671"><ele>76.0</ele><time>2026-04-18T10:11:06Z</time></trkpt><trkpt lat="45.26301041009003" lon="11.69728437628961"><ele>76.0</ele><time>2026-04-18T10:11:07Z</time></trkpt><trkpt lat="45.26304425415976" lon="11.697417930241146"><ele>76.0</ele><time>2026-04-18T10:11:08.001Z</time></trkpt><trkpt lat="45.26310604555704" lon="11.697591850273938"><ele>76.0</ele><time>2026-04-18T10:11:09.001Z</time></trkpt><trkpt lat="45.263195580704405" lon="11.697823505705884"><ele>76.5</ele><time>2026-04-18T10:11:10.001Z</time></trkpt><trkpt lat="45.26329730401996" lon="11.698140316860366"><ele>77.0</ele><time>2026-04-18T10:11:11.001Z</time></trkpt><trkpt lat="45.263406607771294" lon="11.698445438137012"><ele>71.0</ele><time>2026-04-18T10:11:12.001Z</time></trkpt><trkpt lat="45.26350633447721" lon="11.698752182433877"><ele>65.0</ele><time>2026-04-18T10:11:13.001Z</time></trkpt><trkpt lat="45.26358517890256" lon="11.699033980564955"><ele>65.0</ele><time>2026-04-18T10:11:14.001Z</time></trkpt><trkpt lat="45.263669903945555" lon="11.699280381112581"><ele>65.0</ele><time>2026-04-18T10:11:15.001Z</time></trkpt><trkpt lat="45.26372127955445" lon="11.699523571029363"><ele>65.0</ele><time>2026-04-18T10:11:16.001Z</time></trkpt><trkpt lat="45.263775229661356" lon="11.699724157924033"><ele>63.0</ele><time>2026-04-18T10:11:17.001Z</time></trkpt><trkpt lat="45.263810235390025" lon="11.6999254572712"><ele>61.0</ele><time>2026-04-18T10:11:18.001Z</time></trkpt><trkpt lat="45.26382499130852" lon="11.70011644293018"><ele>59.0</ele><time>2026-04-18T10:11:19.001Z</time></trkpt><trkpt lat="45.26381165744589" lon="11.700291632475107"><ele>57.0</ele><time>2026-04-18T10:11:20.001Z</time></trkpt><trkpt lat="45.26377192539067" lon="11.700466549747333"><ele>57.0</ele><time>2026-04-18T10:11:21.001Z</time></trkpt><trkpt lat="45.26369826110759" lon="11.700651751274979"><ele>57.0</ele><time>2026-04-18T10:11:22.001Z</time></trkpt><trkpt lat="45.26360388419821" lon="11.700833587760517"><ele>57.0</ele><time>2026-04-18T10:11:23.001Z</time></trkpt><trkpt lat="45.26353777592637" lon="11.701011025088901"><ele>57.75</ele><time>2026-04-18T10:11:24.001Z</time></trkpt><trkpt lat="45.263502940071405" lon="11.70121686843067"><ele>58.5</ele><time>2026-04-18T10:11:25.001Z</time></trkpt><trkpt lat="45.263492894467014" lon="11.701403433244822"><ele>59.25</ele><time>2026-04-18T10:11:26.001Z</time></trkpt><trkpt lat="45.26348158307821" lon="11.701608674842157"><ele>60.0</ele><time>2026-04-18T10:11:27.001Z</time></trkpt><trkpt lat="45.2634773825215" lon="11.701774382171775"><ele>58.8</ele><time>2026-04-18T10:11:28.001Z</time></trkpt><trkpt lat="45.26348883223004" lon="11.701922043511287"><ele>57.6</ele><time>2026-04-18T10:11:29.001Z</time></trkpt><trkpt lat="45.263530501132664" lon="11.702048054454643"><ele>56.400000000000006</ele><time>2026-04-18T10:11:30.001Z</time></trkpt><trkpt lat="45.26360840189486" lon="11.702150921194923"><ele>55.2</ele><time>2026-04-18T10:11:31.001Z</time></trkpt><trkpt lat="45.26372376724667" lon="11.702207847067147"><ele>54.0</ele><time>2026-04-18T10:11:32.001Z</time></trkpt><trkpt lat="45.26386241232304" lon="11.70223741500876"><ele>53.0</ele><time>2026-04-18T10:11:33.001Z</time></trkpt><trkpt lat="45.26400995224736" lon="11.702250131729139"><ele>52.0</ele><time>2026-04-18T10:11:34.001Z</time></trkpt><trkpt lat="45.264157990717266" lon="11.702273000102924"><ele>51.0</ele><time>2026-04-18T10:11:35.001Z</time></trkpt><trkpt lat="45.2642883475665" lon="11.702316526975709"><ele>50.0</ele><time>2026-04-18T10:11:36.001Z</time></trkpt><trkpt lat="45.264413274039136" lon="11.702372767068878"><ele>50.0</ele><time>2026-04-18T10:11:37.001Z</time></trkpt><trkpt lat="45.26451637296219" lon="11.702461873225197"><ele>50.0</ele><time>2026-04-18T10:11:38.001Z</time></trkpt><trkpt lat="45.26463005154689" lon="11.702601531832416"><ele>50.0</ele><time>2026-04-18T10:11:39.001Z</time></trkpt><trkpt lat="45.26471483467132" lon="11.70275127361547"><ele>50.0</ele><time>2026-04-18T10:11:40.001Z</time></trkpt><trkpt lat="45.26477867607897" lon="11.702919583974793"><ele>49.333333333333336</ele><time>2026-04-18T10:11:41.001Z</time></trkpt><trkpt lat="45.26481469229751" lon="11.703056902959474"><ele>48.66666666666667</ele><time>2026-04-18T10:11:42.001Z</time></trkpt><trkpt lat="45.26484362641417" lon="11.70317993814158"><ele>48.0</ele><time>2026-04-18T10:11:43.001Z</time></trkpt><trkpt lat="45.26488861503565" lon="11.703283274811147"><ele>47.333333333333336</ele><time>2026-04-18T10:11:44.001Z</time></trkpt><trkpt lat="45.264911812886204" lon="11.703378340031309"><ele>46.66666666666667</ele><time>2026-04-18T10:11:45.001Z</time></trkpt><trkpt lat="45.26490101625741" lon="11.703485592922208"><ele>46.0</ele><time>2026-04-18T10:11:46.001Z</time></trkpt><trkpt lat="45.264833945754184" lon="11.703552655663188"><ele>44.66666666666667</ele><time>2026-04-18T10:11:47.001Z</time></trkpt><trkpt lat="45.2647642868642" lon="11.703539760424277"><ele>43.333333333333336</ele><time>2026-04-18T10:11:48.001Z</time></trkpt><trkpt lat="45.26470952837203" lon="11.703481628174497"><ele>42.0</ele><time>2026-04-18T10:11:49.001Z</time></trkpt><trkpt lat="45.2646790662548" lon="11.70337043477487"><ele>40.666666666666664</ele><time>2026-04-18T10:11:50.001Z</time></trkpt><trkpt lat="45.26467129465379" lon="11.703259014762814"><ele>39.33333333333333</ele><time>2026-04-18T10:11:51.001Z</time></trkpt><trkpt lat="45.264593450300595" lon="11.703143747430788"><ele>38.0</ele><time>2026-04-18T10:11:53.001Z</time></trkpt><trkpt lat="45.2645279861537" lon="11.703151091226088"><ele>38.0</ele><time>2026-04-18T10:11:54.001Z</time></trkpt><trkpt lat="45.264487109553265" lon="11.703232727962865"><ele>38.0</ele><time>2026-04-18T10:11:55.001Z</time></trkpt><trkpt lat="45.264480816839146" lon="11.703365169389658"><ele>38.0</ele><time>2026-04-18T10:11:56.001Z</time></trkpt><trkpt lat="45.26451953698566" lon="11.703503054658066"><ele>38.0</ele><time>2026-04-18T10:11:57.001Z</time></trkpt><trkpt lat="45.26455776142432" lon="11.703628799418913"><ele>38.0</ele><time>2026-04-18T10:11:58.001Z</time></trkpt><trkpt lat="45.2645463672658" lon="11.703789247567695"><ele>35.75</ele><time>2026-04-18T10:11:59.001Z</time></trkpt><trkpt lat="45.26448178502154" lon="11.703970662398596"><ele>33.5</ele><time>2026-04-18T10:12:00.001Z</time></trkpt><trkpt lat="45.26439064907893" lon="11.704123598937233"><ele>31.25</ele><time>2026-04-18T10:12:01.001Z</time></trkpt><trkpt lat="45.26430665723953" lon="11.70426368230487"><ele>29.0</ele><time>2026-04-18T10:12:02.001Z</time></trkpt><trkpt lat="45.264238649048146" lon="11.704397121865796"><ele>27.25</ele><time>2026-04-18T10:12:03.001Z</time></trkpt><trkpt lat="45.26417398526488" lon="11.704533010481748"><ele>25.5</ele><time>2026-04-18T10:12:04.001Z</time></trkpt><trkpt lat="45.26410313702217" lon="11.704676865933349"><ele>23.75</ele><time>2026-04-18T10:12:05.001Z</time></trkpt><trkpt lat="45.26406668111294" lon="11.704846199074534"><ele>22.0</ele><time>2026-04-18T10:12:06.001Z</time></trkpt><trkpt lat="45.26405689828427" lon="11.705003052921056"><ele>22.0</ele><time>2026-04-18T10:12:07.001Z</time></trkpt><trkpt lat="45.264186900181066" lon="11.705103060762854"><ele>22.0</ele><time>2026-04-18T10:12:08.001Z</time></trkpt><trkpt lat="45.26431555265314" lon="11.705186583751766"><ele>22.0</ele><time>2026-04-18T10:12:09.001Z</time></trkpt><trkpt lat="45.26447460632466" lon="11.705241773357121"><ele>20.333333333333332</ele><time>2026-04-18T10:12:10.001Z</time></trkpt><trkpt lat="45.26461895537765" lon="11.705323749027118"><ele>18.666666666666668</ele><time>2026-04-18T10:12:11.001Z</time></trkpt><trkpt lat="45.26476941868308" lon="11.705456111519416"><ele>17.0</ele><time>2026-04-18T10:12:12.001Z</time></trkpt><trkpt lat="45.26488207382045" lon="11.705696987794793"><ele>17.0</ele><time>2026-04-18T10:12:13.001Z</time></trkpt><trkpt lat="45.26499775758296" lon="11.70597097717812"><ele>17.0</ele><time>2026-04-18T10:12:14.001Z</time></trkpt><trkpt lat="45.26510087373659" lon="11.706203943293447"><ele>17.0</ele><time>2026-04-18T10:12:15.001Z</time></trkpt><trkpt lat="45.26519481281005" lon="11.706419944866287"><ele>16.333333333333336</ele><time>2026-04-18T10:12:16.001Z</time></trkpt><trkpt lat="45.265289694012985" lon="11.706663511468415"><ele>15.666666666666668</ele><time>2026-04-18T10:12:17.001Z</time></trkpt><trkpt lat="45.26535641261434" lon="11.706914244835236"><ele>15.0</ele><time>2026-04-18T10:12:18.001Z</time></trkpt><trkpt lat="45.26540885345151" lon="11.707169852143712"><ele>15.0</ele><time>2026-04-18T10:12:19.001Z</time></trkpt><trkpt lat="45.265471853057704" lon="11.70742158960733"><ele>15.0</ele><time>2026-04-18T10:12:20.001Z</time></trkpt><trkpt lat="45.26550460439068" lon="11.707693861115569"><ele>15.0</ele><time>2026-04-18T10:12:21.001Z</time></trkpt><trkpt lat="45.26556604645129" lon="11.707954898959638"><ele>15.666666666666668</ele><time>2026-04-18T10:12:22.001Z</time></trkpt><trkpt lat="45.265610803446286" lon="11.708214656425445"><ele>16.333333333333336</ele><time>2026-04-18T10:12:23.001Z</time></trkpt><trkpt lat="45.265651176344285" lon="11.708464078230666"><ele>17.0</ele><time>2026-04-18T10:12:24.001Z</time></trkpt><trkpt lat="45.26569875433481" lon="11.70871126810469"><ele>17.666666666666668</ele><time>2026-04-18T10:12:25.001Z</time></trkpt><trkpt lat="45.26573613574014" lon="11.70894924731778"><ele>18.333333333333332</ele><time>2026-04-18T10:12:26.001Z</time></trkpt><trkpt lat="45.265771579843175" lon="11.709163592347231"><ele>19.0</ele><time>2026-04-18T10:12:27.001Z</time></trkpt><trkpt lat="45.26581073866867" lon="11.709371278587627"><ele>18.666666666666664</ele><time>2026-04-18T10:12:28Z</time></trkpt><trkpt lat="45.26586082546256" lon="11.709556694244187"><ele>18.333333333333332</ele><time>2026-04-18T10:12:29Z</time></trkpt><trkpt lat="45.26595689870065" lon="11.70974860155002"><ele>18.0</ele><time>2026-04-18T10:12:30Z</time></trkpt><trkpt lat="45.266091347481876" lon="11.709943245203977"><ele>18.0</ele><time>2026-04-18T10:12:31Z</time></trkpt><trkpt lat="45.26621226533729" lon="11.7101254367373"><ele>18.0</ele><time>2026-04-18T10:12:32Z</time></trkpt><trkpt lat="45.26629625609114" lon="11.710306412621453"><ele>18.0</ele><time>2026-04-18T10:12:33Z</time></trkpt><trkpt lat="45.26633382154686" lon="11.710508977532804"><ele>17.5</ele><time>2026-04-18T10:12:34Z</time></trkpt><trkpt lat="45.26632015391648" lon="11.71070084813116"><ele>17.0</ele><time>2026-04-18T10:12:35Z</time></trkpt><trkpt lat="45.26630776074423" lon="11.710904263769233"><ele>16.5</ele><time>2026-04-18T10:12:36Z</time></trkpt><trkpt lat="45.266279873368916" lon="11.711127903549793"><ele>16.0</ele><time>2026-04-18T10:12:37Z</time></trkpt><trkpt lat="45.266285124544915" lon="11.711371083248656"><ele>16.0</ele><time>2026-04-18T10:12:38Z</time></trkpt><trkpt lat="45.26631836487581" lon="11.711602606016289"><ele>16.0</ele><time>2026-04-18T10:12:39Z</time></trkpt><trkpt lat="45.26633300650332" lon="11.711812020204507"><ele>16.0</ele><time>2026-04-18T10:12:40Z</time></trkpt><trkpt lat="45.266292174041176" lon="11.71202964627101"><ele>16.666666666666664</ele><time>2026-04-18T10:12:41Z</time></trkpt><trkpt lat="45.26625040373199" lon="11.712272754067092"><ele>17.333333333333332</ele><time>2026-04-18T10:12:42Z</time></trkpt><trkpt lat="45.266201248380504" lon="11.712526451335874"><ele>18.0</ele><time>2026-04-18T10:12:43Z</time></trkpt><trkpt lat="45.266158549202636" lon="11.712771210846812"><ele>18.25</ele><time>2026-04-18T10:12:44Z</time></trkpt><trkpt lat="45.26612166015641" lon="11.712979935090896"><ele>18.5</ele><time>2026-04-18T10:12:45Z</time></trkpt><trkpt lat="45.26607820195966" lon="11.713177198890433"><ele>18.75</ele><time>2026-04-18T10:12:46Z</time></trkpt><trkpt lat="45.266017862576376" lon="11.713357289782467"><ele>19.0</ele><time>2026-04-18T10:12:47Z</time></trkpt><trkpt lat="45.265939982056814" lon="11.713520811598412"><ele>20.75</ele><time>2026-04-18T10:12:48Z</time></trkpt><trkpt lat="45.26585242790549" lon="11.713665227027876"><ele>22.5</ele><time>2026-04-18T10:12:49Z</time></trkpt><trkpt lat="45.265761618858285" lon="11.713796221994908"><ele>24.25</ele><time>2026-04-18T10:12:50Z</time></trkpt><trkpt lat="45.26568036004927" lon="11.713909524028358"><ele>26.0</ele><time>2026-04-18T10:12:51Z</time></trkpt><trkpt lat="45.2656068059627" lon="11.714002298416604"><ele>25.999999999999996</ele><time>2026-04-18T10:12:52Z</time></trkpt><trkpt lat="45.26553027611548" lon="11.714056618725321"><ele>26.0</ele><time>2026-04-18T10:12:53Z</time></trkpt><trkpt lat="45.26546572485788" lon="11.714071183782897"><ele>26.0</ele><time>2026-04-18T10:12:55Z</time></trkpt><trkpt lat="45.26538306276621" lon="11.714106027074147"><ele>26.0</ele><time>2026-04-18T10:12:58Z</time></trkpt><trkpt lat="45.26529967907251" lon="11.714095929491156"><ele>25.999999999999996</ele><time>2026-04-18T10:12:59Z</time></trkpt><trkpt lat="45.265178077565125" lon="11.714046721203133"><ele>26.0</ele><time>2026-04-18T10:13:00Z</time></trkpt><trkpt lat="45.26505201330857" lon="11.713975247954485"><ele>26.0</ele><time>2026-04-18T10:13:01Z</time></trkpt><trkpt lat="45.26491373847967" lon="11.713900751476686"><ele>26.0</ele><time>2026-04-18T10:13:02Z</time></trkpt><trkpt lat="45.26474672596391" lon="11.71382735953415"><ele>26.0</ele><time>2026-04-18T10:13:03Z</time></trkpt><trkpt lat="45.26459518626281" lon="11.713764104451142"><ele>26.0</ele><time>2026-04-18T10:13:04Z</time></trkpt><trkpt lat="45.264444364298036" lon="11.713693979285079"><ele>26.0</ele><time>2026-04-18T10:13:05Z</time></trkpt><trkpt lat="45.26427926532023" lon="11.71362013711893"><ele>26.0</ele><time>2026-04-18T10:13:06Z</time></trkpt><trkpt lat="45.264109717517066" lon="11.713553984934881"><ele>22.0</ele><time>2026-04-18T10:13:07Z</time></trkpt><trkpt lat="45.26393515413695" lon="11.7134883653419"><ele>18.0</ele><time>2026-04-18T10:13:08Z</time></trkpt><trkpt lat="45.26376420066905" lon="11.713420828241494"><ele>14.0</ele><time>2026-04-18T10:13:09Z</time></trkpt><trkpt lat="45.263591093897475" lon="11.71335101904389"><ele>14.0</ele><time>2026-04-18T10:13:10Z</time></trkpt><trkpt lat="45.2634127716031" lon="11.713286895754146"><ele>14.0</ele><time>2026-04-18T10:13:11Z</time></trkpt><trkpt lat="45.26323969256842" lon="11.713233265135376"><ele>14.0</ele><time>2026-04-18T10:13:12Z</time></trkpt><trkpt lat="45.26308098731801" lon="11.713189520183656"><ele>14.0</ele><time>2026-04-18T10:13:13Z</time></trkpt><trkpt lat="45.26292924474638" lon="11.713148128449578"><ele>14.0</ele><time>2026-04-18T10:13:14Z</time></trkpt><trkpt lat="45.26278384650003" lon="11.713106661608084"><ele>14.0</ele><time>2026-04-18T10:13:15.001Z</time></trkpt><trkpt lat="45.2626300395062" lon="11.71307436264882"><ele>14.0</ele><time>2026-04-18T10:13:16.001Z</time></trkpt><trkpt lat="45.262482805578095" lon="11.713048615051772"><ele>14.0</ele><time>2026-04-18T10:13:17.001Z</time></trkpt><trkpt lat="45.26234477400544" lon="11.713031170851103"><ele>14.0</ele><time>2026-04-18T10:13:18.001Z</time></trkpt><trkpt lat="45.26221438532427" lon="11.713007595935586"><ele>14.0</ele><time>2026-04-18T10:13:19.001Z</time></trkpt><trkpt lat="45.26208616952367" lon="11.712958910964321"><ele>13.5</ele><time>2026-04-18T10:13:20.001Z</time></trkpt><trkpt lat="45.261959679657465" lon="11.712877492887467"><ele>13.0</ele><time>2026-04-18T10:13:21.001Z</time></trkpt><trkpt lat="45.26184274791607" lon="11.71277012114202"><ele>12.5</ele><time>2026-04-18T10:13:22.001Z</time></trkpt><trkpt lat="45.26173683539846" lon="11.712660347682393"><ele>12.0</ele><time>2026-04-18T10:13:23.001Z</time></trkpt><trkpt lat="45.26162924220541" lon="11.71257242326804"><ele>12.0</ele><time>2026-04-18T10:13:24.001Z</time></trkpt><trkpt lat="45.26151226546028" lon="11.712495599810739"><ele>12.0</ele><time>2026-04-18T10:13:25.001Z</time></trkpt><trkpt lat="45.26138350088858" lon="11.712423767006472"><ele>12.0</ele><time>2026-04-18T10:13:26.001Z</time></trkpt><trkpt lat="45.261254043382124" lon="11.712365228297221"><ele>12.0</ele><time>2026-04-18T10:13:27.001Z</time></trkpt><trkpt lat="45.261111514985934" lon="11.712315712851273"><ele>12.333333333333332</ele><time>2026-04-18T10:13:28.001Z</time></trkpt><trkpt lat="45.2609466828121" lon="11.712284004434542"><ele>12.666666666666666</ele><time>2026-04-18T10:13:29.001Z</time></trkpt><trkpt lat="45.26076448377993" lon="11.71228598110994"><ele>13.0</ele><time>2026-04-18T10:13:30.001Z</time></trkpt><trkpt lat="45.26057773297019" lon="11.712337111260808"><ele>11.666666666666666</ele><time>2026-04-18T10:13:31.001Z</time></trkpt><trkpt lat="45.26039173483685" lon="11.712418071449235"><ele>10.333333333333332</ele><time>2026-04-18T10:13:32.001Z</time></trkpt><trkpt lat="45.26020528834932" lon="11.71250386322052"><ele>9.0</ele><time>2026-04-18T10:13:33.001Z</time></trkpt><trkpt lat="45.2600178263104" lon="11.712586943260225"><ele>9.0</ele><time>2026-04-18T10:13:34.001Z</time></trkpt><trkpt lat="45.259836154873135" lon="11.712671974337857"><ele>9.0</ele><time>2026-04-18T10:13:35.001Z</time></trkpt><trkpt lat="45.259668590909435" lon="11.712758690010753"><ele>9.0</ele><time>2026-04-18T10:13:36.001Z</time></trkpt><trkpt lat="45.25950350777332" lon="11.712831049861192"><ele>13.0</ele><time>2026-04-18T10:13:37.001Z</time></trkpt><trkpt lat="45.259347829171524" lon="11.712892396250716"><ele>17.0</ele><time>2026-04-18T10:13:38.001Z</time></trkpt><trkpt lat="45.259180271810955" lon="11.712951855778659"><ele>21.0</ele><time>2026-04-18T10:13:39.001Z</time></trkpt><trkpt lat="45.259002279868675" lon="11.712966132246324"><ele>19.0</ele><time>2026-04-18T10:13:40.001Z</time></trkpt><trkpt lat="45.258828363339525" lon="11.713021579623462"><ele>17.0</ele><time>2026-04-18T10:13:41.001Z</time></trkpt><trkpt lat="45.25866913385522" lon="11.713044945590187"><ele>15.0</ele><time>2026-04-18T10:13:42.001Z</time></trkpt><trkpt lat="45.2585290777374" lon="11.713066484214345"><ele>15.0</ele><time>2026-04-18T10:13:43.001Z</time></trkpt><trkpt lat="45.25839933285057" lon="11.71308310258566"><ele>15.0</ele><time>2026-04-18T10:13:44.001Z</time></trkpt><trkpt lat="45.2582764688386" lon="11.713099451942512"><ele>15.0</ele><time>2026-04-18T10:13:45.001Z</time></trkpt><trkpt lat="45.258152301802625" lon="11.713118053231613"><ele>15.0</ele><time>2026-04-18T10:13:46.001Z</time></trkpt><trkpt lat="45.258022704214405" lon="11.713157696335406"><ele>13.5</ele><time>2026-04-18T10:13:47.001Z</time></trkpt><trkpt lat="45.25789896820359" lon="11.713219129176917"><ele>12.0</ele><time>2026-04-18T10:13:48.001Z</time></trkpt><trkpt lat="45.25777205938467" lon="11.713275377234657"><ele>10.5</ele><time>2026-04-18T10:13:49.001Z</time></trkpt><trkpt lat="45.25764371191928" lon="11.713383879644997"><ele>9.0</ele><time>2026-04-18T10:13:50.001Z</time></trkpt><trkpt lat="45.25751175685984" lon="11.71346754051107"><ele>9.0</ele><time>2026-04-18T10:13:51.001Z</time></trkpt><trkpt lat="45.257375660742156" lon="11.713543623447952"><ele>9.0</ele><time>2026-04-18T10:13:52.001Z</time></trkpt><trkpt lat="45.25725076542535" lon="11.7136372711256"><ele>9.0</ele><time>2026-04-18T10:13:53.001Z</time></trkpt><trkpt lat="45.257123608296546" lon="11.713717201167885"><ele>9.0</ele><time>2026-04-18T10:13:54.001Z</time></trkpt><trkpt lat="45.25699647711805" lon="11.713794029580884"><ele>9.25</ele><time>2026-04-18T10:13:55.001Z</time></trkpt><trkpt lat="45.25687298995158" lon="11.713877299312959"><ele>9.5</ele><time>2026-04-18T10:13:56.001Z</time></trkpt><trkpt lat="45.25674781707786" lon="11.713951613513714"><ele>9.75</ele><time>2026-04-18T10:13:57.001Z</time></trkpt><trkpt lat="45.256625894591956" lon="11.71402585565241"><ele>10.0</ele><time>2026-04-18T10:13:58.001Z</time></trkpt><trkpt lat="45.256513291845515" lon="11.714097698812683"><ele>9.25</ele><time>2026-04-18T10:13:59.001Z</time></trkpt><trkpt lat="45.25640434903864" lon="11.71417210365751"><ele>8.5</ele><time>2026-04-18T10:14:00.001Z</time></trkpt><trkpt lat="45.256293013431026" lon="11.714257366273609"><ele>7.75</ele><time>2026-04-18T10:14:01.001Z</time></trkpt><trkpt lat="45.256191452781444" lon="11.71435323361618"><ele>7.0</ele><time>2026-04-18T10:14:02.001Z</time></trkpt><trkpt lat="45.256110980085204" lon="11.714428616132912"><ele>7.000000000000001</ele><time>2026-04-18T10:14:03.001Z</time></trkpt><trkpt lat="45.256043353911224" lon="11.71449655688934"><ele>7.0</ele><time>2026-04-18T10:14:04.001Z</time></trkpt><trkpt lat="45.255987004734706" lon="11.714557849940915"><ele>7.0</ele><time>2026-04-18T10:14:05.001Z</time></trkpt><trkpt lat="45.255935688002126" lon="11.714630802559427"><ele>7.0</ele><time>2026-04-18T10:14:06.001Z</time></trkpt><trkpt lat="45.25589415646099" lon="11.714700054693797"><ele>7.000000000000001</ele><time>2026-04-18T10:14:07.001Z</time></trkpt><trkpt lat="45.25581840072546" lon="11.71486439059279"><ele>7.0</ele><time>2026-04-18T10:14:09.001Z</time></trkpt><trkpt lat="45.255741561962495" lon="11.714967342487014"><ele>7.0</ele><time>2026-04-18T10:14:10.001Z</time></trkpt><trkpt lat="45.25562900903287" lon="11.715064636253194"><ele>7.0</ele><time>2026-04-18T10:14:11.001Z</time></trkpt><trkpt lat="45.25551357918926" lon="11.715130697759404"><ele>7.0</ele><time>2026-04-18T10:14:12.001Z</time></trkpt><trkpt lat="45.2553867356145" lon="11.715173095794075"><ele>7.0</ele><time>2026-04-18T10:14:13.001Z</time></trkpt><trkpt lat="45.25526103930871" lon="11.715212434122302"><ele>5.333333333333334</ele><time>2026-04-18T10:14:14.001Z</time></trkpt><trkpt lat="45.25512158292938" lon="11.715262139157987"><ele>3.666666666666667</ele><time>2026-04-18T10:14:15.001Z</time></trkpt><trkpt lat="45.25497707259938" lon="11.715312101891714"><ele>2.0</ele><time>2026-04-18T10:14:16.001Z</time></trkpt><trkpt lat="45.25481677746466" lon="11.715368250460454"><ele>2.333333333333333</ele><time>2026-04-18T10:14:17.001Z</time></trkpt><trkpt lat="45.254638288917086" lon="11.715431287698216"><ele>2.6666666666666665</ele><time>2026-04-18T10:14:18.001Z</time></trkpt><trkpt lat="45.254458067291075" lon="11.715493415826092"><ele>3.0</ele><time>2026-04-18T10:14:19.001Z</time></trkpt><trkpt lat="45.25428588745459" lon="11.715552540356123"><ele>3.0</ele><time>2026-04-18T10:14:20.001Z</time></trkpt><trkpt lat="45.254111546178535" lon="11.715615957001775"><ele>3.0</ele><time>2026-04-18T10:14:21.001Z</time></trkpt><trkpt lat="45.25393829661768" lon="11.715677490126575"><ele>3.0</ele><time>2026-04-18T10:14:22.001Z</time></trkpt><trkpt lat="45.25376986999392" lon="11.715735249656632"><ele>2.3333333333333335</ele><time>2026-04-18T10:14:23.001Z</time></trkpt><trkpt lat="45.25359355578152" lon="11.715793407757248"><ele>1.6666666666666665</ele><time>2026-04-18T10:14:24.001Z</time></trkpt><trkpt lat="45.253411228463335" lon="11.715859260754522"><ele>1.0</ele><time>2026-04-18T10:14:25.001Z</time></trkpt><trkpt lat="45.253226819949234" lon="11.715926500580867"><ele>1.0</ele><time>2026-04-18T10:14:26.001Z</time></trkpt><trkpt lat="45.25303947463898" lon="11.715996523773013"><ele>1.0</ele><time>2026-04-18T10:14:27.001Z</time></trkpt><trkpt lat="45.25285631872663" lon="11.716062283916319"><ele>1.0</ele><time>2026-04-18T10:14:28.001Z</time></trkpt><trkpt lat="45.25267315358896" lon="11.716124166202512"><ele>1.0</ele><time>2026-04-18T10:14:29.001Z</time></trkpt><trkpt lat="45.252487294885164" lon="11.716186481105467"><ele>1.0</ele><time>2026-04-18T10:14:30.001Z</time></trkpt><trkpt lat="45.252300922932704" lon="11.716255468014259"><ele>1.0</ele><time>2026-04-18T10:14:31.001Z</time></trkpt><trkpt lat="45.2521132655097" lon="11.716329514351141"><ele>0.6666666666666666</ele><time>2026-04-18T10:14:32.001Z</time></trkpt><trkpt lat="45.25192128213885" lon="11.716398494976735"><ele>0.3333333333333333</ele><time>2026-04-18T10:14:33.001Z</time></trkpt><trkpt lat="45.25172762094705" lon="11.716460291885447"><ele>0.0</ele><time>2026-04-18T10:14:34Z</time></trkpt><trkpt lat="45.25153220288013" lon="11.7165273550442"><ele>0.0</ele><time>2026-04-18T10:14:35Z</time></trkpt><trkpt lat="45.25133863440426" lon="11.716597818485647"><ele>0.0</ele><time>2026-04-18T10:14:36Z</time></trkpt><trkpt lat="45.2511471131993" lon="11.716668443612713"><ele>0.0</ele><time>2026-04-18T10:14:37Z</time></trkpt><trkpt lat="45.25096013688922" lon="11.716733357968888"><ele>0.0</ele><time>2026-04-18T10:14:38Z</time></trkpt><trkpt lat="45.25077622251218" lon="11.71679620681162"><ele>0.0</ele><time>2026-04-18T10:14:39Z</time></trkpt><trkpt lat="45.25059418994135" lon="11.716859322403575"><ele>0.0</ele><time>2026-04-18T10:14:40Z</time></trkpt><trkpt lat="45.250418207640664" lon="11.716927337030404"><ele>0.6666666666666666</ele><time>2026-04-18T10:14:41Z</time></trkpt><trkpt lat="45.250249447643554" lon="11.71698671720317"><ele>1.3333333333333333</ele><time>2026-04-18T10:14:42Z</time></trkpt><trkpt lat="45.250092019045304" lon="11.717037542117728"><ele>2.0</ele><time>2026-04-18T10:14:43Z</time></trkpt><trkpt lat="45.249949384889405" lon="11.717084699933203"><ele>2.0</ele><time>2026-04-18T10:14:44Z</time></trkpt><trkpt lat="45.249814897544695" lon="11.717131828154145"><ele>2.0</ele><time>2026-04-18T10:14:45Z</time></trkpt><trkpt lat="45.249692309125464" lon="11.717176778334917"><ele>2.0</ele><time>2026-04-18T10:14:46Z</time></trkpt><trkpt lat="45.24958031820306" lon="11.71721786406976"><ele>2.0</ele><time>2026-04-18T10:14:47Z</time></trkpt><trkpt lat="45.249478698802726" lon="11.717253984955873"><ele>2.333333333333333</ele><time>2026-04-18T10:14:48Z</time></trkpt><trkpt lat="45.24938697360131" lon="11.71728820278647"><ele>2.6666666666666665</ele><time>2026-04-18T10:14:49Z</time></trkpt><trkpt lat="45.249306007642986" lon="11.717314498558686"><ele>3.0</ele><time>2026-04-18T10:14:50Z</time></trkpt><trkpt lat="45.24923006808885" lon="11.71733437881672"><ele>3.333333333333333</ele><time>2026-04-18T10:14:51Z</time></trkpt><trkpt lat="45.24916469383345" lon="11.71734765434169"><ele>3.6666666666666665</ele><time>2026-04-18T10:14:52Z</time></trkpt><trkpt lat="45.24908383914862" lon="11.717362741462628"><ele>4.0</ele><time>2026-04-18T10:14:54Z</time></trkpt><trkpt lat="45.24902022572083" lon="11.717418317443064"><ele>4.0</ele><time>2026-04-18T10:15:07Z</time></trkpt><trkpt lat="45.24901767982096" lon="11.717648547263597"><ele>4.0</ele><time>2026-04-18T10:15:10Z</time></trkpt><trkpt lat="45.24908901595734" lon="11.717818432849594"><ele>4.0</ele><time>2026-04-18T10:15:11Z</time></trkpt><trkpt lat="45.24917885546123" lon="11.718038593826448"><ele>3.6666666666666665</ele><time>2026-04-18T10:15:12Z</time></trkpt><trkpt lat="45.24927590633833" lon="11.718260020511291"><ele>3.333333333333333</ele><time>2026-04-18T10:15:13Z</time></trkpt><trkpt lat="45.249351578388705" lon="11.718504698871202"><ele>3.0</ele><time>2026-04-18T10:15:14Z</time></trkpt><trkpt lat="45.24945409663138" lon="11.71877159205184"><ele>3.0</ele><time>2026-04-18T10:15:15Z</time></trkpt><trkpt lat="45.24957910328112" lon="11.71906577280667"><ele>3.0</ele><time>2026-04-18T10:15:16Z</time></trkpt><trkpt lat="45.24968145116236" lon="11.719334572987508"><ele>2.6666666666666665</ele><time>2026-04-18T10:15:17Z</time></trkpt><trkpt lat="45.24977420756775" lon="11.719581855990256"><ele>2.333333333333333</ele><time>2026-04-18T10:15:18Z</time></trkpt><trkpt lat="45.249846961407705" lon="11.719824436307231"><ele>2.0</ele><time>2026-04-18T10:15:19Z</time></trkpt><trkpt lat="45.24993246208042" lon="11.720034507253676"><ele>3.0</ele><time>2026-04-18T10:15:20Z</time></trkpt><trkpt lat="45.24997847611126" lon="11.720255373651565"><ele>4.0</ele><time>2026-04-18T10:15:21Z</time></trkpt><trkpt lat="45.25000169577251" lon="11.72048206650921"><ele>5.0</ele><time>2026-04-18T10:15:22Z</time></trkpt><trkpt lat="45.24999546322381" lon="11.720714389473466"><ele>5.0</ele><time>2026-04-18T10:15:23Z</time></trkpt><trkpt lat="45.24996549853355" lon="11.72094915491722"><ele>5.0</ele><time>2026-04-18T10:15:24Z</time></trkpt><trkpt lat="45.24991655086848" lon="11.721179795258687"><ele>5.0</ele><time>2026-04-18T10:15:25Z</time></trkpt><trkpt lat="45.24985643577325" lon="11.721410498384476"><ele>5.0</ele><time>2026-04-18T10:15:26Z</time></trkpt><trkpt lat="45.24979743513986" lon="11.721645342419427"><ele>5.0</ele><time>2026-04-18T10:15:27Z</time></trkpt><trkpt lat="45.24971378110875" lon="11.72186816241018"><ele>5.0</ele><time>2026-04-18T10:15:28Z</time></trkpt><trkpt lat="45.249647069012354" lon="11.722097531563232"><ele>5.333333333333334</ele><time>2026-04-18T10:15:29.001Z</time></trkpt><trkpt lat="45.24959646656967" lon="11.722331404392515"><ele>5.666666666666667</ele><time>2026-04-18T10:15:30.001Z</time></trkpt><trkpt lat="45.24953164114743" lon="11.722557152365896"><ele>6.0</ele><time>2026-04-18T10:15:31.001Z</time></trkpt><trkpt lat="45.249465099749635" lon="11.722783306158995"><ele>6.0</ele><time>2026-04-18T10:15:32.001Z</time></trkpt><trkpt lat="45.24939882691188" lon="11.723007961637903"><ele>6.0</ele><time>2026-04-18T10:15:33.001Z</time></trkpt><trkpt lat="45.24933137840721" lon="11.72323175060646"><ele>6.0</ele><time>2026-04-18T10:15:34.001Z</time></trkpt><trkpt lat="45.24926342445572" lon="11.723453842389148"><ele>6.666666666666666</ele><time>2026-04-18T10:15:35.001Z</time></trkpt><trkpt lat="45.2491907214051" lon="11.723669172609274"><ele>7.333333333333333</ele><time>2026-04-18T10:15:36.001Z</time></trkpt><trkpt lat="45.249114011212" lon="11.723877293395844"><ele>8.0</ele><time>2026-04-18T10:15:37.001Z</time></trkpt><trkpt lat="45.24903942283707" lon="11.724084653915247"><ele>8.0</ele><time>2026-04-18T10:15:38.001Z</time></trkpt><trkpt lat="45.24896577976028" lon="11.724296881530707"><ele>8.0</ele><time>2026-04-18T10:15:39.001Z</time></trkpt><trkpt lat="45.248940399003175" lon="11.724530031077046"><ele>8.0</ele><time>2026-04-18T10:15:40.001Z</time></trkpt><trkpt lat="45.24889842205052" lon="11.724755377344023"><ele>7.333333333333333</ele><time>2026-04-18T10:15:41.001Z</time></trkpt><trkpt lat="45.248846006345666" lon="11.724976828715771"><ele>6.666666666666666</ele><time>2026-04-18T10:15:42.001Z</time></trkpt><trkpt lat="45.24878588023934" lon="11.725198416706316"><ele>6.0</ele><time>2026-04-18T10:15:43.001Z</time></trkpt><trkpt lat="45.248725306296684" lon="11.725427191731933"><ele>6.0</ele><time>2026-04-18T10:15:44.001Z</time></trkpt><trkpt lat="45.24866531802526" lon="11.725660687918674"><ele>6.0</ele><time>2026-04-18T10:15:45.001Z</time></trkpt><trkpt lat="45.24861073647324" lon="11.725902487011643"><ele>6.0</ele><time>2026-04-18T10:15:46.001Z</time></trkpt><trkpt lat="45.24855123345627" lon="11.72614185557651"><ele>6.0</ele><time>2026-04-18T10:15:47.001Z</time></trkpt><trkpt lat="45.24848516856853" lon="11.726380239514404"><ele>6.0</ele><time>2026-04-18T10:15:48.001Z</time></trkpt><trkpt lat="45.24841675671215" lon="11.726617479095054"><ele>6.0</ele><time>2026-04-18T10:15:49.001Z</time></trkpt><trkpt lat="45.248344459738576" lon="11.726869970495919"><ele>6.0</ele><time>2026-04-18T10:15:50.001Z</time></trkpt><trkpt lat="45.24827506261499" lon="11.727128628820562"><ele>6.0</ele><time>2026-04-18T10:15:51.001Z</time></trkpt><trkpt lat="45.24820450960298" lon="11.727392053301026"><ele>6.0</ele><time>2026-04-18T10:15:52.001Z</time></trkpt><trkpt lat="45.2481229325975" lon="11.727634147307576"><ele>6.0</ele><time>2026-04-18T10:15:53.001Z</time></trkpt><trkpt lat="45.24805890879144" lon="11.727862694011371"><ele>6.0</ele><time>2026-04-18T10:15:54.001Z</time></trkpt><trkpt lat="45.248000334229346" lon="11.728091660357608"><ele>6.0</ele><time>2026-04-18T10:15:55.001Z</time></trkpt><trkpt lat="45.24796639148338" lon="11.728332524129781"><ele>6.666666666666666</ele><time>2026-04-18T10:15:56.001Z</time></trkpt><trkpt lat="45.247921686434495" lon="11.728566307941463"><ele>7.333333333333333</ele><time>2026-04-18T10:15:57.001Z</time></trkpt><trkpt lat="45.24786960330549" lon="11.72880260947681"><ele>8.0</ele><time>2026-04-18T10:15:58.001Z</time></trkpt><trkpt lat="45.24780825309197" lon="11.72904584377663"><ele>8.0</ele><time>2026-04-18T10:15:59.001Z</time></trkpt><trkpt lat="45.24774145027049" lon="11.729294750939182"><ele>8.0</ele><time>2026-04-18T10:16:00.001Z</time></trkpt><trkpt lat="45.24766932275664" lon="11.72953803776922"><ele>8.0</ele><time>2026-04-18T10:16:01.001Z</time></trkpt><trkpt lat="45.2475850375928" lon="11.729767613180615"><ele>7.666666666666666</ele><time>2026-04-18T10:16:02.001Z</time></trkpt><trkpt lat="45.247516721687326" lon="11.730003288938702"><ele>7.333333333333334</ele><time>2026-04-18T10:16:03.001Z</time></trkpt><trkpt lat="45.24745194352832" lon="11.73023696942721"><ele>7.0</ele><time>2026-04-18T10:16:04.001Z</time></trkpt><trkpt lat="45.24739954192702" lon="11.73043777090247"><ele>7.0</ele><time>2026-04-18T10:16:05.001Z</time></trkpt><trkpt lat="45.24736840890083" lon="11.730628258443513"><ele>7.0</ele><time>2026-04-18T10:16:06.001Z</time></trkpt><trkpt lat="45.24730641805111" lon="11.730796105744776"><ele>7.0</ele><time>2026-04-18T10:16:07.001Z</time></trkpt><trkpt lat="45.24727069479217" lon="11.73097677433964"><ele>7.0</ele><time>2026-04-18T10:16:08.001Z</time></trkpt><trkpt lat="45.24721180538159" lon="11.731142002018023"><ele>7.25</ele><time>2026-04-18T10:16:09.001Z</time></trkpt><trkpt lat="45.24714967336061" lon="11.731319264900865"><ele>7.5</ele><time>2026-04-18T10:16:10.001Z</time></trkpt><trkpt lat="45.24708991720854" lon="11.731496941692399"><ele>7.75</ele><time>2026-04-18T10:16:11.001Z</time></trkpt><trkpt lat="45.24703331408715" lon="11.731675649879776"><ele>8.0</ele><time>2026-04-18T10:16:12.001Z</time></trkpt><trkpt lat="45.246973694386995" lon="11.73184973683709"><ele>7.75</ele><time>2026-04-18T10:16:13.001Z</time></trkpt><trkpt lat="45.246910364097396" lon="11.73201815050608"><ele>7.5</ele><time>2026-04-18T10:16:14.001Z</time></trkpt><trkpt lat="45.24683768770265" lon="11.732181313250075"><ele>7.25</ele><time>2026-04-18T10:16:15.001Z</time></trkpt><trkpt lat="45.24675843497095" lon="11.73233951382497"><ele>7.0</ele><time>2026-04-18T10:16:16.001Z</time></trkpt><trkpt lat="45.24667879671756" lon="11.732494104420207"><ele>7.0</ele><time>2026-04-18T10:16:17.001Z</time></trkpt><trkpt lat="45.246602891125065" lon="11.732654404739588"><ele>7.0</ele><time>2026-04-18T10:16:18.001Z</time></trkpt><trkpt lat="45.24653392810783" lon="11.732833455404817"><ele>7.0</ele><time>2026-04-18T10:16:19.001Z</time></trkpt><trkpt lat="45.246470186209905" lon="11.733024614278744"><ele>7.0</ele><time>2026-04-18T10:16:20.001Z</time></trkpt><trkpt lat="45.24641177505856" lon="11.733209152494114"><ele>6.75</ele><time>2026-04-18T10:16:21.001Z</time></trkpt><trkpt lat="45.24636096996621" lon="11.733376335626742"><ele>6.5</ele><time>2026-04-18T10:16:22.001Z</time></trkpt><trkpt lat="45.246313678464396" lon="11.73354796321364"><ele>6.25</ele><time>2026-04-18T10:16:23.001Z</time></trkpt><trkpt lat="45.24628510141243" lon="11.733693579281793"><ele>6.0</ele><time>2026-04-18T10:16:24.001Z</time></trkpt><trkpt lat="45.24624547042887" lon="11.733814057891118"><ele>5.666666666666667</ele><time>2026-04-18T10:16:25.001Z</time></trkpt><trkpt lat="45.24621362174599" lon="11.733901736726477"><ele>5.333333333333333</ele><time>2026-04-18T10:16:26.001Z</time></trkpt><trkpt lat="45.246188255836" lon="11.733985429552948"><ele>5.0</ele><time>2026-04-18T10:16:27.001Z</time></trkpt><trkpt lat="45.24613036257565" lon="11.734077500069874"><ele>4.666666666666666</ele><time>2026-04-18T10:16:34.001Z</time></trkpt><trkpt lat="45.24607195012885" lon="11.734111822422623"><ele>4.333333333333333</ele><time>2026-04-18T10:16:35.001Z</time></trkpt><trkpt lat="45.24599437491251" lon="11.734176605539476"><ele>4.0</ele><time>2026-04-18T10:16:36.001Z</time></trkpt><trkpt lat="45.24595468205545" lon="11.734279172062283"><ele>4.25</ele><time>2026-04-18T10:16:37.001Z</time></trkpt><trkpt lat="45.24594345524261" lon="11.73441652835318"><ele>4.5</ele><time>2026-04-18T10:16:38.001Z</time></trkpt><trkpt lat="45.245960765245165" lon="11.734562786478719"><ele>4.75</ele><time>2026-04-18T10:16:39.001Z</time></trkpt><trkpt lat="45.245952504324556" lon="11.734741824869987"><ele>5.0</ele><time>2026-04-18T10:16:40Z</time></trkpt><trkpt lat="45.24588550768807" lon="11.734932462285945"><ele>5.0</ele><time>2026-04-18T10:16:41Z</time></trkpt><trkpt lat="45.245849843406695" lon="11.735106180295967"><ele>5.0</ele><time>2026-04-18T10:16:42Z</time></trkpt><trkpt lat="45.24579540430734" lon="11.735274328391567"><ele>5.0</ele><time>2026-04-18T10:16:43Z</time></trkpt><trkpt lat="45.245742189670665" lon="11.735452077313736"><ele>5.0</ele><time>2026-04-18T10:16:44Z</time></trkpt><trkpt lat="45.2456884641697" lon="11.735627413458724"><ele>5.0</ele><time>2026-04-18T10:16:45Z</time></trkpt><trkpt lat="45.245642371914556" lon="11.735790537771157"><ele>5.0</ele><time>2026-04-18T10:16:46Z</time></trkpt><trkpt lat="45.24560100006873" lon="11.735922908111682"><ele>5.0</ele><time>2026-04-18T10:16:47Z</time></trkpt><trkpt lat="45.24556260660664" lon="11.736043843732764"><ele>5.0</ele><time>2026-04-18T10:16:48Z</time></trkpt><trkpt lat="45.24552833508692" lon="11.73615710201916"><ele>5.0</ele><time>2026-04-18T10:16:49Z</time></trkpt><trkpt lat="45.24549681680469" lon="11.73627281873084"><ele>5.0</ele><time>2026-04-18T10:16:50Z</time></trkpt><trkpt lat="45.2454620398651" lon="11.736381190297658"><ele>5.0</ele><time>2026-04-18T10:16:51Z</time></trkpt><trkpt lat="45.245429156647155" lon="11.736488733368477"><ele>5.0</ele><time>2026-04-18T10:16:52Z</time></trkpt><trkpt lat="45.245400346346" lon="11.736595199114403"><ele>5.0</ele><time>2026-04-18T10:16:53Z</time></trkpt><trkpt lat="45.245359114899244" lon="11.736714196549745"><ele>5.0</ele><time>2026-04-18T10:16:54Z</time></trkpt><trkpt lat="45.24530262468343" lon="11.736882607812726"><ele>5.5</ele><time>2026-04-18T10:16:55Z</time></trkpt><trkpt lat="45.24524632928372" lon="11.737094848506691"><ele>6.0</ele><time>2026-04-18T10:16:56Z</time></trkpt><trkpt lat="45.24518576485541" lon="11.737294143646592"><ele>6.5</ele><time>2026-04-18T10:16:57Z</time></trkpt><trkpt lat="45.24513552724346" lon="11.737462895555039"><ele>7.0</ele><time>2026-04-18T10:16:58Z</time></trkpt><trkpt lat="45.24507398672608" lon="11.737615909053837"><ele>7.25</ele><time>2026-04-18T10:16:59Z</time></trkpt><trkpt lat="45.24502090720542" lon="11.737786731609248"><ele>7.5</ele><time>2026-04-18T10:17:00Z</time></trkpt><trkpt lat="45.24498036705884" lon="11.737973367638729"><ele>7.75</ele><time>2026-04-18T10:17:01Z</time></trkpt><trkpt lat="45.24492290769307" lon="11.738154087590427"><ele>8.0</ele><time>2026-04-18T10:17:02Z</time></trkpt><trkpt lat="45.244866002851474" lon="11.738336370562546"><ele>8.0</ele><time>2026-04-18T10:17:03Z</time></trkpt><trkpt lat="45.24480982025228" lon="11.738524068943374"><ele>8.0</ele><time>2026-04-18T10:17:04Z</time></trkpt><trkpt lat="45.244751087983545" lon="11.738711247132994"><ele>8.0</ele><time>2026-04-18T10:17:05Z</time></trkpt><trkpt lat="45.24469269403349" lon="11.73890421428124"><ele>8.0</ele><time>2026-04-18T10:17:06Z</time></trkpt><trkpt lat="45.24463179763239" lon="11.739103214179487"><ele>8.0</ele><time>2026-04-18T10:17:07Z</time></trkpt><trkpt lat="45.24456998011939" lon="11.73930602180361"><ele>8.0</ele><time>2026-04-18T10:17:08Z</time></trkpt><trkpt lat="45.2445070273084" lon="11.739509601395994"><ele>8.0</ele><time>2026-04-18T10:17:09Z</time></trkpt><trkpt lat="45.24444776123961" lon="11.739712655864"><ele>8.0</ele><time>2026-04-18T10:17:10Z</time></trkpt><trkpt lat="45.24439179922901" lon="11.739908581795055"><ele>8.0</ele><time>2026-04-18T10:17:11Z</time></trkpt><trkpt lat="45.244332615904895" lon="11.740102597516923"><ele>8.0</ele><time>2026-04-18T10:17:12Z</time></trkpt><trkpt lat="45.24427634630554" lon="11.740299341976622"><ele>8.0</ele><time>2026-04-18T10:17:13Z</time></trkpt><trkpt lat="45.244218979561346" lon="11.740497625512711"><ele>8.333333333333332</ele><time>2026-04-18T10:17:14Z</time></trkpt><trkpt lat="45.24415998157215" lon="11.740698785841051"><ele>8.666666666666666</ele><time>2026-04-18T10:17:15Z</time></trkpt><trkpt lat="45.244101017289836" lon="11.740901688689904"><ele>9.0</ele><time>2026-04-18T10:17:16Z</time></trkpt><trkpt lat="45.24404095990485" lon="11.74110544761454"><ele>8.0</ele><time>2026-04-18T10:17:17Z</time></trkpt><trkpt lat="45.24398187111257" lon="11.741310033230896"><ele>7.0</ele><time>2026-04-18T10:17:18Z</time></trkpt><trkpt lat="45.24392106218101" lon="11.741513938046243"><ele>6.0</ele><time>2026-04-18T10:17:19Z</time></trkpt><trkpt lat="45.2438612743701" lon="11.741718117147208"><ele>6.0</ele><time>2026-04-18T10:17:20Z</time></trkpt><trkpt lat="45.2437999224802" lon="11.741924714435287"><ele>6.0</ele><time>2026-04-18T10:17:21Z</time></trkpt><trkpt lat="45.24373929454583" lon="11.742124200432874"><ele>6.0</ele><time>2026-04-18T10:17:22Z</time></trkpt><trkpt lat="45.24368003530911" lon="11.742325447867897"><ele>6.0</ele><time>2026-04-18T10:17:23Z</time></trkpt><trkpt lat="45.243623671218224" lon="11.742523259965228"><ele>6.0</ele><time>2026-04-18T10:17:24Z</time></trkpt><trkpt lat="45.243565959001984" lon="11.742716083701925"><ele>6.0</ele><time>2026-04-18T10:17:25Z</time></trkpt><trkpt lat="45.243506069156005" lon="11.742904401188031"><ele>6.0</ele><time>2026-04-18T10:17:26Z</time></trkpt><trkpt lat="45.24344856301495" lon="11.743092206681002"><ele>6.5</ele><time>2026-04-18T10:17:27Z</time></trkpt><trkpt lat="45.24339962739501" lon="11.743277245466501"><ele>7.0</ele><time>2026-04-18T10:17:28Z</time></trkpt><trkpt lat="45.24335044847152" lon="11.743449123960705"><ele>7.5</ele><time>2026-04-18T10:17:29Z</time></trkpt><trkpt lat="45.24330161758527" lon="11.74361395418893"><ele>8.0</ele><time>2026-04-18T10:17:30Z</time></trkpt><trkpt lat="45.243256520765925" lon="11.743769537103239"><ele>8.0</ele><time>2026-04-18T10:17:31Z</time></trkpt><trkpt lat="45.243217711600074" lon="11.743912244864909"><ele>8.0</ele><time>2026-04-18T10:17:32Z</time></trkpt><trkpt lat="45.243176594887665" lon="11.744048030555506"><ele>8.0</ele><time>2026-04-18T10:17:33Z</time></trkpt><trkpt lat="45.24313360833864" lon="11.744165148371467"><ele>8.0</ele><time>2026-04-18T10:17:34Z</time></trkpt><trkpt lat="45.243098441280594" lon="11.744275489719472"><ele>8.0</ele><time>2026-04-18T10:17:35Z</time></trkpt><trkpt lat="45.24307273764243" lon="11.744375790221534"><ele>7.999999999999999</ele><time>2026-04-18T10:17:36.001Z</time></trkpt><trkpt lat="45.24304517005667" lon="11.744472077121165"><ele>8.0</ele><time>2026-04-18T10:17:37.001Z</time></trkpt><trkpt lat="45.243014525903014" lon="11.744559389400846"><ele>8.0</ele><time>2026-04-18T10:17:38.001Z</time></trkpt><trkpt lat="45.24298834453997" lon="11.744651477682021"><ele>8.0</ele><time>2026-04-18T10:17:39.001Z</time></trkpt><trkpt lat="45.242965340337065" lon="11.744736915442182"><ele>7.999999999999999</ele><time>2026-04-18T10:17:40.001Z</time></trkpt><trkpt lat="45.24293183628444" lon="11.744853635029944"><ele>8.0</ele><time>2026-04-18T10:17:41.001Z</time></trkpt><trkpt lat="45.242896003104924" lon="11.744985086596401"><ele>8.0</ele><time>2026-04-18T10:17:42.001Z</time></trkpt><trkpt lat="45.24286147266253" lon="11.745108656308673"><ele>8.0</ele><time>2026-04-18T10:17:43.001Z</time></trkpt><trkpt lat="45.24282143121302" lon="11.745239282908411"><ele>8.0</ele><time>2026-04-18T10:17:44.001Z</time></trkpt><trkpt lat="45.242782098172505" lon="11.745377572950066"><ele>8.0</ele><time>2026-04-18T10:17:45.001Z</time></trkpt><trkpt lat="45.24275081590443" lon="11.745515899564523"><ele>8.0</ele><time>2026-04-18T10:17:46.001Z</time></trkpt><trkpt lat="45.24270419748411" lon="11.745654137262745"><ele>8.200000000000001</ele><time>2026-04-18T10:17:47.001Z</time></trkpt><trkpt lat="45.24266059496653" lon="11.745778847323445"><ele>8.4</ele><time>2026-04-18T10:17:48.001Z</time></trkpt><trkpt lat="45.242640286786255" lon="11.745912480618655"><ele>8.600000000000001</ele><time>2026-04-18T10:17:49.001Z</time></trkpt><trkpt lat="45.242610361989904" lon="11.74604987727554"><ele>8.8</ele><time>2026-04-18T10:17:50.001Z</time></trkpt><trkpt lat="45.24257305581452" lon="11.746169750208939"><ele>9.0</ele><time>2026-04-18T10:17:51.001Z</time></trkpt><trkpt lat="45.24254093345153" lon="11.746280421025316"><ele>9.0</ele><time>2026-04-18T10:17:52.001Z</time></trkpt><trkpt lat="45.24252202968455" lon="11.74636687952523"><ele>9.0</ele><time>2026-04-18T10:17:53.001Z</time></trkpt><trkpt lat="45.242487932267636" lon="11.746506584833382"><ele>9.0</ele><time>2026-04-18T10:17:55.001Z</time></trkpt><trkpt lat="45.24242220722311" lon="11.746606107412259"><ele>9.0</ele><time>2026-04-18T10:17:57.001Z</time></trkpt><trkpt lat="45.242333775452934" lon="11.746679997206265"><ele>9.0</ele><time>2026-04-18T10:17:59.001Z</time></trkpt><trkpt lat="45.24224239145711" lon="11.746587648711245"><ele>9.0</ele><time>2026-04-18T10:18:00.001Z</time></trkpt><trkpt lat="45.24217991589774" lon="11.746550676172411"><ele>9.0</ele><time>2026-04-18T10:18:01.001Z</time></trkpt><trkpt lat="45.242114432411945" lon="11.746517589829969"><ele>9.0</ele><time>2026-04-18T10:18:02.001Z</time></trkpt><trkpt lat="45.24203699399411" lon="11.746480735702356"><ele>9.0</ele><time>2026-04-18T10:18:03.001Z</time></trkpt><trkpt lat="45.24195247163714" lon="11.746440178292614"><ele>9.0</ele><time>2026-04-18T10:18:04.001Z</time></trkpt><trkpt lat="45.241868454753046" lon="11.74640655515676"><ele>9.0</ele><time>2026-04-18T10:18:05.001Z</time></trkpt><trkpt lat="45.2417907845194" lon="11.74637677584658"><ele>9.0</ele><time>2026-04-18T10:18:06.001Z</time></trkpt><trkpt lat="45.24171204164194" lon="11.746347821112138"><ele>9.0</ele><time>2026-04-18T10:18:07.001Z</time></trkpt><trkpt lat="45.24163457034163" lon="11.746318796399962"><ele>9.0</ele><time>2026-04-18T10:18:08.001Z</time></trkpt><trkpt lat="45.24155272331036" lon="11.746289457550635"><ele>9.0</ele><time>2026-04-18T10:18:09.001Z</time></trkpt><trkpt lat="45.241471875288596" lon="11.746257826978344"><ele>9.0</ele><time>2026-04-18T10:18:10.001Z</time></trkpt><trkpt lat="45.241384465521634" lon="11.746221782053846"><ele>9.0</ele><time>2026-04-18T10:18:11.001Z</time></trkpt><trkpt lat="45.24129294006104" lon="11.746179803512057"><ele>9.0</ele><time>2026-04-18T10:18:12.001Z</time></trkpt><trkpt lat="45.24119885599168" lon="11.746142943202702"><ele>9.0</ele><time>2026-04-18T10:18:13.001Z</time></trkpt><trkpt lat="45.24109664478809" lon="11.746104935952607"><ele>9.0</ele><time>2026-04-18T10:18:14.001Z</time></trkpt><trkpt lat="45.240993925174024" lon="11.746066009772758"><ele>9.0</ele><time>2026-04-18T10:18:15.001Z</time></trkpt><trkpt lat="45.240894700672335" lon="11.746022505050924"><ele>9.0</ele><time>2026-04-18T10:18:16.001Z</time></trkpt><trkpt lat="45.24080024266839" lon="11.745981308599578"><ele>9.0</ele><time>2026-04-18T10:18:17.001Z</time></trkpt><trkpt lat="45.240712181664904" lon="11.745967194006854"><ele>9.0</ele><time>2026-04-18T10:18:18.001Z</time></trkpt><trkpt lat="45.24062679512258" lon="11.745995453387746"><ele>9.0</ele><time>2026-04-18T10:18:19.001Z</time></trkpt><trkpt lat="45.24055236960205" lon="11.746083875450385"><ele>9.0</ele><time>2026-04-18T10:18:20.001Z</time></trkpt><trkpt lat="45.240495536554285" lon="11.746226356524687"><ele>9.0</ele><time>2026-04-18T10:18:21.001Z</time></trkpt><trkpt lat="45.24044391367475" lon="11.746392762480257"><ele>9.25</ele><time>2026-04-18T10:18:22.001Z</time></trkpt><trkpt lat="45.24038037939293" lon="11.746549238101906"><ele>9.5</ele><time>2026-04-18T10:18:23.001Z</time></trkpt><trkpt lat="45.24032237707812" lon="11.746695225993752"><ele>9.75</ele><time>2026-04-18T10:18:24.001Z</time></trkpt><trkpt lat="45.240266127167764" lon="11.746830885148723"><ele>10.0</ele><time>2026-04-18T10:18:25.001Z</time></trkpt><trkpt lat="45.24021515355184" lon="11.746961239928911"><ele>10.2</ele><time>2026-04-18T10:18:26.001Z</time></trkpt><trkpt lat="45.24016625257025" lon="11.747087917199648"><ele>10.4</ele><time>2026-04-18T10:18:27.001Z</time></trkpt><trkpt lat="45.24011558628667" lon="11.747211018925121"><ele>10.600000000000001</ele><time>2026-04-18T10:18:28.001Z</time></trkpt><trkpt lat="45.24005834356963" lon="11.747324194119104"><ele>10.8</ele><time>2026-04-18T10:18:29.001Z</time></trkpt><trkpt lat="45.2400147091568" lon="11.747448987287905"><ele>11.0</ele><time>2026-04-18T10:18:30.001Z</time></trkpt><trkpt lat="45.23996819544571" lon="11.747568453648627"><ele>11.0</ele><time>2026-04-18T10:18:31.001Z</time></trkpt><trkpt lat="45.23992175049845" lon="11.74769223327786"><ele>11.0</ele><time>2026-04-18T10:18:32.001Z</time></trkpt><trkpt lat="45.239886822580594" lon="11.74782805425637"><ele>11.0</ele><time>2026-04-18T10:18:33.001Z</time></trkpt><trkpt lat="45.23985671191114" lon="11.747931822059334"><ele>11.0</ele><time>2026-04-18T10:18:34.001Z</time></trkpt><trkpt lat="45.239826272744565" lon="11.74802242816946"><ele>11.0</ele><time>2026-04-18T10:18:35.001Z</time></trkpt><trkpt lat="45.23979876024037" lon="11.748103716402584"><ele>11.0</ele><time>2026-04-18T10:18:36.001Z</time></trkpt><trkpt lat="45.239736308447384" lon="11.748239091209106"><ele>11.4</ele><time>2026-04-18T10:18:38.001Z</time></trkpt><trkpt lat="45.239682406047486" lon="11.748408328635437"><ele>11.8</ele><time>2026-04-18T10:18:40.001Z</time></trkpt><trkpt lat="45.239641419545755" lon="11.748486256188912"><ele>12.200000000000001</ele><time>2026-04-18T10:18:41.001Z</time></trkpt><trkpt lat="45.23958225092064" lon="11.748623203793647"><ele>12.600000000000001</ele><time>2026-04-18T10:18:43.001Z</time></trkpt><trkpt lat="45.23951890472082" lon="11.748762870917487"><ele>13.0</ele><time>2026-04-18T10:18:45.001Z</time></trkpt><trkpt lat="45.2394867644849" lon="11.748843237674198"><ele>13.0</ele><time>2026-04-18T10:18:46Z</time></trkpt><trkpt lat="45.23942346264247" lon="11.748996037375733"><ele>13.0</ele><time>2026-04-18T10:18:48Z</time></trkpt><trkpt lat="45.239360050411705" lon="11.749129339645098"><ele>13.0</ele><time>2026-04-18T10:18:50Z</time></trkpt><trkpt lat="45.239307802349344" lon="11.74927012155611"><ele>13.0</ele><time>2026-04-18T10:18:52Z</time></trkpt><trkpt lat="45.23925735029857" lon="11.749419234437319"><ele>12.999999999999998</ele><time>2026-04-18T10:18:54Z</time></trkpt><trkpt lat="45.23919140995851" lon="11.749536359127385"><ele>13.0</ele><time>2026-04-18T10:18:56Z</time></trkpt><trkpt lat="45.23915778371459" lon="11.749616926668109"><ele>13.0</ele><time>2026-04-18T10:18:59Z</time></trkpt><trkpt lat="45.23911653626609" lon="11.749709229862397"><ele>13.0</ele><time>2026-04-18T10:19:04Z</time></trkpt><trkpt lat="45.23903392633194" lon="11.749742841729294"><ele>12.999999999999998</ele><time>2026-04-18T10:19:06Z</time></trkpt><trkpt lat="45.2389655624771" lon="11.749845114945623"><ele>13.0</ele><time>2026-04-18T10:19:08Z</time></trkpt><trkpt lat="45.238944537813744" lon="11.749948198293893"><ele>12.999999999999998</ele><time>2026-04-18T10:19:09Z</time></trkpt><trkpt lat="45.23894680371995" lon="11.75004550879173"><ele>13.0</ele><time>2026-04-18T10:19:10Z</time></trkpt><trkpt lat="45.238879254556394" lon="11.750109926906168"><ele>13.0</ele><time>2026-04-18T10:19:11Z</time></trkpt><trkpt lat="45.23884671937067" lon="11.75021741128722"><ele>13.0</ele><time>2026-04-18T10:19:13Z</time></trkpt><trkpt lat="45.23882253191823" lon="11.750301358106977"><ele>12.999999999999998</ele><time>2026-04-18T10:19:18Z</time></trkpt><trkpt lat="45.2388098352136" lon="11.750409680589465"><ele>13.0</ele><time>2026-04-18T10:19:21Z</time></trkpt><trkpt lat="45.23877606966873" lon="11.750543834385665"><ele>13.0</ele><time>2026-04-18T10:19:23Z</time></trkpt><trkpt lat="45.23874097424664" lon="11.750659185747658"><ele>13.0</ele><time>2026-04-18T10:19:25Z</time></trkpt><trkpt lat="45.23870891178386" lon="11.750779369189617"><ele>13.0</ele><time>2026-04-18T10:19:27Z</time></trkpt><trkpt lat="45.23867218887627" lon="11.750889403313264"><ele>13.0</ele><time>2026-04-18T10:19:29Z</time></trkpt><trkpt lat="45.23864802481696" lon="11.751002608880915"><ele>13.0</ele><time>2026-04-18T10:19:31Z</time></trkpt><trkpt lat="45.23859529291644" lon="11.751133784388363"><ele>12.75</ele><time>2026-04-18T10:19:33Z</time></trkpt><trkpt lat="45.238567282446645" lon="11.751296080942518"><ele>12.5</ele><time>2026-04-18T10:19:35Z</time></trkpt><trkpt lat="45.23851516731548" lon="11.751450382295952"><ele>12.25</ele><time>2026-04-18T10:19:37Z</time></trkpt><trkpt lat="45.23847558889414" lon="11.751609779793922"><ele>12.0</ele><time>2026-04-18T10:19:39Z</time></trkpt><trkpt lat="45.238442758131356" lon="11.751740455589307"><ele>12.0</ele><time>2026-04-18T10:19:41Z</time></trkpt><trkpt lat="45.23839434423387" lon="11.751853234371636"><ele>12.0</ele><time>2026-04-18T10:19:43.001Z</time></trkpt><trkpt lat="45.238356577440605" lon="11.751988714497346"><ele>12.0</ele><time>2026-04-18T10:19:45.001Z</time></trkpt><trkpt lat="45.23833261939275" lon="11.75207465870604"><ele>12.0</ele><time>2026-04-18T10:19:46.001Z</time></trkpt><trkpt lat="45.23829664303489" lon="11.752203715894996"><ele>12.0</ele><time>2026-04-18T10:19:48.001Z</time></trkpt><trkpt lat="45.2382783176533" lon="11.752324805317741"><ele>12.0</ele><time>2026-04-18T10:19:50.001Z</time></trkpt><trkpt lat="45.23824473744929" lon="11.752436145643902"><ele>12.2</ele><time>2026-04-18T10:19:52.001Z</time></trkpt><trkpt lat="45.23821299328741" lon="11.752563519608518"><ele>12.399999999999999</ele><time>2026-04-18T10:19:54.001Z</time></trkpt><trkpt lat="45.238168117749815" lon="11.75271000651643"><ele>12.600000000000001</ele><time>2026-04-18T10:19:56.001Z</time></trkpt><trkpt lat="45.238120559540725" lon="11.7528551487999"><ele>12.8</ele><time>2026-04-18T10:19:58.001Z</time></trkpt><trkpt lat="45.23808696054441" lon="11.753011136135438"><ele>13.0</ele><time>2026-04-18T10:20:00.001Z</time></trkpt><trkpt lat="45.23803045135029" lon="11.753156034544977"><ele>12.666666666666666</ele><time>2026-04-18T10:20:02.001Z</time></trkpt><trkpt lat="45.23800370501651" lon="11.753322450724013"><ele>12.333333333333332</ele><time>2026-04-18T10:20:04.001Z</time></trkpt><trkpt lat="45.237976935938974" lon="11.753406271963875"><ele>12.0</ele><time>2026-04-18T10:20:05.001Z</time></trkpt><trkpt lat="45.23794991425342" lon="11.753497305162847"><ele>11.666666666666666</ele><time>2026-04-18T10:20:06.001Z</time></trkpt><trkpt lat="45.237921851335024" lon="11.753594796444228"><ele>11.333333333333332</ele><time>2026-04-18T10:20:07.001Z</time></trkpt><trkpt lat="45.23789553756422" lon="11.753695568282303"><ele>11.0</ele><time>2026-04-18T10:20:08.001Z</time></trkpt><trkpt lat="45.237871267388314" lon="11.753789405855393"><ele>11.0</ele><time>2026-04-18T10:20:09.001Z</time></trkpt><trkpt lat="45.23783272137439" lon="11.753936421787882"><ele>11.0</ele><time>2026-04-18T10:20:11.001Z</time></trkpt><trkpt lat="45.237796871139366" lon="11.754053083927719"><ele>11.0</ele><time>2026-04-18T10:20:13.001Z</time></trkpt><trkpt lat="45.23775210625355" lon="11.754189456873226"><ele>11.0</ele><time>2026-04-18T10:20:15.001Z</time></trkpt><trkpt lat="45.23771009333937" lon="11.754292765568165"><ele>11.0</ele><time>2026-04-18T10:20:16.001Z</time></trkpt><trkpt lat="45.23764656757781" lon="11.75440289630708"><ele>11.0</ele><time>2026-04-18T10:20:17.001Z</time></trkpt><trkpt lat="45.23756389701508" lon="11.754499644343536"><ele>11.0</ele><time>2026-04-18T10:20:18.001Z</time></trkpt><trkpt lat="45.237458647881446" lon="11.75457928083516"><ele>11.0</ele><time>2026-04-18T10:20:19.001Z</time></trkpt><trkpt lat="45.23734462766837" lon="11.754649347075839"><ele>11.0</ele><time>2026-04-18T10:20:20.001Z</time></trkpt><trkpt lat="45.237227123378226" lon="11.754697642226724"><ele>10.600000000000001</ele><time>2026-04-18T10:20:21.001Z</time></trkpt><trkpt lat="45.237120661887054" lon="11.754718297817282"><ele>10.200000000000001</ele><time>2026-04-18T10:20:22.001Z</time></trkpt><trkpt lat="45.237015133314976" lon="11.754723832332363"><ele>9.8</ele><time>2026-04-18T10:20:23.001Z</time></trkpt><trkpt lat="45.2369183797155" lon="11.754725299477768"><ele>9.4</ele><time>2026-04-18T10:20:24.001Z</time></trkpt><trkpt lat="45.236829541380835" lon="11.75472354335706"><ele>9.0</ele><time>2026-04-18T10:20:25.001Z</time></trkpt><trkpt lat="45.23673412042458" lon="11.754721824948188"><ele>9.0</ele><time>2026-04-18T10:20:26.001Z</time></trkpt><trkpt lat="45.23662753645222" lon="11.754730234748878"><ele>9.0</ele><time>2026-04-18T10:20:27.001Z</time></trkpt><trkpt lat="45.236498642373235" lon="11.754737494375668"><ele>9.0</ele><time>2026-04-18T10:20:28.001Z</time></trkpt><trkpt lat="45.23634965232566" lon="11.754736226641722"><ele>9.0</ele><time>2026-04-18T10:20:29.001Z</time></trkpt><trkpt lat="45.23621563738003" lon="11.754741243978163"><ele>9.0</ele><time>2026-04-18T10:20:30.001Z</time></trkpt><trkpt lat="45.236082324887455" lon="11.754748923613542"><ele>9.0</ele><time>2026-04-18T10:20:31.001Z</time></trkpt><trkpt lat="45.2359615840557" lon="11.75475065364228"><ele>9.0</ele><time>2026-04-18T10:20:32.001Z</time></trkpt><trkpt lat="45.235847813325975" lon="11.754760007806249"><ele>9.0</ele><time>2026-04-18T10:20:33.001Z</time></trkpt><trkpt lat="45.235733513732924" lon="11.754768111700233"><ele>9.2</ele><time>2026-04-18T10:20:34.001Z</time></trkpt><trkpt lat="45.235636961907424" lon="11.754769792236294"><ele>9.4</ele><time>2026-04-18T10:20:35.001Z</time></trkpt><trkpt lat="45.23554122282162" lon="11.754775324405891"><ele>9.6</ele><time>2026-04-18T10:20:36.001Z</time></trkpt><trkpt lat="45.23543935422843" lon="11.754777788074852"><ele>9.8</ele><time>2026-04-18T10:20:37.001Z</time></trkpt><trkpt lat="45.2353321488631" lon="11.75477039847593"><ele>10.0</ele><time>2026-04-18T10:20:38.001Z</time></trkpt><trkpt lat="45.23522775046653" lon="11.754771713144866"><ele>10.0</ele><time>2026-04-18T10:20:39.001Z</time></trkpt><trkpt lat="45.23511697798749" lon="11.754775319518794"><ele>10.0</ele><time>2026-04-18T10:20:40.001Z</time></trkpt><trkpt lat="45.2350058106237" lon="11.754778847525742"><ele>10.0</ele><time>2026-04-18T10:20:41.001Z</time></trkpt><trkpt lat="45.23489370661069" lon="11.754780285043942"><ele>10.0</ele><time>2026-04-18T10:20:42.001Z</time></trkpt><trkpt lat="45.23478401990472" lon="11.754784417687587"><ele>10.0</ele><time>2026-04-18T10:20:43.001Z</time></trkpt><trkpt lat="45.23467788099526" lon="11.754791745018345"><ele>10.0</ele><time>2026-04-18T10:20:44.001Z</time></trkpt><trkpt lat="45.23457444220208" lon="11.754792736876919"><ele>10.0</ele><time>2026-04-18T10:20:45.001Z</time></trkpt><trkpt lat="45.23446863061847" lon="11.754790492904016"><ele>10.0</ele><time>2026-04-18T10:20:46.001Z</time></trkpt><trkpt lat="45.234357771422296" lon="11.754791043881838"><ele>10.0</ele><time>2026-04-18T10:20:47.001Z</time></trkpt><trkpt lat="45.23424604586501" lon="11.754791442728923"><ele>10.0</ele><time>2026-04-18T10:20:48.001Z</time></trkpt><trkpt lat="45.23413038745144" lon="11.75479390189733"><ele>10.0</ele><time>2026-04-18T10:20:49.001Z</time></trkpt><trkpt lat="45.23400611156475" lon="11.75480304674682"><ele>10.0</ele><time>2026-04-18T10:20:50.001Z</time></trkpt><trkpt lat="45.233885686620106" lon="11.754808564755503"><ele>10.0</ele><time>2026-04-18T10:20:51.001Z</time></trkpt><trkpt lat="45.233759699002995" lon="11.754815873156803"><ele>10.0</ele><time>2026-04-18T10:20:52Z</time></trkpt><trkpt lat="45.23364308898001" lon="11.754821793042263"><ele>9.833333333333334</ele><time>2026-04-18T10:20:53Z</time></trkpt><trkpt lat="45.23352638646582" lon="11.754830033009044"><ele>9.666666666666668</ele><time>2026-04-18T10:20:54Z</time></trkpt><trkpt lat="45.23340733507395" lon="11.75481464564067"><ele>9.5</ele><time>2026-04-18T10:20:56Z</time></trkpt><trkpt lat="45.23333833696324" lon="11.754818162631523"><ele>9.333333333333334</ele><time>2026-04-18T10:20:57Z</time></trkpt><trkpt lat="45.233268098002824" lon="11.754813348805868"><ele>9.166666666666666</ele><time>2026-04-18T10:20:58Z</time></trkpt><trkpt lat="45.23319818010379" lon="11.754815383650465"><ele>9.0</ele><time>2026-04-18T10:20:59Z</time></trkpt><trkpt lat="45.233119252599145" lon="11.754824479711969"><ele>8.833333333333334</ele><time>2026-04-18T10:21:00Z</time></trkpt><trkpt lat="45.23304341175479" lon="11.754826262506164"><ele>8.666666666666666</ele><time>2026-04-18T10:21:01Z</time></trkpt><trkpt lat="45.23296150119283" lon="11.754823973069652"><ele>8.5</ele><time>2026-04-18T10:21:02Z</time></trkpt><trkpt lat="45.232868481591815" lon="11.7548219769315"><ele>8.333333333333332</ele><time>2026-04-18T10:21:03Z</time></trkpt><trkpt lat="45.232769710233065" lon="11.754827925981202"><ele>8.166666666666666</ele><time>2026-04-18T10:21:04Z</time></trkpt><trkpt lat="45.23267380694376" lon="11.75483435596387"><ele>8.0</ele><time>2026-04-18T10:21:05Z</time></trkpt><trkpt lat="45.232584757274374" lon="11.754839266365057"><ele>7.999999999999999</ele><time>2026-04-18T10:21:06Z</time></trkpt><trkpt lat="45.232497899786196" lon="11.754837047470962"><ele>8.0</ele><time>2026-04-18T10:21:07Z</time></trkpt><trkpt lat="45.23242185563208" lon="11.75483974741992"><ele>8.0</ele><time>2026-04-18T10:21:08Z</time></trkpt><trkpt lat="45.23231805425961" lon="11.754836597760619"><ele>8.0</ele><time>2026-04-18T10:21:10Z</time></trkpt><trkpt lat="45.23222153396805" lon="11.754824742658984"><ele>7.999999999999999</ele><time>2026-04-18T10:21:12Z</time></trkpt><trkpt lat="45.23215300593806" lon="11.754830530734747"><ele>8.0</ele><time>2026-04-18T10:21:14Z</time></trkpt><trkpt lat="45.23210483230943" lon="11.754765385898935"><ele>7.833333333333333</ele><time>2026-04-18T10:21:15Z</time></trkpt><trkpt lat="45.23204999736507" lon="11.75469156192836"><ele>7.666666666666666</ele><time>2026-04-18T10:21:16Z</time></trkpt><trkpt lat="45.23197746435158" lon="11.75459189350837"><ele>7.5</ele><time>2026-04-18T10:21:17Z</time></trkpt><trkpt lat="45.23188179991384" lon="11.754561693703852"><ele>7.333333333333334</ele><time>2026-04-18T10:21:18Z</time></trkpt><trkpt lat="45.23180859522339" lon="11.75458934947103"><ele>7.166666666666667</ele><time>2026-04-18T10:21:19Z</time></trkpt><trkpt lat="45.23173553466424" lon="11.75463361019954"><ele>7.0</ele><time>2026-04-18T10:21:20Z</time></trkpt><trkpt lat="45.23166311659284" lon="11.754680109281878"><ele>7.0</ele><time>2026-04-18T10:21:21Z</time></trkpt><trkpt lat="45.231590287387895" lon="11.754749690025358"><ele>6.999999999999999</ele><time>2026-04-18T10:21:22Z</time></trkpt><trkpt lat="45.231534639802646" lon="11.754843045518008"><ele>6.999999999999999</ele><time>2026-04-18T10:21:23Z</time></trkpt><trkpt lat="45.2314937376374" lon="11.754924656701977"><ele>7.0</ele><time>2026-04-18T10:21:24Z</time></trkpt><trkpt lat="45.23136035777839" lon="11.75488509267658"><ele>7.0</ele><time>2026-04-18T10:21:25Z</time></trkpt><trkpt lat="45.23128791384379" lon="11.754873685685702"><ele>6.833333333333334</ele><time>2026-04-18T10:21:26Z</time></trkpt><trkpt lat="45.23121334188854" lon="11.754855379024258"><ele>6.666666666666667</ele><time>2026-04-18T10:21:27Z</time></trkpt><trkpt lat="45.231134070074866" lon="11.754843549851943"><ele>6.5</ele><time>2026-04-18T10:21:28Z</time></trkpt><trkpt lat="45.2310489104164" lon="11.754837444841863"><ele>6.333333333333334</ele><time>2026-04-18T10:21:29Z</time></trkpt><trkpt lat="45.23096304216643" lon="11.754837427668612"><ele>6.166666666666667</ele><time>2026-04-18T10:21:30Z</time></trkpt><trkpt lat="45.230878125580254" lon="11.75483935376935"><ele>6.0</ele><time>2026-04-18T10:21:31Z</time></trkpt><trkpt lat="45.230804996013596" lon="11.754829209728019"><ele>6.0</ele><time>2026-04-18T10:21:32Z</time></trkpt><trkpt lat="45.23071615973218" lon="11.754778310806431"><ele>6.0</ele><time>2026-04-18T10:21:34Z</time></trkpt><trkpt lat="45.23069084298403" lon="11.754695452674644"><ele>6.0</ele><time>2026-04-18T10:29:12.001Z</time></trkpt><trkpt lat="45.23062052384836" lon="11.75470810116449"><ele>6.0</ele><time>2026-04-18T10:29:27Z</time></trkpt><trkpt lat="45.2305463173975" lon="11.754736268782267"><ele>6.0</ele><time>2026-04-18T10:29:51Z</time></trkpt><trkpt lat="45.230494300556735" lon="11.75479917797934"><ele>6.0</ele><time>2026-04-18T10:29:54Z</time></trkpt><trkpt lat="45.23040124786676" lon="11.754864048472683"><ele>6.6</ele><time>2026-04-18T10:29:59Z</time></trkpt><trkpt lat="45.230288818547756" lon="11.754887881442293"><ele>7.199999999999999</ele><time>2026-04-18T10:30:00Z</time></trkpt><trkpt lat="45.230175568526626" lon="11.754893943168197"><ele>7.800000000000001</ele><time>2026-04-18T10:30:01Z</time></trkpt><trkpt lat="45.2300716947922" lon="11.75488034943765"><ele>8.4</ele><time>2026-04-18T10:30:02Z</time></trkpt><trkpt lat="45.229979968760205" lon="11.754883169417818"><ele>9.0</ele><time>2026-04-18T10:30:03Z</time></trkpt><trkpt lat="45.22988963413125" lon="11.754890096283546"><ele>9.166666666666666</ele><time>2026-04-18T10:30:04Z</time></trkpt><trkpt lat="45.22980106590483" lon="11.754893209390739"><ele>9.333333333333334</ele><time>2026-04-18T10:30:05Z</time></trkpt><trkpt lat="45.22969173564723" lon="11.754901189803512"><ele>9.5</ele><time>2026-04-18T10:30:06Z</time></trkpt><trkpt lat="45.22960388774305" lon="11.754909707059635"><ele>9.666666666666668</ele><time>2026-04-18T10:30:07Z</time></trkpt><trkpt lat="45.22952141440442" lon="11.754906924376085"><ele>9.833333333333334</ele><time>2026-04-18T10:30:08Z</time></trkpt><trkpt lat="45.22945825924981" lon="11.75490606154306"><ele>10.0</ele><time>2026-04-18T10:30:09Z</time></trkpt><trkpt lat="45.22933941876209" lon="11.754911975398487"><ele>10.0</ele><time>2026-04-18T10:30:11Z</time></trkpt><trkpt lat="45.22923190511514" lon="11.754931601138638"><ele>10.0</ele><time>2026-04-18T10:30:13Z</time></trkpt><trkpt lat="45.22916239783547" lon="11.754926773623541"><ele>10.0</ele><time>2026-04-18T10:30:15.001Z</time></trkpt><trkpt lat="45.22913452009476" lon="11.755262206201854"><ele>10.0</ele><time>2026-04-18T10:30:18.001Z</time></trkpt><trkpt lat="45.22909948656744" lon="11.755343325007045"><ele>9.6</ele><time>2026-04-18T10:30:19.001Z</time></trkpt><trkpt lat="45.22903786527496" lon="11.755421316638197"><ele>9.2</ele><time>2026-04-18T10:30:20.001Z</time></trkpt><trkpt lat="45.22895882085757" lon="11.755491074067246"><ele>8.8</ele><time>2026-04-18T10:30:21.001Z</time></trkpt><trkpt lat="45.2288706909778" lon="11.755569763563795"><ele>8.4</ele><time>2026-04-18T10:30:22.001Z</time></trkpt><trkpt lat="45.228783103646165" lon="11.755654560745501"><ele>8.0</ele><time>2026-04-18T10:30:23.001Z</time></trkpt><trkpt lat="45.228708199712706" lon="11.755729050737715"><ele>7.800000000000001</ele><time>2026-04-18T10:30:24.001Z</time></trkpt><trkpt lat="45.228629916053194" lon="11.755806566243509"><ele>7.6000000000000005</ele><time>2026-04-18T10:30:25.001Z</time></trkpt><trkpt lat="45.228542020345984" lon="11.755890543394178"><ele>7.3999999999999995</ele><time>2026-04-18T10:30:26.001Z</time></trkpt><trkpt lat="45.22844978078298" lon="11.755978758739326"><ele>7.199999999999999</ele><time>2026-04-18T10:30:27.001Z</time></trkpt><trkpt lat="45.22835088997327" lon="11.756062634290785"><ele>7.0</ele><time>2026-04-18T10:30:28.001Z</time></trkpt><trkpt lat="45.22825089130024" lon="11.756149293935838"><ele>6.5</ele><time>2026-04-18T10:30:29.001Z</time></trkpt><trkpt lat="45.22815204718621" lon="11.756224011816057"><ele>6.0</ele><time>2026-04-18T10:30:30.001Z</time></trkpt><trkpt lat="45.228046129306826" lon="11.756280430802198"><ele>5.5</ele><time>2026-04-18T10:30:31.001Z</time></trkpt><trkpt lat="45.22793882641552" lon="11.75632681581889"><ele>5.0</ele><time>2026-04-18T10:30:32.001Z</time></trkpt><trkpt lat="45.22782383610476" lon="11.756372365741422"><ele>5.0</ele><time>2026-04-18T10:30:33.001Z</time></trkpt><trkpt lat="45.22770199717895" lon="11.756412063768357"><ele>5.0</ele><time>2026-04-18T10:30:34.001Z</time></trkpt><trkpt lat="45.22757802574695" lon="11.756447048506633"><ele>5.0</ele><time>2026-04-18T10:30:35.001Z</time></trkpt><trkpt lat="45.22745583347059" lon="11.75648617268806"><ele>5.0</ele><time>2026-04-18T10:30:36.001Z</time></trkpt><trkpt lat="45.227331779598046" lon="11.756528845401466"><ele>5.333333333333334</ele><time>2026-04-18T10:30:37.001Z</time></trkpt><trkpt lat="45.22720402791695" lon="11.756588393104735"><ele>5.666666666666667</ele><time>2026-04-18T10:30:38.001Z</time></trkpt><trkpt lat="45.227069547610974" lon="11.756676593167162"><ele>6.0</ele><time>2026-04-18T10:30:39.001Z</time></trkpt><trkpt lat="45.226911875682056" lon="11.756799067343827"><ele>6.666666666666666</ele><time>2026-04-18T10:30:40.001Z</time></trkpt><trkpt lat="45.22673710787984" lon="11.756961611194443"><ele>7.333333333333333</ele><time>2026-04-18T10:30:41.001Z</time></trkpt><trkpt lat="45.22653533478841" lon="11.757121854915212"><ele>8.0</ele><time>2026-04-18T10:30:42.001Z</time></trkpt><trkpt lat="45.226300325061" lon="11.75733517987766"><ele>8.5</ele><time>2026-04-18T10:30:43.001Z</time></trkpt><trkpt lat="45.226059999282015" lon="11.757569091837578"><ele>9.0</ele><time>2026-04-18T10:30:44.001Z</time></trkpt><trkpt lat="45.2258400068816" lon="11.757754674161546"><ele>7.5</ele><time>2026-04-18T10:30:45.001Z</time></trkpt><trkpt lat="45.225639820363305" lon="11.757935973809062"><ele>6.0</ele><time>2026-04-18T10:30:46.001Z</time></trkpt><trkpt lat="45.22544741803133" lon="11.758097733095653"><ele>6.0</ele><time>2026-04-18T10:30:47.001Z</time></trkpt><trkpt lat="45.225260106897515" lon="11.75823505336911"><ele>6.0</ele><time>2026-04-18T10:30:48.001Z</time></trkpt><trkpt lat="45.225068496613666" lon="11.758355083414934"><ele>6.0</ele><time>2026-04-18T10:30:49.001Z</time></trkpt><trkpt lat="45.224871436506675" lon="11.758472193927268"><ele>5.666666666666667</ele><time>2026-04-18T10:30:50.001Z</time></trkpt><trkpt lat="45.224673750737075" lon="11.758590827652355"><ele>5.333333333333334</ele><time>2026-04-18T10:30:51.001Z</time></trkpt><trkpt lat="45.22449665974492" lon="11.758702934545944"><ele>5.0</ele><time>2026-04-18T10:30:52.001Z</time></trkpt><trkpt lat="45.22432472754157" lon="11.75880785470407"><ele>5.0</ele><time>2026-04-18T10:30:53.001Z</time></trkpt><trkpt lat="45.22414838973662" lon="11.758916229177593"><ele>5.0</ele><time>2026-04-18T10:30:54.001Z</time></trkpt><trkpt lat="45.2239882631214" lon="11.759011637613108"><ele>5.0</ele><time>2026-04-18T10:30:55.001Z</time></trkpt><trkpt lat="45.22383735928914" lon="11.759105925538782"><ele>5.333333333333334</ele><time>2026-04-18T10:30:56.001Z</time></trkpt><trkpt lat="45.22368346095235" lon="11.759200839064963"><ele>5.666666666666667</ele><time>2026-04-18T10:30:57.001Z</time></trkpt><trkpt lat="45.22352657529744" lon="11.759294669260862"><ele>6.0</ele><time>2026-04-18T10:30:58.001Z</time></trkpt><trkpt lat="45.22336463477363" lon="11.759388319214484"><ele>6.0</ele><time>2026-04-18T10:30:59.001Z</time></trkpt><trkpt lat="45.22319894616028" lon="11.759485752646924"><ele>6.0</ele><time>2026-04-18T10:31:00.001Z</time></trkpt><trkpt lat="45.22303136691937" lon="11.759586717723598"><ele>6.0</ele><time>2026-04-18T10:31:01.001Z</time></trkpt><trkpt lat="45.22286723059175" lon="11.759686289614693"><ele>5.333333333333333</ele><time>2026-04-18T10:31:02.001Z</time></trkpt><trkpt lat="45.2227058240487" lon="11.759774901245367"><ele>4.666666666666666</ele><time>2026-04-18T10:31:03.001Z</time></trkpt><trkpt lat="45.22254777061511" lon="11.75985435412354"><ele>4.0</ele><time>2026-04-18T10:31:04.001Z</time></trkpt><trkpt lat="45.22238095851744" lon="11.759921831590194"><ele>5.0</ele><time>2026-04-18T10:31:05.001Z</time></trkpt><trkpt lat="45.22221596559655" lon="11.759963500204968"><ele>6.0</ele><time>2026-04-18T10:31:06.001Z</time></trkpt><trkpt lat="45.22205754508904" lon="11.75998879914579"><ele>7.0</ele><time>2026-04-18T10:31:07.001Z</time></trkpt><trkpt lat="45.22191025612723" lon="11.760024056285609"><ele>7.0</ele><time>2026-04-18T10:31:08.001Z</time></trkpt><trkpt lat="45.22176668412972" lon="11.760083270905051"><ele>7.0</ele><time>2026-04-18T10:31:09.001Z</time></trkpt><trkpt lat="45.22161779167143" lon="11.760177213929433"><ele>7.0</ele><time>2026-04-18T10:31:10.001Z</time></trkpt><trkpt lat="45.22146062089967" lon="11.760305334180162"><ele>7.333333333333334</ele><time>2026-04-18T10:31:11.001Z</time></trkpt><trkpt lat="45.22129898062343" lon="11.760459417864686"><ele>7.666666666666666</ele><time>2026-04-18T10:31:12.001Z</time></trkpt><trkpt lat="45.22113805392644" lon="11.760630848009795"><ele>8.0</ele><time>2026-04-18T10:31:13.001Z</time></trkpt><trkpt lat="45.22099069652103" lon="11.760787318892142"><ele>8.0</ele><time>2026-04-18T10:31:14.001Z</time></trkpt><trkpt lat="45.22084455137278" lon="11.760924557822303"><ele>8.0</ele><time>2026-04-18T10:31:15.001Z</time></trkpt><trkpt lat="45.22068521197828" lon="11.76105375396754"><ele>8.0</ele><time>2026-04-18T10:31:16.001Z</time></trkpt><trkpt lat="45.220521169475106" lon="11.761179101468823"><ele>6.333333333333333</ele><time>2026-04-18T10:31:17.001Z</time></trkpt><trkpt lat="45.22034996026182" lon="11.761293351108216"><ele>4.666666666666666</ele><time>2026-04-18T10:31:18.001Z</time></trkpt><trkpt lat="45.22018386552797" lon="11.761388349103003"><ele>3.0</ele><time>2026-04-18T10:31:19.001Z</time></trkpt><trkpt lat="45.22002696745793" lon="11.761466053154868"><ele>3.0</ele><time>2026-04-18T10:31:20.001Z</time></trkpt><trkpt lat="45.21988430213187" lon="11.761536869201064"><ele>3.0</ele><time>2026-04-18T10:31:21.001Z</time></trkpt><trkpt lat="45.21975363535613" lon="11.761606671777056"><ele>3.0</ele><time>2026-04-18T10:31:22Z</time></trkpt><trkpt lat="45.219622974794135" lon="11.761650268313982"><ele>3.0</ele><time>2026-04-18T10:31:23Z</time></trkpt><trkpt lat="45.219480370688366" lon="11.761662905698184"><ele>3.5</ele><time>2026-04-18T10:31:24Z</time></trkpt><trkpt lat="45.219340592116" lon="11.761638164355997"><ele>4.0</ele><time>2026-04-18T10:31:25Z</time></trkpt><trkpt lat="45.219202999693934" lon="11.761602450518055"><ele>4.5</ele><time>2026-04-18T10:31:26Z</time></trkpt><trkpt lat="45.2190848139061" lon="11.761579711921812"><ele>5.0</ele><time>2026-04-18T10:31:27Z</time></trkpt><trkpt lat="45.218973648107" lon="11.761561537370692"><ele>5.0</ele><time>2026-04-18T10:31:28Z</time></trkpt><trkpt lat="45.21887423355748" lon="11.761522427418093"><ele>5.0</ele><time>2026-04-18T10:31:29Z</time></trkpt><trkpt lat="45.21878392570206" lon="11.76143292942562"><ele>5.0</ele><time>2026-04-18T10:31:30Z</time></trkpt><trkpt lat="45.21872377196371" lon="11.761304441198916"><ele>5.0</ele><time>2026-04-18T10:31:31Z</time></trkpt><trkpt lat="45.218707680059346" lon="11.761149849869918"><ele>5.0</ele><time>2026-04-18T10:31:32Z</time></trkpt><trkpt lat="45.21866331707546" lon="11.760999782931767"><ele>5.0</ele><time>2026-04-18T10:31:33Z</time></trkpt><trkpt lat="45.218631578478856" lon="11.760850891704214"><ele>5.0</ele><time>2026-04-18T10:31:34Z</time></trkpt><trkpt lat="45.21859896709078" lon="11.760731475309706"><ele>5.0</ele><time>2026-04-18T10:31:35Z</time></trkpt><trkpt lat="45.218561186892764" lon="11.760630436218912"><ele>5.0</ele><time>2026-04-18T10:31:36Z</time></trkpt><trkpt lat="45.21851646342749" lon="11.76056256262889"><ele>5.0</ele><time>2026-04-18T10:31:37Z</time></trkpt><trkpt lat="45.21842580652704" lon="11.760511092469399"><ele>5.0</ele><time>2026-04-18T10:31:39Z</time></trkpt><trkpt lat="45.21835287589088" lon="11.760516591413664"><ele>5.0</ele><time>2026-04-18T10:31:40Z</time></trkpt><trkpt lat="45.21825836772049" lon="11.760555998016304"><ele>5.0</ele><time>2026-04-18T10:31:41Z</time></trkpt><trkpt lat="45.21814714279381" lon="11.760619729031033"><ele>5.0</ele><time>2026-04-18T10:31:42Z</time></trkpt><trkpt lat="45.2180244248251" lon="11.76069371340726"><ele>5.0</ele><time>2026-04-18T10:31:43Z</time></trkpt><trkpt lat="45.217915662579735" lon="11.760744383783408"><ele>5.2</ele><time>2026-04-18T10:31:44Z</time></trkpt><trkpt lat="45.21780760664713" lon="11.760786129680575"><ele>5.4</ele><time>2026-04-18T10:31:45Z</time></trkpt><trkpt lat="45.21770934498696" lon="11.760808337561192"><ele>5.6</ele><time>2026-04-18T10:31:46Z</time></trkpt><trkpt lat="45.21761724572816" lon="11.76081081642335"><ele>5.8</ele><time>2026-04-18T10:31:47Z</time></trkpt><trkpt lat="45.21753631493356" lon="11.760774573795961"><ele>6.0</ele><time>2026-04-18T10:31:48Z</time></trkpt><trkpt lat="45.21747323324324" lon="11.760695377776337"><ele>6.0</ele><time>2026-04-18T10:31:49Z</time></trkpt><trkpt lat="45.21741224228406" lon="11.760586263678645"><ele>6.0</ele><time>2026-04-18T10:31:50Z</time></trkpt><trkpt lat="45.21734965429491" lon="11.760467850874411"><ele>6.0</ele><time>2026-04-18T10:31:51Z</time></trkpt><trkpt lat="45.21727469907224" lon="11.760358918000259"><ele>6.0</ele><time>2026-04-18T10:31:52Z</time></trkpt><trkpt lat="45.21718586011228" lon="11.76027176403887"><ele>6.0</ele><time>2026-04-18T10:31:53Z</time></trkpt><trkpt lat="45.2170903610866" lon="11.760208850507855"><ele>6.0</ele><time>2026-04-18T10:31:54Z</time></trkpt><trkpt lat="45.21699654730298" lon="11.760167001345357"><ele>6.0</ele><time>2026-04-18T10:31:55Z</time></trkpt><trkpt lat="45.216921152437614" lon="11.760135614648336"><ele>6.0</ele><time>2026-04-18T10:31:56Z</time></trkpt><trkpt lat="45.21683044755052" lon="11.760102687407562"><ele>6.0</ele><time>2026-04-18T10:31:58Z</time></trkpt><trkpt lat="45.21675349254758" lon="11.76008235675875"><ele>6.0</ele><time>2026-04-18T10:32:04Z</time></trkpt><trkpt lat="45.21673238287595" lon="11.76034827315269"><ele>6.0</ele><time>2026-04-18T10:32:05Z</time></trkpt><trkpt lat="45.216725389367184" lon="11.760535965073904"><ele>6.0</ele><time>2026-04-18T10:32:06Z</time></trkpt><trkpt lat="45.2167116648398" lon="11.760759436397018"><ele>6.0</ele><time>2026-04-18T10:32:07Z</time></trkpt><trkpt lat="45.216696876115996" lon="11.76100841242609"><ele>6.0</ele><time>2026-04-18T10:32:08Z</time></trkpt><trkpt lat="45.21668163729144" lon="11.761271668844406"><ele>6.0</ele><time>2026-04-18T10:32:09Z</time></trkpt><trkpt lat="45.216674991505435" lon="11.761497636588283"><ele>6.0</ele><time>2026-04-18T10:32:10Z</time></trkpt><trkpt lat="45.216669312774556" lon="11.761695482928339"><ele>5.666666666666667</ele><time>2026-04-18T10:32:11Z</time></trkpt><trkpt lat="45.21666966424353" lon="11.761899029337426"><ele>5.333333333333334</ele><time>2026-04-18T10:32:12Z</time></trkpt><trkpt lat="45.21666959940768" lon="11.762132915823578"><ele>5.0</ele><time>2026-04-18T10:32:13Z</time></trkpt><trkpt lat="45.21667259248449" lon="11.762393713319675"><ele>5.0</ele><time>2026-04-18T10:32:14Z</time></trkpt><trkpt lat="45.216683187321344" lon="11.762667619741181"><ele>5.0</ele><time>2026-04-18T10:32:15Z</time></trkpt><trkpt lat="45.21669825039581" lon="11.762916845976147"><ele>5.0</ele><time>2026-04-18T10:32:16Z</time></trkpt><trkpt lat="45.21670770945282" lon="11.763172933931527"><ele>4.666666666666667</ele><time>2026-04-18T10:32:17Z</time></trkpt><trkpt lat="45.21671746116686" lon="11.763419982486152"><ele>4.333333333333333</ele><time>2026-04-18T10:32:18Z</time></trkpt><trkpt lat="45.216726267525225" lon="11.763656516052022"><ele>4.0</ele><time>2026-04-18T10:32:19Z</time></trkpt><trkpt lat="45.216735601318796" lon="11.76388507905111"><ele>3.6666666666666665</ele><time>2026-04-18T10:32:20.001Z</time></trkpt><trkpt lat="45.21673628082265" lon="11.764106339432601"><ele>3.333333333333333</ele><time>2026-04-18T10:32:21.001Z</time></trkpt><trkpt lat="45.21671743518253" lon="11.764322328144587"><ele>3.0</ele><time>2026-04-18T10:32:22.001Z</time></trkpt><trkpt lat="45.21668081646265" lon="11.76451921466839"><ele>3.666666666666667</ele><time>2026-04-18T10:32:23.001Z</time></trkpt><trkpt lat="45.21662693714921" lon="11.764719627822041"><ele>4.333333333333334</ele><time>2026-04-18T10:32:24.001Z</time></trkpt><trkpt lat="45.21654530630497" lon="11.764926273699603"><ele>5.0</ele><time>2026-04-18T10:32:25.001Z</time></trkpt><trkpt lat="45.2164259037284" lon="11.765138757750439"><ele>4.666666666666667</ele><time>2026-04-18T10:32:26.001Z</time></trkpt><trkpt lat="45.21629081654176" lon="11.765347453095957"><ele>4.333333333333333</ele><time>2026-04-18T10:32:27.001Z</time></trkpt><trkpt lat="45.21616859976623" lon="11.76553102346203"><ele>4.0</ele><time>2026-04-18T10:32:28.001Z</time></trkpt><trkpt lat="45.2160431144721" lon="11.7657258576876"><ele>4.0</ele><time>2026-04-18T10:32:29.001Z</time></trkpt><trkpt lat="45.215914194946635" lon="11.765925102477604"><ele>4.0</ele><time>2026-04-18T10:32:30.001Z</time></trkpt><trkpt lat="45.21578370519448" lon="11.76611530286675"><ele>4.0</ele><time>2026-04-18T10:32:31.001Z</time></trkpt><trkpt lat="45.215649033842155" lon="11.766293186828722"><ele>3.6666666666666665</ele><time>2026-04-18T10:32:32.001Z</time></trkpt><trkpt lat="45.215503502300145" lon="11.766465956880266"><ele>3.333333333333333</ele><time>2026-04-18T10:32:33.001Z</time></trkpt><trkpt lat="45.21535159206036" lon="11.766636785250215"><ele>3.0</ele><time>2026-04-18T10:32:34.001Z</time></trkpt><trkpt lat="45.215195127772795" lon="11.766811564369714"><ele>3.333333333333333</ele><time>2026-04-18T10:32:35.001Z</time></trkpt><trkpt lat="45.2150354134163" lon="11.76698371146721"><ele>3.6666666666666665</ele><time>2026-04-18T10:32:36.001Z</time></trkpt><trkpt lat="45.21487447612323" lon="11.767148837116471"><ele>4.0</ele><time>2026-04-18T10:32:37.001Z</time></trkpt><trkpt lat="45.214721305587766" lon="11.767308454813262"><ele>4.333333333333333</ele><time>2026-04-18T10:32:38.001Z</time></trkpt><trkpt lat="45.214591937335946" lon="11.767470787923493"><ele>4.666666666666667</ele><time>2026-04-18T10:32:39.001Z</time></trkpt><trkpt lat="45.214482005561166" lon="11.767649524369153"><ele>5.0</ele><time>2026-04-18T10:32:40.001Z</time></trkpt><trkpt lat="45.21438044651906" lon="11.767851286285195"><ele>5.333333333333334</ele><time>2026-04-18T10:32:41.001Z</time></trkpt><trkpt lat="45.21428083235579" lon="11.768087537649834"><ele>5.666666666666667</ele><time>2026-04-18T10:32:42.001Z</time></trkpt><trkpt lat="45.21419055860214" lon="11.768350277780735"><ele>6.0</ele><time>2026-04-18T10:32:43.001Z</time></trkpt><trkpt lat="45.21410757272671" lon="11.768615681940881"><ele>5.666666666666667</ele><time>2026-04-18T10:32:44.001Z</time></trkpt><trkpt lat="45.21403131379212" lon="11.768857580069417"><ele>5.333333333333334</ele><time>2026-04-18T10:32:45.001Z</time></trkpt><trkpt lat="45.21395449811008" lon="11.769080524865656"><ele>5.0</ele><time>2026-04-18T10:32:46.001Z</time></trkpt><trkpt lat="45.21386562458427" lon="11.7693025564308"><ele>4.666666666666667</ele><time>2026-04-18T10:32:47.001Z</time></trkpt><trkpt lat="45.21375779786587" lon="11.769518841828614"><ele>4.333333333333333</ele><time>2026-04-18T10:32:48.001Z</time></trkpt><trkpt lat="45.21363999983446" lon="11.769734232760348"><ele>4.0</ele><time>2026-04-18T10:32:49.001Z</time></trkpt><trkpt lat="45.21352370936845" lon="11.769955267834565"><ele>4.0</ele><time>2026-04-18T10:32:50.001Z</time></trkpt><trkpt lat="45.21341027107785" lon="11.770180153718638"><ele>4.0</ele><time>2026-04-18T10:32:51.001Z</time></trkpt><trkpt lat="45.21329829253523" lon="11.770410407233754"><ele>4.0</ele><time>2026-04-18T10:32:52.001Z</time></trkpt><trkpt lat="45.21318654587998" lon="11.770642452211252"><ele>4.0</ele><time>2026-04-18T10:32:53.001Z</time></trkpt><trkpt lat="45.21307267050569" lon="11.770875069200963"><ele>4.0</ele><time>2026-04-18T10:32:54.001Z</time></trkpt><trkpt lat="45.21296609047148" lon="11.771100274637904"><ele>4.0</ele><time>2026-04-18T10:32:55.001Z</time></trkpt><trkpt lat="45.2128706512614" lon="11.771305985311795"><ele>4.0</ele><time>2026-04-18T10:32:56.001Z</time></trkpt><trkpt lat="45.21277018648383" lon="11.771501990581934"><ele>4.0</ele><time>2026-04-18T10:32:57.001Z</time></trkpt><trkpt lat="45.21265927595781" lon="11.771666625869297"><ele>4.0</ele><time>2026-04-18T10:32:58.001Z</time></trkpt><trkpt lat="45.21253425532861" lon="11.771800969472622"><ele>3.6666666666666665</ele><time>2026-04-18T10:32:59.001Z</time></trkpt><trkpt lat="45.21237545833058" lon="11.771924890850112"><ele>3.333333333333333</ele><time>2026-04-18T10:33:00.001Z</time></trkpt><trkpt lat="45.21221834690595" lon="11.772008337718908"><ele>3.0</ele><time>2026-04-18T10:33:01.001Z</time></trkpt><trkpt lat="45.21206756976858" lon="11.772059617379647"><ele>3.0</ele><time>2026-04-18T10:33:02.001Z</time></trkpt><trkpt lat="45.21191350691726" lon="11.77207937507619"><ele>3.0</ele><time>2026-04-18T10:33:03.001Z</time></trkpt><trkpt lat="45.21176775865304" lon="11.772065401578391"><ele>3.0</ele><time>2026-04-18T10:33:04.001Z</time></trkpt><trkpt lat="45.211636795216755" lon="11.772032464064992"><ele>3.0</ele><time>2026-04-18T10:33:05.001Z</time></trkpt><trkpt lat="45.211516542286574" lon="11.771988509471653"><ele>3.0</ele><time>2026-04-18T10:33:06.001Z</time></trkpt><trkpt lat="45.211406300116515" lon="11.7719323785692"><ele>3.0</ele><time>2026-04-18T10:33:07.001Z</time></trkpt><trkpt lat="45.21130799631638" lon="11.771864084966234"><ele>3.0</ele><time>2026-04-18T10:33:08.001Z</time></trkpt><trkpt lat="45.21121957393392" lon="11.77179225591347"><ele>3.0</ele><time>2026-04-18T10:33:09.001Z</time></trkpt><trkpt lat="45.21114704184408" lon="11.771737139698388"><ele>3.0</ele><time>2026-04-18T10:33:10.001Z</time></trkpt><trkpt lat="45.21105258832314" lon="11.771668843577043"><ele>3.0</ele><time>2026-04-18T10:33:12.001Z</time></trkpt><trkpt lat="45.210964527594136" lon="11.77166420900053"><ele>3.0</ele><time>2026-04-18T10:33:24.001Z</time></trkpt><trkpt lat="45.21086352104071" lon="11.771871518213363"><ele>3.0</ele><time>2026-04-18T10:33:26.001Z</time></trkpt><trkpt lat="45.210808781157084" lon="11.772081760918741"><ele>3.0</ele><time>2026-04-18T10:33:27.001Z</time></trkpt><trkpt lat="45.210747950528216" lon="11.77236884206973"><ele>3.0</ele><time>2026-04-18T10:33:28Z</time></trkpt><trkpt lat="45.21069365521426" lon="11.772685239185373"><ele>3.0</ele><time>2026-04-18T10:33:29Z</time></trkpt><trkpt lat="45.210645037689474" lon="11.772956834993817"><ele>3.0</ele><time>2026-04-18T10:33:30Z</time></trkpt><trkpt lat="45.21060014708578" lon="11.77319212287813"><ele>3.0</ele><time>2026-04-18T10:33:31Z</time></trkpt><trkpt lat="45.21055619541691" lon="11.773418574907538"><ele>3.0</ele><time>2026-04-18T10:33:32Z</time></trkpt><trkpt lat="45.21051892275511" lon="11.773645910406195"><ele>3.0</ele><time>2026-04-18T10:33:33Z</time></trkpt><trkpt lat="45.2104857132014" lon="11.773879999523405"><ele>3.0</ele><time>2026-04-18T10:33:34Z</time></trkpt><trkpt lat="45.21042541809833" lon="11.774121464267031"><ele>3.0</ele><time>2026-04-18T10:33:35Z</time></trkpt><trkpt lat="45.21037597757795" lon="11.774381772771504"><ele>3.0</ele><time>2026-04-18T10:33:36Z</time></trkpt><trkpt lat="45.210339149134306" lon="11.774652248185191"><ele>3.333333333333333</ele><time>2026-04-18T10:33:37Z</time></trkpt><trkpt lat="45.21028364601812" lon="11.774908786462497"><ele>3.6666666666666665</ele><time>2026-04-18T10:33:38Z</time></trkpt><trkpt lat="45.21023515565702" lon="11.775166051307087"><ele>4.0</ele><time>2026-04-18T10:33:39Z</time></trkpt><trkpt lat="45.210186912622504" lon="11.775424808668731"><ele>4.0</ele><time>2026-04-18T10:33:40Z</time></trkpt><trkpt lat="45.210133616644164" lon="11.775682273906305"><ele>4.0</ele><time>2026-04-18T10:33:41Z</time></trkpt><trkpt lat="45.21008398646948" lon="11.775941870747308"><ele>4.0</ele><time>2026-04-18T10:33:42Z</time></trkpt><trkpt lat="45.21003276232872" lon="11.776203246919312"><ele>3.5</ele><time>2026-04-18T10:33:43Z</time></trkpt><trkpt lat="45.20997328517543" lon="11.776506102666982"><ele>3.0</ele><time>2026-04-18T10:33:44Z</time></trkpt><trkpt lat="45.20991092832505" lon="11.776818046220221"><ele>3.0</ele><time>2026-04-18T10:33:45Z</time></trkpt><trkpt lat="45.20985948317686" lon="11.777094156276716"><ele>3.0</ele><time>2026-04-18T10:33:46Z</time></trkpt><trkpt lat="45.20980813596824" lon="11.777353377807712"><ele>3.0</ele><time>2026-04-18T10:33:47Z</time></trkpt><trkpt lat="45.20975950804892" lon="11.777597890620747"><ele>3.333333333333333</ele><time>2026-04-18T10:33:48Z</time></trkpt><trkpt lat="45.20971487830501" lon="11.777828504898977"><ele>3.6666666666666665</ele><time>2026-04-18T10:33:49Z</time></trkpt><trkpt lat="45.20967593743318" lon="11.778044381782076"><ele>4.0</ele><time>2026-04-18T10:33:50Z</time></trkpt><trkpt lat="45.20963839535674" lon="11.778244577196725"><ele>4.0</ele><time>2026-04-18T10:33:51Z</time></trkpt><trkpt lat="45.209593366019696" lon="11.778431384988654"><ele>4.0</ele><time>2026-04-18T10:33:52Z</time></trkpt><trkpt lat="45.20953378125743" lon="11.778604308531165"><ele>4.0</ele><time>2026-04-18T10:33:53Z</time></trkpt><trkpt lat="45.20946087741953" lon="11.778767498671685"><ele>4.0</ele><time>2026-04-18T10:33:54Z</time></trkpt><trkpt lat="45.20936286411304" lon="11.778918271227328"><ele>4.0</ele><time>2026-04-18T10:33:55Z</time></trkpt><trkpt lat="45.20924164971877" lon="11.779047546559205"><ele>4.0</ele><time>2026-04-18T10:33:56Z</time></trkpt><trkpt lat="45.20910603964545" lon="11.779140629994679"><ele>4.0</ele><time>2026-04-18T10:33:57Z</time></trkpt><trkpt lat="45.20896308970733" lon="11.779191433553754"><ele>4.25</ele><time>2026-04-18T10:33:58Z</time></trkpt><trkpt lat="45.208814657083586" lon="11.779216672685255"><ele>4.5</ele><time>2026-04-18T10:33:59Z</time></trkpt><trkpt lat="45.20868408776312" lon="11.779220900032302"><ele>4.75</ele><time>2026-04-18T10:34:00Z</time></trkpt><trkpt lat="45.20856880061205" lon="11.779235588918619"><ele>5.0</ele><time>2026-04-18T10:34:01Z</time></trkpt><trkpt lat="45.208475971742544" lon="11.779227608398871"><ele>5.0</ele><time>2026-04-18T10:34:02Z</time></trkpt><trkpt lat="45.20839126065974" lon="11.779208081503912"><ele>5.0</ele><time>2026-04-18T10:34:03Z</time></trkpt><trkpt lat="45.20832068800644" lon="11.779156328217418"><ele>5.0</ele><time>2026-04-18T10:34:04Z</time></trkpt><trkpt lat="45.208258210905726" lon="11.779090214000794"><ele>5.0</ele><time>2026-04-18T10:34:05Z</time></trkpt><trkpt lat="45.20817738686387" lon="11.779059512057088"><ele>5.0</ele><time>2026-04-18T10:34:06Z</time></trkpt><trkpt lat="45.20808243055044" lon="11.77908142507009"><ele>5.0</ele><time>2026-04-18T10:34:07Z</time></trkpt><trkpt lat="45.207963095486626" lon="11.779159125718092"><ele>4.666666666666667</ele><time>2026-04-18T10:34:08Z</time></trkpt><trkpt lat="45.20782008926494" lon="11.779249773945603"><ele>4.333333333333333</ele><time>2026-04-18T10:34:09Z</time></trkpt><trkpt lat="45.20767693502599" lon="11.779307381460239"><ele>4.0</ele><time>2026-04-18T10:34:10Z</time></trkpt><trkpt lat="45.20752666204091" lon="11.779382072802957"><ele>4.0</ele><time>2026-04-18T10:34:11Z</time></trkpt><trkpt lat="45.207381321482906" lon="11.779504110582183"><ele>4.0</ele><time>2026-04-18T10:34:12Z</time></trkpt><trkpt lat="45.20724446931649" lon="11.779653471501707"><ele>4.0</ele><time>2026-04-18T10:34:13Z</time></trkpt><trkpt lat="45.207116215451244" lon="11.779829282604055"><ele>3.6666666666666665</ele><time>2026-04-18T10:34:14Z</time></trkpt><trkpt lat="45.206991747982165" lon="11.78004771277182"><ele>3.333333333333333</ele><time>2026-04-18T10:34:15Z</time></trkpt><trkpt lat="45.20688982377441" lon="11.78030526559789"><ele>3.0</ele><time>2026-04-18T10:34:16Z</time></trkpt><trkpt lat="45.20680509538146" lon="11.780577008445508"><ele>3.0</ele><time>2026-04-18T10:34:17Z</time></trkpt><trkpt lat="45.20671971380147" lon="11.780830263696332"><ele>3.0</ele><time>2026-04-18T10:34:18Z</time></trkpt><trkpt lat="45.206626264200736" lon="11.781065359038093"><ele>3.0</ele><time>2026-04-18T10:34:19Z</time></trkpt><trkpt lat="45.20652995056303" lon="11.78128480639909"><ele>4.0</ele><time>2026-04-18T10:34:20.001Z</time></trkpt><trkpt lat="45.206433062300476" lon="11.781476499733538"><ele>5.0</ele><time>2026-04-18T10:34:21.001Z</time></trkpt><trkpt lat="45.20633108313027" lon="11.781636852519627"><ele>6.0</ele><time>2026-04-18T10:34:22.001Z</time></trkpt><trkpt lat="45.20621314606964" lon="11.781780905259602"><ele>5.666666666666667</ele><time>2026-04-18T10:34:23.001Z</time></trkpt><trkpt lat="45.206074871646585" lon="11.78192760056016"><ele>5.333333333333334</ele><time>2026-04-18T10:34:24.001Z</time></trkpt><trkpt lat="45.20593981136355" lon="11.782058875103111"><ele>5.0</ele><time>2026-04-18T10:34:25.001Z</time></trkpt><trkpt lat="45.20581367795429" lon="11.7821755991202"><ele>5.0</ele><time>2026-04-18T10:34:26.001Z</time></trkpt><trkpt lat="45.20567886106725" lon="11.782288176461892"><ele>5.0</ele><time>2026-04-18T10:34:27.001Z</time></trkpt><trkpt lat="45.205528125521916" lon="11.782400471287263"><ele>5.0</ele><time>2026-04-18T10:34:28.001Z</time></trkpt><trkpt lat="45.205367662405976" lon="11.78250702884607"><ele>5.0</ele><time>2026-04-18T10:34:29.001Z</time></trkpt><trkpt lat="45.20520812803419" lon="11.782597917730806"><ele>5.0</ele><time>2026-04-18T10:34:30.001Z</time></trkpt><trkpt lat="45.20505092563927" lon="11.782673406676784"><ele>5.0</ele><time>2026-04-18T10:34:31.001Z</time></trkpt><trkpt lat="45.2048965875859" lon="11.782751683754118"><ele>4.666666666666667</ele><time>2026-04-18T10:34:32.001Z</time></trkpt><trkpt lat="45.20474101671825" lon="11.782835579109094"><ele>4.333333333333333</ele><time>2026-04-18T10:34:33.001Z</time></trkpt><trkpt lat="45.20458195170195" lon="11.782918354104702"><ele>4.0</ele><time>2026-04-18T10:34:34.001Z</time></trkpt><trkpt lat="45.20442135082059" lon="11.782997508645293"><ele>4.0</ele><time>2026-04-18T10:34:35.001Z</time></trkpt><trkpt lat="45.20425336790776" lon="11.783065285971563"><ele>4.0</ele><time>2026-04-18T10:34:36.001Z</time></trkpt><trkpt lat="45.204085894456874" lon="11.783110263397244"><ele>4.0</ele><time>2026-04-18T10:34:37.001Z</time></trkpt><trkpt lat="45.20390968915479" lon="11.78312821565407"><ele>3.6666666666666665</ele><time>2026-04-18T10:34:38.001Z</time></trkpt><trkpt lat="45.203732904905245" lon="11.783123755813662"><ele>3.333333333333333</ele><time>2026-04-18T10:34:39.001Z</time></trkpt><trkpt lat="45.2035515397189" lon="11.783113019479314"><ele>3.0</ele><time>2026-04-18T10:34:40.001Z</time></trkpt><trkpt lat="45.20338380226375" lon="11.783099016680582"><ele>3.0</ele><time>2026-04-18T10:34:41.001Z</time></trkpt><trkpt lat="45.203207519891656" lon="11.78307152407909"><ele>3.0</ele><time>2026-04-18T10:34:42.001Z</time></trkpt><trkpt lat="45.203034222319225" lon="11.783030982673406"><ele>3.0</ele><time>2026-04-18T10:34:43.001Z</time></trkpt><trkpt lat="45.2028673757459" lon="11.782977426435945"><ele>3.0</ele><time>2026-04-18T10:34:44.001Z</time></trkpt><trkpt lat="45.202693423803225" lon="11.782921135181805"><ele>3.0</ele><time>2026-04-18T10:34:45.001Z</time></trkpt><trkpt lat="45.202523958064916" lon="11.782855874952268"><ele>3.0</ele><time>2026-04-18T10:34:46.001Z</time></trkpt><trkpt lat="45.202351665307155" lon="11.782790102309212"><ele>2.6666666666666665</ele><time>2026-04-18T10:34:47.001Z</time></trkpt><trkpt lat="45.202164460052565" lon="11.782744886620764"><ele>2.333333333333333</ele><time>2026-04-18T10:34:48.001Z</time></trkpt><trkpt lat="45.201976551853214" lon="11.782748435601947"><ele>2.0</ele><time>2026-04-18T10:34:49.001Z</time></trkpt><trkpt lat="45.2017801722565" lon="11.782772946036228"><ele>2.0</ele><time>2026-04-18T10:34:50.001Z</time></trkpt><trkpt lat="45.20161315130666" lon="11.782821971527245"><ele>2.0</ele><time>2026-04-18T10:34:51.001Z</time></trkpt><trkpt lat="45.20145965371439" lon="11.78287270667457"><ele>2.0</ele><time>2026-04-18T10:34:52.001Z</time></trkpt><trkpt lat="45.20132008053468" lon="11.782906558139462"><ele>1.75</ele><time>2026-04-18T10:34:53.001Z</time></trkpt><trkpt lat="45.20117936244106" lon="11.782927040251941"><ele>1.5</ele><time>2026-04-18T10:34:54.001Z</time></trkpt><trkpt lat="45.20105179786286" lon="11.782961530203165"><ele>1.25</ele><time>2026-04-18T10:34:55.001Z</time></trkpt><trkpt lat="45.200926198876985" lon="11.78299872612801"><ele>1.0</ele><time>2026-04-18T10:34:56.001Z</time></trkpt><trkpt lat="45.20081237700971" lon="11.783048309568109"><ele>1.0</ele><time>2026-04-18T10:34:57.001Z</time></trkpt><trkpt lat="45.200710250865946" lon="11.783082825443064"><ele>1.0</ele><time>2026-04-18T10:34:58.001Z</time></trkpt><trkpt lat="45.20058473061606" lon="11.78310132237316"><ele>1.0</ele><time>2026-04-18T10:34:59.001Z</time></trkpt><trkpt lat="45.200450461538914" lon="11.783147032852932"><ele>1.0</ele><time>2026-04-18T10:35:00.001Z</time></trkpt><trkpt lat="45.20031743564057" lon="11.78320292505683"><ele>1.5</ele><time>2026-04-18T10:35:01.001Z</time></trkpt><trkpt lat="45.200187130236586" lon="11.78328746900525"><ele>2.0</ele><time>2026-04-18T10:35:02.001Z</time></trkpt><trkpt lat="45.20008106070378" lon="11.783412488500687"><ele>2.5</ele><time>2026-04-18T10:35:03.001Z</time></trkpt><trkpt lat="45.19992061975766" lon="11.783436199108591"><ele>3.0</ele><time>2026-04-18T10:35:04.001Z</time></trkpt><trkpt lat="45.19978460675078" lon="11.783483326262967"><ele>3.0</ele><time>2026-04-18T10:35:05.001Z</time></trkpt><trkpt lat="45.19965380945487" lon="11.783550650486953"><ele>3.0</ele><time>2026-04-18T10:35:06.001Z</time></trkpt><trkpt lat="45.19952559617859" lon="11.783629015406358"><ele>3.0</ele><time>2026-04-18T10:35:07.001Z</time></trkpt><trkpt lat="45.19938291783378" lon="11.783688501405308"><ele>3.0</ele><time>2026-04-18T10:35:08.001Z</time></trkpt><trkpt lat="45.19923595066835" lon="11.783718912723844"><ele>3.0</ele><time>2026-04-18T10:35:09.001Z</time></trkpt><trkpt lat="45.19909512061064" lon="11.783700867825974"><ele>3.0</ele><time>2026-04-18T10:35:10.001Z</time></trkpt><trkpt lat="45.19898276682274" lon="11.783681057589321"><ele>3.0</ele><time>2026-04-18T10:35:11.001Z</time></trkpt><trkpt lat="45.19884786270127" lon="11.783635771651301"><ele>3.0</ele><time>2026-04-18T10:35:12.001Z</time></trkpt><trkpt lat="45.19873397360201" lon="11.783559698689668"><ele>3.25</ele><time>2026-04-18T10:35:13.001Z</time></trkpt><trkpt lat="45.198632553973574" lon="11.78346552914305"><ele>3.5</ele><time>2026-04-18T10:35:14.001Z</time></trkpt><trkpt lat="45.198553149663" lon="11.78333544884501"><ele>3.75</ele><time>2026-04-18T10:35:15.001Z</time></trkpt><trkpt lat="45.198486663105676" lon="11.783165099140058"><ele>4.0</ele><time>2026-04-18T10:35:16.001Z</time></trkpt><trkpt lat="45.19843977166058" lon="11.782980030955246"><ele>4.0</ele><time>2026-04-18T10:35:17.001Z</time></trkpt><trkpt lat="45.19839261832186" lon="11.782795520804198"><ele>4.0</ele><time>2026-04-18T10:35:18.001Z</time></trkpt><trkpt lat="45.19833591947046" lon="11.782655826252222"><ele>4.0</ele><time>2026-04-18T10:35:19.001Z</time></trkpt><trkpt lat="45.198255928150814" lon="11.78254629905561"><ele>4.0</ele><time>2026-04-18T10:35:20.001Z</time></trkpt><trkpt lat="45.198187565993386" lon="11.782448162290356"><ele>4.0</ele><time>2026-04-18T10:35:21.001Z</time></trkpt><trkpt lat="45.19812531178635" lon="11.782405650319019"><ele>4.0</ele><time>2026-04-18T10:35:23.001Z</time></trkpt><trkpt lat="45.19805144320109" lon="11.782345444710213"><ele>4.0</ele><time>2026-04-18T10:35:46Z</time></trkpt><trkpt lat="45.19798316899475" lon="11.782336255829332"><ele>4.0</ele><time>2026-04-18T10:35:47Z</time></trkpt><trkpt lat="45.19785331495947" lon="11.782307599368982"><ele>4.0</ele><time>2026-04-18T10:35:48Z</time></trkpt><trkpt lat="45.1977346873487" lon="11.78230400049873"><ele>4.0</ele><time>2026-04-18T10:35:49Z</time></trkpt><trkpt lat="45.19760038524743" lon="11.782323574266751"><ele>4.0</ele><time>2026-04-18T10:35:50Z</time></trkpt><trkpt lat="45.197457484775384" lon="11.782357750113471"><ele>4.0</ele><time>2026-04-18T10:35:51Z</time></trkpt><trkpt lat="45.19731187234263" lon="11.782403209616234"><ele>4.0</ele><time>2026-04-18T10:35:52Z</time></trkpt><trkpt lat="45.19715190291991" lon="11.782482643183481"><ele>3.6666666666666665</ele><time>2026-04-18T10:35:53Z</time></trkpt><trkpt lat="45.197009266986065" lon="11.78257122819243"><ele>3.333333333333333</ele><time>2026-04-18T10:35:54Z</time></trkpt><trkpt lat="45.19686551527903" lon="11.782663517205727"><ele>3.0</ele><time>2026-04-18T10:35:55Z</time></trkpt><trkpt lat="45.19669405918373" lon="11.782770611925908"><ele>3.0</ele><time>2026-04-18T10:35:56Z</time></trkpt><trkpt lat="45.19651008403239" lon="11.782875703895153"><ele>3.0</ele><time>2026-04-18T10:35:57Z</time></trkpt><trkpt lat="45.19633721462264" lon="11.782978255574564"><ele>3.0</ele><time>2026-04-18T10:35:58Z</time></trkpt><trkpt lat="45.19618195305253" lon="11.783046784136006"><ele>2.75</ele><time>2026-04-18T10:35:59Z</time></trkpt><trkpt lat="45.1960350748857" lon="11.78309892012555"><ele>2.5</ele><time>2026-04-18T10:36:00Z</time></trkpt><trkpt lat="45.195908670806034" lon="11.78315635523963"><ele>2.25</ele><time>2026-04-18T10:36:01Z</time></trkpt><trkpt lat="45.19578845407258" lon="11.78320726580132"><ele>2.0</ele><time>2026-04-18T10:36:02Z</time></trkpt><trkpt lat="45.19565987961085" lon="11.783219319031572"><ele>2.0</ele><time>2026-04-18T10:36:03Z</time></trkpt><trkpt lat="45.19553522340799" lon="11.783167853289914"><ele>2.0</ele><time>2026-04-18T10:36:04Z</time></trkpt><trkpt lat="45.19545503039265" lon="11.78302946396925"><ele>2.0</ele><time>2026-04-18T10:36:05Z</time></trkpt><trkpt lat="45.19534195884207" lon="11.782886427656267"><ele>2.0</ele><time>2026-04-18T10:36:06Z</time></trkpt><trkpt lat="45.19522866212849" lon="11.782695939581725"><ele>2.333333333333333</ele><time>2026-04-18T10:36:07Z</time></trkpt><trkpt lat="45.19509733564483" lon="11.782528943210332"><ele>2.6666666666666665</ele><time>2026-04-18T10:36:08Z</time></trkpt><trkpt lat="45.19497594506713" lon="11.782417314909326"><ele>3.0</ele><time>2026-04-18T10:36:09Z</time></trkpt><trkpt lat="45.194853161601976" lon="11.782336685143994"><ele>3.0</ele><time>2026-04-18T10:36:10Z</time></trkpt><trkpt lat="45.1947358488073" lon="11.7822886897878"><ele>3.0</ele><time>2026-04-18T10:36:11Z</time></trkpt><trkpt lat="45.19464291203799" lon="11.78228329577957"><ele>3.0</ele><time>2026-04-18T10:36:12Z</time></trkpt><trkpt lat="45.194578574985805" lon="11.782307862667983"><ele>3.0</ele><time>2026-04-18T10:36:13Z</time></trkpt><trkpt lat="45.194516674128145" lon="11.782344244455762"><ele>3.0</ele><time>2026-04-18T10:36:14Z</time></trkpt><trkpt lat="45.1944190192339" lon="11.78241520417136"><ele>3.0</ele><time>2026-04-18T10:36:16Z</time></trkpt><trkpt lat="45.19432979897308" lon="11.782473673600808"><ele>3.0</ele><time>2026-04-18T10:36:18Z</time></trkpt><trkpt lat="45.194244945831365" lon="11.7825258004142"><ele>3.0</ele><time>2026-04-18T10:36:20Z</time></trkpt><trkpt lat="45.19416499950405" lon="11.782574295539069"><ele>3.0</ele><time>2026-04-18T10:36:22Z</time></trkpt><trkpt lat="45.19409667126655" lon="11.78262502865233"><ele>3.0</ele><time>2026-04-18T10:36:24Z</time></trkpt><trkpt lat="45.19403580337358" lon="11.782667675715993"><ele>3.0</ele><time>2026-04-18T10:36:26Z</time></trkpt><trkpt lat="45.19395359175677" lon="11.782726731588252"><ele>2.8333333333333335</ele><time>2026-04-18T10:36:29.001Z</time></trkpt><trkpt lat="45.19388697437679" lon="11.782769553070775"><ele>2.6666666666666665</ele><time>2026-04-18T10:36:32.001Z</time></trkpt><trkpt lat="45.19380882188128" lon="11.782839973652168"><ele>2.5</ele><time>2026-04-18T10:36:34.001Z</time></trkpt><trkpt lat="45.193732955493786" lon="11.78291779560507"><ele>2.333333333333333</ele><time>2026-04-18T10:36:36.001Z</time></trkpt><trkpt lat="45.19367156317911" lon="11.782982048332514"><ele>2.1666666666666665</ele><time>2026-04-18T10:36:38.001Z</time></trkpt><trkpt lat="45.19359403784669" lon="11.783057561927293"><ele>2.0</ele><time>2026-04-18T10:36:41.001Z</time></trkpt><trkpt lat="45.193540390790695" lon="11.783111916264348"><ele>1.9999999999999998</ele><time>2026-04-18T10:36:44.001Z</time></trkpt><trkpt lat="45.19349092100978" lon="11.78318707802853"><ele>2.0</ele><time>2026-04-18T10:37:10.001Z</time></trkpt><trkpt lat="45.19342045161239" lon="11.783269387745744"><ele>2.0</ele><time>2026-04-18T10:37:12.001Z</time></trkpt><trkpt lat="45.1933251934434" lon="11.78337877282553"><ele>2.0</ele><time>2026-04-18T10:37:14.001Z</time></trkpt><trkpt lat="45.193268712386896" lon="11.783438443788796"><ele>1.9999999999999998</ele><time>2026-04-18T10:37:15.001Z</time></trkpt><trkpt lat="45.19320922933544" lon="11.783500083497238"><ele>2.0</ele><time>2026-04-18T10:37:16.001Z</time></trkpt><trkpt lat="45.19314496252615" lon="11.783567424788153"><ele>2.0</ele><time>2026-04-18T10:37:17.001Z</time></trkpt><trkpt lat="45.19307051183948" lon="11.783617006188427"><ele>2.0</ele><time>2026-04-18T10:37:18.001Z</time></trkpt><trkpt lat="45.19299467646821" lon="11.78371952908863"><ele>2.0</ele><time>2026-04-18T10:37:19.001Z</time></trkpt><trkpt lat="45.19289303306078" lon="11.783813537922923"><ele>2.0</ele><time>2026-04-18T10:37:20.001Z</time></trkpt><trkpt lat="45.19279334664194" lon="11.783911966146517"><ele>2.0</ele><time>2026-04-18T10:37:21.001Z</time></trkpt><trkpt lat="45.192688293641915" lon="11.784022094243715"><ele>2.0</ele><time>2026-04-18T10:37:22.001Z</time></trkpt><trkpt lat="45.19257810172899" lon="11.784134883010003"><ele>2.0</ele><time>2026-04-18T10:37:23.001Z</time></trkpt><trkpt lat="45.192462823112514" lon="11.784251043908974"><ele>2.0</ele><time>2026-04-18T10:37:24.001Z</time></trkpt><trkpt lat="45.192353683113616" lon="11.78436581105021"><ele>2.0</ele><time>2026-04-18T10:37:25.001Z</time></trkpt><trkpt lat="45.19224331861844" lon="11.78447355601455"><ele>2.2</ele><time>2026-04-18T10:37:26.001Z</time></trkpt><trkpt lat="45.19214243470428" lon="11.784575286895237"><ele>2.4000000000000004</ele><time>2026-04-18T10:37:27.001Z</time></trkpt><trkpt lat="45.1920525982667" lon="11.78467548068956"><ele>2.5999999999999996</ele><time>2026-04-18T10:37:28.001Z</time></trkpt><trkpt lat="45.19197745353071" lon="11.784771155498197"><ele>2.8</ele><time>2026-04-18T10:37:29.001Z</time></trkpt><trkpt lat="45.191900264004126" lon="11.784858221192339"><ele>3.0</ele><time>2026-04-18T10:37:30.001Z</time></trkpt><trkpt lat="45.191849732725714" lon="11.784975863368215"><ele>3.0</ele><time>2026-04-18T10:37:31.001Z</time></trkpt><trkpt lat="45.19180999122793" lon="11.785109867680388"><ele>3.0</ele><time>2026-04-18T10:37:32.001Z</time></trkpt><trkpt lat="45.191754483271204" lon="11.78525242258967"><ele>3.0</ele><time>2026-04-18T10:37:33.001Z</time></trkpt><trkpt lat="45.19173893426215" lon="11.785430678585731"><ele>3.0</ele><time>2026-04-18T10:37:34.001Z</time></trkpt><trkpt lat="45.19172688777224" lon="11.785618400697759"><ele>3.0</ele><time>2026-04-18T10:37:35.001Z</time></trkpt><trkpt lat="45.19172100130389" lon="11.785785424659812"><ele>3.0</ele><time>2026-04-18T10:37:36.001Z</time></trkpt><trkpt lat="45.19171594114696" lon="11.785931963221053"><ele>3.0</ele><time>2026-04-18T10:37:37.001Z</time></trkpt><trkpt lat="45.1917013986019" lon="11.78607029351531"><ele>3.0</ele><time>2026-04-18T10:37:38.001Z</time></trkpt><trkpt lat="45.19168714723622" lon="11.78621447556455"><ele>3.0</ele><time>2026-04-18T10:37:39.001Z</time></trkpt><trkpt lat="45.19167219840037" lon="11.786363545271632"><ele>3.0</ele><time>2026-04-18T10:37:40Z</time></trkpt><trkpt lat="45.19163952852015" lon="11.786516876852932"><ele>3.0</ele><time>2026-04-18T10:37:41Z</time></trkpt><trkpt lat="45.19159679005401" lon="11.786654815396814"><ele>3.0</ele><time>2026-04-18T10:37:42Z</time></trkpt><trkpt lat="45.1915468379761" lon="11.786767727177"><ele>3.0</ele><time>2026-04-18T10:37:43Z</time></trkpt><trkpt lat="45.1914744037348" lon="11.786847149176875"><ele>3.0</ele><time>2026-04-18T10:37:44Z</time></trkpt><trkpt lat="45.19140647385214" lon="11.786942555141366"><ele>3.0</ele><time>2026-04-18T10:37:45Z</time></trkpt><trkpt lat="45.191335530488004" lon="11.787037401537104"><ele>3.0</ele><time>2026-04-18T10:37:46Z</time></trkpt><trkpt lat="45.191276262794524" lon="11.787158408679023"><ele>3.0</ele><time>2026-04-18T10:37:47Z</time></trkpt><trkpt lat="45.19122379979464" lon="11.78728425480223"><ele>3.0</ele><time>2026-04-18T10:37:48Z</time></trkpt><trkpt lat="45.19119128548953" lon="11.78743070642863"><ele>3.0</ele><time>2026-04-18T10:37:49Z</time></trkpt><trkpt lat="45.19117324785564" lon="11.787606484832862"><ele>3.0</ele><time>2026-04-18T10:37:50Z</time></trkpt><trkpt lat="45.19116445925669" lon="11.787808615131055"><ele>3.0</ele><time>2026-04-18T10:37:51Z</time></trkpt><trkpt lat="45.19115274784697" lon="11.788024442605936"><ele>3.0</ele><time>2026-04-18T10:37:52Z</time></trkpt><trkpt lat="45.19113510599039" lon="11.788218238853547"><ele>3.0</ele><time>2026-04-18T10:37:53Z</time></trkpt><trkpt lat="45.1911179852553" lon="11.788416328921759"><ele>3.0</ele><time>2026-04-18T10:37:54Z</time></trkpt><trkpt lat="45.1911025020368" lon="11.788626840930938"><ele>3.0</ele><time>2026-04-18T10:37:55Z</time></trkpt><trkpt lat="45.191086681145194" lon="11.788818025996894"><ele>3.0</ele><time>2026-04-18T10:37:56Z</time></trkpt><trkpt lat="45.19107217396442" lon="11.788996143769586"><ele>3.0</ele><time>2026-04-18T10:37:57Z</time></trkpt><trkpt lat="45.191054657096565" lon="11.78913252267306"><ele>3.0</ele><time>2026-04-18T10:37:58Z</time></trkpt><trkpt lat="45.19102118139625" lon="11.789261534310581"><ele>3.0</ele><time>2026-04-18T10:37:59Z</time></trkpt><trkpt lat="45.190988792270645" lon="11.789386214237991"><ele>3.0</ele><time>2026-04-18T10:38:00Z</time></trkpt><trkpt lat="45.190958055749384" lon="11.78949778939242"><ele>3.0</ele><time>2026-04-18T10:38:02Z</time></trkpt><trkpt lat="45.1908225070874" lon="11.789559066907417"><ele>3.0</ele><time>2026-04-18T10:38:07Z</time></trkpt><trkpt lat="45.19070565878121" lon="11.789578377932228"><ele>3.0</ele><time>2026-04-18T10:38:09Z</time></trkpt><trkpt lat="45.19064065111585" lon="11.789613524185626"><ele>3.0</ele><time>2026-04-18T10:38:10Z</time></trkpt><trkpt lat="45.19056846485226" lon="11.789663532501288"><ele>3.0</ele><time>2026-04-18T10:38:11Z</time></trkpt><trkpt lat="45.190499489899004" lon="11.789737009071766"><ele>3.0</ele><time>2026-04-18T10:38:12Z</time></trkpt><trkpt lat="45.19043328787787" lon="11.789825405644814"><ele>3.0</ele><time>2026-04-18T10:38:13Z</time></trkpt><trkpt lat="45.19037446371393" lon="11.7899220462987"><ele>3.0</ele><time>2026-04-18T10:38:14Z</time></trkpt><trkpt lat="45.190306599905085" lon="11.790029497911675"><ele>3.0</ele><time>2026-04-18T10:38:15Z</time></trkpt><trkpt lat="45.19023236698147" lon="11.790142608019963"><ele>3.0</ele><time>2026-04-18T10:38:16Z</time></trkpt><trkpt lat="45.19014935316559" lon="11.790265405989159"><ele>3.0</ele><time>2026-04-18T10:38:17Z</time></trkpt><trkpt lat="45.19007400745037" lon="11.790375749036459"><ele>3.0</ele><time>2026-04-18T10:38:18Z</time></trkpt><trkpt lat="45.1899970895586" lon="11.790481682951839"><ele>3.0</ele><time>2026-04-18T10:38:19Z</time></trkpt><trkpt lat="45.189897548966655" lon="11.790565161172252"><ele>3.0</ele><time>2026-04-18T10:38:20Z</time></trkpt><trkpt lat="45.18979055914315" lon="11.790626191753857"><ele>3.0</ele><time>2026-04-18T10:38:21Z</time></trkpt><trkpt lat="45.189688189488834" lon="11.790660925099376"><ele>3.0</ele><time>2026-04-18T10:38:22Z</time></trkpt><trkpt lat="45.189552415725345" lon="11.790679374214513"><ele>3.0</ele><time>2026-04-18T10:38:23Z</time></trkpt><trkpt lat="45.18942266951649" lon="11.790675337121419"><ele>3.0</ele><time>2026-04-18T10:38:24Z</time></trkpt><trkpt lat="45.18930021229904" lon="11.790672558442884"><ele>3.0</ele><time>2026-04-18T10:38:25Z</time></trkpt><trkpt lat="45.18918069484555" lon="11.79064716672216"><ele>3.0</ele><time>2026-04-18T10:38:26Z</time></trkpt><trkpt lat="45.18905286103121" lon="11.790598130394015"><ele>3.0</ele><time>2026-04-18T10:38:27Z</time></trkpt><trkpt lat="45.18892442704883" lon="11.790532757659959"><ele>3.333333333333333</ele><time>2026-04-18T10:38:28Z</time></trkpt><trkpt lat="45.18878616112192" lon="11.790464702987363"><ele>3.6666666666666665</ele><time>2026-04-18T10:38:29Z</time></trkpt><trkpt lat="45.18864082087844" lon="11.790405814961238"><ele>4.0</ele><time>2026-04-18T10:38:30Z</time></trkpt><trkpt lat="45.188493477798616" lon="11.790334960973677"><ele>4.0</ele><time>2026-04-18T10:38:31Z</time></trkpt><trkpt lat="45.18833873047346" lon="11.790260079605252"><ele>4.0</ele><time>2026-04-18T10:38:32Z</time></trkpt><trkpt lat="45.18818383253204" lon="11.790189483370394"><ele>4.0</ele><time>2026-04-18T10:38:33Z</time></trkpt><trkpt lat="45.18802865075424" lon="11.790118240242709"><ele>4.333333333333333</ele><time>2026-04-18T10:38:34Z</time></trkpt><trkpt lat="45.187867705301514" lon="11.790060443866489"><ele>4.666666666666667</ele><time>2026-04-18T10:38:35Z</time></trkpt><trkpt lat="45.18769748728627" lon="11.78997404911656"><ele>5.0</ele><time>2026-04-18T10:38:36Z</time></trkpt><trkpt lat="45.18752404510765" lon="11.789898279840314"><ele>5.0</ele><time>2026-04-18T10:38:37Z</time></trkpt><trkpt lat="45.18734794470959" lon="11.789811703965137"><ele>5.0</ele><time>2026-04-18T10:38:38Z</time></trkpt><trkpt lat="45.187173035859665" lon="11.78973364630362"><ele>5.0</ele><time>2026-04-18T10:38:39Z</time></trkpt><trkpt lat="45.18700255226975" lon="11.789651508796958"><ele>4.666666666666667</ele><time>2026-04-18T10:38:40Z</time></trkpt><trkpt lat="45.18682957233805" lon="11.789574536059604"><ele>4.333333333333333</ele><time>2026-04-18T10:38:41Z</time></trkpt><trkpt lat="45.18665585112788" lon="11.789495075962673"><ele>4.0</ele><time>2026-04-18T10:38:42Z</time></trkpt><trkpt lat="45.186490944774555" lon="11.789417279107472"><ele>4.0</ele><time>2026-04-18T10:38:43Z</time></trkpt><trkpt lat="45.18633867050087" lon="11.789345044910577"><ele>4.0</ele><time>2026-04-18T10:38:44Z</time></trkpt><trkpt lat="45.18619453776676" lon="11.789275530654727"><ele>4.0</ele><time>2026-04-18T10:38:45Z</time></trkpt><trkpt lat="45.186057446864034" lon="11.789216502519277"><ele>4.0</ele><time>2026-04-18T10:38:46.001Z</time></trkpt><trkpt lat="45.185917432034564" lon="11.789169315509415"><ele>4.0</ele><time>2026-04-18T10:38:47.001Z</time></trkpt><trkpt lat="45.18576297815335" lon="11.789142423402637"><ele>4.0</ele><time>2026-04-18T10:38:48.001Z</time></trkpt><trkpt lat="45.18559606573402" lon="11.789134380041581"><ele>4.0</ele><time>2026-04-18T10:38:49.001Z</time></trkpt><trkpt lat="45.18542339180973" lon="11.789148524668873"><ele>4.0</ele><time>2026-04-18T10:38:50.001Z</time></trkpt><trkpt lat="45.18523362594596" lon="11.789176525298219"><ele>4.0</ele><time>2026-04-18T10:38:51.001Z</time></trkpt><trkpt lat="45.18501779234178" lon="11.789195468436306"><ele>3.5</ele><time>2026-04-18T10:38:52.001Z</time></trkpt><trkpt lat="45.184788166910515" lon="11.789213836777066"><ele>3.0</ele><time>2026-04-18T10:38:53.001Z</time></trkpt><trkpt lat="45.1845539083093" lon="11.789231288933456"><ele>3.0</ele><time>2026-04-18T10:38:54.001Z</time></trkpt><trkpt lat="45.18430027716367" lon="11.789255114358914"><ele>3.0</ele><time>2026-04-18T10:38:55.001Z</time></trkpt><trkpt lat="45.18404049676798" lon="11.789270843932151"><ele>2.6666666666666665</ele><time>2026-04-18T10:38:56.001Z</time></trkpt><trkpt lat="45.18380318159474" lon="11.789279945472593"><ele>2.333333333333333</ele><time>2026-04-18T10:38:57.001Z</time></trkpt><trkpt lat="45.183591126905256" lon="11.78928389391912"><ele>2.0</ele><time>2026-04-18T10:38:58.001Z</time></trkpt><trkpt lat="45.183396889495754" lon="11.789287699583902"><ele>2.0</ele><time>2026-04-18T10:38:59.001Z</time></trkpt><trkpt lat="45.18322866512309" lon="11.789284292441735"><ele>2.0</ele><time>2026-04-18T10:39:00.001Z</time></trkpt><trkpt lat="45.18308263590813" lon="11.789244275485766"><ele>2.0</ele><time>2026-04-18T10:39:01.001Z</time></trkpt><trkpt lat="45.182970229124464" lon="11.789117273600544"><ele>2.0</ele><time>2026-04-18T10:39:02.001Z</time></trkpt><trkpt lat="45.182849603144504" lon="11.789004325849206"><ele>2.0</ele><time>2026-04-18T10:39:03.001Z</time></trkpt><trkpt lat="45.182711126531686" lon="11.788893977654439"><ele>2.0</ele><time>2026-04-18T10:39:04.001Z</time></trkpt><trkpt lat="45.182578828297665" lon="11.788740902281141"><ele>2.0</ele><time>2026-04-18T10:39:05.001Z</time></trkpt><trkpt lat="45.182426724952734" lon="11.788590588962158"><ele>2.0</ele><time>2026-04-18T10:39:06.001Z</time></trkpt><trkpt lat="45.18226031997924" lon="11.788431392034008"><ele>2.0</ele><time>2026-04-18T10:39:07.001Z</time></trkpt><trkpt lat="45.18208214903112" lon="11.788262000740163"><ele>2.6666666666666665</ele><time>2026-04-18T10:39:08.001Z</time></trkpt><trkpt lat="45.18189986113666" lon="11.788084080568312"><ele>3.333333333333333</ele><time>2026-04-18T10:39:09.001Z</time></trkpt><trkpt lat="45.1817145938463" lon="11.787902485441801"><ele>4.0</ele><time>2026-04-18T10:39:10.001Z</time></trkpt><trkpt lat="45.18151711509912" lon="11.787714101535931"><ele>3.6666666666666665</ele><time>2026-04-18T10:39:11.001Z</time></trkpt><trkpt lat="45.18132595922092" lon="11.78752922294997"><ele>3.333333333333333</ele><time>2026-04-18T10:39:12.001Z</time></trkpt><trkpt lat="45.181151275723046" lon="11.787363128492634"><ele>3.0</ele><time>2026-04-18T10:39:13.001Z</time></trkpt><trkpt lat="45.18098432413393" lon="11.78721321969835"><ele>3.0</ele><time>2026-04-18T10:39:14.001Z</time></trkpt><trkpt lat="45.18083783339622" lon="11.787061508307383"><ele>3.0</ele><time>2026-04-18T10:39:15.001Z</time></trkpt><trkpt lat="45.18070214302224" lon="11.78692593073458"><ele>3.0</ele><time>2026-04-18T10:39:16.001Z</time></trkpt><trkpt lat="45.18058527578962" lon="11.78680949757005"><ele>3.75</ele><time>2026-04-18T10:39:17.001Z</time></trkpt><trkpt lat="45.18047894426993" lon="11.786709963424874"><ele>4.5</ele><time>2026-04-18T10:39:18.001Z</time></trkpt><trkpt lat="45.18037862865191" lon="11.78661302367809"><ele>5.25</ele><time>2026-04-18T10:39:19.001Z</time></trkpt><trkpt lat="45.18028154121098" lon="11.786533207018993"><ele>6.0</ele><time>2026-04-18T10:39:20.001Z</time></trkpt><trkpt lat="45.18019090420986" lon="11.786479263346761"><ele>6.0</ele><time>2026-04-18T10:39:21.001Z</time></trkpt><trkpt lat="45.18011215727903" lon="11.786457743193667"><ele>6.0</ele><time>2026-04-18T10:39:22.001Z</time></trkpt><trkpt lat="45.18004047307974" lon="11.78647042207389"><ele>6.0</ele><time>2026-04-18T10:39:23.001Z</time></trkpt><trkpt lat="45.17997409007288" lon="11.7865174207073"><ele>6.0</ele><time>2026-04-18T10:39:24.001Z</time></trkpt><trkpt lat="45.17990597886472" lon="11.78660120945346"><ele>6.0</ele><time>2026-04-18T10:39:25.001Z</time></trkpt><trkpt lat="45.179834895783856" lon="11.786720512489989"><ele>6.0</ele><time>2026-04-18T10:39:26.001Z</time></trkpt><trkpt lat="45.1797620901323" lon="11.786857261706164"><ele>5.75</ele><time>2026-04-18T10:39:27.001Z</time></trkpt><trkpt lat="45.17968287178952" lon="11.787009649089736"><ele>5.5</ele><time>2026-04-18T10:39:28.001Z</time></trkpt><trkpt lat="45.17960162976077" lon="11.787151062372295"><ele>5.25</ele><time>2026-04-18T10:39:29.001Z</time></trkpt><trkpt lat="45.17954010407713" lon="11.78728651147345"><ele>5.0</ele><time>2026-04-18T10:39:30.001Z</time></trkpt><trkpt lat="45.17947980637775" lon="11.787400905832651"><ele>5.0</ele><time>2026-04-18T10:39:31.001Z</time></trkpt><trkpt lat="45.17941108131918" lon="11.78748353907736"><ele>5.0</ele><time>2026-04-18T10:39:32.001Z</time></trkpt><trkpt lat="45.179360873334105" lon="11.78757071886691"><ele>5.0</ele><time>2026-04-18T10:39:33.001Z</time></trkpt><trkpt lat="45.17920512507468" lon="11.78749416291301"><ele>5.0</ele><time>2026-04-18T10:39:34.001Z</time></trkpt><trkpt lat="45.1790737465666" lon="11.787495943931168"><ele>4.0</ele><time>2026-04-18T10:39:35.001Z</time></trkpt><trkpt lat="45.17890348538953" lon="11.78751721072834"><ele>3.0</ele><time>2026-04-18T10:39:36.001Z</time></trkpt><trkpt lat="45.178705309280545" lon="11.78751460599743"><ele>2.0</ele><time>2026-04-18T10:39:37.001Z</time></trkpt><trkpt lat="45.178513912465135" lon="11.787518116044856"><ele>2.0</ele><time>2026-04-18T10:39:38.001Z</time></trkpt><trkpt lat="45.17835788170728" lon="11.787515282440664"><ele>2.0</ele><time>2026-04-18T10:39:39.001Z</time></trkpt><trkpt lat="45.178224173463825" lon="11.787513744625585"><ele>2.0</ele><time>2026-04-18T10:39:40.001Z</time></trkpt><trkpt lat="45.17810282902246" lon="11.787517197277012"><ele>2.0</ele><time>2026-04-18T10:39:41.001Z</time></trkpt><trkpt lat="45.17800251209433" lon="11.787524846324143"><ele>1.857142857142857</ele><time>2026-04-18T10:39:42.001Z</time></trkpt><trkpt lat="45.177930849206376" lon="11.787519102731807"><ele>1.714285714285714</ele><time>2026-04-18T10:39:43.001Z</time></trkpt><trkpt lat="45.17785954148664" lon="11.787527776309485"><ele>1.5714285714285714</ele><time>2026-04-18T10:39:44.001Z</time></trkpt><trkpt lat="45.17778484908258" lon="11.787530210852799"><ele>1.4285714285714284</ele><time>2026-04-18T10:39:46.001Z</time></trkpt><trkpt lat="45.177713587537966" lon="11.787536162252632"><ele>1.2857142857142856</ele><time>2026-04-18T10:40:14Z</time></trkpt><trkpt lat="45.17764954266925" lon="11.787540213591475"><ele>1.1428571428571428</ele><time>2026-04-18T10:40:15Z</time></trkpt><trkpt lat="45.17756352986764" lon="11.787541713314859"><ele>1.0</ele><time>2026-04-18T10:40:16Z</time></trkpt><trkpt lat="45.17746169931546" lon="11.787551309313159"><ele>1.0</ele><time>2026-04-18T10:40:17Z</time></trkpt><trkpt lat="45.1773594287344" lon="11.787558961017682"><ele>1.0</ele><time>2026-04-18T10:40:18Z</time></trkpt><trkpt lat="45.177229900755094" lon="11.7875601911968"><ele>1.0</ele><time>2026-04-18T10:40:19Z</time></trkpt><trkpt lat="45.17708163052724" lon="11.78756253233316"><ele>1.0</ele><time>2026-04-18T10:40:20Z</time></trkpt><trkpt lat="45.17693422977519" lon="11.78756573472461"><ele>1.0</ele><time>2026-04-18T10:40:21Z</time></trkpt><trkpt lat="45.17678547920174" lon="11.787573304089111"><ele>1.0</ele><time>2026-04-18T10:40:22Z</time></trkpt><trkpt lat="45.17660453957786" lon="11.787587149825455"><ele>1.0</ele><time>2026-04-18T10:40:23Z</time></trkpt><trkpt lat="45.1763872174027" lon="11.7875945891394"><ele>1.0</ele><time>2026-04-18T10:40:24Z</time></trkpt><trkpt lat="45.176153206303454" lon="11.787600513874803"><ele>1.0</ele><time>2026-04-18T10:40:25Z</time></trkpt><trkpt lat="45.17592813948879" lon="11.787606596687713"><ele>1.0</ele><time>2026-04-18T10:40:26Z</time></trkpt><trkpt lat="45.17568117913148" lon="11.787614106241907"><ele>1.0</ele><time>2026-04-18T10:40:27Z</time></trkpt><trkpt lat="45.17540068553665" lon="11.787628278919154"><ele>1.0</ele><time>2026-04-18T10:40:28Z</time></trkpt><trkpt lat="45.17512204510247" lon="11.787637648231469"><ele>1.0</ele><time>2026-04-18T10:40:29Z</time></trkpt><trkpt lat="45.17485329231337" lon="11.787648554124058"><ele>2.0</ele><time>2026-04-18T10:40:30Z</time></trkpt><trkpt lat="45.174609611087874" lon="11.787657911669253"><ele>3.0</ele><time>2026-04-18T10:40:31Z</time></trkpt><trkpt lat="45.17438373492544" lon="11.78766563032191"><ele>3.0</ele><time>2026-04-18T10:40:32Z</time></trkpt><trkpt lat="45.1741702046361" lon="11.787669883536644"><ele>3.0</ele><time>2026-04-18T10:40:33Z</time></trkpt><trkpt lat="45.17395620286666" lon="11.787676557858664"><ele>3.0</ele><time>2026-04-18T10:40:34Z</time></trkpt><trkpt lat="45.17373553419379" lon="11.78768638700183"><ele>2.0</ele><time>2026-04-18T10:40:35Z</time></trkpt><trkpt lat="45.173498858409445" lon="11.787696392239315"><ele>1.0</ele><time>2026-04-18T10:40:36Z</time></trkpt><trkpt lat="45.17323290283447" lon="11.78770701110479"><ele>1.5</ele><time>2026-04-18T10:40:37Z</time></trkpt><trkpt lat="45.17294612089737" lon="11.78771815339064"><ele>2.0</ele><time>2026-04-18T10:40:38.001Z</time></trkpt><trkpt lat="45.17265532045953" lon="11.787732709284764"><ele>2.0</ele><time>2026-04-18T10:40:39.001Z</time></trkpt><trkpt lat="45.172361480760294" lon="11.787743093811704"><ele>2.0</ele><time>2026-04-18T10:40:40.001Z</time></trkpt><trkpt lat="45.172055458729275" lon="11.787760087876995"><ele>1.5</ele><time>2026-04-18T10:40:41.001Z</time></trkpt><trkpt lat="45.17175808549299" lon="11.787766034269744"><ele>1.0</ele><time>2026-04-18T10:40:42.001Z</time></trkpt><trkpt lat="45.17146729540462" lon="11.787775750290491"><ele>1.0</ele><time>2026-04-18T10:40:43.001Z</time></trkpt><trkpt lat="45.1711921209223" lon="11.787783795825083"><ele>1.0</ele><time>2026-04-18T10:40:44.001Z</time></trkpt><trkpt lat="45.170940996368145" lon="11.787793302688792"><ele>1.0</ele><time>2026-04-18T10:40:45.001Z</time></trkpt><trkpt lat="45.17071024794215" lon="11.787796572956452"><ele>1.0</ele><time>2026-04-18T10:40:46.001Z</time></trkpt><trkpt lat="45.17046448162584" lon="11.787808937441985"><ele>1.5</ele><time>2026-04-18T10:40:47.001Z</time></trkpt><trkpt lat="45.170214649363395" lon="11.787820179908232"><ele>2.0</ele><time>2026-04-18T10:40:48.001Z</time></trkpt><trkpt lat="45.169957492824956" lon="11.787830205066637"><ele>2.0</ele><time>2026-04-18T10:40:49.001Z</time></trkpt><trkpt lat="45.16969756659825" lon="11.787838257505623"><ele>2.0</ele><time>2026-04-18T10:40:50.001Z</time></trkpt><trkpt lat="45.169456321633476" lon="11.787846864839809"><ele>2.0</ele><time>2026-04-18T10:40:51.001Z</time></trkpt><trkpt lat="45.16923409197331" lon="11.787855339971237"><ele>2.0</ele><time>2026-04-18T10:40:52.001Z</time></trkpt><trkpt lat="45.1690195741929" lon="11.787859809315593"><ele>2.0</ele><time>2026-04-18T10:40:53.001Z</time></trkpt><trkpt lat="45.16879673558945" lon="11.787869058320837"><ele>1.5</ele><time>2026-04-18T10:40:54.001Z</time></trkpt><trkpt lat="45.168562908507425" lon="11.787881647641225"><ele>1.0</ele><time>2026-04-18T10:40:55.001Z</time></trkpt><trkpt lat="45.16832293310614" lon="11.787886474044505"><ele>0.5</ele><time>2026-04-18T10:40:56.001Z</time></trkpt><trkpt lat="45.168067520524865" lon="11.787898185277278"><ele>0.0</ele><time>2026-04-18T10:40:57.001Z</time></trkpt><trkpt lat="45.1677982351989" lon="11.78790828582245"><ele>0.0</ele><time>2026-04-18T10:40:58.001Z</time></trkpt><trkpt lat="45.16753517634689" lon="11.787926749201013"><ele>0.0</ele><time>2026-04-18T10:40:59.001Z</time></trkpt><trkpt lat="45.1672776428136" lon="11.787926227506349"><ele>0.0</ele><time>2026-04-18T10:41:00.001Z</time></trkpt><trkpt lat="45.16702438358461" lon="11.787938947459471"><ele>0.0</ele><time>2026-04-18T10:41:01.001Z</time></trkpt><trkpt lat="45.16679822847396" lon="11.787942189423688"><ele>0.0</ele><time>2026-04-18T10:41:02.001Z</time></trkpt><trkpt lat="45.16658486407555" lon="11.787949405950096"><ele>0.0</ele><time>2026-04-18T10:41:03.001Z</time></trkpt><trkpt lat="45.166384845812594" lon="11.787953754517586"><ele>0.0</ele><time>2026-04-18T10:41:04.001Z</time></trkpt><trkpt lat="45.16618144296071" lon="11.787964357613996"><ele>0.0</ele><time>2026-04-18T10:41:05.001Z</time></trkpt><trkpt lat="45.16596932261821" lon="11.787970298045366"><ele>0.0</ele><time>2026-04-18T10:41:06.001Z</time></trkpt><trkpt lat="45.16574539337123" lon="11.787977476723832"><ele>0.0</ele><time>2026-04-18T10:41:07.001Z</time></trkpt><trkpt lat="45.165510453216" lon="11.787989446749465"><ele>0.5</ele><time>2026-04-18T10:41:08.001Z</time></trkpt><trkpt lat="45.165271558414446" lon="11.788005733406086"><ele>1.0</ele><time>2026-04-18T10:41:09.001Z</time></trkpt><trkpt lat="45.16504749536557" lon="11.788006200020412"><ele>1.3333333333333333</ele><time>2026-04-18T10:41:10.001Z</time></trkpt><trkpt lat="45.164842500101294" lon="11.78801581427386"><ele>1.6666666666666665</ele><time>2026-04-18T10:41:11.001Z</time></trkpt><trkpt lat="45.16465500899645" lon="11.788021222395978"><ele>2.0</ele><time>2026-04-18T10:41:12.001Z</time></trkpt><trkpt lat="45.16448469197915" lon="11.788028810512902"><ele>2.0</ele><time>2026-04-18T10:41:13.001Z</time></trkpt><trkpt lat="45.164317459752446" lon="11.788033208751246"><ele>2.0</ele><time>2026-04-18T10:41:14.001Z</time></trkpt><trkpt lat="45.164159615383646" lon="11.788033805637038"><ele>2.0</ele><time>2026-04-18T10:41:15.001Z</time></trkpt><trkpt lat="45.16401050363115" lon="11.788036201083736"><ele>2.0</ele><time>2026-04-18T10:41:16.001Z</time></trkpt><trkpt lat="45.16386825772163" lon="11.78803992219653"><ele>2.0</ele><time>2026-04-18T10:41:17.001Z</time></trkpt><trkpt lat="45.163743101144924" lon="11.788049263062275"><ele>2.0</ele><time>2026-04-18T10:41:18.001Z</time></trkpt><trkpt lat="45.163636341980286" lon="11.788056236449483"><ele>2.0</ele><time>2026-04-18T10:41:19.001Z</time></trkpt><trkpt lat="45.16354975152476" lon="11.788060227730803"><ele>2.0</ele><time>2026-04-18T10:41:20.001Z</time></trkpt><trkpt lat="45.16347776708176" lon="11.788063043388602"><ele>2.0</ele><time>2026-04-18T10:41:21.001Z</time></trkpt><trkpt lat="45.163396068808034" lon="11.788076350872842"><ele>2.0</ele><time>2026-04-18T10:41:22.001Z</time></trkpt><trkpt lat="45.16329524077365" lon="11.788037454338259"><ele>2.0</ele><time>2026-04-18T10:41:23.001Z</time></trkpt><trkpt lat="45.16317359775775" lon="11.787985299229451"><ele>2.0</ele><time>2026-04-18T10:41:24.001Z</time></trkpt><trkpt lat="45.16304162730637" lon="11.787942666174349"><ele>2.0</ele><time>2026-04-18T10:41:25.001Z</time></trkpt><trkpt lat="45.16292378594499" lon="11.787899638371359"><ele>2.0</ele><time>2026-04-18T10:41:26.001Z</time></trkpt><trkpt lat="45.162791454324605" lon="11.787854838819197"><ele>2.0</ele><time>2026-04-18T10:41:27.001Z</time></trkpt><trkpt lat="45.162660156326815" lon="11.787820376669814"><ele>2.0</ele><time>2026-04-18T10:41:28.001Z</time></trkpt><trkpt lat="45.16253187812514" lon="11.787785245299844"><ele>2.0</ele><time>2026-04-18T10:41:29.001Z</time></trkpt><trkpt lat="45.16239976141936" lon="11.78774199403792"><ele>2.0</ele><time>2026-04-18T10:41:30.001Z</time></trkpt><trkpt lat="45.16226490373694" lon="11.787702146664614"><ele>2.0</ele><time>2026-04-18T10:41:31.001Z</time></trkpt><trkpt lat="45.16213160040082" lon="11.787661887354146"><ele>2.0</ele><time>2026-04-18T10:41:32.001Z</time></trkpt><trkpt lat="45.16199651360094" lon="11.787616774773154"><ele>2.333333333333333</ele><time>2026-04-18T10:41:33.001Z</time></trkpt><trkpt lat="45.161851083536085" lon="11.787569520913156"><ele>2.6666666666666665</ele><time>2026-04-18T10:41:34.001Z</time></trkpt><trkpt lat="45.16170673072262" lon="11.787524397564688"><ele>3.0</ele><time>2026-04-18T10:41:35.001Z</time></trkpt><trkpt lat="45.16155462049489" lon="11.78748170440793"><ele>3.0</ele><time>2026-04-18T10:41:36.001Z</time></trkpt><trkpt lat="45.161390264029144" lon="11.787427721674026"><ele>3.0</ele><time>2026-04-18T10:41:37.001Z</time></trkpt><trkpt lat="45.16123880593632" lon="11.787374037359225"><ele>3.0</ele><time>2026-04-18T10:41:38.001Z</time></trkpt><trkpt lat="45.16110006758694" lon="11.787331132514847"><ele>3.0</ele><time>2026-04-18T10:41:39.001Z</time></trkpt><trkpt lat="45.1609735453667" lon="11.787296818446006"><ele>3.0</ele><time>2026-04-18T10:41:40.001Z</time></trkpt><trkpt lat="45.160848899718644" lon="11.787269534818462"><ele>3.0</ele><time>2026-04-18T10:41:41.001Z</time></trkpt><trkpt lat="45.160706869616064" lon="11.787263265770665"><ele>3.0</ele><time>2026-04-18T10:41:42.001Z</time></trkpt><trkpt lat="45.16054290065244" lon="11.78729585120647"><ele>2.0</ele><time>2026-04-18T10:41:43.001Z</time></trkpt><trkpt lat="45.160351034111905" lon="11.78731750325191"><ele>1.0</ele><time>2026-04-18T10:41:44.001Z</time></trkpt><trkpt lat="45.160180872810315" lon="11.787331331426225"><ele>0.0</ele><time>2026-04-18T10:41:45.001Z</time></trkpt><trkpt lat="45.159950972756164" lon="11.787392542700637"><ele>0.5</ele><time>2026-04-18T10:41:46.001Z</time></trkpt><trkpt lat="45.15970645210892" lon="11.787454268136639"><ele>1.0</ele><time>2026-04-18T10:41:47.001Z</time></trkpt><trkpt lat="45.15946452842652" lon="11.787512317119829"><ele>1.0</ele><time>2026-04-18T10:41:48.001Z</time></trkpt><trkpt lat="45.159209275403256" lon="11.787573430233252"><ele>1.0</ele><time>2026-04-18T10:41:49.001Z</time></trkpt><trkpt lat="45.158969421413715" lon="11.787637431504374"><ele>1.5</ele><time>2026-04-18T10:41:50.001Z</time></trkpt><trkpt lat="45.158722826844276" lon="11.7876997329095"><ele>2.0</ele><time>2026-04-18T10:41:51.001Z</time></trkpt><trkpt lat="45.15847246316082" lon="11.78776640619766"><ele>2.0</ele><time>2026-04-18T10:41:52.001Z</time></trkpt><trkpt lat="45.15822104736445" lon="11.787832070946223"><ele>2.0</ele><time>2026-04-18T10:41:53.001Z</time></trkpt><trkpt lat="45.15796412788684" lon="11.787895459963988"><ele>1.0</ele><time>2026-04-18T10:41:54.001Z</time></trkpt><trkpt lat="45.15771276757509" lon="11.787960135727857"><ele>0.0</ele><time>2026-04-18T10:41:55.001Z</time></trkpt><trkpt lat="45.15746861375722" lon="11.788022101055022"><ele>0.3333333333333333</ele><time>2026-04-18T10:41:56.001Z</time></trkpt><trkpt lat="45.157247776223244" lon="11.788075499867965"><ele>0.6666666666666666</ele><time>2026-04-18T10:41:57.001Z</time></trkpt><trkpt lat="45.15704613089113" lon="11.788131331770963"><ele>1.0</ele><time>2026-04-18T10:41:58.001Z</time></trkpt><trkpt lat="45.15686777855411" lon="11.788177061263395"><ele>1.0</ele><time>2026-04-18T10:41:59.001Z</time></trkpt><trkpt lat="45.156709061709755" lon="11.78821697671966"><ele>1.0</ele><time>2026-04-18T10:42:00.001Z</time></trkpt><trkpt lat="45.156577722139325" lon="11.788247703025133"><ele>1.0</ele><time>2026-04-18T10:42:01.001Z</time></trkpt><trkpt lat="45.1564770487022" lon="11.788270909319106"><ele>1.0</ele><time>2026-04-18T10:42:02.001Z</time></trkpt><trkpt lat="45.15640056417866" lon="11.788284621942715"><ele>0.9999999999999999</ele><time>2026-04-18T10:42:03.001Z</time></trkpt><trkpt lat="45.156331345025926" lon="11.788303434953521"><ele>1.0</ele><time>2026-04-18T10:42:05.001Z</time></trkpt><trkpt lat="45.15626631312884" lon="11.78830360718386"><ele>1.0</ele><time>2026-04-18T10:42:09.001Z</time></trkpt><trkpt lat="45.15626166666718" lon="11.788464105874798"><ele>1.0</ele><time>2026-04-18T10:42:10.001Z</time></trkpt><trkpt lat="45.156275900432874" lon="11.78857753911957"><ele>0.9999999999999999</ele><time>2026-04-18T10:42:11.001Z</time></trkpt><trkpt lat="45.15629705277335" lon="11.78869787908506"><ele>1.0</ele><time>2026-04-18T10:42:12.001Z</time></trkpt><trkpt lat="45.15632377350633" lon="11.788860469137825"><ele>1.0</ele><time>2026-04-18T10:42:13.001Z</time></trkpt><trkpt lat="45.15634934967407" lon="11.789016094752313"><ele>1.0</ele><time>2026-04-18T10:42:14Z</time></trkpt><trkpt lat="45.15639262681204" lon="11.789193889444325"><ele>1.0</ele><time>2026-04-18T10:42:15Z</time></trkpt><trkpt lat="45.15641318533632" lon="11.78941489676894"><ele>1.0</ele><time>2026-04-18T10:42:16Z</time></trkpt><trkpt lat="45.15645614585457" lon="11.789632405394299"><ele>1.0</ele><time>2026-04-18T10:42:17Z</time></trkpt><trkpt lat="45.1564995940813" lon="11.789880385418215"><ele>1.0</ele><time>2026-04-18T10:42:18Z</time></trkpt><trkpt lat="45.156540993935565" lon="11.790131548374866"><ele>1.0</ele><time>2026-04-18T10:42:19Z</time></trkpt><trkpt lat="45.15657453281719" lon="11.79037242940246"><ele>1.0</ele><time>2026-04-18T10:42:20Z</time></trkpt><trkpt lat="45.1566135115352" lon="11.790621263356078"><ele>1.0</ele><time>2026-04-18T10:42:21Z</time></trkpt><trkpt lat="45.15665894361494" lon="11.790876814552432"><ele>1.0</ele><time>2026-04-18T10:42:22Z</time></trkpt><trkpt lat="45.15670000516056" lon="11.791115051958856"><ele>0.6666666666666666</ele><time>2026-04-18T10:42:23Z</time></trkpt><trkpt lat="45.15673643609453" lon="11.791340722680335"><ele>0.3333333333333333</ele><time>2026-04-18T10:42:24Z</time></trkpt><trkpt lat="45.15676865159311" lon="11.791565569895365"><ele>0.0</ele><time>2026-04-18T10:42:25Z</time></trkpt><trkpt lat="45.15677555494559" lon="11.791777575800392"><ele>0.3333333333333333</ele><time>2026-04-18T10:42:26Z</time></trkpt><trkpt lat="45.15676949341474" lon="11.79198424035118"><ele>0.6666666666666666</ele><time>2026-04-18T10:42:27Z</time></trkpt><trkpt lat="45.15672368084064" lon="11.7921950064903"><ele>1.0</ele><time>2026-04-18T10:42:28Z</time></trkpt><trkpt lat="45.15667210941191" lon="11.792414519610084"><ele>1.0</ele><time>2026-04-18T10:42:29Z</time></trkpt><trkpt lat="45.15662928040695" lon="11.792653042742426"><ele>1.0</ele><time>2026-04-18T10:42:30Z</time></trkpt><trkpt lat="45.156569087732194" lon="11.792891531149257"><ele>1.0</ele><time>2026-04-18T10:42:31Z</time></trkpt><trkpt lat="45.156509860550344" lon="11.793141867582602"><ele>1.0</ele><time>2026-04-18T10:42:32Z</time></trkpt><trkpt lat="45.15645078262096" lon="11.79339888124516"><ele>1.0</ele><time>2026-04-18T10:42:33Z</time></trkpt><trkpt lat="45.15638417211543" lon="11.79363453609847"><ele>1.0</ele><time>2026-04-18T10:42:34Z</time></trkpt><trkpt lat="45.15633492276333" lon="11.793894751579963"><ele>1.0</ele><time>2026-04-18T10:42:35Z</time></trkpt><trkpt lat="45.15627486112053" lon="11.794158747936562"><ele>1.0</ele><time>2026-04-18T10:42:36Z</time></trkpt><trkpt lat="45.15620908713528" lon="11.794419586399568"><ele>1.0</ele><time>2026-04-18T10:42:37Z</time></trkpt><trkpt lat="45.156144299375605" lon="11.794691356366535"><ele>1.0</ele><time>2026-04-18T10:42:38Z</time></trkpt><trkpt lat="45.156079309852636" lon="11.794966528082188"><ele>1.0</ele><time>2026-04-18T10:42:39Z</time></trkpt><trkpt lat="45.15601246950985" lon="11.795250832609204"><ele>1.0</ele><time>2026-04-18T10:42:40Z</time></trkpt><trkpt lat="45.15594314949725" lon="11.795527592569757"><ele>1.0</ele><time>2026-04-18T10:42:41Z</time></trkpt><trkpt lat="45.15588003555533" lon="11.795802576876367"><ele>1.0</ele><time>2026-04-18T10:42:42Z</time></trkpt><trkpt lat="45.15581737440786" lon="11.796074424541239"><ele>1.0</ele><time>2026-04-18T10:42:43Z</time></trkpt><trkpt lat="45.15575348516589" lon="11.79634293535392"><ele>0.6666666666666666</ele><time>2026-04-18T10:42:44Z</time></trkpt><trkpt lat="45.15569056358111" lon="11.796613468158965"><ele>0.3333333333333333</ele><time>2026-04-18T10:42:45Z</time></trkpt><trkpt lat="45.155628580407004" lon="11.796881442233795"><ele>0.0</ele><time>2026-04-18T10:42:46Z</time></trkpt><trkpt lat="45.15556385941111" lon="11.797153828485119"><ele>0.0</ele><time>2026-04-18T10:42:47Z</time></trkpt><trkpt lat="45.155498142738686" lon="11.797428452373591"><ele>0.0</ele><time>2026-04-18T10:42:48Z</time></trkpt><trkpt lat="45.15543050509201" lon="11.797701516688706"><ele>0.0</ele><time>2026-04-18T10:42:49Z</time></trkpt><trkpt lat="45.15537011433782" lon="11.797977610196957"><ele>0.3333333333333333</ele><time>2026-04-18T10:42:50.001Z</time></trkpt><trkpt lat="45.155312916477016" lon="11.798239956704561"><ele>0.6666666666666666</ele><time>2026-04-18T10:42:51.001Z</time></trkpt><trkpt lat="45.155261517464645" lon="11.798489473215646"><ele>1.0</ele><time>2026-04-18T10:42:52.001Z</time></trkpt><trkpt lat="45.15521963908497" lon="11.798725542728981"><ele>1.3333333333333333</ele><time>2026-04-18T10:42:53.001Z</time></trkpt><trkpt lat="45.15518860804174" lon="11.798952052809225"><ele>1.6666666666666665</ele><time>2026-04-18T10:42:54.001Z</time></trkpt><trkpt lat="45.1551563836933" lon="11.799180203528827"><ele>2.0</ele><time>2026-04-18T10:42:55.001Z</time></trkpt><trkpt lat="45.15509096524606" lon="11.799412040159751"><ele>2.333333333333333</ele><time>2026-04-18T10:42:56.001Z</time></trkpt><trkpt lat="45.15503051155455" lon="11.79965734984978"><ele>2.6666666666666665</ele><time>2026-04-18T10:42:57.001Z</time></trkpt><trkpt lat="45.154980668579775" lon="11.79992177248668"><ele>3.0</ele><time>2026-04-18T10:42:58.001Z</time></trkpt><trkpt lat="45.15491634530436" lon="11.80017522671857"><ele>3.0</ele><time>2026-04-18T10:42:59.001Z</time></trkpt><trkpt lat="45.15485735548777" lon="11.800410127806487"><ele>3.0</ele><time>2026-04-18T10:43:00.001Z</time></trkpt><trkpt lat="45.154815518555274" lon="11.800606594692143"><ele>3.0</ele><time>2026-04-18T10:43:01.001Z</time></trkpt><trkpt lat="45.154782206623445" lon="11.800771397668925"><ele>3.0</ele><time>2026-04-18T10:43:02.001Z</time></trkpt><trkpt lat="45.15475390288053" lon="11.800921716857946"><ele>3.25</ele><time>2026-04-18T10:43:03.001Z</time></trkpt><trkpt lat="45.15475318598378" lon="11.801050536893806"><ele>3.5</ele><time>2026-04-18T10:43:04.001Z</time></trkpt><trkpt lat="45.15481309844473" lon="11.80120472308768"><ele>3.75</ele><time>2026-04-18T10:43:05.001Z</time></trkpt><trkpt lat="45.154861581924486" lon="11.801378759243377"><ele>4.0</ele><time>2026-04-18T10:43:06.001Z</time></trkpt><trkpt lat="45.15488808250068" lon="11.801588907170332"><ele>3.333333333333333</ele><time>2026-04-18T10:43:07.001Z</time></trkpt><trkpt lat="45.15492563794778" lon="11.801813510987778"><ele>2.6666666666666665</ele><time>2026-04-18T10:43:08.001Z</time></trkpt><trkpt lat="45.15494188846253" lon="11.802039281546046"><ele>2.0</ele><time>2026-04-18T10:43:09.001Z</time></trkpt><trkpt lat="45.154932266168146" lon="11.802296224605875"><ele>2.0</ele><time>2026-04-18T10:43:10.001Z</time></trkpt><trkpt lat="45.15490887475893" lon="11.802610329103961"><ele>2.0</ele><time>2026-04-18T10:43:11.001Z</time></trkpt><trkpt lat="45.154882725730886" lon="11.802961276852972"><ele>2.5</ele><time>2026-04-18T10:43:12.001Z</time></trkpt><trkpt lat="45.15486836387604" lon="11.803340907764733"><ele>3.0</ele><time>2026-04-18T10:43:13.001Z</time></trkpt><trkpt lat="45.15486847231007" lon="11.803719793305959"><ele>3.0</ele><time>2026-04-18T10:43:14.001Z</time></trkpt><trkpt lat="45.154874762824655" lon="11.804120684683198"><ele>3.0</ele><time>2026-04-18T10:43:15.001Z</time></trkpt><trkpt lat="45.15489646014719" lon="11.80451591798726"><ele>3.0</ele><time>2026-04-18T10:43:16.001Z</time></trkpt><trkpt lat="45.154920175230835" lon="11.804917019447371"><ele>3.0</ele><time>2026-04-18T10:43:17.001Z</time></trkpt><trkpt lat="45.15493226658625" lon="11.805326412963039"><ele>2.5</ele><time>2026-04-18T10:43:18.001Z</time></trkpt><trkpt lat="45.154949481940356" lon="11.80571001485112"><ele>2.0</ele><time>2026-04-18T10:43:19.001Z</time></trkpt><trkpt lat="45.15495559195804" lon="11.806063327083459"><ele>1.5</ele><time>2026-04-18T10:43:20.001Z</time></trkpt><trkpt lat="45.154963587856884" lon="11.80639037236336"><ele>1.0</ele><time>2026-04-18T10:43:21.001Z</time></trkpt><trkpt lat="45.15497749519992" lon="11.806712031809317"><ele>0.6666666666666666</ele><time>2026-04-18T10:43:22.001Z</time></trkpt><trkpt lat="45.15499208383473" lon="11.807032803698903"><ele>0.3333333333333333</ele><time>2026-04-18T10:43:23.001Z</time></trkpt><trkpt lat="45.15500152512029" lon="11.807335145143508"><ele>0.0</ele><time>2026-04-18T10:43:24.001Z</time></trkpt><trkpt lat="45.155011888272746" lon="11.807614780085524"><ele>0.3333333333333333</ele><time>2026-04-18T10:43:25.001Z</time></trkpt><trkpt lat="45.15502057759772" lon="11.8078700902375"><ele>0.6666666666666666</ele><time>2026-04-18T10:43:26.001Z</time></trkpt><trkpt lat="45.1550317415302" lon="11.80812209083309"><ele>1.0</ele><time>2026-04-18T10:43:27.001Z</time></trkpt><trkpt lat="45.155033033933535" lon="11.80835276580496"><ele>1.3333333333333333</ele><time>2026-04-18T10:43:28.001Z</time></trkpt><trkpt lat="45.155018010124714" lon="11.808575556185929"><ele>1.6666666666666665</ele><time>2026-04-18T10:43:29.001Z</time></trkpt><trkpt lat="45.154983840611145" lon="11.808797298420462"><ele>2.0</ele><time>2026-04-18T10:43:30.001Z</time></trkpt><trkpt lat="45.154971816747846" lon="11.809038025888114"><ele>2.0</ele><time>2026-04-18T10:43:31.001Z</time></trkpt><trkpt lat="45.15492823384747" lon="11.809287208625252"><ele>2.0</ele><time>2026-04-18T10:43:32.001Z</time></trkpt><trkpt lat="45.154793519793465" lon="11.809519738898144"><ele>2.0</ele><time>2026-04-18T10:43:33.001Z</time></trkpt><trkpt lat="45.154693159750074" lon="11.809795465895471"><ele>2.0</ele><time>2026-04-18T10:43:34.001Z</time></trkpt><trkpt lat="45.15458115525779" lon="11.810094419304582"><ele>2.0</ele><time>2026-04-18T10:43:35.001Z</time></trkpt><trkpt lat="45.15446222859445" lon="11.810417462257423"><ele>2.0</ele><time>2026-04-18T10:43:36.001Z</time></trkpt><trkpt lat="45.15433548842115" lon="11.81075493199364"><ele>2.0</ele><time>2026-04-18T10:43:37.001Z</time></trkpt><trkpt lat="45.154215026021205" lon="11.81108052658376"><ele>2.0</ele><time>2026-04-18T10:43:38.001Z</time></trkpt><trkpt lat="45.15410249213291" lon="11.811382736504621"><ele>2.0</ele><time>2026-04-18T10:43:39.001Z</time></trkpt><trkpt lat="45.15402098670169" lon="11.811714498106866"><ele>2.0</ele><time>2026-04-18T10:43:40.001Z</time></trkpt><trkpt lat="45.15392739920814" lon="11.812049613631194"><ele>2.0</ele><time>2026-04-18T10:43:41.001Z</time></trkpt><trkpt lat="45.15383749109384" lon="11.812399571220451"><ele>2.0</ele><time>2026-04-18T10:43:42.001Z</time></trkpt><trkpt lat="45.15374723477504" lon="11.812763266904732"><ele>2.0</ele><time>2026-04-18T10:43:43.001Z</time></trkpt><trkpt lat="45.153654512762195" lon="11.813136009587058"><ele>2.0</ele><time>2026-04-18T10:43:44.001Z</time></trkpt><trkpt lat="45.15356146673289" lon="11.813511499237235"><ele>2.0</ele><time>2026-04-18T10:43:45.001Z</time></trkpt><trkpt lat="45.15346757473542" lon="11.8138870989306"><ele>2.0</ele><time>2026-04-18T10:43:46.001Z</time></trkpt><trkpt lat="45.15337114915826" lon="11.814252093822736"><ele>2.0</ele><time>2026-04-18T10:43:47.001Z</time></trkpt><trkpt lat="45.153277269347875" lon="11.814602193697839"><ele>2.0</ele><time>2026-04-18T10:43:48.001Z</time></trkpt><trkpt lat="45.15319092459838" lon="11.814936661266014"><ele>2.0</ele><time>2026-04-18T10:43:49.001Z</time></trkpt><trkpt lat="45.15310417808321" lon="11.81526875248277"><ele>2.5</ele><time>2026-04-18T10:43:50.001Z</time></trkpt><trkpt lat="45.15301526874638" lon="11.815606214274258"><ele>3.0</ele><time>2026-04-18T10:43:51.001Z</time></trkpt><trkpt lat="45.15292189136856" lon="11.815959925584854"><ele>2.0</ele><time>2026-04-18T10:43:52.001Z</time></trkpt><trkpt lat="45.15282706856196" lon="11.81634752997548"><ele>1.0</ele><time>2026-04-18T10:43:53.001Z</time></trkpt><trkpt lat="45.15273013332659" lon="11.816740070491214"><ele>1.5</ele><time>2026-04-18T10:43:54.001Z</time></trkpt><trkpt lat="45.1526398262167" lon="11.817087889210987"><ele>2.0</ele><time>2026-04-18T10:43:55.001Z</time></trkpt><trkpt lat="45.15255807474876" lon="11.817405066195992"><ele>2.333333333333333</ele><time>2026-04-18T10:43:56.001Z</time></trkpt><trkpt lat="45.15247961356028" lon="11.81769924122545"><ele>2.6666666666666665</ele><time>2026-04-18T10:43:57.001Z</time></trkpt><trkpt lat="45.15240451500804" lon="11.81796627291873"><ele>3.0</ele><time>2026-04-18T10:43:58.001Z</time></trkpt><trkpt lat="45.15234274878714" lon="11.81820493408334"><ele>3.25</ele><time>2026-04-18T10:43:59.001Z</time></trkpt><trkpt lat="45.15229160417667" lon="11.818416764864914"><ele>3.5</ele><time>2026-04-18T10:44:00.001Z</time></trkpt><trkpt lat="45.15224775471553" lon="11.81859123224315"><ele>3.75</ele><time>2026-04-18T10:44:01.001Z</time></trkpt><trkpt lat="45.15221691841227" lon="11.818728127225103"><ele>4.0</ele><time>2026-04-18T10:44:02.001Z</time></trkpt><trkpt lat="45.15219345067994" lon="11.818839560409904"><ele>3.9999999999999996</ele><time>2026-04-18T10:44:03.001Z</time></trkpt><trkpt lat="45.15217416290893" lon="11.818931685353373"><ele>4.0</ele><time>2026-04-18T10:44:04.001Z</time></trkpt><trkpt lat="45.15212403445062" lon="11.819042206826195"><ele>4.0</ele><time>2026-04-18T10:44:06Z</time></trkpt><trkpt lat="45.152052503083446" lon="11.81899145036573"><ele>4.0</ele><time>2026-04-18T10:44:07Z</time></trkpt><trkpt lat="45.151939195249994" lon="11.818941060038897"><ele>3.9999999999999996</ele><time>2026-04-18T10:44:09Z</time></trkpt><trkpt lat="45.151862063038976" lon="11.818899313402326"><ele>4.0</ele><time>2026-04-18T10:44:10Z</time></trkpt><trkpt lat="45.1517713331666" lon="11.818863115646131"><ele>3.9999999999999996</ele><time>2026-04-18T10:44:11Z</time></trkpt><trkpt lat="45.15168858415814" lon="11.818818243330503"><ele>4.0</ele><time>2026-04-18T10:44:12Z</time></trkpt><trkpt lat="45.151610539700805" lon="11.81877853143613"><ele>4.0</ele><time>2026-04-18T10:44:13Z</time></trkpt><trkpt lat="45.15153253999776" lon="11.818746891113953"><ele>4.0</ele><time>2026-04-18T10:44:14Z</time></trkpt><trkpt lat="45.15145307723986" lon="11.81872014679611"><ele>3.9999999999999996</ele><time>2026-04-18T10:44:15Z</time></trkpt><trkpt lat="45.15135403361957" lon="11.81873017952586"><ele>4.0</ele><time>2026-04-18T10:44:16Z</time></trkpt><trkpt lat="45.151223133650525" lon="11.818778075056452"><ele>4.333333333333333</ele><time>2026-04-18T10:44:17Z</time></trkpt><trkpt lat="45.151040964498186" lon="11.818876016556267"><ele>4.666666666666667</ele><time>2026-04-18T10:44:18Z</time></trkpt><trkpt lat="45.15083375224034" lon="11.818967140691255"><ele>5.0</ele><time>2026-04-18T10:44:19Z</time></trkpt><trkpt lat="45.15059950605105" lon="11.81905016489513"><ele>5.0</ele><time>2026-04-18T10:44:20Z</time></trkpt><trkpt lat="45.150349956083204" lon="11.819124864922133"><ele>5.0</ele><time>2026-04-18T10:44:21Z</time></trkpt><trkpt lat="45.15010780520997" lon="11.819196003990353"><ele>5.0</ele><time>2026-04-18T10:44:22Z</time></trkpt><trkpt lat="45.14988772629683" lon="11.819268272489605"><ele>5.0</ele><time>2026-04-18T10:44:23Z</time></trkpt><trkpt lat="45.14968190584866" lon="11.819337006414502"><ele>5.0</ele><time>2026-04-18T10:44:24Z</time></trkpt><trkpt lat="45.14948832169976" lon="11.819399490099364"><ele>5.0</ele><time>2026-04-18T10:44:25Z</time></trkpt><trkpt lat="45.14930613711585" lon="11.8194522575073"><ele>5.0</ele><time>2026-04-18T10:44:26Z</time></trkpt><trkpt lat="45.14913952681377" lon="11.819506723216"><ele>5.0</ele><time>2026-04-18T10:44:27Z</time></trkpt><trkpt lat="45.14898107943536" lon="11.819558203443004"><ele>5.0</ele><time>2026-04-18T10:44:28Z</time></trkpt><trkpt lat="45.14883166227958" lon="11.819607834236828"><ele>5.0</ele><time>2026-04-18T10:44:29Z</time></trkpt><trkpt lat="45.14868872313448" lon="11.819660515731078"><ele>5.0</ele><time>2026-04-18T10:44:30Z</time></trkpt><trkpt lat="45.148550880278805" lon="11.819710020049788"><ele>5.0</ele><time>2026-04-18T10:44:31Z</time></trkpt><trkpt lat="45.148428974005895" lon="11.819750147691297"><ele>5.0</ele><time>2026-04-18T10:44:32Z</time></trkpt><trkpt lat="45.14832895046066" lon="11.819776664236555"><ele>5.0</ele><time>2026-04-18T10:44:33Z</time></trkpt><trkpt lat="45.148251865367556" lon="11.819796703545004"><ele>5.0</ele><time>2026-04-18T10:44:34Z</time></trkpt><trkpt lat="45.14816013940097" lon="11.819808941615948"><ele>5.0</ele><time>2026-04-18T10:44:36Z</time></trkpt><trkpt lat="45.14808169595341" lon="11.819737785981905"><ele>5.0</ele><time>2026-04-18T10:44:38Z</time></trkpt><trkpt lat="45.14806418080783" lon="11.819634439033248"><ele>5.0</ele><time>2026-04-18T10:44:39Z</time></trkpt><trkpt lat="45.14807380889807" lon="11.819522045198351"><ele>4.666666666666667</ele><time>2026-04-18T10:44:40Z</time></trkpt><trkpt lat="45.14809401082367" lon="11.819415239685307"><ele>4.333333333333334</ele><time>2026-04-18T10:44:41Z</time></trkpt><trkpt lat="45.14812054280603" lon="11.819313636935156"><ele>4.0</ele><time>2026-04-18T10:44:42Z</time></trkpt><trkpt lat="45.148131591828474" lon="11.819201663238804"><ele>3.666666666666667</ele><time>2026-04-18T10:44:43Z</time></trkpt><trkpt lat="45.148136658062406" lon="11.819090356262569"><ele>3.3333333333333335</ele><time>2026-04-18T10:44:44Z</time></trkpt><trkpt lat="45.148138289521576" lon="11.818976857342657"><ele>3.0</ele><time>2026-04-18T10:44:45Z</time></trkpt><trkpt lat="45.14814159128779" lon="11.8188621795972"><ele>3.0</ele><time>2026-04-18T10:44:46Z</time></trkpt><trkpt lat="45.14814665324443" lon="11.818743205563905"><ele>3.0</ele><time>2026-04-18T10:44:47Z</time></trkpt><trkpt lat="45.14815206675641" lon="11.818614057768146"><ele>3.0</ele><time>2026-04-18T10:44:48Z</time></trkpt><trkpt lat="45.14816400163538" lon="11.818476995596024"><ele>3.0</ele><time>2026-04-18T10:44:49Z</time></trkpt><trkpt lat="45.148169132080604" lon="11.818347604948013"><ele>3.0</ele><time>2026-04-18T10:44:50Z</time></trkpt><trkpt lat="45.14816880934928" lon="11.81821428380539"><ele>3.0</ele><time>2026-04-18T10:44:51Z</time></trkpt><trkpt lat="45.148171443355025" lon="11.81807390244364"><ele>3.0</ele><time>2026-04-18T10:44:52Z</time></trkpt><trkpt lat="45.148176298902854" lon="11.817928147411822"><ele>3.0</ele><time>2026-04-18T10:44:53Z</time></trkpt><trkpt lat="45.148179215465774" lon="11.817777663128112"><ele>3.0</ele><time>2026-04-18T10:44:54Z</time></trkpt><trkpt lat="45.14818059235598" lon="11.81762878606282"><ele>3.0</ele><time>2026-04-18T10:44:55Z</time></trkpt><trkpt lat="45.14818248721329" lon="11.817472559332645"><ele>3.0</ele><time>2026-04-18T10:44:56Z</time></trkpt><trkpt lat="45.14818533274656" lon="11.817318950649774"><ele>3.0</ele><time>2026-04-18T10:44:57Z</time></trkpt><trkpt lat="45.1481905870181" lon="11.817158514219747"><ele>3.0</ele><time>2026-04-18T10:44:58Z</time></trkpt><trkpt lat="45.14819626839306" lon="11.816995414018821"><ele>3.0</ele><time>2026-04-18T10:44:59Z</time></trkpt><trkpt lat="45.14820261170756" lon="11.81682799547572"><ele>3.0</ele><time>2026-04-18T10:45:00Z</time></trkpt><trkpt lat="45.14820578524634" lon="11.816658026719166"><ele>3.0</ele><time>2026-04-18T10:45:01Z</time></trkpt><trkpt lat="45.148209877958905" lon="11.816480293876335"><ele>3.0</ele><time>2026-04-18T10:45:02Z</time></trkpt><trkpt lat="45.14821239860914" lon="11.816300712845152"><ele>3.0</ele><time>2026-04-18T10:45:03Z</time></trkpt><trkpt lat="45.14821960804123" lon="11.816119151822953"><ele>3.75</ele><time>2026-04-18T10:45:04Z</time></trkpt><trkpt lat="45.14822705094559" lon="11.815935508203658"><ele>4.5</ele><time>2026-04-18T10:45:05Z</time></trkpt><trkpt lat="45.14823286880994" lon="11.815753817049885"><ele>5.25</ele><time>2026-04-18T10:45:06Z</time></trkpt><trkpt lat="45.14823813985008" lon="11.815558784751895"><ele>6.0</ele><time>2026-04-18T10:45:07Z</time></trkpt><trkpt lat="45.14824021107492" lon="11.815346762697171"><ele>5.666666666666667</ele><time>2026-04-18T10:45:08Z</time></trkpt><trkpt lat="45.14824106961222" lon="11.815114517021248"><ele>5.333333333333334</ele><time>2026-04-18T10:45:09Z</time></trkpt><trkpt lat="45.14824403331169" lon="11.814836305634827"><ele>5.0</ele><time>2026-04-18T10:45:10Z</time></trkpt><trkpt lat="45.14825710533811" lon="11.814519051075688"><ele>4.5</ele><time>2026-04-18T10:45:11Z</time></trkpt><trkpt lat="45.148268257707706" lon="11.81418028900657"><ele>4.0</ele><time>2026-04-18T10:45:12Z</time></trkpt><trkpt lat="45.14827536714395" lon="11.813828906999754"><ele>3.5</ele><time>2026-04-18T10:45:13Z</time></trkpt><trkpt lat="45.14828350408931" lon="11.813480388818688"><ele>3.0</ele><time>2026-04-18T10:45:14Z</time></trkpt><trkpt lat="45.14829009387345" lon="11.81316860345329"><ele>3.0</ele><time>2026-04-18T10:45:15Z</time></trkpt><trkpt lat="45.148294525751126" lon="11.812876078638528"><ele>3.0</ele><time>2026-04-18T10:45:16Z</time></trkpt><trkpt lat="45.14829597269107" lon="11.812605201569438"><ele>3.0</ele><time>2026-04-18T10:45:17Z</time></trkpt><trkpt lat="45.14830143049042" lon="11.812351536521154"><ele>2.6666666666666665</ele><time>2026-04-18T10:45:18Z</time></trkpt><trkpt lat="45.1483142196493" lon="11.812092266436991"><ele>2.333333333333333</ele><time>2026-04-18T10:45:19Z</time></trkpt><trkpt lat="45.14833443475818" lon="11.811807140604804"><ele>2.0</ele><time>2026-04-18T10:45:20Z</time></trkpt><trkpt lat="45.14834754280036" lon="11.811492265210774"><ele>2.5</ele><time>2026-04-18T10:45:21Z</time></trkpt><trkpt lat="45.14835320574411" lon="11.811155414661515"><ele>3.0</ele><time>2026-04-18T10:45:22Z</time></trkpt><trkpt lat="45.148363528878285" lon="11.810799829474664"><ele>3.0</ele><time>2026-04-18T10:45:23Z</time></trkpt><trkpt lat="45.14837015286387" lon="11.810450904903785"><ele>3.0</ele><time>2026-04-18T10:45:24Z</time></trkpt><trkpt lat="45.148377545865934" lon="11.810106705664705"><ele>3.0</ele><time>2026-04-18T10:45:25Z</time></trkpt><trkpt lat="45.14838580715757" lon="11.809754691899764"><ele>3.0</ele><time>2026-04-18T10:45:26Z</time></trkpt><trkpt lat="45.1483945407921" lon="11.809397464601487"><ele>2.5</ele><time>2026-04-18T10:45:27Z</time></trkpt><trkpt lat="45.14840517072653" lon="11.809036588499765"><ele>2.0</ele><time>2026-04-18T10:45:28Z</time></trkpt><trkpt lat="45.14841877773933" lon="11.808653459272108"><ele>2.5</ele><time>2026-04-18T10:45:29Z</time></trkpt><trkpt lat="45.14842761398174" lon="11.808274407057507"><ele>3.0</ele><time>2026-04-18T10:45:30Z</time></trkpt><trkpt lat="45.14843752938789" lon="11.807931990224983"><ele>5.0</ele><time>2026-04-18T10:45:31Z</time></trkpt><trkpt lat="45.14844957614391" lon="11.80759322483827"><ele>7.0</ele><time>2026-04-18T10:45:32Z</time></trkpt><trkpt lat="45.14845840903031" lon="11.807257671510396"><ele>7.0</ele><time>2026-04-18T10:45:33Z</time></trkpt><trkpt lat="45.14846794774873" lon="11.806923592286852"><ele>7.0</ele><time>2026-04-18T10:45:34Z</time></trkpt><trkpt lat="45.1484797105094" lon="11.806583270253366"><ele>6.0</ele><time>2026-04-18T10:45:35Z</time></trkpt><trkpt lat="45.1484893197922" lon="11.80624270797303"><ele>5.0</ele><time>2026-04-18T10:45:36Z</time></trkpt><trkpt lat="45.148496663390695" lon="11.805902454341005"><ele>4.5</ele><time>2026-04-18T10:45:37Z</time></trkpt><trkpt lat="45.1485048356586" lon="11.805561002011974"><ele>4.0</ele><time>2026-04-18T10:45:38Z</time></trkpt><trkpt lat="45.148514972157" lon="11.8052245646306"><ele>4.0</ele><time>2026-04-18T10:45:39Z</time></trkpt><trkpt lat="45.148522765531226" lon="11.804900661787599"><ele>4.0</ele><time>2026-04-18T10:45:40Z</time></trkpt><trkpt lat="45.14852994561001" lon="11.804580610206544"><ele>4.0</ele><time>2026-04-18T10:45:41Z</time></trkpt><trkpt lat="45.14853726516442" lon="11.804254196045255"><ele>4.0</ele><time>2026-04-18T10:45:42Z</time></trkpt><trkpt lat="45.14854740257076" lon="11.80392385710317"><ele>4.0</ele><time>2026-04-18T10:45:43Z</time></trkpt><trkpt lat="45.14856136330196" lon="11.80359284948756"><ele>4.0</ele><time>2026-04-18T10:45:44Z</time></trkpt><trkpt lat="45.14856778675805" lon="11.803254232925756"><ele>4.0</ele><time>2026-04-18T10:45:45Z</time></trkpt><trkpt lat="45.148573369350544" lon="11.802911879605372"><ele>4.0</ele><time>2026-04-18T10:45:46Z</time></trkpt><trkpt lat="45.14858033554344" lon="11.802572891745879"><ele>4.0</ele><time>2026-04-18T10:45:47Z</time></trkpt><trkpt lat="45.14859049496212" lon="11.802229227764922"><ele>4.0</ele><time>2026-04-18T10:45:48Z</time></trkpt><trkpt lat="45.148603518549876" lon="11.801881029556442"><ele>4.0</ele><time>2026-04-18T10:45:49Z</time></trkpt><trkpt lat="45.14861195410462" lon="11.801536819160212"><ele>4.0</ele><time>2026-04-18T10:45:50Z</time></trkpt><trkpt lat="45.14861943431469" lon="11.80119396291462"><ele>4.0</ele><time>2026-04-18T10:45:51Z</time></trkpt><trkpt lat="45.14862615615227" lon="11.800858434285837"><ele>4.0</ele><time>2026-04-18T10:45:52.001Z</time></trkpt><trkpt lat="45.14863637651065" lon="11.800529967480994"><ele>4.0</ele><time>2026-04-18T10:45:53.001Z</time></trkpt><trkpt lat="45.14864581302256" lon="11.800209799632725"><ele>4.0</ele><time>2026-04-18T10:45:54.001Z</time></trkpt><trkpt lat="45.148654537995405" lon="11.799905481005961"><ele>4.0</ele><time>2026-04-18T10:45:55.001Z</time></trkpt><trkpt lat="45.1486649142263" lon="11.799618877043098"><ele>4.0</ele><time>2026-04-18T10:45:56.001Z</time></trkpt><trkpt lat="45.14867342210371" lon="11.79935023889459"><ele>4.0</ele><time>2026-04-18T10:45:57.001Z</time></trkpt><trkpt lat="45.148678904925944" lon="11.799099485406805"><ele>4.0</ele><time>2026-04-18T10:45:58.001Z</time></trkpt><trkpt lat="45.148685585148904" lon="11.798869218896462"><ele>4.25</ele><time>2026-04-18T10:45:59.001Z</time></trkpt><trkpt lat="45.148692795140775" lon="11.798655014341199"><ele>4.5</ele><time>2026-04-18T10:46:00.001Z</time></trkpt><trkpt lat="45.148691038979784" lon="11.7984513730028"><ele>4.75</ele><time>2026-04-18T10:46:01.001Z</time></trkpt><trkpt lat="45.14866968249857" lon="11.798262815869217"><ele>5.0</ele><time>2026-04-18T10:46:02.001Z</time></trkpt><trkpt lat="45.148635617419366" lon="11.798052364678163"><ele>5.0</ele><time>2026-04-18T10:46:03.001Z</time></trkpt><trkpt lat="45.14858126443471" lon="11.797838328955518"><ele>5.0</ele><time>2026-04-18T10:46:04Z</time></trkpt><trkpt lat="45.14850994911575" lon="11.797643362184509"><ele>5.0</ele><time>2026-04-18T10:46:05Z</time></trkpt><trkpt lat="45.14842924434867" lon="11.797478626899318"><ele>4.75</ele><time>2026-04-18T10:46:06Z</time></trkpt><trkpt lat="45.14834920573828" lon="11.797331310713107"><ele>4.5</ele><time>2026-04-18T10:46:07Z</time></trkpt><trkpt lat="45.14827449066204" lon="11.797177778001428"><ele>4.25</ele><time>2026-04-18T10:46:08Z</time></trkpt><trkpt lat="45.1481957903218" lon="11.79699855857043"><ele>4.0</ele><time>2026-04-18T10:46:09Z</time></trkpt><trkpt lat="45.148107058273354" lon="11.796817206667642"><ele>3.6666666666666665</ele><time>2026-04-18T10:46:10Z</time></trkpt><trkpt lat="45.14801052679112" lon="11.796613723782691"><ele>3.333333333333333</ele><time>2026-04-18T10:46:11Z</time></trkpt><trkpt lat="45.147919647763615" lon="11.79638782291853"><ele>3.0</ele><time>2026-04-18T10:46:12Z</time></trkpt><trkpt lat="45.14780410179619" lon="11.796113134161978"><ele>4.0</ele><time>2026-04-18T10:46:13Z</time></trkpt><trkpt lat="45.147680166168875" lon="11.795824002059359"><ele>5.0</ele><time>2026-04-18T10:46:14Z</time></trkpt><trkpt lat="45.147561276821044" lon="11.795567820121887"><ele>5.0</ele><time>2026-04-18T10:46:15Z</time></trkpt><trkpt lat="45.147442229311274" lon="11.795307743185976"><ele>5.0</ele><time>2026-04-18T10:46:16Z</time></trkpt><trkpt lat="45.1473201986497" lon="11.795040454601201"><ele>5.0</ele><time>2026-04-18T10:46:17Z</time></trkpt><trkpt lat="45.14720769523907" lon="11.794785689983978"><ele>4.666666666666667</ele><time>2026-04-18T10:46:18Z</time></trkpt><trkpt lat="45.14710076570555" lon="11.794541665075288"><ele>4.333333333333333</ele><time>2026-04-18T10:46:19Z</time></trkpt><trkpt lat="45.146994961138" lon="11.794297258560317"><ele>4.0</ele><time>2026-04-18T10:46:20Z</time></trkpt><trkpt lat="45.14688636964263" lon="11.794054088172665"><ele>4.0</ele><time>2026-04-18T10:46:21Z</time></trkpt><trkpt lat="45.146781671927" lon="11.793819761349361"><ele>4.0</ele><time>2026-04-18T10:46:22Z</time></trkpt><trkpt lat="45.1466836462561" lon="11.793590628306395"><ele>4.0</ele><time>2026-04-18T10:46:23Z</time></trkpt><trkpt lat="45.1465848613639" lon="11.793361773148172"><ele>3.6666666666666665</ele><time>2026-04-18T10:46:24Z</time></trkpt><trkpt lat="45.146482365887216" lon="11.793138613511129"><ele>3.333333333333333</ele><time>2026-04-18T10:46:25Z</time></trkpt><trkpt lat="45.146376498608106" lon="11.79291253844708"><ele>3.0</ele><time>2026-04-18T10:46:26Z</time></trkpt><trkpt lat="45.1462765626759" lon="11.792685412269465"><ele>3.0</ele><time>2026-04-18T10:46:27Z</time></trkpt><trkpt lat="45.14616826365325" lon="11.792457734120532"><ele>3.0</ele><time>2026-04-18T10:46:28Z</time></trkpt><trkpt lat="45.14606690293189" lon="11.79223021135515"><ele>3.0</ele><time>2026-04-18T10:46:29Z</time></trkpt><trkpt lat="45.145968201582924" lon="11.792006560726673"><ele>3.0</ele><time>2026-04-18T10:46:30Z</time></trkpt><trkpt lat="45.14586530139969" lon="11.791768783026633"><ele>3.0</ele><time>2026-04-18T10:46:31Z</time></trkpt><trkpt lat="45.1457616465406" lon="11.791541109643887"><ele>3.0</ele><time>2026-04-18T10:46:32Z</time></trkpt><trkpt lat="45.145657004013366" lon="11.791308700767088"><ele>3.0</ele><time>2026-04-18T10:46:33Z</time></trkpt><trkpt lat="45.14555701354307" lon="11.791067497038352"><ele>3.0</ele><time>2026-04-18T10:46:34Z</time></trkpt><trkpt lat="45.14545614251179" lon="11.790833240627068"><ele>3.0</ele><time>2026-04-18T10:46:35Z</time></trkpt><trkpt lat="45.14536915633412" lon="11.790567677975945"><ele>3.333333333333333</ele><time>2026-04-18T10:46:36Z</time></trkpt><trkpt lat="45.145260220342784" lon="11.790331457463362"><ele>3.6666666666666665</ele><time>2026-04-18T10:46:37Z</time></trkpt><trkpt lat="45.145153326274425" lon="11.790100705275673"><ele>4.0</ele><time>2026-04-18T10:46:38Z</time></trkpt><trkpt lat="45.14506789362764" lon="11.789909372511355"><ele>4.0</ele><time>2026-04-18T10:46:39Z</time></trkpt><trkpt lat="45.144983824877606" lon="11.789710499045885"><ele>4.0</ele><time>2026-04-18T10:46:40Z</time></trkpt><trkpt lat="45.14490556903063" lon="11.789527135145772"><ele>4.0</ele><time>2026-04-18T10:46:41Z</time></trkpt><trkpt lat="45.14482836502052" lon="11.789350438701138"><ele>4.666666666666666</ele><time>2026-04-18T10:46:42Z</time></trkpt><trkpt lat="45.14475105135072" lon="11.789191400582338"><ele>5.333333333333333</ele><time>2026-04-18T10:46:43Z</time></trkpt><trkpt lat="45.14465654989914" lon="11.789006567926625"><ele>6.0</ele><time>2026-04-18T10:46:44Z</time></trkpt><trkpt lat="45.14456896070253" lon="11.78876751702801"><ele>6.0</ele><time>2026-04-18T10:46:45Z</time></trkpt><trkpt lat="45.144461918654464" lon="11.788544433497263"><ele>6.0</ele><time>2026-04-18T10:46:46Z</time></trkpt><trkpt lat="45.14435134280609" lon="11.788306903702894"><ele>6.0</ele><time>2026-04-18T10:46:47Z</time></trkpt><trkpt lat="45.14423933148822" lon="11.788064116908155"><ele>6.0</ele><time>2026-04-18T10:46:48Z</time></trkpt><trkpt lat="45.14413712569785" lon="11.787813869158995"><ele>6.0</ele><time>2026-04-18T10:46:49Z</time></trkpt><trkpt lat="45.14402594809454" lon="11.787564718294222"><ele>6.0</ele><time>2026-04-18T10:46:50Z</time></trkpt><trkpt lat="45.14391252212544" lon="11.787319862000851"><ele>6.0</ele><time>2026-04-18T10:46:51Z</time></trkpt><trkpt lat="45.14378938157532" lon="11.787076074171576"><ele>6.0</ele><time>2026-04-18T10:46:52Z</time></trkpt><trkpt lat="45.143692226682546" lon="11.786804548200063"><ele>6.0</ele><time>2026-04-18T10:46:53Z</time></trkpt><trkpt lat="45.14360358147495" lon="11.78657383711147"><ele>6.0</ele><time>2026-04-18T10:46:54Z</time></trkpt><trkpt lat="45.143499436930554" lon="11.786330416944228"><ele>6.0</ele><time>2026-04-18T10:46:55Z</time></trkpt><trkpt lat="45.14339038823988" lon="11.786083337981395"><ele>6.0</ele><time>2026-04-18T10:46:56Z</time></trkpt><trkpt lat="45.143292350494015" lon="11.785835801250169"><ele>5.666666666666667</ele><time>2026-04-18T10:46:57Z</time></trkpt><trkpt lat="45.14319417304562" lon="11.785586164817323"><ele>5.333333333333334</ele><time>2026-04-18T10:46:58Z</time></trkpt><trkpt lat="45.14308993114166" lon="11.785346691012554"><ele>5.0</ele><time>2026-04-18T10:46:59Z</time></trkpt><trkpt lat="45.1429874588405" lon="11.785100576628023"><ele>5.0</ele><time>2026-04-18T10:47:00Z</time></trkpt><trkpt lat="45.142889443451566" lon="11.78485540869014"><ele>5.0</ele><time>2026-04-18T10:47:01Z</time></trkpt><trkpt lat="45.142770826477324" lon="11.78462602312905"><ele>5.0</ele><time>2026-04-18T10:47:02Z</time></trkpt><trkpt lat="45.14265325497909" lon="11.78439359190261"><ele>5.0</ele><time>2026-04-18T10:47:03Z</time></trkpt><trkpt lat="45.14253623879587" lon="11.7841605987523"><ele>5.0</ele><time>2026-04-18T10:47:04Z</time></trkpt><trkpt lat="45.14242553064607" lon="11.783921215465769"><ele>5.0</ele><time>2026-04-18T10:47:05Z</time></trkpt><trkpt lat="45.14231770585022" lon="11.783677964379882"><ele>4.333333333333334</ele><time>2026-04-18T10:47:06Z</time></trkpt><trkpt lat="45.142213522489115" lon="11.783434373434838"><ele>3.666666666666667</ele><time>2026-04-18T10:47:07Z</time></trkpt><trkpt lat="45.142115707508914" lon="11.783182883982297"><ele>3.0</ele><time>2026-04-18T10:47:08Z</time></trkpt><trkpt lat="45.14199228550316" lon="11.782943206497425"><ele>3.0</ele><time>2026-04-18T10:47:09Z</time></trkpt><trkpt lat="45.1418866463446" lon="11.782691267935562"><ele>3.0</ele><time>2026-04-18T10:47:10Z</time></trkpt><trkpt lat="45.14178926884887" lon="11.782441270924222"><ele>3.0</ele><time>2026-04-18T10:47:11Z</time></trkpt><trkpt lat="45.14168050278648" lon="11.782201685764697"><ele>3.333333333333333</ele><time>2026-04-18T10:47:12Z</time></trkpt><trkpt lat="45.141559600601205" lon="11.781959459193144"><ele>3.6666666666666665</ele><time>2026-04-18T10:47:13Z</time></trkpt><trkpt lat="45.14145518438598" lon="11.78171209963524"><ele>4.0</ele><time>2026-04-18T10:47:14Z</time></trkpt><trkpt lat="45.14135569726091" lon="11.781458422930594"><ele>4.0</ele><time>2026-04-18T10:47:15Z</time></trkpt><trkpt lat="45.14124996080474" lon="11.781221453443356"><ele>4.0</ele><time>2026-04-18T10:47:16Z</time></trkpt><trkpt lat="45.14115360973897" lon="11.781012539627131"><ele>4.0</ele><time>2026-04-18T10:47:17Z</time></trkpt><trkpt lat="45.14105268224579" lon="11.780794754594874"><ele>4.333333333333333</ele><time>2026-04-18T10:47:18Z</time></trkpt><trkpt lat="45.14095541309414" lon="11.780557533858348"><ele>4.666666666666667</ele><time>2026-04-18T10:47:19Z</time></trkpt><trkpt lat="45.14083987821312" lon="11.780324887866895"><ele>5.0</ele><time>2026-04-18T10:47:20Z</time></trkpt><trkpt lat="45.14073611668797" lon="11.780069583924824"><ele>4.0</ele><time>2026-04-18T10:47:21Z</time></trkpt><trkpt lat="45.1406291642328" lon="11.77983175311712"><ele>3.0</ele><time>2026-04-18T10:47:22Z</time></trkpt><trkpt lat="45.14053179386656" lon="11.779602519853384"><ele>2.0</ele><time>2026-04-18T10:47:23Z</time></trkpt><trkpt lat="45.14044463816733" lon="11.77940632603818"><ele>2.0</ele><time>2026-04-18T10:47:24Z</time></trkpt><trkpt lat="45.140356292752465" lon="11.779211008905355"><ele>2.0</ele><time>2026-04-18T10:47:25Z</time></trkpt><trkpt lat="45.14027351604576" lon="11.779020240447215"><ele>2.0</ele><time>2026-04-18T10:47:26Z</time></trkpt><trkpt lat="45.14019878144679" lon="11.77883589494353"><ele>2.0</ele><time>2026-04-18T10:47:27Z</time></trkpt><trkpt lat="45.140139926256346" lon="11.778655061538917"><ele>2.0</ele><time>2026-04-18T10:47:28Z</time></trkpt><trkpt lat="45.140094655256505" lon="11.778452586367788"><ele>2.0</ele><time>2026-04-18T10:47:29Z</time></trkpt><trkpt lat="45.140060978398076" lon="11.778211626413121"><ele>2.333333333333333</ele><time>2026-04-18T10:47:30Z</time></trkpt><trkpt lat="45.14005867080393" lon="11.777974056983155"><ele>2.6666666666666665</ele><time>2026-04-18T10:47:31Z</time></trkpt><trkpt lat="45.14005467294956" lon="11.77774702439014"><ele>3.0</ele><time>2026-04-18T10:47:32Z</time></trkpt><trkpt lat="45.140070283674795" lon="11.77749112217445"><ele>3.0</ele><time>2026-04-18T10:47:33Z</time></trkpt><trkpt lat="45.14008203756715" lon="11.777225920019559"><ele>3.0</ele><time>2026-04-18T10:47:34Z</time></trkpt><trkpt lat="45.140066924922756" lon="11.776949628768644"><ele>3.0</ele><time>2026-04-18T10:47:35Z</time></trkpt><trkpt lat="45.140027951611096" lon="11.776674306659325"><ele>3.666666666666667</ele><time>2026-04-18T10:47:36Z</time></trkpt><trkpt lat="45.13997084832819" lon="11.776417785290633"><ele>4.333333333333334</ele><time>2026-04-18T10:47:37Z</time></trkpt><trkpt lat="45.1398955840167" lon="11.776170626289103"><ele>5.0</ele><time>2026-04-18T10:47:38Z</time></trkpt><trkpt lat="45.13981056304972" lon="11.775934924233002"><ele>5.0</ele><time>2026-04-18T10:47:39Z</time></trkpt><trkpt lat="45.139721431352925" lon="11.77570418864814"><ele>5.0</ele><time>2026-04-18T10:47:40Z</time></trkpt><trkpt lat="45.139636661825534" lon="11.775466242569413"><ele>5.0</ele><time>2026-04-18T10:47:41Z</time></trkpt><trkpt lat="45.13955279652409" lon="11.775232118368587"><ele>4.666666666666667</ele><time>2026-04-18T10:47:42Z</time></trkpt><trkpt lat="45.13947181952345" lon="11.774996070464146"><ele>4.333333333333333</ele><time>2026-04-18T10:47:43Z</time></trkpt><trkpt lat="45.13938840311534" lon="11.774760865811412"><ele>4.0</ele><time>2026-04-18T10:47:44Z</time></trkpt><trkpt lat="45.13930656716491" lon="11.774526412595764"><ele>4.0</ele><time>2026-04-18T10:47:45Z</time></trkpt><trkpt lat="45.139214421790655" lon="11.774333820423744"><ele>4.0</ele><time>2026-04-18T10:47:46Z</time></trkpt><trkpt lat="45.13910504583606" lon="11.774158412981205"><ele>4.0</ele><time>2026-04-18T10:47:47Z</time></trkpt><trkpt lat="45.13897683417856" lon="11.774013439830783"><ele>4.0</ele><time>2026-04-18T10:47:48Z</time></trkpt><trkpt lat="45.138832666522596" lon="11.773882410763202"><ele>4.0</ele><time>2026-04-18T10:47:49Z</time></trkpt><trkpt lat="45.13867608939734" lon="11.77377801563849"><ele>4.0</ele><time>2026-04-18T10:47:50Z</time></trkpt><trkpt lat="45.13850647185379" lon="11.773689241217399"><ele>4.0</ele><time>2026-04-18T10:47:51Z</time></trkpt><trkpt lat="45.13833311401313" lon="11.773611330612134"><ele>4.0</ele><time>2026-04-18T10:47:52Z</time></trkpt><trkpt lat="45.138172142216185" lon="11.773531937948375"><ele>4.0</ele><time>2026-04-18T10:47:53Z</time></trkpt><trkpt lat="45.13803092134809" lon="11.773445716540667"><ele>4.25</ele><time>2026-04-18T10:47:54Z</time></trkpt><trkpt lat="45.137901389515164" lon="11.773343655582496"><ele>4.5</ele><time>2026-04-18T10:47:55Z</time></trkpt><trkpt lat="45.137799087808524" lon="11.773240487211014"><ele>4.75</ele><time>2026-04-18T10:47:56Z</time></trkpt><trkpt lat="45.13769818524578" lon="11.773098166480917"><ele>5.0</ele><time>2026-04-18T10:47:57Z</time></trkpt><trkpt lat="45.13760908422161" lon="11.772938248249567"><ele>5.0</ele><time>2026-04-18T10:47:58Z</time></trkpt><trkpt lat="45.13752850379757" lon="11.772760179803795"><ele>5.0</ele><time>2026-04-18T10:47:59Z</time></trkpt><trkpt lat="45.13745595660101" lon="11.772565771249035"><ele>5.0</ele><time>2026-04-18T10:48:00Z</time></trkpt><trkpt lat="45.137376223987964" lon="11.77237174093302"><ele>4.333333333333334</ele><time>2026-04-18T10:48:01Z</time></trkpt><trkpt lat="45.13729089657507" lon="11.7721685799039"><ele>3.666666666666667</ele><time>2026-04-18T10:48:02Z</time></trkpt><trkpt lat="45.13720028781131" lon="11.771963761628458"><ele>3.0</ele><time>2026-04-18T10:48:03Z</time></trkpt><trkpt lat="45.137109720622384" lon="11.771747874507694"><ele>3.0</ele><time>2026-04-18T10:48:04Z</time></trkpt><trkpt lat="45.13701564408948" lon="11.771520252731312"><ele>3.0</ele><time>2026-04-18T10:48:05Z</time></trkpt><trkpt lat="45.13692237874217" lon="11.771286583301169"><ele>3.0</ele><time>2026-04-18T10:48:06Z</time></trkpt><trkpt lat="45.13682717789522" lon="11.771062080073863"><ele>3.333333333333333</ele><time>2026-04-18T10:48:07Z</time></trkpt><trkpt lat="45.136734855771415" lon="11.77084997805454"><ele>3.6666666666666665</ele><time>2026-04-18T10:48:08Z</time></trkpt><trkpt lat="45.13664520032608" lon="11.770645173165141"><ele>4.0</ele><time>2026-04-18T10:48:09Z</time></trkpt><trkpt lat="45.136561372261816" lon="11.77045792686022"><ele>3.6666666666666665</ele><time>2026-04-18T10:48:10Z</time></trkpt><trkpt lat="45.136477051109644" lon="11.77026939509818"><ele>3.333333333333333</ele><time>2026-04-18T10:48:11Z</time></trkpt><trkpt lat="45.13639232143652" lon="11.770079408357015"><ele>3.0</ele><time>2026-04-18T10:48:12Z</time></trkpt><trkpt lat="45.136303651632765" lon="11.769883885132643"><ele>2.6666666666666665</ele><time>2026-04-18T10:48:13Z</time></trkpt><trkpt lat="45.13621427645644" lon="11.769687373138966"><ele>2.333333333333333</ele><time>2026-04-18T10:48:14Z</time></trkpt><trkpt lat="45.13612545169253" lon="11.769488251704828"><ele>2.0</ele><time>2026-04-18T10:48:15Z</time></trkpt><trkpt lat="45.136050178010656" lon="11.769308835934751"><ele>2.5</ele><time>2026-04-18T10:48:16Z</time></trkpt><trkpt lat="45.1359841429507" lon="11.769142108913215"><ele>3.0</ele><time>2026-04-18T10:48:17Z</time></trkpt><trkpt lat="45.135933308274524" lon="11.768988362482878"><ele>3.5</ele><time>2026-04-18T10:48:18Z</time></trkpt><trkpt lat="45.13589337478255" lon="11.768826892776683"><ele>4.0</ele><time>2026-04-18T10:48:19Z</time></trkpt><trkpt lat="45.135863703212" lon="11.768677609870355"><ele>4.2</ele><time>2026-04-18T10:48:20Z</time></trkpt><trkpt lat="45.13582637067174" lon="11.768522098798787"><ele>4.4</ele><time>2026-04-18T10:48:21Z</time></trkpt><trkpt lat="45.135793147798736" lon="11.768372859676044"><ele>4.6</ele><time>2026-04-18T10:48:22Z</time></trkpt><trkpt lat="45.13577534557738" lon="11.768217768219"><ele>4.8</ele><time>2026-04-18T10:48:23Z</time></trkpt><trkpt lat="45.13575134785067" lon="11.768077676934025"><ele>5.0</ele><time>2026-04-18T10:48:24Z</time></trkpt><trkpt lat="45.13573811559671" lon="11.767952691618621"><ele>5.0</ele><time>2026-04-18T10:48:25Z</time></trkpt><trkpt lat="45.13572071291501" lon="11.767836434394619"><ele>5.0</ele><time>2026-04-18T10:48:26Z</time></trkpt><trkpt lat="45.13571303215181" lon="11.767729612937734"><ele>5.0</ele><time>2026-04-18T10:48:27Z</time></trkpt><trkpt lat="45.13569671581265" lon="11.767580139989946"><ele>5.0</ele><time>2026-04-18T10:48:29Z</time></trkpt><trkpt lat="45.135684434617104" lon="11.767479893575203"><ele>5.0</ele><time>2026-04-18T10:48:31Z</time></trkpt><trkpt lat="45.135670627678955" lon="11.767380942324746"><ele>5.0</ele><time>2026-04-18T10:48:33Z</time></trkpt><trkpt lat="45.13565003988731" lon="11.767247491017077"><ele>5.0</ele><time>2026-04-18T10:48:36Z</time></trkpt><trkpt lat="45.135752013082026" lon="11.767186210272845"><ele>5.0</ele><time>2026-04-18T10:48:40Z</time></trkpt><trkpt lat="45.13583222417718" lon="11.767200308720643"><ele>5.0</ele><time>2026-04-18T10:48:42Z</time></trkpt><trkpt lat="45.135904045857465" lon="11.76720355277901"><ele>5.0</ele><time>2026-04-18T10:48:45Z</time></trkpt><trkpt lat="45.135831463324834" lon="11.767174696955957"><ele>5.0</ele><time>2026-04-18T10:51:14Z</time></trkpt><trkpt lat="45.135739883149604" lon="11.767181288258621"><ele>5.0</ele><time>2026-04-18T10:51:17Z</time></trkpt><trkpt lat="45.13567282116136" lon="11.767159037957688"><ele>4.6</ele><time>2026-04-18T10:51:20Z</time></trkpt><trkpt lat="45.135649425716394" lon="11.767055349675081"><ele>4.2</ele><time>2026-04-18T10:51:22Z</time></trkpt><trkpt lat="45.135624170526214" lon="11.766910773827265"><ele>3.8</ele><time>2026-04-18T10:51:23Z</time></trkpt><trkpt lat="45.135608055822" lon="11.766758688992057"><ele>3.4</ele><time>2026-04-18T10:51:24Z</time></trkpt><trkpt lat="45.13558770580614" lon="11.76659595783367"><ele>3.0</ele><time>2026-04-18T10:51:25Z</time></trkpt><trkpt lat="45.13556244411286" lon="11.766395268869484"><ele>3.0</ele><time>2026-04-18T10:51:26Z</time></trkpt><trkpt lat="45.1355344321913" lon="11.766168231050461"><ele>3.0</ele><time>2026-04-18T10:51:27Z</time></trkpt><trkpt lat="45.13551082441702" lon="11.765943411669312"><ele>3.0</ele><time>2026-04-18T10:51:28Z</time></trkpt><trkpt lat="45.135488627101815" lon="11.765707134232063"><ele>3.666666666666667</ele><time>2026-04-18T10:51:29Z</time></trkpt><trkpt lat="45.13546632509716" lon="11.765461886953481"><ele>4.333333333333334</ele><time>2026-04-18T10:51:30Z</time></trkpt><trkpt lat="45.13544340999642" lon="11.765214310674878"><ele>5.0</ele><time>2026-04-18T10:51:31Z</time></trkpt><trkpt lat="45.13541929966921" lon="11.764961420912721"><ele>5.0</ele><time>2026-04-18T10:51:32Z</time></trkpt><trkpt lat="45.13539476888887" lon="11.76471274781604"><ele>5.0</ele><time>2026-04-18T10:51:33Z</time></trkpt><trkpt lat="45.13537556956639" lon="11.764486864857922"><ele>5.0</ele><time>2026-04-18T10:51:34Z</time></trkpt><trkpt lat="45.13535767579331" lon="11.764271556864651"><ele>5.0</ele><time>2026-04-18T10:51:35Z</time></trkpt><trkpt lat="45.1353389203935" lon="11.764055126589088"><ele>5.0</ele><time>2026-04-18T10:51:36Z</time></trkpt><trkpt lat="45.13531819494674" lon="11.763828996851272"><ele>5.0</ele><time>2026-04-18T10:51:37Z</time></trkpt><trkpt lat="45.13529355321436" lon="11.763597646933938"><ele>5.0</ele><time>2026-04-18T10:51:38Z</time></trkpt><trkpt lat="45.135267752866426" lon="11.763362574528777"><ele>5.0</ele><time>2026-04-18T10:51:39Z</time></trkpt><trkpt lat="45.13524211809086" lon="11.76312723833205"><ele>5.0</ele><time>2026-04-18T10:51:40Z</time></trkpt><trkpt lat="45.135215546747595" lon="11.762914688524885"><ele>5.0</ele><time>2026-04-18T10:51:41Z</time></trkpt><trkpt lat="45.135185805069945" lon="11.762712045346657"><ele>5.0</ele><time>2026-04-18T10:51:42Z</time></trkpt><trkpt lat="45.13515839726891" lon="11.76250030991146"><ele>5.0</ele><time>2026-04-18T10:51:43Z</time></trkpt><trkpt lat="45.135127865969224" lon="11.762286573645053"><ele>5.0</ele><time>2026-04-18T10:51:44Z</time></trkpt><trkpt lat="45.135091936324116" lon="11.762074508503598"><ele>5.0</ele><time>2026-04-18T10:51:45Z</time></trkpt><trkpt lat="45.13506030869149" lon="11.761881513522408"><ele>5.0</ele><time>2026-04-18T10:51:46Z</time></trkpt><trkpt lat="45.13503458952051" lon="11.761699005474883"><ele>5.0</ele><time>2026-04-18T10:51:47Z</time></trkpt><trkpt lat="45.1350127859512" lon="11.761518224597067"><ele>5.666666666666667</ele><time>2026-04-18T10:51:48Z</time></trkpt><trkpt lat="45.134992788627706" lon="11.76131412880715"><ele>6.333333333333334</ele><time>2026-04-18T10:51:49Z</time></trkpt><trkpt lat="45.13498033817011" lon="11.76108267084367"><ele>7.0</ele><time>2026-04-18T10:51:50Z</time></trkpt><trkpt lat="45.134957021943485" lon="11.760844181950022"><ele>7.333333333333334</ele><time>2026-04-18T10:51:51Z</time></trkpt><trkpt lat="45.13493710434229" lon="11.760606725696062"><ele>7.666666666666666</ele><time>2026-04-18T10:51:52Z</time></trkpt><trkpt lat="45.13491952559332" lon="11.76037333055025"><ele>8.0</ele><time>2026-04-18T10:51:53Z</time></trkpt><trkpt lat="45.13490510838126" lon="11.760135526182362"><ele>7.5</ele><time>2026-04-18T10:51:54Z</time></trkpt><trkpt lat="45.13489256226481" lon="11.75991004877519"><ele>7.0</ele><time>2026-04-18T10:51:55Z</time></trkpt><trkpt lat="45.13487131583512" lon="11.759709037018443"><ele>6.5</ele><time>2026-04-18T10:51:56Z</time></trkpt><trkpt lat="45.13486709157688" lon="11.759515648216759"><ele>6.0</ele><time>2026-04-18T10:51:57Z</time></trkpt><trkpt lat="45.13485557197751" lon="11.759345496020163"><ele>6.0</ele><time>2026-04-18T10:51:58Z</time></trkpt><trkpt lat="45.134846130679435" lon="11.759190677867446"><ele>6.0</ele><time>2026-04-18T10:51:59Z</time></trkpt><trkpt lat="45.13483632118392" lon="11.759048921051376"><ele>6.0</ele><time>2026-04-18T10:52:00Z</time></trkpt><trkpt lat="45.13482393637542" lon="11.758896318467285"><ele>6.0</ele><time>2026-04-18T10:52:01Z</time></trkpt><trkpt lat="45.13481204138002" lon="11.758716367407972"><ele>6.0</ele><time>2026-04-18T10:52:02Z</time></trkpt><trkpt lat="45.1347972842077" lon="11.758529251158862"><ele>6.0</ele><time>2026-04-18T10:52:03Z</time></trkpt><trkpt lat="45.13478580737047" lon="11.75837180980957"><ele>6.0</ele><time>2026-04-18T10:52:04Z</time></trkpt><trkpt lat="45.134772217805605" lon="11.758245551575985"><ele>6.0</ele><time>2026-04-18T10:52:05Z</time></trkpt><trkpt lat="45.13476027804026" lon="11.758124466119932"><ele>6.0</ele><time>2026-04-18T10:52:06Z</time></trkpt><trkpt lat="45.13474968985636" lon="11.758006990704796"><ele>6.0</ele><time>2026-04-18T10:52:07Z</time></trkpt><trkpt lat="45.13473938761812" lon="11.757886132310166"><ele>6.0</ele><time>2026-04-18T10:52:08Z</time></trkpt><trkpt lat="45.134727574701394" lon="11.757758757490137"><ele>6.0</ele><time>2026-04-18T10:52:09Z</time></trkpt><trkpt lat="45.13471126152759" lon="11.757617854930396"><ele>6.0</ele><time>2026-04-18T10:52:10Z</time></trkpt><trkpt lat="45.13469663354617" lon="11.757483606591437"><ele>6.0</ele><time>2026-04-18T10:52:11Z</time></trkpt><trkpt lat="45.13468714906143" lon="11.757359968549864"><ele>6.0</ele><time>2026-04-18T10:52:12Z</time></trkpt><trkpt lat="45.13467756683511" lon="11.757251139913107"><ele>6.0</ele><time>2026-04-18T10:52:13Z</time></trkpt><trkpt lat="45.134664248247155" lon="11.757152004911255"><ele>6.0</ele><time>2026-04-18T10:52:14Z</time></trkpt><trkpt lat="45.13463228201585" lon="11.757065471600043"><ele>6.0</ele><time>2026-04-18T10:52:15Z</time></trkpt><trkpt lat="45.1345804515853" lon="11.756999491928743"><ele>6.0</ele><time>2026-04-18T10:52:16Z</time></trkpt><trkpt lat="45.13451714769822" lon="11.756963741954854"><ele>6.0</ele><time>2026-04-18T10:52:17Z</time></trkpt><trkpt lat="45.134425354072064" lon="11.75697954762804"><ele>6.0</ele><time>2026-04-18T10:52:18Z</time></trkpt><trkpt lat="45.13431184702861" lon="11.757039138977133"><ele>6.0</ele><time>2026-04-18T10:52:19Z</time></trkpt><trkpt lat="45.134205985341424" lon="11.757073977096036"><ele>6.0</ele><time>2026-04-18T10:52:20Z</time></trkpt><trkpt lat="45.13403051026544" lon="11.757206699635221"><ele>6.0</ele><time>2026-04-18T10:52:20.999Z</time></trkpt><trkpt lat="45.13385491741177" lon="11.757367524773713"><ele>5.666666666666667</ele><time>2026-04-18T10:52:21.999Z</time></trkpt><trkpt lat="45.13370896810134" lon="11.757495571868045"><ele>5.333333333333334</ele><time>2026-04-18T10:52:22.999Z</time></trkpt><trkpt lat="45.133577979999494" lon="11.757617559178033"><ele>5.0</ele><time>2026-04-18T10:52:23.999Z</time></trkpt><trkpt lat="45.13345346279542" lon="11.757718133401472"><ele>5.0</ele><time>2026-04-18T10:52:24.999Z</time></trkpt><trkpt lat="45.1333377364007" lon="11.757821058862824"><ele>5.0</ele><time>2026-04-18T10:52:25.999Z</time></trkpt><trkpt lat="45.133221846276726" lon="11.757926695858862"><ele>5.0</ele><time>2026-04-18T10:52:26.999Z</time></trkpt><trkpt lat="45.1331077892988" lon="11.758041567901724"><ele>5.0</ele><time>2026-04-18T10:52:27.999Z</time></trkpt><trkpt lat="45.1329830450274" lon="11.75815332940947"><ele>5.0</ele><time>2026-04-18T10:52:28.999Z</time></trkpt><trkpt lat="45.132856465530125" lon="11.758259758158532"><ele>5.0</ele><time>2026-04-18T10:52:30Z</time></trkpt><trkpt lat="45.13273678884791" lon="11.758367669849093"><ele>5.0</ele><time>2026-04-18T10:52:31Z</time></trkpt><trkpt lat="45.132619968703175" lon="11.758474519798636"><ele>5.0</ele><time>2026-04-18T10:52:32Z</time></trkpt><trkpt lat="45.1325054944081" lon="11.758576586683224"><ele>5.0</ele><time>2026-04-18T10:52:33Z</time></trkpt><trkpt lat="45.132400978812505" lon="11.758667174259925"><ele>5.0</ele><time>2026-04-18T10:52:34Z</time></trkpt><trkpt lat="45.13229598556146" lon="11.75875828711956"><ele>5.0</ele><time>2026-04-18T10:52:35Z</time></trkpt><trkpt lat="45.1321787447037" lon="11.75886019009111"><ele>5.0</ele><time>2026-04-18T10:52:36Z</time></trkpt><trkpt lat="45.13206398404086" lon="11.758957281148035"><ele>5.25</ele><time>2026-04-18T10:52:37Z</time></trkpt><trkpt lat="45.13196008788266" lon="11.759049745995718"><ele>5.5</ele><time>2026-04-18T10:52:38Z</time></trkpt><trkpt lat="45.13185302379967" lon="11.75914512004459"><ele>5.75</ele><time>2026-04-18T10:52:39Z</time></trkpt><trkpt lat="45.13174293441722" lon="11.759245490300923"><ele>6.0</ele><time>2026-04-18T10:52:40Z</time></trkpt><trkpt lat="45.13161726603466" lon="11.75935569869573"><ele>5.5</ele><time>2026-04-18T10:52:41Z</time></trkpt><trkpt lat="45.13148183920754" lon="11.759475899933054"><ele>5.0</ele><time>2026-04-18T10:52:42Z</time></trkpt><trkpt lat="45.13136204231141" lon="11.759578519865892"><ele>4.5</ele><time>2026-04-18T10:52:43Z</time></trkpt><trkpt lat="45.13123812784832" lon="11.759694775479254"><ele>4.0</ele><time>2026-04-18T10:52:44Z</time></trkpt><trkpt lat="45.13109020969377" lon="11.759819141433603"><ele>4.0</ele><time>2026-04-18T10:52:45Z</time></trkpt><trkpt lat="45.130952666988684" lon="11.75993377675663"><ele>4.0</ele><time>2026-04-18T10:52:46Z</time></trkpt><trkpt lat="45.13083223547493" lon="11.760036816499609"><ele>4.0</ele><time>2026-04-18T10:52:47Z</time></trkpt><trkpt lat="45.13071336512893" lon="11.760139337595652"><ele>4.0</ele><time>2026-04-18T10:52:48Z</time></trkpt><trkpt lat="45.130589018903926" lon="11.760247987811415"><ele>4.333333333333333</ele><time>2026-04-18T10:52:49Z</time></trkpt><trkpt lat="45.13043998298354" lon="11.760381105278626"><ele>4.666666666666667</ele><time>2026-04-18T10:52:50Z</time></trkpt><trkpt lat="45.13027288306913" lon="11.760533530610251"><ele>5.0</ele><time>2026-04-18T10:52:51Z</time></trkpt><trkpt lat="45.130115833721646" lon="11.760674390272893"><ele>5.0</ele><time>2026-04-18T10:52:52Z</time></trkpt><trkpt lat="45.12995463479279" lon="11.760816531224972"><ele>5.0</ele><time>2026-04-18T10:52:53Z</time></trkpt><trkpt lat="45.1297829185338" lon="11.760971326445953"><ele>5.0</ele><time>2026-04-18T10:52:54Z</time></trkpt><trkpt lat="45.12959622640171" lon="11.761144793076145"><ele>4.5</ele><time>2026-04-18T10:52:55Z</time></trkpt><trkpt lat="45.12938764862434" lon="11.761337936756103"><ele>4.0</ele><time>2026-04-18T10:52:56Z</time></trkpt><trkpt lat="45.12913825540577" lon="11.761531455647107"><ele>4.5</ele><time>2026-04-18T10:52:57Z</time></trkpt><trkpt lat="45.12890257392882" lon="11.761758505185314"><ele>5.0</ele><time>2026-04-18T10:52:58Z</time></trkpt><trkpt lat="45.12866094804072" lon="11.761968302076587"><ele>5.0</ele><time>2026-04-18T10:52:59Z</time></trkpt><trkpt lat="45.128416769353485" lon="11.76217597838089"><ele>5.0</ele><time>2026-04-18T10:53:00Z</time></trkpt><trkpt lat="45.12818572751664" lon="11.76237953370848"><ele>4.5</ele><time>2026-04-18T10:53:01Z</time></trkpt><trkpt lat="45.12796877522662" lon="11.762567923147666"><ele>4.0</ele><time>2026-04-18T10:53:02Z</time></trkpt><trkpt lat="45.127744373445495" lon="11.762774536311703"><ele>4.0</ele><time>2026-04-18T10:53:03Z</time></trkpt><trkpt lat="45.12750000102148" lon="11.76299989225753"><ele>4.0</ele><time>2026-04-18T10:53:04Z</time></trkpt><trkpt lat="45.12724899948121" lon="11.763225258159713"><ele>4.0</ele><time>2026-04-18T10:53:05Z</time></trkpt><trkpt lat="45.1269619579614" lon="11.76346110620204"><ele>4.0</ele><time>2026-04-18T10:53:06Z</time></trkpt><trkpt lat="45.126674552758985" lon="11.763685741013957"><ele>4.0</ele><time>2026-04-18T10:53:07Z</time></trkpt><trkpt lat="45.12639493440857" lon="11.763921004090268"><ele>4.0</ele><time>2026-04-18T10:53:08Z</time></trkpt><trkpt lat="45.126128335054524" lon="11.764159450868329"><ele>4.0</ele><time>2026-04-18T10:53:09Z</time></trkpt><trkpt lat="45.12588529650213" lon="11.764374645018478"><ele>4.0</ele><time>2026-04-18T10:53:10Z</time></trkpt><trkpt lat="45.12564674295152" lon="11.764588278028258"><ele>4.0</ele><time>2026-04-18T10:53:11Z</time></trkpt><trkpt lat="45.1253991718305" lon="11.764810583825376"><ele>4.0</ele><time>2026-04-18T10:53:12Z</time></trkpt><trkpt lat="45.12514888193557" lon="11.765030131739225"><ele>3.5</ele><time>2026-04-18T10:53:13Z</time></trkpt><trkpt lat="45.124902922917734" lon="11.76523874070617"><ele>3.0</ele><time>2026-04-18T10:53:14Z</time></trkpt><trkpt lat="45.1246729700021" lon="11.765436512763136"><ele>3.0</ele><time>2026-04-18T10:53:15Z</time></trkpt><trkpt lat="45.124452503519734" lon="11.765627991992893"><ele>3.0</ele><time>2026-04-18T10:53:16Z</time></trkpt><trkpt lat="45.12422081385943" lon="11.765843269034699"><ele>3.0</ele><time>2026-04-18T10:53:17Z</time></trkpt><trkpt lat="45.12396074713981" lon="11.7660505872378"><ele>3.0</ele><time>2026-04-18T10:53:18Z</time></trkpt><trkpt lat="45.123705274822015" lon="11.766297783967149"><ele>3.0</ele><time>2026-04-18T10:53:19Z</time></trkpt><trkpt lat="45.123434279454955" lon="11.766526506138861"><ele>3.0</ele><time>2026-04-18T10:53:20Z</time></trkpt><trkpt lat="45.123164997112276" lon="11.766756499946451"><ele>1.5</ele><time>2026-04-18T10:53:21Z</time></trkpt><trkpt lat="45.12290127915725" lon="11.76698452720586"><ele>0.0</ele><time>2026-04-18T10:53:22Z</time></trkpt><trkpt lat="45.122638333944295" lon="11.767209109254123"><ele>1.0</ele><time>2026-04-18T10:53:23Z</time></trkpt><trkpt lat="45.122380035548154" lon="11.767437898557683"><ele>2.0</ele><time>2026-04-18T10:53:24Z</time></trkpt><trkpt lat="45.122125162791406" lon="11.767667589516607"><ele>2.5</ele><time>2026-04-18T10:53:25Z</time></trkpt><trkpt lat="45.12187340135525" lon="11.76788960821583"><ele>3.0</ele><time>2026-04-18T10:53:26Z</time></trkpt><trkpt lat="45.121626349233395" lon="11.768108018266442"><ele>3.0</ele><time>2026-04-18T10:53:27Z</time></trkpt><trkpt lat="45.121384745010104" lon="11.76832321699412"><ele>3.0</ele><time>2026-04-18T10:53:28Z</time></trkpt><trkpt lat="45.121150034197896" lon="11.768537573426755"><ele>3.5</ele><time>2026-04-18T10:53:29Z</time></trkpt><trkpt lat="45.1209194661664" lon="11.76875069822007"><ele>4.0</ele><time>2026-04-18T10:53:30Z</time></trkpt><trkpt lat="45.1206969794846" lon="11.76896365361199"><ele>4.0</ele><time>2026-04-18T10:53:31Z</time></trkpt><trkpt lat="45.12047932570185" lon="11.76917571943605"><ele>4.0</ele><time>2026-04-18T10:53:32Z</time></trkpt><trkpt lat="45.120256735866164" lon="11.769397069487084"><ele>4.5</ele><time>2026-04-18T10:53:33Z</time></trkpt><trkpt lat="45.12002962626641" lon="11.769622215340172"><ele>5.0</ele><time>2026-04-18T10:53:34Z</time></trkpt><trkpt lat="45.11980228375562" lon="11.769843034398123"><ele>4.0</ele><time>2026-04-18T10:53:35Z</time></trkpt><trkpt lat="45.119588135680445" lon="11.770047334288192"><ele>3.0</ele><time>2026-04-18T10:53:36Z</time></trkpt><trkpt lat="45.11939711347773" lon="11.770238480893303"><ele>3.0</ele><time>2026-04-18T10:53:37Z</time></trkpt><trkpt lat="45.119212747075885" lon="11.770413223666468"><ele>3.0</ele><time>2026-04-18T10:53:38Z</time></trkpt><trkpt lat="45.11902309334165" lon="11.770593829749401"><ele>2.5</ele><time>2026-04-18T10:53:39Z</time></trkpt><trkpt lat="45.118820221078316" lon="11.770771872794063"><ele>2.0</ele><time>2026-04-18T10:53:40Z</time></trkpt><trkpt lat="45.11861856260845" lon="11.770952512499676"><ele>2.5</ele><time>2026-04-18T10:53:41Z</time></trkpt><trkpt lat="45.11841770194529" lon="11.771136396058399"><ele>3.0</ele><time>2026-04-18T10:53:42Z</time></trkpt><trkpt lat="45.11821416919454" lon="11.771331435503887"><ele>3.0</ele><time>2026-04-18T10:53:43Z</time></trkpt><trkpt lat="45.11800686146146" lon="11.771538113273893"><ele>3.0</ele><time>2026-04-18T10:53:44Z</time></trkpt><trkpt lat="45.11779852119159" lon="11.771749691536625"><ele>2.5</ele><time>2026-04-18T10:53:45Z</time></trkpt><trkpt lat="45.11758634692006" lon="11.771961938797041"><ele>2.0</ele><time>2026-04-18T10:53:46Z</time></trkpt><trkpt lat="45.11737850874631" lon="11.772168240964032"><ele>3.0</ele><time>2026-04-18T10:53:47Z</time></trkpt><trkpt lat="45.117185237588416" lon="11.77235730302975"><ele>4.0</ele><time>2026-04-18T10:53:48Z</time></trkpt><trkpt lat="45.117006352239414" lon="11.77253111996395"><ele>3.6666666666666665</ele><time>2026-04-18T10:53:49Z</time></trkpt><trkpt lat="45.11683484108691" lon="11.772695156040076"><ele>3.333333333333333</ele><time>2026-04-18T10:53:50Z</time></trkpt><trkpt lat="45.11666890591273" lon="11.772853793666833"><ele>3.0</ele><time>2026-04-18T10:53:51Z</time></trkpt><trkpt lat="45.11649738619585" lon="11.773016652034551"><ele>3.666666666666667</ele><time>2026-04-18T10:53:52Z</time></trkpt><trkpt lat="45.11632231421603" lon="11.773190154281542"><ele>4.333333333333334</ele><time>2026-04-18T10:53:53Z</time></trkpt><trkpt lat="45.1161546198939" lon="11.773357693195406"><ele>5.0</ele><time>2026-04-18T10:53:54Z</time></trkpt><trkpt lat="45.11600032375925" lon="11.773510943995634"><ele>4.666666666666667</ele><time>2026-04-18T10:53:55Z</time></trkpt><trkpt lat="45.11584855368699" lon="11.77366209167704"><ele>4.333333333333333</ele><time>2026-04-18T10:53:56Z</time></trkpt><trkpt lat="45.11570302420066" lon="11.77381633273795"><ele>4.0</ele><time>2026-04-18T10:53:57Z</time></trkpt><trkpt lat="45.11556618480459" lon="11.77396081942629"><ele>4.666666666666666</ele><time>2026-04-18T10:53:58Z</time></trkpt><trkpt lat="45.11543699647618" lon="11.774091335703728"><ele>5.333333333333333</ele><time>2026-04-18T10:53:59Z</time></trkpt><trkpt lat="45.11531521442914" lon="11.774209077116513"><ele>6.0</ele><time>2026-04-18T10:54:00Z</time></trkpt><trkpt lat="45.115194357101984" lon="11.77432481060721"><ele>5.666666666666667</ele><time>2026-04-18T10:54:01Z</time></trkpt><trkpt lat="45.11507142893383" lon="11.774445416742214"><ele>5.333333333333334</ele><time>2026-04-18T10:54:02Z</time></trkpt><trkpt lat="45.114947258629265" lon="11.774570358990827"><ele>5.0</ele><time>2026-04-18T10:54:03Z</time></trkpt><trkpt lat="45.11481936812325" lon="11.77469870018808"><ele>5.0</ele><time>2026-04-18T10:54:04Z</time></trkpt><trkpt lat="45.11468523293349" lon="11.774828917498906"><ele>5.0</ele><time>2026-04-18T10:54:05Z</time></trkpt><trkpt lat="45.11454865607487" lon="11.774969610892944"><ele>5.0</ele><time>2026-04-18T10:54:06Z</time></trkpt><trkpt lat="45.114407579669596" lon="11.775105501594606"><ele>5.0</ele><time>2026-04-18T10:54:07Z</time></trkpt><trkpt lat="45.114268226069974" lon="11.77523893156176"><ele>5.0</ele><time>2026-04-18T10:54:08Z</time></trkpt><trkpt lat="45.1141319782238" lon="11.775369856514295"><ele>5.0</ele><time>2026-04-18T10:54:09Z</time></trkpt><trkpt lat="45.11399658357236" lon="11.775498418877522"><ele>5.25</ele><time>2026-04-18T10:54:10Z</time></trkpt><trkpt lat="45.11387065296665" lon="11.775623521858186"><ele>5.5</ele><time>2026-04-18T10:54:11Z</time></trkpt><trkpt lat="45.113751090383694" lon="11.775738820773425"><ele>5.75</ele><time>2026-04-18T10:54:12Z</time></trkpt><trkpt lat="45.113633576200044" lon="11.775847764471706"><ele>6.0</ele><time>2026-04-18T10:54:13Z</time></trkpt><trkpt lat="45.11351234037473" lon="11.77596753012025"><ele>5.666666666666667</ele><time>2026-04-18T10:54:14Z</time></trkpt><trkpt lat="45.113388339340105" lon="11.776088710743467"><ele>5.333333333333334</ele><time>2026-04-18T10:54:15Z</time></trkpt><trkpt lat="45.11326527432353" lon="11.776207345306476"><ele>5.0</ele><time>2026-04-18T10:54:16Z</time></trkpt><trkpt lat="45.11313982714874" lon="11.776336519140818"><ele>5.0</ele><time>2026-04-18T10:54:17Z</time></trkpt><trkpt lat="45.113006843467105" lon="11.7764587945085"><ele>5.0</ele><time>2026-04-18T10:54:18Z</time></trkpt><trkpt lat="45.11287853693163" lon="11.776584229138749"><ele>5.0</ele><time>2026-04-18T10:54:19Z</time></trkpt><trkpt lat="45.11274670287042" lon="11.776717232960216"><ele>5.0</ele><time>2026-04-18T10:54:20Z</time></trkpt><trkpt lat="45.11261106495032" lon="11.776849675503763"><ele>5.0</ele><time>2026-04-18T10:54:21Z</time></trkpt><trkpt lat="45.11247940764571" lon="11.776977544176471"><ele>5.0</ele><time>2026-04-18T10:54:22Z</time></trkpt><trkpt lat="45.11235212302384" lon="11.777094232968214"><ele>4.333333333333334</ele><time>2026-04-18T10:54:23Z</time></trkpt><trkpt lat="45.112217051407995" lon="11.777226832178558"><ele>3.666666666666667</ele><time>2026-04-18T10:54:24Z</time></trkpt><trkpt lat="45.112075315115916" lon="11.777356285098566"><ele>3.0</ele><time>2026-04-18T10:54:25Z</time></trkpt><trkpt lat="45.11193009913707" lon="11.777500087855389"><ele>3.0</ele><time>2026-04-18T10:54:26Z</time></trkpt><trkpt lat="45.11178607072847" lon="11.777640514124249"><ele>3.0</ele><time>2026-04-18T10:54:27Z</time></trkpt><trkpt lat="45.11164518633233" lon="11.777777270581575"><ele>3.0</ele><time>2026-04-18T10:54:28Z</time></trkpt><trkpt lat="45.1115203361633" lon="11.777897330561865"><ele>4.0</ele><time>2026-04-18T10:54:29Z</time></trkpt><trkpt lat="45.111391058553025" lon="11.778021336387646"><ele>5.0</ele><time>2026-04-18T10:54:30Z</time></trkpt><trkpt lat="45.11126905110847" lon="11.778144219655193"><ele>6.0</ele><time>2026-04-18T10:54:31Z</time></trkpt><trkpt lat="45.11114929521936" lon="11.778261548301932"><ele>6.0</ele><time>2026-04-18T10:54:32Z</time></trkpt><trkpt lat="45.11102971891173" lon="11.778385826074414"><ele>6.0</ele><time>2026-04-18T10:54:33Z</time></trkpt><trkpt lat="45.11089136754253" lon="11.778521029719927"><ele>6.0</ele><time>2026-04-18T10:54:34Z</time></trkpt><trkpt lat="45.11074659537648" lon="11.778655210533215"><ele>5.666666666666667</ele><time>2026-04-18T10:54:35Z</time></trkpt><trkpt lat="45.11059843849264" lon="11.778794865000753"><ele>5.333333333333334</ele><time>2026-04-18T10:54:36Z</time></trkpt><trkpt lat="45.11045805895249" lon="11.778932258869341"><ele>5.0</ele><time>2026-04-18T10:54:37Z</time></trkpt><trkpt lat="45.110324143904975" lon="11.779059578924647"><ele>5.0</ele><time>2026-04-18T10:54:38Z</time></trkpt><trkpt lat="45.11019752121775" lon="11.779179454322966"><ele>5.0</ele><time>2026-04-18T10:54:39Z</time></trkpt><trkpt lat="45.1100679431229" lon="11.779308203292947"><ele>5.0</ele><time>2026-04-18T10:54:40Z</time></trkpt><trkpt lat="45.10993069946354" lon="11.77944118185267"><ele>5.0</ele><time>2026-04-18T10:54:41Z</time></trkpt><trkpt lat="45.1097837108089" lon="11.779599987221781"><ele>5.0</ele><time>2026-04-18T10:54:42Z</time></trkpt><trkpt lat="45.1096502616946" lon="11.77973178889447"><ele>5.0</ele><time>2026-04-18T10:54:43Z</time></trkpt><trkpt lat="45.109523322526655" lon="11.779854231333061"><ele>5.0</ele><time>2026-04-18T10:54:44Z</time></trkpt><trkpt lat="45.10939949147604" lon="11.779973071246888"><ele>5.0</ele><time>2026-04-18T10:54:45Z</time></trkpt><trkpt lat="45.10926722317288" lon="11.780096465302138"><ele>5.0</ele><time>2026-04-18T10:54:46Z</time></trkpt><trkpt lat="45.109134311894614" lon="11.780224595600677"><ele>4.666666666666667</ele><time>2026-04-18T10:54:47Z</time></trkpt><trkpt lat="45.109007802795865" lon="11.780348538325146"><ele>4.333333333333333</ele><time>2026-04-18T10:54:48Z</time></trkpt><trkpt lat="45.108878743909386" lon="11.780472752646537"><ele>4.0</ele><time>2026-04-18T10:54:49Z</time></trkpt><trkpt lat="45.108759570062844" lon="11.780584037683393"><ele>4.0</ele><time>2026-04-18T10:54:50Z</time></trkpt><trkpt lat="45.108643275833046" lon="11.780700591492645"><ele>4.0</ele><time>2026-04-18T10:54:51Z</time></trkpt><trkpt lat="45.10852748537069" lon="11.780815779673038"><ele>4.0</ele><time>2026-04-18T10:54:52Z</time></trkpt><trkpt lat="45.10840504559528" lon="11.780926982874748"><ele>4.0</ele><time>2026-04-18T10:54:53Z</time></trkpt><trkpt lat="45.1082954292184" lon="11.781053662543933"><ele>4.0</ele><time>2026-04-18T10:54:54Z</time></trkpt><trkpt lat="45.108167877308105" lon="11.781169521286786"><ele>4.0</ele><time>2026-04-18T10:54:55Z</time></trkpt><trkpt lat="45.10806178221206" lon="11.78126847469412"><ele>4.0</ele><time>2026-04-18T10:54:56Z</time></trkpt><trkpt lat="45.1079622256829" lon="11.781373884167214"><ele>4.0</ele><time>2026-04-18T10:54:57Z</time></trkpt><trkpt lat="45.10786174263688" lon="11.78146799189101"><ele>4.0</ele><time>2026-04-18T10:54:58Z</time></trkpt><trkpt lat="45.10775635132095" lon="11.781563450740276"><ele>4.0</ele><time>2026-04-18T10:54:59Z</time></trkpt><trkpt lat="45.10765436638853" lon="11.781668810123485"><ele>4.0</ele><time>2026-04-18T10:55:00Z</time></trkpt><trkpt lat="45.10753818046311" lon="11.781784838248786"><ele>4.0</ele><time>2026-04-18T10:55:01Z</time></trkpt><trkpt lat="45.107410216548516" lon="11.781917789434777"><ele>5.0</ele><time>2026-04-18T10:55:02Z</time></trkpt><trkpt lat="45.10729628964716" lon="11.782048235863028"><ele>6.0</ele><time>2026-04-18T10:55:03Z</time></trkpt><trkpt lat="45.10718428101783" lon="11.782159233540439"><ele>7.0</ele><time>2026-04-18T10:55:04Z</time></trkpt><trkpt lat="45.10707787557421" lon="11.782278320011539"><ele>8.0</ele><time>2026-04-18T10:55:05Z</time></trkpt><trkpt lat="45.10698775577381" lon="11.78239539797004"><ele>8.0</ele><time>2026-04-18T10:55:06Z</time></trkpt><trkpt lat="45.106896179305984" lon="11.782512000459217"><ele>8.0</ele><time>2026-04-18T10:55:07Z</time></trkpt><trkpt lat="45.10680243391867" lon="11.782623634513358"><ele>8.0</ele><time>2026-04-18T10:55:08Z</time></trkpt><trkpt lat="45.10672229244693" lon="11.782728055273553"><ele>8.0</ele><time>2026-04-18T10:55:09Z</time></trkpt><trkpt lat="45.1066004439519" lon="11.782859300071808"><ele>8.0</ele><time>2026-04-18T10:55:10Z</time></trkpt><trkpt lat="45.10651305729668" lon="11.782953012271951"><ele>8.0</ele><time>2026-04-18T10:55:11Z</time></trkpt><trkpt lat="45.10641997035189" lon="11.78302995702744"><ele>8.0</ele><time>2026-04-18T10:55:12Z</time></trkpt><trkpt lat="45.10636058394267" lon="11.78311220647206"><ele>8.0</ele><time>2026-04-18T10:55:13Z</time></trkpt><trkpt lat="45.106296158456914" lon="11.783184970195945"><ele>8.0</ele><time>2026-04-18T10:55:14Z</time></trkpt><trkpt lat="45.106234395715866" lon="11.78326549735672"><ele>8.0</ele><time>2026-04-18T10:55:15Z</time></trkpt><trkpt lat="45.10616728992381" lon="11.78335666682895"><ele>8.0</ele><time>2026-04-18T10:55:16Z</time></trkpt><trkpt lat="45.1060887840109" lon="11.783445228226071"><ele>8.0</ele><time>2026-04-18T10:55:17Z</time></trkpt><trkpt lat="45.106015212097056" lon="11.783525744594565"><ele>8.0</ele><time>2026-04-18T10:55:18Z</time></trkpt><trkpt lat="45.105948040268075" lon="11.783604097480467"><ele>8.0</ele><time>2026-04-18T10:55:19Z</time></trkpt><trkpt lat="45.10588102021061" lon="11.783690009245385"><ele>8.0</ele><time>2026-04-18T10:55:20Z</time></trkpt><trkpt lat="45.10580551985844" lon="11.783775901612984"><ele>8.0</ele><time>2026-04-18T10:55:21Z</time></trkpt><trkpt lat="45.105730132910146" lon="11.783854986991667"><ele>8.0</ele><time>2026-04-18T10:55:22Z</time></trkpt><trkpt lat="45.10564217247779" lon="11.783956653058151"><ele>8.0</ele><time>2026-04-18T10:55:23Z</time></trkpt><trkpt lat="45.10554373510402" lon="11.784071140481116"><ele>8.0</ele><time>2026-04-18T10:55:24Z</time></trkpt><trkpt lat="45.105452328604656" lon="11.784171515965204"><ele>8.0</ele><time>2026-04-18T10:55:25Z</time></trkpt><trkpt lat="45.10536665082277" lon="11.784264216803606"><ele>8.0</ele><time>2026-04-18T10:55:26Z</time></trkpt><trkpt lat="45.105282894887424" lon="11.784354555400656"><ele>8.0</ele><time>2026-04-18T10:55:27Z</time></trkpt><trkpt lat="45.105192781827704" lon="11.78445146196689"><ele>8.0</ele><time>2026-04-18T10:55:28Z</time></trkpt><trkpt lat="45.1051038394659" lon="11.784552570601802"><ele>8.0</ele><time>2026-04-18T10:55:29Z</time></trkpt><trkpt lat="45.10500601360322" lon="11.784664815796882"><ele>7.25</ele><time>2026-04-18T10:55:30Z</time></trkpt><trkpt lat="45.10489311493555" lon="11.784789675286929"><ele>6.5</ele><time>2026-04-18T10:55:31Z</time></trkpt><trkpt lat="45.10475248858115" lon="11.78490847466344"><ele>5.75</ele><time>2026-04-18T10:55:32Z</time></trkpt><trkpt lat="45.10463711890458" lon="11.785007779981294"><ele>5.0</ele><time>2026-04-18T10:55:33Z</time></trkpt><trkpt lat="45.104518913758" lon="11.785105090753579"><ele>5.0</ele><time>2026-04-18T10:55:34Z</time></trkpt><trkpt lat="45.104392853812875" lon="11.785201815068149"><ele>5.0</ele><time>2026-04-18T10:55:35Z</time></trkpt><trkpt lat="45.10425539134052" lon="11.785293340657939"><ele>5.0</ele><time>2026-04-18T10:55:36Z</time></trkpt><trkpt lat="45.10410759024927" lon="11.785369448845938"><ele>4.666666666666667</ele><time>2026-04-18T10:55:37Z</time></trkpt><trkpt lat="45.103954318644796" lon="11.785433039156885"><ele>4.333333333333333</ele><time>2026-04-18T10:55:38Z</time></trkpt><trkpt lat="45.103799868978896" lon="11.785481271452994"><ele>4.0</ele><time>2026-04-18T10:55:39Z</time></trkpt><trkpt lat="45.10365289455628" lon="11.785518630384724"><ele>4.0</ele><time>2026-04-18T10:55:40Z</time></trkpt><trkpt lat="45.1035054367079" lon="11.785545100602754"><ele>4.0</ele><time>2026-04-18T10:55:41Z</time></trkpt><trkpt lat="45.103360883953535" lon="11.785557269254694"><ele>4.0</ele><time>2026-04-18T10:55:42Z</time></trkpt><trkpt lat="45.10321375716627" lon="11.78556074087552"><ele>4.0</ele><time>2026-04-18T10:55:43Z</time></trkpt><trkpt lat="45.10305935003132" lon="11.785552797607071"><ele>4.0</ele><time>2026-04-18T10:55:44Z</time></trkpt><trkpt lat="45.10289775805774" lon="11.785548250359723"><ele>4.0</ele><time>2026-04-18T10:55:45Z</time></trkpt><trkpt lat="45.10273245228393" lon="11.785548475384827"><ele>4.0</ele><time>2026-04-18T10:55:46Z</time></trkpt><trkpt lat="45.1025650293998" lon="11.785550799492158"><ele>3.333333333333333</ele><time>2026-04-18T10:55:47Z</time></trkpt><trkpt lat="45.10239828595467" lon="11.785550661727694"><ele>2.6666666666666665</ele><time>2026-04-18T10:55:48Z</time></trkpt><trkpt lat="45.10223409124909" lon="11.785546655229988"><ele>2.0</ele><time>2026-04-18T10:55:49Z</time></trkpt><trkpt lat="45.102072674707095" lon="11.785543034797369"><ele>2.0</ele><time>2026-04-18T10:55:50Z</time></trkpt><trkpt lat="45.10191198850114" lon="11.78554149234675"><ele>2.0</ele><time>2026-04-18T10:55:51Z</time></trkpt><trkpt lat="45.10174394258962" lon="11.785543969374961"><ele>2.0</ele><time>2026-04-18T10:55:52Z</time></trkpt><trkpt lat="45.10157323447374" lon="11.78553995586309"><ele>1.6666666666666665</ele><time>2026-04-18T10:55:53Z</time></trkpt><trkpt lat="45.10140245642193" lon="11.785534081606798"><ele>1.3333333333333333</ele><time>2026-04-18T10:55:54Z</time></trkpt><trkpt lat="45.10123152525032" lon="11.785536438042733"><ele>1.0</ele><time>2026-04-18T10:55:55Z</time></trkpt><trkpt lat="45.10105856308254" lon="11.785540553909604"><ele>1.0</ele><time>2026-04-18T10:55:56Z</time></trkpt><trkpt lat="45.100886248105034" lon="11.785535182345793"><ele>1.0</ele><time>2026-04-18T10:55:57Z</time></trkpt><trkpt lat="45.10071082516408" lon="11.78553779161419"><ele>1.0</ele><time>2026-04-18T10:55:58Z</time></trkpt><trkpt lat="45.10053893863381" lon="11.785533649471718"><ele>1.0</ele><time>2026-04-18T10:55:59Z</time></trkpt><trkpt lat="45.10036349040883" lon="11.785533234520178"><ele>1.0</ele><time>2026-04-18T10:56:00Z</time></trkpt><trkpt lat="45.10019340671261" lon="11.785532648872149"><ele>1.0</ele><time>2026-04-18T10:56:01Z</time></trkpt><trkpt lat="45.10003205711369" lon="11.785533293255355"><ele>1.0</ele><time>2026-04-18T10:56:02Z</time></trkpt><trkpt lat="45.09986166153413" lon="11.785532879465258"><ele>1.0</ele><time>2026-04-18T10:56:03Z</time></trkpt><trkpt lat="45.09967814505727" lon="11.785535352350855"><ele>1.0</ele><time>2026-04-18T10:56:04Z</time></trkpt><trkpt lat="45.09949824285776" lon="11.785535968848805"><ele>1.0</ele><time>2026-04-18T10:56:05Z</time></trkpt><trkpt lat="45.099331665289235" lon="11.785537524123264"><ele>1.0</ele><time>2026-04-18T10:56:06Z</time></trkpt><trkpt lat="45.0991658760073" lon="11.785540788020004"><ele>1.0</ele><time>2026-04-18T10:56:07Z</time></trkpt><trkpt lat="45.09898343197698" lon="11.785545398054088"><ele>1.0</ele><time>2026-04-18T10:56:08Z</time></trkpt><trkpt lat="45.09879435880528" lon="11.785548467578959"><ele>1.0</ele><time>2026-04-18T10:56:09Z</time></trkpt><trkpt lat="45.09858630193843" lon="11.785536711883633"><ele>1.0</ele><time>2026-04-18T10:56:10Z</time></trkpt><trkpt lat="45.09837573394873" lon="11.785521896424168"><ele>1.0</ele><time>2026-04-18T10:56:11Z</time></trkpt><trkpt lat="45.09816927905039" lon="11.785515088721823"><ele>1.0</ele><time>2026-04-18T10:56:12Z</time></trkpt><trkpt lat="45.097969745209575" lon="11.785510496838107"><ele>1.0</ele><time>2026-04-18T10:56:13Z</time></trkpt><trkpt lat="45.09777428615513" lon="11.785507790831222"><ele>1.0</ele><time>2026-04-18T10:56:14Z</time></trkpt><trkpt lat="45.097581447200945" lon="11.785502940446541"><ele>1.0</ele><time>2026-04-18T10:56:15Z</time></trkpt><trkpt lat="45.09740173872746" lon="11.785497461931994"><ele>1.0</ele><time>2026-04-18T10:56:16Z</time></trkpt><trkpt lat="45.097230528615036" lon="11.785493868667814"><ele>1.0</ele><time>2026-04-18T10:56:17Z</time></trkpt><trkpt lat="45.0970639035534" lon="11.785492804362084"><ele>1.0</ele><time>2026-04-18T10:56:18Z</time></trkpt><trkpt lat="45.09688270981343" lon="11.785492293919622"><ele>1.0</ele><time>2026-04-18T10:56:19Z</time></trkpt><trkpt lat="45.09669069539236" lon="11.785494685274806"><ele>1.3333333333333333</ele><time>2026-04-18T10:56:20Z</time></trkpt><trkpt lat="45.09649929083621" lon="11.785495814991474"><ele>1.6666666666666665</ele><time>2026-04-18T10:56:21Z</time></trkpt><trkpt lat="45.09631154780476" lon="11.785494883326292"><ele>2.0</ele><time>2026-04-18T10:56:22Z</time></trkpt><trkpt lat="45.09612641309403" lon="11.785493565080008"><ele>2.0</ele><time>2026-04-18T10:56:23Z</time></trkpt><trkpt lat="45.09594170395871" lon="11.785488142155627"><ele>2.0</ele><time>2026-04-18T10:56:24Z</time></trkpt><trkpt lat="45.0957684308323" lon="11.78548402942486"><ele>2.0</ele><time>2026-04-18T10:56:25Z</time></trkpt><trkpt lat="45.09560961262656" lon="11.785481504050004"><ele>1.3333333333333333</ele><time>2026-04-18T10:56:26Z</time></trkpt><trkpt lat="45.09545555673854" lon="11.785478707069348"><ele>0.6666666666666666</ele><time>2026-04-18T10:56:27Z</time></trkpt><trkpt lat="45.09530069538356" lon="11.785474267667587"><ele>0.0</ele><time>2026-04-18T10:56:28Z</time></trkpt><trkpt lat="45.09513952649486" lon="11.785470614882218"><ele>0.0</ele><time>2026-04-18T10:56:29Z</time></trkpt><trkpt lat="45.09497502296127" lon="11.785469056891518"><ele>0.0</ele><time>2026-04-18T10:56:30Z</time></trkpt><trkpt lat="45.09480808867584" lon="11.78546962808358"><ele>0.0</ele><time>2026-04-18T10:56:31Z</time></trkpt><trkpt lat="45.094647402678795" lon="11.785466811650124"><ele>-0.25</ele><time>2026-04-18T10:56:32Z</time></trkpt><trkpt lat="45.09449986067139" lon="11.785460491183679"><ele>-0.5</ele><time>2026-04-18T10:56:33Z</time></trkpt><trkpt lat="45.09435786616091" lon="11.78546010055696"><ele>-0.75</ele><time>2026-04-18T10:56:34Z</time></trkpt><trkpt lat="45.094206782025715" lon="11.785462475208545"><ele>-1.0</ele><time>2026-04-18T10:56:35Z</time></trkpt><trkpt lat="45.09403514377888" lon="11.785462899554052"><ele>-0.3333333333333333</ele><time>2026-04-18T10:56:36Z</time></trkpt><trkpt lat="45.093861246785664" lon="11.785458137247394"><ele>0.3333333333333333</ele><time>2026-04-18T10:56:37Z</time></trkpt><trkpt lat="45.09369084107286" lon="11.785452354053863"><ele>1.0</ele><time>2026-04-18T10:56:38Z</time></trkpt><trkpt lat="45.093522253731564" lon="11.78545004981206"><ele>1.0</ele><time>2026-04-18T10:56:39Z</time></trkpt><trkpt lat="45.09335155739455" lon="11.785447629805201"><ele>1.0</ele><time>2026-04-18T10:56:40Z</time></trkpt><trkpt lat="45.0931799185033" lon="11.785449124399298"><ele>1.0</ele><time>2026-04-18T10:56:41Z</time></trkpt><trkpt lat="45.09300911146501" lon="11.78544698183578"><ele>0.6666666666666666</ele><time>2026-04-18T10:56:42Z</time></trkpt><trkpt lat="45.09283952854998" lon="11.785444799705846"><ele>0.3333333333333333</ele><time>2026-04-18T10:56:43Z</time></trkpt><trkpt lat="45.092674774565104" lon="11.785438137932314"><ele>0.0</ele><time>2026-04-18T10:56:44Z</time></trkpt><trkpt lat="45.09250957250317" lon="11.785437281488887"><ele>0.6666666666666666</ele><time>2026-04-18T10:56:45Z</time></trkpt><trkpt lat="45.09234722817791" lon="11.785435303557867"><ele>1.3333333333333333</ele><time>2026-04-18T10:56:46Z</time></trkpt><trkpt lat="45.0921819365479" lon="11.785433674907292"><ele>2.0</ele><time>2026-04-18T10:56:47Z</time></trkpt><trkpt lat="45.09201434095159" lon="11.78543110432494"><ele>2.0</ele><time>2026-04-18T10:56:48Z</time></trkpt><trkpt lat="45.09184306804521" lon="11.785431328845908"><ele>2.0</ele><time>2026-04-18T10:56:49Z</time></trkpt><trkpt lat="45.09167286620654" lon="11.785431447478521"><ele>2.0</ele><time>2026-04-18T10:56:50Z</time></trkpt><trkpt lat="45.09150259669718" lon="11.78542841787191"><ele>2.0</ele><time>2026-04-18T10:56:51Z</time></trkpt><trkpt lat="45.09134248572349" lon="11.785428311858904"><ele>2.0</ele><time>2026-04-18T10:56:52Z</time></trkpt><trkpt lat="45.09117839580235" lon="11.78542551549134"><ele>2.0</ele><time>2026-04-18T10:56:53Z</time></trkpt><trkpt lat="45.09098688181357" lon="11.785429427927552"><ele>2.0</ele><time>2026-04-18T10:56:54Z</time></trkpt><trkpt lat="45.0907741493051" lon="11.785428283297664"><ele>2.0</ele><time>2026-04-18T10:56:55Z</time></trkpt><trkpt lat="45.0905512829986" lon="11.785428873810284"><ele>2.0</ele><time>2026-04-18T10:56:56Z</time></trkpt><trkpt lat="45.09032919424148" lon="11.785426025611716"><ele>2.0</ele><time>2026-04-18T10:56:57Z</time></trkpt><trkpt lat="45.090112709876" lon="11.785417221607803"><ele>2.0</ele><time>2026-04-18T10:56:58Z</time></trkpt><trkpt lat="45.08991223480489" lon="11.785404685273761"><ele>2.0</ele><time>2026-04-18T10:56:59Z</time></trkpt><trkpt lat="45.08971911879541" lon="11.785398752519793"><ele>2.0</ele><time>2026-04-18T10:57:00Z</time></trkpt><trkpt lat="45.08951553907569" lon="11.785398163678"><ele>2.0</ele><time>2026-04-18T10:57:01Z</time></trkpt><trkpt lat="45.08929475532692" lon="11.785403784284345"><ele>2.0</ele><time>2026-04-18T10:57:02Z</time></trkpt><trkpt lat="45.08906632755045" lon="11.785407541958284"><ele>2.6666666666666665</ele><time>2026-04-18T10:57:03Z</time></trkpt><trkpt lat="45.08884100709627" lon="11.785404836277381"><ele>3.333333333333333</ele><time>2026-04-18T10:57:04Z</time></trkpt><trkpt lat="45.08862617532468" lon="11.785390195056403"><ele>4.0</ele><time>2026-04-18T10:57:05Z</time></trkpt><trkpt lat="45.088429955903116" lon="11.7853741196652"><ele>3.0</ele><time>2026-04-18T10:57:06Z</time></trkpt><trkpt lat="45.08824812618895" lon="11.785363134972268"><ele>2.0</ele><time>2026-04-18T10:57:07Z</time></trkpt><trkpt lat="45.08806904852872" lon="11.785363366340645"><ele>1.0</ele><time>2026-04-18T10:57:08Z</time></trkpt><trkpt lat="45.087874318552686" lon="11.785368986674936"><ele>1.0</ele><time>2026-04-18T10:57:09Z</time></trkpt><trkpt lat="45.08767601467892" lon="11.785370282111096"><ele>1.0</ele><time>2026-04-18T10:57:10Z</time></trkpt><trkpt lat="45.08747705856289" lon="11.785369907897392"><ele>1.0</ele><time>2026-04-18T10:57:11Z</time></trkpt><trkpt lat="45.087271819279" lon="11.785369043207638"><ele>1.6666666666666665</ele><time>2026-04-18T10:57:12Z</time></trkpt><trkpt lat="45.08706587614252" lon="11.785368980053466"><ele>2.3333333333333335</ele><time>2026-04-18T10:57:13Z</time></trkpt><trkpt lat="45.086871023609824" lon="11.785372970224305"><ele>3.0</ele><time>2026-04-18T10:57:14Z</time></trkpt><trkpt lat="45.08669541869693" lon="11.785374820082321"><ele>3.0</ele><time>2026-04-18T10:57:15Z</time></trkpt><trkpt lat="45.08652961509857" lon="11.785373621405645"><ele>3.0</ele><time>2026-04-18T10:57:16Z</time></trkpt><trkpt lat="45.086370580640974" lon="11.785364871009799"><ele>3.0</ele><time>2026-04-18T10:57:17Z</time></trkpt><trkpt lat="45.08620571675869" lon="11.78536020019152"><ele>3.0</ele><time>2026-04-18T10:57:18Z</time></trkpt><trkpt lat="45.0860290407922" lon="11.785363831359632"><ele>3.0</ele><time>2026-04-18T10:57:19Z</time></trkpt><trkpt lat="45.08584703138521" lon="11.785365156103294"><ele>3.0</ele><time>2026-04-18T10:57:20Z</time></trkpt><trkpt lat="45.08566940384719" lon="11.78535750879831"><ele>3.333333333333333</ele><time>2026-04-18T10:57:21Z</time></trkpt><trkpt lat="45.08550704512435" lon="11.78534683648489"><ele>3.6666666666666665</ele><time>2026-04-18T10:57:22Z</time></trkpt><trkpt lat="45.08535693808835" lon="11.785338843764599"><ele>4.0</ele><time>2026-04-18T10:57:23Z</time></trkpt><trkpt lat="45.08521679217456" lon="11.78533187225016"><ele>4.0</ele><time>2026-04-18T10:57:24Z</time></trkpt><trkpt lat="45.085087023752436" lon="11.785324818332665"><ele>4.0</ele><time>2026-04-18T10:57:25Z</time></trkpt><trkpt lat="45.084963126854994" lon="11.78532215905208"><ele>4.0</ele><time>2026-04-18T10:57:26Z</time></trkpt><trkpt lat="45.08483739347541" lon="11.78532588521876"><ele>4.0</ele><time>2026-04-18T10:57:27Z</time></trkpt><trkpt lat="45.08470337721847" lon="11.785330389275993"><ele>3.5</ele><time>2026-04-18T10:57:28Z</time></trkpt><trkpt lat="45.084564347529884" lon="11.785326055257496"><ele>3.0</ele><time>2026-04-18T10:57:29Z</time></trkpt><trkpt lat="45.084426099994154" lon="11.785323212959591"><ele>2.5</ele><time>2026-04-18T10:57:30Z</time></trkpt><trkpt lat="45.08429936475953" lon="11.785322622573265"><ele>2.0</ele><time>2026-04-18T10:57:31Z</time></trkpt><trkpt lat="45.08418705552342" lon="11.785314453030145"><ele>2.0</ele><time>2026-04-18T10:57:32Z</time></trkpt><trkpt lat="45.084082416846194" lon="11.785297256897879"><ele>2.0</ele><time>2026-04-18T10:57:33Z</time></trkpt><trkpt lat="45.08399194973979" lon="11.78525441125541"><ele>2.0</ele><time>2026-04-18T10:57:34Z</time></trkpt><trkpt lat="45.08391354804923" lon="11.78520255768502"><ele>2.0</ele><time>2026-04-18T10:57:35Z</time></trkpt><trkpt lat="45.08383428221199" lon="11.785143406227927"><ele>2.0</ele><time>2026-04-18T10:57:36Z</time></trkpt><trkpt lat="45.083751895067955" lon="11.785084345059813"><ele>1.9999999999999998</ele><time>2026-04-18T10:57:37Z</time></trkpt><trkpt lat="45.08368770066456" lon="11.785012861137494"><ele>2.0</ele><time>2026-04-18T10:57:38Z</time></trkpt><trkpt lat="45.08363152077285" lon="11.784957142517534"><ele>2.0</ele><time>2026-04-18T10:57:39Z</time></trkpt><trkpt lat="45.083539819359565" lon="11.784829858095613"><ele>2.0</ele><time>2026-04-18T10:57:41Z</time></trkpt><trkpt lat="45.083482199358706" lon="11.784748208889614"><ele>1.9999999999999998</ele><time>2026-04-18T10:57:42Z</time></trkpt><trkpt lat="45.08343224076251" lon="11.784660255983397"><ele>2.0</ele><time>2026-04-18T10:57:43Z</time></trkpt><trkpt lat="45.0833777108035" lon="11.784565910821573"><ele>2.0</ele><time>2026-04-18T10:57:44Z</time></trkpt><trkpt lat="45.08331204698777" lon="11.784494021635405"><ele>2.0</ele><time>2026-04-18T10:57:45Z</time></trkpt><trkpt lat="45.08322523168916" lon="11.784433938129531"><ele>2.0</ele><time>2026-04-18T10:57:46Z</time></trkpt><trkpt lat="45.083125466589166" lon="11.784429506637684"><ele>2.0</ele><time>2026-04-18T10:57:47Z</time></trkpt><trkpt lat="45.08304212393374" lon="11.784326828013567"><ele>2.0</ele><time>2026-04-18T10:57:48Z</time></trkpt><trkpt lat="45.082959839368066" lon="11.784258320971531"><ele>1.0</ele><time>2026-04-18T10:57:49Z</time></trkpt><trkpt lat="45.082899674066326" lon="11.78414527940676"><ele>0.0</ele><time>2026-04-18T10:57:50Z</time></trkpt><trkpt lat="45.0828674419937" lon="11.783992772472379"><ele>-1.0</ele><time>2026-04-18T10:57:51Z</time></trkpt><trkpt lat="45.08285643843411" lon="11.78380583603125"><ele>-2.0</ele><time>2026-04-18T10:57:52Z</time></trkpt><trkpt lat="45.08285394097843" lon="11.783562324647345"><ele>-1.5</ele><time>2026-04-18T10:57:53Z</time></trkpt><trkpt lat="45.08284978715827" lon="11.78325875115384"><ele>-1.0</ele><time>2026-04-18T10:57:54Z</time></trkpt><trkpt lat="45.082839735247525" lon="11.782913091162524"><ele>-0.5</ele><time>2026-04-18T10:57:55Z</time></trkpt><trkpt lat="45.08283133984648" lon="11.78251936127412"><ele>0.0</ele><time>2026-04-18T10:57:56Z</time></trkpt><trkpt lat="45.08283128328261" lon="11.782171115574398"><ele>0.5</ele><time>2026-04-18T10:57:57Z</time></trkpt><trkpt lat="45.08283481663548" lon="11.78182642520817"><ele>1.0</ele><time>2026-04-18T10:57:58Z</time></trkpt><trkpt lat="45.082816158290065" lon="11.781518609361814"><ele>1.0</ele><time>2026-04-18T10:57:59Z</time></trkpt><trkpt lat="45.08281502068444" lon="11.781194545398062"><ele>1.0</ele><time>2026-04-18T10:58:00Z</time></trkpt><trkpt lat="45.082810624029456" lon="11.780899782577812"><ele>1.0</ele><time>2026-04-18T10:58:01Z</time></trkpt><trkpt lat="45.08280445246766" lon="11.780578228775251"><ele>1.3333333333333333</ele><time>2026-04-18T10:58:02Z</time></trkpt><trkpt lat="45.08279928045367" lon="11.78027074791921"><ele>1.6666666666666665</ele><time>2026-04-18T10:58:03Z</time></trkpt><trkpt lat="45.08279075204322" lon="11.780000874724792"><ele>2.0</ele><time>2026-04-18T10:58:04Z</time></trkpt><trkpt lat="45.08274408129064" lon="11.779702596392893"><ele>2.0</ele><time>2026-04-18T10:58:05Z</time></trkpt><trkpt lat="45.08266882679952" lon="11.779378563097646"><ele>2.0</ele><time>2026-04-18T10:58:06Z</time></trkpt><trkpt lat="45.0825617078818" lon="11.779029132615959"><ele>1.0</ele><time>2026-04-18T10:58:07Z</time></trkpt><trkpt lat="45.082436733634495" lon="11.77868573309578"><ele>0.0</ele><time>2026-04-18T10:58:08Z</time></trkpt><trkpt lat="45.08232836995758" lon="11.778397634739854"><ele>-0.3333333333333333</ele><time>2026-04-18T10:58:09Z</time></trkpt><trkpt lat="45.082232722911066" lon="11.778117776676892"><ele>-0.6666666666666666</ele><time>2026-04-18T10:58:10Z</time></trkpt><trkpt lat="45.082138374559044" lon="11.777844435000802"><ele>-1.0</ele><time>2026-04-18T10:58:11Z</time></trkpt><trkpt lat="45.082036489193385" lon="11.777576639011793"><ele>-0.3333333333333333</ele><time>2026-04-18T10:58:12Z</time></trkpt><trkpt lat="45.081939030204666" lon="11.777319441400843"><ele>0.3333333333333333</ele><time>2026-04-18T10:58:13Z</time></trkpt><trkpt lat="45.08184690716349" lon="11.77706317705059"><ele>1.0</ele><time>2026-04-18T10:58:14Z</time></trkpt><trkpt lat="45.081759541597485" lon="11.776807848336084"><ele>1.0</ele><time>2026-04-18T10:58:15Z</time></trkpt><trkpt lat="45.0816685319616" lon="11.776537306746441"><ele>1.0</ele><time>2026-04-18T10:58:16Z</time></trkpt><trkpt lat="45.08156095400749" lon="11.77623627872324"><ele>-0.5</ele><time>2026-04-18T10:58:17Z</time></trkpt><trkpt lat="45.08147560996716" lon="11.775894821007924"><ele>-2.0</ele><time>2026-04-18T10:58:18Z</time></trkpt><trkpt lat="45.08137457708997" lon="11.775525041449749"><ele>-1.0</ele><time>2026-04-18T10:58:19Z</time></trkpt><trkpt lat="45.08127140524558" lon="11.775115296385685"><ele>0.0</ele><time>2026-04-18T10:58:20Z</time></trkpt><trkpt lat="45.08116239664138" lon="11.77466827177459"><ele>1.0</ele><time>2026-04-18T10:58:21Z</time></trkpt><trkpt lat="45.08108182463225" lon="11.774226136874804"><ele>2.0</ele><time>2026-04-18T10:58:22Z</time></trkpt><trkpt lat="45.081000867796256" lon="11.773769292208003"><ele>2.0</ele><time>2026-04-18T10:58:23Z</time></trkpt><trkpt lat="45.08092127884604" lon="11.773292959277915"><ele>2.0</ele><time>2026-04-18T10:58:24Z</time></trkpt><trkpt lat="45.08084305728669" lon="11.772823075942027"><ele>0.5</ele><time>2026-04-18T10:58:25Z</time></trkpt><trkpt lat="45.08076473478885" lon="11.772340226989112"><ele>-1.0</ele><time>2026-04-18T10:58:26Z</time></trkpt><trkpt lat="45.08069299499225" lon="11.771886725892994"><ele>-0.5</ele><time>2026-04-18T10:58:27Z</time></trkpt><trkpt lat="45.08062126015019" lon="11.771482308819209"><ele>0.0</ele><time>2026-04-18T10:58:28Z</time></trkpt><trkpt lat="45.08054137760956" lon="11.771097761168907"><ele>-0.5</ele><time>2026-04-18T10:58:29Z</time></trkpt><trkpt lat="45.08044123854447" lon="11.770714665963059"><ele>-1.0</ele><time>2026-04-18T10:58:30Z</time></trkpt><trkpt lat="45.08031725291118" lon="11.770334542600892"><ele>-1.0</ele><time>2026-04-18T10:58:31.001Z</time></trkpt><trkpt lat="45.08016136901307" lon="11.76995126886703"><ele>-1.0</ele><time>2026-04-18T10:58:32.001Z</time></trkpt><trkpt lat="45.0799843623496" lon="11.769580060528689"><ele>-1.5</ele><time>2026-04-18T10:58:33.001Z</time></trkpt><trkpt lat="45.07980023051645" lon="11.769203253688396"><ele>-2.0</ele><time>2026-04-18T10:58:34.001Z</time></trkpt><trkpt lat="45.079625196435465" lon="11.768826583742806"><ele>-2.0</ele><time>2026-04-18T10:58:35.001Z</time></trkpt><trkpt lat="45.07947160985046" lon="11.768488134236655"><ele>-2.0</ele><time>2026-04-18T10:58:36.001Z</time></trkpt><trkpt lat="45.079332717678085" lon="11.768175517015042"><ele>-2.0</ele><time>2026-04-18T10:58:37.001Z</time></trkpt><trkpt lat="45.07918754313083" lon="11.767888273634536"><ele>-2.0</ele><time>2026-04-18T10:58:38.001Z</time></trkpt><trkpt lat="45.07902342449269" lon="11.767611766314795"><ele>-1.0</ele><time>2026-04-18T10:58:39Z</time></trkpt><trkpt lat="45.078827436319735" lon="11.767335060582313"><ele>0.0</ele><time>2026-04-18T10:58:40Z</time></trkpt><trkpt lat="45.07860175856241" lon="11.767067137194099"><ele>0.0</ele><time>2026-04-18T10:58:41Z</time></trkpt><trkpt lat="45.07838350585199" lon="11.766855217813687"><ele>0.0</ele><time>2026-04-18T10:58:42Z</time></trkpt><trkpt lat="45.07818250287643" lon="11.766689084862234"><ele>0.0</ele><time>2026-04-18T10:58:43Z</time></trkpt><trkpt lat="45.078004093865175" lon="11.766560006252952"><ele>0.0</ele><time>2026-04-18T10:58:44Z</time></trkpt><trkpt lat="45.07785372482067" lon="11.766451276859298"><ele>0.0</ele><time>2026-04-18T10:58:45Z</time></trkpt><trkpt lat="45.07773671547679" lon="11.766346126880658"><ele>0.0</ele><time>2026-04-18T10:58:46Z</time></trkpt><trkpt lat="45.07764050167668" lon="11.766319342065099"><ele>0.0</ele><time>2026-04-18T10:58:47Z</time></trkpt><trkpt lat="45.077580192220296" lon="11.766291087113585"><ele>0.0</ele><time>2026-04-18T10:58:48Z</time></trkpt><trkpt lat="45.077540098490495" lon="11.765982965720498"><ele>0.0</ele><time>2026-04-18T10:58:50Z</time></trkpt><trkpt lat="45.0774987550141" lon="11.7658998731191"><ele>0.2</ele><time>2026-04-18T10:58:51Z</time></trkpt><trkpt lat="45.077438830759625" lon="11.765791052613745"><ele>0.4</ele><time>2026-04-18T10:58:52Z</time></trkpt><trkpt lat="45.07735964672885" lon="11.765673661976699"><ele>0.6000000000000001</ele><time>2026-04-18T10:58:53Z</time></trkpt><trkpt lat="45.077281779069125" lon="11.765534738827292"><ele>0.8</ele><time>2026-04-18T10:58:54Z</time></trkpt><trkpt lat="45.07723745400587" lon="11.765397649147516"><ele>1.0</ele><time>2026-04-18T10:58:55Z</time></trkpt><trkpt lat="45.07722970947688" lon="11.76525390630707"><ele>1.0</ele><time>2026-04-18T10:58:56Z</time></trkpt><trkpt lat="45.0772509050495" lon="11.765089098486099"><ele>1.0</ele><time>2026-04-18T10:58:57Z</time></trkpt><trkpt lat="45.07729578532383" lon="11.764881079446702"><ele>1.0</ele><time>2026-04-18T10:58:58Z</time></trkpt><trkpt lat="45.07735211025239" lon="11.764673095541985"><ele>1.0</ele><time>2026-04-18T10:58:59Z</time></trkpt><trkpt lat="45.07739719679951" lon="11.764504928962896"><ele>1.0</ele><time>2026-04-18T10:59:00Z</time></trkpt><trkpt lat="45.07743031582795" lon="11.764379656445646"><ele>1.0</ele><time>2026-04-18T10:59:01Z</time></trkpt><trkpt lat="45.07746297167219" lon="11.764239332253272"><ele>1.0</ele><time>2026-04-18T10:59:02Z</time></trkpt><trkpt lat="45.077508635859054" lon="11.764045948338424"><ele>1.0</ele><time>2026-04-18T10:59:03Z</time></trkpt><trkpt lat="45.07757032660622" lon="11.763801797177326"><ele>1.3333333333333333</ele><time>2026-04-18T10:59:04Z</time></trkpt><trkpt lat="45.07763307466057" lon="11.763541533993076"><ele>1.6666666666666665</ele><time>2026-04-18T10:59:05Z</time></trkpt><trkpt lat="45.077691023854676" lon="11.763295598633702"><ele>2.0</ele><time>2026-04-18T10:59:06Z</time></trkpt><trkpt lat="45.077749059456494" lon="11.763058402572199"><ele>2.0</ele><time>2026-04-18T10:59:07Z</time></trkpt><trkpt lat="45.07781171366801" lon="11.762834534865931"><ele>2.0</ele><time>2026-04-18T10:59:08Z</time></trkpt><trkpt lat="45.077876772900495" lon="11.762630939297948"><ele>2.0</ele><time>2026-04-18T10:59:09Z</time></trkpt><trkpt lat="45.07791653515981" lon="11.76243747062098"><ele>2.0</ele><time>2026-04-18T10:59:10Z</time></trkpt><trkpt lat="45.0779605857037" lon="11.762257274560076"><ele>2.0</ele><time>2026-04-18T10:59:11Z</time></trkpt><trkpt lat="45.078001149767594" lon="11.762080025676902"><ele>2.0</ele><time>2026-04-18T10:59:12Z</time></trkpt><trkpt lat="45.07804471574164" lon="11.761904020573452"><ele>2.0</ele><time>2026-04-18T10:59:13Z</time></trkpt><trkpt lat="45.07808998173156" lon="11.761718304241704"><ele>1.6666666666666665</ele><time>2026-04-18T10:59:14Z</time></trkpt><trkpt lat="45.078129421616346" lon="11.761513677961972"><ele>1.3333333333333333</ele><time>2026-04-18T10:59:15Z</time></trkpt><trkpt lat="45.07818061602956" lon="11.761291625812287"><ele>1.0</ele><time>2026-04-18T10:59:16Z</time></trkpt><trkpt lat="45.07822869253236" lon="11.761044173595156"><ele>1.3333333333333333</ele><time>2026-04-18T10:59:17Z</time></trkpt><trkpt lat="45.078274148464516" lon="11.760804832351585"><ele>1.6666666666666665</ele><time>2026-04-18T10:59:18Z</time></trkpt><trkpt lat="45.07831523170673" lon="11.760593597482462"><ele>2.0</ele><time>2026-04-18T10:59:19Z</time></trkpt><trkpt lat="45.0783524288296" lon="11.760397537706764"><ele>2.333333333333333</ele><time>2026-04-18T10:59:20Z</time></trkpt><trkpt lat="45.07838852005458" lon="11.76019803804282"><ele>2.6666666666666665</ele><time>2026-04-18T10:59:21Z</time></trkpt><trkpt lat="45.07842445252051" lon="11.759986558739204"><ele>3.0</ele><time>2026-04-18T10:59:22Z</time></trkpt><trkpt lat="45.07845956164623" lon="11.759772000833562"><ele>3.0</ele><time>2026-04-18T10:59:23Z</time></trkpt><trkpt lat="45.07848868464552" lon="11.759564269567404"><ele>3.0</ele><time>2026-04-18T10:59:24Z</time></trkpt><trkpt lat="45.078515092234824" lon="11.759378360314779"><ele>3.0</ele><time>2026-04-18T10:59:25Z</time></trkpt><trkpt lat="45.07853873024014" lon="11.75920961749728"><ele>3.0</ele><time>2026-04-18T10:59:26Z</time></trkpt><trkpt lat="45.07855560492733" lon="11.75906619741063"><ele>2.8</ele><time>2026-04-18T10:59:27Z</time></trkpt><trkpt lat="45.078565303464664" lon="11.758943209167969"><ele>2.5999999999999996</ele><time>2026-04-18T10:59:28Z</time></trkpt><trkpt lat="45.07856664481517" lon="11.75881901199462"><ele>2.4000000000000004</ele><time>2026-04-18T10:59:29Z</time></trkpt><trkpt lat="45.07857994852888" lon="11.758688581336761"><ele>2.2</ele><time>2026-04-18T10:59:30Z</time></trkpt><trkpt lat="45.078617304105634" lon="11.758534141289969"><ele>2.0</ele><time>2026-04-18T10:59:31Z</time></trkpt><trkpt lat="45.078648572841296" lon="11.758330404971181"><ele>1.6666666666666665</ele><time>2026-04-18T10:59:32Z</time></trkpt><trkpt lat="45.07867329796348" lon="11.75808149124773"><ele>1.3333333333333333</ele><time>2026-04-18T10:59:33Z</time></trkpt><trkpt lat="45.078697457347445" lon="11.75779878626777"><ele>1.0</ele><time>2026-04-18T10:59:34Z</time></trkpt><trkpt lat="45.07872109401585" lon="11.757509367098818"><ele>1.0</ele><time>2026-04-18T10:59:35Z</time></trkpt><trkpt lat="45.078738278843325" lon="11.757194372219585"><ele>1.0</ele><time>2026-04-18T10:59:36Z</time></trkpt><trkpt lat="45.078754964445544" lon="11.75686050671887"><ele>1.0</ele><time>2026-04-18T10:59:37Z</time></trkpt><trkpt lat="45.078770453131106" lon="11.756526095255008"><ele>1.0</ele><time>2026-04-18T10:59:38Z</time></trkpt><trkpt lat="45.07878173564991" lon="11.756166283778848"><ele>1.0</ele><time>2026-04-18T10:59:39Z</time></trkpt><trkpt lat="45.078795977485136" lon="11.755763034596127"><ele>1.0</ele><time>2026-04-18T10:59:40Z</time></trkpt><trkpt lat="45.078822784008125" lon="11.755340756683104"><ele>0.5</ele><time>2026-04-18T10:59:41Z</time></trkpt><trkpt lat="45.07885911500806" lon="11.75492279146558"><ele>0.0</ele><time>2026-04-18T10:59:42Z</time></trkpt><trkpt lat="45.07888655710869" lon="11.754493891140033"><ele>0.5</ele><time>2026-04-18T10:59:43Z</time></trkpt><trkpt lat="45.078909157882045" lon="11.754065347936868"><ele>1.0</ele><time>2026-04-18T10:59:44Z</time></trkpt><trkpt lat="45.0789314737597" lon="11.753639963604918"><ele>1.5</ele><time>2026-04-18T10:59:45Z</time></trkpt><trkpt lat="45.0789531984961" lon="11.753213493018144"><ele>2.0</ele><time>2026-04-18T10:59:46Z</time></trkpt><trkpt lat="45.078974881240484" lon="11.75279884239404"><ele>2.0</ele><time>2026-04-18T10:59:47Z</time></trkpt><trkpt lat="45.07899290972337" lon="11.75238496569479"><ele>2.0</ele><time>2026-04-18T10:59:48Z</time></trkpt><trkpt lat="45.07901431453751" lon="11.751971652512326"><ele>2.0</ele><time>2026-04-18T10:59:49Z</time></trkpt><trkpt lat="45.079035438177115" lon="11.751566033774608"><ele>2.0</ele><time>2026-04-18T10:59:50Z</time></trkpt><trkpt lat="45.07905217891656" lon="11.751165429352998"><ele>2.5</ele><time>2026-04-18T10:59:51Z</time></trkpt><trkpt lat="45.07906656011417" lon="11.7507701322475"><ele>3.0</ele><time>2026-04-18T10:59:52Z</time></trkpt><trkpt lat="45.07908459826123" lon="11.750370902992847"><ele>3.5</ele><time>2026-04-18T10:59:53Z</time></trkpt><trkpt lat="45.07909756107687" lon="11.749983804236537"><ele>4.0</ele><time>2026-04-18T10:59:54Z</time></trkpt><trkpt lat="45.07911242659201" lon="11.74959992478535"><ele>4.0</ele><time>2026-04-18T10:59:55Z</time></trkpt><trkpt lat="45.07912697005467" lon="11.749235013012425"><ele>4.0</ele><time>2026-04-18T10:59:56Z</time></trkpt><trkpt lat="45.07914149090217" lon="11.748893308832793"><ele>4.0</ele><time>2026-04-18T10:59:57Z</time></trkpt><trkpt lat="45.079155727554614" lon="11.748572152761284"><ele>4.0</ele><time>2026-04-18T10:59:58Z</time></trkpt><trkpt lat="45.079168410339925" lon="11.748269348605865"><ele>4.0</ele><time>2026-04-18T10:59:59Z</time></trkpt><trkpt lat="45.079178628034725" lon="11.747981808732472"><ele>3.333333333333333</ele><time>2026-04-18T11:00:00Z</time></trkpt><trkpt lat="45.07918772125167" lon="11.747693489268261"><ele>2.6666666666666665</ele><time>2026-04-18T11:00:01Z</time></trkpt><trkpt lat="45.079198091103905" lon="11.747362387075569"><ele>2.0</ele><time>2026-04-18T11:00:02Z</time></trkpt><trkpt lat="45.07921228065457" lon="11.746986664436072"><ele>2.0</ele><time>2026-04-18T11:00:03Z</time></trkpt><trkpt lat="45.07923075406757" lon="11.746583989755038"><ele>2.0</ele><time>2026-04-18T11:00:04Z</time></trkpt><trkpt lat="45.079254934227954" lon="11.746212006788852"><ele>1.5</ele><time>2026-04-18T11:00:05Z</time></trkpt><trkpt lat="45.07927901480993" lon="11.7458798242799"><ele>1.0</ele><time>2026-04-18T11:00:06Z</time></trkpt><trkpt lat="45.07930160464921" lon="11.745573112808767"><ele>1.0</ele><time>2026-04-18T11:00:07Z</time></trkpt><trkpt lat="45.07931549341864" lon="11.745269859164992"><ele>1.0</ele><time>2026-04-18T11:00:08Z</time></trkpt><trkpt lat="45.079325771876476" lon="11.74495427957166"><ele>1.0</ele><time>2026-04-18T11:00:09Z</time></trkpt><trkpt lat="45.07933537407947" lon="11.744628048240981"><ele>1.6666666666666665</ele><time>2026-04-18T11:00:10Z</time></trkpt><trkpt lat="45.07934347495996" lon="11.74432585813111"><ele>2.3333333333333335</ele><time>2026-04-18T11:00:11Z</time></trkpt><trkpt lat="45.07935306948856" lon="11.744033534380534"><ele>3.0</ele><time>2026-04-18T11:00:12Z</time></trkpt><trkpt lat="45.07936136246331" lon="11.743722544708191"><ele>3.333333333333333</ele><time>2026-04-18T11:00:13Z</time></trkpt><trkpt lat="45.0793731081065" lon="11.743410733009547"><ele>3.6666666666666665</ele><time>2026-04-18T11:00:14Z</time></trkpt><trkpt lat="45.07938490482855" lon="11.743119733064553"><ele>4.0</ele><time>2026-04-18T11:00:15Z</time></trkpt><trkpt lat="45.07940107292998" lon="11.742856321165418"><ele>4.0</ele><time>2026-04-18T11:00:16Z</time></trkpt><trkpt lat="45.07941957733769" lon="11.742614581575866"><ele>4.0</ele><time>2026-04-18T11:00:17Z</time></trkpt><trkpt lat="45.07944029538639" lon="11.742375914128399"><ele>4.0</ele><time>2026-04-18T11:00:18Z</time></trkpt><trkpt lat="45.07946121741828" lon="11.74213582092412"><ele>4.0</ele><time>2026-04-18T11:00:19Z</time></trkpt><trkpt lat="45.07948086586189" lon="11.74188674008507"><ele>4.0</ele><time>2026-04-18T11:00:20Z</time></trkpt><trkpt lat="45.07949416997894" lon="11.741641505927818"><ele>4.0</ele><time>2026-04-18T11:00:21Z</time></trkpt><trkpt lat="45.079499170454795" lon="11.74140990737412"><ele>4.0</ele><time>2026-04-18T11:00:22Z</time></trkpt><trkpt lat="45.079501047627325" lon="11.741196700637957"><ele>4.0</ele><time>2026-04-18T11:00:23Z</time></trkpt><trkpt lat="45.07950292599862" lon="11.740984381064674"><ele>4.0</ele><time>2026-04-18T11:00:24Z</time></trkpt><trkpt lat="45.07950431502826" lon="11.740772995427136"><ele>4.0</ele><time>2026-04-18T11:00:25Z</time></trkpt><trkpt lat="45.079503690565325" lon="11.740563294065348"><ele>4.0</ele><time>2026-04-18T11:00:26Z</time></trkpt><trkpt lat="45.07950061213837" lon="11.740346242275251"><ele>4.0</ele><time>2026-04-18T11:00:27Z</time></trkpt><trkpt lat="45.07949684491015" lon="11.74012059931358"><ele>4.0</ele><time>2026-04-18T11:00:28Z</time></trkpt><trkpt lat="45.079493948892384" lon="11.739902965880976"><ele>4.0</ele><time>2026-04-18T11:00:29Z</time></trkpt><trkpt lat="45.079490478758814" lon="11.739676486140555"><ele>4.0</ele><time>2026-04-18T11:00:30Z</time></trkpt><trkpt lat="45.07948748873123" lon="11.739430494308339"><ele>4.0</ele><time>2026-04-18T11:00:31Z</time></trkpt><trkpt lat="45.07948306399676" lon="11.739193696192888"><ele>4.0</ele><time>2026-04-18T11:00:32Z</time></trkpt><trkpt lat="45.07947796179451" lon="11.73895582214461"><ele>4.0</ele><time>2026-04-18T11:00:33Z</time></trkpt><trkpt lat="45.07946657636832" lon="11.73872034138397"><ele>4.0</ele><time>2026-04-18T11:00:34Z</time></trkpt><trkpt lat="45.07945317223972" lon="11.73850015134281"><ele>4.0</ele><time>2026-04-18T11:00:35Z</time></trkpt><trkpt lat="45.079455157870676" lon="11.738290641190034"><ele>4.0</ele><time>2026-04-18T11:00:36Z</time></trkpt><trkpt lat="45.079439835266285" lon="11.73809187069059"><ele>4.0</ele><time>2026-04-18T11:00:37Z</time></trkpt><trkpt lat="45.0794231478736" lon="11.737905317620402"><ele>4.0</ele><time>2026-04-18T11:00:38.001Z</time></trkpt><trkpt lat="45.07940716711098" lon="11.737728768032703"><ele>4.0</ele><time>2026-04-18T11:00:39.001Z</time></trkpt><trkpt lat="45.079391178889566" lon="11.737559986829723"><ele>4.0</ele><time>2026-04-18T11:00:40.001Z</time></trkpt><trkpt lat="45.07935929010128" lon="11.737405487767742"><ele>4.0</ele><time>2026-04-18T11:00:41.001Z</time></trkpt><trkpt lat="45.07935976341927" lon="11.737263236025953"><ele>3.8000000000000003</ele><time>2026-04-18T11:00:42.001Z</time></trkpt><trkpt lat="45.079348553647144" lon="11.737157347609571"><ele>3.6000000000000005</ele><time>2026-04-18T11:00:43.001Z</time></trkpt><trkpt lat="45.07918880401954" lon="11.737046908947491"><ele>3.4</ele><time>2026-04-18T11:00:45Z</time></trkpt><trkpt lat="45.079103068183706" lon="11.737010861036525"><ele>3.2</ele><time>2026-04-18T11:00:46Z</time></trkpt><trkpt lat="45.079015756141764" lon="11.736973761839552"><ele>3.0</ele><time>2026-04-18T11:00:47Z</time></trkpt><trkpt lat="45.078906109318886" lon="11.736948932225069"><ele>2.6666666666666665</ele><time>2026-04-18T11:00:48Z</time></trkpt><trkpt lat="45.078780707220226" lon="11.736885073750368"><ele>2.333333333333333</ele><time>2026-04-18T11:00:49Z</time></trkpt><trkpt lat="45.078611435172455" lon="11.736804387964062"><ele>2.0</ele><time>2026-04-18T11:00:50Z</time></trkpt><trkpt lat="45.078412985658346" lon="11.736712730210712"><ele>3.0</ele><time>2026-04-18T11:00:51Z</time></trkpt><trkpt lat="45.07818769841024" lon="11.736607263685299"><ele>4.0</ele><time>2026-04-18T11:00:52Z</time></trkpt><trkpt lat="45.077938209832105" lon="11.736479500443263"><ele>4.0</ele><time>2026-04-18T11:00:53Z</time></trkpt><trkpt lat="45.07766171092422" lon="11.736329439912764"><ele>4.0</ele><time>2026-04-18T11:00:54Z</time></trkpt><trkpt lat="45.07740469388382" lon="11.736198638795619"><ele>3.5</ele><time>2026-04-18T11:00:55Z</time></trkpt><trkpt lat="45.07709867987865" lon="11.73602479277148"><ele>3.0</ele><time>2026-04-18T11:00:56Z</time></trkpt><trkpt lat="45.076781712461894" lon="11.735822121900133"><ele>2.5</ele><time>2026-04-18T11:00:57Z</time></trkpt><trkpt lat="45.076478796350564" lon="11.735593001982528"><ele>2.0</ele><time>2026-04-18T11:00:58Z</time></trkpt><trkpt lat="45.07619279553981" lon="11.735368720791467"><ele>2.0</ele><time>2026-04-18T11:00:59Z</time></trkpt><trkpt lat="45.075918921021916" lon="11.73514447094262"><ele>2.0</ele><time>2026-04-18T11:01:00Z</time></trkpt><trkpt lat="45.07567526416209" lon="11.734947179621214"><ele>2.5</ele><time>2026-04-18T11:01:01Z</time></trkpt><trkpt lat="45.075444580324316" lon="11.734778202678008"><ele>3.0</ele><time>2026-04-18T11:01:02Z</time></trkpt><trkpt lat="45.075226874576614" lon="11.734631040698616"><ele>3.0</ele><time>2026-04-18T11:01:03Z</time></trkpt><trkpt lat="45.07502129948565" lon="11.734511060237974"><ele>3.0</ele><time>2026-04-18T11:01:04Z</time></trkpt><trkpt lat="45.07482982205049" lon="11.734402159090733"><ele>3.0</ele><time>2026-04-18T11:01:05Z</time></trkpt><trkpt lat="45.07464794846707" lon="11.73430589338149"><ele>2.6666666666666665</ele><time>2026-04-18T11:01:06Z</time></trkpt><trkpt lat="45.07447712850914" lon="11.734215332206281"><ele>2.333333333333333</ele><time>2026-04-18T11:01:07Z</time></trkpt><trkpt lat="45.074318217207974" lon="11.734133300057353"><ele>2.0</ele><time>2026-04-18T11:01:08Z</time></trkpt><trkpt lat="45.074161576282656" lon="11.734057356755025"><ele>2.0</ele><time>2026-04-18T11:01:09Z</time></trkpt><trkpt lat="45.073992867680275" lon="11.73399198200895"><ele>2.0</ele><time>2026-04-18T11:01:10Z</time></trkpt><trkpt lat="45.0738160830822" lon="11.733950751933456"><ele>2.0</ele><time>2026-04-18T11:01:11Z</time></trkpt><trkpt lat="45.07365087217033" lon="11.73393954912792"><ele>2.0</ele><time>2026-04-18T11:01:12Z</time></trkpt><trkpt lat="45.07349709287724" lon="11.73394338301446"><ele>2.0</ele><time>2026-04-18T11:01:13Z</time></trkpt><trkpt lat="45.07335016898295" lon="11.733974563737581"><ele>2.0</ele><time>2026-04-18T11:01:14Z</time></trkpt><trkpt lat="45.073206921836565" lon="11.734021432000844"><ele>2.0</ele><time>2026-04-18T11:01:15Z</time></trkpt><trkpt lat="45.07305521396645" lon="11.733993645704478"><ele>3.0</ele><time>2026-04-18T11:01:16Z</time></trkpt><trkpt lat="45.07289617707722" lon="11.733952599563004"><ele>4.0</ele><time>2026-04-18T11:01:17Z</time></trkpt><trkpt lat="45.072731758804245" lon="11.733879667786704"><ele>5.0</ele><time>2026-04-18T11:01:18Z</time></trkpt><trkpt lat="45.07256991761723" lon="11.733770781262022"><ele>5.0</ele><time>2026-04-18T11:01:19Z</time></trkpt><trkpt lat="45.07239017938643" lon="11.73363220618048"><ele>5.0</ele><time>2026-04-18T11:01:20Z</time></trkpt><trkpt lat="45.07222022292142" lon="11.733518136432737"><ele>5.0</ele><time>2026-04-18T11:01:21Z</time></trkpt><trkpt lat="45.07208390657193" lon="11.733403648040468"><ele>5.0</ele><time>2026-04-18T11:01:22Z</time></trkpt><trkpt lat="45.071974821539925" lon="11.73332130371926"><ele>5.0</ele><time>2026-04-18T11:01:23Z</time></trkpt><trkpt lat="45.071884804469796" lon="11.733235463315246"><ele>5.0</ele><time>2026-04-18T11:01:24Z</time></trkpt><trkpt lat="45.07179885636666" lon="11.733139055307246"><ele>5.0</ele><time>2026-04-18T11:01:25Z</time></trkpt><trkpt lat="45.0717689800928" lon="11.732909533545628"><ele>5.0</ele><time>2026-04-18T11:01:26Z</time></trkpt><trkpt lat="45.071715267574284" lon="11.732671313713267"><ele>5.0</ele><time>2026-04-18T11:01:27Z</time></trkpt><trkpt lat="45.0716399888033" lon="11.732394491409003"><ele>5.0</ele><time>2026-04-18T11:01:28Z</time></trkpt><trkpt lat="45.07158709141646" lon="11.732073221768738"><ele>5.5</ele><time>2026-04-18T11:01:29Z</time></trkpt><trkpt lat="45.07152367702814" lon="11.73173266000259"><ele>6.0</ele><time>2026-04-18T11:01:30Z</time></trkpt><trkpt lat="45.07147114704661" lon="11.731394926013042"><ele>6.0</ele><time>2026-04-18T11:01:31Z</time></trkpt><trkpt lat="45.071414184901705" lon="11.73105891047833"><ele>6.0</ele><time>2026-04-18T11:01:32Z</time></trkpt><trkpt lat="45.07134878722503" lon="11.730759471623015"><ele>6.0</ele><time>2026-04-18T11:01:33Z</time></trkpt><trkpt lat="45.071279033055234" lon="11.730519859056868"><ele>6.0</ele><time>2026-04-18T11:01:34Z</time></trkpt><trkpt lat="45.07122448910463" lon="11.730317392579614"><ele>6.0</ele><time>2026-04-18T11:01:35Z</time></trkpt><trkpt lat="45.071177135428044" lon="11.730148171256102"><ele>5.5</ele><time>2026-04-18T11:01:36Z</time></trkpt><trkpt lat="45.071117454424204" lon="11.730000438580642"><ele>5.0</ele><time>2026-04-18T11:01:37Z</time></trkpt><trkpt lat="45.07108653345647" lon="11.729868313360903"><ele>4.5</ele><time>2026-04-18T11:01:38Z</time></trkpt><trkpt lat="45.071058393930414" lon="11.729777365339432"><ele>4.0</ele><time>2026-04-18T11:01:39Z</time></trkpt><trkpt lat="45.07081344949845" lon="11.72986384640497"><ele>3.75</ele><time>2026-04-18T11:01:40Z</time></trkpt><trkpt lat="45.070669219576104" lon="11.729935336660539"><ele>3.5</ele><time>2026-04-18T11:01:41Z</time></trkpt><trkpt lat="45.07053081136642" lon="11.730046478757197"><ele>3.25</ele><time>2026-04-18T11:01:42Z</time></trkpt><trkpt lat="45.07043036113748" lon="11.730142954821755"><ele>3.0</ele><time>2026-04-18T11:01:43Z</time></trkpt><trkpt lat="45.07035842375" lon="11.730198429717056"><ele>3.0</ele><time>2026-04-18T11:01:44Z</time></trkpt><trkpt lat="45.07025557140025" lon="11.73017619557271"><ele>3.0</ele><time>2026-04-18T11:01:46Z</time></trkpt><trkpt lat="45.070235033191565" lon="11.730078626470787"><ele>3.0</ele><time>2026-04-18T11:01:47Z</time></trkpt><trkpt lat="45.07016929276663" lon="11.729952977105636"><ele>3.0</ele><time>2026-04-18T11:01:48Z</time></trkpt><trkpt lat="45.07010404988158" lon="11.729753174552398"><ele>3.0</ele><time>2026-04-18T11:01:49Z</time></trkpt><trkpt lat="45.070007437442165" lon="11.729510274956189"><ele>2.5</ele><time>2026-04-18T11:01:50Z</time></trkpt><trkpt lat="45.069892058037354" lon="11.72923980609745"><ele>2.0</ele><time>2026-04-18T11:01:51Z</time></trkpt><trkpt lat="45.0697725865235" lon="11.728945988828967"><ele>2.0</ele><time>2026-04-18T11:01:52Z</time></trkpt><trkpt lat="45.0696276165247" lon="11.728692952718124"><ele>2.0</ele><time>2026-04-18T11:01:53Z</time></trkpt><trkpt lat="45.069487116041195" lon="11.728487246248347"><ele>2.0</ele><time>2026-04-18T11:01:54Z</time></trkpt><trkpt lat="45.069376220668424" lon="11.728279085844473"><ele>2.333333333333333</ele><time>2026-04-18T11:01:55Z</time></trkpt><trkpt lat="45.069291880494056" lon="11.728074178216357"><ele>2.6666666666666665</ele><time>2026-04-18T11:01:56Z</time></trkpt><trkpt lat="45.06925240111993" lon="11.727838562492863"><ele>3.0</ele><time>2026-04-18T11:01:57Z</time></trkpt><trkpt lat="45.06924393731225" lon="11.727566255888572"><ele>3.0</ele><time>2026-04-18T11:01:58Z</time></trkpt><trkpt lat="45.06925734555397" lon="11.727256466302414"><ele>3.0</ele><time>2026-04-18T11:01:59Z</time></trkpt><trkpt lat="45.06927903563907" lon="11.72693303112447"><ele>3.0</ele><time>2026-04-18T11:02:00Z</time></trkpt><trkpt lat="45.0693537532829" lon="11.726640455929124"><ele>3.0</ele><time>2026-04-18T11:02:01Z</time></trkpt><trkpt lat="45.06940477039213" lon="11.726366171185848"><ele>3.0</ele><time>2026-04-18T11:02:02Z</time></trkpt><trkpt lat="45.06947064515705" lon="11.726123800946405"><ele>3.0</ele><time>2026-04-18T11:02:03Z</time></trkpt><trkpt lat="45.06951263000136" lon="11.725871324757168"><ele>3.0</ele><time>2026-04-18T11:02:04Z</time></trkpt><trkpt lat="45.069534124069826" lon="11.725618043158448"><ele>3.0</ele><time>2026-04-18T11:02:05Z</time></trkpt><trkpt lat="45.06954232143139" lon="11.725331429767376"><ele>3.0</ele><time>2026-04-18T11:02:06Z</time></trkpt><trkpt lat="45.0695266400316" lon="11.725000995879602"><ele>3.0</ele><time>2026-04-18T11:02:07Z</time></trkpt><trkpt lat="45.069488769669256" lon="11.72462532573849"><ele>3.0</ele><time>2026-04-18T11:02:08Z</time></trkpt><trkpt lat="45.06948159683691" lon="11.724207464352375"><ele>3.0</ele><time>2026-04-18T11:02:09Z</time></trkpt><trkpt lat="45.06943236192519" lon="11.723780308871556"><ele>3.0</ele><time>2026-04-18T11:02:10Z</time></trkpt><trkpt lat="45.06940771553276" lon="11.72336048598344"><ele>2.5</ele><time>2026-04-18T11:02:11Z</time></trkpt><trkpt lat="45.06937776738739" lon="11.722937283079872"><ele>2.0</ele><time>2026-04-18T11:02:12Z</time></trkpt><trkpt lat="45.0693460792718" lon="11.722539443937555"><ele>2.0</ele><time>2026-04-18T11:02:13Z</time></trkpt><trkpt lat="45.069316614901645" lon="11.722175267369733"><ele>2.0</ele><time>2026-04-18T11:02:14Z</time></trkpt><trkpt lat="45.06928916700567" lon="11.721834416342341"><ele>1.5</ele><time>2026-04-18T11:02:15Z</time></trkpt><trkpt lat="45.06926280020794" lon="11.721508551634923"><ele>1.0</ele><time>2026-04-18T11:02:16Z</time></trkpt><trkpt lat="45.069239854430556" lon="11.72117621905686"><ele>1.3333333333333333</ele><time>2026-04-18T11:02:17Z</time></trkpt><trkpt lat="45.06921855863294" lon="11.720858507957615"><ele>1.6666666666666665</ele><time>2026-04-18T11:02:18Z</time></trkpt><trkpt lat="45.069195659994065" lon="11.72056400337114"><ele>2.0</ele><time>2026-04-18T11:02:19Z</time></trkpt><trkpt lat="45.069173673416266" lon="11.720287986146312"><ele>2.0</ele><time>2026-04-18T11:02:20Z</time></trkpt><trkpt lat="45.0691532292789" lon="11.720025666577163"><ele>2.0</ele><time>2026-04-18T11:02:21Z</time></trkpt><trkpt lat="45.069132137547044" lon="11.719780228378633"><ele>2.0</ele><time>2026-04-18T11:02:22Z</time></trkpt><trkpt lat="45.06910522234815" lon="11.7195316048711"><ele>2.333333333333333</ele><time>2026-04-18T11:02:23Z</time></trkpt><trkpt lat="45.06906248953665" lon="11.719276973962183"><ele>2.6666666666666665</ele><time>2026-04-18T11:02:24Z</time></trkpt><trkpt lat="45.06900542020314" lon="11.719028063001408"><ele>3.0</ele><time>2026-04-18T11:02:25Z</time></trkpt><trkpt lat="45.06894043514423" lon="11.718790564988398"><ele>2.6666666666666665</ele><time>2026-04-18T11:02:26Z</time></trkpt><trkpt lat="45.06887247066822" lon="11.71856240828856"><ele>2.333333333333333</ele><time>2026-04-18T11:02:27Z</time></trkpt><trkpt lat="45.06880447532105" lon="11.718346884563488"><ele>2.0</ele><time>2026-04-18T11:02:28Z</time></trkpt><trkpt lat="45.06871596833319" lon="11.718126416610076"><ele>2.0</ele><time>2026-04-18T11:02:29Z</time></trkpt><trkpt lat="45.06859017418608" lon="11.71786714975291"><ele>2.0</ele><time>2026-04-18T11:02:30Z</time></trkpt><trkpt lat="45.06845070236638" lon="11.717569248208681"><ele>2.5</ele><time>2026-04-18T11:02:31Z</time></trkpt><trkpt lat="45.068268200738" lon="11.7172656560007"><ele>3.0</ele><time>2026-04-18T11:02:32Z</time></trkpt><trkpt lat="45.06809758036738" lon="11.716942703691501"><ele>3.0</ele><time>2026-04-18T11:02:33Z</time></trkpt><trkpt lat="45.06790412494369" lon="11.716620595821476"><ele>3.0</ele><time>2026-04-18T11:02:34Z</time></trkpt><trkpt lat="45.06767118846365" lon="11.716307345617642"><ele>3.0</ele><time>2026-04-18T11:02:35Z</time></trkpt><trkpt lat="45.0674142486288" lon="11.715987549055551"><ele>3.0</ele><time>2026-04-18T11:02:36Z</time></trkpt><trkpt lat="45.06716698794144" lon="11.715682179070068"><ele>3.0</ele><time>2026-04-18T11:02:37Z</time></trkpt><trkpt lat="45.066928032056026" lon="11.71539158565089"><ele>3.0</ele><time>2026-04-18T11:02:38Z</time></trkpt><trkpt lat="45.066684920579085" lon="11.715138542743086"><ele>3.5</ele><time>2026-04-18T11:02:39Z</time></trkpt><trkpt lat="45.06640474576354" lon="11.714938275701382"><ele>4.0</ele><time>2026-04-18T11:02:40Z</time></trkpt><trkpt lat="45.06609935514685" lon="11.714769557674998"><ele>4.0</ele><time>2026-04-18T11:02:41Z</time></trkpt><trkpt lat="45.06579969263394" lon="11.714602701810401"><ele>4.0</ele><time>2026-04-18T11:02:42Z</time></trkpt><trkpt lat="45.06553670141065" lon="11.714442159061614"><ele>3.5</ele><time>2026-04-18T11:02:43Z</time></trkpt><trkpt lat="45.06529030668562" lon="11.714278797519357"><ele>3.0</ele><time>2026-04-18T11:02:44Z</time></trkpt><trkpt lat="45.06506361885272" lon="11.714074078795527"><ele>3.5</ele><time>2026-04-18T11:02:45Z</time></trkpt><trkpt lat="45.06484681550475" lon="11.7138334874168"><ele>4.0</ele><time>2026-04-18T11:02:46Z</time></trkpt><trkpt lat="45.06465316740435" lon="11.71357275468427"><ele>4.5</ele><time>2026-04-18T11:02:47Z</time></trkpt><trkpt lat="45.06448890691557" lon="11.713297666814395"><ele>5.0</ele><time>2026-04-18T11:02:48Z</time></trkpt><trkpt lat="45.06435603686601" lon="11.712983610758071"><ele>4.5</ele><time>2026-04-18T11:02:49Z</time></trkpt><trkpt lat="45.06425788644244" lon="11.712617420529604"><ele>4.0</ele><time>2026-04-18T11:02:50Z</time></trkpt><trkpt lat="45.06417289893804" lon="11.712213718917797"><ele>3.0</ele><time>2026-04-18T11:02:51Z</time></trkpt><trkpt lat="45.06407717818193" lon="11.711790835482766"><ele>2.0</ele><time>2026-04-18T11:02:52Z</time></trkpt><trkpt lat="45.063981072313545" lon="11.711386468327108"><ele>2.5</ele><time>2026-04-18T11:02:53Z</time></trkpt><trkpt lat="45.06387818400108" lon="11.71100795313494"><ele>3.0</ele><time>2026-04-18T11:02:54Z</time></trkpt><trkpt lat="45.063747185094186" lon="11.710638164612412"><ele>3.0</ele><time>2026-04-18T11:02:55Z</time></trkpt><trkpt lat="45.06361688565459" lon="11.710306158918343"><ele>3.0</ele><time>2026-04-18T11:02:56Z</time></trkpt><trkpt lat="45.06348436490095" lon="11.709997934674822"><ele>3.0</ele><time>2026-04-18T11:02:57Z</time></trkpt><trkpt lat="45.06331482583487" lon="11.709716051937901"><ele>3.0</ele><time>2026-04-18T11:02:58Z</time></trkpt><trkpt lat="45.06309963172319" lon="11.709443114074485"><ele>3.0</ele><time>2026-04-18T11:02:59Z</time></trkpt><trkpt lat="45.06287257624006" lon="11.709175900707486"><ele>3.0</ele><time>2026-04-18T11:03:00Z</time></trkpt><trkpt lat="45.06266862895919" lon="11.708936726855416"><ele>3.0</ele><time>2026-04-18T11:03:01Z</time></trkpt><trkpt lat="45.06248678129555" lon="11.708715271740457"><ele>3.0</ele><time>2026-04-18T11:03:02Z</time></trkpt><trkpt lat="45.06230956495339" lon="11.708504777865633"><ele>3.0</ele><time>2026-04-18T11:03:03Z</time></trkpt><trkpt lat="45.06212508254216" lon="11.708316799966786"><ele>3.0</ele><time>2026-04-18T11:03:04Z</time></trkpt><trkpt lat="45.061937904603504" lon="11.708174130739248"><ele>3.0</ele><time>2026-04-18T11:03:05Z</time></trkpt><trkpt lat="45.06174682678432" lon="11.708048790238282"><ele>2.6666666666666665</ele><time>2026-04-18T11:03:06Z</time></trkpt><trkpt lat="45.06156247445349" lon="11.707925939778617"><ele>2.333333333333333</ele><time>2026-04-18T11:03:07Z</time></trkpt><trkpt lat="45.06139400393072" lon="11.70781338896309"><ele>2.0</ele><time>2026-04-18T11:03:08Z</time></trkpt><trkpt lat="45.06123450504479" lon="11.707711420461816"><ele>2.0</ele><time>2026-04-18T11:03:09Z</time></trkpt><trkpt lat="45.06107649159171" lon="11.707626392872582"><ele>2.0</ele><time>2026-04-18T11:03:10Z</time></trkpt><trkpt lat="45.06091987507515" lon="11.707552188402648"><ele>2.0</ele><time>2026-04-18T11:03:11Z</time></trkpt><trkpt lat="45.06077682430707" lon="11.707473608945197"><ele>2.5</ele><time>2026-04-18T11:03:12Z</time></trkpt><trkpt lat="45.06064391330764" lon="11.707395562611321"><ele>3.0</ele><time>2026-04-18T11:03:13Z</time></trkpt><trkpt lat="45.06051821021397" lon="11.707318039965985"><ele>3.5</ele><time>2026-04-18T11:03:14Z</time></trkpt><trkpt lat="45.06039475785658" lon="11.70723818348647"><ele>4.0</ele><time>2026-04-18T11:03:15Z</time></trkpt><trkpt lat="45.06027905230266" lon="11.707156295627867"><ele>4.0</ele><time>2026-04-18T11:03:16Z</time></trkpt><trkpt lat="45.060167296176395" lon="11.707075779276035"><ele>4.0</ele><time>2026-04-18T11:03:17Z</time></trkpt><trkpt lat="45.0600695125113" lon="11.70698766420904"><ele>4.0</ele><time>2026-04-18T11:03:18Z</time></trkpt><trkpt lat="45.05998635598552" lon="11.706892315217376"><ele>4.0</ele><time>2026-04-18T11:03:19Z</time></trkpt><trkpt lat="45.05992304940139" lon="11.70680649193302"><ele>4.0</ele><time>2026-04-18T11:03:20Z</time></trkpt><trkpt lat="45.05983742526843" lon="11.706713672393265"><ele>4.0</ele><time>2026-04-18T11:03:22Z</time></trkpt><trkpt lat="45.05976546507398" lon="11.70677659553085"><ele>4.0</ele><time>2026-04-18T11:03:24Z</time></trkpt><trkpt lat="45.059726800761595" lon="11.706854371983711"><ele>4.0</ele><time>2026-04-18T11:03:25Z</time></trkpt><trkpt lat="45.05966332694488" lon="11.706967882884793"><ele>4.0</ele><time>2026-04-18T11:03:26Z</time></trkpt><trkpt lat="45.059577336396906" lon="11.707108717894775"><ele>4.0</ele><time>2026-04-18T11:03:27Z</time></trkpt><trkpt lat="45.05946167858198" lon="11.70728405260763"><ele>4.0</ele><time>2026-04-18T11:03:28Z</time></trkpt><trkpt lat="45.059356533846206" lon="11.707442024744342"><ele>4.0</ele><time>2026-04-18T11:03:29Z</time></trkpt><trkpt lat="45.05924261926543" lon="11.70760836973524"><ele>4.0</ele><time>2026-04-18T11:03:30Z</time></trkpt><trkpt lat="45.0591236409194" lon="11.707783438250486"><ele>3.5</ele><time>2026-04-18T11:03:31Z</time></trkpt><trkpt lat="45.059004567752666" lon="11.707949283212757"><ele>3.0</ele><time>2026-04-18T11:03:32Z</time></trkpt><trkpt lat="45.05890011337208" lon="11.708093735952644"><ele>2.5</ele><time>2026-04-18T11:03:33Z</time></trkpt><trkpt lat="45.05879282251787" lon="11.708209720181792"><ele>2.0</ele><time>2026-04-18T11:03:34Z</time></trkpt><trkpt lat="45.05868975010466" lon="11.708313955489396"><ele>2.0</ele><time>2026-04-18T11:03:35Z</time></trkpt><trkpt lat="45.0586033165735" lon="11.708412397014925"><ele>2.0</ele><time>2026-04-18T11:03:36Z</time></trkpt><trkpt lat="45.05852306947976" lon="11.708487617361286"><ele>2.0</ele><time>2026-04-18T11:03:37Z</time></trkpt><trkpt lat="45.05843538796267" lon="11.708506898203566"><ele>2.0</ele><time>2026-04-18T11:03:38Z</time></trkpt><trkpt lat="45.05834440662645" lon="11.708483345221136"><ele>2.0</ele><time>2026-04-18T11:03:39Z</time></trkpt><trkpt lat="45.058256958461996" lon="11.708412679072408"><ele>2.333333333333333</ele><time>2026-04-18T11:03:40Z</time></trkpt><trkpt lat="45.0581595104378" lon="11.70828693673742"><ele>2.6666666666666665</ele><time>2026-04-18T11:03:41Z</time></trkpt><trkpt lat="45.058051264864886" lon="11.708122524285377"><ele>3.0</ele><time>2026-04-18T11:03:42Z</time></trkpt><trkpt lat="45.05793754346992" lon="11.707957218307463"><ele>3.0</ele><time>2026-04-18T11:03:43Z</time></trkpt><trkpt lat="45.0577986964898" lon="11.707762549846269"><ele>3.0</ele><time>2026-04-18T11:03:44Z</time></trkpt><trkpt lat="45.05764337196716" lon="11.7075385199725"><ele>3.0</ele><time>2026-04-18T11:03:45Z</time></trkpt><trkpt lat="45.057470668620304" lon="11.707288339363906"><ele>3.0</ele><time>2026-04-18T11:03:46Z</time></trkpt><trkpt lat="45.05728542895422" lon="11.70702498106448"><ele>3.0</ele><time>2026-04-18T11:03:47Z</time></trkpt><trkpt lat="45.05712039671777" lon="11.706795682941527"><ele>2.6666666666666665</ele><time>2026-04-18T11:03:48Z</time></trkpt><trkpt lat="45.05697063038" lon="11.706583144049073"><ele>2.333333333333333</ele><time>2026-04-18T11:03:49Z</time></trkpt><trkpt lat="45.05683150725621" lon="11.706386866944548"><ele>2.0</ele><time>2026-04-18T11:03:50Z</time></trkpt><trkpt lat="45.056713230015454" lon="11.706187521715579"><ele>1.6666666666666665</ele><time>2026-04-18T11:03:51Z</time></trkpt><trkpt lat="45.056581194057074" lon="11.706023722922556"><ele>1.3333333333333333</ele><time>2026-04-18T11:03:52Z</time></trkpt><trkpt lat="45.05643497907206" lon="11.705895541193657"><ele>1.0</ele><time>2026-04-18T11:03:53Z</time></trkpt><trkpt lat="45.05628362186591" lon="11.70574893889548"><ele>1.0</ele><time>2026-04-18T11:03:54Z</time></trkpt><trkpt lat="45.05611143488848" lon="11.705615620994308"><ele>1.0</ele><time>2026-04-18T11:03:55Z</time></trkpt><trkpt lat="45.05591836190495" lon="11.70550511625761"><ele>1.0</ele><time>2026-04-18T11:03:56Z</time></trkpt><trkpt lat="45.055712918116036" lon="11.705404732190896"><ele>1.3333333333333333</ele><time>2026-04-18T11:03:57Z</time></trkpt><trkpt lat="45.05552782970214" lon="11.705310987483083"><ele>1.6666666666666665</ele><time>2026-04-18T11:03:58Z</time></trkpt><trkpt lat="45.055359992225846" lon="11.705214086219813"><ele>2.0</ele><time>2026-04-18T11:03:59Z</time></trkpt><trkpt lat="45.05519825298064" lon="11.705092349705422"><ele>2.333333333333333</ele><time>2026-04-18T11:04:00Z</time></trkpt><trkpt lat="45.055036291903626" lon="11.704928223552592"><ele>2.6666666666666665</ele><time>2026-04-18T11:04:01Z</time></trkpt><trkpt lat="45.05487543216542" lon="11.704725547853858"><ele>3.0</ele><time>2026-04-18T11:04:02Z</time></trkpt><trkpt lat="45.054720727390276" lon="11.704497054220635"><ele>3.0</ele><time>2026-04-18T11:04:03Z</time></trkpt><trkpt lat="45.05456512525092" lon="11.704259267018536"><ele>3.0</ele><time>2026-04-18T11:04:04Z</time></trkpt><trkpt lat="45.05441211383558" lon="11.704037929184762"><ele>3.0</ele><time>2026-04-18T11:04:05Z</time></trkpt><trkpt lat="45.05427120033033" lon="11.703841739964707"><ele>3.0</ele><time>2026-04-18T11:04:06Z</time></trkpt><trkpt lat="45.05413087952753" lon="11.70366889715159"><ele>3.0</ele><time>2026-04-18T11:04:07Z</time></trkpt><trkpt lat="45.053994466663475" lon="11.70351252283237"><ele>3.0</ele><time>2026-04-18T11:04:08Z</time></trkpt><trkpt lat="45.053860299984" lon="11.703378246137012"><ele>3.0</ele><time>2026-04-18T11:04:09Z</time></trkpt><trkpt lat="45.05371454511194" lon="11.703267660312424"><ele>3.0</ele><time>2026-04-18T11:04:10Z</time></trkpt><trkpt lat="45.05353942345876" lon="11.703172061071127"><ele>3.0</ele><time>2026-04-18T11:04:11Z</time></trkpt><trkpt lat="45.05334153528896" lon="11.703083826182542"><ele>3.0</ele><time>2026-04-18T11:04:12Z</time></trkpt><trkpt lat="45.053136890811764" lon="11.702987695935843"><ele>3.0</ele><time>2026-04-18T11:04:13Z</time></trkpt><trkpt lat="45.052944917444435" lon="11.702893996858814"><ele>3.0</ele><time>2026-04-18T11:04:14Z</time></trkpt><trkpt lat="45.0527684524718" lon="11.702820813189804"><ele>3.0</ele><time>2026-04-18T11:04:15Z</time></trkpt><trkpt lat="45.05260247435364" lon="11.702755677663713"><ele>3.0</ele><time>2026-04-18T11:04:16Z</time></trkpt><trkpt lat="45.052450134211014" lon="11.702670746997645"><ele>3.0</ele><time>2026-04-18T11:04:17Z</time></trkpt><trkpt lat="45.052307422474904" lon="11.702628150230952"><ele>2.8</ele><time>2026-04-18T11:04:18Z</time></trkpt><trkpt lat="45.05220167619354" lon="11.702539596988714"><ele>2.5999999999999996</ele><time>2026-04-18T11:04:19Z</time></trkpt><trkpt lat="45.05213157135067" lon="11.702430681844216"><ele>2.4000000000000004</ele><time>2026-04-18T11:04:20Z</time></trkpt><trkpt lat="45.052092240680025" lon="11.702311530221001"><ele>2.2</ele><time>2026-04-18T11:04:21Z</time></trkpt><trkpt lat="45.05210893190649" lon="11.702177967092787"><ele>2.0</ele><time>2026-04-18T11:04:22Z</time></trkpt><trkpt lat="45.052088082039006" lon="11.702018385447102"><ele>2.0</ele><time>2026-04-18T11:04:23Z</time></trkpt><trkpt lat="45.05204672522499" lon="11.701811002705329"><ele>2.0</ele><time>2026-04-18T11:04:24Z</time></trkpt><trkpt lat="45.0520106794883" lon="11.701569717406377"><ele>2.0</ele><time>2026-04-18T11:04:25Z</time></trkpt><trkpt lat="45.05196822006207" lon="11.70131139023083"><ele>2.6666666666666665</ele><time>2026-04-18T11:04:26Z</time></trkpt><trkpt lat="45.05192825668943" lon="11.701053444657587"><ele>3.333333333333333</ele><time>2026-04-18T11:04:27Z</time></trkpt><trkpt lat="45.051895503757976" lon="11.700817804755765"><ele>4.0</ele><time>2026-04-18T11:04:28Z</time></trkpt><trkpt lat="45.05186334687837" lon="11.700601214416766"><ele>4.0</ele><time>2026-04-18T11:04:29Z</time></trkpt><trkpt lat="45.05182817517112" lon="11.700409091722367"><ele>4.0</ele><time>2026-04-18T11:04:30Z</time></trkpt><trkpt lat="45.0517977226794" lon="11.700232826279736"><ele>4.0</ele><time>2026-04-18T11:04:31Z</time></trkpt><trkpt lat="45.05176580751405" lon="11.700078066362186"><ele>4.0</ele><time>2026-04-18T11:04:32Z</time></trkpt><trkpt lat="45.05175462111986" lon="11.69993634620511"><ele>4.2</ele><time>2026-04-18T11:04:33Z</time></trkpt><trkpt lat="45.051731622734344" lon="11.699838467798457"><ele>4.4</ele><time>2026-04-18T11:04:34Z</time></trkpt><trkpt lat="45.051726980457" lon="11.699725288601629"><ele>4.6</ele><time>2026-04-18T11:04:36Z</time></trkpt><trkpt lat="45.05159970935831" lon="11.69970806262151"><ele>4.8</ele><time>2026-04-18T11:04:39Z</time></trkpt><trkpt lat="45.051516051392895" lon="11.699734279337179"><ele>5.0</ele><time>2026-04-18T11:04:40Z</time></trkpt><trkpt lat="45.051416872275816" lon="11.699782305177967"><ele>5.0</ele><time>2026-04-18T11:04:41Z</time></trkpt><trkpt lat="45.05132986320598" lon="11.699843060909375"><ele>5.0</ele><time>2026-04-18T11:04:42Z</time></trkpt><trkpt lat="45.0512494800352" lon="11.699896007512432"><ele>5.0</ele><time>2026-04-18T11:04:43Z</time></trkpt><trkpt lat="45.05118926078317" lon="11.699931799024334"><ele>5.0</ele><time>2026-04-18T11:04:44Z</time></trkpt><trkpt lat="45.05110270529541" lon="11.6999987821992"><ele>5.0</ele><time>2026-04-18T11:04:46Z</time></trkpt><trkpt lat="45.0510425734174" lon="11.700040357107099"><ele>5.0</ele><time>2026-04-18T11:04:47Z</time></trkpt><trkpt lat="45.0509615145046" lon="11.700091015262053"><ele>5.0</ele><time>2026-04-18T11:04:48Z</time></trkpt><trkpt lat="45.05087932953109" lon="11.70014996735656"><ele>5.0</ele><time>2026-04-18T11:04:49Z</time></trkpt><trkpt lat="45.05079965534328" lon="11.700207119984269"><ele>5.0</ele><time>2026-04-18T11:04:50Z</time></trkpt><trkpt lat="45.05072159390987" lon="11.700269431532902"><ele>5.0</ele><time>2026-04-18T11:04:51Z</time></trkpt><trkpt lat="45.050630091220334" lon="11.700338587104582"><ele>5.0</ele><time>2026-04-18T11:04:52Z</time></trkpt><trkpt lat="45.05055093519023" lon="11.700377744146422"><ele>4.6</ele><time>2026-04-18T11:04:53Z</time></trkpt><trkpt lat="45.05047440599281" lon="11.700456959793863"><ele>4.2</ele><time>2026-04-18T11:04:54Z</time></trkpt><trkpt lat="45.05038107505652" lon="11.700482260291535"><ele>3.8</ele><time>2026-04-18T11:04:55Z</time></trkpt><trkpt lat="45.050289336070705" lon="11.700534844116307"><ele>3.4</ele><time>2026-04-18T11:04:56Z</time></trkpt><trkpt lat="45.050193074019525" lon="11.700590835713037"><ele>3.0</ele><time>2026-04-18T11:04:57Z</time></trkpt><trkpt lat="45.05010197326317" lon="11.700643321878587"><ele>3.0</ele><time>2026-04-18T11:04:58Z</time></trkpt><trkpt lat="45.05002581525315" lon="11.700703325486446"><ele>3.0</ele><time>2026-04-18T11:04:59Z</time></trkpt><trkpt lat="45.04996516492853" lon="11.700738693028349"><ele>3.0</ele><time>2026-04-18T11:05:00Z</time></trkpt><trkpt lat="45.04987199926322" lon="11.700750452282447"><ele>3.0</ele><time>2026-04-18T11:05:02Z</time></trkpt><trkpt lat="45.04984552447181" lon="11.700600107437333"><ele>3.0</ele><time>2026-04-18T11:05:03Z</time></trkpt><trkpt lat="45.04979233445475" lon="11.700494957680267"><ele>3.0</ele><time>2026-04-18T11:05:04Z</time></trkpt><trkpt lat="45.04973084210033" lon="11.700377350458306"><ele>3.2</ele><time>2026-04-18T11:05:05Z</time></trkpt><trkpt lat="45.04968631547568" lon="11.700247221564027"><ele>3.4</ele><time>2026-04-18T11:05:06Z</time></trkpt><trkpt lat="45.049663270623434" lon="11.700111454074515"><ele>3.6000000000000005</ele><time>2026-04-18T11:05:07Z</time></trkpt><trkpt lat="45.04968654642789" lon="11.699977901492606"><ele>3.8000000000000003</ele><time>2026-04-18T11:05:08Z</time></trkpt><trkpt lat="45.0496896100321" lon="11.699856412299999"><ele>4.0</ele><time>2026-04-18T11:05:09Z</time></trkpt><trkpt lat="45.04967570782486" lon="11.699747250360689"><ele>4.0</ele><time>2026-04-18T11:05:10Z</time></trkpt><trkpt lat="45.04967984446322" lon="11.699655400301635"><ele>4.0</ele><time>2026-04-18T11:05:11Z</time></trkpt><trkpt lat="45.049696207583146" lon="11.699532176072308"><ele>4.0</ele><time>2026-04-18T11:05:13Z</time></trkpt><trkpt lat="45.04951806838494" lon="11.699539288409454"><ele>4.0</ele><time>2026-04-18T11:05:18Z</time></trkpt><trkpt lat="45.04947960296235" lon="11.699623240035399"><ele>4.0</ele><time>2026-04-18T11:05:21Z</time></trkpt><trkpt lat="45.049563632096756" lon="11.69964341498925"><ele>4.0</ele><time>2026-04-18T11:08:03Z</time></trkpt><trkpt lat="45.04950477441317" lon="11.69961061203545"><ele>4.0</ele><time>2026-04-18T11:09:31Z</time></trkpt><trkpt lat="45.04967564801195" lon="11.699651576460987"><ele>4.0</ele><time>2026-04-18T11:09:53Z</time></trkpt><trkpt lat="45.04961024887459" lon="11.699684877792478"><ele>4.0</ele><time>2026-04-18T11:10:08Z</time></trkpt><trkpt lat="45.04954008627895" lon="11.69966228570322"><ele>4.0</ele><time>2026-04-18T11:10:15Z</time></trkpt><trkpt lat="45.04946387405291" lon="11.699634383762596"><ele>4.0</ele><time>2026-04-18T11:10:19Z</time></trkpt></trkseg></trk></gpx>